<?xml version='1.0' encoding='UTF-8'?><gpx version="1.1" creator="JPX - https://github.com/jenetics/jpx" xmlns="http://www.topografix.com/GPX/1/1"><trk><trkseg><trkpt lat="43.1065905" lon="12.3196173"><ele>299.8</ele><time>2026-04-04T14:05:55.054Z</time></trkpt><trkpt lat="43.1065241" lon="12.3196257"><ele>298.6</ele><time>2026-04-04T14:05:58.047Z</time></trkpt><trkpt lat="43.1064591" lon="12.3196733"><ele>297.4</ele><time>2026-04-04T14:06:24.055Z</time></trkpt><trkpt lat="43.1063375" lon="12.3196934"><ele>296.2</ele><time>2026-04-04T14:06:26.05Z</time></trkpt><trkpt lat="43.1062272" lon="12.3196619"><ele>295.0</ele><time>2026-04-04T14:06:28.053Z</time></trkpt><trkpt lat="43.1061506" lon="12.3196961"><ele>295.2</ele><time>2026-04-04T14:06:29.051Z</time></trkpt><trkpt lat="43.1060811" lon="12.3197542"><ele>295.4</ele><time>2026-04-04T14:06:30.056Z</time></trkpt><trkpt lat="43.1060056" lon="12.3198284"><ele>295.6</ele><time>2026-04-04T14:06:31.059Z</time></trkpt><trkpt lat="43.1059211" lon="12.3198908"><ele>295.8</ele><time>2026-04-04T14:06:32.056Z</time></trkpt><trkpt lat="43.1058355" lon="12.3199675"><ele>296.0</ele><time>2026-04-04T14:06:33.055Z</time></trkpt><trkpt lat="43.1057522" lon="12.3200462"><ele>294.6</ele><time>2026-04-04T14:06:34.045Z</time></trkpt><trkpt lat="43.1056709" lon="12.3201257"><ele>293.20000000000005</ele><time>2026-04-04T14:06:35.048Z</time></trkpt><trkpt lat="43.1055948" lon="12.3201916"><ele>291.79999999999995</ele><time>2026-04-04T14:06:36.06Z</time></trkpt><trkpt lat="43.1055244" lon="12.3202494"><ele>290.4</ele><time>2026-04-04T14:06:37.062Z</time></trkpt><trkpt lat="43.105458" lon="12.3203043"><ele>289.0</ele><time>2026-04-04T14:06:38.062Z</time></trkpt><trkpt lat="43.1053594" lon="12.3203687"><ele>289.0</ele><time>2026-04-04T14:06:40.049Z</time></trkpt><trkpt lat="43.105294" lon="12.3203762"><ele>289.0</ele><time>2026-04-04T14:06:41.05Z</time></trkpt><trkpt lat="43.1052111" lon="12.320376"><ele>289.0</ele><time>2026-04-04T14:06:42.066Z</time></trkpt><trkpt lat="43.1051122" lon="12.3203828"><ele>289.0</ele><time>2026-04-04T14:06:43.068Z</time></trkpt><trkpt lat="43.1050049" lon="12.3203674"><ele>289.0</ele><time>2026-04-04T14:06:44.042Z</time></trkpt><trkpt lat="43.1048922" lon="12.3203462"><ele>287.75</ele><time>2026-04-04T14:06:45.061Z</time></trkpt><trkpt lat="43.1047711" lon="12.3203386"><ele>286.5</ele><time>2026-04-04T14:06:46.052Z</time></trkpt><trkpt lat="43.1046509" lon="12.3203319"><ele>285.25</ele><time>2026-04-04T14:06:47.055Z</time></trkpt><trkpt lat="43.1045367" lon="12.3203094"><ele>284.0</ele><time>2026-04-04T14:06:48.064Z</time></trkpt><trkpt lat="43.1044216" lon="12.3202941"><ele>284.0</ele><time>2026-04-04T14:06:49.063Z</time></trkpt><trkpt lat="43.1043218" lon="12.3202815"><ele>284.0</ele><time>2026-04-04T14:06:50.056Z</time></trkpt><trkpt lat="43.10425" lon="12.3202817"><ele>284.0</ele><time>2026-04-04T14:06:51.051Z</time></trkpt><trkpt lat="43.1041545" lon="12.3202736"><ele>284.0</ele><time>2026-04-04T14:06:53.057Z</time></trkpt><trkpt lat="43.1040862" lon="12.3201329"><ele>284.0</ele><time>2026-04-04T14:07:04.06Z</time></trkpt><trkpt lat="43.104062" lon="12.320025"><ele>283.33333333333337</ele><time>2026-04-04T14:07:05.049Z</time></trkpt><trkpt lat="43.1040336" lon="12.3199137"><ele>282.6666666666667</ele><time>2026-04-04T14:07:06.072Z</time></trkpt><trkpt lat="43.1040122" lon="12.3197978"><ele>282.0</ele><time>2026-04-04T14:07:07.063Z</time></trkpt><trkpt lat="43.103992" lon="12.3196962"><ele>281.3333333333333</ele><time>2026-04-04T14:07:08.054Z</time></trkpt><trkpt lat="43.103961" lon="12.3195868"><ele>280.66666666666663</ele><time>2026-04-04T14:07:09.05Z</time></trkpt><trkpt lat="43.1039434" lon="12.3194863"><ele>280.0</ele><time>2026-04-04T14:07:10.045Z</time></trkpt><trkpt lat="43.1039243" lon="12.3193916"><ele>279.8333333333333</ele><time>2026-04-04T14:07:11.069Z</time></trkpt><trkpt lat="43.1039057" lon="12.319308"><ele>279.66666666666663</ele><time>2026-04-04T14:07:12.06Z</time></trkpt><trkpt lat="43.1038796" lon="12.3191728"><ele>279.5</ele><time>2026-04-04T14:07:14.046Z</time></trkpt><trkpt lat="43.1038538" lon="12.319091"><ele>279.3333333333333</ele><time>2026-04-04T14:07:16.052Z</time></trkpt><trkpt lat="43.1037887" lon="12.319145"><ele>279.1666666666667</ele><time>2026-04-04T14:07:18.052Z</time></trkpt><trkpt lat="43.1038129" lon="12.319264"><ele>279.0</ele><time>2026-04-04T14:07:20.038Z</time></trkpt><trkpt lat="43.1038585" lon="12.319378"><ele>279.0</ele><time>2026-04-04T14:07:22.06Z</time></trkpt><trkpt lat="43.1038628" lon="12.3194669"><ele>279.0</ele><time>2026-04-04T14:07:24.056Z</time></trkpt><trkpt lat="43.1038094" lon="12.3195129"><ele>279.0</ele><time>2026-04-04T14:08:51.045Z</time></trkpt><trkpt lat="43.1037189" lon="12.3195163"><ele>279.0</ele><time>2026-04-04T14:12:12.04Z</time></trkpt><trkpt lat="43.1037278" lon="12.3193878"><ele>279.0</ele><time>2026-04-04T14:12:15.046Z</time></trkpt><trkpt lat="43.103805" lon="12.319396"><ele>279.0</ele><time>2026-04-04T14:12:18.045Z</time></trkpt><trkpt lat="43.1038627" lon="12.3194635"><ele>279.0</ele><time>2026-04-04T14:13:36.044Z</time></trkpt><trkpt lat="43.1038967" lon="12.3195512"><ele>279.0</ele><time>2026-04-04T14:13:38.048Z</time></trkpt><trkpt lat="43.1039657" lon="12.3196741"><ele>279.0</ele><time>2026-04-04T14:13:40.046Z</time></trkpt><trkpt lat="43.103995" lon="12.3197675"><ele>279.0</ele><time>2026-04-04T14:13:41.051Z</time></trkpt><trkpt lat="43.1040117" lon="12.3198763"><ele>279.0</ele><time>2026-04-04T14:13:42.051Z</time></trkpt><trkpt lat="43.1040383" lon="12.320003"><ele>279.0</ele><time>2026-04-04T14:13:43.046Z</time></trkpt><trkpt lat="43.104062" lon="12.3201166"><ele>280.0</ele><time>2026-04-04T14:13:44.058Z</time></trkpt><trkpt lat="43.1040832" lon="12.3202091"><ele>281.0</ele><time>2026-04-04T14:13:45.049Z</time></trkpt><trkpt lat="43.1041143" lon="12.3203523"><ele>282.0</ele><time>2026-04-04T14:13:47.054Z</time></trkpt><trkpt lat="43.1041643" lon="12.3204395"><ele>283.0</ele><time>2026-04-04T14:13:49.048Z</time></trkpt><trkpt lat="43.1042431" lon="12.3203855"><ele>284.0</ele><time>2026-04-04T14:13:51.054Z</time></trkpt><trkpt lat="43.1043605" lon="12.3203196"><ele>284.0</ele><time>2026-04-04T14:13:53.046Z</time></trkpt><trkpt lat="43.1044513" lon="12.3203163"><ele>284.0</ele><time>2026-04-04T14:13:54.049Z</time></trkpt><trkpt lat="43.1045359" lon="12.3203249"><ele>284.0</ele><time>2026-04-04T14:13:55.045Z</time></trkpt><trkpt lat="43.1046238" lon="12.3203273"><ele>284.0</ele><time>2026-04-04T14:13:56.051Z</time></trkpt><trkpt lat="43.1047172" lon="12.3203399"><ele>284.0</ele><time>2026-04-04T14:13:57.053Z</time></trkpt><trkpt lat="43.1048134" lon="12.3203482"><ele>284.0</ele><time>2026-04-04T14:13:58.05Z</time></trkpt><trkpt lat="43.1049105" lon="12.3203559"><ele>284.0</ele><time>2026-04-04T14:13:59.061Z</time></trkpt><trkpt lat="43.1050141" lon="12.3203643"><ele>284.0</ele><time>2026-04-04T14:14:00.049Z</time></trkpt><trkpt lat="43.1051213" lon="12.3203818"><ele>284.0</ele><time>2026-04-04T14:14:01.041Z</time></trkpt><trkpt lat="43.1052239" lon="12.3203985"><ele>284.0</ele><time>2026-04-04T14:14:02.049Z</time></trkpt><trkpt lat="43.1053234" lon="12.3204321"><ele>285.0</ele><time>2026-04-04T14:14:03.054Z</time></trkpt><trkpt lat="43.1054018" lon="12.3205109"><ele>286.0</ele><time>2026-04-04T14:14:04.05Z</time></trkpt><trkpt lat="43.105469" lon="12.3206191"><ele>287.0</ele><time>2026-04-04T14:14:05.05Z</time></trkpt><trkpt lat="43.1055359" lon="12.320731"><ele>288.0</ele><time>2026-04-04T14:14:06.043Z</time></trkpt><trkpt lat="43.1056016" lon="12.3208502"><ele>289.0</ele><time>2026-04-04T14:14:07.049Z</time></trkpt><trkpt lat="43.1056627" lon="12.3209626"><ele>289.0</ele><time>2026-04-04T14:14:08.046Z</time></trkpt><trkpt lat="43.1057421" lon="12.3210394"><ele>289.0</ele><time>2026-04-04T14:14:09.04Z</time></trkpt><trkpt lat="43.1058372" lon="12.3210745"><ele>289.0</ele><time>2026-04-04T14:14:10.048Z</time></trkpt><trkpt lat="43.1059432" lon="12.3210888"><ele>289.0</ele><time>2026-04-04T14:14:11.049Z</time></trkpt><trkpt lat="43.1060705" lon="12.3210811"><ele>289.0</ele><time>2026-04-04T14:14:12.055Z</time></trkpt><trkpt lat="43.1062131" lon="12.3210746"><ele>290.5</ele><time>2026-04-04T14:14:13.041Z</time></trkpt><trkpt lat="43.1063528" lon="12.3210778"><ele>292.0</ele><time>2026-04-04T14:14:14.05Z</time></trkpt><trkpt lat="43.1064863" lon="12.321071"><ele>293.5</ele><time>2026-04-04T14:14:15.055Z</time></trkpt><trkpt lat="43.1066102" lon="12.321057"><ele>295.0</ele><time>2026-04-04T14:14:16.059Z</time></trkpt><trkpt lat="43.106729" lon="12.3210361"><ele>296.75</ele><time>2026-04-04T14:14:17.047Z</time></trkpt><trkpt lat="43.1068482" lon="12.321015"><ele>298.5</ele><time>2026-04-04T14:14:18.049Z</time></trkpt><trkpt lat="43.1069634" lon="12.3209939"><ele>300.25</ele><time>2026-04-04T14:14:19.066Z</time></trkpt><trkpt lat="43.1070825" lon="12.3209667"><ele>302.0</ele><time>2026-04-04T14:14:20.055Z</time></trkpt><trkpt lat="43.1071996" lon="12.3209422"><ele>302.0</ele><time>2026-04-04T14:14:21.044Z</time></trkpt><trkpt lat="43.1073199" lon="12.3209189"><ele>302.0</ele><time>2026-04-04T14:14:22.046Z</time></trkpt><trkpt lat="43.1074377" lon="12.3209061"><ele>302.0</ele><time>2026-04-04T14:14:23.051Z</time></trkpt><trkpt lat="43.1075526" lon="12.3208772"><ele>302.0</ele><time>2026-04-04T14:14:24.048Z</time></trkpt><trkpt lat="43.1076619" lon="12.3208422"><ele>303.25</ele><time>2026-04-04T14:14:25.051Z</time></trkpt><trkpt lat="43.1077712" lon="12.3207751"><ele>304.5</ele><time>2026-04-04T14:14:26.042Z</time></trkpt><trkpt lat="43.1078709" lon="12.3206907"><ele>305.75</ele><time>2026-04-04T14:14:27.052Z</time></trkpt><trkpt lat="43.1079722" lon="12.320593"><ele>307.0</ele><time>2026-04-04T14:14:28.041Z</time></trkpt><trkpt lat="43.1080866" lon="12.3205181"><ele>307.25</ele><time>2026-04-04T14:14:29.042Z</time></trkpt><trkpt lat="43.1082048" lon="12.3204487"><ele>307.5</ele><time>2026-04-04T14:14:30.045Z</time></trkpt><trkpt lat="43.1083213" lon="12.3203959"><ele>307.75</ele><time>2026-04-04T14:14:31.045Z</time></trkpt><trkpt lat="43.1084294" lon="12.3203461"><ele>308.0</ele><time>2026-04-04T14:14:32.043Z</time></trkpt><trkpt lat="43.1085351" lon="12.3202933"><ele>309.8</ele><time>2026-04-04T14:14:33.041Z</time></trkpt><trkpt lat="43.1086419" lon="12.3202535"><ele>311.6</ele><time>2026-04-04T14:14:34.041Z</time></trkpt><trkpt lat="43.1087314" lon="12.320213"><ele>313.4</ele><time>2026-04-04T14:14:35.048Z</time></trkpt><trkpt lat="43.1088017" lon="12.320174"><ele>315.2</ele><time>2026-04-04T14:14:36.05Z</time></trkpt><trkpt lat="43.10888" lon="12.3201585"><ele>317.0</ele><time>2026-04-04T14:14:38.049Z</time></trkpt><trkpt lat="43.1089502" lon="12.3202768"><ele>317.0</ele><time>2026-04-04T14:14:41.05Z</time></trkpt><trkpt lat="43.1089795" lon="12.3203961"><ele>317.0</ele><time>2026-04-04T14:14:43.039Z</time></trkpt><trkpt lat="43.1090311" lon="12.3205528"><ele>317.0</ele><time>2026-04-04T14:14:45.044Z</time></trkpt><trkpt lat="43.1090576" lon="12.3206473"><ele>317.0</ele><time>2026-04-04T14:14:46.045Z</time></trkpt><trkpt lat="43.1090858" lon="12.3207495"><ele>317.0</ele><time>2026-04-04T14:14:47.05Z</time></trkpt><trkpt lat="43.1091088" lon="12.3208558"><ele>318.4</ele><time>2026-04-04T14:14:48.046Z</time></trkpt><trkpt lat="43.1091321" lon="12.320973"><ele>319.79999999999995</ele><time>2026-04-04T14:14:49.041Z</time></trkpt><trkpt lat="43.1091556" lon="12.3210897"><ele>321.2</ele><time>2026-04-04T14:14:50.046Z</time></trkpt><trkpt lat="43.1091813" lon="12.3212145"><ele>322.59999999999997</ele><time>2026-04-04T14:14:51.044Z</time></trkpt><trkpt lat="43.1091954" lon="12.3213429"><ele>324.0</ele><time>2026-04-04T14:14:52.049Z</time></trkpt><trkpt lat="43.1092058" lon="12.3214822"><ele>324.0</ele><time>2026-04-04T14:14:53.051Z</time></trkpt><trkpt lat="43.1092175" lon="12.3216267"><ele>324.0</ele><time>2026-04-04T14:14:54.046Z</time></trkpt><trkpt lat="43.1092351" lon="12.3217584"><ele>324.0</ele><time>2026-04-04T14:14:55.051Z</time></trkpt><trkpt lat="43.109258" lon="12.3218787"><ele>324.0</ele><time>2026-04-04T14:14:56.053Z</time></trkpt><trkpt lat="43.109284" lon="12.3219927"><ele>324.0</ele><time>2026-04-04T14:14:57.04Z</time></trkpt><trkpt lat="43.1093082" lon="12.3221013"><ele>324.0</ele><time>2026-04-04T14:14:58.047Z</time></trkpt><trkpt lat="43.1093095" lon="12.3222116"><ele>324.0</ele><time>2026-04-04T14:14:59.043Z</time></trkpt><trkpt lat="43.1092984" lon="12.3223253"><ele>324.0</ele><time>2026-04-04T14:15:00.047Z</time></trkpt><trkpt lat="43.1092944" lon="12.3224412"><ele>324.0</ele><time>2026-04-04T14:15:01.042Z</time></trkpt><trkpt lat="43.1093105" lon="12.3225622"><ele>324.0</ele><time>2026-04-04T14:15:02.044Z</time></trkpt><trkpt lat="43.1093278" lon="12.3226699"><ele>324.0</ele><time>2026-04-04T14:15:03.045Z</time></trkpt><trkpt lat="43.1093452" lon="12.3227668"><ele>323.4</ele><time>2026-04-04T14:15:04.046Z</time></trkpt><trkpt lat="43.1093713" lon="12.322851"><ele>322.79999999999995</ele><time>2026-04-04T14:15:05.045Z</time></trkpt><trkpt lat="43.109424" lon="12.3229303"><ele>322.20000000000005</ele><time>2026-04-04T14:15:06.041Z</time></trkpt><trkpt lat="43.109492" lon="12.3230278"><ele>321.6</ele><time>2026-04-04T14:15:07.07Z</time></trkpt><trkpt lat="43.1095624" lon="12.3231419"><ele>321.0</ele><time>2026-04-04T14:15:08.047Z</time></trkpt><trkpt lat="43.1096243" lon="12.3232452"><ele>320.1666666666667</ele><time>2026-04-04T14:15:09.042Z</time></trkpt><trkpt lat="43.1096681" lon="12.3233272"><ele>319.3333333333333</ele><time>2026-04-04T14:15:10.043Z</time></trkpt><trkpt lat="43.1097046" lon="12.3234059"><ele>318.5</ele><time>2026-04-04T14:15:11.038Z</time></trkpt><trkpt lat="43.1097726" lon="12.3235465"><ele>317.66666666666663</ele><time>2026-04-04T14:15:13.044Z</time></trkpt><trkpt lat="43.1098234" lon="12.3236111"><ele>316.8333333333333</ele><time>2026-04-04T14:15:14.043Z</time></trkpt><trkpt lat="43.1098796" lon="12.3237058"><ele>316.0</ele><time>2026-04-04T14:15:15.047Z</time></trkpt><trkpt lat="43.1099388" lon="12.3237987"><ele>318.8333333333333</ele><time>2026-04-04T14:15:16.049Z</time></trkpt><trkpt lat="43.1099656" lon="12.3238776"><ele>321.66666666666663</ele><time>2026-04-04T14:15:17.044Z</time></trkpt><trkpt lat="43.1099684" lon="12.3239742"><ele>324.5</ele><time>2026-04-04T14:15:18.035Z</time></trkpt><trkpt lat="43.1099759" lon="12.3240694"><ele>327.3333333333333</ele><time>2026-04-04T14:15:19.046Z</time></trkpt><trkpt lat="43.1100008" lon="12.3242334"><ele>330.1666666666667</ele><time>2026-04-04T14:15:21.041Z</time></trkpt><trkpt lat="43.1100114" lon="12.324391"><ele>333.0</ele><time>2026-04-04T14:15:23.043Z</time></trkpt><trkpt lat="43.1100008" lon="12.3245498"><ele>333.5</ele><time>2026-04-04T14:15:25.044Z</time></trkpt><trkpt lat="43.1099768" lon="12.3246381"><ele>334.0</ele><time>2026-04-04T14:15:26.045Z</time></trkpt><trkpt lat="43.1099502" lon="12.324722"><ele>334.5</ele><time>2026-04-04T14:15:27.041Z</time></trkpt><trkpt lat="43.1099144" lon="12.3248608"><ele>335.0</ele><time>2026-04-04T14:15:29.046Z</time></trkpt><trkpt lat="43.1099073" lon="12.3249864"><ele>335.5</ele><time>2026-04-04T14:15:31.047Z</time></trkpt><trkpt lat="43.1098961" lon="12.3250855"><ele>336.0</ele><time>2026-04-04T14:15:33.049Z</time></trkpt><trkpt lat="43.109913" lon="12.3251692"><ele>337.3333333333333</ele><time>2026-04-04T14:15:35.049Z</time></trkpt><trkpt lat="43.1099508" lon="12.3252404"><ele>338.6666666666667</ele><time>2026-04-04T14:15:37.046Z</time></trkpt><trkpt lat="43.1099719" lon="12.3253226"><ele>340.0</ele><time>2026-04-04T14:15:39.051Z</time></trkpt><trkpt lat="43.1100023" lon="12.3254284"><ele>341.33333333333337</ele><time>2026-04-04T14:15:41.045Z</time></trkpt><trkpt lat="43.1100605" lon="12.325547"><ele>342.6666666666667</ele><time>2026-04-04T14:15:43.038Z</time></trkpt><trkpt lat="43.1100958" lon="12.3256472"><ele>344.0</ele><time>2026-04-04T14:15:45.042Z</time></trkpt><trkpt lat="43.1100984" lon="12.3257529"><ele>344.79999999999995</ele><time>2026-04-04T14:15:47.045Z</time></trkpt><trkpt lat="43.1100845" lon="12.3258705"><ele>345.59999999999997</ele><time>2026-04-04T14:15:49.045Z</time></trkpt><trkpt lat="43.1100461" lon="12.3260001"><ele>346.4</ele><time>2026-04-04T14:15:51.044Z</time></trkpt><trkpt lat="43.1099931" lon="12.3261443"><ele>347.2</ele><time>2026-04-04T14:15:53.073Z</time></trkpt><trkpt lat="43.1099276" lon="12.3262754"><ele>348.0</ele><time>2026-04-04T14:15:55.057Z</time></trkpt><trkpt lat="43.1098873" lon="12.3263841"><ele>346.5</ele><time>2026-04-04T14:15:57.05Z</time></trkpt><trkpt lat="43.1098717" lon="12.3265154"><ele>345.0</ele><time>2026-04-04T14:15:59.05Z</time></trkpt><trkpt lat="43.1098911" lon="12.3266508"><ele>343.5</ele><time>2026-04-04T14:16:01.043Z</time></trkpt><trkpt lat="43.1099197" lon="12.3267349"><ele>342.0</ele><time>2026-04-04T14:16:07.056Z</time></trkpt><trkpt lat="43.1100029" lon="12.3267456"><ele>340.5</ele><time>2026-04-04T14:16:10.043Z</time></trkpt><trkpt lat="43.1100937" lon="12.326708"><ele>339.0</ele><time>2026-04-04T14:16:12.041Z</time></trkpt><trkpt lat="43.1101734" lon="12.3266404"><ele>340.5</ele><time>2026-04-04T14:16:14.051Z</time></trkpt><trkpt lat="43.1102498" lon="12.3265687"><ele>342.0</ele><time>2026-04-04T14:16:17.049Z</time></trkpt><trkpt lat="43.1103302" lon="12.326497"><ele>343.5</ele><time>2026-04-04T14:16:20.055Z</time></trkpt><trkpt lat="43.1103867" lon="12.3264398"><ele>345.0</ele><time>2026-04-04T14:16:22.044Z</time></trkpt><trkpt lat="43.1104578" lon="12.3263801"><ele>346.5</ele><time>2026-04-04T14:16:24.045Z</time></trkpt><trkpt lat="43.110533" lon="12.3262992"><ele>348.0</ele><time>2026-04-04T14:16:26.041Z</time></trkpt><trkpt lat="43.1106065" lon="12.326231"><ele>348.0</ele><time>2026-04-04T14:16:28.043Z</time></trkpt><trkpt lat="43.1106883" lon="12.3261569"><ele>348.0</ele><time>2026-04-04T14:16:30.06Z</time></trkpt><trkpt lat="43.1107701" lon="12.3260971"><ele>348.0</ele><time>2026-04-04T14:16:32.047Z</time></trkpt><trkpt lat="43.1108318" lon="12.3260392"><ele>348.0</ele><time>2026-04-04T14:16:34.055Z</time></trkpt><trkpt lat="43.1109147" lon="12.3259772"><ele>348.0</ele><time>2026-04-04T14:16:38.046Z</time></trkpt><trkpt lat="43.1110007" lon="12.3259723"><ele>348.0</ele><time>2026-04-04T14:16:49.046Z</time></trkpt><trkpt lat="43.1110716" lon="12.3259234"><ele>351.5</ele><time>2026-04-04T14:16:50.046Z</time></trkpt><trkpt lat="43.1111313" lon="12.3258246"><ele>355.0</ele><time>2026-04-04T14:16:51.036Z</time></trkpt><trkpt lat="43.1111605" lon="12.325711"><ele>358.5</ele><time>2026-04-04T14:16:52.05Z</time></trkpt><trkpt lat="43.1111817" lon="12.3256076"><ele>362.0</ele><time>2026-04-04T14:16:53.046Z</time></trkpt><trkpt lat="43.1112027" lon="12.3255039"><ele>365.5</ele><time>2026-04-04T14:16:54.043Z</time></trkpt><trkpt lat="43.1112278" lon="12.3254044"><ele>369.0</ele><time>2026-04-04T14:16:55.04Z</time></trkpt><trkpt lat="43.111253" lon="12.3253182"><ele>369.0</ele><time>2026-04-04T14:16:56.045Z</time></trkpt><trkpt lat="43.1112905" lon="12.3251694"><ele>369.0</ele><time>2026-04-04T14:16:58.047Z</time></trkpt><trkpt lat="43.1113111" lon="12.3250862"><ele>369.0</ele><time>2026-04-04T14:16:59.054Z</time></trkpt><trkpt lat="43.1113376" lon="12.3250069"><ele>369.0</ele><time>2026-04-04T14:17:00.045Z</time></trkpt><trkpt lat="43.1113645" lon="12.3249122"><ele>369.0</ele><time>2026-04-04T14:17:01.06Z</time></trkpt><trkpt lat="43.111403" lon="12.3248216"><ele>369.0</ele><time>2026-04-04T14:17:02.044Z</time></trkpt><trkpt lat="43.1114464" lon="12.3247296"><ele>368.0</ele><time>2026-04-04T14:17:03.045Z</time></trkpt><trkpt lat="43.1114916" lon="12.3246342"><ele>367.0</ele><time>2026-04-04T14:17:04.041Z</time></trkpt><trkpt lat="43.1115425" lon="12.3245369"><ele>366.0</ele><time>2026-04-04T14:17:05.068Z</time></trkpt><trkpt lat="43.111594" lon="12.3244276"><ele>365.0</ele><time>2026-04-04T14:17:06.046Z</time></trkpt><trkpt lat="43.1116441" lon="12.3242861"><ele>364.0</ele><time>2026-04-04T14:17:07.04Z</time></trkpt><trkpt lat="43.1117056" lon="12.3241506"><ele>370.5</ele><time>2026-04-04T14:17:08.048Z</time></trkpt><trkpt lat="43.1117783" lon="12.3240093"><ele>377.0</ele><time>2026-04-04T14:17:09.049Z</time></trkpt><trkpt lat="43.1118487" lon="12.3238674"><ele>383.5</ele><time>2026-04-04T14:17:10.046Z</time></trkpt><trkpt lat="43.1119013" lon="12.3237261"><ele>390.0</ele><time>2026-04-04T14:17:11.051Z</time></trkpt><trkpt lat="43.1119359" lon="12.3235888"><ele>390.0</ele><time>2026-04-04T14:17:12.052Z</time></trkpt><trkpt lat="43.111982" lon="12.3234619"><ele>390.0</ele><time>2026-04-04T14:17:13.042Z</time></trkpt><trkpt lat="43.1120551" lon="12.3233476"><ele>390.0</ele><time>2026-04-04T14:17:14.046Z</time></trkpt><trkpt lat="43.1121422" lon="12.3232556"><ele>390.0</ele><time>2026-04-04T14:17:15.061Z</time></trkpt><trkpt lat="43.1122406" lon="12.3231891"><ele>390.0</ele><time>2026-04-04T14:17:16.044Z</time></trkpt><trkpt lat="43.1123319" lon="12.3231131"><ele>393.5</ele><time>2026-04-04T14:17:17.041Z</time></trkpt><trkpt lat="43.1124249" lon="12.3230328"><ele>397.0</ele><time>2026-04-04T14:17:18.049Z</time></trkpt><trkpt lat="43.1125217" lon="12.3229535"><ele>400.5</ele><time>2026-04-04T14:17:19.051Z</time></trkpt><trkpt lat="43.1126162" lon="12.3228719"><ele>404.0</ele><time>2026-04-04T14:17:20.048Z</time></trkpt><trkpt lat="43.1127161" lon="12.3227885"><ele>404.0</ele><time>2026-04-04T14:17:21.049Z</time></trkpt><trkpt lat="43.11281" lon="12.3226963"><ele>404.0</ele><time>2026-04-04T14:17:22.057Z</time></trkpt><trkpt lat="43.1129048" lon="12.322606"><ele>404.0</ele><time>2026-04-04T14:17:23.052Z</time></trkpt><trkpt lat="43.1129889" lon="12.3225187"><ele>404.0</ele><time>2026-04-04T14:17:24.051Z</time></trkpt><trkpt lat="43.1130743" lon="12.3224255"><ele>404.0</ele><time>2026-04-04T14:17:25.068Z</time></trkpt><trkpt lat="43.1131565" lon="12.3223208"><ele>402.75</ele><time>2026-04-04T14:17:26.044Z</time></trkpt><trkpt lat="43.1132217" lon="12.3222026"><ele>401.5</ele><time>2026-04-04T14:17:27.045Z</time></trkpt><trkpt lat="43.1132751" lon="12.3220649"><ele>400.25</ele><time>2026-04-04T14:17:28.043Z</time></trkpt><trkpt lat="43.1133205" lon="12.3219208"><ele>399.0</ele><time>2026-04-04T14:17:29.082Z</time></trkpt><trkpt lat="43.1133686" lon="12.3217676"><ele>405.75</ele><time>2026-04-04T14:17:30.045Z</time></trkpt><trkpt lat="43.1134166" lon="12.321621"><ele>412.5</ele><time>2026-04-04T14:17:31.048Z</time></trkpt><trkpt lat="43.1134606" lon="12.3214589"><ele>419.25</ele><time>2026-04-04T14:17:32.05Z</time></trkpt><trkpt lat="43.1135041" lon="12.3212947"><ele>426.0</ele><time>2026-04-04T14:17:33.05Z</time></trkpt><trkpt lat="43.1135442" lon="12.3211404"><ele>426.0</ele><time>2026-04-04T14:17:34.045Z</time></trkpt><trkpt lat="43.1136016" lon="12.3209943"><ele>426.0</ele><time>2026-04-04T14:17:35.052Z</time></trkpt><trkpt lat="43.1136774" lon="12.3208588"><ele>426.0</ele><time>2026-04-04T14:17:36.049Z</time></trkpt><trkpt lat="43.1137593" lon="12.3207242"><ele>426.0</ele><time>2026-04-04T14:17:37.051Z</time></trkpt><trkpt lat="43.1138301" lon="12.3205805"><ele>423.5</ele><time>2026-04-04T14:17:38.049Z</time></trkpt><trkpt lat="43.1138997" lon="12.3204445"><ele>421.0</ele><time>2026-04-04T14:17:39.041Z</time></trkpt><trkpt lat="43.113979" lon="12.3203152"><ele>418.5</ele><time>2026-04-04T14:17:40.044Z</time></trkpt><trkpt lat="43.1140722" lon="12.3201956"><ele>416.0</ele><time>2026-04-04T14:17:41.044Z</time></trkpt><trkpt lat="43.1141645" lon="12.3200727"><ele>419.75</ele><time>2026-04-04T14:17:42.046Z</time></trkpt><trkpt lat="43.1142569" lon="12.3199386"><ele>423.5</ele><time>2026-04-04T14:17:43.05Z</time></trkpt><trkpt lat="43.1143524" lon="12.3198104"><ele>427.25</ele><time>2026-04-04T14:17:44.039Z</time></trkpt><trkpt lat="43.1144559" lon="12.3196852"><ele>431.0</ele><time>2026-04-04T14:17:45.058Z</time></trkpt><trkpt lat="43.114555" lon="12.3195583"><ele>431.0</ele><time>2026-04-04T14:17:46.057Z</time></trkpt><trkpt lat="43.1146591" lon="12.3194328"><ele>431.0</ele><time>2026-04-04T14:17:47.038Z</time></trkpt><trkpt lat="43.114763" lon="12.3193024"><ele>431.0</ele><time>2026-04-04T14:17:48.048Z</time></trkpt><trkpt lat="43.114862" lon="12.3191801"><ele>431.0</ele><time>2026-04-04T14:17:49.043Z</time></trkpt><trkpt lat="43.1149587" lon="12.3190551"><ele>436.5</ele><time>2026-04-04T14:17:50.045Z</time></trkpt><trkpt lat="43.1150568" lon="12.318917"><ele>442.0</ele><time>2026-04-04T14:17:51.049Z</time></trkpt><trkpt lat="43.1151465" lon="12.3187698"><ele>447.5</ele><time>2026-04-04T14:17:52.046Z</time></trkpt><trkpt lat="43.1152288" lon="12.3185975"><ele>453.0</ele><time>2026-04-04T14:17:53.039Z</time></trkpt><trkpt lat="43.1153064" lon="12.3184178"><ele>453.0</ele><time>2026-04-04T14:17:54.045Z</time></trkpt><trkpt lat="43.1153826" lon="12.3182415"><ele>453.0</ele><time>2026-04-04T14:17:55.042Z</time></trkpt><trkpt lat="43.1154564" lon="12.3180764"><ele>453.0</ele><time>2026-04-04T14:17:56.044Z</time></trkpt><trkpt lat="43.1155264" lon="12.3179217"><ele>453.0</ele><time>2026-04-04T14:17:57.041Z</time></trkpt><trkpt lat="43.1155854" lon="12.3177494"><ele>453.0</ele><time>2026-04-04T14:17:58.05Z</time></trkpt><trkpt lat="43.1156289" lon="12.3175672"><ele>453.0</ele><time>2026-04-04T14:17:59.037Z</time></trkpt><trkpt lat="43.1156656" lon="12.3173735"><ele>453.0</ele><time>2026-04-04T14:18:00.044Z</time></trkpt><trkpt lat="43.1156969" lon="12.3171792"><ele>453.0</ele><time>2026-04-04T14:18:01.043Z</time></trkpt><trkpt lat="43.1157394" lon="12.3169912"><ele>461.5</ele><time>2026-04-04T14:18:02.043Z</time></trkpt><trkpt lat="43.1157827" lon="12.3168021"><ele>470.0</ele><time>2026-04-04T14:18:03.068Z</time></trkpt><trkpt lat="43.1158266" lon="12.3166109"><ele>478.5</ele><time>2026-04-04T14:18:04.043Z</time></trkpt><trkpt lat="43.1158806" lon="12.3164285"><ele>487.0</ele><time>2026-04-04T14:18:05.032Z</time></trkpt><trkpt lat="43.1159355" lon="12.3162673"><ele>489.20000000000005</ele><time>2026-04-04T14:18:06.029Z</time></trkpt><trkpt lat="43.1159935" lon="12.3161296"><ele>491.40000000000003</ele><time>2026-04-04T14:18:07.047Z</time></trkpt><trkpt lat="43.1160416" lon="12.3159881"><ele>493.59999999999997</ele><time>2026-04-04T14:18:08.042Z</time></trkpt><trkpt lat="43.1160881" lon="12.3158682"><ele>495.79999999999995</ele><time>2026-04-04T14:18:09.036Z</time></trkpt><trkpt lat="43.1161218" lon="12.315773"><ele>498.0</ele><time>2026-04-04T14:18:10.041Z</time></trkpt><trkpt lat="43.1161306" lon="12.3156875"><ele>498.0</ele><time>2026-04-04T14:18:11.046Z</time></trkpt><trkpt lat="43.1160576" lon="12.315609"><ele>497.99999999999994</ele><time>2026-04-04T14:18:13.042Z</time></trkpt><trkpt lat="43.1159673" lon="12.3156234"><ele>497.99999999999994</ele><time>2026-04-04T14:18:14.036Z</time></trkpt><trkpt lat="43.1158683" lon="12.3156774"><ele>498.0</ele><time>2026-04-04T14:18:15.038Z</time></trkpt><trkpt lat="43.1157553" lon="12.315763"><ele>498.0</ele><time>2026-04-04T14:18:16.047Z</time></trkpt><trkpt lat="43.1156209" lon="12.3158387"><ele>500.0</ele><time>2026-04-04T14:18:17.037Z</time></trkpt><trkpt lat="43.1154724" lon="12.3159127"><ele>502.0</ele><time>2026-04-04T14:18:18.054Z</time></trkpt><trkpt lat="43.1153425" lon="12.3159849"><ele>504.0</ele><time>2026-04-04T14:18:19.047Z</time></trkpt><trkpt lat="43.1152222" lon="12.3160595"><ele>506.0</ele><time>2026-04-04T14:18:20.058Z</time></trkpt><trkpt lat="43.1151034" lon="12.3161311"><ele>506.0</ele><time>2026-04-04T14:18:21.042Z</time></trkpt><trkpt lat="43.1149939" lon="12.316184"><ele>506.0</ele><time>2026-04-04T14:18:22.042Z</time></trkpt><trkpt lat="43.1148838" lon="12.3162099"><ele>506.0</ele><time>2026-04-04T14:18:23.044Z</time></trkpt><trkpt lat="43.1147698" lon="12.3162099"><ele>506.0</ele><time>2026-04-04T14:18:24.041Z</time></trkpt><trkpt lat="43.114659" lon="12.3161903"><ele>504.6</ele><time>2026-04-04T14:18:25.044Z</time></trkpt><trkpt lat="43.114546" lon="12.3161634"><ele>503.20000000000005</ele><time>2026-04-04T14:18:26.045Z</time></trkpt><trkpt lat="43.1144507" lon="12.3161102"><ele>501.79999999999995</ele><time>2026-04-04T14:18:27.047Z</time></trkpt><trkpt lat="43.1143644" lon="12.3160264"><ele>500.4</ele><time>2026-04-04T14:18:28.044Z</time></trkpt><trkpt lat="43.1142879" lon="12.3159146"><ele>499.0</ele><time>2026-04-04T14:18:29.061Z</time></trkpt><trkpt lat="43.114236" lon="12.3157623"><ele>499.0</ele><time>2026-04-04T14:18:30.045Z</time></trkpt><trkpt lat="43.1141922" lon="12.3156147"><ele>499.0</ele><time>2026-04-04T14:18:31.039Z</time></trkpt><trkpt lat="43.1141411" lon="12.3154666"><ele>499.0</ele><time>2026-04-04T14:18:32.042Z</time></trkpt><trkpt lat="43.1140786" lon="12.315319"><ele>499.0</ele><time>2026-04-04T14:18:33.047Z</time></trkpt><trkpt lat="43.1140186" lon="12.3151829"><ele>500.0</ele><time>2026-04-04T14:18:34.041Z</time></trkpt><trkpt lat="43.1139528" lon="12.3150331"><ele>501.0</ele><time>2026-04-04T14:18:35.043Z</time></trkpt><trkpt lat="43.1138809" lon="12.3148813"><ele>502.0</ele><time>2026-04-04T14:18:36.04Z</time></trkpt><trkpt lat="43.113813" lon="12.3147339"><ele>503.0</ele><time>2026-04-04T14:18:37.041Z</time></trkpt><trkpt lat="43.113742" lon="12.3145856"><ele>503.0</ele><time>2026-04-04T14:18:38.049Z</time></trkpt><trkpt lat="43.1136758" lon="12.3144387"><ele>503.0</ele><time>2026-04-04T14:18:39.043Z</time></trkpt><trkpt lat="43.1136046" lon="12.3142958"><ele>503.0</ele><time>2026-04-04T14:18:40.038Z</time></trkpt><trkpt lat="43.1135372" lon="12.3141508"><ele>503.0</ele><time>2026-04-04T14:18:41.048Z</time></trkpt><trkpt lat="43.1134677" lon="12.3140095"><ele>504.0</ele><time>2026-04-04T14:18:42.039Z</time></trkpt><trkpt lat="43.1133993" lon="12.3138745"><ele>505.0</ele><time>2026-04-04T14:18:43.04Z</time></trkpt><trkpt lat="43.1133381" lon="12.3137383"><ele>506.0</ele><time>2026-04-04T14:18:44.051Z</time></trkpt><trkpt lat="43.1132783" lon="12.3136045"><ele>507.0</ele><time>2026-04-04T14:18:45.046Z</time></trkpt><trkpt lat="43.1132278" lon="12.3134811"><ele>507.0</ele><time>2026-04-04T14:18:46.048Z</time></trkpt><trkpt lat="43.1131963" lon="12.3133601"><ele>507.00000000000006</ele><time>2026-04-04T14:18:47.042Z</time></trkpt><trkpt lat="43.1132039" lon="12.3132335"><ele>507.00000000000006</ele><time>2026-04-04T14:18:48.044Z</time></trkpt><trkpt lat="43.1132537" lon="12.31312"><ele>507.0</ele><time>2026-04-04T14:18:49.046Z</time></trkpt><trkpt lat="43.113347" lon="12.313037"><ele>507.0</ele><time>2026-04-04T14:18:50.042Z</time></trkpt><trkpt lat="43.1134444" lon="12.3129823"><ele>505.20000000000005</ele><time>2026-04-04T14:18:51.05Z</time></trkpt><trkpt lat="43.113541" lon="12.3129584"><ele>503.40000000000003</ele><time>2026-04-04T14:18:52.037Z</time></trkpt><trkpt lat="43.1136446" lon="12.3129561"><ele>501.59999999999997</ele><time>2026-04-04T14:18:53.041Z</time></trkpt><trkpt lat="43.1137479" lon="12.3129607"><ele>499.79999999999995</ele><time>2026-04-04T14:18:54.045Z</time></trkpt><trkpt lat="43.1138612" lon="12.3129974"><ele>498.0</ele><time>2026-04-04T14:18:55.045Z</time></trkpt><trkpt lat="43.1139654" lon="12.3130291"><ele>498.0</ele><time>2026-04-04T14:18:56.031Z</time></trkpt><trkpt lat="43.1140711" lon="12.3130682"><ele>498.0</ele><time>2026-04-04T14:18:57.049Z</time></trkpt><trkpt lat="43.1141937" lon="12.3131168"><ele>498.0</ele><time>2026-04-04T14:18:58.048Z</time></trkpt><trkpt lat="43.1143398" lon="12.3131454"><ele>498.0</ele><time>2026-04-04T14:18:59.056Z</time></trkpt><trkpt lat="43.1145057" lon="12.3131821"><ele>505.0</ele><time>2026-04-04T14:19:00.051Z</time></trkpt><trkpt lat="43.1146775" lon="12.3131931"><ele>512.0</ele><time>2026-04-04T14:19:01.054Z</time></trkpt><trkpt lat="43.1148492" lon="12.3131743"><ele>519.0</ele><time>2026-04-04T14:19:02.046Z</time></trkpt><trkpt lat="43.1150126" lon="12.3131662"><ele>524.0</ele><time>2026-04-04T14:19:03.042Z</time></trkpt><trkpt lat="43.1151783" lon="12.3131619"><ele>529.0</ele><time>2026-04-04T14:19:04.05Z</time></trkpt><trkpt lat="43.115344" lon="12.3131657"><ele>534.0</ele><time>2026-04-04T14:19:05.041Z</time></trkpt><trkpt lat="43.1154961" lon="12.3131786"><ele>534.0</ele><time>2026-04-04T14:19:06.049Z</time></trkpt><trkpt lat="43.1156377" lon="12.3131814"><ele>534.0</ele><time>2026-04-04T14:19:07.048Z</time></trkpt><trkpt lat="43.1157725" lon="12.3131841"><ele>534.0</ele><time>2026-04-04T14:19:08.047Z</time></trkpt><trkpt lat="43.1158981" lon="12.3131993"><ele>534.0</ele><time>2026-04-04T14:19:09.043Z</time></trkpt><trkpt lat="43.1160194" lon="12.3132366"><ele>535.5</ele><time>2026-04-04T14:19:10.051Z</time></trkpt><trkpt lat="43.1161479" lon="12.3132797"><ele>537.0</ele><time>2026-04-04T14:19:11.05Z</time></trkpt><trkpt lat="43.1162835" lon="12.3132561"><ele>538.5</ele><time>2026-04-04T14:19:12.047Z</time></trkpt><trkpt lat="43.1164184" lon="12.3132008"><ele>540.0</ele><time>2026-04-04T14:19:13.049Z</time></trkpt><trkpt lat="43.1165527" lon="12.3131549"><ele>541.0</ele><time>2026-04-04T14:19:14.054Z</time></trkpt><trkpt lat="43.1166856" lon="12.3131136"><ele>542.0</ele><time>2026-04-04T14:19:15.04Z</time></trkpt><trkpt lat="43.1168113" lon="12.3130533"><ele>543.0</ele><time>2026-04-04T14:19:16.047Z</time></trkpt><trkpt lat="43.1169342" lon="12.3129863"><ele>544.0</ele><time>2026-04-04T14:19:17.047Z</time></trkpt><trkpt lat="43.1170576" lon="12.3129219"><ele>544.5</ele><time>2026-04-04T14:19:18.054Z</time></trkpt><trkpt lat="43.1171894" lon="12.3128556"><ele>545.0</ele><time>2026-04-04T14:19:19.054Z</time></trkpt><trkpt lat="43.1173147" lon="12.3127832"><ele>545.5</ele><time>2026-04-04T14:19:20.051Z</time></trkpt><trkpt lat="43.1174327" lon="12.31272"><ele>546.0</ele><time>2026-04-04T14:19:21.054Z</time></trkpt><trkpt lat="43.1175563" lon="12.312684"><ele>547.5</ele><time>2026-04-04T14:19:22.045Z</time></trkpt><trkpt lat="43.1176883" lon="12.3126661"><ele>549.0</ele><time>2026-04-04T14:19:23.052Z</time></trkpt><trkpt lat="43.1178142" lon="12.3126589"><ele>550.5</ele><time>2026-04-04T14:19:24.045Z</time></trkpt><trkpt lat="43.1179442" lon="12.3126576"><ele>552.0</ele><time>2026-04-04T14:19:25.084Z</time></trkpt><trkpt lat="43.1180668" lon="12.3126518"><ele>552.0</ele><time>2026-04-04T14:19:26.046Z</time></trkpt><trkpt lat="43.1181915" lon="12.3126345"><ele>552.0</ele><time>2026-04-04T14:19:27.043Z</time></trkpt><trkpt lat="43.1183118" lon="12.3125983"><ele>552.0</ele><time>2026-04-04T14:19:28.051Z</time></trkpt><trkpt lat="43.1184326" lon="12.3125533"><ele>552.0</ele><time>2026-04-04T14:19:29.054Z</time></trkpt><trkpt lat="43.1185543" lon="12.3125099"><ele>554.5</ele><time>2026-04-04T14:19:30.042Z</time></trkpt><trkpt lat="43.1186818" lon="12.3124729"><ele>557.0</ele><time>2026-04-04T14:19:31.045Z</time></trkpt><trkpt lat="43.1188019" lon="12.3124287"><ele>559.5</ele><time>2026-04-04T14:19:32.044Z</time></trkpt><trkpt lat="43.1189217" lon="12.3123807"><ele>562.0</ele><time>2026-04-04T14:19:33.045Z</time></trkpt><trkpt lat="43.1190463" lon="12.3123453"><ele>563.75</ele><time>2026-04-04T14:19:34.043Z</time></trkpt><trkpt lat="43.1191788" lon="12.312318"><ele>565.5</ele><time>2026-04-04T14:19:35.051Z</time></trkpt><trkpt lat="43.1193143" lon="12.3123064"><ele>567.25</ele><time>2026-04-04T14:19:36.051Z</time></trkpt><trkpt lat="43.1194545" lon="12.3122953"><ele>569.0</ele><time>2026-04-04T14:19:37.049Z</time></trkpt><trkpt lat="43.119588" lon="12.3122929"><ele>569.0</ele><time>2026-04-04T14:19:38.053Z</time></trkpt><trkpt lat="43.119723" lon="12.3122854"><ele>569.0</ele><time>2026-04-04T14:19:39.047Z</time></trkpt><trkpt lat="43.1198566" lon="12.3122963"><ele>569.0</ele><time>2026-04-04T14:19:40.046Z</time></trkpt><trkpt lat="43.119987" lon="12.3123323"><ele>569.0</ele><time>2026-04-04T14:19:41.05Z</time></trkpt><trkpt lat="43.120113" lon="12.3123904"><ele>570.0</ele><time>2026-04-04T14:19:42.048Z</time></trkpt><trkpt lat="43.1202351" lon="12.3124429"><ele>571.0</ele><time>2026-04-04T14:19:43.045Z</time></trkpt><trkpt lat="43.1203568" lon="12.3124996"><ele>572.0</ele><time>2026-04-04T14:19:44.043Z</time></trkpt><trkpt lat="43.1204775" lon="12.312556"><ele>573.0</ele><time>2026-04-04T14:19:45.042Z</time></trkpt><trkpt lat="43.1205797" lon="12.3126181"><ele>573.0</ele><time>2026-04-04T14:19:46.042Z</time></trkpt><trkpt lat="43.1206701" lon="12.3126814"><ele>573.0</ele><time>2026-04-04T14:19:47.038Z</time></trkpt><trkpt lat="43.1207527" lon="12.3127583"><ele>573.0</ele><time>2026-04-04T14:19:48.049Z</time></trkpt><trkpt lat="43.1208333" lon="12.3128411"><ele>573.0</ele><time>2026-04-04T14:19:49.035Z</time></trkpt><trkpt lat="43.1209092" lon="12.3129321"><ele>573.0</ele><time>2026-04-04T14:19:50.041Z</time></trkpt><trkpt lat="43.1209827" lon="12.3130133"><ele>575.0</ele><time>2026-04-04T14:19:51.039Z</time></trkpt><trkpt lat="43.1210534" lon="12.3130936"><ele>577.0</ele><time>2026-04-04T14:19:52.041Z</time></trkpt><trkpt lat="43.1211238" lon="12.3131759"><ele>579.0</ele><time>2026-04-04T14:19:53.04Z</time></trkpt><trkpt lat="43.1211874" lon="12.3132602"><ele>581.0</ele><time>2026-04-04T14:19:54.041Z</time></trkpt><trkpt lat="43.1212463" lon="12.3133271"><ele>583.0</ele><time>2026-04-04T14:19:55.042Z</time></trkpt><trkpt lat="43.1212963" lon="12.3133949"><ele>585.0</ele><time>2026-04-04T14:19:56.046Z</time></trkpt><trkpt lat="43.1213589" lon="12.3134676"><ele>585.0</ele><time>2026-04-04T14:19:57.052Z</time></trkpt><trkpt lat="43.1214156" lon="12.3135316"><ele>585.0</ele><time>2026-04-04T14:19:58.048Z</time></trkpt><trkpt lat="43.1214666" lon="12.3135841"><ele>585.0</ele><time>2026-04-04T14:19:59.04Z</time></trkpt><trkpt lat="43.1215316" lon="12.3136332"><ele>585.0</ele><time>2026-04-04T14:20:00.04Z</time></trkpt><trkpt lat="43.1215954" lon="12.3136675"><ele>585.0</ele><time>2026-04-04T14:20:01.042Z</time></trkpt><trkpt lat="43.1216641" lon="12.3136772"><ele>585.0</ele><time>2026-04-04T14:20:02.036Z</time></trkpt><trkpt lat="43.1217321" lon="12.3136771"><ele>585.0</ele><time>2026-04-04T14:20:03.042Z</time></trkpt><trkpt lat="43.1218066" lon="12.3136714"><ele>587.7142857142858</ele><time>2026-04-04T14:20:04.039Z</time></trkpt><trkpt lat="43.1218766" lon="12.3136685"><ele>590.4285714285714</ele><time>2026-04-04T14:20:05.042Z</time></trkpt><trkpt lat="43.1219415" lon="12.3136594"><ele>593.1428571428571</ele><time>2026-04-04T14:20:06.043Z</time></trkpt><trkpt lat="43.1220055" lon="12.3136431"><ele>595.8571428571429</ele><time>2026-04-04T14:20:07.044Z</time></trkpt><trkpt lat="43.1220724" lon="12.3136462"><ele>598.5714285714286</ele><time>2026-04-04T14:20:08.044Z</time></trkpt><trkpt lat="43.1221463" lon="12.3136768"><ele>601.2857142857143</ele><time>2026-04-04T14:20:09.04Z</time></trkpt><trkpt lat="43.1222109" lon="12.3137112"><ele>604.0</ele><time>2026-04-04T14:20:10.047Z</time></trkpt><trkpt lat="43.1223305" lon="12.3137276"><ele>604.6</ele><time>2026-04-04T14:20:12.044Z</time></trkpt><trkpt lat="43.1224513" lon="12.3137246"><ele>605.2</ele><time>2026-04-04T14:20:14.044Z</time></trkpt><trkpt lat="43.1225662" lon="12.3137271"><ele>605.8000000000001</ele><time>2026-04-04T14:20:16.043Z</time></trkpt><trkpt lat="43.1226715" lon="12.3137265"><ele>606.4</ele><time>2026-04-04T14:20:18.042Z</time></trkpt><trkpt lat="43.1227675" lon="12.3137446"><ele>607.0</ele><time>2026-04-04T14:20:20.044Z</time></trkpt><trkpt lat="43.1228543" lon="12.3137712"><ele>607.0</ele><time>2026-04-04T14:20:22.044Z</time></trkpt><trkpt lat="43.1229355" lon="12.3138244"><ele>607.0</ele><time>2026-04-04T14:20:24.037Z</time></trkpt><trkpt lat="43.1230245" lon="12.3138788"><ele>607.0</ele><time>2026-04-04T14:20:26.036Z</time></trkpt><trkpt lat="43.1231379" lon="12.3139079"><ele>607.0</ele><time>2026-04-04T14:20:28.049Z</time></trkpt><trkpt lat="43.1232463" lon="12.313825"><ele>607.0</ele><time>2026-04-04T14:20:30.041Z</time></trkpt><trkpt lat="43.1233104" lon="12.3137372"><ele>604.0</ele><time>2026-04-04T14:20:31.032Z</time></trkpt><trkpt lat="43.1233855" lon="12.313651"><ele>601.0</ele><time>2026-04-04T14:20:32.041Z</time></trkpt><trkpt lat="43.1234852" lon="12.3136117"><ele>598.0</ele><time>2026-04-04T14:20:33.046Z</time></trkpt><trkpt lat="43.1236205" lon="12.3135793"><ele>595.0</ele><time>2026-04-04T14:20:34.039Z</time></trkpt><trkpt lat="43.1237538" lon="12.3135613"><ele>595.0</ele><time>2026-04-04T14:20:35.046Z</time></trkpt><trkpt lat="43.1238584" lon="12.3135384"><ele>595.0</ele><time>2026-04-04T14:20:36.04Z</time></trkpt><trkpt lat="43.1239514" lon="12.3135053"><ele>595.0</ele><time>2026-04-04T14:20:37.052Z</time></trkpt><trkpt lat="43.1240402" lon="12.3134643"><ele>595.0</ele><time>2026-04-04T14:20:38.044Z</time></trkpt><trkpt lat="43.1241239" lon="12.3134197"><ele>595.0</ele><time>2026-04-04T14:20:39.048Z</time></trkpt><trkpt lat="43.1242103" lon="12.3133759"><ele>596.6666666666667</ele><time>2026-04-04T14:20:40.044Z</time></trkpt><trkpt lat="43.1242994" lon="12.3133351"><ele>598.3333333333334</ele><time>2026-04-04T14:20:41.044Z</time></trkpt><trkpt lat="43.1243738" lon="12.3132774"><ele>600.0</ele><time>2026-04-04T14:20:42.04Z</time></trkpt><trkpt lat="43.1244448" lon="12.3132124"><ele>601.6666666666666</ele><time>2026-04-04T14:20:43.061Z</time></trkpt><trkpt lat="43.1245015" lon="12.3131521"><ele>603.3333333333333</ele><time>2026-04-04T14:20:44.041Z</time></trkpt><trkpt lat="43.1245576" lon="12.3131046"><ele>605.0</ele><time>2026-04-04T14:20:45.052Z</time></trkpt><trkpt lat="43.1246147" lon="12.3130541"><ele>605.0</ele><time>2026-04-04T14:20:46.041Z</time></trkpt><trkpt lat="43.1246794" lon="12.3130011"><ele>605.0</ele><time>2026-04-04T14:20:47.045Z</time></trkpt><trkpt lat="43.1247398" lon="12.3129543"><ele>605.0</ele><time>2026-04-04T14:20:48.043Z</time></trkpt><trkpt lat="43.1248026" lon="12.3129018"><ele>605.0</ele><time>2026-04-04T14:20:49.048Z</time></trkpt><trkpt lat="43.1248624" lon="12.312863"><ele>605.0</ele><time>2026-04-04T14:20:50.035Z</time></trkpt><trkpt lat="43.1249944" lon="12.3128079"><ele>605.0</ele><time>2026-04-04T14:20:52.04Z</time></trkpt><trkpt lat="43.1250793" lon="12.3127976"><ele>601.8333333333333</ele><time>2026-04-04T14:20:53.043Z</time></trkpt><trkpt lat="43.1251519" lon="12.3127847"><ele>598.6666666666666</ele><time>2026-04-04T14:20:54.041Z</time></trkpt><trkpt lat="43.1252319" lon="12.3127717"><ele>595.5</ele><time>2026-04-04T14:20:55.043Z</time></trkpt><trkpt lat="43.1253078" lon="12.3127673"><ele>592.3333333333334</ele><time>2026-04-04T14:20:56.043Z</time></trkpt><trkpt lat="43.1253852" lon="12.312772"><ele>589.1666666666667</ele><time>2026-04-04T14:20:57.044Z</time></trkpt><trkpt lat="43.1254621" lon="12.3127912"><ele>586.0</ele><time>2026-04-04T14:20:58.044Z</time></trkpt><trkpt lat="43.1255579" lon="12.3128851"><ele>586.0</ele><time>2026-04-04T14:21:00.044Z</time></trkpt><trkpt lat="43.1256036" lon="12.3130148"><ele>586.0</ele><time>2026-04-04T14:21:02.041Z</time></trkpt><trkpt lat="43.1256252" lon="12.3132131"><ele>586.0</ele><time>2026-04-04T14:21:04.041Z</time></trkpt><trkpt lat="43.1256412" lon="12.3133478"><ele>586.0</ele><time>2026-04-04T14:21:05.044Z</time></trkpt><trkpt lat="43.1256367" lon="12.3134698"><ele>586.0</ele><time>2026-04-04T14:21:06.044Z</time></trkpt><trkpt lat="43.1256153" lon="12.3135589"><ele>584.8571428571428</ele><time>2026-04-04T14:21:07.04Z</time></trkpt><trkpt lat="43.1255911" lon="12.3136519"><ele>583.7142857142857</ele><time>2026-04-04T14:21:08.048Z</time></trkpt><trkpt lat="43.1255846" lon="12.3137473"><ele>582.5714285714286</ele><time>2026-04-04T14:21:09.053Z</time></trkpt><trkpt lat="43.1255964" lon="12.3138384"><ele>581.4285714285713</ele><time>2026-04-04T14:21:10.056Z</time></trkpt><trkpt lat="43.1256264" lon="12.3139265"><ele>580.2857142857142</ele><time>2026-04-04T14:21:11.051Z</time></trkpt><trkpt lat="43.1256732" lon="12.3139891"><ele>579.1428571428571</ele><time>2026-04-04T14:21:12.045Z</time></trkpt><trkpt lat="43.1257699" lon="12.3140384"><ele>578.0</ele><time>2026-04-04T14:21:14.039Z</time></trkpt><trkpt lat="43.1258428" lon="12.314048"><ele>581.1999999999999</ele><time>2026-04-04T14:21:16.044Z</time></trkpt><trkpt lat="43.1258887" lon="12.3141195"><ele>584.4</ele><time>2026-04-04T14:21:18.04Z</time></trkpt><trkpt lat="43.1259308" lon="12.3142476"><ele>587.5999999999999</ele><time>2026-04-04T14:21:20.042Z</time></trkpt><trkpt lat="43.1259919" lon="12.3143559"><ele>590.8</ele><time>2026-04-04T14:21:22.049Z</time></trkpt><trkpt lat="43.1260568" lon="12.3144623"><ele>594.0</ele><time>2026-04-04T14:21:24.045Z</time></trkpt><trkpt lat="43.1261397" lon="12.3145384"><ele>594.0</ele><time>2026-04-04T14:21:26.047Z</time></trkpt><trkpt lat="43.1261949" lon="12.3145842"><ele>594.0</ele><time>2026-04-04T14:21:27.042Z</time></trkpt><trkpt lat="43.126243" lon="12.3146412"><ele>594.0</ele><time>2026-04-04T14:21:28.04Z</time></trkpt><trkpt lat="43.126331" lon="12.3147603"><ele>594.0</ele><time>2026-04-04T14:21:30.046Z</time></trkpt><trkpt lat="43.1263944" lon="12.3148095"><ele>594.0</ele><time>2026-04-04T14:21:31.044Z</time></trkpt><trkpt lat="43.1264617" lon="12.3148522"><ele>594.0</ele><time>2026-04-04T14:21:32.042Z</time></trkpt><trkpt lat="43.1265215" lon="12.3149143"><ele>592.0</ele><time>2026-04-04T14:21:33.038Z</time></trkpt><trkpt lat="43.1265757" lon="12.3149803"><ele>590.0</ele><time>2026-04-04T14:21:34.037Z</time></trkpt><trkpt lat="43.1266339" lon="12.31503"><ele>588.0</ele><time>2026-04-04T14:21:35.04Z</time></trkpt><trkpt lat="43.1266837" lon="12.3150897"><ele>586.0</ele><time>2026-04-04T14:21:36.046Z</time></trkpt><trkpt lat="43.1267388" lon="12.3151454"><ele>584.0</ele><time>2026-04-04T14:21:37.04Z</time></trkpt><trkpt lat="43.1267957" lon="12.3152087"><ele>582.0</ele><time>2026-04-04T14:21:38.045Z</time></trkpt><trkpt lat="43.126862" lon="12.3152619"><ele>580.0</ele><time>2026-04-04T14:21:39.045Z</time></trkpt><trkpt lat="43.1269336" lon="12.3153129"><ele>580.0</ele><time>2026-04-04T14:21:40.045Z</time></trkpt><trkpt lat="43.1270024" lon="12.315364"><ele>580.0</ele><time>2026-04-04T14:21:41.062Z</time></trkpt><trkpt lat="43.1270739" lon="12.3154056"><ele>580.0</ele><time>2026-04-04T14:21:42.04Z</time></trkpt><trkpt lat="43.1271431" lon="12.3154418"><ele>580.0</ele><time>2026-04-04T14:21:43.038Z</time></trkpt><trkpt lat="43.1272072" lon="12.3154733"><ele>580.0</ele><time>2026-04-04T14:21:44.04Z</time></trkpt><trkpt lat="43.1272667" lon="12.3155085"><ele>580.0</ele><time>2026-04-04T14:21:45.035Z</time></trkpt><trkpt lat="43.1273292" lon="12.3155406"><ele>580.0</ele><time>2026-04-04T14:21:46.04Z</time></trkpt><trkpt lat="43.1273934" lon="12.3155794"><ele>578.6666666666667</ele><time>2026-04-04T14:21:47.037Z</time></trkpt><trkpt lat="43.1274533" lon="12.3156205"><ele>577.3333333333334</ele><time>2026-04-04T14:21:48.043Z</time></trkpt><trkpt lat="43.1275734" lon="12.315692"><ele>576.0</ele><time>2026-04-04T14:21:50.05Z</time></trkpt><trkpt lat="43.1276355" lon="12.3157363"><ele>574.6666666666666</ele><time>2026-04-04T14:21:51.047Z</time></trkpt><trkpt lat="43.1276982" lon="12.3157781"><ele>573.3333333333333</ele><time>2026-04-04T14:21:52.044Z</time></trkpt><trkpt lat="43.1277635" lon="12.31582"><ele>572.0</ele><time>2026-04-04T14:21:53.044Z</time></trkpt><trkpt lat="43.1278273" lon="12.3158752"><ele>572.0</ele><time>2026-04-04T14:21:54.036Z</time></trkpt><trkpt lat="43.127897" lon="12.3159234"><ele>572.0</ele><time>2026-04-04T14:21:55.048Z</time></trkpt><trkpt lat="43.127976" lon="12.3159541"><ele>572.0</ele><time>2026-04-04T14:21:56.041Z</time></trkpt><trkpt lat="43.128063" lon="12.3159756"><ele>572.0</ele><time>2026-04-04T14:21:57.057Z</time></trkpt><trkpt lat="43.1281517" lon="12.3159762"><ele>572.0</ele><time>2026-04-04T14:21:58.043Z</time></trkpt><trkpt lat="43.1282389" lon="12.3159622"><ele>572.0</ele><time>2026-04-04T14:21:59.042Z</time></trkpt><trkpt lat="43.1283385" lon="12.3159524"><ele>572.25</ele><time>2026-04-04T14:22:00.045Z</time></trkpt><trkpt lat="43.1284442" lon="12.3159283"><ele>572.5</ele><time>2026-04-04T14:22:01.056Z</time></trkpt><trkpt lat="43.128576" lon="12.3159015"><ele>572.75</ele><time>2026-04-04T14:22:02.041Z</time></trkpt><trkpt lat="43.1287209" lon="12.3158686"><ele>573.0</ele><time>2026-04-04T14:22:03.042Z</time></trkpt><trkpt lat="43.1288643" lon="12.315825"><ele>573.0</ele><time>2026-04-04T14:22:04.043Z</time></trkpt><trkpt lat="43.1289953" lon="12.3157568"><ele>573.0</ele><time>2026-04-04T14:22:05.042Z</time></trkpt><trkpt lat="43.1291173" lon="12.3156952"><ele>573.0</ele><time>2026-04-04T14:22:06.05Z</time></trkpt><trkpt lat="43.1292366" lon="12.3156377"><ele>573.0</ele><time>2026-04-04T14:22:07.047Z</time></trkpt><trkpt lat="43.1293497" lon="12.3155976"><ele>574.8</ele><time>2026-04-04T14:22:08.049Z</time></trkpt><trkpt lat="43.1294475" lon="12.3155908"><ele>576.5999999999999</ele><time>2026-04-04T14:22:09.047Z</time></trkpt><trkpt lat="43.129548" lon="12.315611"><ele>578.4000000000001</ele><time>2026-04-04T14:22:10.043Z</time></trkpt><trkpt lat="43.1296408" lon="12.3156635"><ele>580.2</ele><time>2026-04-04T14:22:11.044Z</time></trkpt><trkpt lat="43.1297196" lon="12.3157257"><ele>582.0</ele><time>2026-04-04T14:22:12.054Z</time></trkpt><trkpt lat="43.1298024" lon="12.3157503"><ele>583.2</ele><time>2026-04-04T14:22:13.047Z</time></trkpt><trkpt lat="43.1298936" lon="12.3157405"><ele>584.4000000000001</ele><time>2026-04-04T14:22:14.04Z</time></trkpt><trkpt lat="43.129998" lon="12.3157172"><ele>585.5999999999999</ele><time>2026-04-04T14:22:15.029Z</time></trkpt><trkpt lat="43.1301048" lon="12.3156841"><ele>586.8</ele><time>2026-04-04T14:22:16.052Z</time></trkpt><trkpt lat="43.1302047" lon="12.3156728"><ele>588.0</ele><time>2026-04-04T14:22:17.045Z</time></trkpt><trkpt lat="43.1302932" lon="12.3156729"><ele>588.0</ele><time>2026-04-04T14:22:18.051Z</time></trkpt><trkpt lat="43.1303749" lon="12.3156841"><ele>588.0</ele><time>2026-04-04T14:22:19.042Z</time></trkpt><trkpt lat="43.1304637" lon="12.3156919"><ele>588.0</ele><time>2026-04-04T14:22:20.06Z</time></trkpt><trkpt lat="43.1305535" lon="12.3157078"><ele>588.0</ele><time>2026-04-04T14:22:21.05Z</time></trkpt><trkpt lat="43.1306498" lon="12.3157272"><ele>588.0</ele><time>2026-04-04T14:22:22.043Z</time></trkpt><trkpt lat="43.1307653" lon="12.3157509"><ele>589.1999999999999</ele><time>2026-04-04T14:22:23.04Z</time></trkpt><trkpt lat="43.1308738" lon="12.3157649"><ele>590.4</ele><time>2026-04-04T14:22:24.039Z</time></trkpt><trkpt lat="43.1309722" lon="12.3157613"><ele>591.5999999999999</ele><time>2026-04-04T14:22:25.046Z</time></trkpt><trkpt lat="43.1310892" lon="12.315729"><ele>592.8</ele><time>2026-04-04T14:22:26.042Z</time></trkpt><trkpt lat="43.1312049" lon="12.3156891"><ele>594.0</ele><time>2026-04-04T14:22:27.044Z</time></trkpt><trkpt lat="43.1312951" lon="12.3156809"><ele>594.0</ele><time>2026-04-04T14:22:28.046Z</time></trkpt><trkpt lat="43.1313761" lon="12.3157004"><ele>594.0</ele><time>2026-04-04T14:22:29.042Z</time></trkpt><trkpt lat="43.1314293" lon="12.3157533"><ele>594.0</ele><time>2026-04-04T14:22:30.041Z</time></trkpt><trkpt lat="43.1314797" lon="12.3158135"><ele>594.0</ele><time>2026-04-04T14:22:31.064Z</time></trkpt><trkpt lat="43.1315245" lon="12.3158744"><ele>594.0</ele><time>2026-04-04T14:22:32.041Z</time></trkpt><trkpt lat="43.1315656" lon="12.3159419"><ele>594.0</ele><time>2026-04-04T14:22:33.044Z</time></trkpt><trkpt lat="43.1316128" lon="12.3160101"><ele>594.0</ele><time>2026-04-04T14:22:34.059Z</time></trkpt><trkpt lat="43.1316634" lon="12.3160824"><ele>593.8571428571429</ele><time>2026-04-04T14:22:35.049Z</time></trkpt><trkpt lat="43.1317144" lon="12.3161635"><ele>593.7142857142858</ele><time>2026-04-04T14:22:36.046Z</time></trkpt><trkpt lat="43.1317519" lon="12.3162431"><ele>593.5714285714286</ele><time>2026-04-04T14:22:37.052Z</time></trkpt><trkpt lat="43.1317848" lon="12.3163224"><ele>593.4285714285714</ele><time>2026-04-04T14:22:38.045Z</time></trkpt><trkpt lat="43.1318192" lon="12.3164117"><ele>593.2857142857142</ele><time>2026-04-04T14:22:39.046Z</time></trkpt><trkpt lat="43.1318562" lon="12.3164936"><ele>593.1428571428571</ele><time>2026-04-04T14:22:40.048Z</time></trkpt><trkpt lat="43.1318986" lon="12.3165678"><ele>593.0</ele><time>2026-04-04T14:22:41.047Z</time></trkpt><trkpt lat="43.131952" lon="12.3166388"><ele>593.0</ele><time>2026-04-04T14:22:42.054Z</time></trkpt><trkpt lat="43.1320131" lon="12.3167041"><ele>593.0</ele><time>2026-04-04T14:22:43.035Z</time></trkpt><trkpt lat="43.1320783" lon="12.3167658"><ele>593.0</ele><time>2026-04-04T14:22:44.049Z</time></trkpt><trkpt lat="43.1321499" lon="12.3168207"><ele>593.0</ele><time>2026-04-04T14:22:45.044Z</time></trkpt><trkpt lat="43.1322239" lon="12.3168677"><ele>593.0</ele><time>2026-04-04T14:22:46.045Z</time></trkpt><trkpt lat="43.1323037" lon="12.3169138"><ele>593.0</ele><time>2026-04-04T14:22:47.039Z</time></trkpt><trkpt lat="43.1323827" lon="12.3169613"><ele>594.8333333333333</ele><time>2026-04-04T14:22:48.05Z</time></trkpt><trkpt lat="43.1324625" lon="12.3170143"><ele>596.6666666666666</ele><time>2026-04-04T14:22:49.05Z</time></trkpt><trkpt lat="43.1325425" lon="12.3170663"><ele>598.5</ele><time>2026-04-04T14:22:50.047Z</time></trkpt><trkpt lat="43.1326161" lon="12.3171247"><ele>600.3333333333334</ele><time>2026-04-04T14:22:51.068Z</time></trkpt><trkpt lat="43.1326866" lon="12.3171817"><ele>602.1666666666667</ele><time>2026-04-04T14:22:52.041Z</time></trkpt><trkpt lat="43.1327579" lon="12.317242"><ele>604.0</ele><time>2026-04-04T14:22:53.045Z</time></trkpt><trkpt lat="43.1328287" lon="12.3172925"><ele>604.0</ele><time>2026-04-04T14:22:54.045Z</time></trkpt><trkpt lat="43.1328898" lon="12.3173367"><ele>604.0</ele><time>2026-04-04T14:22:55.047Z</time></trkpt><trkpt lat="43.13298" lon="12.3174084"><ele>604.0</ele><time>2026-04-04T14:22:57.045Z</time></trkpt><trkpt lat="43.1330282" lon="12.3175179"><ele>604.0</ele><time>2026-04-04T14:22:59.045Z</time></trkpt><trkpt lat="43.1330373" lon="12.3176665"><ele>604.0</ele><time>2026-04-04T14:23:01.044Z</time></trkpt><trkpt lat="43.1330353" lon="12.3177579"><ele>604.0</ele><time>2026-04-04T14:23:02.041Z</time></trkpt><trkpt lat="43.1330175" lon="12.3178525"><ele>604.0</ele><time>2026-04-04T14:23:03.05Z</time></trkpt><trkpt lat="43.1330052" lon="12.3179442"><ele>604.0</ele><time>2026-04-04T14:23:04.043Z</time></trkpt><trkpt lat="43.1330016" lon="12.3180346"><ele>604.0</ele><time>2026-04-04T14:23:05.049Z</time></trkpt><trkpt lat="43.1330058" lon="12.3182026"><ele>604.0</ele><time>2026-04-04T14:23:07.043Z</time></trkpt><trkpt lat="43.1330265" lon="12.3182857"><ele>604.0</ele><time>2026-04-04T14:23:08.039Z</time></trkpt><trkpt lat="43.1330495" lon="12.3183741"><ele>604.0</ele><time>2026-04-04T14:23:09.05Z</time></trkpt><trkpt lat="43.133083" lon="12.3184761"><ele>606.5</ele><time>2026-04-04T14:23:10.045Z</time></trkpt><trkpt lat="43.1331163" lon="12.3185813"><ele>609.0</ele><time>2026-04-04T14:23:11.049Z</time></trkpt><trkpt lat="43.1331549" lon="12.3186839"><ele>611.5</ele><time>2026-04-04T14:23:12.049Z</time></trkpt><trkpt lat="43.1331871" lon="12.3187706"><ele>614.0</ele><time>2026-04-04T14:23:13.055Z</time></trkpt><trkpt lat="43.1332166" lon="12.3188534"><ele>616.5</ele><time>2026-04-04T14:23:14.047Z</time></trkpt><trkpt lat="43.1332658" lon="12.3189946"><ele>619.0</ele><time>2026-04-04T14:23:16.05Z</time></trkpt><trkpt lat="43.133312" lon="12.3191343"><ele>619.2</ele><time>2026-04-04T14:23:18.052Z</time></trkpt><trkpt lat="43.1333569" lon="12.319262"><ele>619.4</ele><time>2026-04-04T14:23:20.048Z</time></trkpt><trkpt lat="43.1334115" lon="12.3193756"><ele>619.6</ele><time>2026-04-04T14:23:22.05Z</time></trkpt><trkpt lat="43.1334576" lon="12.3194909"><ele>619.8</ele><time>2026-04-04T14:23:24.046Z</time></trkpt><trkpt lat="43.1334788" lon="12.3195913"><ele>620.0</ele><time>2026-04-04T14:23:26.036Z</time></trkpt><trkpt lat="43.1334748" lon="12.3197018"><ele>620.8571428571429</ele><time>2026-04-04T14:23:28.045Z</time></trkpt><trkpt lat="43.13345" lon="12.3197981"><ele>621.7142857142857</ele><time>2026-04-04T14:23:30.035Z</time></trkpt><trkpt lat="43.1334287" lon="12.3198831"><ele>622.5714285714286</ele><time>2026-04-04T14:23:32.045Z</time></trkpt><trkpt lat="43.1333945" lon="12.3200024"><ele>623.4285714285714</ele><time>2026-04-04T14:23:34.046Z</time></trkpt><trkpt lat="43.1333607" lon="12.3200768"><ele>624.2857142857143</ele><time>2026-04-04T14:23:35.043Z</time></trkpt><trkpt lat="43.133317" lon="12.3201462"><ele>625.1428571428571</ele><time>2026-04-04T14:23:36.05Z</time></trkpt><trkpt lat="43.1332679" lon="12.3202207"><ele>626.0</ele><time>2026-04-04T14:23:37.056Z</time></trkpt><trkpt lat="43.1332094" lon="12.3202947"><ele>627.8333333333333</ele><time>2026-04-04T14:23:38.041Z</time></trkpt><trkpt lat="43.1331508" lon="12.3203707"><ele>629.6666666666666</ele><time>2026-04-04T14:23:39.051Z</time></trkpt><trkpt lat="43.1330997" lon="12.3204504"><ele>631.5</ele><time>2026-04-04T14:23:40.046Z</time></trkpt><trkpt lat="43.1330581" lon="12.3205522"><ele>633.3333333333334</ele><time>2026-04-04T14:23:41.043Z</time></trkpt><trkpt lat="43.1330232" lon="12.320657"><ele>635.1666666666667</ele><time>2026-04-04T14:23:42.035Z</time></trkpt><trkpt lat="43.1329967" lon="12.3207561"><ele>637.0</ele><time>2026-04-04T14:23:43.062Z</time></trkpt><trkpt lat="43.132981" lon="12.3208621"><ele>637.1666666666667</ele><time>2026-04-04T14:23:44.045Z</time></trkpt><trkpt lat="43.1329866" lon="12.3209747"><ele>637.3333333333334</ele><time>2026-04-04T14:23:45.047Z</time></trkpt><trkpt lat="43.1330192" lon="12.3210985"><ele>637.5</ele><time>2026-04-04T14:23:46.049Z</time></trkpt><trkpt lat="43.133064" lon="12.3212097"><ele>637.6666666666666</ele><time>2026-04-04T14:23:47.067Z</time></trkpt><trkpt lat="43.1331062" lon="12.3213094"><ele>637.8333333333333</ele><time>2026-04-04T14:23:48.066Z</time></trkpt><trkpt lat="43.1331654" lon="12.3214011"><ele>638.0</ele><time>2026-04-04T14:23:49.044Z</time></trkpt><trkpt lat="43.1332311" lon="12.3214733"><ele>634.6666666666666</ele><time>2026-04-04T14:23:50.052Z</time></trkpt><trkpt lat="43.1332876" lon="12.3215558"><ele>631.3333333333333</ele><time>2026-04-04T14:23:51.04Z</time></trkpt><trkpt lat="43.1333492" lon="12.3216289"><ele>628.0</ele><time>2026-04-04T14:23:52.037Z</time></trkpt><trkpt lat="43.1334028" lon="12.3217029"><ele>624.6666666666666</ele><time>2026-04-04T14:23:53.047Z</time></trkpt><trkpt lat="43.1334525" lon="12.3217834"><ele>621.3333333333334</ele><time>2026-04-04T14:23:54.044Z</time></trkpt><trkpt lat="43.1335042" lon="12.3218737"><ele>618.0</ele><time>2026-04-04T14:23:55.047Z</time></trkpt><trkpt lat="43.1335396" lon="12.3219732"><ele>618.0</ele><time>2026-04-04T14:23:56.052Z</time></trkpt><trkpt lat="43.1335728" lon="12.3220994"><ele>618.0</ele><time>2026-04-04T14:23:57.044Z</time></trkpt><trkpt lat="43.1336218" lon="12.3222192"><ele>618.0</ele><time>2026-04-04T14:23:58.041Z</time></trkpt><trkpt lat="43.1336763" lon="12.3223405"><ele>618.0</ele><time>2026-04-04T14:23:59.043Z</time></trkpt><trkpt lat="43.1337276" lon="12.3224358"><ele>618.0</ele><time>2026-04-04T14:24:00.035Z</time></trkpt><trkpt lat="43.1337667" lon="12.3225111"><ele>617.8571428571429</ele><time>2026-04-04T14:24:01.031Z</time></trkpt><trkpt lat="43.13381" lon="12.3225772"><ele>617.7142857142858</ele><time>2026-04-04T14:24:02.039Z</time></trkpt><trkpt lat="43.1338635" lon="12.3226279"><ele>617.5714285714287</ele><time>2026-04-04T14:24:03.042Z</time></trkpt><trkpt lat="43.1339282" lon="12.3226741"><ele>617.4285714285714</ele><time>2026-04-04T14:24:04.038Z</time></trkpt><trkpt lat="43.1339934" lon="12.322719"><ele>617.2857142857142</ele><time>2026-04-04T14:24:05.036Z</time></trkpt><trkpt lat="43.1340565" lon="12.3227632"><ele>617.1428571428572</ele><time>2026-04-04T14:24:06.044Z</time></trkpt><trkpt lat="43.1341306" lon="12.3227897"><ele>617.0</ele><time>2026-04-04T14:24:07.038Z</time></trkpt><trkpt lat="43.1342182" lon="12.3228082"><ele>612.25</ele><time>2026-04-04T14:24:08.041Z</time></trkpt><trkpt lat="43.134319" lon="12.3228488"><ele>607.5</ele><time>2026-04-04T14:24:09.03Z</time></trkpt><trkpt lat="43.1344283" lon="12.3229122"><ele>602.75</ele><time>2026-04-04T14:24:10.045Z</time></trkpt><trkpt lat="43.1345314" lon="12.3229891"><ele>598.0</ele><time>2026-04-04T14:24:11.051Z</time></trkpt><trkpt lat="43.1346394" lon="12.3230567"><ele>598.1999999999999</ele><time>2026-04-04T14:24:12.038Z</time></trkpt><trkpt lat="43.1347398" lon="12.3231124"><ele>598.4</ele><time>2026-04-04T14:24:13.06Z</time></trkpt><trkpt lat="43.1348309" lon="12.3231771"><ele>598.5999999999999</ele><time>2026-04-04T14:24:14.054Z</time></trkpt><trkpt lat="43.1349138" lon="12.3232481"><ele>598.8</ele><time>2026-04-04T14:24:15.047Z</time></trkpt><trkpt lat="43.1349931" lon="12.3233252"><ele>599.0</ele><time>2026-04-04T14:24:16.046Z</time></trkpt><trkpt lat="43.1350687" lon="12.3233915"><ele>598.2857142857143</ele><time>2026-04-04T14:24:17.042Z</time></trkpt><trkpt lat="43.1351388" lon="12.3234439"><ele>597.5714285714286</ele><time>2026-04-04T14:24:18.051Z</time></trkpt><trkpt lat="43.1352013" lon="12.3234919"><ele>596.8571428571429</ele><time>2026-04-04T14:24:19.039Z</time></trkpt><trkpt lat="43.1352624" lon="12.3235457"><ele>596.1428571428571</ele><time>2026-04-04T14:24:20.04Z</time></trkpt><trkpt lat="43.135307" lon="12.3236114"><ele>595.4285714285714</ele><time>2026-04-04T14:24:21.047Z</time></trkpt><trkpt lat="43.1353529" lon="12.323695"><ele>594.7142857142858</ele><time>2026-04-04T14:24:22.045Z</time></trkpt><trkpt lat="43.1353948" lon="12.3237661"><ele>594.0</ele><time>2026-04-04T14:24:23.043Z</time></trkpt><trkpt lat="43.1354383" lon="12.3238308"><ele>593.5</ele><time>2026-04-04T14:24:24.051Z</time></trkpt><trkpt lat="43.1355133" lon="12.3239498"><ele>593.0</ele><time>2026-04-04T14:24:26.048Z</time></trkpt><trkpt lat="43.1356028" lon="12.3240624"><ele>592.5</ele><time>2026-04-04T14:24:28.046Z</time></trkpt><trkpt lat="43.1357094" lon="12.3241849"><ele>592.0</ele><time>2026-04-04T14:24:30.047Z</time></trkpt><trkpt lat="43.1357714" lon="12.3242557"><ele>592.0</ele><time>2026-04-04T14:24:31.043Z</time></trkpt><trkpt lat="43.1358093" lon="12.3243297"><ele>592.0</ele><time>2026-04-04T14:24:32.045Z</time></trkpt><trkpt lat="43.1358678" lon="12.3244994"><ele>592.0</ele><time>2026-04-04T14:24:34.05Z</time></trkpt><trkpt lat="43.1358952" lon="12.3246028"><ele>592.0</ele><time>2026-04-04T14:24:35.046Z</time></trkpt><trkpt lat="43.135908" lon="12.3247125"><ele>592.0</ele><time>2026-04-04T14:24:36.049Z</time></trkpt><trkpt lat="43.1359129" lon="12.3248471"><ele>591.2</ele><time>2026-04-04T14:24:37.048Z</time></trkpt><trkpt lat="43.1359169" lon="12.3249872"><ele>590.4000000000001</ele><time>2026-04-04T14:24:38.048Z</time></trkpt><trkpt lat="43.1359229" lon="12.3251045"><ele>589.5999999999999</ele><time>2026-04-04T14:24:39.042Z</time></trkpt><trkpt lat="43.1359242" lon="12.3252216"><ele>588.8</ele><time>2026-04-04T14:24:40.043Z</time></trkpt><trkpt lat="43.1359299" lon="12.3253434"><ele>588.0</ele><time>2026-04-04T14:24:41.05Z</time></trkpt><trkpt lat="43.1359353" lon="12.325472"><ele>586.8333333333334</ele><time>2026-04-04T14:24:42.048Z</time></trkpt><trkpt lat="43.1359374" lon="12.3255936"><ele>585.6666666666666</ele><time>2026-04-04T14:24:43.057Z</time></trkpt><trkpt lat="43.1359416" lon="12.3257123"><ele>584.5</ele><time>2026-04-04T14:24:44.039Z</time></trkpt><trkpt lat="43.135951" lon="12.3258326"><ele>583.3333333333333</ele><time>2026-04-04T14:24:45.051Z</time></trkpt><trkpt lat="43.1359872" lon="12.32594"><ele>582.1666666666666</ele><time>2026-04-04T14:24:46.05Z</time></trkpt><trkpt lat="43.1360277" lon="12.3260556"><ele>581.0</ele><time>2026-04-04T14:24:47.039Z</time></trkpt><trkpt lat="43.1360628" lon="12.326168"><ele>581.0</ele><time>2026-04-04T14:24:48.045Z</time></trkpt><trkpt lat="43.1360957" lon="12.3262784"><ele>581.0</ele><time>2026-04-04T14:24:49.046Z</time></trkpt><trkpt lat="43.1361252" lon="12.3263939"><ele>581.0</ele><time>2026-04-04T14:24:50.041Z</time></trkpt><trkpt lat="43.1361543" lon="12.3265099"><ele>581.0</ele><time>2026-04-04T14:24:51.059Z</time></trkpt><trkpt lat="43.1361895" lon="12.3266243"><ele>581.0</ele><time>2026-04-04T14:24:52.044Z</time></trkpt><trkpt lat="43.136246" lon="12.3267328"><ele>579.0</ele><time>2026-04-04T14:24:53.075Z</time></trkpt><trkpt lat="43.1363078" lon="12.3268338"><ele>577.0</ele><time>2026-04-04T14:24:54.039Z</time></trkpt><trkpt lat="43.1363646" lon="12.3269352"><ele>575.0</ele><time>2026-04-04T14:24:55.042Z</time></trkpt><trkpt lat="43.1364203" lon="12.3270257"><ele>573.0</ele><time>2026-04-04T14:24:56.043Z</time></trkpt><trkpt lat="43.1364672" lon="12.3271214"><ele>571.0</ele><time>2026-04-04T14:24:57.07Z</time></trkpt><trkpt lat="43.1365192" lon="12.3272145"><ele>569.0</ele><time>2026-04-04T14:24:58.04Z</time></trkpt><trkpt lat="43.1365923" lon="12.3273095"><ele>569.0</ele><time>2026-04-04T14:24:59.05Z</time></trkpt><trkpt lat="43.1366684" lon="12.3273986"><ele>569.0</ele><time>2026-04-04T14:25:00.044Z</time></trkpt><trkpt lat="43.1367335" lon="12.3274814"><ele>569.0</ele><time>2026-04-04T14:25:01.071Z</time></trkpt><trkpt lat="43.1367933" lon="12.3275646"><ele>569.0</ele><time>2026-04-04T14:25:02.049Z</time></trkpt><trkpt lat="43.1368517" lon="12.3276433"><ele>569.0</ele><time>2026-04-04T14:25:03.042Z</time></trkpt><trkpt lat="43.1369004" lon="12.3277133"><ele>569.0</ele><time>2026-04-04T14:25:04.05Z</time></trkpt><trkpt lat="43.1369429" lon="12.3277929"><ele>569.0</ele><time>2026-04-04T14:25:05.041Z</time></trkpt><trkpt lat="43.1369802" lon="12.3279259"><ele>569.0</ele><time>2026-04-04T14:25:07.041Z</time></trkpt><trkpt lat="43.1369865" lon="12.3280587"><ele>569.0</ele><time>2026-04-04T14:25:09.051Z</time></trkpt><trkpt lat="43.1369861" lon="12.3281787"><ele>569.0</ele><time>2026-04-04T14:25:11.041Z</time></trkpt><trkpt lat="43.1369647" lon="12.328295"><ele>569.0</ele><time>2026-04-04T14:25:13.057Z</time></trkpt><trkpt lat="43.1369665" lon="12.3284135"><ele>567.8333333333333</ele><time>2026-04-04T14:25:15.048Z</time></trkpt><trkpt lat="43.1369753" lon="12.3285363"><ele>566.6666666666666</ele><time>2026-04-04T14:25:17.045Z</time></trkpt><trkpt lat="43.1369773" lon="12.3286549"><ele>565.5</ele><time>2026-04-04T14:25:19.041Z</time></trkpt><trkpt lat="43.1369647" lon="12.3287654"><ele>564.3333333333334</ele><time>2026-04-04T14:25:21.043Z</time></trkpt><trkpt lat="43.1369509" lon="12.3288744"><ele>563.1666666666667</ele><time>2026-04-04T14:25:23.041Z</time></trkpt><trkpt lat="43.1369266" lon="12.3289558"><ele>562.0</ele><time>2026-04-04T14:25:27.046Z</time></trkpt><trkpt lat="43.1368408" lon="12.3289943"><ele>561.2</ele><time>2026-04-04T14:25:30.052Z</time></trkpt><trkpt lat="43.1367696" lon="12.3290192"><ele>560.4000000000001</ele><time>2026-04-04T14:25:32.048Z</time></trkpt><trkpt lat="43.1366784" lon="12.3290792"><ele>559.5999999999999</ele><time>2026-04-04T14:25:34.042Z</time></trkpt><trkpt lat="43.1365769" lon="12.3291067"><ele>558.8</ele><time>2026-04-04T14:25:36.052Z</time></trkpt><trkpt lat="43.13648" lon="12.3290474"><ele>558.0</ele><time>2026-04-04T14:25:38.045Z</time></trkpt><trkpt lat="43.1363893" lon="12.3289873"><ele>553.6</ele><time>2026-04-04T14:25:40.051Z</time></trkpt><trkpt lat="43.1363153" lon="12.3290667"><ele>549.1999999999999</ele><time>2026-04-04T14:25:42.044Z</time></trkpt><trkpt lat="43.1362959" lon="12.3291834"><ele>544.8</ele><time>2026-04-04T14:25:44.028Z</time></trkpt><trkpt lat="43.1362897" lon="12.3293273"><ele>540.4</ele><time>2026-04-04T14:25:46.042Z</time></trkpt><trkpt lat="43.1363037" lon="12.3294772"><ele>536.0</ele><time>2026-04-04T14:25:48.045Z</time></trkpt><trkpt lat="43.1363484" lon="12.3296092"><ele>536.0</ele><time>2026-04-04T14:25:50.042Z</time></trkpt><trkpt lat="43.1364254" lon="12.329704"><ele>536.0</ele><time>2026-04-04T14:25:52.033Z</time></trkpt><trkpt lat="43.1364966" lon="12.32982"><ele>536.0</ele><time>2026-04-04T14:25:54.054Z</time></trkpt><trkpt lat="43.1365369" lon="12.3299845"><ele>536.0</ele><time>2026-04-04T14:25:56.037Z</time></trkpt><trkpt lat="43.1365515" lon="12.3300693"><ele>536.0</ele><time>2026-04-04T14:25:57.048Z</time></trkpt><trkpt lat="43.1365662" lon="12.330157"><ele>537.1666666666666</ele><time>2026-04-04T14:25:58.062Z</time></trkpt><trkpt lat="43.1365727" lon="12.3302506"><ele>538.3333333333333</ele><time>2026-04-04T14:25:59.04Z</time></trkpt><trkpt lat="43.1365777" lon="12.3303525"><ele>539.5</ele><time>2026-04-04T14:26:00.041Z</time></trkpt><trkpt lat="43.1365765" lon="12.3304634"><ele>540.6666666666666</ele><time>2026-04-04T14:26:01.047Z</time></trkpt><trkpt lat="43.1365675" lon="12.3305844"><ele>541.8333333333334</ele><time>2026-04-04T14:26:02.035Z</time></trkpt><trkpt lat="43.136558" lon="12.3307048"><ele>543.0</ele><time>2026-04-04T14:26:03.049Z</time></trkpt><trkpt lat="43.1365522" lon="12.3308163"><ele>539.8333333333334</ele><time>2026-04-04T14:26:04.032Z</time></trkpt><trkpt lat="43.1365449" lon="12.3309305"><ele>536.6666666666666</ele><time>2026-04-04T14:26:05.039Z</time></trkpt><trkpt lat="43.1365321" lon="12.3310413"><ele>533.5</ele><time>2026-04-04T14:26:06.04Z</time></trkpt><trkpt lat="43.1365205" lon="12.3311477"><ele>530.3333333333333</ele><time>2026-04-04T14:26:07.047Z</time></trkpt><trkpt lat="43.1365072" lon="12.3312509"><ele>527.1666666666666</ele><time>2026-04-04T14:26:08.036Z</time></trkpt><trkpt lat="43.1364927" lon="12.331349"><ele>524.0</ele><time>2026-04-04T14:26:09.064Z</time></trkpt><trkpt lat="43.136475" lon="12.3314467"><ele>522.8</ele><time>2026-04-04T14:26:10.035Z</time></trkpt><trkpt lat="43.136454" lon="12.3316006"><ele>521.5999999999999</ele><time>2026-04-04T14:26:12.039Z</time></trkpt><trkpt lat="43.1364735" lon="12.3317535"><ele>520.4</ele><time>2026-04-04T14:26:14.041Z</time></trkpt><trkpt lat="43.1365296" lon="12.331907"><ele>519.1999999999999</ele><time>2026-04-04T14:26:16.034Z</time></trkpt><trkpt lat="43.1365655" lon="12.3319858"><ele>518.0</ele><time>2026-04-04T14:26:17.052Z</time></trkpt><trkpt lat="43.1366052" lon="12.3320681"><ele>519.1666666666666</ele><time>2026-04-04T14:26:18.042Z</time></trkpt><trkpt lat="43.1366439" lon="12.3321537"><ele>520.3333333333333</ele><time>2026-04-04T14:26:19.044Z</time></trkpt><trkpt lat="43.1366821" lon="12.3322393"><ele>521.5</ele><time>2026-04-04T14:26:20.044Z</time></trkpt><trkpt lat="43.1367281" lon="12.3323211"><ele>522.6666666666666</ele><time>2026-04-04T14:26:21.039Z</time></trkpt><trkpt lat="43.1367774" lon="12.3323961"><ele>523.8333333333334</ele><time>2026-04-04T14:26:22.039Z</time></trkpt><trkpt lat="43.1368248" lon="12.3324812"><ele>525.0</ele><time>2026-04-04T14:26:23.052Z</time></trkpt><trkpt lat="43.1368697" lon="12.3325684"><ele>525.0</ele><time>2026-04-04T14:26:24.036Z</time></trkpt><trkpt lat="43.1369152" lon="12.3326506"><ele>525.0</ele><time>2026-04-04T14:26:25.036Z</time></trkpt><trkpt lat="43.1369611" lon="12.3327254"><ele>525.0</ele><time>2026-04-04T14:26:26.036Z</time></trkpt><trkpt lat="43.1370084" lon="12.3328029"><ele>525.0</ele><time>2026-04-04T14:26:27.03Z</time></trkpt><trkpt lat="43.1370847" lon="12.3329338"><ele>525.0</ele><time>2026-04-04T14:26:29.031Z</time></trkpt><trkpt lat="43.1371679" lon="12.3330516"><ele>524.6666666666666</ele><time>2026-04-04T14:26:31.044Z</time></trkpt><trkpt lat="43.1372543" lon="12.3331384"><ele>524.3333333333334</ele><time>2026-04-04T14:26:33.033Z</time></trkpt><trkpt lat="43.1372987" lon="12.3332173"><ele>524.0</ele><time>2026-04-04T14:26:35.038Z</time></trkpt><trkpt lat="43.1373131" lon="12.3333421"><ele>523.6666666666667</ele><time>2026-04-04T14:26:38.046Z</time></trkpt><trkpt lat="43.1373308" lon="12.3334449"><ele>523.3333333333334</ele><time>2026-04-04T14:26:40.038Z</time></trkpt><trkpt lat="43.1373536" lon="12.3335756"><ele>523.0</ele><time>2026-04-04T14:26:42.035Z</time></trkpt><trkpt lat="43.1373545" lon="12.3336656"><ele>523.0</ele><time>2026-04-04T14:26:45.05Z</time></trkpt><trkpt lat="43.1373203" lon="12.3337627"><ele>523.0</ele><time>2026-04-04T14:27:12.044Z</time></trkpt><trkpt lat="43.1373118" lon="12.3338673"><ele>523.0</ele><time>2026-04-04T14:27:13.038Z</time></trkpt><trkpt lat="43.1373148" lon="12.3339808"><ele>523.0</ele><time>2026-04-04T14:27:14.04Z</time></trkpt><trkpt lat="43.137316" lon="12.3340906"><ele>523.0</ele><time>2026-04-04T14:27:15.045Z</time></trkpt><trkpt lat="43.1373273" lon="12.3341985"><ele>523.0</ele><time>2026-04-04T14:27:16.042Z</time></trkpt><trkpt lat="43.1373448" lon="12.3343102"><ele>523.0</ele><time>2026-04-04T14:27:17.055Z</time></trkpt><trkpt lat="43.137371" lon="12.3344311"><ele>523.0</ele><time>2026-04-04T14:27:18.054Z</time></trkpt><trkpt lat="43.1373895" lon="12.3345659"><ele>523.0</ele><time>2026-04-04T14:27:19.045Z</time></trkpt><trkpt lat="43.1374116" lon="12.3347033"><ele>523.0</ele><time>2026-04-04T14:27:20.05Z</time></trkpt><trkpt lat="43.1374256" lon="12.334837"><ele>523.0</ele><time>2026-04-04T14:27:21.051Z</time></trkpt><trkpt lat="43.1374448" lon="12.3349766"><ele>523.0</ele><time>2026-04-04T14:27:22.051Z</time></trkpt><trkpt lat="43.1374624" lon="12.335121"><ele>523.0</ele><time>2026-04-04T14:27:23.047Z</time></trkpt><trkpt lat="43.1374979" lon="12.3352549"><ele>523.0</ele><time>2026-04-04T14:27:24.047Z</time></trkpt><trkpt lat="43.1375391" lon="12.3353834"><ele>523.0</ele><time>2026-04-04T14:27:25.05Z</time></trkpt><trkpt lat="43.1375896" lon="12.3355011"><ele>523.0</ele><time>2026-04-04T14:27:26.052Z</time></trkpt><trkpt lat="43.1376325" lon="12.3356244"><ele>524.6</ele><time>2026-04-04T14:27:27.05Z</time></trkpt><trkpt lat="43.1376682" lon="12.3357541"><ele>526.1999999999999</ele><time>2026-04-04T14:27:28.037Z</time></trkpt><trkpt lat="43.1376945" lon="12.3358855"><ele>527.8</ele><time>2026-04-04T14:27:29.037Z</time></trkpt><trkpt lat="43.1377213" lon="12.3360341"><ele>529.4</ele><time>2026-04-04T14:27:30.059Z</time></trkpt><trkpt lat="43.1377481" lon="12.3361883"><ele>531.0</ele><time>2026-04-04T14:27:31.042Z</time></trkpt><trkpt lat="43.1377763" lon="12.3363346"><ele>532.6</ele><time>2026-04-04T14:27:32.049Z</time></trkpt><trkpt lat="43.1378039" lon="12.3364703"><ele>534.2</ele><time>2026-04-04T14:27:33.049Z</time></trkpt><trkpt lat="43.1378233" lon="12.3365902"><ele>535.8</ele><time>2026-04-04T14:27:34.05Z</time></trkpt><trkpt lat="43.1378364" lon="12.3367101"><ele>537.4</ele><time>2026-04-04T14:27:35.056Z</time></trkpt><trkpt lat="43.137844" lon="12.3368289"><ele>539.0</ele><time>2026-04-04T14:27:36.044Z</time></trkpt><trkpt lat="43.1378367" lon="12.3369525"><ele>539.0</ele><time>2026-04-04T14:27:37.052Z</time></trkpt><trkpt lat="43.1378103" lon="12.337084"><ele>539.0</ele><time>2026-04-04T14:27:38.061Z</time></trkpt><trkpt lat="43.1377539" lon="12.3372175"><ele>539.0</ele><time>2026-04-04T14:27:39.048Z</time></trkpt><trkpt lat="43.1376846" lon="12.3373451"><ele>539.0</ele><time>2026-04-04T14:27:40.042Z</time></trkpt><trkpt lat="43.1376248" lon="12.3374677"><ele>539.0</ele><time>2026-04-04T14:27:41.052Z</time></trkpt><trkpt lat="43.1375646" lon="12.3375934"><ele>537.5</ele><time>2026-04-04T14:27:42.051Z</time></trkpt><trkpt lat="43.13752" lon="12.3377476"><ele>536.0</ele><time>2026-04-04T14:27:43.048Z</time></trkpt><trkpt lat="43.1374965" lon="12.3379204"><ele>534.5</ele><time>2026-04-04T14:27:44.046Z</time></trkpt><trkpt lat="43.1374896" lon="12.3380951"><ele>533.0</ele><time>2026-04-04T14:27:45.04Z</time></trkpt><trkpt lat="43.1374968" lon="12.3382561"><ele>531.8</ele><time>2026-04-04T14:27:46.053Z</time></trkpt><trkpt lat="43.1375131" lon="12.3384085"><ele>530.5999999999999</ele><time>2026-04-04T14:27:47.038Z</time></trkpt><trkpt lat="43.1375476" lon="12.3385419"><ele>529.4000000000001</ele><time>2026-04-04T14:27:48.053Z</time></trkpt><trkpt lat="43.1376044" lon="12.3386566"><ele>528.2</ele><time>2026-04-04T14:27:49.041Z</time></trkpt><trkpt lat="43.1376912" lon="12.3387317"><ele>527.0</ele><time>2026-04-04T14:27:50.053Z</time></trkpt><trkpt lat="43.137793" lon="12.3387771"><ele>527.0</ele><time>2026-04-04T14:27:51.046Z</time></trkpt><trkpt lat="43.1378942" lon="12.3387853"><ele>527.0</ele><time>2026-04-04T14:27:52.059Z</time></trkpt><trkpt lat="43.137988" lon="12.3387764"><ele>527.0</ele><time>2026-04-04T14:27:53.052Z</time></trkpt><trkpt lat="43.1380753" lon="12.3387552"><ele>527.0</ele><time>2026-04-04T14:27:54.05Z</time></trkpt><trkpt lat="43.1381675" lon="12.3387538"><ele>527.0</ele><time>2026-04-04T14:27:55.046Z</time></trkpt><trkpt lat="43.1382602" lon="12.3387797"><ele>526.3333333333333</ele><time>2026-04-04T14:27:56.043Z</time></trkpt><trkpt lat="43.1383384" lon="12.3388308"><ele>525.6666666666666</ele><time>2026-04-04T14:27:57.06Z</time></trkpt><trkpt lat="43.1384164" lon="12.3388873"><ele>525.0</ele><time>2026-04-04T14:27:58.043Z</time></trkpt><trkpt lat="43.1384749" lon="12.338941"><ele>524.3333333333334</ele><time>2026-04-04T14:27:59.054Z</time></trkpt><trkpt lat="43.1385522" lon="12.3389914"><ele>523.6666666666667</ele><time>2026-04-04T14:28:01.044Z</time></trkpt><trkpt lat="43.1386098" lon="12.3389396"><ele>523.0</ele><time>2026-04-04T14:28:03.05Z</time></trkpt><trkpt lat="43.1386568" lon="12.3387876"><ele>523.0</ele><time>2026-04-04T14:28:05.046Z</time></trkpt><trkpt lat="43.1386787" lon="12.3386872"><ele>523.0</ele><time>2026-04-04T14:28:06.046Z</time></trkpt><trkpt lat="43.1387038" lon="12.33858"><ele>523.0</ele><time>2026-04-04T14:28:07.047Z</time></trkpt><trkpt lat="43.1387242" lon="12.3384519"><ele>523.0</ele><time>2026-04-04T14:28:08.043Z</time></trkpt><trkpt lat="43.1387382" lon="12.3383119"><ele>523.0</ele><time>2026-04-04T14:28:09.044Z</time></trkpt><trkpt lat="43.1387408" lon="12.3381823"><ele>523.0</ele><time>2026-04-04T14:28:10.042Z</time></trkpt><trkpt lat="43.1387565" lon="12.3380532"><ele>523.0</ele><time>2026-04-04T14:28:11.042Z</time></trkpt><trkpt lat="43.1388021" lon="12.3379361"><ele>523.0</ele><time>2026-04-04T14:28:12.049Z</time></trkpt><trkpt lat="43.1388732" lon="12.3378385"><ele>523.0</ele><time>2026-04-04T14:28:13.056Z</time></trkpt><trkpt lat="43.1389541" lon="12.3377513"><ele>523.0</ele><time>2026-04-04T14:28:14.045Z</time></trkpt><trkpt lat="43.1390282" lon="12.3376632"><ele>520.6</ele><time>2026-04-04T14:28:15.045Z</time></trkpt><trkpt lat="43.1391031" lon="12.3375659"><ele>518.1999999999999</ele><time>2026-04-04T14:28:16.052Z</time></trkpt><trkpt lat="43.1391729" lon="12.3374728"><ele>515.8</ele><time>2026-04-04T14:28:17.066Z</time></trkpt><trkpt lat="43.1392363" lon="12.3373772"><ele>513.4</ele><time>2026-04-04T14:28:18.041Z</time></trkpt><trkpt lat="43.1392976" lon="12.3372752"><ele>511.0</ele><time>2026-04-04T14:28:19.054Z</time></trkpt><trkpt lat="43.1393544" lon="12.3371749"><ele>509.20000000000005</ele><time>2026-04-04T14:28:20.042Z</time></trkpt><trkpt lat="43.139411" lon="12.337068"><ele>507.40000000000003</ele><time>2026-04-04T14:28:21.046Z</time></trkpt><trkpt lat="43.1394721" lon="12.3369703"><ele>505.6</ele><time>2026-04-04T14:28:22.047Z</time></trkpt><trkpt lat="43.1395332" lon="12.3368764"><ele>503.8</ele><time>2026-04-04T14:28:23.051Z</time></trkpt><trkpt lat="43.139599" lon="12.3367903"><ele>502.0</ele><time>2026-04-04T14:28:24.04Z</time></trkpt><trkpt lat="43.1396459" lon="12.3367023"><ele>502.00000000000006</ele><time>2026-04-04T14:28:25.051Z</time></trkpt><trkpt lat="43.1396738" lon="12.3366117"><ele>502.0</ele><time>2026-04-04T14:28:26.043Z</time></trkpt><trkpt lat="43.1396704" lon="12.3365041"><ele>502.0</ele><time>2026-04-04T14:28:27.044Z</time></trkpt><trkpt lat="43.1396513" lon="12.3363905"><ele>502.0</ele><time>2026-04-04T14:28:28.038Z</time></trkpt><trkpt lat="43.1396209" lon="12.3362775"><ele>502.00000000000006</ele><time>2026-04-04T14:28:29.028Z</time></trkpt><trkpt lat="43.1395792" lon="12.336176"><ele>502.0</ele><time>2026-04-04T14:28:30.032Z</time></trkpt><trkpt lat="43.1395563" lon="12.3360826"><ele>502.6666666666667</ele><time>2026-04-04T14:28:31.04Z</time></trkpt><trkpt lat="43.1395437" lon="12.335944"><ele>503.33333333333337</ele><time>2026-04-04T14:28:33.038Z</time></trkpt><trkpt lat="43.1395648" lon="12.335853"><ele>504.0</ele><time>2026-04-04T14:28:35.049Z</time></trkpt><trkpt lat="43.1396078" lon="12.3357431"><ele>504.66666666666663</ele><time>2026-04-04T14:28:38.044Z</time></trkpt><trkpt lat="43.1396942" lon="12.3357413"><ele>505.3333333333333</ele><time>2026-04-04T14:33:54.046Z</time></trkpt><trkpt lat="43.139766" lon="12.3357404"><ele>506.0</ele><time>2026-04-04T14:33:55.06Z</time></trkpt><trkpt lat="43.1398582" lon="12.3357518"><ele>504.8</ele><time>2026-04-04T14:33:56.044Z</time></trkpt><trkpt lat="43.1399665" lon="12.3357673"><ele>503.6</ele><time>2026-04-04T14:33:57.048Z</time></trkpt><trkpt lat="43.1400671" lon="12.3357818"><ele>502.4</ele><time>2026-04-04T14:33:58.048Z</time></trkpt><trkpt lat="43.1401669" lon="12.3357856"><ele>501.2</ele><time>2026-04-04T14:33:59.04Z</time></trkpt><trkpt lat="43.1402715" lon="12.3357725"><ele>500.0</ele><time>2026-04-04T14:34:00.059Z</time></trkpt><trkpt lat="43.1403692" lon="12.3357489"><ele>500.0</ele><time>2026-04-04T14:34:01.043Z</time></trkpt><trkpt lat="43.1404713" lon="12.3357019"><ele>500.0</ele><time>2026-04-04T14:34:02.03Z</time></trkpt><trkpt lat="43.1405707" lon="12.3356413"><ele>500.0</ele><time>2026-04-04T14:34:03.039Z</time></trkpt><trkpt lat="43.1406655" lon="12.3355896"><ele>500.0</ele><time>2026-04-04T14:34:04.046Z</time></trkpt><trkpt lat="43.1407593" lon="12.3355404"><ele>500.0</ele><time>2026-04-04T14:34:05.039Z</time></trkpt><trkpt lat="43.1408481" lon="12.3354985"><ele>500.8333333333333</ele><time>2026-04-04T14:34:06.045Z</time></trkpt><trkpt lat="43.1409282" lon="12.335455"><ele>501.66666666666663</ele><time>2026-04-04T14:34:07.047Z</time></trkpt><trkpt lat="43.1410093" lon="12.3354052"><ele>502.5</ele><time>2026-04-04T14:34:08.048Z</time></trkpt><trkpt lat="43.1410906" lon="12.3353627"><ele>503.33333333333337</ele><time>2026-04-04T14:34:09.051Z</time></trkpt><trkpt lat="43.1411704" lon="12.3353237"><ele>504.1666666666667</ele><time>2026-04-04T14:34:10.046Z</time></trkpt><trkpt lat="43.1412483" lon="12.3352911"><ele>505.0</ele><time>2026-04-04T14:34:11.057Z</time></trkpt><trkpt lat="43.1413206" lon="12.3352567"><ele>505.00000000000006</ele><time>2026-04-04T14:34:12.047Z</time></trkpt><trkpt lat="43.1413956" lon="12.3352234"><ele>505.0</ele><time>2026-04-04T14:34:13.049Z</time></trkpt><trkpt lat="43.1414726" lon="12.3351977"><ele>505.0</ele><time>2026-04-04T14:34:14.045Z</time></trkpt><trkpt lat="43.1415557" lon="12.3351638"><ele>505.0</ele><time>2026-04-04T14:34:15.049Z</time></trkpt><trkpt lat="43.1416432" lon="12.3351379"><ele>505.00000000000006</ele><time>2026-04-04T14:34:16.049Z</time></trkpt><trkpt lat="43.1417326" lon="12.3351214"><ele>505.0</ele><time>2026-04-04T14:34:17.068Z</time></trkpt><trkpt lat="43.1418208" lon="12.3351079"><ele>505.00000000000006</ele><time>2026-04-04T14:34:18.044Z</time></trkpt><trkpt lat="43.1418982" lon="12.3350804"><ele>505.0</ele><time>2026-04-04T14:34:19.056Z</time></trkpt><trkpt lat="43.1419744" lon="12.3350582"><ele>505.0</ele><time>2026-04-04T14:34:20.09Z</time></trkpt><trkpt lat="43.1420517" lon="12.3350397"><ele>505.0</ele><time>2026-04-04T14:34:21.039Z</time></trkpt><trkpt lat="43.142127" lon="12.3350008"><ele>505.00000000000006</ele><time>2026-04-04T14:34:22.042Z</time></trkpt><trkpt lat="43.142202" lon="12.3349394"><ele>505.0</ele><time>2026-04-04T14:34:23.039Z</time></trkpt><trkpt lat="43.14226" lon="12.3348656"><ele>505.0</ele><time>2026-04-04T14:34:24.044Z</time></trkpt><trkpt lat="43.1422995" lon="12.3347645"><ele>505.0</ele><time>2026-04-04T14:34:25.063Z</time></trkpt><trkpt lat="43.1423255" lon="12.3346406"><ele>505.0</ele><time>2026-04-04T14:34:26.046Z</time></trkpt><trkpt lat="43.1423487" lon="12.3345144"><ele>505.0</ele><time>2026-04-04T14:34:27.039Z</time></trkpt><trkpt lat="43.142382" lon="12.3343806"><ele>505.0</ele><time>2026-04-04T14:34:28.046Z</time></trkpt><trkpt lat="43.1424273" lon="12.3342561"><ele>507.2</ele><time>2026-04-04T14:34:29.037Z</time></trkpt><trkpt lat="43.142475" lon="12.3341241"><ele>509.4</ele><time>2026-04-04T14:34:30.041Z</time></trkpt><trkpt lat="43.1425283" lon="12.3340079"><ele>511.6</ele><time>2026-04-04T14:34:31.048Z</time></trkpt><trkpt lat="43.1425943" lon="12.3339138"><ele>513.8</ele><time>2026-04-04T14:34:32.047Z</time></trkpt><trkpt lat="43.142671" lon="12.3338444"><ele>516.0</ele><time>2026-04-04T14:34:33.056Z</time></trkpt><trkpt lat="43.1427465" lon="12.3337924"><ele>518.6</ele><time>2026-04-04T14:34:34.038Z</time></trkpt><trkpt lat="43.1428221" lon="12.3337476"><ele>521.2</ele><time>2026-04-04T14:34:35.041Z</time></trkpt><trkpt lat="43.1429007" lon="12.3336865"><ele>523.8</ele><time>2026-04-04T14:34:36.039Z</time></trkpt><trkpt lat="43.1429831" lon="12.3336196"><ele>526.4</ele><time>2026-04-04T14:34:37.066Z</time></trkpt><trkpt lat="43.143076" lon="12.333555"><ele>529.0</ele><time>2026-04-04T14:34:38.042Z</time></trkpt><trkpt lat="43.1431718" lon="12.3334864"><ele>527.4</ele><time>2026-04-04T14:34:39.045Z</time></trkpt><trkpt lat="43.1432553" lon="12.3334114"><ele>525.8</ele><time>2026-04-04T14:34:40.046Z</time></trkpt><trkpt lat="43.1433334" lon="12.3333322"><ele>524.2</ele><time>2026-04-04T14:34:41.042Z</time></trkpt><trkpt lat="43.143407" lon="12.3332473"><ele>522.6</ele><time>2026-04-04T14:34:42.048Z</time></trkpt><trkpt lat="43.1434693" lon="12.3331475"><ele>521.0</ele><time>2026-04-04T14:34:43.051Z</time></trkpt><trkpt lat="43.1435316" lon="12.3330445"><ele>521.0</ele><time>2026-04-04T14:34:44.039Z</time></trkpt><trkpt lat="43.1435867" lon="12.3329355"><ele>521.0</ele><time>2026-04-04T14:34:45.041Z</time></trkpt><trkpt lat="43.1436446" lon="12.3328208"><ele>521.0</ele><time>2026-04-04T14:34:46.043Z</time></trkpt><trkpt lat="43.1437026" lon="12.3327229"><ele>521.0</ele><time>2026-04-04T14:34:47.043Z</time></trkpt><trkpt lat="43.1437594" lon="12.3326165"><ele>521.0</ele><time>2026-04-04T14:34:48.038Z</time></trkpt><trkpt lat="43.1438142" lon="12.3325167"><ele>521.0</ele><time>2026-04-04T14:34:49.044Z</time></trkpt><trkpt lat="43.1438598" lon="12.3324274"><ele>521.0</ele><time>2026-04-04T14:34:50.042Z</time></trkpt><trkpt lat="43.1438773" lon="12.3323433"><ele>521.0</ele><time>2026-04-04T14:34:51.038Z</time></trkpt><trkpt lat="43.1438475" lon="12.3321834"><ele>521.0</ele><time>2026-04-04T14:34:53.051Z</time></trkpt><trkpt lat="43.1438635" lon="12.3320122"><ele>521.0</ele><time>2026-04-04T14:34:55.038Z</time></trkpt><trkpt lat="43.1439002" lon="12.3319307"><ele>519.0</ele><time>2026-04-04T14:34:56.056Z</time></trkpt><trkpt lat="43.1439412" lon="12.3318426"><ele>517.0</ele><time>2026-04-04T14:34:57.036Z</time></trkpt><trkpt lat="43.1439852" lon="12.3317567"><ele>515.0</ele><time>2026-04-04T14:34:58.04Z</time></trkpt><trkpt lat="43.144032" lon="12.3316631"><ele>513.0</ele><time>2026-04-04T14:34:59.034Z</time></trkpt><trkpt lat="43.1440872" lon="12.3315649"><ele>510.99999999999994</ele><time>2026-04-04T14:35:00.032Z</time></trkpt><trkpt lat="43.1441355" lon="12.3314584"><ele>509.0</ele><time>2026-04-04T14:35:01.047Z</time></trkpt><trkpt lat="43.1441854" lon="12.3313554"><ele>506.3333333333333</ele><time>2026-04-04T14:35:02.042Z</time></trkpt><trkpt lat="43.1442306" lon="12.3312571"><ele>503.66666666666663</ele><time>2026-04-04T14:35:03.042Z</time></trkpt><trkpt lat="43.1442714" lon="12.3311576"><ele>501.0</ele><time>2026-04-04T14:35:04.045Z</time></trkpt><trkpt lat="43.1443087" lon="12.3310649"><ele>498.33333333333337</ele><time>2026-04-04T14:35:05.034Z</time></trkpt><trkpt lat="43.1443619" lon="12.3309859"><ele>495.6666666666667</ele><time>2026-04-04T14:35:06.039Z</time></trkpt><trkpt lat="43.1444192" lon="12.3309048"><ele>493.0</ele><time>2026-04-04T14:35:07.04Z</time></trkpt><trkpt lat="43.1445034" lon="12.330826"><ele>493.00000000000006</ele><time>2026-04-04T14:35:08.038Z</time></trkpt><trkpt lat="43.1445927" lon="12.3307613"><ele>493.0</ele><time>2026-04-04T14:35:09.04Z</time></trkpt><trkpt lat="43.1446803" lon="12.3307125"><ele>493.0</ele><time>2026-04-04T14:35:10.045Z</time></trkpt><trkpt lat="43.1447639" lon="12.3306722"><ele>493.0</ele><time>2026-04-04T14:35:11.077Z</time></trkpt><trkpt lat="43.1448399" lon="12.3306473"><ele>493.00000000000006</ele><time>2026-04-04T14:35:12.037Z</time></trkpt><trkpt lat="43.1449127" lon="12.3306492"><ele>493.0</ele><time>2026-04-04T14:35:13.043Z</time></trkpt><trkpt lat="43.1450181" lon="12.3306518"><ele>492.83333333333337</ele><time>2026-04-04T14:35:15.043Z</time></trkpt><trkpt lat="43.1450608" lon="12.3305681"><ele>492.6666666666667</ele><time>2026-04-04T14:35:17.033Z</time></trkpt><trkpt lat="43.1450141" lon="12.3304771"><ele>492.5</ele><time>2026-04-04T14:35:19.048Z</time></trkpt><trkpt lat="43.1449492" lon="12.3304528"><ele>492.33333333333337</ele><time>2026-04-04T14:35:20.04Z</time></trkpt><trkpt lat="43.1448792" lon="12.3304225"><ele>492.1666666666667</ele><time>2026-04-04T14:35:21.028Z</time></trkpt><trkpt lat="43.1448091" lon="12.3303787"><ele>492.0</ele><time>2026-04-04T14:35:22.038Z</time></trkpt><trkpt lat="43.1447423" lon="12.3303238"><ele>492.6666666666667</ele><time>2026-04-04T14:35:23.038Z</time></trkpt><trkpt lat="43.1446797" lon="12.3302502"><ele>493.33333333333337</ele><time>2026-04-04T14:35:24.025Z</time></trkpt><trkpt lat="43.1446346" lon="12.3301647"><ele>494.0</ele><time>2026-04-04T14:35:25.042Z</time></trkpt><trkpt lat="43.1446148" lon="12.3300731"><ele>494.6666666666667</ele><time>2026-04-04T14:35:26.035Z</time></trkpt><trkpt lat="43.1446625" lon="12.3299097"><ele>495.33333333333337</ele><time>2026-04-04T14:35:28.036Z</time></trkpt><trkpt lat="43.1447163" lon="12.3298364"><ele>496.0</ele><time>2026-04-04T14:35:29.04Z</time></trkpt><trkpt lat="43.144789" lon="12.3297773"><ele>498.1666666666667</ele><time>2026-04-04T14:35:30.049Z</time></trkpt><trkpt lat="43.1448635" lon="12.3297183"><ele>500.33333333333337</ele><time>2026-04-04T14:35:31.04Z</time></trkpt><trkpt lat="43.1449405" lon="12.3296544"><ele>502.5</ele><time>2026-04-04T14:35:32.037Z</time></trkpt><trkpt lat="43.1450093" lon="12.3295924"><ele>504.66666666666663</ele><time>2026-04-04T14:35:33.037Z</time></trkpt><trkpt lat="43.1450641" lon="12.3295081"><ele>506.8333333333333</ele><time>2026-04-04T14:35:34.044Z</time></trkpt><trkpt lat="43.1451026" lon="12.3294087"><ele>509.0</ele><time>2026-04-04T14:35:35.044Z</time></trkpt><trkpt lat="43.1451328" lon="12.3293051"><ele>504.49999999999994</ele><time>2026-04-04T14:35:36.038Z</time></trkpt><trkpt lat="43.1451584" lon="12.3292073"><ele>500.0</ele><time>2026-04-04T14:35:37.041Z</time></trkpt><trkpt lat="43.1451779" lon="12.3291085"><ele>495.5</ele><time>2026-04-04T14:35:38.034Z</time></trkpt><trkpt lat="43.1451949" lon="12.3290156"><ele>491.0</ele><time>2026-04-04T14:35:39.04Z</time></trkpt><trkpt lat="43.1452035" lon="12.3289134"><ele>486.49999999999994</ele><time>2026-04-04T14:35:40.047Z</time></trkpt><trkpt lat="43.145206" lon="12.3287949"><ele>482.0</ele><time>2026-04-04T14:35:41.048Z</time></trkpt><trkpt lat="43.1451993" lon="12.3286732"><ele>481.3333333333333</ele><time>2026-04-04T14:35:42.045Z</time></trkpt><trkpt lat="43.1451809" lon="12.3285636"><ele>480.66666666666663</ele><time>2026-04-04T14:35:43.064Z</time></trkpt><trkpt lat="43.1451541" lon="12.3284484"><ele>480.0</ele><time>2026-04-04T14:35:44.044Z</time></trkpt><trkpt lat="43.1451287" lon="12.3283421"><ele>479.33333333333337</ele><time>2026-04-04T14:35:45.045Z</time></trkpt><trkpt lat="43.1450998" lon="12.3282375"><ele>478.6666666666667</ele><time>2026-04-04T14:35:46.048Z</time></trkpt><trkpt lat="43.1450658" lon="12.3281343"><ele>478.0</ele><time>2026-04-04T14:35:47.038Z</time></trkpt><trkpt lat="43.1450332" lon="12.3280387"><ele>479.1666666666667</ele><time>2026-04-04T14:35:48.045Z</time></trkpt><trkpt lat="43.1450005" lon="12.327936"><ele>480.33333333333337</ele><time>2026-04-04T14:35:49.042Z</time></trkpt><trkpt lat="43.1449708" lon="12.3278401"><ele>481.5</ele><time>2026-04-04T14:35:50.037Z</time></trkpt><trkpt lat="43.1449316" lon="12.3277316"><ele>482.66666666666663</ele><time>2026-04-04T14:35:51.038Z</time></trkpt><trkpt lat="43.1448993" lon="12.3276237"><ele>483.8333333333333</ele><time>2026-04-04T14:35:52.04Z</time></trkpt><trkpt lat="43.1448717" lon="12.3275253"><ele>485.0</ele><time>2026-04-04T14:35:53.033Z</time></trkpt><trkpt lat="43.1448479" lon="12.3274274"><ele>484.99999999999994</ele><time>2026-04-04T14:35:54.035Z</time></trkpt><trkpt lat="43.1448201" lon="12.3273438"><ele>485.0</ele><time>2026-04-04T14:35:55.04Z</time></trkpt><trkpt lat="43.1447749" lon="12.3272712"><ele>485.0</ele><time>2026-04-04T14:35:56.042Z</time></trkpt><trkpt lat="43.1447127" lon="12.3272048"><ele>485.0</ele><time>2026-04-04T14:35:57.044Z</time></trkpt><trkpt lat="43.1446422" lon="12.327141"><ele>484.99999999999994</ele><time>2026-04-04T14:35:58.039Z</time></trkpt><trkpt lat="43.1445677" lon="12.3270861"><ele>485.0</ele><time>2026-04-04T14:35:59.059Z</time></trkpt><trkpt lat="43.1444928" lon="12.3270354"><ele>482.99999999999994</ele><time>2026-04-04T14:36:00.039Z</time></trkpt><trkpt lat="43.144419" lon="12.3270052"><ele>481.0</ele><time>2026-04-04T14:36:01.047Z</time></trkpt><trkpt lat="43.1443439" lon="12.3269725"><ele>479.0</ele><time>2026-04-04T14:36:02.051Z</time></trkpt><trkpt lat="43.1442726" lon="12.3269508"><ele>477.0</ele><time>2026-04-04T14:36:03.046Z</time></trkpt><trkpt lat="43.1441679" lon="12.3269118"><ele>474.99999999999994</ele><time>2026-04-04T14:36:05.047Z</time></trkpt><trkpt lat="43.1441243" lon="12.3267976"><ele>473.0</ele><time>2026-04-04T14:36:07.039Z</time></trkpt><trkpt lat="43.1441871" lon="12.3266586"><ele>473.0</ele><time>2026-04-04T14:36:09.04Z</time></trkpt><trkpt lat="43.1442554" lon="12.3265908"><ele>472.99999999999994</ele><time>2026-04-04T14:36:10.035Z</time></trkpt><trkpt lat="43.1443377" lon="12.3265199"><ele>472.99999999999994</ele><time>2026-04-04T14:36:11.039Z</time></trkpt><trkpt lat="43.1444239" lon="12.3264419"><ele>473.0</ele><time>2026-04-04T14:36:12.047Z</time></trkpt><trkpt lat="43.1445061" lon="12.3263657"><ele>473.0</ele><time>2026-04-04T14:36:13.043Z</time></trkpt><trkpt lat="43.1445664" lon="12.3262839"><ele>474.49999999999994</ele><time>2026-04-04T14:36:14.037Z</time></trkpt><trkpt lat="43.1446053" lon="12.3262089"><ele>476.0</ele><time>2026-04-04T14:36:15.035Z</time></trkpt><trkpt lat="43.1446377" lon="12.3261269"><ele>477.5</ele><time>2026-04-04T14:36:16.036Z</time></trkpt><trkpt lat="43.1446567" lon="12.3259922"><ele>479.0</ele><time>2026-04-04T14:36:18.045Z</time></trkpt><trkpt lat="43.1446573" lon="12.3258941"><ele>480.49999999999994</ele><time>2026-04-04T14:36:35.042Z</time></trkpt><trkpt lat="43.1447167" lon="12.3258469"><ele>482.0</ele><time>2026-04-04T14:36:37.042Z</time></trkpt><trkpt lat="43.1448247" lon="12.3258134"><ele>478.40000000000003</ele><time>2026-04-04T14:36:39.033Z</time></trkpt><trkpt lat="43.1449298" lon="12.3257854"><ele>474.80000000000007</ele><time>2026-04-04T14:36:41.059Z</time></trkpt><trkpt lat="43.1450205" lon="12.3257483"><ele>471.2</ele><time>2026-04-04T14:36:43.042Z</time></trkpt><trkpt lat="43.1451103" lon="12.3257063"><ele>467.6</ele><time>2026-04-04T14:36:45.066Z</time></trkpt><trkpt lat="43.1452026" lon="12.3256702"><ele>464.0</ele><time>2026-04-04T14:36:47.038Z</time></trkpt><trkpt lat="43.1452834" lon="12.3256501"><ele>464.0</ele><time>2026-04-04T14:36:49.043Z</time></trkpt><trkpt lat="43.14536" lon="12.3256603"><ele>464.0</ele><time>2026-04-04T14:36:52.047Z</time></trkpt><trkpt lat="43.1454209" lon="12.3257566"><ele>464.0</ele><time>2026-04-04T14:37:06.042Z</time></trkpt><trkpt lat="43.1454928" lon="12.3258494"><ele>464.0</ele><time>2026-04-04T14:37:08.043Z</time></trkpt><trkpt lat="43.1455819" lon="12.3259583"><ele>464.0</ele><time>2026-04-04T14:37:10.048Z</time></trkpt><trkpt lat="43.1456405" lon="12.3260174"><ele>463.99999999999994</ele><time>2026-04-04T14:37:11.04Z</time></trkpt><trkpt lat="43.1456902" lon="12.3260706"><ele>464.0</ele><time>2026-04-04T14:37:12.036Z</time></trkpt><trkpt lat="43.145773" lon="12.3261661"><ele>464.0</ele><time>2026-04-04T14:37:14.034Z</time></trkpt><trkpt lat="43.1458511" lon="12.3262348"><ele>464.0</ele><time>2026-04-04T14:37:16.046Z</time></trkpt><trkpt lat="43.145935" lon="12.326254"><ele>463.99999999999994</ele><time>2026-04-04T14:37:18.037Z</time></trkpt><trkpt lat="43.1460301" lon="12.326269"><ele>464.0</ele><time>2026-04-04T14:37:20.05Z</time></trkpt><trkpt lat="43.1461131" lon="12.3263193"><ele>465.16666666666663</ele><time>2026-04-04T14:37:22.039Z</time></trkpt><trkpt lat="43.1462076" lon="12.3263464"><ele>466.3333333333333</ele><time>2026-04-04T14:37:24.048Z</time></trkpt><trkpt lat="43.1462689" lon="12.3263684"><ele>467.5</ele><time>2026-04-04T14:37:27.055Z</time></trkpt><trkpt lat="43.1463323" lon="12.326372"><ele>468.66666666666663</ele><time>2026-04-04T14:37:30.052Z</time></trkpt><trkpt lat="43.1464183" lon="12.3263678"><ele>469.8333333333333</ele><time>2026-04-04T14:37:33.038Z</time></trkpt><trkpt lat="43.1464939" lon="12.3263688"><ele>471.0</ele><time>2026-04-04T14:37:37.043Z</time></trkpt><trkpt lat="43.1465526" lon="12.3263292"><ele>471.7142857142858</ele><time>2026-04-04T14:37:43.046Z</time></trkpt><trkpt lat="43.1466296" lon="12.326314"><ele>472.42857142857144</ele><time>2026-04-04T14:37:46.048Z</time></trkpt><trkpt lat="43.1466997" lon="12.3262986"><ele>473.14285714285717</ele><time>2026-04-04T14:37:48.038Z</time></trkpt><trkpt lat="43.1467695" lon="12.3262582"><ele>473.8571428571429</ele><time>2026-04-04T14:37:50.043Z</time></trkpt><trkpt lat="43.1468278" lon="12.3262053"><ele>474.57142857142856</ele><time>2026-04-04T14:37:52.045Z</time></trkpt><trkpt lat="43.1468854" lon="12.3261639"><ele>475.2857142857143</ele><time>2026-04-04T14:37:54.049Z</time></trkpt><trkpt lat="43.1469533" lon="12.3261194"><ele>476.0</ele><time>2026-04-04T14:37:56.045Z</time></trkpt><trkpt lat="43.1470141" lon="12.3260656"><ele>476.0</ele><time>2026-04-04T14:37:58.045Z</time></trkpt><trkpt lat="43.1470679" lon="12.3260037"><ele>476.0</ele><time>2026-04-04T14:38:00.042Z</time></trkpt><trkpt lat="43.147122" lon="12.3259361"><ele>476.0</ele><time>2026-04-04T14:38:02.053Z</time></trkpt><trkpt lat="43.1471903" lon="12.3259236"><ele>476.0</ele><time>2026-04-04T14:38:05.038Z</time></trkpt><trkpt lat="43.1472611" lon="12.325975"><ele>476.0</ele><time>2026-04-04T14:38:22.042Z</time></trkpt><trkpt lat="43.1473186" lon="12.3260507"><ele>476.0</ele><time>2026-04-04T14:38:24.04Z</time></trkpt><trkpt lat="43.1473776" lon="12.3261002"><ele>476.0</ele><time>2026-04-04T14:38:26.055Z</time></trkpt><trkpt lat="43.1474356" lon="12.3261468"><ele>474.3333333333333</ele><time>2026-04-04T14:38:28.046Z</time></trkpt><trkpt lat="43.1474916" lon="12.3261946"><ele>472.66666666666663</ele><time>2026-04-04T14:38:30.045Z</time></trkpt><trkpt lat="43.1475393" lon="12.3262644"><ele>471.0</ele><time>2026-04-04T14:38:32.048Z</time></trkpt><trkpt lat="43.147581" lon="12.3263546"><ele>469.33333333333337</ele><time>2026-04-04T14:38:34.041Z</time></trkpt><trkpt lat="43.1476228" lon="12.3264722"><ele>467.6666666666667</ele><time>2026-04-04T14:38:36.037Z</time></trkpt><trkpt lat="43.1476602" lon="12.3266011"><ele>466.0</ele><time>2026-04-04T14:38:38.039Z</time></trkpt><trkpt lat="43.1476938" lon="12.3267295"><ele>465.6</ele><time>2026-04-04T14:38:40.036Z</time></trkpt><trkpt lat="43.1477296" lon="12.3268467"><ele>465.20000000000005</ele><time>2026-04-04T14:38:42.043Z</time></trkpt><trkpt lat="43.1477956" lon="12.3269384"><ele>464.79999999999995</ele><time>2026-04-04T14:38:44.034Z</time></trkpt><trkpt lat="43.1478635" lon="12.3270031"><ele>464.4</ele><time>2026-04-04T14:38:46.049Z</time></trkpt><trkpt lat="43.1479524" lon="12.3270399"><ele>464.0</ele><time>2026-04-04T14:38:48.039Z</time></trkpt><trkpt lat="43.1480398" lon="12.3271105"><ele>463.6</ele><time>2026-04-04T14:38:50.048Z</time></trkpt><trkpt lat="43.1481125" lon="12.3272366"><ele>463.2</ele><time>2026-04-04T14:38:52.04Z</time></trkpt><trkpt lat="43.1481743" lon="12.3273517"><ele>462.80000000000007</ele><time>2026-04-04T14:38:54.044Z</time></trkpt><trkpt lat="43.1482161" lon="12.3274517"><ele>462.40000000000003</ele><time>2026-04-04T14:38:56.039Z</time></trkpt><trkpt lat="43.1482481" lon="12.3275367"><ele>462.0</ele><time>2026-04-04T14:38:58.052Z</time></trkpt><trkpt lat="43.148313" lon="12.3276351"><ele>462.0</ele><time>2026-04-04T14:39:01.034Z</time></trkpt><trkpt lat="43.1483715" lon="12.3277303"><ele>462.00000000000006</ele><time>2026-04-04T14:39:03.041Z</time></trkpt><trkpt lat="43.1484225" lon="12.3278376"><ele>462.00000000000006</ele><time>2026-04-04T14:39:05.044Z</time></trkpt><trkpt lat="43.1484844" lon="12.3279438"><ele>462.0</ele><time>2026-04-04T14:39:07.038Z</time></trkpt><trkpt lat="43.1485679" lon="12.3280378"><ele>462.0</ele><time>2026-04-04T14:39:09.033Z</time></trkpt><trkpt lat="43.1486465" lon="12.3281231"><ele>459.40000000000003</ele><time>2026-04-04T14:39:11.033Z</time></trkpt><trkpt lat="43.1487138" lon="12.3282322"><ele>456.80000000000007</ele><time>2026-04-04T14:39:13.038Z</time></trkpt><trkpt lat="43.1487883" lon="12.3283469"><ele>454.2</ele><time>2026-04-04T14:39:15.038Z</time></trkpt><trkpt lat="43.1488598" lon="12.3284671"><ele>451.6</ele><time>2026-04-04T14:39:17.037Z</time></trkpt><trkpt lat="43.1489296" lon="12.328568"><ele>449.0</ele><time>2026-04-04T14:39:19.038Z</time></trkpt><trkpt lat="43.1489864" lon="12.3286321"><ele>450.99999999999994</ele><time>2026-04-04T14:39:22.043Z</time></trkpt><trkpt lat="43.1490661" lon="12.3286506"><ele>453.0</ele><time>2026-04-04T14:39:24.04Z</time></trkpt><trkpt lat="43.1491274" lon="12.3286722"><ele>455.0</ele><time>2026-04-04T14:39:25.042Z</time></trkpt><trkpt lat="43.1491901" lon="12.3286928"><ele>457.0</ele><time>2026-04-04T14:39:26.041Z</time></trkpt><trkpt lat="43.1492502" lon="12.3287199"><ele>458.99999999999994</ele><time>2026-04-04T14:39:27.043Z</time></trkpt><trkpt lat="43.1493469" lon="12.3287369"><ele>461.0</ele><time>2026-04-04T14:39:29.047Z</time></trkpt><trkpt lat="43.1494561" lon="12.328706"><ele>461.0</ele><time>2026-04-04T14:39:31.035Z</time></trkpt><trkpt lat="43.1495856" lon="12.3286941"><ele>461.0</ele><time>2026-04-04T14:39:33.042Z</time></trkpt><trkpt lat="43.149653" lon="12.3287078"><ele>461.0</ele><time>2026-04-04T14:39:34.055Z</time></trkpt><trkpt lat="43.1497466" lon="12.3286721"><ele>461.0</ele><time>2026-04-04T14:39:36.04Z</time></trkpt><trkpt lat="43.1498232" lon="12.3286133"><ele>461.0</ele><time>2026-04-04T14:39:38.037Z</time></trkpt><trkpt lat="43.1498789" lon="12.3285438"><ele>461.49999999999994</ele><time>2026-04-04T14:39:39.049Z</time></trkpt><trkpt lat="43.1499286" lon="12.3284813"><ele>462.0</ele><time>2026-04-04T14:39:40.056Z</time></trkpt><trkpt lat="43.1499804" lon="12.3284143"><ele>462.5</ele><time>2026-04-04T14:39:41.051Z</time></trkpt><trkpt lat="43.150048" lon="12.3283285"><ele>463.0</ele><time>2026-04-04T14:39:42.05Z</time></trkpt><trkpt lat="43.1501167" lon="12.3282504"><ele>463.49999999999994</ele><time>2026-04-04T14:39:43.055Z</time></trkpt><trkpt lat="43.150182" lon="12.3281795"><ele>464.0</ele><time>2026-04-04T14:39:44.049Z</time></trkpt><trkpt lat="43.1502269" lon="12.328111"><ele>464.00000000000006</ele><time>2026-04-04T14:39:45.046Z</time></trkpt><trkpt lat="43.1502856" lon="12.3280566"><ele>464.0</ele><time>2026-04-04T14:39:47.038Z</time></trkpt><trkpt lat="43.1503634" lon="12.3280652"><ele>464.00000000000006</ele><time>2026-04-04T14:39:49.053Z</time></trkpt><trkpt lat="43.1504421" lon="12.3280525"><ele>464.00000000000006</ele><time>2026-04-04T14:39:51.047Z</time></trkpt><trkpt lat="43.1505138" lon="12.3280192"><ele>464.0</ele><time>2026-04-04T14:39:53.04Z</time></trkpt><trkpt lat="43.1505834" lon="12.3279967"><ele>464.00000000000006</ele><time>2026-04-04T14:39:55.048Z</time></trkpt><trkpt lat="43.1506427" lon="12.3279667"><ele>464.00000000000006</ele><time>2026-04-04T14:39:57.048Z</time></trkpt><trkpt lat="43.1507051" lon="12.3278931"><ele>463.79999999999995</ele><time>2026-04-04T14:39:59.066Z</time></trkpt><trkpt lat="43.1507594" lon="12.3278293"><ele>463.59999999999997</ele><time>2026-04-04T14:40:01.033Z</time></trkpt><trkpt lat="43.1508406" lon="12.3277934"><ele>463.4</ele><time>2026-04-04T14:40:04.036Z</time></trkpt><trkpt lat="43.150904" lon="12.3277266"><ele>463.2</ele><time>2026-04-04T14:40:06.038Z</time></trkpt><trkpt lat="43.1509783" lon="12.3276501"><ele>463.0</ele><time>2026-04-04T14:40:08.04Z</time></trkpt><trkpt lat="43.1510836" lon="12.327546"><ele>463.00000000000006</ele><time>2026-04-04T14:40:10.045Z</time></trkpt><trkpt lat="43.1511834" lon="12.3275137"><ele>463.0</ele><time>2026-04-04T14:40:12.047Z</time></trkpt><trkpt lat="43.1512827" lon="12.3274946"><ele>463.0</ele><time>2026-04-04T14:40:14.046Z</time></trkpt><trkpt lat="43.1513325" lon="12.3274055"><ele>463.0</ele><time>2026-04-04T14:40:16.048Z</time></trkpt><trkpt lat="43.1513604" lon="12.3272942"><ele>463.00000000000006</ele><time>2026-04-04T14:40:18.043Z</time></trkpt><trkpt lat="43.1513644" lon="12.3271919"><ele>463.0</ele><time>2026-04-04T14:40:19.039Z</time></trkpt><trkpt lat="43.1513787" lon="12.3271048"><ele>462.83333333333337</ele><time>2026-04-04T14:40:20.048Z</time></trkpt><trkpt lat="43.1513882" lon="12.3269966"><ele>462.6666666666667</ele><time>2026-04-04T14:40:22.045Z</time></trkpt><trkpt lat="43.1513757" lon="12.3268902"><ele>462.5</ele><time>2026-04-04T14:40:24.037Z</time></trkpt><trkpt lat="43.1513656" lon="12.3267705"><ele>462.33333333333337</ele><time>2026-04-04T14:40:26.041Z</time></trkpt><trkpt lat="43.1513324" lon="12.3266156"><ele>462.1666666666667</ele><time>2026-04-04T14:40:28.041Z</time></trkpt><trkpt lat="43.1513104" lon="12.3265138"><ele>462.0</ele><time>2026-04-04T14:40:29.043Z</time></trkpt><trkpt lat="43.1512885" lon="12.3264079"><ele>461.8333333333333</ele><time>2026-04-04T14:40:30.046Z</time></trkpt><trkpt lat="43.1512762" lon="12.3262426"><ele>461.66666666666663</ele><time>2026-04-04T14:40:32.036Z</time></trkpt><trkpt lat="43.1512728" lon="12.3261353"><ele>461.5</ele><time>2026-04-04T14:40:33.038Z</time></trkpt><trkpt lat="43.1512701" lon="12.3260285"><ele>461.3333333333333</ele><time>2026-04-04T14:40:34.044Z</time></trkpt><trkpt lat="43.1512825" lon="12.3259233"><ele>461.16666666666663</ele><time>2026-04-04T14:40:35.041Z</time></trkpt><trkpt lat="43.1512846" lon="12.3258292"><ele>461.0</ele><time>2026-04-04T14:40:36.042Z</time></trkpt><trkpt lat="43.1512782" lon="12.3256553"><ele>460.3333333333333</ele><time>2026-04-04T14:40:38.042Z</time></trkpt><trkpt lat="43.1512672" lon="12.3254979"><ele>459.66666666666663</ele><time>2026-04-04T14:40:40.048Z</time></trkpt><trkpt lat="43.1512578" lon="12.3254112"><ele>459.0</ele><time>2026-04-04T14:40:43.044Z</time></trkpt><trkpt lat="43.1512594" lon="12.3253212"><ele>458.33333333333337</ele><time>2026-04-04T14:40:46.05Z</time></trkpt><trkpt lat="43.1512513" lon="12.3252304"><ele>457.6666666666667</ele><time>2026-04-04T14:42:04.056Z</time></trkpt><trkpt lat="43.1511797" lon="12.3251041"><ele>457.0</ele><time>2026-04-04T14:42:07.054Z</time></trkpt><trkpt lat="43.1511085" lon="12.324973"><ele>457.0</ele><time>2026-04-04T14:42:09.049Z</time></trkpt><trkpt lat="43.1510696" lon="12.3249034"><ele>457.00000000000006</ele><time>2026-04-04T14:42:10.059Z</time></trkpt><trkpt lat="43.1509829" lon="12.3247736"><ele>457.00000000000006</ele><time>2026-04-04T14:42:12.064Z</time></trkpt><trkpt lat="43.1509278" lon="12.3247052"><ele>457.0</ele><time>2026-04-04T14:42:13.045Z</time></trkpt><trkpt lat="43.1508719" lon="12.3246404"><ele>457.0</ele><time>2026-04-04T14:42:14.047Z</time></trkpt><trkpt lat="43.1508208" lon="12.3244789"><ele>456.1666666666667</ele><time>2026-04-04T14:42:16.051Z</time></trkpt><trkpt lat="43.1508119" lon="12.3243136"><ele>455.33333333333337</ele><time>2026-04-04T14:42:18.035Z</time></trkpt><trkpt lat="43.1507931" lon="12.3242204"><ele>454.5</ele><time>2026-04-04T14:42:19.065Z</time></trkpt><trkpt lat="43.1507657" lon="12.3241323"><ele>453.66666666666663</ele><time>2026-04-04T14:42:20.052Z</time></trkpt><trkpt lat="43.1507219" lon="12.3240518"><ele>452.8333333333333</ele><time>2026-04-04T14:42:21.052Z</time></trkpt><trkpt lat="43.1506707" lon="12.3239926"><ele>452.0</ele><time>2026-04-04T14:42:22.048Z</time></trkpt><trkpt lat="43.1505426" lon="12.3239702"><ele>454.20000000000005</ele><time>2026-04-04T14:42:24.044Z</time></trkpt><trkpt lat="43.1504516" lon="12.3240235"><ele>456.40000000000003</ele><time>2026-04-04T14:42:26.047Z</time></trkpt><trkpt lat="43.1503492" lon="12.3240218"><ele>458.59999999999997</ele><time>2026-04-04T14:42:28.074Z</time></trkpt><trkpt lat="43.1502306" lon="12.3239575"><ele>460.79999999999995</ele><time>2026-04-04T14:42:30.061Z</time></trkpt><trkpt lat="43.1501681" lon="12.3239412"><ele>463.0</ele><time>2026-04-04T14:42:31.06Z</time></trkpt><trkpt lat="43.1500457" lon="12.3239553"><ele>463.00000000000006</ele><time>2026-04-04T14:42:33.061Z</time></trkpt><trkpt lat="43.1499797" lon="12.323973"><ele>463.0</ele><time>2026-04-04T14:42:34.053Z</time></trkpt><trkpt lat="43.1499008" lon="12.3239862"><ele>463.0</ele><time>2026-04-04T14:42:35.045Z</time></trkpt><trkpt lat="43.1498179" lon="12.3239762"><ele>463.0</ele><time>2026-04-04T14:42:36.05Z</time></trkpt><trkpt lat="43.1497418" lon="12.3239253"><ele>463.00000000000006</ele><time>2026-04-04T14:42:37.045Z</time></trkpt><trkpt lat="43.1496815" lon="12.3238541"><ele>463.0</ele><time>2026-04-04T14:42:38.056Z</time></trkpt><trkpt lat="43.1496211" lon="12.3237893"><ele>463.00000000000006</ele><time>2026-04-04T14:42:39.056Z</time></trkpt><trkpt lat="43.1495582" lon="12.3237363"><ele>463.0</ele><time>2026-04-04T14:42:40.054Z</time></trkpt><trkpt lat="43.1495033" lon="12.32367"><ele>463.0</ele><time>2026-04-04T14:42:42.047Z</time></trkpt><trkpt lat="43.1494885" lon="12.3235642"><ele>463.0</ele><time>2026-04-04T14:42:44.047Z</time></trkpt><trkpt lat="43.1494951" lon="12.3234418"><ele>463.00000000000006</ele><time>2026-04-04T14:42:46.046Z</time></trkpt><trkpt lat="43.1494909" lon="12.3233092"><ele>463.0</ele><time>2026-04-04T14:42:48.049Z</time></trkpt><trkpt lat="43.1494725" lon="12.3231838"><ele>463.0</ele><time>2026-04-04T14:42:50.047Z</time></trkpt><trkpt lat="43.1494935" lon="12.3230798"><ele>462.99999999999994</ele><time>2026-04-04T14:42:52.052Z</time></trkpt><trkpt lat="43.1495396" lon="12.3229629"><ele>462.99999999999994</ele><time>2026-04-04T14:42:54.042Z</time></trkpt><trkpt lat="43.1496128" lon="12.3228629"><ele>463.0</ele><time>2026-04-04T14:42:56.059Z</time></trkpt><trkpt lat="43.1496754" lon="12.3227479"><ele>463.0</ele><time>2026-04-04T14:42:58.051Z</time></trkpt><trkpt lat="43.1497103" lon="12.3226135"><ele>461.79999999999995</ele><time>2026-04-04T14:43:00.06Z</time></trkpt><trkpt lat="43.1497304" lon="12.3224612"><ele>460.59999999999997</ele><time>2026-04-04T14:43:02.047Z</time></trkpt><trkpt lat="43.1497314" lon="12.3223738"><ele>459.40000000000003</ele><time>2026-04-04T14:43:03.048Z</time></trkpt><trkpt lat="43.149741" lon="12.3222368"><ele>458.20000000000005</ele><time>2026-04-04T14:43:05.082Z</time></trkpt><trkpt lat="43.1497038" lon="12.3220903"><ele>457.0</ele><time>2026-04-04T14:43:07.063Z</time></trkpt><trkpt lat="43.1496652" lon="12.3220143"><ele>456.33333333333337</ele><time>2026-04-04T14:43:08.048Z</time></trkpt><trkpt lat="43.1496144" lon="12.3218915"><ele>455.6666666666667</ele><time>2026-04-04T14:43:10.049Z</time></trkpt><trkpt lat="43.1495905" lon="12.3217976"><ele>455.0</ele><time>2026-04-04T14:43:12.049Z</time></trkpt><trkpt lat="43.149578" lon="12.3216904"><ele>454.33333333333337</ele><time>2026-04-04T14:43:15.05Z</time></trkpt><trkpt lat="43.1496119" lon="12.321607"><ele>453.6666666666667</ele><time>2026-04-04T14:43:17.041Z</time></trkpt><trkpt lat="43.1496991" lon="12.3214878"><ele>453.0</ele><time>2026-04-04T14:43:19.049Z</time></trkpt><trkpt lat="43.1497556" lon="12.3214003"><ele>452.4</ele><time>2026-04-04T14:43:20.051Z</time></trkpt><trkpt lat="43.1498123" lon="12.3212781"><ele>451.79999999999995</ele><time>2026-04-04T14:43:21.048Z</time></trkpt><trkpt lat="43.1498801" lon="12.3211493"><ele>451.2</ele><time>2026-04-04T14:43:22.06Z</time></trkpt><trkpt lat="43.1499433" lon="12.3210595"><ele>450.6</ele><time>2026-04-04T14:43:23.038Z</time></trkpt><trkpt lat="43.1499975" lon="12.3209768"><ele>450.0</ele><time>2026-04-04T14:43:24.05Z</time></trkpt><trkpt lat="43.1500557" lon="12.3209091"><ele>450.0</ele><time>2026-04-04T14:43:25.053Z</time></trkpt><trkpt lat="43.1501229" lon="12.3208434"><ele>450.0</ele><time>2026-04-04T14:43:26.054Z</time></trkpt><trkpt lat="43.1501932" lon="12.3207862"><ele>450.0</ele><time>2026-04-04T14:43:27.05Z</time></trkpt><trkpt lat="43.1502646" lon="12.3207317"><ele>450.0</ele><time>2026-04-04T14:43:28.05Z</time></trkpt><trkpt lat="43.1503227" lon="12.3206714"><ele>450.0</ele><time>2026-04-04T14:43:29.051Z</time></trkpt><trkpt lat="43.1503756" lon="12.3206015"><ele>450.0</ele><time>2026-04-04T14:43:30.048Z</time></trkpt><trkpt lat="43.1504242" lon="12.3205308"><ele>450.00000000000006</ele><time>2026-04-04T14:43:31.053Z</time></trkpt><trkpt lat="43.1504753" lon="12.3204566"><ele>450.0</ele><time>2026-04-04T14:43:32.051Z</time></trkpt><trkpt lat="43.1505225" lon="12.3203871"><ele>450.00000000000006</ele><time>2026-04-04T14:43:33.062Z</time></trkpt><trkpt lat="43.150567" lon="12.3203133"><ele>450.00000000000006</ele><time>2026-04-04T14:43:34.045Z</time></trkpt><trkpt lat="43.1506004" lon="12.3202275"><ele>450.0</ele><time>2026-04-04T14:43:35.053Z</time></trkpt><trkpt lat="43.1506357" lon="12.3201491"><ele>450.00000000000006</ele><time>2026-04-04T14:43:36.047Z</time></trkpt><trkpt lat="43.150669" lon="12.3200758"><ele>450.00000000000006</ele><time>2026-04-04T14:43:37.042Z</time></trkpt><trkpt lat="43.1507122" lon="12.3200124"><ele>450.4</ele><time>2026-04-04T14:43:38.044Z</time></trkpt><trkpt lat="43.1508154" lon="12.3199345"><ele>450.8</ele><time>2026-04-04T14:43:40.06Z</time></trkpt><trkpt lat="43.1509369" lon="12.319936"><ele>451.20000000000005</ele><time>2026-04-04T14:43:42.065Z</time></trkpt><trkpt lat="43.1510009" lon="12.3199561"><ele>451.6</ele><time>2026-04-04T14:43:43.045Z</time></trkpt><trkpt lat="43.1510628" lon="12.3199782"><ele>452.0</ele><time>2026-04-04T14:43:44.058Z</time></trkpt><trkpt lat="43.1511849" lon="12.32"><ele>452.0</ele><time>2026-04-04T14:43:46.047Z</time></trkpt><trkpt lat="43.1512529" lon="12.3200005"><ele>452.0</ele><time>2026-04-04T14:43:47.047Z</time></trkpt><trkpt lat="43.1513221" lon="12.3200068"><ele>452.0</ele><time>2026-04-04T14:43:48.045Z</time></trkpt><trkpt lat="43.1513889" lon="12.3200178"><ele>452.0</ele><time>2026-04-04T14:43:49.049Z</time></trkpt><trkpt lat="43.1514559" lon="12.3200245"><ele>452.0</ele><time>2026-04-04T14:43:50.053Z</time></trkpt><trkpt lat="43.1515205" lon="12.3200331"><ele>452.0</ele><time>2026-04-04T14:43:51.062Z</time></trkpt><trkpt lat="43.1515898" lon="12.3200553"><ele>452.0</ele><time>2026-04-04T14:43:52.041Z</time></trkpt><trkpt lat="43.1516579" lon="12.3200825"><ele>450.14285714285717</ele><time>2026-04-04T14:43:53.049Z</time></trkpt><trkpt lat="43.1517319" lon="12.3201079"><ele>448.2857142857143</ele><time>2026-04-04T14:43:54.044Z</time></trkpt><trkpt lat="43.1518023" lon="12.3201474"><ele>446.42857142857144</ele><time>2026-04-04T14:43:55.041Z</time></trkpt><trkpt lat="43.1518688" lon="12.3201912"><ele>444.57142857142856</ele><time>2026-04-04T14:43:56.053Z</time></trkpt><trkpt lat="43.151934" lon="12.3202312"><ele>442.71428571428567</ele><time>2026-04-04T14:43:57.076Z</time></trkpt><trkpt lat="43.1520004" lon="12.3202515"><ele>440.85714285714283</ele><time>2026-04-04T14:43:58.052Z</time></trkpt><trkpt lat="43.1520713" lon="12.3202415"><ele>439.0</ele><time>2026-04-04T14:43:59.048Z</time></trkpt><trkpt lat="43.152135" lon="12.3202176"><ele>439.00000000000006</ele><time>2026-04-04T14:44:00.051Z</time></trkpt><trkpt lat="43.1522128" lon="12.3202052"><ele>439.0</ele><time>2026-04-04T14:44:01.042Z</time></trkpt><trkpt lat="43.1522939" lon="12.3201882"><ele>439.0</ele><time>2026-04-04T14:44:02.054Z</time></trkpt><trkpt lat="43.152373" lon="12.3201842"><ele>439.0</ele><time>2026-04-04T14:44:03.043Z</time></trkpt><trkpt lat="43.15246" lon="12.3201898"><ele>439.00000000000006</ele><time>2026-04-04T14:44:04.048Z</time></trkpt><trkpt lat="43.1525377" lon="12.3201847"><ele>439.0</ele><time>2026-04-04T14:44:05.056Z</time></trkpt><trkpt lat="43.1526197" lon="12.3201868"><ele>437.1666666666667</ele><time>2026-04-04T14:44:06.042Z</time></trkpt><trkpt lat="43.1526964" lon="12.3201817"><ele>435.33333333333337</ele><time>2026-04-04T14:44:07.051Z</time></trkpt><trkpt lat="43.1527694" lon="12.3201768"><ele>433.5</ele><time>2026-04-04T14:44:08.052Z</time></trkpt><trkpt lat="43.1528337" lon="12.3201757"><ele>431.66666666666663</ele><time>2026-04-04T14:44:09.056Z</time></trkpt><trkpt lat="43.1529484" lon="12.3201907"><ele>429.8333333333333</ele><time>2026-04-04T14:44:11.05Z</time></trkpt><trkpt lat="43.1530439" lon="12.3202081"><ele>428.0</ele><time>2026-04-04T14:44:13.061Z</time></trkpt><trkpt lat="43.1531273" lon="12.320225"><ele>425.79999999999995</ele><time>2026-04-04T14:44:15.055Z</time></trkpt><trkpt lat="43.153211" lon="12.3202668"><ele>423.59999999999997</ele><time>2026-04-04T14:44:17.039Z</time></trkpt><trkpt lat="43.1532914" lon="12.3203574"><ele>421.4</ele><time>2026-04-04T14:44:19.049Z</time></trkpt><trkpt lat="43.1533808" lon="12.3204771"><ele>419.20000000000005</ele><time>2026-04-04T14:44:21.051Z</time></trkpt><trkpt lat="43.1534677" lon="12.3205927"><ele>417.0</ele><time>2026-04-04T14:44:23.049Z</time></trkpt><trkpt lat="43.1535289" lon="12.320697"><ele>417.0</ele><time>2026-04-04T14:44:25.05Z</time></trkpt><trkpt lat="43.1536073" lon="12.3207569"><ele>417.0</ele><time>2026-04-04T14:44:27.052Z</time></trkpt><trkpt lat="43.1537009" lon="12.3207016"><ele>417.0</ele><time>2026-04-04T14:44:29.04Z</time></trkpt><trkpt lat="43.1537584" lon="12.3205782"><ele>417.0</ele><time>2026-04-04T14:44:31.04Z</time></trkpt><trkpt lat="43.153778" lon="12.3204895"><ele>417.0</ele><time>2026-04-04T14:44:32.043Z</time></trkpt><trkpt lat="43.1537974" lon="12.3203937"><ele>417.0</ele><time>2026-04-04T14:44:33.041Z</time></trkpt><trkpt lat="43.1538106" lon="12.3202836"><ele>416.6</ele><time>2026-04-04T14:44:34.052Z</time></trkpt><trkpt lat="43.1538278" lon="12.3201823"><ele>416.20000000000005</ele><time>2026-04-04T14:44:35.055Z</time></trkpt><trkpt lat="43.1538343" lon="12.3200786"><ele>415.8</ele><time>2026-04-04T14:44:36.038Z</time></trkpt><trkpt lat="43.1538482" lon="12.3199243"><ele>415.4</ele><time>2026-04-04T14:44:38.044Z</time></trkpt><trkpt lat="43.1539081" lon="12.3198266"><ele>415.0</ele><time>2026-04-04T14:44:40.046Z</time></trkpt><trkpt lat="43.1540141" lon="12.3197604"><ele>411.2</ele><time>2026-04-04T14:44:42.051Z</time></trkpt><trkpt lat="43.1541181" lon="12.3196849"><ele>407.4</ele><time>2026-04-04T14:44:44.041Z</time></trkpt><trkpt lat="43.1541958" lon="12.3195957"><ele>403.6</ele><time>2026-04-04T14:44:46.048Z</time></trkpt><trkpt lat="43.1542553" lon="12.319549"><ele>399.8</ele><time>2026-04-04T14:44:48.035Z</time></trkpt><trkpt lat="43.1543311" lon="12.3195484"><ele>396.0</ele><time>2026-04-04T14:44:51.044Z</time></trkpt><trkpt lat="43.1542706" lon="12.319636"><ele>396.5</ele><time>2026-04-04T14:45:02.057Z</time></trkpt><trkpt lat="43.1542431" lon="12.3197476"><ele>397.0</ele><time>2026-04-04T14:45:04.052Z</time></trkpt><trkpt lat="43.154232" lon="12.3198421"><ele>397.5</ele><time>2026-04-04T14:45:05.055Z</time></trkpt><trkpt lat="43.1542315" lon="12.3199565"><ele>398.0</ele><time>2026-04-04T14:45:06.046Z</time></trkpt><trkpt lat="43.1542284" lon="12.3200768"><ele>398.5</ele><time>2026-04-04T14:45:07.055Z</time></trkpt><trkpt lat="43.15423" lon="12.3201915"><ele>399.0</ele><time>2026-04-04T14:45:08.046Z</time></trkpt><trkpt lat="43.1542301" lon="12.3203003"><ele>399.0</ele><time>2026-04-04T14:45:09.047Z</time></trkpt><trkpt lat="43.1542282" lon="12.3204173"><ele>399.0</ele><time>2026-04-04T14:45:10.052Z</time></trkpt><trkpt lat="43.1542353" lon="12.3205258"><ele>399.0</ele><time>2026-04-04T14:45:11.048Z</time></trkpt><trkpt lat="43.1542448" lon="12.3206378"><ele>399.0</ele><time>2026-04-04T14:45:12.057Z</time></trkpt><trkpt lat="43.1542493" lon="12.320758"><ele>399.0</ele><time>2026-04-04T14:45:13.056Z</time></trkpt><trkpt lat="43.1542491" lon="12.320871"><ele>399.0</ele><time>2026-04-04T14:45:14.054Z</time></trkpt><trkpt lat="43.1542469" lon="12.3209737"><ele>399.3333333333333</ele><time>2026-04-04T14:45:15.054Z</time></trkpt><trkpt lat="43.1542409" lon="12.3210843"><ele>399.66666666666663</ele><time>2026-04-04T14:45:16.046Z</time></trkpt><trkpt lat="43.1542344" lon="12.3211853"><ele>400.0</ele><time>2026-04-04T14:45:17.049Z</time></trkpt><trkpt lat="43.154217" lon="12.3212928"><ele>400.3333333333333</ele><time>2026-04-04T14:45:18.048Z</time></trkpt><trkpt lat="43.1541955" lon="12.3213978"><ele>400.66666666666663</ele><time>2026-04-04T14:45:19.035Z</time></trkpt><trkpt lat="43.1541745" lon="12.3214911"><ele>401.0</ele><time>2026-04-04T14:45:20.045Z</time></trkpt><trkpt lat="43.1541465" lon="12.3216351"><ele>401.20000000000005</ele><time>2026-04-04T14:45:22.056Z</time></trkpt><trkpt lat="43.154143" lon="12.3217557"><ele>401.40000000000003</ele><time>2026-04-04T14:45:24.046Z</time></trkpt><trkpt lat="43.1541569" lon="12.3218851"><ele>401.6</ele><time>2026-04-04T14:45:26.081Z</time></trkpt><trkpt lat="43.154157" lon="12.3220156"><ele>401.8</ele><time>2026-04-04T14:45:28.053Z</time></trkpt><trkpt lat="43.1541824" lon="12.3221515"><ele>402.0</ele><time>2026-04-04T14:45:30.063Z</time></trkpt><trkpt lat="43.1542506" lon="12.3222856"><ele>401.3333333333333</ele><time>2026-04-04T14:45:32.049Z</time></trkpt><trkpt lat="43.1542931" lon="12.3223596"><ele>400.66666666666663</ele><time>2026-04-04T14:45:33.056Z</time></trkpt><trkpt lat="43.154362" lon="12.3224928"><ele>400.0</ele><time>2026-04-04T14:45:35.059Z</time></trkpt><trkpt lat="43.1544207" lon="12.3226256"><ele>399.3333333333333</ele><time>2026-04-04T14:45:37.056Z</time></trkpt><trkpt lat="43.1544479" lon="12.3227096"><ele>398.66666666666663</ele><time>2026-04-04T14:45:38.057Z</time></trkpt><trkpt lat="43.1544782" lon="12.322801"><ele>398.0</ele><time>2026-04-04T14:45:39.088Z</time></trkpt><trkpt lat="43.1544974" lon="12.3228833"><ele>398.0</ele><time>2026-04-04T14:45:40.05Z</time></trkpt><trkpt lat="43.154541" lon="12.3230261"><ele>398.0</ele><time>2026-04-04T14:45:42.058Z</time></trkpt><trkpt lat="43.1545812" lon="12.3231109"><ele>398.0</ele><time>2026-04-04T14:45:43.047Z</time></trkpt><trkpt lat="43.154633" lon="12.323203"><ele>398.0</ele><time>2026-04-04T14:45:44.045Z</time></trkpt><trkpt lat="43.1546812" lon="12.3233132"><ele>398.0</ele><time>2026-04-04T14:45:45.051Z</time></trkpt><trkpt lat="43.1547348" lon="12.3234276"><ele>397.16666666666663</ele><time>2026-04-04T14:45:46.039Z</time></trkpt><trkpt lat="43.1547774" lon="12.3235385"><ele>396.3333333333333</ele><time>2026-04-04T14:45:47.058Z</time></trkpt><trkpt lat="43.1548132" lon="12.323635"><ele>395.5</ele><time>2026-04-04T14:45:48.052Z</time></trkpt><trkpt lat="43.1548494" lon="12.3237336"><ele>394.66666666666663</ele><time>2026-04-04T14:45:49.046Z</time></trkpt><trkpt lat="43.1549027" lon="12.3238357"><ele>393.8333333333333</ele><time>2026-04-04T14:45:50.044Z</time></trkpt><trkpt lat="43.154963" lon="12.3239254"><ele>393.0</ele><time>2026-04-04T14:45:51.054Z</time></trkpt><trkpt lat="43.1550085" lon="12.3240114"><ele>392.3333333333333</ele><time>2026-04-04T14:45:52.074Z</time></trkpt><trkpt lat="43.1550344" lon="12.3240917"><ele>391.66666666666663</ele><time>2026-04-04T14:45:53.045Z</time></trkpt><trkpt lat="43.1550441" lon="12.3241772"><ele>391.0</ele><time>2026-04-04T14:45:54.046Z</time></trkpt><trkpt lat="43.1549691" lon="12.3243023"><ele>390.3333333333333</ele><time>2026-04-04T14:45:56.043Z</time></trkpt><trkpt lat="43.1548885" lon="12.3244285"><ele>389.66666666666663</ele><time>2026-04-04T14:45:58.045Z</time></trkpt><trkpt lat="43.1548217" lon="12.3244662"><ele>389.0</ele><time>2026-04-04T14:45:59.05Z</time></trkpt><trkpt lat="43.154736" lon="12.3244892"><ele>388.8333333333333</ele><time>2026-04-04T14:46:00.047Z</time></trkpt><trkpt lat="43.1546491" lon="12.3245022"><ele>388.66666666666663</ele><time>2026-04-04T14:46:01.058Z</time></trkpt><trkpt lat="43.1545681" lon="12.3245045"><ele>388.5</ele><time>2026-04-04T14:46:02.05Z</time></trkpt><trkpt lat="43.154487" lon="12.3245162"><ele>388.33333333333337</ele><time>2026-04-04T14:46:03.062Z</time></trkpt><trkpt lat="43.1544093" lon="12.3245317"><ele>388.1666666666667</ele><time>2026-04-04T14:46:04.057Z</time></trkpt><trkpt lat="43.1542996" lon="12.3245874"><ele>388.0</ele><time>2026-04-04T14:46:06.043Z</time></trkpt><trkpt lat="43.1542481" lon="12.3246547"><ele>388.00000000000006</ele><time>2026-04-04T14:46:07.048Z</time></trkpt><trkpt lat="43.154189" lon="12.324735"><ele>388.0</ele><time>2026-04-04T14:46:08.052Z</time></trkpt><trkpt lat="43.1541274" lon="12.3248202"><ele>388.0</ele><time>2026-04-04T14:46:09.05Z</time></trkpt><trkpt lat="43.1540715" lon="12.3249056"><ele>388.0</ele><time>2026-04-04T14:46:10.041Z</time></trkpt><trkpt lat="43.154019" lon="12.3249966"><ele>388.00000000000006</ele><time>2026-04-04T14:46:11.05Z</time></trkpt><trkpt lat="43.1539699" lon="12.3251026"><ele>388.0</ele><time>2026-04-04T14:46:12.054Z</time></trkpt><trkpt lat="43.1539455" lon="12.3251846"><ele>389.83333333333337</ele><time>2026-04-04T14:46:13.035Z</time></trkpt><trkpt lat="43.1539509" lon="12.3253447"><ele>391.6666666666667</ele><time>2026-04-04T14:46:15.046Z</time></trkpt><trkpt lat="43.1539712" lon="12.325431"><ele>393.5</ele><time>2026-04-04T14:46:16.051Z</time></trkpt><trkpt lat="43.1540249" lon="12.3255009"><ele>395.33333333333337</ele><time>2026-04-04T14:46:17.076Z</time></trkpt><trkpt lat="43.1540661" lon="12.3255674"><ele>397.1666666666667</ele><time>2026-04-04T14:46:18.043Z</time></trkpt><trkpt lat="43.1540991" lon="12.325646"><ele>399.0</ele><time>2026-04-04T14:46:19.051Z</time></trkpt><trkpt lat="43.1541356" lon="12.3257344"><ele>399.0</ele><time>2026-04-04T14:46:20.054Z</time></trkpt><trkpt lat="43.1541746" lon="12.3258149"><ele>399.0</ele><time>2026-04-04T14:46:21.055Z</time></trkpt><trkpt lat="43.1542143" lon="12.3258961"><ele>399.0</ele><time>2026-04-04T14:46:22.044Z</time></trkpt><trkpt lat="43.1542483" lon="12.3259757"><ele>399.0</ele><time>2026-04-04T14:46:23.05Z</time></trkpt><trkpt lat="43.1543129" lon="12.3260981"><ele>399.0</ele><time>2026-04-04T14:46:25.044Z</time></trkpt><trkpt lat="43.1543974" lon="12.3261784"><ele>399.0</ele><time>2026-04-04T14:46:27.049Z</time></trkpt><trkpt lat="43.154462" lon="12.3262225"><ele>399.0</ele><time>2026-04-04T14:46:29.05Z</time></trkpt><trkpt lat="43.1545174" lon="12.3262758"><ele>399.0</ele><time>2026-04-04T14:46:31.052Z</time></trkpt><trkpt lat="43.154555" lon="12.3263512"><ele>399.0</ele><time>2026-04-04T14:46:33.049Z</time></trkpt><trkpt lat="43.154607" lon="12.3264603"><ele>399.0</ele><time>2026-04-04T14:46:35.044Z</time></trkpt><trkpt lat="43.1546456" lon="12.3265882"><ele>399.0</ele><time>2026-04-04T14:46:37.055Z</time></trkpt><trkpt lat="43.1546629" lon="12.3267198"><ele>399.0</ele><time>2026-04-04T14:46:39.054Z</time></trkpt><trkpt lat="43.1546564" lon="12.3268638"><ele>401.1666666666667</ele><time>2026-04-04T14:46:41.047Z</time></trkpt><trkpt lat="43.1546662" lon="12.3269589"><ele>403.33333333333337</ele><time>2026-04-04T14:46:43.055Z</time></trkpt><trkpt lat="43.1545912" lon="12.3270261"><ele>405.5</ele><time>2026-04-04T14:48:02.062Z</time></trkpt><trkpt lat="43.154508" lon="12.3270064"><ele>407.6666666666667</ele><time>2026-04-04T14:48:04.054Z</time></trkpt><trkpt lat="43.1544149" lon="12.32698"><ele>409.83333333333337</ele><time>2026-04-04T14:48:06.056Z</time></trkpt><trkpt lat="43.154309" lon="12.3269537"><ele>412.0</ele><time>2026-04-04T14:48:08.059Z</time></trkpt><trkpt lat="43.1542155" lon="12.3269289"><ele>412.00000000000006</ele><time>2026-04-04T14:48:10.054Z</time></trkpt><trkpt lat="43.1541383" lon="12.3269413"><ele>412.0</ele><time>2026-04-04T14:48:12.054Z</time></trkpt><trkpt lat="43.1540796" lon="12.3268979"><ele>412.0</ele><time>2026-04-04T14:48:14.064Z</time></trkpt><trkpt lat="43.1540182" lon="12.3267999"><ele>412.0</ele><time>2026-04-04T14:48:17.054Z</time></trkpt><trkpt lat="43.1539414" lon="12.326719"><ele>412.00000000000006</ele><time>2026-04-04T14:48:19.072Z</time></trkpt><trkpt lat="43.153879" lon="12.3266474"><ele>412.0</ele><time>2026-04-04T14:48:21.058Z</time></trkpt><trkpt lat="43.1537868" lon="12.326596"><ele>412.20000000000005</ele><time>2026-04-04T14:48:23.045Z</time></trkpt><trkpt lat="43.1537001" lon="12.3265205"><ele>412.4</ele><time>2026-04-04T14:48:25.05Z</time></trkpt><trkpt lat="43.1536065" lon="12.3264498"><ele>412.6</ele><time>2026-04-04T14:48:27.067Z</time></trkpt><trkpt lat="43.1535158" lon="12.3263715"><ele>412.79999999999995</ele><time>2026-04-04T14:48:29.042Z</time></trkpt><trkpt lat="43.153396" lon="12.3263151"><ele>413.0</ele><time>2026-04-04T14:48:31.051Z</time></trkpt><trkpt lat="43.1532834" lon="12.3262647"><ele>415.3333333333333</ele><time>2026-04-04T14:48:33.052Z</time></trkpt><trkpt lat="43.1531866" lon="12.3262223"><ele>417.66666666666663</ele><time>2026-04-04T14:48:35.052Z</time></trkpt><trkpt lat="43.1530898" lon="12.3261655"><ele>420.0</ele><time>2026-04-04T14:48:37.05Z</time></trkpt><trkpt lat="43.1530162" lon="12.3260839"><ele>422.33333333333337</ele><time>2026-04-04T14:48:39.045Z</time></trkpt><trkpt lat="43.1529767" lon="12.3260046"><ele>424.6666666666667</ele><time>2026-04-04T14:48:41.036Z</time></trkpt><trkpt lat="43.1529205" lon="12.32595"><ele>427.0</ele><time>2026-04-04T14:48:44.043Z</time></trkpt><trkpt lat="43.1529202" lon="12.3258349"><ele>427.0</ele><time>2026-04-04T14:50:43.056Z</time></trkpt><trkpt lat="43.1528976" lon="12.3256962"><ele>427.00000000000006</ele><time>2026-04-04T14:50:45.053Z</time></trkpt><trkpt lat="43.152849" lon="12.3255469"><ele>427.00000000000006</ele><time>2026-04-04T14:50:47.065Z</time></trkpt><trkpt lat="43.1528268" lon="12.3253701"><ele>427.0</ele><time>2026-04-04T14:50:49.057Z</time></trkpt><trkpt lat="43.1528308" lon="12.3252544"><ele>427.0</ele><time>2026-04-04T14:50:50.052Z</time></trkpt><trkpt lat="43.1528415" lon="12.3251328"><ele>426.33333333333337</ele><time>2026-04-04T14:50:51.064Z</time></trkpt><trkpt lat="43.1528433" lon="12.3250106"><ele>425.6666666666667</ele><time>2026-04-04T14:50:52.051Z</time></trkpt><trkpt lat="43.1528384" lon="12.3248965"><ele>425.0</ele><time>2026-04-04T14:50:53.05Z</time></trkpt><trkpt lat="43.1528246" lon="12.3247793"><ele>424.33333333333337</ele><time>2026-04-04T14:50:54.055Z</time></trkpt><trkpt lat="43.1528169" lon="12.3246875"><ele>423.6666666666667</ele><time>2026-04-04T14:50:55.057Z</time></trkpt><trkpt lat="43.1528089" lon="12.3245424"><ele>423.0</ele><time>2026-04-04T14:50:57.049Z</time></trkpt><trkpt lat="43.1528222" lon="12.3244444"><ele>421.59999999999997</ele><time>2026-04-04T14:50:59.073Z</time></trkpt><trkpt lat="43.1528422" lon="12.3243391"><ele>420.2</ele><time>2026-04-04T14:51:01.041Z</time></trkpt><trkpt lat="43.152811" lon="12.3242011"><ele>418.8</ele><time>2026-04-04T14:51:04.047Z</time></trkpt><trkpt lat="43.1527616" lon="12.3240846"><ele>417.4</ele><time>2026-04-04T14:51:06.058Z</time></trkpt><trkpt lat="43.1526957" lon="12.3239448"><ele>416.0</ele><time>2026-04-04T14:51:08.066Z</time></trkpt><trkpt lat="43.1526223" lon="12.3238103"><ele>414.4</ele><time>2026-04-04T14:51:10.044Z</time></trkpt><trkpt lat="43.1525759" lon="12.3237334"><ele>412.8</ele><time>2026-04-04T14:51:11.054Z</time></trkpt><trkpt lat="43.152514" lon="12.3235947"><ele>411.2</ele><time>2026-04-04T14:51:13.066Z</time></trkpt><trkpt lat="43.1524534" lon="12.3234434"><ele>409.59999999999997</ele><time>2026-04-04T14:51:15.047Z</time></trkpt><trkpt lat="43.1524214" lon="12.3233573"><ele>408.0</ele><time>2026-04-04T14:51:16.058Z</time></trkpt><trkpt lat="43.1523843" lon="12.323273"><ele>408.5</ele><time>2026-04-04T14:51:17.077Z</time></trkpt><trkpt lat="43.1523512" lon="12.3231874"><ele>409.0</ele><time>2026-04-04T14:51:18.049Z</time></trkpt><trkpt lat="43.1523301" lon="12.3231009"><ele>409.5</ele><time>2026-04-04T14:51:19.063Z</time></trkpt><trkpt lat="43.1523101" lon="12.3230102"><ele>410.0</ele><time>2026-04-04T14:51:20.044Z</time></trkpt><trkpt lat="43.1523343" lon="12.3229279"><ele>410.5</ele><time>2026-04-04T14:51:21.081Z</time></trkpt><trkpt lat="43.1524368" lon="12.3228436"><ele>411.0</ele><time>2026-04-04T14:51:23.053Z</time></trkpt><trkpt lat="43.1524998" lon="12.3228113"><ele>411.0</ele><time>2026-04-04T14:51:24.056Z</time></trkpt><trkpt lat="43.1525888" lon="12.3227636"><ele>411.0</ele><time>2026-04-04T14:51:25.044Z</time></trkpt><trkpt lat="43.1526806" lon="12.3227192"><ele>411.0</ele><time>2026-04-04T14:51:26.042Z</time></trkpt><trkpt lat="43.1527852" lon="12.3226543"><ele>411.0</ele><time>2026-04-04T14:51:27.067Z</time></trkpt><trkpt lat="43.1528861" lon="12.3226089"><ele>411.0</ele><time>2026-04-04T14:51:28.052Z</time></trkpt><trkpt lat="43.1529802" lon="12.3225888"><ele>411.0</ele><time>2026-04-04T14:51:29.049Z</time></trkpt><trkpt lat="43.1530684" lon="12.3225488"><ele>411.0</ele><time>2026-04-04T14:51:30.042Z</time></trkpt><trkpt lat="43.1531567" lon="12.3225026"><ele>411.0</ele><time>2026-04-04T14:51:31.045Z</time></trkpt><trkpt lat="43.1532324" lon="12.3224523"><ele>411.0</ele><time>2026-04-04T14:51:32.054Z</time></trkpt><trkpt lat="43.1533105" lon="12.3224047"><ele>411.0</ele><time>2026-04-04T14:51:33.056Z</time></trkpt><trkpt lat="43.1533931" lon="12.3223537"><ele>411.0</ele><time>2026-04-04T14:51:34.063Z</time></trkpt><trkpt lat="43.1534779" lon="12.3223005"><ele>411.1666666666667</ele><time>2026-04-04T14:51:35.056Z</time></trkpt><trkpt lat="43.153559" lon="12.3222364"><ele>411.33333333333337</ele><time>2026-04-04T14:51:36.058Z</time></trkpt><trkpt lat="43.1536392" lon="12.3221677"><ele>411.5</ele><time>2026-04-04T14:51:37.061Z</time></trkpt><trkpt lat="43.1537131" lon="12.3221036"><ele>411.6666666666667</ele><time>2026-04-04T14:51:38.052Z</time></trkpt><trkpt lat="43.1537835" lon="12.322051"><ele>411.83333333333337</ele><time>2026-04-04T14:51:39.055Z</time></trkpt><trkpt lat="43.1538515" lon="12.3219895"><ele>412.0</ele><time>2026-04-04T14:51:40.057Z</time></trkpt><trkpt lat="43.153917" lon="12.3219068"><ele>412.00000000000006</ele><time>2026-04-04T14:51:41.063Z</time></trkpt><trkpt lat="43.153983" lon="12.3218253"><ele>412.0</ele><time>2026-04-04T14:51:42.061Z</time></trkpt><trkpt lat="43.1540342" lon="12.3217378"><ele>412.0</ele><time>2026-04-04T14:51:43.057Z</time></trkpt><trkpt lat="43.1540884" lon="12.3216666"><ele>412.0</ele><time>2026-04-04T14:51:44.05Z</time></trkpt><trkpt lat="43.1541471" lon="12.3215593"><ele>412.00000000000006</ele><time>2026-04-04T14:51:46.046Z</time></trkpt><trkpt lat="43.1541915" lon="12.3214351"><ele>412.0</ele><time>2026-04-04T14:51:48.045Z</time></trkpt><trkpt lat="43.1542267" lon="12.3213108"><ele>409.8</ele><time>2026-04-04T14:51:50.053Z</time></trkpt><trkpt lat="43.1542547" lon="12.321174"><ele>407.6</ele><time>2026-04-04T14:51:52.05Z</time></trkpt><trkpt lat="43.1542769" lon="12.3210228"><ele>405.40000000000003</ele><time>2026-04-04T14:51:54.046Z</time></trkpt><trkpt lat="43.1542955" lon="12.3208621"><ele>403.20000000000005</ele><time>2026-04-04T14:51:56.063Z</time></trkpt><trkpt lat="43.1542995" lon="12.3207052"><ele>401.0</ele><time>2026-04-04T14:51:58.052Z</time></trkpt><trkpt lat="43.1542991" lon="12.3205428"><ele>400.7142857142857</ele><time>2026-04-04T14:52:00.05Z</time></trkpt><trkpt lat="43.1542955" lon="12.3204548"><ele>400.42857142857144</ele><time>2026-04-04T14:52:01.058Z</time></trkpt><trkpt lat="43.1542816" lon="12.3203561"><ele>400.1428571428571</ele><time>2026-04-04T14:52:02.047Z</time></trkpt><trkpt lat="43.1542781" lon="12.3202622"><ele>399.8571428571429</ele><time>2026-04-04T14:52:03.061Z</time></trkpt><trkpt lat="43.1542726" lon="12.3201694"><ele>399.57142857142856</ele><time>2026-04-04T14:52:04.067Z</time></trkpt><trkpt lat="43.1542635" lon="12.3200742"><ele>399.2857142857143</ele><time>2026-04-04T14:52:05.057Z</time></trkpt><trkpt lat="43.1542569" lon="12.3199867"><ele>399.0</ele><time>2026-04-04T14:52:06.058Z</time></trkpt><trkpt lat="43.1542632" lon="12.3198319"><ele>398.5</ele><time>2026-04-04T14:52:08.049Z</time></trkpt><trkpt lat="43.1542618" lon="12.3196741"><ele>398.0</ele><time>2026-04-04T14:52:10.038Z</time></trkpt><trkpt lat="43.1542681" lon="12.3195755"><ele>397.5</ele><time>2026-04-04T14:52:12.047Z</time></trkpt><trkpt lat="43.1542815" lon="12.3194605"><ele>397.0</ele><time>2026-04-04T14:52:15.041Z</time></trkpt><trkpt lat="43.1543171" lon="12.319384"><ele>396.5</ele><time>2026-04-04T14:52:17.045Z</time></trkpt><trkpt lat="43.1543774" lon="12.3192998"><ele>396.0</ele><time>2026-04-04T14:52:19.05Z</time></trkpt><trkpt lat="43.1544032" lon="12.3191775"><ele>396.0</ele><time>2026-04-04T14:52:21.039Z</time></trkpt><trkpt lat="43.1543936" lon="12.3190279"><ele>396.0</ele><time>2026-04-04T14:52:23.065Z</time></trkpt><trkpt lat="43.1543722" lon="12.31887"><ele>396.0</ele><time>2026-04-04T14:52:25.05Z</time></trkpt><trkpt lat="43.154346" lon="12.318718"><ele>396.0</ele><time>2026-04-04T14:52:27.049Z</time></trkpt><trkpt lat="43.1543342" lon="12.3186259"><ele>396.0</ele><time>2026-04-04T14:52:28.05Z</time></trkpt><trkpt lat="43.1543276" lon="12.3185349"><ele>395.0</ele><time>2026-04-04T14:52:29.051Z</time></trkpt><trkpt lat="43.1543372" lon="12.3184483"><ele>394.0</ele><time>2026-04-04T14:52:30.042Z</time></trkpt><trkpt lat="43.1543506" lon="12.3183608"><ele>393.0</ele><time>2026-04-04T14:52:31.052Z</time></trkpt><trkpt lat="43.1543674" lon="12.3182744"><ele>392.0</ele><time>2026-04-04T14:52:32.045Z</time></trkpt><trkpt lat="43.1544097" lon="12.3181045"><ele>391.0</ele><time>2026-04-04T14:52:34.035Z</time></trkpt><trkpt lat="43.154432" lon="12.3180004"><ele>390.0</ele><time>2026-04-04T14:52:35.034Z</time></trkpt><trkpt lat="43.1544486" lon="12.3178957"><ele>389.5</ele><time>2026-04-04T14:52:36.044Z</time></trkpt><trkpt lat="43.1544593" lon="12.3177724"><ele>389.0</ele><time>2026-04-04T14:52:37.048Z</time></trkpt><trkpt lat="43.1544733" lon="12.3176525"><ele>388.5</ele><time>2026-04-04T14:52:38.039Z</time></trkpt><trkpt lat="43.154504" lon="12.3175414"><ele>388.0</ele><time>2026-04-04T14:52:39.046Z</time></trkpt><trkpt lat="43.1545392" lon="12.3174327"><ele>387.5</ele><time>2026-04-04T14:52:40.035Z</time></trkpt><trkpt lat="43.1545814" lon="12.3173313"><ele>387.0</ele><time>2026-04-04T14:52:41.039Z</time></trkpt><trkpt lat="43.1546218" lon="12.3172261"><ele>386.5</ele><time>2026-04-04T14:52:42.038Z</time></trkpt><trkpt lat="43.1546594" lon="12.3171193"><ele>386.0</ele><time>2026-04-04T14:52:43.042Z</time></trkpt><trkpt lat="43.1546971" lon="12.3170252"><ele>385.5</ele><time>2026-04-04T14:52:44.041Z</time></trkpt><trkpt lat="43.1547357" lon="12.3169497"><ele>385.0</ele><time>2026-04-04T14:52:45.049Z</time></trkpt><trkpt lat="43.1547808" lon="12.3168733"><ele>384.5</ele><time>2026-04-04T14:52:46.037Z</time></trkpt><trkpt lat="43.1548724" lon="12.3167775"><ele>384.0</ele><time>2026-04-04T14:52:48.048Z</time></trkpt><trkpt lat="43.154972" lon="12.316701"><ele>381.8333333333333</ele><time>2026-04-04T14:52:50.041Z</time></trkpt><trkpt lat="43.1550788" lon="12.3166668"><ele>379.6666666666667</ele><time>2026-04-04T14:52:52.043Z</time></trkpt><trkpt lat="43.1551488" lon="12.316671"><ele>377.5</ele><time>2026-04-04T14:52:53.049Z</time></trkpt><trkpt lat="43.1552262" lon="12.3166616"><ele>375.33333333333337</ele><time>2026-04-04T14:52:54.05Z</time></trkpt><trkpt lat="43.1553095" lon="12.3166483"><ele>373.1666666666667</ele><time>2026-04-04T14:52:55.051Z</time></trkpt><trkpt lat="43.1553879" lon="12.3166397"><ele>371.0</ele><time>2026-04-04T14:52:56.043Z</time></trkpt><trkpt lat="43.1554562" lon="12.316636"><ele>371.0</ele><time>2026-04-04T14:52:57.05Z</time></trkpt><trkpt lat="43.1555748" lon="12.3166441"><ele>371.0</ele><time>2026-04-04T14:52:59.043Z</time></trkpt><trkpt lat="43.155685" lon="12.3166889"><ele>371.0</ele><time>2026-04-04T14:53:01.047Z</time></trkpt><trkpt lat="43.1557924" lon="12.3167803"><ele>371.0</ele><time>2026-04-04T14:53:03.045Z</time></trkpt><trkpt lat="43.1558443" lon="12.3168409"><ele>371.0</ele><time>2026-04-04T14:53:04.051Z</time></trkpt><trkpt lat="43.1559401" lon="12.3169602"><ele>371.6666666666667</ele><time>2026-04-04T14:53:06.047Z</time></trkpt><trkpt lat="43.1559882" lon="12.3170315"><ele>372.33333333333337</ele><time>2026-04-04T14:53:07.058Z</time></trkpt><trkpt lat="43.1560472" lon="12.3171121"><ele>373.0</ele><time>2026-04-04T14:53:08.051Z</time></trkpt><trkpt lat="43.1561038" lon="12.317195"><ele>373.6666666666667</ele><time>2026-04-04T14:53:09.074Z</time></trkpt><trkpt lat="43.1561532" lon="12.3172767"><ele>374.3333333333333</ele><time>2026-04-04T14:53:10.041Z</time></trkpt><trkpt lat="43.1562062" lon="12.3173691"><ele>375.0</ele><time>2026-04-04T14:53:11.04Z</time></trkpt><trkpt lat="43.1562595" lon="12.3174656"><ele>375.0</ele><time>2026-04-04T14:53:12.049Z</time></trkpt><trkpt lat="43.1563048" lon="12.3175639"><ele>375.0</ele><time>2026-04-04T14:53:13.048Z</time></trkpt><trkpt lat="43.1563447" lon="12.317659"><ele>375.0</ele><time>2026-04-04T14:53:14.045Z</time></trkpt><trkpt lat="43.1563946" lon="12.3177533"><ele>375.0</ele><time>2026-04-04T14:53:15.04Z</time></trkpt><trkpt lat="43.1564607" lon="12.3178494"><ele>375.0</ele><time>2026-04-04T14:53:16.044Z</time></trkpt><trkpt lat="43.1565285" lon="12.3179291"><ele>375.0</ele><time>2026-04-04T14:53:17.045Z</time></trkpt><trkpt lat="43.156587" lon="12.3180042"><ele>371.8333333333333</ele><time>2026-04-04T14:53:18.043Z</time></trkpt><trkpt lat="43.1566371" lon="12.3180756"><ele>368.6666666666667</ele><time>2026-04-04T14:53:19.036Z</time></trkpt><trkpt lat="43.1566796" lon="12.3181507"><ele>365.5</ele><time>2026-04-04T14:53:20.042Z</time></trkpt><trkpt lat="43.1567261" lon="12.3182393"><ele>362.33333333333337</ele><time>2026-04-04T14:53:21.039Z</time></trkpt><trkpt lat="43.1567665" lon="12.3183304"><ele>359.1666666666667</ele><time>2026-04-04T14:53:22.049Z</time></trkpt><trkpt lat="43.1568" lon="12.3184285"><ele>356.0</ele><time>2026-04-04T14:53:23.046Z</time></trkpt><trkpt lat="43.1568217" lon="12.3185364"><ele>356.0</ele><time>2026-04-04T14:53:24.045Z</time></trkpt><trkpt lat="43.1568425" lon="12.3186512"><ele>356.0</ele><time>2026-04-04T14:53:25.042Z</time></trkpt><trkpt lat="43.1568612" lon="12.3187696"><ele>356.0</ele><time>2026-04-04T14:53:26.047Z</time></trkpt><trkpt lat="43.1568779" lon="12.3188859"><ele>356.0</ele><time>2026-04-04T14:53:27.037Z</time></trkpt><trkpt lat="43.1568876" lon="12.3189967"><ele>356.0</ele><time>2026-04-04T14:53:28.038Z</time></trkpt><trkpt lat="43.156899" lon="12.3191026"><ele>356.0</ele><time>2026-04-04T14:53:29.039Z</time></trkpt><trkpt lat="43.1569136" lon="12.3192069"><ele>356.33333333333337</ele><time>2026-04-04T14:53:30.042Z</time></trkpt><trkpt lat="43.1569297" lon="12.3193139"><ele>356.6666666666667</ele><time>2026-04-04T14:53:31.043Z</time></trkpt><trkpt lat="43.1569438" lon="12.3194188"><ele>357.0</ele><time>2026-04-04T14:53:32.038Z</time></trkpt><trkpt lat="43.1569487" lon="12.3195218"><ele>357.3333333333333</ele><time>2026-04-04T14:53:33.043Z</time></trkpt><trkpt lat="43.156951" lon="12.3196278"><ele>357.66666666666663</ele><time>2026-04-04T14:53:34.036Z</time></trkpt><trkpt lat="43.1569573" lon="12.3197388"><ele>358.0</ele><time>2026-04-04T14:53:35.04Z</time></trkpt><trkpt lat="43.1569687" lon="12.3198533"><ele>357.0</ele><time>2026-04-04T14:53:36.031Z</time></trkpt><trkpt lat="43.1569883" lon="12.3199728"><ele>356.0</ele><time>2026-04-04T14:53:37.035Z</time></trkpt><trkpt lat="43.1570152" lon="12.3200793"><ele>355.0</ele><time>2026-04-04T14:53:38.046Z</time></trkpt><trkpt lat="43.1570387" lon="12.3201659"><ele>354.0</ele><time>2026-04-04T14:53:39.043Z</time></trkpt><trkpt lat="43.1570626" lon="12.3202514"><ele>353.0</ele><time>2026-04-04T14:53:40.034Z</time></trkpt><trkpt lat="43.1570554" lon="12.3203676"><ele>352.0</ele><time>2026-04-04T14:53:42.033Z</time></trkpt><trkpt lat="43.1571194" lon="12.3204037"><ele>352.0</ele><time>2026-04-04T14:53:45.036Z</time></trkpt><trkpt lat="43.1572317" lon="12.3203298"><ele>352.0</ele><time>2026-04-04T14:53:47.041Z</time></trkpt><trkpt lat="43.1572963" lon="12.3202628"><ele>352.0</ele><time>2026-04-04T14:53:48.042Z</time></trkpt><trkpt lat="43.1573574" lon="12.3201609"><ele>352.0</ele><time>2026-04-04T14:53:49.042Z</time></trkpt><trkpt lat="43.1574154" lon="12.320066"><ele>352.0</ele><time>2026-04-04T14:53:50.038Z</time></trkpt><trkpt lat="43.1574661" lon="12.3199768"><ele>347.66666666666663</ele><time>2026-04-04T14:53:51.047Z</time></trkpt><trkpt lat="43.1575145" lon="12.3198944"><ele>343.3333333333333</ele><time>2026-04-04T14:53:52.033Z</time></trkpt><trkpt lat="43.1575545" lon="12.3198271"><ele>339.0</ele><time>2026-04-04T14:53:53.057Z</time></trkpt><trkpt lat="43.1576372" lon="12.3197867"><ele>334.6666666666667</ele><time>2026-04-04T14:53:55.041Z</time></trkpt><trkpt lat="43.1577018" lon="12.319892"><ele>330.33333333333337</ele><time>2026-04-04T14:53:57.039Z</time></trkpt><trkpt lat="43.1577033" lon="12.3200182"><ele>326.0</ele><time>2026-04-04T14:53:59.039Z</time></trkpt><trkpt lat="43.1577053" lon="12.3202001"><ele>326.0</ele><time>2026-04-04T14:54:01.038Z</time></trkpt><trkpt lat="43.1576722" lon="12.3203089"><ele>326.0</ele><time>2026-04-04T14:54:02.038Z</time></trkpt><trkpt lat="43.1576152" lon="12.3204057"><ele>326.0</ele><time>2026-04-04T14:54:03.045Z</time></trkpt><trkpt lat="43.1575515" lon="12.3204981"><ele>326.0</ele><time>2026-04-04T14:54:04.035Z</time></trkpt><trkpt lat="43.1575157" lon="12.3206"><ele>326.0</ele><time>2026-04-04T14:54:05.038Z</time></trkpt><trkpt lat="43.1574881" lon="12.3206963"><ele>326.0</ele><time>2026-04-04T14:54:06.04Z</time></trkpt><trkpt lat="43.1575147" lon="12.3208096"><ele>325.6</ele><time>2026-04-04T14:54:07.042Z</time></trkpt><trkpt lat="43.1575973" lon="12.3208861"><ele>325.20000000000005</ele><time>2026-04-04T14:54:08.038Z</time></trkpt><trkpt lat="43.157686" lon="12.3209237"><ele>324.79999999999995</ele><time>2026-04-04T14:54:09.031Z</time></trkpt><trkpt lat="43.1577836" lon="12.3209363"><ele>324.4</ele><time>2026-04-04T14:54:10.039Z</time></trkpt><trkpt lat="43.1579286" lon="12.3209481"><ele>324.0</ele><time>2026-04-04T14:54:11.038Z</time></trkpt><trkpt lat="43.1580792" lon="12.3209549"><ele>320.4</ele><time>2026-04-04T14:54:12.04Z</time></trkpt><trkpt lat="43.1582033" lon="12.3209639"><ele>316.79999999999995</ele><time>2026-04-04T14:54:13.039Z</time></trkpt><trkpt lat="43.1583164" lon="12.3209588"><ele>313.20000000000005</ele><time>2026-04-04T14:54:14.052Z</time></trkpt><trkpt lat="43.1584176" lon="12.3209579"><ele>309.6</ele><time>2026-04-04T14:54:15.043Z</time></trkpt><trkpt lat="43.1585016" lon="12.3210222"><ele>306.0</ele><time>2026-04-04T14:54:16.041Z</time></trkpt><trkpt lat="43.1585703" lon="12.3211212"><ele>306.0</ele><time>2026-04-04T14:54:17.044Z</time></trkpt><trkpt lat="43.1586344" lon="12.3212423"><ele>306.0</ele><time>2026-04-04T14:54:18.036Z</time></trkpt><trkpt lat="43.1587016" lon="12.3213653"><ele>306.0</ele><time>2026-04-04T14:54:19.043Z</time></trkpt><trkpt lat="43.1587745" lon="12.3214865"><ele>306.0</ele><time>2026-04-04T14:54:20.043Z</time></trkpt><trkpt lat="43.1588435" lon="12.3216113"><ele>309.75</ele><time>2026-04-04T14:54:21.04Z</time></trkpt><trkpt lat="43.1588984" lon="12.3217453"><ele>313.5</ele><time>2026-04-04T14:54:22.036Z</time></trkpt><trkpt lat="43.1589477" lon="12.3218943"><ele>317.25</ele><time>2026-04-04T14:54:23.047Z</time></trkpt><trkpt lat="43.1589744" lon="12.3220546"><ele>321.0</ele><time>2026-04-04T14:54:24.038Z</time></trkpt><trkpt lat="43.1589984" lon="12.3222222"><ele>322.5</ele><time>2026-04-04T14:54:25.04Z</time></trkpt><trkpt lat="43.1590223" lon="12.3223945"><ele>324.0</ele><time>2026-04-04T14:54:26.045Z</time></trkpt><trkpt lat="43.1590423" lon="12.3225594"><ele>325.5</ele><time>2026-04-04T14:54:27.068Z</time></trkpt><trkpt lat="43.1590623" lon="12.3227218"><ele>327.0</ele><time>2026-04-04T14:54:28.033Z</time></trkpt><trkpt lat="43.1590794" lon="12.3228805"><ele>324.20000000000005</ele><time>2026-04-04T14:54:29.03Z</time></trkpt><trkpt lat="43.15908" lon="12.323039"><ele>321.40000000000003</ele><time>2026-04-04T14:54:30.033Z</time></trkpt><trkpt lat="43.1590597" lon="12.3231927"><ele>318.6</ele><time>2026-04-04T14:54:31.041Z</time></trkpt><trkpt lat="43.1590191" lon="12.3233348"><ele>315.8</ele><time>2026-04-04T14:54:32.037Z</time></trkpt><trkpt lat="43.1589592" lon="12.3234552"><ele>313.0</ele><time>2026-04-04T14:54:33.04Z</time></trkpt><trkpt lat="43.1588972" lon="12.3235743"><ele>313.0</ele><time>2026-04-04T14:54:34.041Z</time></trkpt><trkpt lat="43.1588296" lon="12.3236724"><ele>313.0</ele><time>2026-04-04T14:54:35.04Z</time></trkpt><trkpt lat="43.1587766" lon="12.3237697"><ele>313.0</ele><time>2026-04-04T14:54:36.042Z</time></trkpt><trkpt lat="43.1587434" lon="12.3238905"><ele>313.0</ele><time>2026-04-04T14:54:37.037Z</time></trkpt><trkpt lat="43.1587496" lon="12.3240219"><ele>313.0</ele><time>2026-04-04T14:54:38.045Z</time></trkpt><trkpt lat="43.1587816" lon="12.3241463"><ele>305.25</ele><time>2026-04-04T14:54:39.041Z</time></trkpt><trkpt lat="43.158856" lon="12.3242658"><ele>297.5</ele><time>2026-04-04T14:54:40.03Z</time></trkpt><trkpt lat="43.1589298" lon="12.3243966"><ele>289.75</ele><time>2026-04-04T14:54:41.037Z</time></trkpt><trkpt lat="43.1590028" lon="12.3245281"><ele>282.0</ele><time>2026-04-04T14:54:42.034Z</time></trkpt><trkpt lat="43.159075" lon="12.32465"><ele>280.5</ele><time>2026-04-04T14:54:43.035Z</time></trkpt><trkpt lat="43.1591433" lon="12.32478"><ele>279.0</ele><time>2026-04-04T14:54:44.046Z</time></trkpt><trkpt lat="43.159207" lon="12.3248917"><ele>277.5</ele><time>2026-04-04T14:54:45.04Z</time></trkpt><trkpt lat="43.1592648" lon="12.3249794"><ele>276.0</ele><time>2026-04-04T14:54:46.032Z</time></trkpt><trkpt lat="43.159307" lon="12.3250443"><ele>274.5</ele><time>2026-04-04T14:54:47.038Z</time></trkpt><trkpt lat="43.1593551" lon="12.3251139"><ele>273.0</ele><time>2026-04-04T14:54:49.038Z</time></trkpt><trkpt lat="43.1593976" lon="12.3252077"><ele>273.0</ele><time>2026-04-04T14:54:59.036Z</time></trkpt><trkpt lat="43.1594069" lon="12.3253718"><ele>273.0</ele><time>2026-04-04T14:55:01.049Z</time></trkpt><trkpt lat="43.1593976" lon="12.3254665"><ele>273.0</ele><time>2026-04-04T14:55:02.033Z</time></trkpt><trkpt lat="43.1593854" lon="12.3255832"><ele>273.0</ele><time>2026-04-04T14:55:03.045Z</time></trkpt><trkpt lat="43.1593664" lon="12.3257066"><ele>273.0</ele><time>2026-04-04T14:55:04.037Z</time></trkpt><trkpt lat="43.1593416" lon="12.3258391"><ele>273.25</ele><time>2026-04-04T14:55:05.044Z</time></trkpt><trkpt lat="43.1593102" lon="12.3259762"><ele>273.5</ele><time>2026-04-04T14:55:06.033Z</time></trkpt><trkpt lat="43.1592751" lon="12.3261225"><ele>273.75</ele><time>2026-04-04T14:55:07.038Z</time></trkpt><trkpt lat="43.1592359" lon="12.3262816"><ele>274.0</ele><time>2026-04-04T14:55:08.035Z</time></trkpt><trkpt lat="43.1591952" lon="12.3264301"><ele>274.0</ele><time>2026-04-04T14:55:09.037Z</time></trkpt><trkpt lat="43.159151" lon="12.3265794"><ele>274.0</ele><time>2026-04-04T14:55:10.039Z</time></trkpt><trkpt lat="43.1591082" lon="12.3267324"><ele>274.0</ele><time>2026-04-04T14:55:11.039Z</time></trkpt><trkpt lat="43.159067" lon="12.326886"><ele>274.0</ele><time>2026-04-04T14:55:12.044Z</time></trkpt><trkpt lat="43.1590297" lon="12.3270366"><ele>274.0</ele><time>2026-04-04T14:55:13.038Z</time></trkpt><trkpt lat="43.159" lon="12.3271916"><ele>274.0</ele><time>2026-04-04T14:55:14.046Z</time></trkpt><trkpt lat="43.1589754" lon="12.3273523"><ele>274.0</ele><time>2026-04-04T14:55:15.049Z</time></trkpt><trkpt lat="43.1589651" lon="12.3275104"><ele>274.0</ele><time>2026-04-04T14:55:16.05Z</time></trkpt><trkpt lat="43.1589767" lon="12.3276653"><ele>273.25</ele><time>2026-04-04T14:55:17.058Z</time></trkpt><trkpt lat="43.1589922" lon="12.3278205"><ele>272.5</ele><time>2026-04-04T14:55:18.051Z</time></trkpt><trkpt lat="43.1590166" lon="12.3279801"><ele>271.75</ele><time>2026-04-04T14:55:19.044Z</time></trkpt><trkpt lat="43.1590466" lon="12.3281327"><ele>271.0</ele><time>2026-04-04T14:55:20.046Z</time></trkpt><trkpt lat="43.1590848" lon="12.3282837"><ele>271.0</ele><time>2026-04-04T14:55:21.041Z</time></trkpt><trkpt lat="43.1591296" lon="12.3284262"><ele>271.0</ele><time>2026-04-04T14:55:22.049Z</time></trkpt><trkpt lat="43.1591763" lon="12.3285554"><ele>271.0</ele><time>2026-04-04T14:55:23.045Z</time></trkpt><trkpt lat="43.1592218" lon="12.3286823"><ele>271.0</ele><time>2026-04-04T14:55:24.057Z</time></trkpt><trkpt lat="43.1592637" lon="12.328812"><ele>271.0</ele><time>2026-04-04T14:55:25.045Z</time></trkpt><trkpt lat="43.1593078" lon="12.3289412"><ele>271.5</ele><time>2026-04-04T14:55:26.062Z</time></trkpt><trkpt lat="43.1593564" lon="12.3290744"><ele>272.0</ele><time>2026-04-04T14:55:27.045Z</time></trkpt><trkpt lat="43.1594051" lon="12.3292174"><ele>272.5</ele><time>2026-04-04T14:55:28.044Z</time></trkpt><trkpt lat="43.1594587" lon="12.3293569"><ele>273.0</ele><time>2026-04-04T14:55:29.049Z</time></trkpt><trkpt lat="43.1595206" lon="12.329487"><ele>273.0</ele><time>2026-04-04T14:55:30.043Z</time></trkpt><trkpt lat="43.1595926" lon="12.3295958"><ele>273.0</ele><time>2026-04-04T14:55:31.058Z</time></trkpt><trkpt lat="43.1596714" lon="12.3296877"><ele>273.0</ele><time>2026-04-04T14:55:32.041Z</time></trkpt><trkpt lat="43.1597515" lon="12.3297761"><ele>273.0</ele><time>2026-04-04T14:55:33.049Z</time></trkpt><trkpt lat="43.159818" lon="12.329861"><ele>273.0</ele><time>2026-04-04T14:55:34.045Z</time></trkpt><trkpt lat="43.1598779" lon="12.3299411"><ele>273.0</ele><time>2026-04-04T14:55:35.039Z</time></trkpt><trkpt lat="43.1599311" lon="12.3300154"><ele>273.0</ele><time>2026-04-04T14:55:36.052Z</time></trkpt><trkpt lat="43.159982" lon="12.3300784"><ele>273.0</ele><time>2026-04-04T14:55:37.047Z</time></trkpt><trkpt lat="43.1600672" lon="12.3301888"><ele>273.0</ele><time>2026-04-04T14:55:39.045Z</time></trkpt><trkpt lat="43.1601271" lon="12.3302776"><ele>273.0</ele><time>2026-04-04T14:55:41.05Z</time></trkpt><trkpt lat="43.1601985" lon="12.3303163"><ele>273.0</ele><time>2026-04-04T14:55:44.042Z</time></trkpt><trkpt lat="43.1602879" lon="12.3302429"><ele>273.0</ele><time>2026-04-04T14:55:46.04Z</time></trkpt><trkpt lat="43.1603389" lon="12.3301666"><ele>273.0</ele><time>2026-04-04T14:55:47.042Z</time></trkpt><trkpt lat="43.1603981" lon="12.3300811"><ele>273.0</ele><time>2026-04-04T14:55:48.06Z</time></trkpt><trkpt lat="43.1604629" lon="12.3299984"><ele>273.0</ele><time>2026-04-04T14:55:49.037Z</time></trkpt><trkpt lat="43.160533" lon="12.3299071"><ele>273.0</ele><time>2026-04-04T14:55:50.04Z</time></trkpt><trkpt lat="43.1606064" lon="12.3298044"><ele>272.75</ele><time>2026-04-04T14:55:51.047Z</time></trkpt><trkpt lat="43.1606863" lon="12.3296973"><ele>272.5</ele><time>2026-04-04T14:55:52.038Z</time></trkpt><trkpt lat="43.1607745" lon="12.3295926"><ele>272.25</ele><time>2026-04-04T14:55:53.041Z</time></trkpt><trkpt lat="43.1608696" lon="12.3294942"><ele>272.0</ele><time>2026-04-04T14:55:54.05Z</time></trkpt><trkpt lat="43.1609641" lon="12.3294113"><ele>272.0</ele><time>2026-04-04T14:55:55.05Z</time></trkpt><trkpt lat="43.1610742" lon="12.3293374"><ele>272.0</ele><time>2026-04-04T14:55:56.06Z</time></trkpt><trkpt lat="43.1611956" lon="12.3292795"><ele>272.0</ele><time>2026-04-04T14:55:57.049Z</time></trkpt><trkpt lat="43.1613132" lon="12.329238"><ele>272.0</ele><time>2026-04-04T14:55:58.038Z</time></trkpt><trkpt lat="43.1614337" lon="12.3292068"><ele>273.0</ele><time>2026-04-04T14:55:59.036Z</time></trkpt><trkpt lat="43.1615521" lon="12.3291892"><ele>274.0</ele><time>2026-04-04T14:56:00.056Z</time></trkpt><trkpt lat="43.1616754" lon="12.3291658"><ele>275.0</ele><time>2026-04-04T14:56:01.042Z</time></trkpt><trkpt lat="43.1618004" lon="12.3291566"><ele>276.0</ele><time>2026-04-04T14:56:02.035Z</time></trkpt><trkpt lat="43.1619283" lon="12.3291482"><ele>276.0</ele><time>2026-04-04T14:56:03.041Z</time></trkpt><trkpt lat="43.1620617" lon="12.3291523"><ele>276.0</ele><time>2026-04-04T14:56:04.036Z</time></trkpt><trkpt lat="43.1621884" lon="12.3291613"><ele>276.0</ele><time>2026-04-04T14:56:05.039Z</time></trkpt><trkpt lat="43.1623197" lon="12.3291671"><ele>276.0</ele><time>2026-04-04T14:56:06.044Z</time></trkpt><trkpt lat="43.1624484" lon="12.3291667"><ele>275.0</ele><time>2026-04-04T14:56:07.048Z</time></trkpt><trkpt lat="43.1625743" lon="12.329158"><ele>274.0</ele><time>2026-04-04T14:56:08.036Z</time></trkpt><trkpt lat="43.162694" lon="12.3291204"><ele>273.0</ele><time>2026-04-04T14:56:09.038Z</time></trkpt><trkpt lat="43.1628115" lon="12.3290731"><ele>272.0</ele><time>2026-04-04T14:56:10.039Z</time></trkpt><trkpt lat="43.1629335" lon="12.3290162"><ele>272.0</ele><time>2026-04-04T14:56:11.04Z</time></trkpt><trkpt lat="43.1630524" lon="12.3289703"><ele>272.0</ele><time>2026-04-04T14:56:12.044Z</time></trkpt><trkpt lat="43.1631697" lon="12.3289378"><ele>272.0</ele><time>2026-04-04T14:56:13.065Z</time></trkpt><trkpt lat="43.1632871" lon="12.3289227"><ele>272.0</ele><time>2026-04-04T14:56:14.041Z</time></trkpt><trkpt lat="43.1634004" lon="12.3289104"><ele>272.0</ele><time>2026-04-04T14:56:15.049Z</time></trkpt><trkpt lat="43.1635118" lon="12.3289104"><ele>272.0</ele><time>2026-04-04T14:56:16.041Z</time></trkpt><trkpt lat="43.1636265" lon="12.3289104"><ele>272.0</ele><time>2026-04-04T14:56:17.041Z</time></trkpt><trkpt lat="43.1637402" lon="12.3289121"><ele>272.0</ele><time>2026-04-04T14:56:18.043Z</time></trkpt><trkpt lat="43.1638567" lon="12.3289065"><ele>272.0</ele><time>2026-04-04T14:56:19.045Z</time></trkpt><trkpt lat="43.1639838" lon="12.3288975"><ele>272.0</ele><time>2026-04-04T14:56:20.043Z</time></trkpt><trkpt lat="43.1641179" lon="12.3288905"><ele>272.0</ele><time>2026-04-04T14:56:21.053Z</time></trkpt><trkpt lat="43.1642545" lon="12.3288793"><ele>272.0</ele><time>2026-04-04T14:56:22.048Z</time></trkpt><trkpt lat="43.1643863" lon="12.3288681"><ele>275.25</ele><time>2026-04-04T14:56:23.046Z</time></trkpt><trkpt lat="43.1645181" lon="12.3288448"><ele>278.5</ele><time>2026-04-04T14:56:24.053Z</time></trkpt><trkpt lat="43.16465" lon="12.3288194"><ele>281.75</ele><time>2026-04-04T14:56:25.041Z</time></trkpt><trkpt lat="43.1647792" lon="12.3287829"><ele>285.0</ele><time>2026-04-04T14:56:26.045Z</time></trkpt><trkpt lat="43.1649051" lon="12.3287392"><ele>285.2</ele><time>2026-04-04T14:56:27.045Z</time></trkpt><trkpt lat="43.1650223" lon="12.3286907"><ele>285.4</ele><time>2026-04-04T14:56:28.048Z</time></trkpt><trkpt lat="43.1651298" lon="12.328643"><ele>285.6</ele><time>2026-04-04T14:56:29.055Z</time></trkpt><trkpt lat="43.1652293" lon="12.3285942"><ele>285.8</ele><time>2026-04-04T14:56:30.051Z</time></trkpt><trkpt lat="43.1653232" lon="12.3285468"><ele>286.0</ele><time>2026-04-04T14:56:31.046Z</time></trkpt><trkpt lat="43.1654115" lon="12.328494"><ele>286.0</ele><time>2026-04-04T14:56:32.05Z</time></trkpt><trkpt lat="43.1654964" lon="12.3284442"><ele>286.0</ele><time>2026-04-04T14:56:33.047Z</time></trkpt><trkpt lat="43.1655776" lon="12.3283888"><ele>286.0</ele><time>2026-04-04T14:56:34.047Z</time></trkpt><trkpt lat="43.1656526" lon="12.3283314"><ele>286.0</ele><time>2026-04-04T14:56:35.042Z</time></trkpt><trkpt lat="43.1657215" lon="12.3282638"><ele>286.0</ele><time>2026-04-04T14:56:36.056Z</time></trkpt><trkpt lat="43.1657777" lon="12.3282044"><ele>286.0</ele><time>2026-04-04T14:56:37.046Z</time></trkpt><trkpt lat="43.1658293" lon="12.3281547"><ele>286.2</ele><time>2026-04-04T14:56:38.058Z</time></trkpt><trkpt lat="43.1659451" lon="12.328164"><ele>286.40000000000003</ele><time>2026-04-04T14:56:40.051Z</time></trkpt><trkpt lat="43.1660001" lon="12.3282284"><ele>286.6</ele><time>2026-04-04T14:56:41.044Z</time></trkpt><trkpt lat="43.1660511" lon="12.3283123"><ele>286.8</ele><time>2026-04-04T14:56:42.044Z</time></trkpt><trkpt lat="43.1661104" lon="12.3284122"><ele>287.0</ele><time>2026-04-04T14:56:43.051Z</time></trkpt><trkpt lat="43.1661913" lon="12.328509"><ele>287.0</ele><time>2026-04-04T14:56:44.045Z</time></trkpt><trkpt lat="43.1662683" lon="12.3286067"><ele>287.0</ele><time>2026-04-04T14:56:45.053Z</time></trkpt><trkpt lat="43.1663458" lon="12.3287079"><ele>287.0</ele><time>2026-04-04T14:56:46.049Z</time></trkpt><trkpt lat="43.1664256" lon="12.3287906"><ele>287.0</ele><time>2026-04-04T14:56:47.048Z</time></trkpt><trkpt lat="43.1665078" lon="12.3288581"><ele>287.0</ele><time>2026-04-04T14:56:48.054Z</time></trkpt><trkpt lat="43.1665954" lon="12.3289135"><ele>286.4</ele><time>2026-04-04T14:56:49.048Z</time></trkpt><trkpt lat="43.1667007" lon="12.328941"><ele>285.79999999999995</ele><time>2026-04-04T14:56:50.051Z</time></trkpt><trkpt lat="43.1668034" lon="12.328947"><ele>285.2</ele><time>2026-04-04T14:56:51.049Z</time></trkpt><trkpt lat="43.1669094" lon="12.328948"><ele>284.59999999999997</ele><time>2026-04-04T14:56:52.053Z</time></trkpt><trkpt lat="43.1670105" lon="12.3289627"><ele>284.0</ele><time>2026-04-04T14:56:53.041Z</time></trkpt><trkpt lat="43.1671138" lon="12.3289699"><ele>284.0</ele><time>2026-04-04T14:56:54.04Z</time></trkpt><trkpt lat="43.1672251" lon="12.3289777"><ele>284.0</ele><time>2026-04-04T14:56:55.049Z</time></trkpt><trkpt lat="43.1673342" lon="12.3289974"><ele>284.0</ele><time>2026-04-04T14:56:56.053Z</time></trkpt><trkpt lat="43.1674365" lon="12.3290201"><ele>284.0</ele><time>2026-04-04T14:56:57.046Z</time></trkpt><trkpt lat="43.1675337" lon="12.3290525"><ele>284.0</ele><time>2026-04-04T14:56:58.043Z</time></trkpt><trkpt lat="43.1676188" lon="12.3290838"><ele>284.33333333333337</ele><time>2026-04-04T14:56:59.049Z</time></trkpt><trkpt lat="43.1676995" lon="12.329116"><ele>284.6666666666667</ele><time>2026-04-04T14:57:00.051Z</time></trkpt><trkpt lat="43.1677704" lon="12.3291451"><ele>285.0</ele><time>2026-04-04T14:57:01.039Z</time></trkpt><trkpt lat="43.1678313" lon="12.3291703"><ele>285.3333333333333</ele><time>2026-04-04T14:57:02.043Z</time></trkpt><trkpt lat="43.1679105" lon="12.3292339"><ele>285.66666666666663</ele><time>2026-04-04T14:57:04.062Z</time></trkpt><trkpt lat="43.1679328" lon="12.3293592"><ele>286.0</ele><time>2026-04-04T14:57:06.051Z</time></trkpt><trkpt lat="43.1679262" lon="12.3294942"><ele>286.0</ele><time>2026-04-04T14:57:08.03Z</time></trkpt><trkpt lat="43.167908" lon="12.3295885"><ele>286.0</ele><time>2026-04-04T14:57:10.04Z</time></trkpt><trkpt lat="43.1678822" lon="12.3297193"><ele>286.0</ele><time>2026-04-04T14:57:12.054Z</time></trkpt><trkpt lat="43.1678523" lon="12.3298749"><ele>286.0</ele><time>2026-04-04T14:57:14.043Z</time></trkpt><trkpt lat="43.1678364" lon="12.3299615"><ele>286.0</ele><time>2026-04-04T14:57:15.051Z</time></trkpt><trkpt lat="43.1678177" lon="12.3301082"><ele>285.99999999999994</ele><time>2026-04-04T14:57:17.062Z</time></trkpt><trkpt lat="43.1677983" lon="12.3302008"><ele>286.0</ele><time>2026-04-04T14:57:20.045Z</time></trkpt><trkpt lat="43.1678392" lon="12.3301197"><ele>286.0</ele><time>2026-04-04T14:57:59.04Z</time></trkpt><trkpt lat="43.167853" lon="12.3300256"><ele>286.0</ele><time>2026-04-04T14:58:01.045Z</time></trkpt><trkpt lat="43.1678654" lon="12.3299398"><ele>286.0</ele><time>2026-04-04T14:58:03.025Z</time></trkpt><trkpt lat="43.1678766" lon="12.3298476"><ele>285.99999999999994</ele><time>2026-04-04T14:58:05.038Z</time></trkpt><trkpt lat="43.1679015" lon="12.3297637"><ele>286.0</ele><time>2026-04-04T14:58:07.041Z</time></trkpt><trkpt lat="43.1679181" lon="12.3296664"><ele>286.0</ele><time>2026-04-04T14:58:09.048Z</time></trkpt><trkpt lat="43.1679411" lon="12.3295564"><ele>286.0</ele><time>2026-04-04T14:58:11.04Z</time></trkpt><trkpt lat="43.1679476" lon="12.3294361"><ele>286.0</ele><time>2026-04-04T14:58:13.041Z</time></trkpt><trkpt lat="43.1679479" lon="12.3293155"><ele>286.0</ele><time>2026-04-04T14:58:16.044Z</time></trkpt><trkpt lat="43.1679782" lon="12.3292357"><ele>286.0</ele><time>2026-04-04T14:58:19.037Z</time></trkpt><trkpt lat="43.1680477" lon="12.3292247"><ele>286.0</ele><time>2026-04-04T14:58:21.046Z</time></trkpt><trkpt lat="43.1681596" lon="12.3292512"><ele>285.0</ele><time>2026-04-04T14:58:23.048Z</time></trkpt><trkpt lat="43.1682227" lon="12.3292721"><ele>284.0</ele><time>2026-04-04T14:58:24.049Z</time></trkpt><trkpt lat="43.1682932" lon="12.3292993"><ele>283.0</ele><time>2026-04-04T14:58:25.041Z</time></trkpt><trkpt lat="43.1683687" lon="12.329331"><ele>282.0</ele><time>2026-04-04T14:58:26.046Z</time></trkpt><trkpt lat="43.1684415" lon="12.329374"><ele>281.0</ele><time>2026-04-04T14:58:27.043Z</time></trkpt><trkpt lat="43.16852" lon="12.3294127"><ele>280.0</ele><time>2026-04-04T14:58:28.041Z</time></trkpt><trkpt lat="43.1686019" lon="12.3294569"><ele>280.0</ele><time>2026-04-04T14:58:29.042Z</time></trkpt><trkpt lat="43.1686862" lon="12.3295007"><ele>280.0</ele><time>2026-04-04T14:58:30.046Z</time></trkpt><trkpt lat="43.1687702" lon="12.3295455"><ele>280.0</ele><time>2026-04-04T14:58:31.04Z</time></trkpt><trkpt lat="43.1688614" lon="12.3295839"><ele>280.0</ele><time>2026-04-04T14:58:32.043Z</time></trkpt><trkpt lat="43.1689591" lon="12.3296107"><ele>280.0</ele><time>2026-04-04T14:58:33.04Z</time></trkpt><trkpt lat="43.1690566" lon="12.3296342"><ele>279.5</ele><time>2026-04-04T14:58:34.034Z</time></trkpt><trkpt lat="43.1691604" lon="12.3296626"><ele>279.0</ele><time>2026-04-04T14:58:35.038Z</time></trkpt><trkpt lat="43.1692693" lon="12.3296824"><ele>278.5</ele><time>2026-04-04T14:58:36.045Z</time></trkpt><trkpt lat="43.1693905" lon="12.3296971"><ele>278.0</ele><time>2026-04-04T14:58:37.042Z</time></trkpt><trkpt lat="43.1695226" lon="12.3297065"><ele>278.0</ele><time>2026-04-04T14:58:38.043Z</time></trkpt><trkpt lat="43.1696562" lon="12.3297068"><ele>278.0</ele><time>2026-04-04T14:58:39.036Z</time></trkpt><trkpt lat="43.1697972" lon="12.3296937"><ele>278.0</ele><time>2026-04-04T14:58:40.047Z</time></trkpt><trkpt lat="43.1699365" lon="12.329683"><ele>278.0</ele><time>2026-04-04T14:58:41.052Z</time></trkpt><trkpt lat="43.1700739" lon="12.3296674"><ele>278.5</ele><time>2026-04-04T14:58:42.047Z</time></trkpt><trkpt lat="43.1702029" lon="12.3296464"><ele>279.0</ele><time>2026-04-04T14:58:43.04Z</time></trkpt><trkpt lat="43.1703264" lon="12.3296193"><ele>279.5</ele><time>2026-04-04T14:58:44.042Z</time></trkpt><trkpt lat="43.1704418" lon="12.3295904"><ele>280.0</ele><time>2026-04-04T14:58:45.046Z</time></trkpt><trkpt lat="43.1705507" lon="12.3295699"><ele>280.0</ele><time>2026-04-04T14:58:46.042Z</time></trkpt><trkpt lat="43.1706573" lon="12.3295565"><ele>280.0</ele><time>2026-04-04T14:58:47.05Z</time></trkpt><trkpt lat="43.1707618" lon="12.3295512"><ele>280.0</ele><time>2026-04-04T14:58:48.046Z</time></trkpt><trkpt lat="43.1708639" lon="12.3295564"><ele>280.0</ele><time>2026-04-04T14:58:49.05Z</time></trkpt><trkpt lat="43.1709595" lon="12.3295768"><ele>280.0</ele><time>2026-04-04T14:58:50.051Z</time></trkpt><trkpt lat="43.1710619" lon="12.3296158"><ele>280.75</ele><time>2026-04-04T14:58:51.051Z</time></trkpt><trkpt lat="43.1711693" lon="12.3296745"><ele>281.5</ele><time>2026-04-04T14:58:52.037Z</time></trkpt><trkpt lat="43.1712777" lon="12.329746"><ele>282.25</ele><time>2026-04-04T14:58:53.048Z</time></trkpt><trkpt lat="43.1713883" lon="12.3297866"><ele>283.0</ele><time>2026-04-04T14:58:54.044Z</time></trkpt><trkpt lat="43.1715017" lon="12.3297865"><ele>284.0</ele><time>2026-04-04T14:58:55.049Z</time></trkpt><trkpt lat="43.1716061" lon="12.3297759"><ele>285.0</ele><time>2026-04-04T14:58:56.044Z</time></trkpt><trkpt lat="43.1717042" lon="12.3297698"><ele>286.0</ele><time>2026-04-04T14:58:57.049Z</time></trkpt><trkpt lat="43.1717969" lon="12.3297592"><ele>287.0</ele><time>2026-04-04T14:58:58.049Z</time></trkpt><trkpt lat="43.1718915" lon="12.329745"><ele>288.0</ele><time>2026-04-04T14:58:59.05Z</time></trkpt><trkpt lat="43.1719838" lon="12.3297482"><ele>288.0</ele><time>2026-04-04T14:59:00.052Z</time></trkpt><trkpt lat="43.1720873" lon="12.3297623"><ele>288.0</ele><time>2026-04-04T14:59:01.041Z</time></trkpt><trkpt lat="43.1722079" lon="12.3297985"><ele>288.0</ele><time>2026-04-04T14:59:02.039Z</time></trkpt><trkpt lat="43.1723363" lon="12.3298446"><ele>288.0</ele><time>2026-04-04T14:59:03.054Z</time></trkpt><trkpt lat="43.1724659" lon="12.3299138"><ele>287.75</ele><time>2026-04-04T14:59:04.055Z</time></trkpt><trkpt lat="43.17259" lon="12.3299889"><ele>287.5</ele><time>2026-04-04T14:59:05.053Z</time></trkpt><trkpt lat="43.1727276" lon="12.3300397"><ele>287.25</ele><time>2026-04-04T14:59:06.048Z</time></trkpt><trkpt lat="43.1728868" lon="12.3300695"><ele>287.0</ele><time>2026-04-04T14:59:07.059Z</time></trkpt><trkpt lat="43.1730452" lon="12.3300923"><ele>288.33333333333337</ele><time>2026-04-04T14:59:08.043Z</time></trkpt><trkpt lat="43.1732087" lon="12.3301203"><ele>289.6666666666667</ele><time>2026-04-04T14:59:09.032Z</time></trkpt><trkpt lat="43.1733562" lon="12.330132"><ele>291.0</ele><time>2026-04-04T14:59:10.044Z</time></trkpt><trkpt lat="43.1735109" lon="12.3301279"><ele>291.0</ele><time>2026-04-04T14:59:11.043Z</time></trkpt><trkpt lat="43.1736574" lon="12.330107"><ele>291.0</ele><time>2026-04-04T14:59:12.036Z</time></trkpt><trkpt lat="43.1738098" lon="12.3300806"><ele>291.0</ele><time>2026-04-04T14:59:13.044Z</time></trkpt><trkpt lat="43.173963" lon="12.3300599"><ele>292.75</ele><time>2026-04-04T14:59:14.052Z</time></trkpt><trkpt lat="43.1741041" lon="12.3300407"><ele>294.5</ele><time>2026-04-04T14:59:15.046Z</time></trkpt><trkpt lat="43.1742329" lon="12.3300312"><ele>296.25</ele><time>2026-04-04T14:59:16.04Z</time></trkpt><trkpt lat="43.1743461" lon="12.3300196"><ele>298.0</ele><time>2026-04-04T14:59:17.046Z</time></trkpt><trkpt lat="43.1744206" lon="12.3300189"><ele>298.0</ele><time>2026-04-04T14:59:18.046Z</time></trkpt><trkpt lat="43.1745188" lon="12.3300257"><ele>298.0</ele><time>2026-04-04T14:59:20.048Z</time></trkpt><trkpt lat="43.1746068" lon="12.3299433"><ele>298.0</ele><time>2026-04-04T14:59:22.05Z</time></trkpt><trkpt lat="43.1746468" lon="12.3298597"><ele>298.0</ele><time>2026-04-04T14:59:23.043Z</time></trkpt><trkpt lat="43.1746737" lon="12.3297688"><ele>298.0</ele><time>2026-04-04T14:59:24.044Z</time></trkpt><trkpt lat="43.17471" lon="12.3296657"><ele>298.0</ele><time>2026-04-04T14:59:25.04Z</time></trkpt><trkpt lat="43.1747487" lon="12.3295566"><ele>298.0</ele><time>2026-04-04T14:59:26.039Z</time></trkpt><trkpt lat="43.1747907" lon="12.3294352"><ele>298.0</ele><time>2026-04-04T14:59:27.045Z</time></trkpt><trkpt lat="43.1748301" lon="12.3293281"><ele>298.0</ele><time>2026-04-04T14:59:28.035Z</time></trkpt><trkpt lat="43.1748628" lon="12.3292153"><ele>298.0</ele><time>2026-04-04T14:59:29.044Z</time></trkpt><trkpt lat="43.1749008" lon="12.3291045"><ele>298.0</ele><time>2026-04-04T14:59:30.035Z</time></trkpt><trkpt lat="43.1749384" lon="12.328985"><ele>297.0</ele><time>2026-04-04T14:59:31.037Z</time></trkpt><trkpt lat="43.174976" lon="12.3288603"><ele>296.0</ele><time>2026-04-04T14:59:32.05Z</time></trkpt><trkpt lat="43.1750119" lon="12.3287231"><ele>295.0</ele><time>2026-04-04T14:59:33.041Z</time></trkpt><trkpt lat="43.1750518" lon="12.3285848"><ele>294.0</ele><time>2026-04-04T14:59:34.046Z</time></trkpt><trkpt lat="43.1750846" lon="12.3284435"><ele>293.0</ele><time>2026-04-04T14:59:35.054Z</time></trkpt><trkpt lat="43.1751204" lon="12.3282918"><ele>293.0</ele><time>2026-04-04T14:59:36.043Z</time></trkpt><trkpt lat="43.1751615" lon="12.3281612"><ele>293.0</ele><time>2026-04-04T14:59:37.053Z</time></trkpt><trkpt lat="43.1751939" lon="12.328038"><ele>293.0</ele><time>2026-04-04T14:59:38.05Z</time></trkpt><trkpt lat="43.1752101" lon="12.3279354"><ele>293.0</ele><time>2026-04-04T14:59:39.056Z</time></trkpt><trkpt lat="43.1751936" lon="12.32782"><ele>293.0</ele><time>2026-04-04T14:59:40.049Z</time></trkpt><trkpt lat="43.1751419" lon="12.3277123"><ele>292.4</ele><time>2026-04-04T14:59:41.048Z</time></trkpt><trkpt lat="43.1750788" lon="12.3275965"><ele>291.8</ele><time>2026-04-04T14:59:42.049Z</time></trkpt><trkpt lat="43.1750113" lon="12.327481"><ele>291.2</ele><time>2026-04-04T14:59:43.046Z</time></trkpt><trkpt lat="43.1749366" lon="12.327361"><ele>290.6</ele><time>2026-04-04T14:59:44.056Z</time></trkpt><trkpt lat="43.1748639" lon="12.3272313"><ele>290.0</ele><time>2026-04-04T14:59:45.052Z</time></trkpt><trkpt lat="43.1747909" lon="12.32711"><ele>289.25</ele><time>2026-04-04T14:59:46.05Z</time></trkpt><trkpt lat="43.1747168" lon="12.3269896"><ele>288.5</ele><time>2026-04-04T14:59:47.049Z</time></trkpt><trkpt lat="43.1746446" lon="12.3268604"><ele>287.75</ele><time>2026-04-04T14:59:48.05Z</time></trkpt><trkpt lat="43.1745727" lon="12.326741"><ele>287.0</ele><time>2026-04-04T14:59:49.053Z</time></trkpt><trkpt lat="43.1745054" lon="12.3266068"><ele>287.0</ele><time>2026-04-04T14:59:50.055Z</time></trkpt><trkpt lat="43.1744481" lon="12.3264667"><ele>287.0</ele><time>2026-04-04T14:59:51.044Z</time></trkpt><trkpt lat="43.1743894" lon="12.326319"><ele>287.0</ele><time>2026-04-04T14:59:52.048Z</time></trkpt><trkpt lat="43.174322" lon="12.3261651"><ele>287.0</ele><time>2026-04-04T14:59:53.042Z</time></trkpt><trkpt lat="43.1742549" lon="12.3260077"><ele>286.0</ele><time>2026-04-04T14:59:54.045Z</time></trkpt><trkpt lat="43.1741877" lon="12.325848"><ele>285.0</ele><time>2026-04-04T14:59:55.059Z</time></trkpt><trkpt lat="43.1741156" lon="12.325686"><ele>284.0</ele><time>2026-04-04T14:59:56.037Z</time></trkpt><trkpt lat="43.174037" lon="12.3255184"><ele>283.0</ele><time>2026-04-04T14:59:57.043Z</time></trkpt><trkpt lat="43.1739495" lon="12.3253546"><ele>281.75</ele><time>2026-04-04T14:59:58.051Z</time></trkpt><trkpt lat="43.1738621" lon="12.3252023"><ele>280.5</ele><time>2026-04-04T14:59:59.042Z</time></trkpt><trkpt lat="43.1737786" lon="12.3250518"><ele>279.25</ele><time>2026-04-04T15:00:00.048Z</time></trkpt><trkpt lat="43.1737074" lon="12.3249104"><ele>278.0</ele><time>2026-04-04T15:00:01.052Z</time></trkpt><trkpt lat="43.1736481" lon="12.324784"><ele>277.83333333333337</ele><time>2026-04-04T15:00:02.055Z</time></trkpt><trkpt lat="43.1736037" lon="12.3246567"><ele>277.6666666666667</ele><time>2026-04-04T15:00:03.056Z</time></trkpt><trkpt lat="43.1735774" lon="12.3245338"><ele>277.5</ele><time>2026-04-04T15:00:04.043Z</time></trkpt><trkpt lat="43.173569" lon="12.3244245"><ele>277.3333333333333</ele><time>2026-04-04T15:00:05.047Z</time></trkpt><trkpt lat="43.1735758" lon="12.3243098"><ele>277.16666666666663</ele><time>2026-04-04T15:00:06.054Z</time></trkpt><trkpt lat="43.173575" lon="12.3241955"><ele>277.0</ele><time>2026-04-04T15:00:07.048Z</time></trkpt><trkpt lat="43.1735617" lon="12.3240551"><ele>277.0</ele><time>2026-04-04T15:00:08.051Z</time></trkpt><trkpt lat="43.1735425" lon="12.3239133"><ele>277.0</ele><time>2026-04-04T15:00:09.051Z</time></trkpt><trkpt lat="43.1735208" lon="12.3237664"><ele>277.0</ele><time>2026-04-04T15:00:10.066Z</time></trkpt><trkpt lat="43.1734928" lon="12.3236133"><ele>277.0</ele><time>2026-04-04T15:00:11.049Z</time></trkpt><trkpt lat="43.1734595" lon="12.3234618"><ele>277.0</ele><time>2026-04-04T15:00:12.049Z</time></trkpt><trkpt lat="43.1734206" lon="12.3233123"><ele>276.5</ele><time>2026-04-04T15:00:13.045Z</time></trkpt><trkpt lat="43.1733777" lon="12.3231615"><ele>276.0</ele><time>2026-04-04T15:00:14.054Z</time></trkpt><trkpt lat="43.173333" lon="12.3230051"><ele>275.5</ele><time>2026-04-04T15:00:15.039Z</time></trkpt><trkpt lat="43.1732949" lon="12.3228512"><ele>275.0</ele><time>2026-04-04T15:00:16.045Z</time></trkpt><trkpt lat="43.1732554" lon="12.3226949"><ele>274.2</ele><time>2026-04-04T15:00:17.046Z</time></trkpt><trkpt lat="43.1732142" lon="12.3225485"><ele>273.4</ele><time>2026-04-04T15:00:18.047Z</time></trkpt><trkpt lat="43.173177" lon="12.3224077"><ele>272.6</ele><time>2026-04-04T15:00:19.053Z</time></trkpt><trkpt lat="43.1731467" lon="12.322265"><ele>271.8</ele><time>2026-04-04T15:00:20.042Z</time></trkpt><trkpt lat="43.1731135" lon="12.3221408"><ele>271.0</ele><time>2026-04-04T15:00:21.056Z</time></trkpt><trkpt lat="43.1730863" lon="12.322019"><ele>270.6</ele><time>2026-04-04T15:00:22.048Z</time></trkpt><trkpt lat="43.1730627" lon="12.3218993"><ele>270.20000000000005</ele><time>2026-04-04T15:00:23.051Z</time></trkpt><trkpt lat="43.1730289" lon="12.321762"><ele>269.79999999999995</ele><time>2026-04-04T15:00:24.037Z</time></trkpt><trkpt lat="43.1729837" lon="12.3216187"><ele>269.4</ele><time>2026-04-04T15:00:25.052Z</time></trkpt><trkpt lat="43.1729393" lon="12.3214751"><ele>269.0</ele><time>2026-04-04T15:00:26.045Z</time></trkpt><trkpt lat="43.1728949" lon="12.3213203"><ele>268.4</ele><time>2026-04-04T15:00:27.048Z</time></trkpt><trkpt lat="43.1728596" lon="12.32116"><ele>267.79999999999995</ele><time>2026-04-04T15:00:28.042Z</time></trkpt><trkpt lat="43.1728324" lon="12.3210126"><ele>267.20000000000005</ele><time>2026-04-04T15:00:29.046Z</time></trkpt><trkpt lat="43.17281" lon="12.3208797"><ele>266.6</ele><time>2026-04-04T15:00:30.055Z</time></trkpt><trkpt lat="43.1727879" lon="12.3207467"><ele>266.0</ele><time>2026-04-04T15:00:31.044Z</time></trkpt><trkpt lat="43.1727755" lon="12.3206088"><ele>265.75</ele><time>2026-04-04T15:00:32.045Z</time></trkpt><trkpt lat="43.1727845" lon="12.3204629"><ele>265.5</ele><time>2026-04-04T15:00:33.062Z</time></trkpt><trkpt lat="43.1728015" lon="12.3203087"><ele>265.25</ele><time>2026-04-04T15:00:34.055Z</time></trkpt><trkpt lat="43.1728252" lon="12.3201417"><ele>265.0</ele><time>2026-04-04T15:00:35.046Z</time></trkpt><trkpt lat="43.172849" lon="12.3199675"><ele>265.0</ele><time>2026-04-04T15:00:36.053Z</time></trkpt><trkpt lat="43.1728804" lon="12.3198013"><ele>265.0</ele><time>2026-04-04T15:00:37.042Z</time></trkpt><trkpt lat="43.1729057" lon="12.3196375"><ele>265.0</ele><time>2026-04-04T15:00:38.043Z</time></trkpt><trkpt lat="43.1729155" lon="12.3194882"><ele>265.0</ele><time>2026-04-04T15:00:39.05Z</time></trkpt><trkpt lat="43.1729241" lon="12.3193417"><ele>265.2</ele><time>2026-04-04T15:00:40.055Z</time></trkpt><trkpt lat="43.1729209" lon="12.3192131"><ele>265.4</ele><time>2026-04-04T15:00:41.05Z</time></trkpt><trkpt lat="43.1729063" lon="12.3190985"><ele>265.6</ele><time>2026-04-04T15:00:42.049Z</time></trkpt><trkpt lat="43.1728738" lon="12.3189931"><ele>265.8</ele><time>2026-04-04T15:00:43.049Z</time></trkpt><trkpt lat="43.1728303" lon="12.3188834"><ele>266.0</ele><time>2026-04-04T15:00:44.049Z</time></trkpt><trkpt lat="43.1727654" lon="12.3187739"><ele>266.0</ele><time>2026-04-04T15:00:45.035Z</time></trkpt><trkpt lat="43.1726756" lon="12.3186789"><ele>266.0</ele><time>2026-04-04T15:00:46.043Z</time></trkpt><trkpt lat="43.1725881" lon="12.3185765"><ele>266.0</ele><time>2026-04-04T15:00:47.044Z</time></trkpt><trkpt lat="43.1725071" lon="12.3184667"><ele>266.0</ele><time>2026-04-04T15:00:48.054Z</time></trkpt><trkpt lat="43.1724371" lon="12.31836"><ele>266.0</ele><time>2026-04-04T15:00:49.055Z</time></trkpt><trkpt lat="43.1723737" lon="12.3182696"><ele>266.1666666666667</ele><time>2026-04-04T15:00:50.052Z</time></trkpt><trkpt lat="43.1723168" lon="12.3181871"><ele>266.33333333333337</ele><time>2026-04-04T15:00:51.051Z</time></trkpt><trkpt lat="43.1722719" lon="12.3181189"><ele>266.5</ele><time>2026-04-04T15:00:52.049Z</time></trkpt><trkpt lat="43.1722303" lon="12.3180537"><ele>266.6666666666667</ele><time>2026-04-04T15:00:57.045Z</time></trkpt><trkpt lat="43.1722712" lon="12.3179316"><ele>266.8333333333333</ele><time>2026-04-04T15:00:59.05Z</time></trkpt><trkpt lat="43.1723286" lon="12.3178559"><ele>267.0</ele><time>2026-04-04T15:01:00.047Z</time></trkpt><trkpt lat="43.1723944" lon="12.3177748"><ele>267.0</ele><time>2026-04-04T15:01:01.041Z</time></trkpt><trkpt lat="43.1724688" lon="12.3177048"><ele>267.0</ele><time>2026-04-04T15:01:02.04Z</time></trkpt><trkpt lat="43.1725501" lon="12.3176254"><ele>267.0</ele><time>2026-04-04T15:01:03.053Z</time></trkpt><trkpt lat="43.1726385" lon="12.3175411"><ele>267.0</ele><time>2026-04-04T15:01:04.045Z</time></trkpt><trkpt lat="43.1727223" lon="12.3174578"><ele>267.0</ele><time>2026-04-04T15:01:05.038Z</time></trkpt><trkpt lat="43.1727961" lon="12.3173733"><ele>267.0</ele><time>2026-04-04T15:01:06.037Z</time></trkpt><trkpt lat="43.1728654" lon="12.3172973"><ele>267.0</ele><time>2026-04-04T15:01:07.045Z</time></trkpt><trkpt lat="43.1729405" lon="12.3172374"><ele>267.0</ele><time>2026-04-04T15:01:08.045Z</time></trkpt><trkpt lat="43.1730413" lon="12.3172194"><ele>267.0</ele><time>2026-04-04T15:01:09.055Z</time></trkpt><trkpt lat="43.1731622" lon="12.3172391"><ele>267.0</ele><time>2026-04-04T15:01:10.044Z</time></trkpt><trkpt lat="43.1732906" lon="12.3172691"><ele>267.5</ele><time>2026-04-04T15:01:11.049Z</time></trkpt><trkpt lat="43.1734081" lon="12.3173104"><ele>268.0</ele><time>2026-04-04T15:01:12.043Z</time></trkpt><trkpt lat="43.1735235" lon="12.3173481"><ele>268.5</ele><time>2026-04-04T15:01:13.036Z</time></trkpt><trkpt lat="43.1736396" lon="12.3173813"><ele>269.0</ele><time>2026-04-04T15:01:14.044Z</time></trkpt><trkpt lat="43.1737596" lon="12.3174254"><ele>269.0</ele><time>2026-04-04T15:01:15.042Z</time></trkpt><trkpt lat="43.1738859" lon="12.3174746"><ele>269.0</ele><time>2026-04-04T15:01:16.043Z</time></trkpt><trkpt lat="43.1740135" lon="12.3175142"><ele>269.0</ele><time>2026-04-04T15:01:17.04Z</time></trkpt><trkpt lat="43.1741454" lon="12.3175632"><ele>269.0</ele><time>2026-04-04T15:01:18.04Z</time></trkpt><trkpt lat="43.174292" lon="12.3176202"><ele>268.6666666666667</ele><time>2026-04-04T15:01:19.04Z</time></trkpt><trkpt lat="43.1744479" lon="12.3176763"><ele>268.3333333333333</ele><time>2026-04-04T15:01:20.04Z</time></trkpt><trkpt lat="43.174612" lon="12.3177312"><ele>268.0</ele><time>2026-04-04T15:01:21.053Z</time></trkpt><trkpt lat="43.1747785" lon="12.3177936"><ele>267.3333333333333</ele><time>2026-04-04T15:01:22.047Z</time></trkpt><trkpt lat="43.1749329" lon="12.3178474"><ele>266.6666666666667</ele><time>2026-04-04T15:01:23.049Z</time></trkpt><trkpt lat="43.1750852" lon="12.3179052"><ele>266.0</ele><time>2026-04-04T15:01:24.043Z</time></trkpt><trkpt lat="43.175235" lon="12.3179566"><ele>266.0</ele><time>2026-04-04T15:01:25.043Z</time></trkpt><trkpt lat="43.1753896" lon="12.3180119"><ele>266.0</ele><time>2026-04-04T15:01:26.042Z</time></trkpt><trkpt lat="43.1755459" lon="12.3180596"><ele>266.0</ele><time>2026-04-04T15:01:27.045Z</time></trkpt><trkpt lat="43.1757009" lon="12.3181055"><ele>267.6666666666667</ele><time>2026-04-04T15:01:28.044Z</time></trkpt><trkpt lat="43.1758524" lon="12.3181398"><ele>269.3333333333333</ele><time>2026-04-04T15:01:29.036Z</time></trkpt><trkpt lat="43.1760071" lon="12.3181676"><ele>271.0</ele><time>2026-04-04T15:01:30.044Z</time></trkpt><trkpt lat="43.1761589" lon="12.3181941"><ele>271.0</ele><time>2026-04-04T15:01:31.045Z</time></trkpt><trkpt lat="43.1763057" lon="12.3182171"><ele>271.0</ele><time>2026-04-04T15:01:32.041Z</time></trkpt><trkpt lat="43.1764601" lon="12.3182487"><ele>271.0</ele><time>2026-04-04T15:01:33.043Z</time></trkpt><trkpt lat="43.1766177" lon="12.3182809"><ele>270.66666666666663</ele><time>2026-04-04T15:01:34.043Z</time></trkpt><trkpt lat="43.1767787" lon="12.3183119"><ele>270.3333333333333</ele><time>2026-04-04T15:01:35.046Z</time></trkpt><trkpt lat="43.1769432" lon="12.3183378"><ele>270.0</ele><time>2026-04-04T15:01:36.049Z</time></trkpt><trkpt lat="43.1771042" lon="12.318389"><ele>270.0</ele><time>2026-04-04T15:01:37.05Z</time></trkpt><trkpt lat="43.177265" lon="12.3184572"><ele>270.0</ele><time>2026-04-04T15:01:38.037Z</time></trkpt><trkpt lat="43.1774236" lon="12.3185378"><ele>270.0</ele><time>2026-04-04T15:01:39.056Z</time></trkpt><trkpt lat="43.1775803" lon="12.3186216"><ele>270.0</ele><time>2026-04-04T15:01:40.043Z</time></trkpt><trkpt lat="43.1777359" lon="12.3187048"><ele>270.0</ele><time>2026-04-04T15:01:41.065Z</time></trkpt><trkpt lat="43.1778854" lon="12.3187895"><ele>270.0</ele><time>2026-04-04T15:01:42.047Z</time></trkpt><trkpt lat="43.178034" lon="12.3188726"><ele>271.6666666666667</ele><time>2026-04-04T15:01:43.046Z</time></trkpt><trkpt lat="43.1781859" lon="12.3189426"><ele>273.33333333333337</ele><time>2026-04-04T15:01:44.038Z</time></trkpt><trkpt lat="43.1783446" lon="12.3190071"><ele>275.0</ele><time>2026-04-04T15:01:45.081Z</time></trkpt><trkpt lat="43.1785197" lon="12.3190398"><ele>275.0</ele><time>2026-04-04T15:01:46.053Z</time></trkpt><trkpt lat="43.1786914" lon="12.319057"><ele>275.0</ele><time>2026-04-04T15:01:47.045Z</time></trkpt><trkpt lat="43.1788572" lon="12.319062"><ele>275.0</ele><time>2026-04-04T15:01:48.044Z</time></trkpt><trkpt lat="43.1790169" lon="12.3190459"><ele>274.6666666666667</ele><time>2026-04-04T15:01:49.04Z</time></trkpt><trkpt lat="43.1791803" lon="12.3190185"><ele>274.3333333333333</ele><time>2026-04-04T15:01:50.053Z</time></trkpt><trkpt lat="43.179347" lon="12.318964"><ele>274.0</ele><time>2026-04-04T15:01:51.044Z</time></trkpt><trkpt lat="43.1795144" lon="12.3188778"><ele>273.3333333333333</ele><time>2026-04-04T15:01:52.039Z</time></trkpt><trkpt lat="43.1796865" lon="12.3187772"><ele>272.6666666666667</ele><time>2026-04-04T15:01:53.048Z</time></trkpt><trkpt lat="43.1798598" lon="12.3186797"><ele>272.0</ele><time>2026-04-04T15:01:54.052Z</time></trkpt><trkpt lat="43.1800369" lon="12.3185884"><ele>272.0</ele><time>2026-04-04T15:01:55.045Z</time></trkpt><trkpt lat="43.1802195" lon="12.3185005"><ele>272.0</ele><time>2026-04-04T15:01:56.044Z</time></trkpt><trkpt lat="43.1803976" lon="12.3184335"><ele>272.0</ele><time>2026-04-04T15:01:57.034Z</time></trkpt><trkpt lat="43.1805778" lon="12.3183822"><ele>273.33333333333337</ele><time>2026-04-04T15:01:58.043Z</time></trkpt><trkpt lat="43.180767" lon="12.3183399"><ele>274.6666666666667</ele><time>2026-04-04T15:01:59.034Z</time></trkpt><trkpt lat="43.1809491" lon="12.3182923"><ele>276.0</ele><time>2026-04-04T15:02:00.046Z</time></trkpt><trkpt lat="43.1811264" lon="12.3182281"><ele>276.0</ele><time>2026-04-04T15:02:01.042Z</time></trkpt><trkpt lat="43.1812985" lon="12.3181642"><ele>276.0</ele><time>2026-04-04T15:02:02.048Z</time></trkpt><trkpt lat="43.1814719" lon="12.3181034"><ele>276.0</ele><time>2026-04-04T15:02:03.048Z</time></trkpt><trkpt lat="43.1816446" lon="12.318058"><ele>276.0</ele><time>2026-04-04T15:02:04.04Z</time></trkpt><trkpt lat="43.1818209" lon="12.3180023"><ele>276.0</ele><time>2026-04-04T15:02:05.04Z</time></trkpt><trkpt lat="43.181994" lon="12.3179376"><ele>276.0</ele><time>2026-04-04T15:02:06.041Z</time></trkpt><trkpt lat="43.1821669" lon="12.3178541"><ele>276.0</ele><time>2026-04-04T15:02:07.04Z</time></trkpt><trkpt lat="43.1823387" lon="12.3177561"><ele>276.0</ele><time>2026-04-04T15:02:08.048Z</time></trkpt><trkpt lat="43.1825174" lon="12.3176518"><ele>276.0</ele><time>2026-04-04T15:02:09.05Z</time></trkpt><trkpt lat="43.1826986" lon="12.3175573"><ele>276.3333333333333</ele><time>2026-04-04T15:02:10.048Z</time></trkpt><trkpt lat="43.1828788" lon="12.3174729"><ele>276.66666666666663</ele><time>2026-04-04T15:02:11.036Z</time></trkpt><trkpt lat="43.1830583" lon="12.317394"><ele>277.0</ele><time>2026-04-04T15:02:12.048Z</time></trkpt><trkpt lat="43.1832439" lon="12.3173275"><ele>277.0</ele><time>2026-04-04T15:02:13.042Z</time></trkpt><trkpt lat="43.1834315" lon="12.3172698"><ele>277.0</ele><time>2026-04-04T15:02:14.04Z</time></trkpt><trkpt lat="43.1836208" lon="12.3172088"><ele>277.0</ele><time>2026-04-04T15:02:15.043Z</time></trkpt><trkpt lat="43.183808" lon="12.3171536"><ele>278.0</ele><time>2026-04-04T15:02:16.041Z</time></trkpt><trkpt lat="43.1839932" lon="12.3171153"><ele>279.0</ele><time>2026-04-04T15:02:17.036Z</time></trkpt><trkpt lat="43.1841814" lon="12.3170897"><ele>280.0</ele><time>2026-04-04T15:02:18.041Z</time></trkpt><trkpt lat="43.184375" lon="12.3170813"><ele>281.0</ele><time>2026-04-04T15:02:19.046Z</time></trkpt><trkpt lat="43.1845658" lon="12.3170828"><ele>282.0</ele><time>2026-04-04T15:02:20.035Z</time></trkpt><trkpt lat="43.1847538" lon="12.3171112"><ele>283.0</ele><time>2026-04-04T15:02:21.044Z</time></trkpt><trkpt lat="43.1849402" lon="12.3171576"><ele>282.0</ele><time>2026-04-04T15:02:22.048Z</time></trkpt><trkpt lat="43.1851187" lon="12.317237"><ele>281.0</ele><time>2026-04-04T15:02:23.051Z</time></trkpt><trkpt lat="43.1853084" lon="12.3172976"><ele>280.0</ele><time>2026-04-04T15:02:24.043Z</time></trkpt><trkpt lat="43.185486" lon="12.3173675"><ele>280.0</ele><time>2026-04-04T15:02:25.037Z</time></trkpt><trkpt lat="43.1856534" lon="12.3174335"><ele>280.0</ele><time>2026-04-04T15:02:26.042Z</time></trkpt><trkpt lat="43.1858054" lon="12.3175022"><ele>280.0</ele><time>2026-04-04T15:02:27.039Z</time></trkpt><trkpt lat="43.1859577" lon="12.3175715"><ele>280.0</ele><time>2026-04-04T15:02:28.031Z</time></trkpt><trkpt lat="43.1861048" lon="12.3176453"><ele>280.0</ele><time>2026-04-04T15:02:29.039Z</time></trkpt><trkpt lat="43.1862475" lon="12.3177168"><ele>280.0</ele><time>2026-04-04T15:02:30.041Z</time></trkpt><trkpt lat="43.1863921" lon="12.3177841"><ele>280.25</ele><time>2026-04-04T15:02:31.043Z</time></trkpt><trkpt lat="43.1865355" lon="12.3178509"><ele>280.5</ele><time>2026-04-04T15:02:32.046Z</time></trkpt><trkpt lat="43.1866742" lon="12.3179152"><ele>280.75</ele><time>2026-04-04T15:02:33.044Z</time></trkpt><trkpt lat="43.1868029" lon="12.3179689"><ele>281.0</ele><time>2026-04-04T15:02:34.036Z</time></trkpt><trkpt lat="43.1869253" lon="12.3180251"><ele>281.0</ele><time>2026-04-04T15:02:35.043Z</time></trkpt><trkpt lat="43.1870473" lon="12.3180782"><ele>281.0</ele><time>2026-04-04T15:02:36.04Z</time></trkpt><trkpt lat="43.1871697" lon="12.3181283"><ele>281.0</ele><time>2026-04-04T15:02:37.038Z</time></trkpt><trkpt lat="43.1872842" lon="12.3181898"><ele>281.0</ele><time>2026-04-04T15:02:38.048Z</time></trkpt><trkpt lat="43.1873963" lon="12.3182371"><ele>281.40000000000003</ele><time>2026-04-04T15:02:39.039Z</time></trkpt><trkpt lat="43.187497" lon="12.3182871"><ele>281.8</ele><time>2026-04-04T15:02:40.05Z</time></trkpt><trkpt lat="43.1875951" lon="12.3183335"><ele>282.20000000000005</ele><time>2026-04-04T15:02:41.049Z</time></trkpt><trkpt lat="43.1876943" lon="12.3183767"><ele>282.6</ele><time>2026-04-04T15:02:42.046Z</time></trkpt><trkpt lat="43.1877898" lon="12.3184207"><ele>283.0</ele><time>2026-04-04T15:02:43.045Z</time></trkpt><trkpt lat="43.1878824" lon="12.3184695"><ele>283.0</ele><time>2026-04-04T15:02:44.039Z</time></trkpt><trkpt lat="43.1879817" lon="12.3185102"><ele>283.0</ele><time>2026-04-04T15:02:45.041Z</time></trkpt><trkpt lat="43.1880855" lon="12.3185541"><ele>283.0</ele><time>2026-04-04T15:02:46.033Z</time></trkpt><trkpt lat="43.1881842" lon="12.3186041"><ele>283.0</ele><time>2026-04-04T15:02:47.038Z</time></trkpt><trkpt lat="43.1882912" lon="12.3186573"><ele>283.0</ele><time>2026-04-04T15:02:48.048Z</time></trkpt><trkpt lat="43.1883958" lon="12.3187018"><ele>283.0</ele><time>2026-04-04T15:02:49.045Z</time></trkpt><trkpt lat="43.1884927" lon="12.3187477"><ele>283.0</ele><time>2026-04-04T15:02:50.038Z</time></trkpt><trkpt lat="43.1885777" lon="12.3188029"><ele>283.0</ele><time>2026-04-04T15:02:51.044Z</time></trkpt><trkpt lat="43.1886483" lon="12.3188631"><ele>283.0</ele><time>2026-04-04T15:02:52.042Z</time></trkpt><trkpt lat="43.1887068" lon="12.3189412"><ele>283.0</ele><time>2026-04-04T15:02:53.037Z</time></trkpt><trkpt lat="43.1887396" lon="12.3190278"><ele>283.0</ele><time>2026-04-04T15:02:54.042Z</time></trkpt><trkpt lat="43.1887545" lon="12.3191164"><ele>283.16666666666663</ele><time>2026-04-04T15:02:55.041Z</time></trkpt><trkpt lat="43.1887745" lon="12.3191983"><ele>283.3333333333333</ele><time>2026-04-04T15:02:56.038Z</time></trkpt><trkpt lat="43.1887941" lon="12.3193348"><ele>283.5</ele><time>2026-04-04T15:02:58.042Z</time></trkpt><trkpt lat="43.1888465" lon="12.3194645"><ele>283.6666666666667</ele><time>2026-04-04T15:03:00.044Z</time></trkpt><trkpt lat="43.1889054" lon="12.3195047"><ele>283.83333333333337</ele><time>2026-04-04T15:03:01.034Z</time></trkpt><trkpt lat="43.1889752" lon="12.3195425"><ele>284.0</ele><time>2026-04-04T15:03:02.039Z</time></trkpt><trkpt lat="43.1890581" lon="12.3195903"><ele>284.4</ele><time>2026-04-04T15:03:03.036Z</time></trkpt><trkpt lat="43.1891553" lon="12.3196374"><ele>284.79999999999995</ele><time>2026-04-04T15:03:04.043Z</time></trkpt><trkpt lat="43.1892513" lon="12.3196849"><ele>285.20000000000005</ele><time>2026-04-04T15:03:05.041Z</time></trkpt><trkpt lat="43.1893477" lon="12.3197397"><ele>285.6</ele><time>2026-04-04T15:03:06.046Z</time></trkpt><trkpt lat="43.1894391" lon="12.3198064"><ele>286.0</ele><time>2026-04-04T15:03:07.049Z</time></trkpt><trkpt lat="43.1895358" lon="12.319873"><ele>286.2</ele><time>2026-04-04T15:03:08.04Z</time></trkpt><trkpt lat="43.1896312" lon="12.3199355"><ele>286.40000000000003</ele><time>2026-04-04T15:03:09.038Z</time></trkpt><trkpt lat="43.1897216" lon="12.3199948"><ele>286.6</ele><time>2026-04-04T15:03:10.039Z</time></trkpt><trkpt lat="43.1898151" lon="12.3200554"><ele>286.8</ele><time>2026-04-04T15:03:11.047Z</time></trkpt><trkpt lat="43.1899089" lon="12.3201146"><ele>287.0</ele><time>2026-04-04T15:03:12.047Z</time></trkpt><trkpt lat="43.1900151" lon="12.320175"><ele>287.0</ele><time>2026-04-04T15:03:13.03Z</time></trkpt><trkpt lat="43.1901111" lon="12.320231"><ele>287.0</ele><time>2026-04-04T15:03:14.043Z</time></trkpt><trkpt lat="43.19021" lon="12.320295"><ele>287.0</ele><time>2026-04-04T15:03:15.042Z</time></trkpt><trkpt lat="43.1903126" lon="12.3203552"><ele>287.0</ele><time>2026-04-04T15:03:16.035Z</time></trkpt><trkpt lat="43.1904083" lon="12.3204164"><ele>287.0</ele><time>2026-04-04T15:03:17.038Z</time></trkpt><trkpt lat="43.1905147" lon="12.3204653"><ele>287.0</ele><time>2026-04-04T15:03:18.044Z</time></trkpt><trkpt lat="43.1906215" lon="12.3205145"><ele>287.0</ele><time>2026-04-04T15:03:19.03Z</time></trkpt><trkpt lat="43.1907365" lon="12.320557"><ele>287.0</ele><time>2026-04-04T15:03:20.05Z</time></trkpt><trkpt lat="43.1908579" lon="12.3205943"><ele>287.0</ele><time>2026-04-04T15:03:21.051Z</time></trkpt><trkpt lat="43.1909779" lon="12.3206263"><ele>288.25</ele><time>2026-04-04T15:03:22.038Z</time></trkpt><trkpt lat="43.1910991" lon="12.3206419"><ele>289.5</ele><time>2026-04-04T15:03:23.038Z</time></trkpt><trkpt lat="43.1912248" lon="12.3206431"><ele>290.75</ele><time>2026-04-04T15:03:24.042Z</time></trkpt><trkpt lat="43.1913533" lon="12.3206355"><ele>292.0</ele><time>2026-04-04T15:03:25.044Z</time></trkpt><trkpt lat="43.1914821" lon="12.3206294"><ele>291.5</ele><time>2026-04-04T15:03:26.036Z</time></trkpt><trkpt lat="43.1916159" lon="12.3206243"><ele>291.0</ele><time>2026-04-04T15:03:27.038Z</time></trkpt><trkpt lat="43.1917461" lon="12.3206132"><ele>290.5</ele><time>2026-04-04T15:03:28.057Z</time></trkpt><trkpt lat="43.1918849" lon="12.3205964"><ele>290.0</ele><time>2026-04-04T15:03:29.045Z</time></trkpt><trkpt lat="43.1920275" lon="12.320588"><ele>290.0</ele><time>2026-04-04T15:03:30.039Z</time></trkpt><trkpt lat="43.1921627" lon="12.3205839"><ele>290.0</ele><time>2026-04-04T15:03:31.038Z</time></trkpt><trkpt lat="43.1922976" lon="12.3205765"><ele>290.0</ele><time>2026-04-04T15:03:32.04Z</time></trkpt><trkpt lat="43.1924357" lon="12.3205596"><ele>290.0</ele><time>2026-04-04T15:03:33.046Z</time></trkpt><trkpt lat="43.1925777" lon="12.3205479"><ele>289.75</ele><time>2026-04-04T15:03:34.042Z</time></trkpt><trkpt lat="43.1927179" lon="12.3205385"><ele>289.5</ele><time>2026-04-04T15:03:35.053Z</time></trkpt><trkpt lat="43.1928551" lon="12.3205242"><ele>289.25</ele><time>2026-04-04T15:03:36.042Z</time></trkpt><trkpt lat="43.1929908" lon="12.3205118"><ele>289.0</ele><time>2026-04-04T15:03:37.042Z</time></trkpt><trkpt lat="43.1931182" lon="12.3205112"><ele>290.0</ele><time>2026-04-04T15:03:38.046Z</time></trkpt><trkpt lat="43.1932313" lon="12.3205051"><ele>291.0</ele><time>2026-04-04T15:03:39.045Z</time></trkpt><trkpt lat="43.1933445" lon="12.3204985"><ele>292.0</ele><time>2026-04-04T15:03:40.039Z</time></trkpt><trkpt lat="43.1934579" lon="12.320484"><ele>293.0</ele><time>2026-04-04T15:03:41.043Z</time></trkpt><trkpt lat="43.1935749" lon="12.3204684"><ele>293.0</ele><time>2026-04-04T15:03:42.033Z</time></trkpt><trkpt lat="43.193702" lon="12.3204582"><ele>293.0</ele><time>2026-04-04T15:03:43.042Z</time></trkpt><trkpt lat="43.1938315" lon="12.3204517"><ele>293.0</ele><time>2026-04-04T15:03:44.031Z</time></trkpt><trkpt lat="43.1939656" lon="12.3204498"><ele>293.0</ele><time>2026-04-04T15:03:45.032Z</time></trkpt><trkpt lat="43.1941079" lon="12.3204358"><ele>293.0</ele><time>2026-04-04T15:03:46.039Z</time></trkpt><trkpt lat="43.1942666" lon="12.3204231"><ele>293.0</ele><time>2026-04-04T15:03:47.032Z</time></trkpt><trkpt lat="43.194439" lon="12.3204082"><ele>293.0</ele><time>2026-04-04T15:03:48.039Z</time></trkpt><trkpt lat="43.1946156" lon="12.3203982"><ele>293.0</ele><time>2026-04-04T15:03:49.041Z</time></trkpt><trkpt lat="43.1948075" lon="12.3203855"><ele>293.0</ele><time>2026-04-04T15:03:50.041Z</time></trkpt><trkpt lat="43.1950131" lon="12.3203679"><ele>293.0</ele><time>2026-04-04T15:03:51.035Z</time></trkpt><trkpt lat="43.1952238" lon="12.320358"><ele>293.6666666666667</ele><time>2026-04-04T15:03:52.033Z</time></trkpt><trkpt lat="43.195429" lon="12.3203559"><ele>294.3333333333333</ele><time>2026-04-04T15:03:53.038Z</time></trkpt><trkpt lat="43.1956252" lon="12.3203618"><ele>295.0</ele><time>2026-04-04T15:03:54.045Z</time></trkpt><trkpt lat="43.1958199" lon="12.3203773"><ele>295.0</ele><time>2026-04-04T15:03:55.038Z</time></trkpt><trkpt lat="43.1960206" lon="12.3203949"><ele>295.0</ele><time>2026-04-04T15:03:56.037Z</time></trkpt><trkpt lat="43.1962164" lon="12.320436"><ele>295.0</ele><time>2026-04-04T15:03:57.044Z</time></trkpt><trkpt lat="43.196405" lon="12.320435"><ele>295.66666666666663</ele><time>2026-04-04T15:03:58.043Z</time></trkpt><trkpt lat="43.1965879" lon="12.3204004"><ele>296.3333333333333</ele><time>2026-04-04T15:03:59.059Z</time></trkpt><trkpt lat="43.1967815" lon="12.32035"><ele>297.0</ele><time>2026-04-04T15:04:00.034Z</time></trkpt><trkpt lat="43.1969651" lon="12.3202659"><ele>297.0</ele><time>2026-04-04T15:04:01.036Z</time></trkpt><trkpt lat="43.1971345" lon="12.3201506"><ele>297.0</ele><time>2026-04-04T15:04:02.036Z</time></trkpt><trkpt lat="43.1973012" lon="12.3200512"><ele>297.0</ele><time>2026-04-04T15:04:03.041Z</time></trkpt><trkpt lat="43.1974666" lon="12.3199545"><ele>297.0</ele><time>2026-04-04T15:04:04.034Z</time></trkpt><trkpt lat="43.1976289" lon="12.3198557"><ele>297.0</ele><time>2026-04-04T15:04:05.036Z</time></trkpt><trkpt lat="43.1977886" lon="12.3197613"><ele>297.0</ele><time>2026-04-04T15:04:06.043Z</time></trkpt><trkpt lat="43.1979551" lon="12.3196733"><ele>297.0</ele><time>2026-04-04T15:04:07.035Z</time></trkpt><trkpt lat="43.198128" lon="12.3195986"><ele>297.0</ele><time>2026-04-04T15:04:08.032Z</time></trkpt><trkpt lat="43.1983025" lon="12.3195375"><ele>297.0</ele><time>2026-04-04T15:04:09.046Z</time></trkpt><trkpt lat="43.198475" lon="12.3194715"><ele>298.0</ele><time>2026-04-04T15:04:10.036Z</time></trkpt><trkpt lat="43.1986521" lon="12.3194165"><ele>299.0</ele><time>2026-04-04T15:04:11.031Z</time></trkpt><trkpt lat="43.1988311" lon="12.3193583"><ele>300.0</ele><time>2026-04-04T15:04:12.037Z</time></trkpt><trkpt lat="43.1990065" lon="12.3192981"><ele>302.0</ele><time>2026-04-04T15:04:13.041Z</time></trkpt><trkpt lat="43.1991863" lon="12.3192337"><ele>304.0</ele><time>2026-04-04T15:04:14.046Z</time></trkpt><trkpt lat="43.1993658" lon="12.3191773"><ele>306.0</ele><time>2026-04-04T15:04:15.036Z</time></trkpt><trkpt lat="43.1995431" lon="12.3191156"><ele>306.0</ele><time>2026-04-04T15:04:16.038Z</time></trkpt><trkpt lat="43.1997244" lon="12.3190548"><ele>306.0</ele><time>2026-04-04T15:04:17.034Z</time></trkpt><trkpt lat="43.1999047" lon="12.3189934"><ele>306.0</ele><time>2026-04-04T15:04:18.038Z</time></trkpt><trkpt lat="43.2000816" lon="12.3189336"><ele>305.0</ele><time>2026-04-04T15:04:19.034Z</time></trkpt><trkpt lat="43.2002608" lon="12.3188705"><ele>304.0</ele><time>2026-04-04T15:04:20.045Z</time></trkpt><trkpt lat="43.2004478" lon="12.3188082"><ele>303.0</ele><time>2026-04-04T15:04:21.031Z</time></trkpt><trkpt lat="43.2006338" lon="12.3187463"><ele>303.3333333333333</ele><time>2026-04-04T15:04:22.037Z</time></trkpt><trkpt lat="43.2008257" lon="12.3186767"><ele>303.66666666666663</ele><time>2026-04-04T15:04:23.036Z</time></trkpt><trkpt lat="43.2010101" lon="12.3186105"><ele>304.0</ele><time>2026-04-04T15:04:24.049Z</time></trkpt><trkpt lat="43.2011985" lon="12.3185353"><ele>304.0</ele><time>2026-04-04T15:04:25.034Z</time></trkpt><trkpt lat="43.20139" lon="12.3184659"><ele>304.0</ele><time>2026-04-04T15:04:26.049Z</time></trkpt><trkpt lat="43.2015823" lon="12.3183927"><ele>304.0</ele><time>2026-04-04T15:04:27.049Z</time></trkpt><trkpt lat="43.2017741" lon="12.3183109"><ele>305.66666666666663</ele><time>2026-04-04T15:04:28.048Z</time></trkpt><trkpt lat="43.2019635" lon="12.3182205"><ele>307.3333333333333</ele><time>2026-04-04T15:04:29.039Z</time></trkpt><trkpt lat="43.202157" lon="12.3181279"><ele>309.0</ele><time>2026-04-04T15:04:30.048Z</time></trkpt><trkpt lat="43.2023525" lon="12.3180365"><ele>309.0</ele><time>2026-04-04T15:04:31.042Z</time></trkpt><trkpt lat="43.2025491" lon="12.317954"><ele>309.0</ele><time>2026-04-04T15:04:32.037Z</time></trkpt><trkpt lat="43.2027481" lon="12.3178695"><ele>309.0</ele><time>2026-04-04T15:04:33.036Z</time></trkpt><trkpt lat="43.2029356" lon="12.3177836"><ele>309.0</ele><time>2026-04-04T15:04:34.047Z</time></trkpt><trkpt lat="43.2031239" lon="12.3176807"><ele>309.0</ele><time>2026-04-04T15:04:35.051Z</time></trkpt><trkpt lat="43.2033121" lon="12.3175836"><ele>309.0</ele><time>2026-04-04T15:04:36.037Z</time></trkpt><trkpt lat="43.2035118" lon="12.3174858"><ele>310.3333333333333</ele><time>2026-04-04T15:04:37.041Z</time></trkpt><trkpt lat="43.2037071" lon="12.3173868"><ele>311.66666666666663</ele><time>2026-04-04T15:04:38.034Z</time></trkpt><trkpt lat="43.2039012" lon="12.3173004"><ele>313.0</ele><time>2026-04-04T15:04:39.035Z</time></trkpt><trkpt lat="43.2040918" lon="12.3172243"><ele>313.0</ele><time>2026-04-04T15:04:40.036Z</time></trkpt><trkpt lat="43.2042879" lon="12.317164"><ele>313.0</ele><time>2026-04-04T15:04:41.034Z</time></trkpt><trkpt lat="43.2044948" lon="12.3171229"><ele>313.0</ele><time>2026-04-04T15:04:42.04Z</time></trkpt><trkpt lat="43.2047064" lon="12.3171008"><ele>313.66666666666663</ele><time>2026-04-04T15:04:43.034Z</time></trkpt><trkpt lat="43.2049211" lon="12.3170988"><ele>314.3333333333333</ele><time>2026-04-04T15:04:44.039Z</time></trkpt><trkpt lat="43.205147" lon="12.3171113"><ele>315.0</ele><time>2026-04-04T15:04:45.033Z</time></trkpt><trkpt lat="43.2053751" lon="12.3171355"><ele>315.0</ele><time>2026-04-04T15:04:46.043Z</time></trkpt><trkpt lat="43.205605" lon="12.3171767"><ele>315.0</ele><time>2026-04-04T15:04:47.039Z</time></trkpt><trkpt lat="43.2058183" lon="12.3172351"><ele>315.0</ele><time>2026-04-04T15:04:48.033Z</time></trkpt><trkpt lat="43.2060202" lon="12.317308"><ele>317.3333333333333</ele><time>2026-04-04T15:04:49.039Z</time></trkpt><trkpt lat="43.2062159" lon="12.3174134"><ele>319.66666666666663</ele><time>2026-04-04T15:04:50.037Z</time></trkpt><trkpt lat="43.206401" lon="12.3175434"><ele>322.0</ele><time>2026-04-04T15:04:51.041Z</time></trkpt><trkpt lat="43.2065737" lon="12.3176734"><ele>322.0</ele><time>2026-04-04T15:04:52.038Z</time></trkpt><trkpt lat="43.206737" lon="12.3177896"><ele>322.0</ele><time>2026-04-04T15:04:53.039Z</time></trkpt><trkpt lat="43.2069054" lon="12.3178944"><ele>322.0</ele><time>2026-04-04T15:04:54.041Z</time></trkpt><trkpt lat="43.2070814" lon="12.317968"><ele>322.0</ele><time>2026-04-04T15:04:55.065Z</time></trkpt><trkpt lat="43.2072735" lon="12.3180023"><ele>322.0</ele><time>2026-04-04T15:04:56.034Z</time></trkpt><trkpt lat="43.2074688" lon="12.3180128"><ele>322.0</ele><time>2026-04-04T15:04:57.044Z</time></trkpt><trkpt lat="43.2076606" lon="12.3179817"><ele>322.66666666666663</ele><time>2026-04-04T15:04:58.039Z</time></trkpt><trkpt lat="43.2078404" lon="12.3179263"><ele>323.3333333333333</ele><time>2026-04-04T15:04:59.035Z</time></trkpt><trkpt lat="43.2080158" lon="12.3178605"><ele>324.0</ele><time>2026-04-04T15:05:00.036Z</time></trkpt><trkpt lat="43.2081774" lon="12.317808"><ele>326.3333333333333</ele><time>2026-04-04T15:05:01.037Z</time></trkpt><trkpt lat="43.2083378" lon="12.3177732"><ele>328.66666666666663</ele><time>2026-04-04T15:05:02.042Z</time></trkpt><trkpt lat="43.2084974" lon="12.3177434"><ele>331.0</ele><time>2026-04-04T15:05:03.035Z</time></trkpt><trkpt lat="43.2086644" lon="12.3177401"><ele>331.0</ele><time>2026-04-04T15:05:04.046Z</time></trkpt><trkpt lat="43.2088238" lon="12.3177411"><ele>331.0</ele><time>2026-04-04T15:05:05.046Z</time></trkpt><trkpt lat="43.2089732" lon="12.3177585"><ele>331.0</ele><time>2026-04-04T15:05:06.042Z</time></trkpt><trkpt lat="43.2091133" lon="12.3177991"><ele>331.0</ele><time>2026-04-04T15:05:07.04Z</time></trkpt><trkpt lat="43.2092621" lon="12.3178623"><ele>331.0</ele><time>2026-04-04T15:05:08.041Z</time></trkpt><trkpt lat="43.2094059" lon="12.3179326"><ele>331.0</ele><time>2026-04-04T15:05:09.048Z</time></trkpt><trkpt lat="43.209543" lon="12.3179975"><ele>334.66666666666663</ele><time>2026-04-04T15:05:10.034Z</time></trkpt><trkpt lat="43.2096863" lon="12.3180705"><ele>338.3333333333333</ele><time>2026-04-04T15:05:11.044Z</time></trkpt><trkpt lat="43.209832" lon="12.3181508"><ele>342.0</ele><time>2026-04-04T15:05:12.041Z</time></trkpt><trkpt lat="43.2099767" lon="12.3182456"><ele>342.0</ele><time>2026-04-04T15:05:13.042Z</time></trkpt><trkpt lat="43.2101166" lon="12.3183446"><ele>342.0</ele><time>2026-04-04T15:05:14.039Z</time></trkpt><trkpt lat="43.2102494" lon="12.3184724"><ele>342.0</ele><time>2026-04-04T15:05:15.039Z</time></trkpt><trkpt lat="43.210379" lon="12.318606"><ele>342.0</ele><time>2026-04-04T15:05:16.044Z</time></trkpt><trkpt lat="43.2104993" lon="12.3187512"><ele>342.0</ele><time>2026-04-04T15:05:17.035Z</time></trkpt><trkpt lat="43.2106198" lon="12.3189087"><ele>342.0</ele><time>2026-04-04T15:05:18.04Z</time></trkpt><trkpt lat="43.2107405" lon="12.3190769"><ele>342.0</ele><time>2026-04-04T15:05:19.042Z</time></trkpt><trkpt lat="43.2108574" lon="12.3192537"><ele>342.0</ele><time>2026-04-04T15:05:20.044Z</time></trkpt><trkpt lat="43.2109687" lon="12.3194258"><ele>342.0</ele><time>2026-04-04T15:05:21.043Z</time></trkpt><trkpt lat="43.2110812" lon="12.3195885"><ele>345.0</ele><time>2026-04-04T15:05:22.034Z</time></trkpt><trkpt lat="43.2111953" lon="12.3197392"><ele>348.0</ele><time>2026-04-04T15:05:23.033Z</time></trkpt><trkpt lat="43.2113134" lon="12.3198872"><ele>351.0</ele><time>2026-04-04T15:05:24.04Z</time></trkpt><trkpt lat="43.2114387" lon="12.3200217"><ele>347.6666666666667</ele><time>2026-04-04T15:05:25.049Z</time></trkpt><trkpt lat="43.2115744" lon="12.3201494"><ele>344.33333333333337</ele><time>2026-04-04T15:05:26.043Z</time></trkpt><trkpt lat="43.2117136" lon="12.3202735"><ele>341.0</ele><time>2026-04-04T15:05:27.05Z</time></trkpt><trkpt lat="43.2118518" lon="12.3203933"><ele>341.0</ele><time>2026-04-04T15:05:28.037Z</time></trkpt><trkpt lat="43.2119916" lon="12.3205075"><ele>341.0</ele><time>2026-04-04T15:05:29.055Z</time></trkpt><trkpt lat="43.2121305" lon="12.3206188"><ele>341.0</ele><time>2026-04-04T15:05:30.044Z</time></trkpt><trkpt lat="43.2122661" lon="12.3207407"><ele>343.0</ele><time>2026-04-04T15:05:31.05Z</time></trkpt><trkpt lat="43.2123991" lon="12.3208718"><ele>345.0</ele><time>2026-04-04T15:05:32.047Z</time></trkpt><trkpt lat="43.2125324" lon="12.3210094"><ele>347.0</ele><time>2026-04-04T15:05:33.059Z</time></trkpt><trkpt lat="43.2126648" lon="12.321151"><ele>347.0</ele><time>2026-04-04T15:05:34.042Z</time></trkpt><trkpt lat="43.2127943" lon="12.3213196"><ele>347.0</ele><time>2026-04-04T15:05:35.04Z</time></trkpt><trkpt lat="43.2129089" lon="12.321502"><ele>347.0</ele><time>2026-04-04T15:05:36.047Z</time></trkpt><trkpt lat="43.2130391" lon="12.3216862"><ele>347.6666666666667</ele><time>2026-04-04T15:05:37.051Z</time></trkpt><trkpt lat="43.2131722" lon="12.3218607"><ele>348.3333333333333</ele><time>2026-04-04T15:05:38.041Z</time></trkpt><trkpt lat="43.2133002" lon="12.3220356"><ele>349.0</ele><time>2026-04-04T15:05:39.042Z</time></trkpt><trkpt lat="43.2134315" lon="12.3221995"><ele>354.0</ele><time>2026-04-04T15:05:40.047Z</time></trkpt><trkpt lat="43.2135755" lon="12.3223289"><ele>359.0</ele><time>2026-04-04T15:05:41.052Z</time></trkpt><trkpt lat="43.2137483" lon="12.3224167"><ele>364.0</ele><time>2026-04-04T15:05:42.046Z</time></trkpt><trkpt lat="43.2139198" lon="12.3224522"><ele>361.66666666666663</ele><time>2026-04-04T15:05:43.041Z</time></trkpt><trkpt lat="43.2140849" lon="12.3224689"><ele>359.3333333333333</ele><time>2026-04-04T15:05:44.034Z</time></trkpt><trkpt lat="43.214246" lon="12.3224684"><ele>357.0</ele><time>2026-04-04T15:05:45.047Z</time></trkpt><trkpt lat="43.2143942" lon="12.3224635"><ele>357.0</ele><time>2026-04-04T15:05:46.03Z</time></trkpt><trkpt lat="43.2145385" lon="12.3224661"><ele>357.0</ele><time>2026-04-04T15:05:47.042Z</time></trkpt><trkpt lat="43.2146714" lon="12.322484"><ele>357.0</ele><time>2026-04-04T15:05:48.046Z</time></trkpt><trkpt lat="43.2147917" lon="12.3225118"><ele>357.0</ele><time>2026-04-04T15:05:49.035Z</time></trkpt><trkpt lat="43.2149049" lon="12.3225464"><ele>357.20000000000005</ele><time>2026-04-04T15:05:50.044Z</time></trkpt><trkpt lat="43.215011" lon="12.3225721"><ele>357.4</ele><time>2026-04-04T15:05:51.036Z</time></trkpt><trkpt lat="43.2151048" lon="12.3225952"><ele>357.6</ele><time>2026-04-04T15:05:52.042Z</time></trkpt><trkpt lat="43.2151906" lon="12.3226244"><ele>357.79999999999995</ele><time>2026-04-04T15:05:53.038Z</time></trkpt><trkpt lat="43.2152691" lon="12.3226481"><ele>358.0</ele><time>2026-04-04T15:05:54.034Z</time></trkpt><trkpt lat="43.2153524" lon="12.3226561"><ele>358.0</ele><time>2026-04-04T15:05:55.037Z</time></trkpt><trkpt lat="43.2154386" lon="12.3226539"><ele>358.0</ele><time>2026-04-04T15:05:56.039Z</time></trkpt><trkpt lat="43.215527" lon="12.3226502"><ele>358.0</ele><time>2026-04-04T15:05:57.044Z</time></trkpt><trkpt lat="43.2156113" lon="12.3226363"><ele>358.0</ele><time>2026-04-04T15:05:58.041Z</time></trkpt><trkpt lat="43.2157004" lon="12.3226249"><ele>358.0</ele><time>2026-04-04T15:05:59.041Z</time></trkpt><trkpt lat="43.2157959" lon="12.3226282"><ele>358.0</ele><time>2026-04-04T15:06:00.041Z</time></trkpt><trkpt lat="43.2158858" lon="12.3226665"><ele>358.25</ele><time>2026-04-04T15:06:01.056Z</time></trkpt><trkpt lat="43.2159781" lon="12.3227282"><ele>358.5</ele><time>2026-04-04T15:06:02.045Z</time></trkpt><trkpt lat="43.2160666" lon="12.3228202"><ele>358.75</ele><time>2026-04-04T15:06:03.046Z</time></trkpt><trkpt lat="43.2161519" lon="12.3229398"><ele>359.0</ele><time>2026-04-04T15:06:04.041Z</time></trkpt><trkpt lat="43.21623" lon="12.3230619"><ele>361.0</ele><time>2026-04-04T15:06:05.043Z</time></trkpt><trkpt lat="43.2163145" lon="12.3231905"><ele>363.0</ele><time>2026-04-04T15:06:06.042Z</time></trkpt><trkpt lat="43.2164025" lon="12.3233169"><ele>365.0</ele><time>2026-04-04T15:06:07.046Z</time></trkpt><trkpt lat="43.2164891" lon="12.3234355"><ele>367.0</ele><time>2026-04-04T15:06:08.042Z</time></trkpt><trkpt lat="43.2165817" lon="12.3235412"><ele>367.0</ele><time>2026-04-04T15:06:09.04Z</time></trkpt><trkpt lat="43.2166764" lon="12.3236305"><ele>367.0</ele><time>2026-04-04T15:06:10.043Z</time></trkpt><trkpt lat="43.2167905" lon="12.323691"><ele>367.0</ele><time>2026-04-04T15:06:11.041Z</time></trkpt><trkpt lat="43.2169041" lon="12.3237369"><ele>367.0</ele><time>2026-04-04T15:06:12.044Z</time></trkpt><trkpt lat="43.2170221" lon="12.3237751"><ele>367.0</ele><time>2026-04-04T15:06:13.044Z</time></trkpt><trkpt lat="43.2171399" lon="12.3238034"><ele>367.0</ele><time>2026-04-04T15:06:14.045Z</time></trkpt><trkpt lat="43.2172593" lon="12.3238345"><ele>367.0</ele><time>2026-04-04T15:06:15.038Z</time></trkpt><trkpt lat="43.217382" lon="12.3238654"><ele>367.0</ele><time>2026-04-04T15:06:16.047Z</time></trkpt><trkpt lat="43.2174997" lon="12.3238987"><ele>369.0</ele><time>2026-04-04T15:06:17.045Z</time></trkpt><trkpt lat="43.2176216" lon="12.3239295"><ele>371.0</ele><time>2026-04-04T15:06:18.042Z</time></trkpt><trkpt lat="43.2177434" lon="12.3239582"><ele>373.0</ele><time>2026-04-04T15:06:19.04Z</time></trkpt><trkpt lat="43.21787" lon="12.3239869"><ele>375.0</ele><time>2026-04-04T15:06:20.042Z</time></trkpt><trkpt lat="43.2179941" lon="12.3240283"><ele>375.0</ele><time>2026-04-04T15:06:21.041Z</time></trkpt><trkpt lat="43.2181243" lon="12.3240781"><ele>375.0</ele><time>2026-04-04T15:06:22.039Z</time></trkpt><trkpt lat="43.2182604" lon="12.3241311"><ele>375.0</ele><time>2026-04-04T15:06:23.042Z</time></trkpt><trkpt lat="43.2184016" lon="12.3241949"><ele>375.0</ele><time>2026-04-04T15:06:24.049Z</time></trkpt><trkpt lat="43.2185447" lon="12.3242755"><ele>375.3333333333333</ele><time>2026-04-04T15:06:25.051Z</time></trkpt><trkpt lat="43.2186906" lon="12.3243576"><ele>375.66666666666663</ele><time>2026-04-04T15:06:26.038Z</time></trkpt><trkpt lat="43.2188416" lon="12.3244488"><ele>376.0</ele><time>2026-04-04T15:06:27.045Z</time></trkpt><trkpt lat="43.2189883" lon="12.3245375"><ele>376.0</ele><time>2026-04-04T15:06:28.048Z</time></trkpt><trkpt lat="43.2191314" lon="12.3246303"><ele>376.0</ele><time>2026-04-04T15:06:29.047Z</time></trkpt><trkpt lat="43.2192704" lon="12.3247156"><ele>376.0</ele><time>2026-04-04T15:06:30.044Z</time></trkpt><trkpt lat="43.2194091" lon="12.3248012"><ele>376.5</ele><time>2026-04-04T15:06:31.044Z</time></trkpt><trkpt lat="43.2195409" lon="12.3248889"><ele>377.0</ele><time>2026-04-04T15:06:32.054Z</time></trkpt><trkpt lat="43.2196762" lon="12.3249722"><ele>377.5</ele><time>2026-04-04T15:06:33.047Z</time></trkpt><trkpt lat="43.219809" lon="12.3250569"><ele>378.0</ele><time>2026-04-04T15:06:34.044Z</time></trkpt><trkpt lat="43.2199436" lon="12.3251451"><ele>376.6666666666667</ele><time>2026-04-04T15:06:35.049Z</time></trkpt><trkpt lat="43.2200827" lon="12.3252369"><ele>375.33333333333337</ele><time>2026-04-04T15:06:36.043Z</time></trkpt><trkpt lat="43.2202171" lon="12.3253251"><ele>374.0</ele><time>2026-04-04T15:06:37.042Z</time></trkpt><trkpt lat="43.220356" lon="12.3254081"><ele>374.0</ele><time>2026-04-04T15:06:38.038Z</time></trkpt><trkpt lat="43.2204917" lon="12.3254921"><ele>374.0</ele><time>2026-04-04T15:06:39.037Z</time></trkpt><trkpt lat="43.2206263" lon="12.3255764"><ele>374.0</ele><time>2026-04-04T15:06:40.047Z</time></trkpt><trkpt lat="43.2207542" lon="12.3256591"><ele>374.0</ele><time>2026-04-04T15:06:41.041Z</time></trkpt><trkpt lat="43.2208775" lon="12.325738"><ele>374.25</ele><time>2026-04-04T15:06:42.04Z</time></trkpt><trkpt lat="43.2209962" lon="12.3258124"><ele>374.5</ele><time>2026-04-04T15:06:43.039Z</time></trkpt><trkpt lat="43.2211078" lon="12.325884"><ele>374.75</ele><time>2026-04-04T15:06:44.048Z</time></trkpt><trkpt lat="43.2212124" lon="12.3259515"><ele>375.0</ele><time>2026-04-04T15:06:45.042Z</time></trkpt><trkpt lat="43.2213121" lon="12.3260142"><ele>375.0</ele><time>2026-04-04T15:06:46.035Z</time></trkpt><trkpt lat="43.2214056" lon="12.3260719"><ele>375.0</ele><time>2026-04-04T15:06:47.041Z</time></trkpt><trkpt lat="43.2214928" lon="12.3261304"><ele>375.0</ele><time>2026-04-04T15:06:48.036Z</time></trkpt><trkpt lat="43.2215743" lon="12.3261927"><ele>375.0</ele><time>2026-04-04T15:06:49.038Z</time></trkpt><trkpt lat="43.2216473" lon="12.3262606"><ele>375.0</ele><time>2026-04-04T15:06:50.047Z</time></trkpt><trkpt lat="43.2217168" lon="12.3263195"><ele>375.8333333333333</ele><time>2026-04-04T15:06:51.045Z</time></trkpt><trkpt lat="43.2217925" lon="12.3263582"><ele>376.6666666666667</ele><time>2026-04-04T15:06:52.032Z</time></trkpt><trkpt lat="43.2218705" lon="12.3263602"><ele>377.5</ele><time>2026-04-04T15:06:53.048Z</time></trkpt><trkpt lat="43.2219481" lon="12.3263255"><ele>378.33333333333337</ele><time>2026-04-04T15:06:54.048Z</time></trkpt><trkpt lat="43.2220099" lon="12.3262513"><ele>379.1666666666667</ele><time>2026-04-04T15:06:55.037Z</time></trkpt><trkpt lat="43.2220763" lon="12.3261719"><ele>380.0</ele><time>2026-04-04T15:06:56.041Z</time></trkpt><trkpt lat="43.2221511" lon="12.3261"><ele>380.0</ele><time>2026-04-04T15:06:57.047Z</time></trkpt><trkpt lat="43.2222398" lon="12.3260256"><ele>380.0</ele><time>2026-04-04T15:06:58.038Z</time></trkpt><trkpt lat="43.2223385" lon="12.3259503"><ele>380.0</ele><time>2026-04-04T15:06:59.051Z</time></trkpt><trkpt lat="43.2224283" lon="12.3258909"><ele>380.0</ele><time>2026-04-04T15:07:00.036Z</time></trkpt><trkpt lat="43.2225152" lon="12.3258448"><ele>380.0</ele><time>2026-04-04T15:07:01.076Z</time></trkpt><trkpt lat="43.2226054" lon="12.325793"><ele>380.0</ele><time>2026-04-04T15:07:02.04Z</time></trkpt><trkpt lat="43.222693" lon="12.3257384"><ele>380.0</ele><time>2026-04-04T15:07:03.048Z</time></trkpt><trkpt lat="43.2227781" lon="12.3256863"><ele>380.0</ele><time>2026-04-04T15:07:04.041Z</time></trkpt><trkpt lat="43.222865" lon="12.3256444"><ele>380.0</ele><time>2026-04-04T15:07:05.05Z</time></trkpt><trkpt lat="43.2229502" lon="12.3256011"><ele>380.0</ele><time>2026-04-04T15:07:06.044Z</time></trkpt><trkpt lat="43.2230318" lon="12.3255589"><ele>380.0</ele><time>2026-04-04T15:07:07.046Z</time></trkpt><trkpt lat="43.2231154" lon="12.3255143"><ele>380.0</ele><time>2026-04-04T15:07:08.045Z</time></trkpt><trkpt lat="43.2231963" lon="12.3254711"><ele>380.0</ele><time>2026-04-04T15:07:09.035Z</time></trkpt><trkpt lat="43.2232784" lon="12.3254282"><ele>380.0</ele><time>2026-04-04T15:07:10.046Z</time></trkpt><trkpt lat="43.2233643" lon="12.3253683"><ele>380.0</ele><time>2026-04-04T15:07:11.049Z</time></trkpt><trkpt lat="43.2234583" lon="12.3252949"><ele>380.8</ele><time>2026-04-04T15:07:12.041Z</time></trkpt><trkpt lat="43.2235586" lon="12.3252214"><ele>381.6</ele><time>2026-04-04T15:07:13.039Z</time></trkpt><trkpt lat="43.2236564" lon="12.3251598"><ele>382.4</ele><time>2026-04-04T15:07:14.05Z</time></trkpt><trkpt lat="43.2237453" lon="12.325093"><ele>383.2</ele><time>2026-04-04T15:07:15.04Z</time></trkpt><trkpt lat="43.2238237" lon="12.3250205"><ele>384.0</ele><time>2026-04-04T15:07:16.036Z</time></trkpt><trkpt lat="43.2238977" lon="12.3249502"><ele>384.0</ele><time>2026-04-04T15:07:17.062Z</time></trkpt><trkpt lat="43.2239732" lon="12.3248704"><ele>384.0</ele><time>2026-04-04T15:07:18.042Z</time></trkpt><trkpt lat="43.2240403" lon="12.3247883"><ele>384.0</ele><time>2026-04-04T15:07:19.034Z</time></trkpt><trkpt lat="43.2241074" lon="12.3247107"><ele>384.0</ele><time>2026-04-04T15:07:20.03Z</time></trkpt><trkpt lat="43.2241822" lon="12.3246334"><ele>384.0</ele><time>2026-04-04T15:07:21.038Z</time></trkpt><trkpt lat="43.2242609" lon="12.3245628"><ele>388.0</ele><time>2026-04-04T15:07:22.045Z</time></trkpt><trkpt lat="43.2243468" lon="12.3244893"><ele>392.0</ele><time>2026-04-04T15:07:23.051Z</time></trkpt><trkpt lat="43.2244545" lon="12.3244122"><ele>396.0</ele><time>2026-04-04T15:07:24.037Z</time></trkpt><trkpt lat="43.2245879" lon="12.3243235"><ele>400.0</ele><time>2026-04-04T15:07:25.051Z</time></trkpt><trkpt lat="43.2247536" lon="12.3242117"><ele>399.33333333333337</ele><time>2026-04-04T15:07:26.042Z</time></trkpt><trkpt lat="43.22493" lon="12.3240836"><ele>398.66666666666663</ele><time>2026-04-04T15:07:27.039Z</time></trkpt><trkpt lat="43.2251027" lon="12.3239682"><ele>398.0</ele><time>2026-04-04T15:07:28.035Z</time></trkpt><trkpt lat="43.2252474" lon="12.3238646"><ele>402.0</ele><time>2026-04-04T15:07:29.038Z</time></trkpt><trkpt lat="43.2253822" lon="12.3237547"><ele>406.0</ele><time>2026-04-04T15:07:30.044Z</time></trkpt><trkpt lat="43.2255072" lon="12.3236291"><ele>410.0</ele><time>2026-04-04T15:07:31.046Z</time></trkpt><trkpt lat="43.2256282" lon="12.323513"><ele>407.75</ele><time>2026-04-04T15:07:32.036Z</time></trkpt><trkpt lat="43.225752" lon="12.3233965"><ele>405.5</ele><time>2026-04-04T15:07:33.042Z</time></trkpt><trkpt lat="43.2258747" lon="12.3232952"><ele>403.25</ele><time>2026-04-04T15:07:34.041Z</time></trkpt><trkpt lat="43.2259875" lon="12.3232023"><ele>401.0</ele><time>2026-04-04T15:07:35.039Z</time></trkpt><trkpt lat="43.2260966" lon="12.3231047"><ele>400.5</ele><time>2026-04-04T15:07:36.038Z</time></trkpt><trkpt lat="43.2262027" lon="12.3230104"><ele>400.0</ele><time>2026-04-04T15:07:37.063Z</time></trkpt><trkpt lat="43.2263077" lon="12.3229155"><ele>399.5</ele><time>2026-04-04T15:07:38.035Z</time></trkpt><trkpt lat="43.226411" lon="12.322828"><ele>399.0</ele><time>2026-04-04T15:07:39.06Z</time></trkpt><trkpt lat="43.2265111" lon="12.3227528"><ele>399.0</ele><time>2026-04-04T15:07:40.04Z</time></trkpt><trkpt lat="43.2266205" lon="12.322688"><ele>399.0</ele><time>2026-04-04T15:07:41.036Z</time></trkpt><trkpt lat="43.2267366" lon="12.3226283"><ele>399.0</ele><time>2026-04-04T15:07:42.041Z</time></trkpt><trkpt lat="43.22686" lon="12.3225654"><ele>399.0</ele><time>2026-04-04T15:07:43.042Z</time></trkpt><trkpt lat="43.2269865" lon="12.3225053"><ele>399.0</ele><time>2026-04-04T15:07:44.037Z</time></trkpt><trkpt lat="43.2271099" lon="12.322457"><ele>399.0</ele><time>2026-04-04T15:07:45.034Z</time></trkpt><trkpt lat="43.2272297" lon="12.3224088"><ele>399.0</ele><time>2026-04-04T15:07:46.032Z</time></trkpt><trkpt lat="43.2273532" lon="12.3223541"><ele>399.0</ele><time>2026-04-04T15:07:47.032Z</time></trkpt><trkpt lat="43.2274818" lon="12.3222984"><ele>398.5</ele><time>2026-04-04T15:07:48.034Z</time></trkpt><trkpt lat="43.2276142" lon="12.322241"><ele>398.0</ele><time>2026-04-04T15:07:49.051Z</time></trkpt><trkpt lat="43.227748" lon="12.322183"><ele>397.5</ele><time>2026-04-04T15:07:50.029Z</time></trkpt><trkpt lat="43.2278843" lon="12.3221373"><ele>397.0</ele><time>2026-04-04T15:07:51.041Z</time></trkpt><trkpt lat="43.2280197" lon="12.3220972"><ele>394.5</ele><time>2026-04-04T15:07:52.032Z</time></trkpt><trkpt lat="43.2281562" lon="12.3220675"><ele>392.0</ele><time>2026-04-04T15:07:53.044Z</time></trkpt><trkpt lat="43.2282935" lon="12.3220573"><ele>389.5</ele><time>2026-04-04T15:07:54.032Z</time></trkpt><trkpt lat="43.228434" lon="12.3220592"><ele>387.0</ele><time>2026-04-04T15:07:55.039Z</time></trkpt><trkpt lat="43.2285762" lon="12.3220639"><ele>387.0</ele><time>2026-04-04T15:07:56.041Z</time></trkpt><trkpt lat="43.2287168" lon="12.3220748"><ele>387.0</ele><time>2026-04-04T15:07:57.041Z</time></trkpt><trkpt lat="43.2288576" lon="12.3220815"><ele>387.0</ele><time>2026-04-04T15:07:58.042Z</time></trkpt><trkpt lat="43.2290014" lon="12.3220812"><ele>387.0</ele><time>2026-04-04T15:07:59.039Z</time></trkpt><trkpt lat="43.2291421" lon="12.3220919"><ele>384.0</ele><time>2026-04-04T15:08:00.048Z</time></trkpt><trkpt lat="43.2292793" lon="12.3220978"><ele>381.0</ele><time>2026-04-04T15:08:01.035Z</time></trkpt><trkpt lat="43.2294172" lon="12.3221076"><ele>378.0</ele><time>2026-04-04T15:08:02.036Z</time></trkpt><trkpt lat="43.2295548" lon="12.3221204"><ele>375.0</ele><time>2026-04-04T15:08:03.034Z</time></trkpt><trkpt lat="43.2296879" lon="12.3221291"><ele>371.75</ele><time>2026-04-04T15:08:04.039Z</time></trkpt><trkpt lat="43.2298227" lon="12.3221109"><ele>368.5</ele><time>2026-04-04T15:08:05.042Z</time></trkpt><trkpt lat="43.2299618" lon="12.3220683"><ele>365.25</ele><time>2026-04-04T15:08:06.038Z</time></trkpt><trkpt lat="43.2300958" lon="12.3219843"><ele>362.0</ele><time>2026-04-04T15:08:07.042Z</time></trkpt><trkpt lat="43.2302365" lon="12.321879"><ele>362.0</ele><time>2026-04-04T15:08:08.041Z</time></trkpt><trkpt lat="43.2303889" lon="12.3217704"><ele>362.0</ele><time>2026-04-04T15:08:09.03Z</time></trkpt><trkpt lat="43.2305354" lon="12.321658"><ele>362.0</ele><time>2026-04-04T15:08:10.036Z</time></trkpt><trkpt lat="43.230676" lon="12.3215505"><ele>363.0</ele><time>2026-04-04T15:08:11.043Z</time></trkpt><trkpt lat="43.2308068" lon="12.3214391"><ele>364.0</ele><time>2026-04-04T15:08:12.034Z</time></trkpt><trkpt lat="43.2309389" lon="12.3213516"><ele>365.0</ele><time>2026-04-04T15:08:13.037Z</time></trkpt><trkpt lat="43.2310793" lon="12.3212836"><ele>366.0</ele><time>2026-04-04T15:08:14.032Z</time></trkpt><trkpt lat="43.231231" lon="12.3212525"><ele>360.5</ele><time>2026-04-04T15:08:15.034Z</time></trkpt><trkpt lat="43.2313843" lon="12.3212342"><ele>355.0</ele><time>2026-04-04T15:08:16.034Z</time></trkpt><trkpt lat="43.2315264" lon="12.3212291"><ele>349.5</ele><time>2026-04-04T15:08:17.053Z</time></trkpt><trkpt lat="43.2316614" lon="12.3212221"><ele>344.0</ele><time>2026-04-04T15:08:18.042Z</time></trkpt><trkpt lat="43.2317873" lon="12.3212013"><ele>343.25</ele><time>2026-04-04T15:08:19.032Z</time></trkpt><trkpt lat="43.2319125" lon="12.321153"><ele>342.5</ele><time>2026-04-04T15:08:20.043Z</time></trkpt><trkpt lat="43.2320337" lon="12.3210773"><ele>341.75</ele><time>2026-04-04T15:08:21.033Z</time></trkpt><trkpt lat="43.2321495" lon="12.3209787"><ele>341.0</ele><time>2026-04-04T15:08:22.045Z</time></trkpt><trkpt lat="43.2322469" lon="12.3208503"><ele>340.5</ele><time>2026-04-04T15:08:23.038Z</time></trkpt><trkpt lat="43.2323258" lon="12.3206982"><ele>340.0</ele><time>2026-04-04T15:08:24.033Z</time></trkpt><trkpt lat="43.2323873" lon="12.3205271"><ele>339.5</ele><time>2026-04-04T15:08:25.06Z</time></trkpt><trkpt lat="43.2324471" lon="12.3203501"><ele>339.0</ele><time>2026-04-04T15:08:26.04Z</time></trkpt><trkpt lat="43.2325124" lon="12.3201784"><ele>339.0</ele><time>2026-04-04T15:08:27.036Z</time></trkpt><trkpt lat="43.2325772" lon="12.3200151"><ele>339.0</ele><time>2026-04-04T15:08:28.03Z</time></trkpt><trkpt lat="43.2326517" lon="12.3198566"><ele>339.0</ele><time>2026-04-04T15:08:29.031Z</time></trkpt><trkpt lat="43.2327397" lon="12.3197044"><ele>339.0</ele><time>2026-04-04T15:08:30.037Z</time></trkpt><trkpt lat="43.2328411" lon="12.3195605"><ele>338.25</ele><time>2026-04-04T15:08:31.039Z</time></trkpt><trkpt lat="43.2329462" lon="12.3194251"><ele>337.5</ele><time>2026-04-04T15:08:32.033Z</time></trkpt><trkpt lat="43.2330474" lon="12.3192928"><ele>336.75</ele><time>2026-04-04T15:08:33.034Z</time></trkpt><trkpt lat="43.2331469" lon="12.319152"><ele>336.0</ele><time>2026-04-04T15:08:34.034Z</time></trkpt><trkpt lat="43.233247" lon="12.3190138"><ele>332.0</ele><time>2026-04-04T15:08:35.027Z</time></trkpt><trkpt lat="43.233345" lon="12.3188742"><ele>328.0</ele><time>2026-04-04T15:08:36.027Z</time></trkpt><trkpt lat="43.2334506" lon="12.3187412"><ele>324.0</ele><time>2026-04-04T15:08:37.035Z</time></trkpt><trkpt lat="43.2335525" lon="12.3186041"><ele>320.0</ele><time>2026-04-04T15:08:38.041Z</time></trkpt><trkpt lat="43.2336512" lon="12.3184667"><ele>320.0</ele><time>2026-04-04T15:08:39.029Z</time></trkpt><trkpt lat="43.233751" lon="12.31833"><ele>320.0</ele><time>2026-04-04T15:08:40.036Z</time></trkpt><trkpt lat="43.2338491" lon="12.3181909"><ele>320.0</ele><time>2026-04-04T15:08:41.034Z</time></trkpt><trkpt lat="43.2339449" lon="12.3180468"><ele>320.0</ele><time>2026-04-04T15:08:42.034Z</time></trkpt><trkpt lat="43.2340431" lon="12.3179081"><ele>318.0</ele><time>2026-04-04T15:08:43.034Z</time></trkpt><trkpt lat="43.2341428" lon="12.3177711"><ele>316.0</ele><time>2026-04-04T15:08:44.032Z</time></trkpt><trkpt lat="43.2342391" lon="12.3176367"><ele>314.0</ele><time>2026-04-04T15:08:45.036Z</time></trkpt><trkpt lat="43.2343338" lon="12.3175017"><ele>312.0</ele><time>2026-04-04T15:08:46.035Z</time></trkpt><trkpt lat="43.2344244" lon="12.317379"><ele>312.0</ele><time>2026-04-04T15:08:47.042Z</time></trkpt><trkpt lat="43.2345226" lon="12.3172775"><ele>312.0</ele><time>2026-04-04T15:08:48.045Z</time></trkpt><trkpt lat="43.2346276" lon="12.3171889"><ele>312.0</ele><time>2026-04-04T15:08:49.031Z</time></trkpt><trkpt lat="43.234738" lon="12.3171289"><ele>312.0</ele><time>2026-04-04T15:08:50.033Z</time></trkpt><trkpt lat="43.2348525" lon="12.3170965"><ele>310.75</ele><time>2026-04-04T15:08:51.026Z</time></trkpt><trkpt lat="43.2349734" lon="12.3170699"><ele>309.5</ele><time>2026-04-04T15:08:52.037Z</time></trkpt><trkpt lat="43.2351025" lon="12.317042"><ele>308.25</ele><time>2026-04-04T15:08:53.041Z</time></trkpt><trkpt lat="43.2352355" lon="12.3170154"><ele>307.0</ele><time>2026-04-04T15:08:54.038Z</time></trkpt><trkpt lat="43.235369" lon="12.3169928"><ele>307.0</ele><time>2026-04-04T15:08:55.062Z</time></trkpt><trkpt lat="43.2355079" lon="12.3169759"><ele>307.0</ele><time>2026-04-04T15:08:56.04Z</time></trkpt><trkpt lat="43.2356493" lon="12.3169629"><ele>307.0</ele><time>2026-04-04T15:08:57.048Z</time></trkpt><trkpt lat="43.2357897" lon="12.3169429"><ele>307.0</ele><time>2026-04-04T15:08:58.051Z</time></trkpt><trkpt lat="43.2359268" lon="12.3169393"><ele>306.75</ele><time>2026-04-04T15:08:59.046Z</time></trkpt><trkpt lat="43.236072" lon="12.316947"><ele>306.5</ele><time>2026-04-04T15:09:00.04Z</time></trkpt><trkpt lat="43.2362158" lon="12.3169556"><ele>306.25</ele><time>2026-04-04T15:09:01.05Z</time></trkpt><trkpt lat="43.2363557" lon="12.3169553"><ele>306.0</ele><time>2026-04-04T15:09:02.034Z</time></trkpt><trkpt lat="43.2364958" lon="12.3169617"><ele>305.5</ele><time>2026-04-04T15:09:03.052Z</time></trkpt><trkpt lat="43.2366342" lon="12.3169651"><ele>305.0</ele><time>2026-04-04T15:09:04.042Z</time></trkpt><trkpt lat="43.23677" lon="12.3169678"><ele>304.5</ele><time>2026-04-04T15:09:05.047Z</time></trkpt><trkpt lat="43.2368987" lon="12.3169626"><ele>304.0</ele><time>2026-04-04T15:09:06.037Z</time></trkpt><trkpt lat="43.2370184" lon="12.3169472"><ele>304.0</ele><time>2026-04-04T15:09:07.04Z</time></trkpt><trkpt lat="43.2371197" lon="12.3168913"><ele>304.0</ele><time>2026-04-04T15:09:08.044Z</time></trkpt><trkpt lat="43.2372089" lon="12.3168026"><ele>304.0</ele><time>2026-04-04T15:09:09.036Z</time></trkpt><trkpt lat="43.2372802" lon="12.3166906"><ele>304.0</ele><time>2026-04-04T15:09:10.037Z</time></trkpt><trkpt lat="43.2373407" lon="12.3165494"><ele>304.0</ele><time>2026-04-04T15:09:11.038Z</time></trkpt><trkpt lat="43.2373979" lon="12.3164031"><ele>303.4</ele><time>2026-04-04T15:09:12.041Z</time></trkpt><trkpt lat="43.237465" lon="12.3163012"><ele>302.79999999999995</ele><time>2026-04-04T15:09:13.043Z</time></trkpt><trkpt lat="43.2375492" lon="12.3162239"><ele>302.20000000000005</ele><time>2026-04-04T15:09:14.036Z</time></trkpt><trkpt lat="43.2376477" lon="12.3162056"><ele>301.6</ele><time>2026-04-04T15:09:15.037Z</time></trkpt><trkpt lat="43.2377506" lon="12.3162104"><ele>301.0</ele><time>2026-04-04T15:09:16.037Z</time></trkpt><trkpt lat="43.2378587" lon="12.3162634"><ele>301.0</ele><time>2026-04-04T15:09:17.03Z</time></trkpt><trkpt lat="43.2379644" lon="12.316337"><ele>301.0</ele><time>2026-04-04T15:09:18.044Z</time></trkpt><trkpt lat="43.2380623" lon="12.3164302"><ele>301.0</ele><time>2026-04-04T15:09:19.038Z</time></trkpt><trkpt lat="43.2381688" lon="12.3165266"><ele>301.0</ele><time>2026-04-04T15:09:20.033Z</time></trkpt><trkpt lat="43.2382745" lon="12.3166308"><ele>302.0</ele><time>2026-04-04T15:09:21.031Z</time></trkpt><trkpt lat="43.2383827" lon="12.3167351"><ele>303.0</ele><time>2026-04-04T15:09:22.036Z</time></trkpt><trkpt lat="43.2384857" lon="12.3168401"><ele>304.0</ele><time>2026-04-04T15:09:23.031Z</time></trkpt><trkpt lat="43.2385888" lon="12.3169361"><ele>305.0</ele><time>2026-04-04T15:09:24.034Z</time></trkpt><trkpt lat="43.238711" lon="12.3170427"><ele>305.0</ele><time>2026-04-04T15:09:25.038Z</time></trkpt><trkpt lat="43.2388386" lon="12.3171579"><ele>305.0</ele><time>2026-04-04T15:09:26.031Z</time></trkpt><trkpt lat="43.2389722" lon="12.3172749"><ele>305.0</ele><time>2026-04-04T15:09:27.036Z</time></trkpt><trkpt lat="43.2391122" lon="12.3173814"><ele>304.6666666666667</ele><time>2026-04-04T15:09:28.037Z</time></trkpt><trkpt lat="43.2392519" lon="12.3174821"><ele>304.3333333333333</ele><time>2026-04-04T15:09:29.033Z</time></trkpt><trkpt lat="43.2393898" lon="12.3175851"><ele>304.0</ele><time>2026-04-04T15:09:30.036Z</time></trkpt><trkpt lat="43.2395123" lon="12.3176972"><ele>304.0</ele><time>2026-04-04T15:09:31.031Z</time></trkpt><trkpt lat="43.2396179" lon="12.3178095"><ele>304.0</ele><time>2026-04-04T15:09:32.03Z</time></trkpt><trkpt lat="43.2397189" lon="12.3179183"><ele>304.0</ele><time>2026-04-04T15:09:33.036Z</time></trkpt><trkpt lat="43.2398147" lon="12.3180247"><ele>304.0</ele><time>2026-04-04T15:09:34.047Z</time></trkpt><trkpt lat="43.2399124" lon="12.3181151"><ele>304.25</ele><time>2026-04-04T15:09:35.034Z</time></trkpt><trkpt lat="43.2400157" lon="12.3181914"><ele>304.5</ele><time>2026-04-04T15:09:36.032Z</time></trkpt><trkpt lat="43.2401249" lon="12.3182664"><ele>304.75</ele><time>2026-04-04T15:09:37.041Z</time></trkpt><trkpt lat="43.2402388" lon="12.3183321"><ele>305.0</ele><time>2026-04-04T15:09:38.034Z</time></trkpt><trkpt lat="43.2403544" lon="12.3183904"><ele>305.0</ele><time>2026-04-04T15:09:39.026Z</time></trkpt><trkpt lat="43.2404683" lon="12.3184482"><ele>305.0</ele><time>2026-04-04T15:09:40.043Z</time></trkpt><trkpt lat="43.2405861" lon="12.3185064"><ele>305.0</ele><time>2026-04-04T15:09:41.033Z</time></trkpt><trkpt lat="43.2407025" lon="12.3185689"><ele>305.0</ele><time>2026-04-04T15:09:42.037Z</time></trkpt><trkpt lat="43.2408165" lon="12.3186368"><ele>304.0</ele><time>2026-04-04T15:09:43.042Z</time></trkpt><trkpt lat="43.2409306" lon="12.3187121"><ele>303.0</ele><time>2026-04-04T15:09:44.037Z</time></trkpt><trkpt lat="43.2410357" lon="12.3188114"><ele>302.0</ele><time>2026-04-04T15:09:45.039Z</time></trkpt><trkpt lat="43.2411188" lon="12.3189489"><ele>301.0</ele><time>2026-04-04T15:09:46.037Z</time></trkpt><trkpt lat="43.2411869" lon="12.3191117"><ele>301.0</ele><time>2026-04-04T15:09:47.03Z</time></trkpt><trkpt lat="43.2412463" lon="12.3192762"><ele>301.0</ele><time>2026-04-04T15:09:48.032Z</time></trkpt><trkpt lat="43.2412854" lon="12.3194356"><ele>301.0</ele><time>2026-04-04T15:09:49.03Z</time></trkpt><trkpt lat="43.2413085" lon="12.3196035"><ele>301.0</ele><time>2026-04-04T15:09:50.041Z</time></trkpt><trkpt lat="43.2413291" lon="12.3197802"><ele>300.25</ele><time>2026-04-04T15:09:51.036Z</time></trkpt><trkpt lat="43.2413592" lon="12.3199451"><ele>299.5</ele><time>2026-04-04T15:09:52.035Z</time></trkpt><trkpt lat="43.2413884" lon="12.3201154"><ele>298.75</ele><time>2026-04-04T15:09:53.026Z</time></trkpt><trkpt lat="43.241429" lon="12.3202794"><ele>298.0</ele><time>2026-04-04T15:09:54.035Z</time></trkpt><trkpt lat="43.2414812" lon="12.3204322"><ele>301.75</ele><time>2026-04-04T15:09:55.033Z</time></trkpt><trkpt lat="43.2415457" lon="12.3205705"><ele>305.5</ele><time>2026-04-04T15:09:56.032Z</time></trkpt><trkpt lat="43.2416293" lon="12.320698"><ele>309.25</ele><time>2026-04-04T15:09:57.045Z</time></trkpt><trkpt lat="43.241723" lon="12.3208182"><ele>313.0</ele><time>2026-04-04T15:09:58.042Z</time></trkpt><trkpt lat="43.2418124" lon="12.3209456"><ele>313.0</ele><time>2026-04-04T15:09:59.034Z</time></trkpt><trkpt lat="43.2418787" lon="12.3211023"><ele>313.0</ele><time>2026-04-04T15:10:00.042Z</time></trkpt><trkpt lat="43.2419277" lon="12.3212795"><ele>313.0</ele><time>2026-04-04T15:10:01.031Z</time></trkpt><trkpt lat="43.241954" lon="12.321436"><ele>313.0</ele><time>2026-04-04T15:10:02.026Z</time></trkpt><trkpt lat="43.2419695" lon="12.3215954"><ele>310.75</ele><time>2026-04-04T15:10:03.033Z</time></trkpt><trkpt lat="43.241987" lon="12.3217562"><ele>308.5</ele><time>2026-04-04T15:10:04.03Z</time></trkpt><trkpt lat="43.242006" lon="12.3219163"><ele>306.25</ele><time>2026-04-04T15:10:05.038Z</time></trkpt><trkpt lat="43.2420233" lon="12.3220776"><ele>304.0</ele><time>2026-04-04T15:10:06.029Z</time></trkpt><trkpt lat="43.2420354" lon="12.3222468"><ele>304.0</ele><time>2026-04-04T15:10:07.03Z</time></trkpt><trkpt lat="43.2420431" lon="12.3224132"><ele>304.0</ele><time>2026-04-04T15:10:08.024Z</time></trkpt><trkpt lat="43.2420383" lon="12.3225807"><ele>304.0</ele><time>2026-04-04T15:10:09.038Z</time></trkpt><trkpt lat="43.242011" lon="12.3227491"><ele>304.0</ele><time>2026-04-04T15:10:10.025Z</time></trkpt><trkpt lat="43.2419595" lon="12.3229108"><ele>307.25</ele><time>2026-04-04T15:10:11.034Z</time></trkpt><trkpt lat="43.2418978" lon="12.3230647"><ele>310.5</ele><time>2026-04-04T15:10:12.029Z</time></trkpt><trkpt lat="43.2418296" lon="12.323209"><ele>313.75</ele><time>2026-04-04T15:10:13.031Z</time></trkpt><trkpt lat="43.2417558" lon="12.3233595"><ele>317.0</ele><time>2026-04-04T15:10:14.04Z</time></trkpt><trkpt lat="43.2416707" lon="12.323494"><ele>317.0</ele><time>2026-04-04T15:10:15.032Z</time></trkpt><trkpt lat="43.2415704" lon="12.3236179"><ele>317.0</ele><time>2026-04-04T15:10:16.03Z</time></trkpt><trkpt lat="43.2414733" lon="12.3237335"><ele>317.0</ele><time>2026-04-04T15:10:17.036Z</time></trkpt><trkpt lat="43.2413597" lon="12.3238324"><ele>317.0</ele><time>2026-04-04T15:10:18.029Z</time></trkpt><trkpt lat="43.2412399" lon="12.3239249"><ele>316.5</ele><time>2026-04-04T15:10:19.047Z</time></trkpt><trkpt lat="43.2411201" lon="12.3239975"><ele>316.0</ele><time>2026-04-04T15:10:20.025Z</time></trkpt><trkpt lat="43.2410038" lon="12.3240688"><ele>315.5</ele><time>2026-04-04T15:10:21.03Z</time></trkpt><trkpt lat="43.2409009" lon="12.3241669"><ele>315.0</ele><time>2026-04-04T15:10:22.039Z</time></trkpt><trkpt lat="43.2408321" lon="12.3242845"><ele>315.0</ele><time>2026-04-04T15:10:23.032Z</time></trkpt><trkpt lat="43.2407891" lon="12.3244117"><ele>315.0</ele><time>2026-04-04T15:10:24.033Z</time></trkpt><trkpt lat="43.2407717" lon="12.3245476"><ele>315.0</ele><time>2026-04-04T15:10:25.034Z</time></trkpt><trkpt lat="43.2407653" lon="12.3246816"><ele>315.0</ele><time>2026-04-04T15:10:26.036Z</time></trkpt><trkpt lat="43.2407667" lon="12.3248042"><ele>315.0</ele><time>2026-04-04T15:10:27.045Z</time></trkpt><trkpt lat="43.2407759" lon="12.3249136"><ele>317.2</ele><time>2026-04-04T15:10:28.027Z</time></trkpt><trkpt lat="43.2407985" lon="12.325032"><ele>319.4</ele><time>2026-04-04T15:10:29.034Z</time></trkpt><trkpt lat="43.2408301" lon="12.325162"><ele>321.6</ele><time>2026-04-04T15:10:30.035Z</time></trkpt><trkpt lat="43.2408753" lon="12.325293"><ele>323.8</ele><time>2026-04-04T15:10:31.037Z</time></trkpt><trkpt lat="43.2409388" lon="12.325419"><ele>326.0</ele><time>2026-04-04T15:10:32.037Z</time></trkpt><trkpt lat="43.2410265" lon="12.325533"><ele>323.0</ele><time>2026-04-04T15:10:33.038Z</time></trkpt><trkpt lat="43.2411282" lon="12.3256632"><ele>320.0</ele><time>2026-04-04T15:10:34.03Z</time></trkpt><trkpt lat="43.2412333" lon="12.3257993"><ele>317.0</ele><time>2026-04-04T15:10:35.028Z</time></trkpt><trkpt lat="43.2413372" lon="12.3259256"><ele>314.0</ele><time>2026-04-04T15:10:36.054Z</time></trkpt><trkpt lat="43.2414428" lon="12.3260479"><ele>316.0</ele><time>2026-04-04T15:10:37.033Z</time></trkpt><trkpt lat="43.2415498" lon="12.3261774"><ele>318.0</ele><time>2026-04-04T15:10:38.038Z</time></trkpt><trkpt lat="43.2416439" lon="12.3263095"><ele>320.0</ele><time>2026-04-04T15:10:39.028Z</time></trkpt><trkpt lat="43.241722" lon="12.3264552"><ele>322.0</ele><time>2026-04-04T15:10:40.033Z</time></trkpt><trkpt lat="43.2417915" lon="12.326594"><ele>322.0</ele><time>2026-04-04T15:10:41.048Z</time></trkpt><trkpt lat="43.2418685" lon="12.3267117"><ele>322.0</ele><time>2026-04-04T15:10:42.042Z</time></trkpt><trkpt lat="43.241962" lon="12.3267959"><ele>322.0</ele><time>2026-04-04T15:10:43.032Z</time></trkpt><trkpt lat="43.2420624" lon="12.3268393"><ele>322.0</ele><time>2026-04-04T15:10:44.045Z</time></trkpt><trkpt lat="43.2421637" lon="12.3268499"><ele>322.0</ele><time>2026-04-04T15:10:45.035Z</time></trkpt><trkpt lat="43.2422777" lon="12.3268474"><ele>325.5</ele><time>2026-04-04T15:10:46.036Z</time></trkpt><trkpt lat="43.2423974" lon="12.3268308"><ele>329.0</ele><time>2026-04-04T15:10:47.052Z</time></trkpt><trkpt lat="43.2425161" lon="12.3268197"><ele>332.5</ele><time>2026-04-04T15:10:48.034Z</time></trkpt><trkpt lat="43.2426315" lon="12.3268029"><ele>336.0</ele><time>2026-04-04T15:10:49.033Z</time></trkpt><trkpt lat="43.2427483" lon="12.3267892"><ele>336.0</ele><time>2026-04-04T15:10:50.037Z</time></trkpt><trkpt lat="43.2428647" lon="12.3267758"><ele>336.0</ele><time>2026-04-04T15:10:51.029Z</time></trkpt><trkpt lat="43.2429754" lon="12.3267431"><ele>336.0</ele><time>2026-04-04T15:10:52.032Z</time></trkpt><trkpt lat="43.243067" lon="12.3266687"><ele>336.0</ele><time>2026-04-04T15:10:53.033Z</time></trkpt><trkpt lat="43.2431527" lon="12.326566"><ele>337.20000000000005</ele><time>2026-04-04T15:10:54.044Z</time></trkpt><trkpt lat="43.2432237" lon="12.3264628"><ele>338.40000000000003</ele><time>2026-04-04T15:10:55.035Z</time></trkpt><trkpt lat="43.2432922" lon="12.326344"><ele>339.6</ele><time>2026-04-04T15:10:56.035Z</time></trkpt><trkpt lat="43.2433612" lon="12.3262244"><ele>340.8</ele><time>2026-04-04T15:10:57.042Z</time></trkpt><trkpt lat="43.2434259" lon="12.3260898"><ele>342.0</ele><time>2026-04-04T15:10:58.038Z</time></trkpt><trkpt lat="43.2434922" lon="12.3259556"><ele>342.0</ele><time>2026-04-04T15:10:59.038Z</time></trkpt><trkpt lat="43.2435543" lon="12.3258259"><ele>342.0</ele><time>2026-04-04T15:11:00.036Z</time></trkpt><trkpt lat="43.2436184" lon="12.3257014"><ele>342.0</ele><time>2026-04-04T15:11:01.037Z</time></trkpt><trkpt lat="43.2436876" lon="12.3255827"><ele>342.0</ele><time>2026-04-04T15:11:02.028Z</time></trkpt><trkpt lat="43.2437525" lon="12.3254662"><ele>342.0</ele><time>2026-04-04T15:11:03.034Z</time></trkpt><trkpt lat="43.2438197" lon="12.3253494"><ele>344.5</ele><time>2026-04-04T15:11:04.036Z</time></trkpt><trkpt lat="43.243892" lon="12.3252272"><ele>347.0</ele><time>2026-04-04T15:11:05.032Z</time></trkpt><trkpt lat="43.2439803" lon="12.325117"><ele>349.5</ele><time>2026-04-04T15:11:06.042Z</time></trkpt><trkpt lat="43.2440912" lon="12.3250199"><ele>352.0</ele><time>2026-04-04T15:11:07.042Z</time></trkpt><trkpt lat="43.2442023" lon="12.3249492"><ele>352.0</ele><time>2026-04-04T15:11:08.04Z</time></trkpt><trkpt lat="43.2443188" lon="12.3248769"><ele>352.0</ele><time>2026-04-04T15:11:09.036Z</time></trkpt><trkpt lat="43.2444374" lon="12.3247971"><ele>352.0</ele><time>2026-04-04T15:11:10.04Z</time></trkpt><trkpt lat="43.2445574" lon="12.3247228"><ele>352.0</ele><time>2026-04-04T15:11:11.033Z</time></trkpt><trkpt lat="43.2446773" lon="12.3246527"><ele>356.0</ele><time>2026-04-04T15:11:12.037Z</time></trkpt><trkpt lat="43.2447983" lon="12.3245764"><ele>360.0</ele><time>2026-04-04T15:11:13.03Z</time></trkpt><trkpt lat="43.2449213" lon="12.324497"><ele>364.0</ele><time>2026-04-04T15:11:14.037Z</time></trkpt><trkpt lat="43.2450474" lon="12.3244192"><ele>368.0</ele><time>2026-04-04T15:11:15.035Z</time></trkpt><trkpt lat="43.2451761" lon="12.3243537"><ele>368.0</ele><time>2026-04-04T15:11:16.034Z</time></trkpt><trkpt lat="43.2453059" lon="12.324292"><ele>368.0</ele><time>2026-04-04T15:11:17.035Z</time></trkpt><trkpt lat="43.2454369" lon="12.3242233"><ele>368.0</ele><time>2026-04-04T15:11:18.036Z</time></trkpt><trkpt lat="43.2455665" lon="12.3241475"><ele>368.0</ele><time>2026-04-04T15:11:19.04Z</time></trkpt><trkpt lat="43.2456983" lon="12.3240438"><ele>369.75</ele><time>2026-04-04T15:11:20.028Z</time></trkpt><trkpt lat="43.2458243" lon="12.3239268"><ele>371.5</ele><time>2026-04-04T15:11:21.045Z</time></trkpt><trkpt lat="43.245952" lon="12.3238018"><ele>373.25</ele><time>2026-04-04T15:11:22.033Z</time></trkpt><trkpt lat="43.2460653" lon="12.3236899"><ele>375.0</ele><time>2026-04-04T15:11:23.031Z</time></trkpt><trkpt lat="43.2461716" lon="12.3235699"><ele>375.0</ele><time>2026-04-04T15:11:24.035Z</time></trkpt><trkpt lat="43.2462694" lon="12.3234574"><ele>375.0</ele><time>2026-04-04T15:11:25.035Z</time></trkpt><trkpt lat="43.2463534" lon="12.3233535"><ele>375.0</ele><time>2026-04-04T15:11:26.041Z</time></trkpt><trkpt lat="43.2464328" lon="12.3232522"><ele>375.0</ele><time>2026-04-04T15:11:27.037Z</time></trkpt><trkpt lat="43.2465181" lon="12.3231657"><ele>372.2</ele><time>2026-04-04T15:11:28.042Z</time></trkpt><trkpt lat="43.2466158" lon="12.3231062"><ele>369.4</ele><time>2026-04-04T15:11:29.033Z</time></trkpt><trkpt lat="43.2467275" lon="12.3230747"><ele>366.6</ele><time>2026-04-04T15:11:30.036Z</time></trkpt><trkpt lat="43.2468421" lon="12.3230673"><ele>363.8</ele><time>2026-04-04T15:11:31.048Z</time></trkpt><trkpt lat="43.2469553" lon="12.3230839"><ele>361.0</ele><time>2026-04-04T15:11:32.042Z</time></trkpt><trkpt lat="43.2470726" lon="12.3231164"><ele>361.0</ele><time>2026-04-04T15:11:33.044Z</time></trkpt><trkpt lat="43.2471961" lon="12.3231444"><ele>361.0</ele><time>2026-04-04T15:11:34.037Z</time></trkpt><trkpt lat="43.2473241" lon="12.3231623"><ele>361.0</ele><time>2026-04-04T15:11:35.041Z</time></trkpt><trkpt lat="43.2474493" lon="12.3231818"><ele>361.0</ele><time>2026-04-04T15:11:36.034Z</time></trkpt><trkpt lat="43.2475775" lon="12.323194"><ele>363.25</ele><time>2026-04-04T15:11:37.04Z</time></trkpt><trkpt lat="43.2477051" lon="12.3232087"><ele>365.5</ele><time>2026-04-04T15:11:38.037Z</time></trkpt><trkpt lat="43.2478323" lon="12.3232126"><ele>367.75</ele><time>2026-04-04T15:11:39.038Z</time></trkpt><trkpt lat="43.2479687" lon="12.32319"><ele>370.0</ele><time>2026-04-04T15:11:40.031Z</time></trkpt><trkpt lat="43.2480984" lon="12.3231476"><ele>370.75</ele><time>2026-04-04T15:11:41.033Z</time></trkpt><trkpt lat="43.2482241" lon="12.3230782"><ele>371.5</ele><time>2026-04-04T15:11:42.029Z</time></trkpt><trkpt lat="43.2483333" lon="12.3229947"><ele>372.25</ele><time>2026-04-04T15:11:43.036Z</time></trkpt><trkpt lat="43.2484406" lon="12.32293"><ele>373.0</ele><time>2026-04-04T15:11:44.031Z</time></trkpt><trkpt lat="43.2485572" lon="12.322894"><ele>376.75</ele><time>2026-04-04T15:11:45.041Z</time></trkpt><trkpt lat="43.2486939" lon="12.3228908"><ele>380.5</ele><time>2026-04-04T15:11:46.026Z</time></trkpt><trkpt lat="43.2488388" lon="12.3229275"><ele>384.25</ele><time>2026-04-04T15:11:47.034Z</time></trkpt><trkpt lat="43.2489821" lon="12.3229845"><ele>388.0</ele><time>2026-04-04T15:11:48.034Z</time></trkpt><trkpt lat="43.249127" lon="12.3230279"><ele>389.0</ele><time>2026-04-04T15:11:49.036Z</time></trkpt><trkpt lat="43.2492731" lon="12.3230615"><ele>390.0</ele><time>2026-04-04T15:11:50.035Z</time></trkpt><trkpt lat="43.2494118" lon="12.3230996"><ele>391.0</ele><time>2026-04-04T15:11:51.029Z</time></trkpt><trkpt lat="43.2495501" lon="12.323141"><ele>392.0</ele><time>2026-04-04T15:11:52.038Z</time></trkpt><trkpt lat="43.2496847" lon="12.323162"><ele>388.75</ele><time>2026-04-04T15:11:53.031Z</time></trkpt><trkpt lat="43.2498135" lon="12.3231568"><ele>385.5</ele><time>2026-04-04T15:11:54.041Z</time></trkpt><trkpt lat="43.2499447" lon="12.3231377"><ele>382.25</ele><time>2026-04-04T15:11:55.033Z</time></trkpt><trkpt lat="43.2500705" lon="12.3231133"><ele>379.0</ele><time>2026-04-04T15:11:56.041Z</time></trkpt><trkpt lat="43.2501935" lon="12.3230818"><ele>383.75</ele><time>2026-04-04T15:11:57.036Z</time></trkpt><trkpt lat="43.2503194" lon="12.3230494"><ele>388.5</ele><time>2026-04-04T15:11:58.036Z</time></trkpt><trkpt lat="43.2504505" lon="12.3230205"><ele>393.25</ele><time>2026-04-04T15:11:59.036Z</time></trkpt><trkpt lat="43.2505865" lon="12.3230041"><ele>398.0</ele><time>2026-04-04T15:12:00.038Z</time></trkpt><trkpt lat="43.2507216" lon="12.3229904"><ele>398.0</ele><time>2026-04-04T15:12:01.03Z</time></trkpt><trkpt lat="43.2508619" lon="12.3229665"><ele>398.0</ele><time>2026-04-04T15:12:02.036Z</time></trkpt><trkpt lat="43.2510078" lon="12.3229364"><ele>398.0</ele><time>2026-04-04T15:12:03.037Z</time></trkpt><trkpt lat="43.251169" lon="12.3229181"><ele>398.0</ele><time>2026-04-04T15:12:04.034Z</time></trkpt><trkpt lat="43.2513451" lon="12.3229208"><ele>398.0</ele><time>2026-04-04T15:12:05.035Z</time></trkpt><trkpt lat="43.2515186" lon="12.3229561"><ele>398.0</ele><time>2026-04-04T15:12:06.03Z</time></trkpt><trkpt lat="43.2516853" lon="12.3229812"><ele>400.66666666666663</ele><time>2026-04-04T15:12:07.035Z</time></trkpt><trkpt lat="43.2518499" lon="12.3229655"><ele>403.33333333333337</ele><time>2026-04-04T15:12:08.035Z</time></trkpt><trkpt lat="43.2520147" lon="12.3229373"><ele>406.0</ele><time>2026-04-04T15:12:09.03Z</time></trkpt><trkpt lat="43.2521723" lon="12.3229027"><ele>404.75</ele><time>2026-04-04T15:12:10.036Z</time></trkpt><trkpt lat="43.2523223" lon="12.3228745"><ele>403.5</ele><time>2026-04-04T15:12:11.036Z</time></trkpt><trkpt lat="43.2524532" lon="12.3228324"><ele>402.25</ele><time>2026-04-04T15:12:12.032Z</time></trkpt><trkpt lat="43.252574" lon="12.3227819"><ele>401.0</ele><time>2026-04-04T15:12:13.039Z</time></trkpt><trkpt lat="43.2526863" lon="12.3227026"><ele>401.0</ele><time>2026-04-04T15:12:14.038Z</time></trkpt><trkpt lat="43.2527965" lon="12.3226136"><ele>401.0</ele><time>2026-04-04T15:12:15.034Z</time></trkpt><trkpt lat="43.2529097" lon="12.322527"><ele>401.0</ele><time>2026-04-04T15:12:16.042Z</time></trkpt><trkpt lat="43.2530292" lon="12.3224453"><ele>401.0</ele><time>2026-04-04T15:12:17.035Z</time></trkpt><trkpt lat="43.2531665" lon="12.3223742"><ele>399.3333333333333</ele><time>2026-04-04T15:12:18.044Z</time></trkpt><trkpt lat="43.2533184" lon="12.3223275"><ele>397.66666666666663</ele><time>2026-04-04T15:12:19.034Z</time></trkpt><trkpt lat="43.2534762" lon="12.3222882"><ele>396.0</ele><time>2026-04-04T15:12:20.039Z</time></trkpt><trkpt lat="43.2536146" lon="12.3222261"><ele>398.75</ele><time>2026-04-04T15:12:21.04Z</time></trkpt><trkpt lat="43.2537319" lon="12.3221332"><ele>401.5</ele><time>2026-04-04T15:12:22.034Z</time></trkpt><trkpt lat="43.2538391" lon="12.3220219"><ele>404.25</ele><time>2026-04-04T15:12:23.05Z</time></trkpt><trkpt lat="43.2539399" lon="12.3219094"><ele>407.0</ele><time>2026-04-04T15:12:24.037Z</time></trkpt><trkpt lat="43.2540294" lon="12.3217948"><ele>407.0</ele><time>2026-04-04T15:12:25.043Z</time></trkpt><trkpt lat="43.2541158" lon="12.3216787"><ele>407.0</ele><time>2026-04-04T15:12:26.04Z</time></trkpt><trkpt lat="43.2542053" lon="12.3215524"><ele>407.0</ele><time>2026-04-04T15:12:27.037Z</time></trkpt><trkpt lat="43.2542834" lon="12.3214163"><ele>407.0</ele><time>2026-04-04T15:12:28.042Z</time></trkpt><trkpt lat="43.254358" lon="12.3212836"><ele>408.0</ele><time>2026-04-04T15:12:29.037Z</time></trkpt><trkpt lat="43.2544303" lon="12.3211659"><ele>409.0</ele><time>2026-04-04T15:12:30.039Z</time></trkpt><trkpt lat="43.2545059" lon="12.3210685"><ele>410.0</ele><time>2026-04-04T15:12:31.039Z</time></trkpt><trkpt lat="43.2545966" lon="12.3209905"><ele>411.0</ele><time>2026-04-04T15:12:32.051Z</time></trkpt><trkpt lat="43.2546911" lon="12.320944"><ele>412.0</ele><time>2026-04-04T15:12:33.042Z</time></trkpt><trkpt lat="43.2547893" lon="12.3209292"><ele>412.0</ele><time>2026-04-04T15:12:34.037Z</time></trkpt><trkpt lat="43.2548837" lon="12.3209533"><ele>412.0</ele><time>2026-04-04T15:12:35.037Z</time></trkpt><trkpt lat="43.2549739" lon="12.3209852"><ele>412.0</ele><time>2026-04-04T15:12:36.034Z</time></trkpt><trkpt lat="43.255068" lon="12.3210393"><ele>412.0</ele><time>2026-04-04T15:12:37.044Z</time></trkpt><trkpt lat="43.255151" lon="12.3211073"><ele>412.0</ele><time>2026-04-04T15:12:38.044Z</time></trkpt><trkpt lat="43.2552169" lon="12.321202"><ele>412.0</ele><time>2026-04-04T15:12:39.052Z</time></trkpt><trkpt lat="43.2552678" lon="12.3213237"><ele>412.0</ele><time>2026-04-04T15:12:40.039Z</time></trkpt><trkpt lat="43.2552911" lon="12.3214684"><ele>412.0</ele><time>2026-04-04T15:12:41.045Z</time></trkpt><trkpt lat="43.2552963" lon="12.3216268"><ele>412.0</ele><time>2026-04-04T15:12:42.05Z</time></trkpt><trkpt lat="43.2552959" lon="12.3217936"><ele>412.0</ele><time>2026-04-04T15:12:43.044Z</time></trkpt><trkpt lat="43.2552901" lon="12.3219663"><ele>410.75</ele><time>2026-04-04T15:12:44.038Z</time></trkpt><trkpt lat="43.2552908" lon="12.3221502"><ele>409.5</ele><time>2026-04-04T15:12:45.042Z</time></trkpt><trkpt lat="43.25531" lon="12.3223291"><ele>408.25</ele><time>2026-04-04T15:12:46.045Z</time></trkpt><trkpt lat="43.2553501" lon="12.3225114"><ele>407.0</ele><time>2026-04-04T15:12:47.034Z</time></trkpt><trkpt lat="43.2553889" lon="12.3226597"><ele>407.00000000000006</ele><time>2026-04-04T15:12:48.039Z</time></trkpt><trkpt lat="43.2554278" lon="12.3227358"><ele>407.0</ele><time>2026-04-04T15:12:49.027Z</time></trkpt><trkpt lat="43.2554748" lon="12.3226482"><ele>407.0</ele><time>2026-04-04T15:12:54.039Z</time></trkpt><trkpt lat="43.2554453" lon="12.3225643"><ele>407.0</ele><time>2026-04-04T15:12:55.048Z</time></trkpt><trkpt lat="43.2554291" lon="12.3224772"><ele>407.0</ele><time>2026-04-04T15:12:56.052Z</time></trkpt><trkpt lat="43.2554374" lon="12.3223881"><ele>407.00000000000006</ele><time>2026-04-04T15:12:57.044Z</time></trkpt><trkpt lat="43.2554638" lon="12.3222989"><ele>407.0</ele><time>2026-04-04T15:12:58.045Z</time></trkpt><trkpt lat="43.2555163" lon="12.3221934"><ele>407.0</ele><time>2026-04-04T15:12:59.037Z</time></trkpt><trkpt lat="43.2555855" lon="12.322076"><ele>407.0</ele><time>2026-04-04T15:13:00.038Z</time></trkpt><trkpt lat="43.2556687" lon="12.3219608"><ele>407.0</ele><time>2026-04-04T15:13:01.036Z</time></trkpt><trkpt lat="43.2557458" lon="12.3218393"><ele>407.0</ele><time>2026-04-04T15:13:02.044Z</time></trkpt><trkpt lat="43.2558127" lon="12.3216972"><ele>410.25</ele><time>2026-04-04T15:13:03.037Z</time></trkpt><trkpt lat="43.2558783" lon="12.3215526"><ele>413.5</ele><time>2026-04-04T15:13:04.042Z</time></trkpt><trkpt lat="43.2559205" lon="12.3214005"><ele>416.75</ele><time>2026-04-04T15:13:05.043Z</time></trkpt><trkpt lat="43.2559564" lon="12.3212268"><ele>420.0</ele><time>2026-04-04T15:13:06.041Z</time></trkpt><trkpt lat="43.255979" lon="12.3210108"><ele>420.0</ele><time>2026-04-04T15:13:07.038Z</time></trkpt><trkpt lat="43.2559847" lon="12.3207764"><ele>420.0</ele><time>2026-04-04T15:13:08.032Z</time></trkpt><trkpt lat="43.2559924" lon="12.3205428"><ele>420.0</ele><time>2026-04-04T15:13:09.042Z</time></trkpt><trkpt lat="43.2560001" lon="12.3203047"><ele>421.25</ele><time>2026-04-04T15:13:10.039Z</time></trkpt><trkpt lat="43.2560025" lon="12.3200919"><ele>422.5</ele><time>2026-04-04T15:13:11.039Z</time></trkpt><trkpt lat="43.2560095" lon="12.3199232"><ele>423.75</ele><time>2026-04-04T15:13:12.049Z</time></trkpt><trkpt lat="43.2560225" lon="12.3197804"><ele>425.0</ele><time>2026-04-04T15:13:13.039Z</time></trkpt><trkpt lat="43.2560338" lon="12.3196448"><ele>426.8333333333333</ele><time>2026-04-04T15:13:14.038Z</time></trkpt><trkpt lat="43.2560452" lon="12.3195293"><ele>428.66666666666663</ele><time>2026-04-04T15:13:15.037Z</time></trkpt><trkpt lat="43.2560729" lon="12.3194327"><ele>430.5</ele><time>2026-04-04T15:13:16.041Z</time></trkpt><trkpt lat="43.2561236" lon="12.3193556"><ele>432.33333333333337</ele><time>2026-04-04T15:13:17.051Z</time></trkpt><trkpt lat="43.2562056" lon="12.3192894"><ele>434.1666666666667</ele><time>2026-04-04T15:13:18.037Z</time></trkpt><trkpt lat="43.2563004" lon="12.3192114"><ele>436.0</ele><time>2026-04-04T15:13:19.053Z</time></trkpt><trkpt lat="43.2563849" lon="12.3191442"><ele>436.00000000000006</ele><time>2026-04-04T15:13:20.035Z</time></trkpt><trkpt lat="43.2564504" lon="12.3190749"><ele>436.0</ele><time>2026-04-04T15:13:21.04Z</time></trkpt><trkpt lat="43.2565093" lon="12.3189974"><ele>436.0</ele><time>2026-04-04T15:13:22.039Z</time></trkpt><trkpt lat="43.256553" lon="12.3188997"><ele>436.0</ele><time>2026-04-04T15:13:23.038Z</time></trkpt><trkpt lat="43.2565739" lon="12.3187721"><ele>436.00000000000006</ele><time>2026-04-04T15:13:24.041Z</time></trkpt><trkpt lat="43.2565806" lon="12.3186364"><ele>436.0</ele><time>2026-04-04T15:13:25.049Z</time></trkpt><trkpt lat="43.2565845" lon="12.3184774"><ele>437.0</ele><time>2026-04-04T15:13:26.032Z</time></trkpt><trkpt lat="43.2565811" lon="12.3183175"><ele>438.0</ele><time>2026-04-04T15:13:27.027Z</time></trkpt><trkpt lat="43.2565787" lon="12.318182"><ele>439.0</ele><time>2026-04-04T15:13:28.041Z</time></trkpt><trkpt lat="43.2565789" lon="12.3180655"><ele>440.0</ele><time>2026-04-04T15:13:29.038Z</time></trkpt><trkpt lat="43.2565683" lon="12.3179463"><ele>441.0</ele><time>2026-04-04T15:13:30.04Z</time></trkpt><trkpt lat="43.2565565" lon="12.3178411"><ele>443.0</ele><time>2026-04-04T15:13:31.041Z</time></trkpt><trkpt lat="43.2565638" lon="12.3177432"><ele>445.0</ele><time>2026-04-04T15:13:32.034Z</time></trkpt><trkpt lat="43.2566027" lon="12.317669"><ele>447.0</ele><time>2026-04-04T15:13:33.033Z</time></trkpt><trkpt lat="43.2566703" lon="12.3176328"><ele>449.0</ele><time>2026-04-04T15:13:34.032Z</time></trkpt><trkpt lat="43.256748" lon="12.3176161"><ele>451.0</ele><time>2026-04-04T15:13:35.038Z</time></trkpt><trkpt lat="43.2568333" lon="12.317636"><ele>453.0</ele><time>2026-04-04T15:13:36.046Z</time></trkpt><trkpt lat="43.2568987" lon="12.3176499"><ele>455.0</ele><time>2026-04-04T15:13:37.039Z</time></trkpt><trkpt lat="43.2569781" lon="12.3175875"><ele>454.99999999999994</ele><time>2026-04-04T15:13:39.031Z</time></trkpt><trkpt lat="43.2569754" lon="12.3174993"><ele>455.0</ele><time>2026-04-04T15:13:41.035Z</time></trkpt><trkpt lat="43.256875" lon="12.3174449"><ele>455.0</ele><time>2026-04-04T15:13:43.038Z</time></trkpt><trkpt lat="43.2567897" lon="12.3174554"><ele>455.0</ele><time>2026-04-04T15:13:44.047Z</time></trkpt><trkpt lat="43.2566978" lon="12.3174387"><ele>454.99999999999994</ele><time>2026-04-04T15:13:45.028Z</time></trkpt><trkpt lat="43.2566151" lon="12.3173878"><ele>455.0</ele><time>2026-04-04T15:13:46.033Z</time></trkpt><trkpt lat="43.2565445" lon="12.3173421"><ele>454.99999999999994</ele><time>2026-04-04T15:13:47.031Z</time></trkpt><trkpt lat="43.2564807" lon="12.3173379"><ele>455.0</ele><time>2026-04-04T15:13:48.041Z</time></trkpt><trkpt lat="43.2564193" lon="12.3173891"><ele>455.0</ele><time>2026-04-04T15:13:49.032Z</time></trkpt><trkpt lat="43.2563742" lon="12.3174699"><ele>455.0</ele><time>2026-04-04T15:13:50.038Z</time></trkpt><trkpt lat="43.2563383" lon="12.3175813"><ele>454.99999999999994</ele><time>2026-04-04T15:13:51.036Z</time></trkpt><trkpt lat="43.256301" lon="12.3176974"><ele>455.0</ele><time>2026-04-04T15:13:52.025Z</time></trkpt><trkpt lat="43.2562446" lon="12.3178058"><ele>454.4</ele><time>2026-04-04T15:13:53.032Z</time></trkpt><trkpt lat="43.2561669" lon="12.3179027"><ele>453.8</ele><time>2026-04-04T15:13:54.033Z</time></trkpt><trkpt lat="43.2560807" lon="12.3179799"><ele>453.20000000000005</ele><time>2026-04-04T15:13:55.039Z</time></trkpt><trkpt lat="43.2559953" lon="12.3180337"><ele>452.6</ele><time>2026-04-04T15:13:56.042Z</time></trkpt><trkpt lat="43.2559029" lon="12.3180674"><ele>452.0</ele><time>2026-04-04T15:13:57.033Z</time></trkpt><trkpt lat="43.2558003" lon="12.318077"><ele>455.75</ele><time>2026-04-04T15:13:58.034Z</time></trkpt><trkpt lat="43.255697" lon="12.318063"><ele>459.5</ele><time>2026-04-04T15:13:59.036Z</time></trkpt><trkpt lat="43.2555866" lon="12.3180216"><ele>463.25</ele><time>2026-04-04T15:14:00.029Z</time></trkpt><trkpt lat="43.25547" lon="12.3179577"><ele>467.0</ele><time>2026-04-04T15:14:01.038Z</time></trkpt><trkpt lat="43.2553488" lon="12.3178728"><ele>467.0</ele><time>2026-04-04T15:14:02.045Z</time></trkpt><trkpt lat="43.2552447" lon="12.3177868"><ele>467.00000000000006</ele><time>2026-04-04T15:14:03.033Z</time></trkpt><trkpt lat="43.2551583" lon="12.3177107"><ele>467.00000000000006</ele><time>2026-04-04T15:14:04.04Z</time></trkpt><trkpt lat="43.2550966" lon="12.3176258"><ele>467.0</ele><time>2026-04-04T15:14:05.036Z</time></trkpt><trkpt lat="43.2550484" lon="12.3175108"><ele>467.0</ele><time>2026-04-04T15:14:06.042Z</time></trkpt><trkpt lat="43.2550189" lon="12.3173726"><ele>470.40000000000003</ele><time>2026-04-04T15:14:07.028Z</time></trkpt><trkpt lat="43.2549865" lon="12.3172282"><ele>473.80000000000007</ele><time>2026-04-04T15:14:08.035Z</time></trkpt><trkpt lat="43.2549471" lon="12.3171068"><ele>477.2</ele><time>2026-04-04T15:14:09.036Z</time></trkpt><trkpt lat="43.2548923" lon="12.3170262"><ele>480.6</ele><time>2026-04-04T15:14:10.043Z</time></trkpt><trkpt lat="43.2548157" lon="12.3169727"><ele>484.0</ele><time>2026-04-04T15:14:11.035Z</time></trkpt><trkpt lat="43.2547246" lon="12.3169582"><ele>485.0</ele><time>2026-04-04T15:14:12.043Z</time></trkpt><trkpt lat="43.2546498" lon="12.3169672"><ele>486.0</ele><time>2026-04-04T15:14:13.044Z</time></trkpt><trkpt lat="43.2545702" lon="12.3170183"><ele>487.0</ele><time>2026-04-04T15:14:14.033Z</time></trkpt><trkpt lat="43.2544812" lon="12.3170893"><ele>488.0</ele><time>2026-04-04T15:14:15.041Z</time></trkpt><trkpt lat="43.2543763" lon="12.3171621"><ele>489.0</ele><time>2026-04-04T15:14:16.042Z</time></trkpt><trkpt lat="43.2542589" lon="12.3172132"><ele>489.25</ele><time>2026-04-04T15:14:17.036Z</time></trkpt><trkpt lat="43.2541214" lon="12.3172464"><ele>489.5</ele><time>2026-04-04T15:14:18.038Z</time></trkpt><trkpt lat="43.253984" lon="12.317279"><ele>489.75</ele><time>2026-04-04T15:14:19.046Z</time></trkpt><trkpt lat="43.2538615" lon="12.3173108"><ele>490.0</ele><time>2026-04-04T15:14:20.044Z</time></trkpt><trkpt lat="43.2537522" lon="12.3173369"><ele>490.0</ele><time>2026-04-04T15:14:21.03Z</time></trkpt><trkpt lat="43.2536636" lon="12.3173793"><ele>490.0</ele><time>2026-04-04T15:14:22.035Z</time></trkpt><trkpt lat="43.2535815" lon="12.317443"><ele>490.0</ele><time>2026-04-04T15:14:23.038Z</time></trkpt><trkpt lat="43.2535082" lon="12.3175424"><ele>490.0</ele><time>2026-04-04T15:14:24.043Z</time></trkpt><trkpt lat="43.25345" lon="12.3176435"><ele>490.0</ele><time>2026-04-04T15:14:25.04Z</time></trkpt><trkpt lat="43.2534152" lon="12.3177797"><ele>490.0</ele><time>2026-04-04T15:14:26.041Z</time></trkpt><trkpt lat="43.253395" lon="12.3179415"><ele>490.0</ele><time>2026-04-04T15:14:27.043Z</time></trkpt><trkpt lat="43.2533876" lon="12.3180984"><ele>490.0</ele><time>2026-04-04T15:14:28.034Z</time></trkpt><trkpt lat="43.2533869" lon="12.3182384"><ele>490.0</ele><time>2026-04-04T15:14:29.045Z</time></trkpt><trkpt lat="43.2533776" lon="12.3183544"><ele>490.0</ele><time>2026-04-04T15:14:30.046Z</time></trkpt><trkpt lat="43.253359" lon="12.318458"><ele>488.8</ele><time>2026-04-04T15:14:31.042Z</time></trkpt><trkpt lat="43.2533067" lon="12.3185231"><ele>487.6</ele><time>2026-04-04T15:14:32.042Z</time></trkpt><trkpt lat="43.253192" lon="12.3185544"><ele>486.4</ele><time>2026-04-04T15:14:34.044Z</time></trkpt><trkpt lat="43.2531236" lon="12.3184633"><ele>485.2</ele><time>2026-04-04T15:14:36.04Z</time></trkpt><trkpt lat="43.2531333" lon="12.3183166"><ele>484.0</ele><time>2026-04-04T15:14:38.051Z</time></trkpt><trkpt lat="43.2531934" lon="12.3181794"><ele>485.00000000000006</ele><time>2026-04-04T15:14:40.038Z</time></trkpt><trkpt lat="43.2532383" lon="12.3180056"><ele>486.0</ele><time>2026-04-04T15:14:42.044Z</time></trkpt><trkpt lat="43.2532431" lon="12.3179115"><ele>487.0</ele><time>2026-04-04T15:14:43.047Z</time></trkpt><trkpt lat="43.253226" lon="12.3178157"><ele>488.0</ele><time>2026-04-04T15:14:44.045Z</time></trkpt><trkpt lat="43.2532056" lon="12.3177173"><ele>489.00000000000006</ele><time>2026-04-04T15:14:45.042Z</time></trkpt><trkpt lat="43.253192" lon="12.3176173"><ele>490.0</ele><time>2026-04-04T15:14:46.04Z</time></trkpt><trkpt lat="43.253182" lon="12.317511"><ele>490.00000000000006</ele><time>2026-04-04T15:14:47.041Z</time></trkpt><trkpt lat="43.2531774" lon="12.3174044"><ele>490.0</ele><time>2026-04-04T15:14:48.041Z</time></trkpt><trkpt lat="43.2531816" lon="12.3172877"><ele>490.0</ele><time>2026-04-04T15:14:49.056Z</time></trkpt><trkpt lat="43.2531941" lon="12.3171846"><ele>490.0</ele><time>2026-04-04T15:14:50.047Z</time></trkpt><trkpt lat="43.2532165" lon="12.317078"><ele>490.00000000000006</ele><time>2026-04-04T15:14:51.041Z</time></trkpt><trkpt lat="43.2532506" lon="12.3169808"><ele>490.0</ele><time>2026-04-04T15:14:52.041Z</time></trkpt><trkpt lat="43.253293" lon="12.3168889"><ele>491.6666666666667</ele><time>2026-04-04T15:14:53.04Z</time></trkpt><trkpt lat="43.2533334" lon="12.3167962"><ele>493.33333333333337</ele><time>2026-04-04T15:14:54.041Z</time></trkpt><trkpt lat="43.2533801" lon="12.3167053"><ele>495.0</ele><time>2026-04-04T15:14:55.046Z</time></trkpt><trkpt lat="43.2534277" lon="12.3166181"><ele>496.66666666666663</ele><time>2026-04-04T15:14:56.041Z</time></trkpt><trkpt lat="43.2534788" lon="12.316531"><ele>498.3333333333333</ele><time>2026-04-04T15:14:57.035Z</time></trkpt><trkpt lat="43.2535298" lon="12.3164451"><ele>500.0</ele><time>2026-04-04T15:14:58.039Z</time></trkpt><trkpt lat="43.2535853" lon="12.3163495"><ele>500.3333333333333</ele><time>2026-04-04T15:14:59.043Z</time></trkpt><trkpt lat="43.2536447" lon="12.3162601"><ele>500.66666666666663</ele><time>2026-04-04T15:15:00.043Z</time></trkpt><trkpt lat="43.2537077" lon="12.316176"><ele>501.0</ele><time>2026-04-04T15:15:01.036Z</time></trkpt><trkpt lat="43.253764" lon="12.3160958"><ele>501.33333333333337</ele><time>2026-04-04T15:15:02.05Z</time></trkpt><trkpt lat="43.2538196" lon="12.3160234"><ele>501.6666666666667</ele><time>2026-04-04T15:15:03.04Z</time></trkpt><trkpt lat="43.2538763" lon="12.31596"><ele>502.0</ele><time>2026-04-04T15:15:04.042Z</time></trkpt><trkpt lat="43.2539378" lon="12.3159026"><ele>502.83333333333337</ele><time>2026-04-04T15:15:05.053Z</time></trkpt><trkpt lat="43.2540005" lon="12.3158513"><ele>503.6666666666667</ele><time>2026-04-04T15:15:06.052Z</time></trkpt><trkpt lat="43.2540619" lon="12.3157991"><ele>504.5</ele><time>2026-04-04T15:15:07.042Z</time></trkpt><trkpt lat="43.2541233" lon="12.3157462"><ele>505.33333333333337</ele><time>2026-04-04T15:15:08.049Z</time></trkpt><trkpt lat="43.2541936" lon="12.3156831"><ele>506.1666666666667</ele><time>2026-04-04T15:15:09.046Z</time></trkpt><trkpt lat="43.2542701" lon="12.3156194"><ele>507.0</ele><time>2026-04-04T15:15:10.055Z</time></trkpt><trkpt lat="43.2543523" lon="12.3155476"><ele>507.6666666666667</ele><time>2026-04-04T15:15:11.048Z</time></trkpt><trkpt lat="43.2544265" lon="12.3154777"><ele>508.33333333333337</ele><time>2026-04-04T15:15:12.042Z</time></trkpt><trkpt lat="43.2544971" lon="12.3154012"><ele>509.0</ele><time>2026-04-04T15:15:13.049Z</time></trkpt><trkpt lat="43.2545634" lon="12.3153349"><ele>509.6666666666667</ele><time>2026-04-04T15:15:14.041Z</time></trkpt><trkpt lat="43.2546302" lon="12.3152678"><ele>510.33333333333337</ele><time>2026-04-04T15:15:15.043Z</time></trkpt><trkpt lat="43.2547009" lon="12.3152073"><ele>511.0</ele><time>2026-04-04T15:15:16.046Z</time></trkpt><trkpt lat="43.2547726" lon="12.3151455"><ele>512.5</ele><time>2026-04-04T15:15:17.047Z</time></trkpt><trkpt lat="43.2548398" lon="12.3150722"><ele>514.0</ele><time>2026-04-04T15:15:18.041Z</time></trkpt><trkpt lat="43.2549089" lon="12.3150077"><ele>515.5</ele><time>2026-04-04T15:15:19.046Z</time></trkpt><trkpt lat="43.254977" lon="12.3149384"><ele>517.0</ele><time>2026-04-04T15:15:20.044Z</time></trkpt><trkpt lat="43.2550294" lon="12.3148608"><ele>518.5</ele><time>2026-04-04T15:15:21.044Z</time></trkpt><trkpt lat="43.255077" lon="12.3147528"><ele>520.0</ele><time>2026-04-04T15:15:22.044Z</time></trkpt><trkpt lat="43.25511" lon="12.3146162"><ele>521.0</ele><time>2026-04-04T15:15:23.035Z</time></trkpt><trkpt lat="43.2551336" lon="12.3145022"><ele>522.0</ele><time>2026-04-04T15:15:24.04Z</time></trkpt><trkpt lat="43.2551523" lon="12.3144139"><ele>523.0</ele><time>2026-04-04T15:15:25.053Z</time></trkpt><trkpt lat="43.2551973" lon="12.3143108"><ele>524.0</ele><time>2026-04-04T15:15:27.041Z</time></trkpt><trkpt lat="43.2552224" lon="12.3142263"><ele>525.0</ele><time>2026-04-04T15:15:29.041Z</time></trkpt><trkpt lat="43.2552517" lon="12.3141254"><ele>526.0</ele><time>2026-04-04T15:15:32.023Z</time></trkpt><trkpt lat="43.2553182" lon="12.3141024"><ele>526.0</ele><time>2026-04-04T15:15:34.043Z</time></trkpt><trkpt lat="43.2552604" lon="12.3141389"><ele>526.0</ele><time>2026-04-04T15:15:50.037Z</time></trkpt><trkpt lat="43.2552241" lon="12.3142273"><ele>526.0</ele><time>2026-04-04T15:15:52.038Z</time></trkpt><trkpt lat="43.2551679" lon="12.3141803"><ele>526.0</ele><time>2026-04-04T15:16:49.045Z</time></trkpt><trkpt lat="43.2552253" lon="12.3141421"><ele>526.0</ele><time>2026-04-04T15:17:01.047Z</time></trkpt><trkpt lat="43.2551794" lon="12.3142035"><ele>526.0</ele><time>2026-04-04T15:18:27.047Z</time></trkpt><trkpt lat="43.255142" lon="12.3143028"><ele>526.0</ele><time>2026-04-04T15:20:24.041Z</time></trkpt><trkpt lat="43.2550761" lon="12.3143409"><ele>526.0</ele><time>2026-04-04T15:20:27.042Z</time></trkpt><trkpt lat="43.2550199" lon="12.3142823"><ele>526.0</ele><time>2026-04-04T15:20:29.061Z</time></trkpt><trkpt lat="43.2549726" lon="12.3141791"><ele>526.0</ele><time>2026-04-04T15:20:31.051Z</time></trkpt><trkpt lat="43.2549153" lon="12.3140606"><ele>526.0</ele><time>2026-04-04T15:20:33.054Z</time></trkpt><trkpt lat="43.254837" lon="12.3139425"><ele>526.0</ele><time>2026-04-04T15:20:35.046Z</time></trkpt><trkpt lat="43.2547808" lon="12.3138948"><ele>526.0</ele><time>2026-04-04T15:20:36.044Z</time></trkpt><trkpt lat="43.2547046" lon="12.3138571"><ele>526.0</ele><time>2026-04-04T15:20:37.035Z</time></trkpt><trkpt lat="43.2546293" lon="12.3138164"><ele>526.0</ele><time>2026-04-04T15:20:38.04Z</time></trkpt><trkpt lat="43.254564" lon="12.313763"><ele>526.0</ele><time>2026-04-04T15:20:39.047Z</time></trkpt><trkpt lat="43.2544975" lon="12.3136954"><ele>526.0</ele><time>2026-04-04T15:20:40.041Z</time></trkpt><trkpt lat="43.2544399" lon="12.3135981"><ele>526.0</ele><time>2026-04-04T15:20:41.038Z</time></trkpt><trkpt lat="43.2543888" lon="12.3134995"><ele>526.0</ele><time>2026-04-04T15:20:42.048Z</time></trkpt><trkpt lat="43.2543405" lon="12.3134142"><ele>526.0</ele><time>2026-04-04T15:20:43.047Z</time></trkpt><trkpt lat="43.2542862" lon="12.3133639"><ele>526.0</ele><time>2026-04-04T15:20:44.049Z</time></trkpt><trkpt lat="43.2542231" lon="12.3133166"><ele>526.0</ele><time>2026-04-04T15:20:45.042Z</time></trkpt><trkpt lat="43.254162" lon="12.3132719"><ele>526.0</ele><time>2026-04-04T15:20:46.036Z</time></trkpt><trkpt lat="43.2540423" lon="12.3132506"><ele>526.0</ele><time>2026-04-04T15:20:48.065Z</time></trkpt><trkpt lat="43.2539268" lon="12.3133158"><ele>524.5</ele><time>2026-04-04T15:20:50.052Z</time></trkpt><trkpt lat="43.253871" lon="12.3133846"><ele>523.0</ele><time>2026-04-04T15:20:51.033Z</time></trkpt><trkpt lat="43.2538028" lon="12.313436"><ele>521.5</ele><time>2026-04-04T15:20:52.039Z</time></trkpt><trkpt lat="43.2537379" lon="12.313457"><ele>520.0</ele><time>2026-04-04T15:20:53.042Z</time></trkpt><trkpt lat="43.2536737" lon="12.3134698"><ele>518.5</ele><time>2026-04-04T15:20:54.037Z</time></trkpt><trkpt lat="43.2535627" lon="12.3134088"><ele>517.0</ele><time>2026-04-04T15:20:56.04Z</time></trkpt><trkpt lat="43.2535077" lon="12.313364"><ele>517.0</ele><time>2026-04-04T15:20:57.04Z</time></trkpt><trkpt lat="43.2534519" lon="12.3132991"><ele>517.0</ele><time>2026-04-04T15:20:58.058Z</time></trkpt><trkpt lat="43.2533905" lon="12.3132276"><ele>517.0</ele><time>2026-04-04T15:20:59.041Z</time></trkpt><trkpt lat="43.2533221" lon="12.3131549"><ele>517.0</ele><time>2026-04-04T15:21:00.052Z</time></trkpt><trkpt lat="43.2532561" lon="12.3130843"><ele>517.0</ele><time>2026-04-04T15:21:01.06Z</time></trkpt><trkpt lat="43.2531887" lon="12.313009"><ele>517.0</ele><time>2026-04-04T15:21:02.039Z</time></trkpt><trkpt lat="43.2531177" lon="12.3129408"><ele>517.8000000000001</ele><time>2026-04-04T15:21:03.047Z</time></trkpt><trkpt lat="43.2530406" lon="12.3128724"><ele>518.6</ele><time>2026-04-04T15:21:04.037Z</time></trkpt><trkpt lat="43.2529686" lon="12.3128112"><ele>519.4000000000001</ele><time>2026-04-04T15:21:05.042Z</time></trkpt><trkpt lat="43.2528851" lon="12.3127661"><ele>520.2</ele><time>2026-04-04T15:21:06.049Z</time></trkpt><trkpt lat="43.2527944" lon="12.3127251"><ele>521.0</ele><time>2026-04-04T15:21:07.043Z</time></trkpt><trkpt lat="43.2526894" lon="12.3127117"><ele>521.0</ele><time>2026-04-04T15:21:08.042Z</time></trkpt><trkpt lat="43.2525899" lon="12.3126895"><ele>521.0</ele><time>2026-04-04T15:21:09.068Z</time></trkpt><trkpt lat="43.2524886" lon="12.3126565"><ele>521.0</ele><time>2026-04-04T15:21:10.052Z</time></trkpt><trkpt lat="43.2523901" lon="12.3126034"><ele>521.0</ele><time>2026-04-04T15:21:11.047Z</time></trkpt><trkpt lat="43.2522863" lon="12.3125397"><ele>521.0</ele><time>2026-04-04T15:21:12.047Z</time></trkpt><trkpt lat="43.2521818" lon="12.3124874"><ele>522.25</ele><time>2026-04-04T15:21:13.048Z</time></trkpt><trkpt lat="43.2520885" lon="12.3124195"><ele>523.5</ele><time>2026-04-04T15:21:14.037Z</time></trkpt><trkpt lat="43.2519851" lon="12.3123315"><ele>524.75</ele><time>2026-04-04T15:21:15.038Z</time></trkpt><trkpt lat="43.2518867" lon="12.3122418"><ele>526.0</ele><time>2026-04-04T15:21:16.038Z</time></trkpt><trkpt lat="43.251799" lon="12.3121632"><ele>526.0</ele><time>2026-04-04T15:21:17.033Z</time></trkpt><trkpt lat="43.2517075" lon="12.3121007"><ele>526.0</ele><time>2026-04-04T15:21:18.043Z</time></trkpt><trkpt lat="43.2516227" lon="12.3120422"><ele>526.0</ele><time>2026-04-04T15:21:19.046Z</time></trkpt><trkpt lat="43.2515498" lon="12.3119741"><ele>526.0</ele><time>2026-04-04T15:21:20.055Z</time></trkpt><trkpt lat="43.2514752" lon="12.3118967"><ele>526.0</ele><time>2026-04-04T15:21:21.035Z</time></trkpt><trkpt lat="43.2514022" lon="12.3118199"><ele>523.0</ele><time>2026-04-04T15:21:22.054Z</time></trkpt><trkpt lat="43.2513362" lon="12.3117513"><ele>520.0</ele><time>2026-04-04T15:21:23.043Z</time></trkpt><trkpt lat="43.2512644" lon="12.3116762"><ele>517.0</ele><time>2026-04-04T15:21:24.047Z</time></trkpt><trkpt lat="43.2511939" lon="12.3116019"><ele>514.0</ele><time>2026-04-04T15:21:25.05Z</time></trkpt><trkpt lat="43.2511202" lon="12.311554"><ele>511.00000000000006</ele><time>2026-04-04T15:21:26.047Z</time></trkpt><trkpt lat="43.2510472" lon="12.3115161"><ele>508.0</ele><time>2026-04-04T15:21:27.043Z</time></trkpt><trkpt lat="43.2509727" lon="12.3114768"><ele>508.00000000000006</ele><time>2026-04-04T15:21:28.048Z</time></trkpt><trkpt lat="43.2508937" lon="12.3114199"><ele>508.0</ele><time>2026-04-04T15:21:29.054Z</time></trkpt><trkpt lat="43.2508069" lon="12.3113718"><ele>508.0</ele><time>2026-04-04T15:21:30.052Z</time></trkpt><trkpt lat="43.2507193" lon="12.3113339"><ele>508.0</ele><time>2026-04-04T15:21:31.041Z</time></trkpt><trkpt lat="43.2506459" lon="12.3112925"><ele>508.00000000000006</ele><time>2026-04-04T15:21:32.048Z</time></trkpt><trkpt lat="43.2505787" lon="12.311252"><ele>508.0</ele><time>2026-04-04T15:21:33.042Z</time></trkpt><trkpt lat="43.2505109" lon="12.3111961"><ele>506.33333333333337</ele><time>2026-04-04T15:21:34.055Z</time></trkpt><trkpt lat="43.2504536" lon="12.3111235"><ele>504.6666666666667</ele><time>2026-04-04T15:21:35.065Z</time></trkpt><trkpt lat="43.2503911" lon="12.3110386"><ele>503.0</ele><time>2026-04-04T15:21:36.046Z</time></trkpt><trkpt lat="43.2503335" lon="12.310954"><ele>501.33333333333337</ele><time>2026-04-04T15:21:37.042Z</time></trkpt><trkpt lat="43.2502718" lon="12.3108886"><ele>499.6666666666667</ele><time>2026-04-04T15:21:38.042Z</time></trkpt><trkpt lat="43.2502143" lon="12.3108184"><ele>498.0</ele><time>2026-04-04T15:21:39.046Z</time></trkpt><trkpt lat="43.250175" lon="12.310743"><ele>498.0</ele><time>2026-04-04T15:21:40.043Z</time></trkpt><trkpt lat="43.2501449" lon="12.3105857"><ele>498.0</ele><time>2026-04-04T15:21:42.056Z</time></trkpt><trkpt lat="43.2501395" lon="12.3104817"><ele>498.0</ele><time>2026-04-04T15:21:44.051Z</time></trkpt><trkpt lat="43.2501602" lon="12.3103817"><ele>498.0</ele><time>2026-04-04T15:21:47.042Z</time></trkpt><trkpt lat="43.2502166" lon="12.3102682"><ele>498.0</ele><time>2026-04-04T15:22:17.046Z</time></trkpt><trkpt lat="43.2502544" lon="12.3101974"><ele>498.0</ele><time>2026-04-04T15:22:18.048Z</time></trkpt><trkpt lat="43.2502972" lon="12.3101257"><ele>497.5</ele><time>2026-04-04T15:22:19.049Z</time></trkpt><trkpt lat="43.2503513" lon="12.3100552"><ele>497.0</ele><time>2026-04-04T15:22:20.047Z</time></trkpt><trkpt lat="43.2504096" lon="12.3099944"><ele>496.5</ele><time>2026-04-04T15:22:21.042Z</time></trkpt><trkpt lat="43.2504679" lon="12.3099397"><ele>496.0</ele><time>2026-04-04T15:22:22.038Z</time></trkpt><trkpt lat="43.2505244" lon="12.3098861"><ele>495.5</ele><time>2026-04-04T15:22:23.054Z</time></trkpt><trkpt lat="43.2505749" lon="12.3098331"><ele>495.0</ele><time>2026-04-04T15:22:24.049Z</time></trkpt><trkpt lat="43.2506311" lon="12.3097035"><ele>491.6</ele><time>2026-04-04T15:22:26.043Z</time></trkpt><trkpt lat="43.2506463" lon="12.3095495"><ele>488.2</ele><time>2026-04-04T15:22:28.04Z</time></trkpt><trkpt lat="43.2506159" lon="12.3094023"><ele>484.79999999999995</ele><time>2026-04-04T15:22:30.043Z</time></trkpt><trkpt lat="43.2506059" lon="12.3093103"><ele>481.4</ele><time>2026-04-04T15:22:31.043Z</time></trkpt><trkpt lat="43.2505816" lon="12.3091481"><ele>478.0</ele><time>2026-04-04T15:22:33.05Z</time></trkpt><trkpt lat="43.2505463" lon="12.3090004"><ele>476.0</ele><time>2026-04-04T15:22:35.038Z</time></trkpt><trkpt lat="43.2505283" lon="12.3088554"><ele>473.99999999999994</ele><time>2026-04-04T15:22:37.043Z</time></trkpt><trkpt lat="43.2505542" lon="12.3087237"><ele>471.99999999999994</ele><time>2026-04-04T15:22:39.041Z</time></trkpt><trkpt lat="43.2506047" lon="12.3085876"><ele>470.0</ele><time>2026-04-04T15:22:41.045Z</time></trkpt><trkpt lat="43.25067" lon="12.3084602"><ele>468.0</ele><time>2026-04-04T15:22:43.049Z</time></trkpt><trkpt lat="43.2507111" lon="12.3083945"><ele>470.5</ele><time>2026-04-04T15:22:44.045Z</time></trkpt><trkpt lat="43.2507595" lon="12.3083118"><ele>473.0</ele><time>2026-04-04T15:22:45.053Z</time></trkpt><trkpt lat="43.2508029" lon="12.3082356"><ele>475.5</ele><time>2026-04-04T15:22:46.041Z</time></trkpt><trkpt lat="43.2508467" lon="12.3081652"><ele>478.0</ele><time>2026-04-04T15:22:47.051Z</time></trkpt><trkpt lat="43.2508928" lon="12.3080787"><ele>480.5</ele><time>2026-04-04T15:22:48.042Z</time></trkpt><trkpt lat="43.2509372" lon="12.3079924"><ele>483.0</ele><time>2026-04-04T15:22:49.049Z</time></trkpt><trkpt lat="43.2509801" lon="12.3079001"><ele>483.0</ele><time>2026-04-04T15:22:50.057Z</time></trkpt><trkpt lat="43.2510117" lon="12.3078142"><ele>483.0</ele><time>2026-04-04T15:22:51.039Z</time></trkpt><trkpt lat="43.2510409" lon="12.3077345"><ele>483.0</ele><time>2026-04-04T15:22:52.044Z</time></trkpt><trkpt lat="43.2511115" lon="12.3076075"><ele>483.0</ele><time>2026-04-04T15:22:54.054Z</time></trkpt><trkpt lat="43.251182" lon="12.307475"><ele>483.0</ele><time>2026-04-04T15:22:56.049Z</time></trkpt><trkpt lat="43.2512185" lon="12.3073976"><ele>483.0</ele><time>2026-04-04T15:22:57.054Z</time></trkpt><trkpt lat="43.2512564" lon="12.3073264"><ele>480.0</ele><time>2026-04-04T15:22:58.051Z</time></trkpt><trkpt lat="43.251323" lon="12.307197"><ele>476.99999999999994</ele><time>2026-04-04T15:23:00.055Z</time></trkpt><trkpt lat="43.2513858" lon="12.3070862"><ele>473.99999999999994</ele><time>2026-04-04T15:23:02.047Z</time></trkpt><trkpt lat="43.2513999" lon="12.3069653"><ele>471.0</ele><time>2026-04-04T15:23:04.048Z</time></trkpt><trkpt lat="43.2513607" lon="12.3068501"><ele>468.0</ele><time>2026-04-04T15:23:06.04Z</time></trkpt><trkpt lat="43.2513042" lon="12.3067485"><ele>468.0</ele><time>2026-04-04T15:23:08.052Z</time></trkpt><trkpt lat="43.2512479" lon="12.3066242"><ele>468.0</ele><time>2026-04-04T15:23:10.049Z</time></trkpt><trkpt lat="43.2512202" lon="12.3065105"><ele>468.0</ele><time>2026-04-04T15:23:12.045Z</time></trkpt><trkpt lat="43.2512205" lon="12.3064109"><ele>468.0</ele><time>2026-04-04T15:23:14.067Z</time></trkpt><trkpt lat="43.2512579" lon="12.3063353"><ele>468.0</ele><time>2026-04-04T15:23:16.039Z</time></trkpt><trkpt lat="43.2513123" lon="12.3062616"><ele>468.0</ele><time>2026-04-04T15:23:18.05Z</time></trkpt><trkpt lat="43.2513868" lon="12.3061864"><ele>468.8333333333333</ele><time>2026-04-04T15:23:20.036Z</time></trkpt><trkpt lat="43.2514642" lon="12.3061135"><ele>469.66666666666663</ele><time>2026-04-04T15:23:22.035Z</time></trkpt><trkpt lat="43.2515286" lon="12.3060628"><ele>470.5</ele><time>2026-04-04T15:23:24.042Z</time></trkpt><trkpt lat="43.2515987" lon="12.3059999"><ele>471.3333333333333</ele><time>2026-04-04T15:23:26.038Z</time></trkpt><trkpt lat="43.2516711" lon="12.3059414"><ele>472.16666666666663</ele><time>2026-04-04T15:23:28.053Z</time></trkpt><trkpt lat="43.2517283" lon="12.3058469"><ele>473.0</ele><time>2026-04-04T15:23:30.047Z</time></trkpt><trkpt lat="43.2517841" lon="12.3057674"><ele>472.99999999999994</ele><time>2026-04-04T15:23:32.036Z</time></trkpt><trkpt lat="43.2518431" lon="12.3056729"><ele>473.0</ele><time>2026-04-04T15:23:34.039Z</time></trkpt><trkpt lat="43.2518898" lon="12.3055733"><ele>473.0</ele><time>2026-04-04T15:23:36.049Z</time></trkpt><trkpt lat="43.2519376" lon="12.3054719"><ele>473.0</ele><time>2026-04-04T15:23:38.043Z</time></trkpt><trkpt lat="43.2519771" lon="12.3053643"><ele>472.99999999999994</ele><time>2026-04-04T15:23:40.054Z</time></trkpt><trkpt lat="43.2520146" lon="12.3052776"><ele>473.0</ele><time>2026-04-04T15:23:42.057Z</time></trkpt><trkpt lat="43.2520704" lon="12.3052127"><ele>471.99999999999994</ele><time>2026-04-04T15:23:44.049Z</time></trkpt><trkpt lat="43.2521466" lon="12.3051551"><ele>471.0</ele><time>2026-04-04T15:23:46.052Z</time></trkpt><trkpt lat="43.2522185" lon="12.3050846"><ele>470.0</ele><time>2026-04-04T15:23:48.048Z</time></trkpt><trkpt lat="43.2522817" lon="12.3050022"><ele>469.0</ele><time>2026-04-04T15:23:50.063Z</time></trkpt><trkpt lat="43.2523526" lon="12.304927"><ele>467.99999999999994</ele><time>2026-04-04T15:23:52.049Z</time></trkpt><trkpt lat="43.2524224" lon="12.3048593"><ele>467.0</ele><time>2026-04-04T15:23:54.046Z</time></trkpt><trkpt lat="43.252504" lon="12.3048167"><ele>466.99999999999994</ele><time>2026-04-04T15:23:56.054Z</time></trkpt><trkpt lat="43.25259" lon="12.3047803"><ele>467.0</ele><time>2026-04-04T15:23:58.043Z</time></trkpt><trkpt lat="43.2526712" lon="12.3047672"><ele>467.0</ele><time>2026-04-04T15:24:00.037Z</time></trkpt><trkpt lat="43.2527524" lon="12.304791"><ele>467.0</ele><time>2026-04-04T15:24:02.055Z</time></trkpt><trkpt lat="43.2528445" lon="12.3048075"><ele>466.99999999999994</ele><time>2026-04-04T15:24:04.041Z</time></trkpt><trkpt lat="43.2529396" lon="12.3048442"><ele>467.0</ele><time>2026-04-04T15:24:06.043Z</time></trkpt><trkpt lat="43.2530287" lon="12.3049238"><ele>466.99999999999994</ele><time>2026-04-04T15:24:08.038Z</time></trkpt><trkpt lat="43.2530991" lon="12.3049815"><ele>467.0</ele><time>2026-04-04T15:24:10.053Z</time></trkpt><trkpt lat="43.2531606" lon="12.3049509"><ele>467.0</ele><time>2026-04-04T15:24:12.04Z</time></trkpt><trkpt lat="43.2532089" lon="12.3048832"><ele>467.0</ele><time>2026-04-04T15:24:14.989Z</time></trkpt><trkpt lat="43.2532379" lon="12.3047771"><ele>466.99999999999994</ele><time>2026-04-04T15:25:31.064Z</time></trkpt><trkpt lat="43.2532837" lon="12.3046936"><ele>467.0</ele><time>2026-04-04T15:25:33.043Z</time></trkpt><trkpt lat="43.2533338" lon="12.3045728"><ele>464.8</ele><time>2026-04-04T15:25:35.064Z</time></trkpt><trkpt lat="43.2534" lon="12.3044634"><ele>462.6</ele><time>2026-04-04T15:25:37.054Z</time></trkpt><trkpt lat="43.2534761" lon="12.304376"><ele>460.40000000000003</ele><time>2026-04-04T15:25:39.048Z</time></trkpt><trkpt lat="43.2535278" lon="12.3042962"><ele>458.20000000000005</ele><time>2026-04-04T15:25:41.051Z</time></trkpt><trkpt lat="43.2536001" lon="12.3042145"><ele>456.0</ele><time>2026-04-04T15:25:43.057Z</time></trkpt><trkpt lat="43.2536792" lon="12.3041658"><ele>456.0</ele><time>2026-04-04T15:25:45.057Z</time></trkpt><trkpt lat="43.2537544" lon="12.3040855"><ele>456.0</ele><time>2026-04-04T15:25:47.055Z</time></trkpt><trkpt lat="43.2538269" lon="12.3040154"><ele>456.0</ele><time>2026-04-04T15:25:49.062Z</time></trkpt><trkpt lat="43.2539098" lon="12.3039567"><ele>456.0</ele><time>2026-04-04T15:25:51.046Z</time></trkpt><trkpt lat="43.2540036" lon="12.3038903"><ele>456.0</ele><time>2026-04-04T15:25:53.061Z</time></trkpt><trkpt lat="43.25409" lon="12.303846"><ele>458.0</ele><time>2026-04-04T15:25:55.045Z</time></trkpt><trkpt lat="43.2541771" lon="12.3037988"><ele>460.0</ele><time>2026-04-04T15:25:57.051Z</time></trkpt><trkpt lat="43.2542657" lon="12.3037384"><ele>462.0</ele><time>2026-04-04T15:25:59.06Z</time></trkpt><trkpt lat="43.254354" lon="12.3036913"><ele>464.0</ele><time>2026-04-04T15:26:01.046Z</time></trkpt><trkpt lat="43.2544369" lon="12.3036401"><ele>466.0</ele><time>2026-04-04T15:26:03.052Z</time></trkpt><trkpt lat="43.2545262" lon="12.3035774"><ele>466.0</ele><time>2026-04-04T15:26:05.058Z</time></trkpt><trkpt lat="43.254622" lon="12.3035224"><ele>466.0</ele><time>2026-04-04T15:26:07.063Z</time></trkpt><trkpt lat="43.2547294" lon="12.3034771"><ele>466.0</ele><time>2026-04-04T15:26:09.054Z</time></trkpt><trkpt lat="43.2548265" lon="12.30343"><ele>466.0</ele><time>2026-04-04T15:26:11.054Z</time></trkpt><trkpt lat="43.2549243" lon="12.3033756"><ele>466.0</ele><time>2026-04-04T15:26:13.067Z</time></trkpt><trkpt lat="43.2550315" lon="12.3032786"><ele>465.33333333333337</ele><time>2026-04-04T15:26:15.05Z</time></trkpt><trkpt lat="43.2550913" lon="12.3032222"><ele>464.6666666666667</ele><time>2026-04-04T15:26:16.064Z</time></trkpt><trkpt lat="43.2551465" lon="12.3031722"><ele>464.0</ele><time>2026-04-04T15:26:17.043Z</time></trkpt><trkpt lat="43.2552498" lon="12.3030873"><ele>463.33333333333337</ele><time>2026-04-04T15:26:19.066Z</time></trkpt><trkpt lat="43.2553202" lon="12.3030451"><ele>462.6666666666667</ele><time>2026-04-04T15:26:20.036Z</time></trkpt><trkpt lat="43.2553838" lon="12.3030027"><ele>462.0</ele><time>2026-04-04T15:26:21.051Z</time></trkpt><trkpt lat="43.2555031" lon="12.3029456"><ele>462.0</ele><time>2026-04-04T15:26:23.066Z</time></trkpt><trkpt lat="43.2555701" lon="12.3029125"><ele>462.0</ele><time>2026-04-04T15:26:24.039Z</time></trkpt><trkpt lat="43.2556361" lon="12.30289"><ele>462.0</ele><time>2026-04-04T15:26:25.042Z</time></trkpt><trkpt lat="43.2556998" lon="12.3028691"><ele>462.0</ele><time>2026-04-04T15:26:26.045Z</time></trkpt><trkpt lat="43.2558148" lon="12.3028463"><ele>462.0</ele><time>2026-04-04T15:26:28.052Z</time></trkpt><trkpt lat="43.2558797" lon="12.3028256"><ele>462.0</ele><time>2026-04-04T15:26:29.05Z</time></trkpt><trkpt lat="43.2559458" lon="12.3028045"><ele>466.3333333333333</ele><time>2026-04-04T15:26:30.048Z</time></trkpt><trkpt lat="43.2560433" lon="12.3027547"><ele>470.66666666666663</ele><time>2026-04-04T15:26:32.066Z</time></trkpt><trkpt lat="43.2561148" lon="12.3027136"><ele>475.0</ele><time>2026-04-04T15:26:34.065Z</time></trkpt><trkpt lat="43.2561756" lon="12.3026778"><ele>479.3333333333333</ele><time>2026-04-04T15:26:36.059Z</time></trkpt><trkpt lat="43.256237" lon="12.3026421"><ele>483.66666666666663</ele><time>2026-04-04T15:26:38.048Z</time></trkpt><trkpt lat="43.2563026" lon="12.3025798"><ele>488.0</ele><time>2026-04-04T15:26:41.05Z</time></trkpt><trkpt lat="43.2563844" lon="12.3025437"><ele>487.99999999999994</ele><time>2026-04-04T15:26:44.051Z</time></trkpt><trkpt lat="43.2564511" lon="12.3025153"><ele>488.0</ele><time>2026-04-04T15:26:46.054Z</time></trkpt><trkpt lat="43.2565141" lon="12.30248"><ele>487.99999999999994</ele><time>2026-04-04T15:26:48.045Z</time></trkpt><trkpt lat="43.2565828" lon="12.3024753"><ele>487.99999999999994</ele><time>2026-04-04T15:26:50.046Z</time></trkpt><trkpt lat="43.2566498" lon="12.3024639"><ele>488.0</ele><time>2026-04-04T15:26:52.062Z</time></trkpt><trkpt lat="43.2567151" lon="12.3024613"><ele>487.99999999999994</ele><time>2026-04-04T15:26:54.061Z</time></trkpt><trkpt lat="43.2567842" lon="12.302461"><ele>487.99999999999994</ele><time>2026-04-04T15:26:56.059Z</time></trkpt><trkpt lat="43.2568476" lon="12.3024443"><ele>491.3333333333333</ele><time>2026-04-04T15:26:58.057Z</time></trkpt><trkpt lat="43.2569207" lon="12.3024531"><ele>494.66666666666663</ele><time>2026-04-04T15:27:00.058Z</time></trkpt><trkpt lat="43.2569905" lon="12.3024755"><ele>498.0</ele><time>2026-04-04T15:27:02.036Z</time></trkpt><trkpt lat="43.2570631" lon="12.3024897"><ele>501.33333333333337</ele><time>2026-04-04T15:27:04.04Z</time></trkpt><trkpt lat="43.2571572" lon="12.3025289"><ele>504.6666666666667</ele><time>2026-04-04T15:27:07.054Z</time></trkpt><trkpt lat="43.2572274" lon="12.3025265"><ele>508.0</ele><time>2026-04-04T15:27:09.073Z</time></trkpt><trkpt lat="43.2572924" lon="12.3025178"><ele>510.00000000000006</ele><time>2026-04-04T15:27:11.05Z</time></trkpt><trkpt lat="43.2573845" lon="12.3024979"><ele>512.0</ele><time>2026-04-04T15:27:13.053Z</time></trkpt><trkpt lat="43.2574765" lon="12.3025001"><ele>514.0</ele><time>2026-04-04T15:27:15.051Z</time></trkpt><trkpt lat="43.2575684" lon="12.3024982"><ele>516.0</ele><time>2026-04-04T15:27:17.057Z</time></trkpt><trkpt lat="43.2576599" lon="12.3024904"><ele>518.0</ele><time>2026-04-04T15:27:19.044Z</time></trkpt><trkpt lat="43.257731" lon="12.3024686"><ele>520.0</ele><time>2026-04-04T15:27:21.065Z</time></trkpt><trkpt lat="43.257783" lon="12.3023816"><ele>520.0</ele><time>2026-04-04T15:27:23.049Z</time></trkpt><trkpt lat="43.2578046" lon="12.3022583"><ele>520.0</ele><time>2026-04-04T15:27:26.039Z</time></trkpt><trkpt lat="43.2578166" lon="12.3021448"><ele>520.0</ele><time>2026-04-04T15:27:28.032Z</time></trkpt><trkpt lat="43.2578407" lon="12.3020353"><ele>520.0</ele><time>2026-04-04T15:27:30.043Z</time></trkpt><trkpt lat="43.2578558" lon="12.3019207"><ele>520.0</ele><time>2026-04-04T15:27:32.044Z</time></trkpt><trkpt lat="43.2578413" lon="12.3018043"><ele>520.0</ele><time>2026-04-04T15:27:35.053Z</time></trkpt><trkpt lat="43.2578306" lon="12.3016771"><ele>516.4285714285714</ele><time>2026-04-04T15:27:38.052Z</time></trkpt><trkpt lat="43.257823" lon="12.3015566"><ele>512.8571428571429</ele><time>2026-04-04T15:27:41.048Z</time></trkpt><trkpt lat="43.2578305" lon="12.3014585"><ele>509.2857142857143</ele><time>2026-04-04T15:27:43.06Z</time></trkpt><trkpt lat="43.2578612" lon="12.3013611"><ele>505.7142857142857</ele><time>2026-04-04T15:27:45.046Z</time></trkpt><trkpt lat="43.257893" lon="12.3012723"><ele>502.1428571428571</ele><time>2026-04-04T15:27:47.05Z</time></trkpt><trkpt lat="43.2579273" lon="12.3011798"><ele>498.5714285714285</ele><time>2026-04-04T15:27:49.041Z</time></trkpt><trkpt lat="43.2579655" lon="12.3011094"><ele>494.99999999999994</ele><time>2026-04-04T15:27:51.052Z</time></trkpt><trkpt lat="43.258004" lon="12.3010334"><ele>499.0</ele><time>2026-04-04T15:27:53.05Z</time></trkpt><trkpt lat="43.2580524" lon="12.3009416"><ele>503.0</ele><time>2026-04-04T15:27:55.054Z</time></trkpt><trkpt lat="43.2581221" lon="12.3008755"><ele>507.0</ele><time>2026-04-04T15:27:57.048Z</time></trkpt><trkpt lat="43.2582173" lon="12.3008591"><ele>511.0</ele><time>2026-04-04T15:27:59.063Z</time></trkpt><trkpt lat="43.258317" lon="12.3008384"><ele>515.0</ele><time>2026-04-04T15:28:01.054Z</time></trkpt><trkpt lat="43.2583997" lon="12.3008021"><ele>515.0</ele><time>2026-04-04T15:28:03.061Z</time></trkpt><trkpt lat="43.2584873" lon="12.3007993"><ele>515.0</ele><time>2026-04-04T15:28:05.042Z</time></trkpt><trkpt lat="43.2585518" lon="12.3008128"><ele>515.0</ele><time>2026-04-04T15:28:07.059Z</time></trkpt><trkpt lat="43.2586093" lon="12.3007773"><ele>515.0</ele><time>2026-04-04T15:28:10.045Z</time></trkpt><trkpt lat="43.2586733" lon="12.3007618"><ele>515.0</ele><time>2026-04-04T15:28:12.057Z</time></trkpt><trkpt lat="43.258739" lon="12.3007378"><ele>515.0</ele><time>2026-04-04T15:28:18.043Z</time></trkpt><trkpt lat="43.2588236" lon="12.3007082"><ele>515.0</ele><time>2026-04-04T15:28:20.04Z</time></trkpt><trkpt lat="43.2589138" lon="12.3006672"><ele>513.2</ele><time>2026-04-04T15:28:22.049Z</time></trkpt><trkpt lat="43.2590091" lon="12.3006133"><ele>511.4</ele><time>2026-04-04T15:28:24.049Z</time></trkpt><trkpt lat="43.2590971" lon="12.3006143"><ele>509.6</ele><time>2026-04-04T15:28:26.048Z</time></trkpt><trkpt lat="43.2591833" lon="12.3006157"><ele>507.8</ele><time>2026-04-04T15:28:29.047Z</time></trkpt><trkpt lat="43.2592973" lon="12.300566"><ele>506.0</ele><time>2026-04-04T15:28:37.077Z</time></trkpt><trkpt lat="43.2593725" lon="12.3005593"><ele>505.99999999999994</ele><time>2026-04-04T15:28:38.054Z</time></trkpt><trkpt lat="43.2594603" lon="12.3005561"><ele>506.0</ele><time>2026-04-04T15:28:39.057Z</time></trkpt><trkpt lat="43.2595468" lon="12.3005701"><ele>506.0</ele><time>2026-04-04T15:28:40.05Z</time></trkpt><trkpt lat="43.2596303" lon="12.3005784"><ele>506.0</ele><time>2026-04-04T15:28:41.048Z</time></trkpt><trkpt lat="43.259711" lon="12.3005937"><ele>505.99999999999994</ele><time>2026-04-04T15:28:42.071Z</time></trkpt><trkpt lat="43.2597825" lon="12.3006095"><ele>506.0</ele><time>2026-04-04T15:28:43.042Z</time></trkpt><trkpt lat="43.2598494" lon="12.3006255"><ele>508.66666666666663</ele><time>2026-04-04T15:28:44.053Z</time></trkpt><trkpt lat="43.259977" lon="12.3006089"><ele>511.3333333333333</ele><time>2026-04-04T15:28:46.044Z</time></trkpt><trkpt lat="43.2600516" lon="12.3005824"><ele>514.0</ele><time>2026-04-04T15:28:47.043Z</time></trkpt><trkpt lat="43.2601203" lon="12.3005461"><ele>516.6666666666666</ele><time>2026-04-04T15:28:48.052Z</time></trkpt><trkpt lat="43.2601904" lon="12.3005077"><ele>519.3333333333334</ele><time>2026-04-04T15:28:49.052Z</time></trkpt><trkpt lat="43.2602483" lon="12.3004701"><ele>522.0</ele><time>2026-04-04T15:28:50.081Z</time></trkpt><trkpt lat="43.2602907" lon="12.3003504"><ele>522.0</ele><time>2026-04-04T15:28:52.046Z</time></trkpt><trkpt lat="43.2602352" lon="12.3001954"><ele>522.0</ele><time>2026-04-04T15:28:54.053Z</time></trkpt><trkpt lat="43.2601745" lon="12.3000733"><ele>522.0</ele><time>2026-04-04T15:28:56.041Z</time></trkpt><trkpt lat="43.2601653" lon="12.2998986"><ele>522.0</ele><time>2026-04-04T15:28:58.051Z</time></trkpt><trkpt lat="43.2601822" lon="12.2998132"><ele>522.0</ele><time>2026-04-04T15:28:59.062Z</time></trkpt><trkpt lat="43.2602475" lon="12.299662"><ele>522.8333333333334</ele><time>2026-04-04T15:29:01.065Z</time></trkpt><trkpt lat="43.2603467" lon="12.2995508"><ele>523.6666666666666</ele><time>2026-04-04T15:29:03.058Z</time></trkpt><trkpt lat="43.2604018" lon="12.2994961"><ele>524.5</ele><time>2026-04-04T15:29:04.049Z</time></trkpt><trkpt lat="43.2604634" lon="12.299443"><ele>525.3333333333333</ele><time>2026-04-04T15:29:05.039Z</time></trkpt><trkpt lat="43.2605235" lon="12.299393"><ele>526.1666666666666</ele><time>2026-04-04T15:29:06.043Z</time></trkpt><trkpt lat="43.2605888" lon="12.2993393"><ele>527.0</ele><time>2026-04-04T15:29:07.045Z</time></trkpt><trkpt lat="43.2606681" lon="12.2992826"><ele>527.0</ele><time>2026-04-04T15:29:08.053Z</time></trkpt><trkpt lat="43.2607521" lon="12.2992271"><ele>527.0</ele><time>2026-04-04T15:29:09.056Z</time></trkpt><trkpt lat="43.2608431" lon="12.2991725"><ele>527.0</ele><time>2026-04-04T15:29:10.039Z</time></trkpt><trkpt lat="43.2609381" lon="12.2991094"><ele>527.0</ele><time>2026-04-04T15:29:11.04Z</time></trkpt><trkpt lat="43.2610465" lon="12.2990399"><ele>527.0</ele><time>2026-04-04T15:29:12.043Z</time></trkpt><trkpt lat="43.2611541" lon="12.2989815"><ele>527.0</ele><time>2026-04-04T15:29:13.062Z</time></trkpt><trkpt lat="43.261256" lon="12.2989423"><ele>527.0</ele><time>2026-04-04T15:29:14.033Z</time></trkpt><trkpt lat="43.2613542" lon="12.2989066"><ele>527.0</ele><time>2026-04-04T15:29:15.053Z</time></trkpt><trkpt lat="43.2614491" lon="12.2988781"><ele>527.0</ele><time>2026-04-04T15:29:16.043Z</time></trkpt><trkpt lat="43.2615413" lon="12.2988374"><ele>527.0</ele><time>2026-04-04T15:29:17.049Z</time></trkpt><trkpt lat="43.2616429" lon="12.2987679"><ele>526.25</ele><time>2026-04-04T15:29:18.056Z</time></trkpt><trkpt lat="43.2617577" lon="12.2986737"><ele>525.5</ele><time>2026-04-04T15:29:19.051Z</time></trkpt><trkpt lat="43.2618855" lon="12.2985723"><ele>524.75</ele><time>2026-04-04T15:29:20.034Z</time></trkpt><trkpt lat="43.2620125" lon="12.2984685"><ele>524.0</ele><time>2026-04-04T15:29:21.031Z</time></trkpt><trkpt lat="43.2621209" lon="12.2984027"><ele>524.0</ele><time>2026-04-04T15:29:22.029Z</time></trkpt><trkpt lat="43.2622189" lon="12.2983701"><ele>524.0</ele><time>2026-04-04T15:29:23.047Z</time></trkpt><trkpt lat="43.2623078" lon="12.2983316"><ele>524.0</ele><time>2026-04-04T15:29:24.052Z</time></trkpt><trkpt lat="43.2623749" lon="12.2982631"><ele>524.0</ele><time>2026-04-04T15:29:25.046Z</time></trkpt><trkpt lat="43.2624187" lon="12.29817"><ele>524.0</ele><time>2026-04-04T15:29:26.04Z</time></trkpt><trkpt lat="43.262458" lon="12.2980485"><ele>526.6666666666666</ele><time>2026-04-04T15:29:27.034Z</time></trkpt><trkpt lat="43.2624886" lon="12.2979163"><ele>529.3333333333333</ele><time>2026-04-04T15:29:28.03Z</time></trkpt><trkpt lat="43.2625165" lon="12.2977958"><ele>532.0</ele><time>2026-04-04T15:29:29.046Z</time></trkpt><trkpt lat="43.2625498" lon="12.2977019"><ele>534.6666666666666</ele><time>2026-04-04T15:29:30.037Z</time></trkpt><trkpt lat="43.2626034" lon="12.2976154"><ele>537.3333333333334</ele><time>2026-04-04T15:29:31.045Z</time></trkpt><trkpt lat="43.262678" lon="12.2975335"><ele>540.0</ele><time>2026-04-04T15:29:32.045Z</time></trkpt><trkpt lat="43.2627634" lon="12.2974676"><ele>540.0</ele><time>2026-04-04T15:29:33.056Z</time></trkpt><trkpt lat="43.2628589" lon="12.2974324"><ele>540.0</ele><time>2026-04-04T15:29:34.044Z</time></trkpt><trkpt lat="43.2629618" lon="12.2974017"><ele>540.0</ele><time>2026-04-04T15:29:35.05Z</time></trkpt><trkpt lat="43.2630723" lon="12.2973766"><ele>540.0</ele><time>2026-04-04T15:29:36.05Z</time></trkpt><trkpt lat="43.2631922" lon="12.2973694"><ele>540.0</ele><time>2026-04-04T15:29:37.051Z</time></trkpt><trkpt lat="43.2633036" lon="12.2973613"><ele>544.6</ele><time>2026-04-04T15:29:38.033Z</time></trkpt><trkpt lat="43.2634011" lon="12.2973359"><ele>549.2</ele><time>2026-04-04T15:29:39.052Z</time></trkpt><trkpt lat="43.2634991" lon="12.2973288"><ele>553.8</ele><time>2026-04-04T15:29:40.051Z</time></trkpt><trkpt lat="43.2635842" lon="12.2973246"><ele>558.4</ele><time>2026-04-04T15:29:41.074Z</time></trkpt><trkpt lat="43.2636794" lon="12.2973523"><ele>563.0</ele><time>2026-04-04T15:29:42.046Z</time></trkpt><trkpt lat="43.2637671" lon="12.2973679"><ele>563.0</ele><time>2026-04-04T15:29:43.046Z</time></trkpt><trkpt lat="43.2638417" lon="12.2973662"><ele>563.0</ele><time>2026-04-04T15:29:44.045Z</time></trkpt><trkpt lat="43.2639219" lon="12.2973631"><ele>563.0</ele><time>2026-04-04T15:29:45.051Z</time></trkpt><trkpt lat="43.2640043" lon="12.2973609"><ele>563.0</ele><time>2026-04-04T15:29:46.045Z</time></trkpt><trkpt lat="43.2640896" lon="12.297361"><ele>563.0</ele><time>2026-04-04T15:29:47.055Z</time></trkpt><trkpt lat="43.264178" lon="12.2973862"><ele>563.0</ele><time>2026-04-04T15:29:48.044Z</time></trkpt><trkpt lat="43.2642609" lon="12.2974127"><ele>564.6666666666666</ele><time>2026-04-04T15:29:49.045Z</time></trkpt><trkpt lat="43.2643309" lon="12.2974286"><ele>566.3333333333333</ele><time>2026-04-04T15:29:50.046Z</time></trkpt><trkpt lat="43.2644501" lon="12.2973855"><ele>568.0</ele><time>2026-04-04T15:29:52.043Z</time></trkpt><trkpt lat="43.2645022" lon="12.2973294"><ele>569.6666666666666</ele><time>2026-04-04T15:29:53.056Z</time></trkpt><trkpt lat="43.2645556" lon="12.2972502"><ele>571.3333333333334</ele><time>2026-04-04T15:29:54.041Z</time></trkpt><trkpt lat="43.2646257" lon="12.2971573"><ele>573.0</ele><time>2026-04-04T15:29:55.049Z</time></trkpt><trkpt lat="43.2647103" lon="12.297065"><ele>571.8</ele><time>2026-04-04T15:29:56.047Z</time></trkpt><trkpt lat="43.2648066" lon="12.2969653"><ele>570.5999999999999</ele><time>2026-04-04T15:29:57.048Z</time></trkpt><trkpt lat="43.2648925" lon="12.2968808"><ele>569.4000000000001</ele><time>2026-04-04T15:29:58.04Z</time></trkpt><trkpt lat="43.2649483" lon="12.2967713"><ele>568.2</ele><time>2026-04-04T15:29:59.039Z</time></trkpt><trkpt lat="43.2649971" lon="12.296663"><ele>567.0</ele><time>2026-04-04T15:30:00.037Z</time></trkpt><trkpt lat="43.265049" lon="12.2965662"><ele>567.0</ele><time>2026-04-04T15:30:01.047Z</time></trkpt><trkpt lat="43.2651187" lon="12.296478"><ele>567.0</ele><time>2026-04-04T15:30:02.048Z</time></trkpt><trkpt lat="43.265196" lon="12.2964296"><ele>567.0</ele><time>2026-04-04T15:30:03.052Z</time></trkpt><trkpt lat="43.265278" lon="12.2964179"><ele>567.0</ele><time>2026-04-04T15:30:04.043Z</time></trkpt><trkpt lat="43.2653488" lon="12.2964356"><ele>567.0</ele><time>2026-04-04T15:30:05.056Z</time></trkpt><trkpt lat="43.2654293" lon="12.2964908"><ele>567.0</ele><time>2026-04-04T15:30:06.051Z</time></trkpt><trkpt lat="43.2655189" lon="12.2965606"><ele>567.0</ele><time>2026-04-04T15:30:07.05Z</time></trkpt><trkpt lat="43.2655981" lon="12.296614"><ele>567.0</ele><time>2026-04-04T15:30:08.047Z</time></trkpt><trkpt lat="43.2656771" lon="12.296649"><ele>567.0</ele><time>2026-04-04T15:30:09.045Z</time></trkpt><trkpt lat="43.2657629" lon="12.2966502"><ele>567.0</ele><time>2026-04-04T15:30:10.045Z</time></trkpt><trkpt lat="43.2658619" lon="12.2966071"><ele>567.0</ele><time>2026-04-04T15:30:11.044Z</time></trkpt><trkpt lat="43.2659723" lon="12.2965484"><ele>569.25</ele><time>2026-04-04T15:30:12.054Z</time></trkpt><trkpt lat="43.2660918" lon="12.2964704"><ele>571.5</ele><time>2026-04-04T15:30:13.046Z</time></trkpt><trkpt lat="43.2662036" lon="12.2964006"><ele>573.75</ele><time>2026-04-04T15:30:14.054Z</time></trkpt><trkpt lat="43.2663077" lon="12.2963409"><ele>576.0</ele><time>2026-04-04T15:30:15.039Z</time></trkpt><trkpt lat="43.266418" lon="12.2962933"><ele>572.0</ele><time>2026-04-04T15:30:16.05Z</time></trkpt><trkpt lat="43.2665295" lon="12.2962492"><ele>568.0</ele><time>2026-04-04T15:30:17.047Z</time></trkpt><trkpt lat="43.266646" lon="12.2961903"><ele>564.0</ele><time>2026-04-04T15:30:18.031Z</time></trkpt><trkpt lat="43.2667508" lon="12.296139"><ele>560.0</ele><time>2026-04-04T15:30:19.047Z</time></trkpt><trkpt lat="43.2668529" lon="12.2961136"><ele>560.0</ele><time>2026-04-04T15:30:20.047Z</time></trkpt><trkpt lat="43.2669652" lon="12.2961018"><ele>560.0</ele><time>2026-04-04T15:30:21.045Z</time></trkpt><trkpt lat="43.267071" lon="12.2960976"><ele>560.0</ele><time>2026-04-04T15:30:22.054Z</time></trkpt><trkpt lat="43.2671646" lon="12.2961122"><ele>560.0</ele><time>2026-04-04T15:30:23.066Z</time></trkpt><trkpt lat="43.2672591" lon="12.2961376"><ele>560.0</ele><time>2026-04-04T15:30:24.049Z</time></trkpt><trkpt lat="43.2673489" lon="12.2961743"><ele>560.8333333333333</ele><time>2026-04-04T15:30:25.076Z</time></trkpt><trkpt lat="43.2674367" lon="12.2962185"><ele>561.6666666666666</ele><time>2026-04-04T15:30:26.042Z</time></trkpt><trkpt lat="43.2675204" lon="12.2962492"><ele>562.5</ele><time>2026-04-04T15:30:27.047Z</time></trkpt><trkpt lat="43.2676055" lon="12.2962627"><ele>563.3333333333334</ele><time>2026-04-04T15:30:28.058Z</time></trkpt><trkpt lat="43.2676992" lon="12.2962615"><ele>564.1666666666667</ele><time>2026-04-04T15:30:29.056Z</time></trkpt><trkpt lat="43.2677859" lon="12.2962633"><ele>565.0</ele><time>2026-04-04T15:30:30.05Z</time></trkpt><trkpt lat="43.2678702" lon="12.2962463"><ele>565.0</ele><time>2026-04-04T15:30:31.061Z</time></trkpt><trkpt lat="43.2679567" lon="12.2962143"><ele>565.0</ele><time>2026-04-04T15:30:32.048Z</time></trkpt><trkpt lat="43.2680445" lon="12.2961572"><ele>565.0</ele><time>2026-04-04T15:30:33.076Z</time></trkpt><trkpt lat="43.2681329" lon="12.2960905"><ele>565.0</ele><time>2026-04-04T15:30:34.043Z</time></trkpt><trkpt lat="43.2682245" lon="12.2960264"><ele>565.0</ele><time>2026-04-04T15:30:35.048Z</time></trkpt><trkpt lat="43.2683265" lon="12.2959945"><ele>567.8</ele><time>2026-04-04T15:30:36.051Z</time></trkpt><trkpt lat="43.2684187" lon="12.2959694"><ele>570.6</ele><time>2026-04-04T15:30:37.043Z</time></trkpt><trkpt lat="43.2684978" lon="12.2959203"><ele>573.4</ele><time>2026-04-04T15:30:38.046Z</time></trkpt><trkpt lat="43.2685715" lon="12.2958343"><ele>576.2</ele><time>2026-04-04T15:30:39.047Z</time></trkpt><trkpt lat="43.2686304" lon="12.2957179"><ele>579.0</ele><time>2026-04-04T15:30:40.044Z</time></trkpt><trkpt lat="43.268694" lon="12.2955986"><ele>577.8333333333334</ele><time>2026-04-04T15:30:41.067Z</time></trkpt><trkpt lat="43.2687434" lon="12.2954863"><ele>576.6666666666666</ele><time>2026-04-04T15:30:42.041Z</time></trkpt><trkpt lat="43.2687904" lon="12.2954011"><ele>575.5</ele><time>2026-04-04T15:30:43.048Z</time></trkpt><trkpt lat="43.2688065" lon="12.2953079"><ele>574.3333333333333</ele><time>2026-04-04T15:30:44.048Z</time></trkpt><trkpt lat="43.2688041" lon="12.2952007"><ele>573.1666666666666</ele><time>2026-04-04T15:30:46.038Z</time></trkpt><trkpt lat="43.2687871" lon="12.295074"><ele>572.0</ele><time>2026-04-04T15:30:48.039Z</time></trkpt><trkpt lat="43.2687526" lon="12.2949323"><ele>572.0</ele><time>2026-04-04T15:30:50.063Z</time></trkpt><trkpt lat="43.2687065" lon="12.2947921"><ele>572.0</ele><time>2026-04-04T15:30:52.041Z</time></trkpt><trkpt lat="43.268679" lon="12.2947084"><ele>572.0</ele><time>2026-04-04T15:30:53.059Z</time></trkpt><trkpt lat="43.2686415" lon="12.294626"><ele>572.0</ele><time>2026-04-04T15:30:54.043Z</time></trkpt><trkpt lat="43.2685672" lon="12.2944966"><ele>572.0</ele><time>2026-04-04T15:30:56.05Z</time></trkpt><trkpt lat="43.2685277" lon="12.2943861"><ele>571.6</ele><time>2026-04-04T15:30:58.035Z</time></trkpt><trkpt lat="43.2685164" lon="12.2942722"><ele>571.2</ele><time>2026-04-04T15:31:00.064Z</time></trkpt><trkpt lat="43.2685755" lon="12.294192"><ele>570.8</ele><time>2026-04-04T15:31:02.04Z</time></trkpt><trkpt lat="43.2686974" lon="12.2942115"><ele>570.4</ele><time>2026-04-04T15:31:04.052Z</time></trkpt><trkpt lat="43.2687699" lon="12.2942436"><ele>570.0</ele><time>2026-04-04T15:31:05.04Z</time></trkpt><trkpt lat="43.2688552" lon="12.294284"><ele>569.1666666666666</ele><time>2026-04-04T15:31:06.05Z</time></trkpt><trkpt lat="43.2689455" lon="12.2943333"><ele>568.3333333333334</ele><time>2026-04-04T15:31:07.057Z</time></trkpt><trkpt lat="43.2690236" lon="12.2943624"><ele>567.5</ele><time>2026-04-04T15:31:08.053Z</time></trkpt><trkpt lat="43.269091" lon="12.2943779"><ele>566.6666666666667</ele><time>2026-04-04T15:31:09.054Z</time></trkpt><trkpt lat="43.2692095" lon="12.2943726"><ele>565.8333333333334</ele><time>2026-04-04T15:31:11.051Z</time></trkpt><trkpt lat="43.2692919" lon="12.2943514"><ele>565.0</ele><time>2026-04-04T15:31:13.062Z</time></trkpt><trkpt lat="43.2693437" lon="12.294299"><ele>565.0</ele><time>2026-04-04T15:31:17.039Z</time></trkpt><trkpt lat="43.2693747" lon="12.2942178"><ele>565.0</ele><time>2026-04-04T15:31:22.056Z</time></trkpt><trkpt lat="43.2694429" lon="12.2942126"><ele>565.0</ele><time>2026-04-04T15:31:25.05Z</time></trkpt><trkpt lat="43.2695623" lon="12.2942887"><ele>565.0</ele><time>2026-04-04T15:31:27.045Z</time></trkpt><trkpt lat="43.2696524" lon="12.2943596"><ele>565.0</ele><time>2026-04-04T15:31:28.037Z</time></trkpt><trkpt lat="43.2697624" lon="12.2944188"><ele>565.6</ele><time>2026-04-04T15:31:29.075Z</time></trkpt><trkpt lat="43.2698606" lon="12.2944685"><ele>566.2</ele><time>2026-04-04T15:31:30.062Z</time></trkpt><trkpt lat="43.2699606" lon="12.2945279"><ele>566.8</ele><time>2026-04-04T15:31:31.052Z</time></trkpt><trkpt lat="43.2700565" lon="12.294617"><ele>567.4</ele><time>2026-04-04T15:31:32.034Z</time></trkpt><trkpt lat="43.2701382" lon="12.294718"><ele>568.0</ele><time>2026-04-04T15:31:33.043Z</time></trkpt><trkpt lat="43.2702132" lon="12.2948204"><ele>568.0</ele><time>2026-04-04T15:31:34.035Z</time></trkpt><trkpt lat="43.2702832" lon="12.2949233"><ele>568.0</ele><time>2026-04-04T15:31:35.052Z</time></trkpt><trkpt lat="43.2703606" lon="12.2950248"><ele>568.0</ele><time>2026-04-04T15:31:36.037Z</time></trkpt><trkpt lat="43.2704467" lon="12.2951191"><ele>568.0</ele><time>2026-04-04T15:31:37.046Z</time></trkpt><trkpt lat="43.2705388" lon="12.2952133"><ele>568.0</ele><time>2026-04-04T15:31:38.034Z</time></trkpt><trkpt lat="43.2706343" lon="12.2953048"><ele>568.5</ele><time>2026-04-04T15:31:39.046Z</time></trkpt><trkpt lat="43.2707376" lon="12.2953899"><ele>569.0</ele><time>2026-04-04T15:31:40.043Z</time></trkpt><trkpt lat="43.27085" lon="12.2954718"><ele>569.5</ele><time>2026-04-04T15:31:41.051Z</time></trkpt><trkpt lat="43.2709687" lon="12.2955392"><ele>570.0</ele><time>2026-04-04T15:31:42.047Z</time></trkpt><trkpt lat="43.2710908" lon="12.2956022"><ele>570.0</ele><time>2026-04-04T15:31:43.039Z</time></trkpt><trkpt lat="43.2712235" lon="12.2956565"><ele>570.0</ele><time>2026-04-04T15:31:44.024Z</time></trkpt><trkpt lat="43.2713542" lon="12.2957074"><ele>570.0</ele><time>2026-04-04T15:31:45.035Z</time></trkpt><trkpt lat="43.2714848" lon="12.2957647"><ele>570.0</ele><time>2026-04-04T15:31:46.032Z</time></trkpt><trkpt lat="43.2716075" lon="12.2958371"><ele>562.0</ele><time>2026-04-04T15:31:47.049Z</time></trkpt><trkpt lat="43.2717259" lon="12.2959271"><ele>554.0</ele><time>2026-04-04T15:31:48.03Z</time></trkpt><trkpt lat="43.2718439" lon="12.2960274"><ele>546.0</ele><time>2026-04-04T15:31:49.031Z</time></trkpt><trkpt lat="43.2719596" lon="12.2961199"><ele>538.0</ele><time>2026-04-04T15:31:50.038Z</time></trkpt><trkpt lat="43.2720754" lon="12.296219"><ele>538.0</ele><time>2026-04-04T15:31:51.039Z</time></trkpt><trkpt lat="43.2721849" lon="12.2963182"><ele>538.0</ele><time>2026-04-04T15:31:52.033Z</time></trkpt><trkpt lat="43.2722815" lon="12.296419"><ele>538.0</ele><time>2026-04-04T15:31:53.034Z</time></trkpt><trkpt lat="43.2723785" lon="12.2965096"><ele>538.0</ele><time>2026-04-04T15:31:54.031Z</time></trkpt><trkpt lat="43.2724694" lon="12.2966063"><ele>536.5</ele><time>2026-04-04T15:31:55.045Z</time></trkpt><trkpt lat="43.2725504" lon="12.2966953"><ele>535.0</ele><time>2026-04-04T15:31:56.04Z</time></trkpt><trkpt lat="43.2726166" lon="12.2967642"><ele>533.5</ele><time>2026-04-04T15:31:57.05Z</time></trkpt><trkpt lat="43.2726651" lon="12.2968201"><ele>532.0</ele><time>2026-04-04T15:31:58.035Z</time></trkpt><trkpt lat="43.2727281" lon="12.2969019"><ele>530.5</ele><time>2026-04-04T15:32:00.038Z</time></trkpt><trkpt lat="43.2727819" lon="12.2969523"><ele>529.0</ele><time>2026-04-04T15:36:23.042Z</time></trkpt><trkpt lat="43.2727569" lon="12.2968296"><ele>529.0</ele><time>2026-04-04T15:36:28.028Z</time></trkpt><trkpt lat="43.2726898" lon="12.2967665"><ele>529.0</ele><time>2026-04-04T15:36:29.038Z</time></trkpt><trkpt lat="43.2725942" lon="12.2966853"><ele>529.0</ele><time>2026-04-04T15:36:30.045Z</time></trkpt><trkpt lat="43.2724736" lon="12.2965648"><ele>529.0</ele><time>2026-04-04T15:36:31.048Z</time></trkpt><trkpt lat="43.2723499" lon="12.29644"><ele>532.0</ele><time>2026-04-04T15:36:32.048Z</time></trkpt><trkpt lat="43.2721952" lon="12.2963057"><ele>535.0</ele><time>2026-04-04T15:36:33.038Z</time></trkpt><trkpt lat="43.2720309" lon="12.2961724"><ele>538.0</ele><time>2026-04-04T15:36:34.029Z</time></trkpt><trkpt lat="43.2718564" lon="12.2960364"><ele>538.0</ele><time>2026-04-04T15:36:35.041Z</time></trkpt><trkpt lat="43.271695" lon="12.2959024"><ele>538.0</ele><time>2026-04-04T15:36:36.028Z</time></trkpt><trkpt lat="43.2715322" lon="12.2957843"><ele>538.0</ele><time>2026-04-04T15:36:37.036Z</time></trkpt><trkpt lat="43.2713457" lon="12.2956941"><ele>542.3333333333334</ele><time>2026-04-04T15:36:38.049Z</time></trkpt><trkpt lat="43.2711507" lon="12.2956274"><ele>546.6666666666666</ele><time>2026-04-04T15:36:39.047Z</time></trkpt><trkpt lat="43.2709761" lon="12.2955474"><ele>551.0</ele><time>2026-04-04T15:36:40.04Z</time></trkpt><trkpt lat="43.2708118" lon="12.2954398"><ele>551.0</ele><time>2026-04-04T15:36:41.04Z</time></trkpt><trkpt lat="43.2706574" lon="12.2953082"><ele>551.0</ele><time>2026-04-04T15:36:42.045Z</time></trkpt><trkpt lat="43.2705116" lon="12.2951684"><ele>551.0</ele><time>2026-04-04T15:36:43.042Z</time></trkpt><trkpt lat="43.2703724" lon="12.2950241"><ele>554.0</ele><time>2026-04-04T15:36:44.041Z</time></trkpt><trkpt lat="43.2702471" lon="12.2948586"><ele>557.0</ele><time>2026-04-04T15:36:45.033Z</time></trkpt><trkpt lat="43.2701328" lon="12.2946934"><ele>560.0</ele><time>2026-04-04T15:36:46.032Z</time></trkpt><trkpt lat="43.2700016" lon="12.2945639"><ele>560.0</ele><time>2026-04-04T15:36:47.053Z</time></trkpt><trkpt lat="43.2698549" lon="12.2944619"><ele>560.0</ele><time>2026-04-04T15:36:48.045Z</time></trkpt><trkpt lat="43.2697099" lon="12.2943629"><ele>560.0</ele><time>2026-04-04T15:36:49.041Z</time></trkpt><trkpt lat="43.269561" lon="12.294284"><ele>561.6666666666666</ele><time>2026-04-04T15:36:50.056Z</time></trkpt><trkpt lat="43.2694315" lon="12.2941819"><ele>563.3333333333334</ele><time>2026-04-04T15:36:51.05Z</time></trkpt><trkpt lat="43.2693036" lon="12.2940485"><ele>565.0</ele><time>2026-04-04T15:36:52.044Z</time></trkpt><trkpt lat="43.2692066" lon="12.2938868"><ele>565.6666666666667</ele><time>2026-04-04T15:36:53.047Z</time></trkpt><trkpt lat="43.2691229" lon="12.2937142"><ele>566.3333333333334</ele><time>2026-04-04T15:36:54.051Z</time></trkpt><trkpt lat="43.2690304" lon="12.2935406"><ele>567.0</ele><time>2026-04-04T15:36:55.038Z</time></trkpt><trkpt lat="43.2689389" lon="12.2933614"><ele>567.0</ele><time>2026-04-04T15:36:56.043Z</time></trkpt><trkpt lat="43.2688448" lon="12.2931866"><ele>567.0</ele><time>2026-04-04T15:36:57.046Z</time></trkpt><trkpt lat="43.2687543" lon="12.2930108"><ele>567.0</ele><time>2026-04-04T15:36:58.048Z</time></trkpt><trkpt lat="43.2686613" lon="12.2928264"><ele>569.6666666666666</ele><time>2026-04-04T15:36:59.057Z</time></trkpt><trkpt lat="43.2685663" lon="12.2926387"><ele>572.3333333333333</ele><time>2026-04-04T15:37:00.036Z</time></trkpt><trkpt lat="43.2684656" lon="12.2924511"><ele>575.0</ele><time>2026-04-04T15:37:01.047Z</time></trkpt><trkpt lat="43.2683639" lon="12.2922694"><ele>575.6666666666666</ele><time>2026-04-04T15:37:02.041Z</time></trkpt><trkpt lat="43.2682621" lon="12.2920815"><ele>576.3333333333334</ele><time>2026-04-04T15:37:03.049Z</time></trkpt><trkpt lat="43.2681622" lon="12.2918857"><ele>577.0</ele><time>2026-04-04T15:37:04.033Z</time></trkpt><trkpt lat="43.2680649" lon="12.2916939"><ele>577.0</ele><time>2026-04-04T15:37:05.028Z</time></trkpt><trkpt lat="43.2679632" lon="12.2914972"><ele>577.0</ele><time>2026-04-04T15:37:06.031Z</time></trkpt><trkpt lat="43.2678647" lon="12.2913145"><ele>577.0</ele><time>2026-04-04T15:37:07.028Z</time></trkpt><trkpt lat="43.2677715" lon="12.2911428"><ele>578.0</ele><time>2026-04-04T15:37:08.035Z</time></trkpt><trkpt lat="43.26769" lon="12.2909688"><ele>579.0</ele><time>2026-04-04T15:37:09.043Z</time></trkpt><trkpt lat="43.2676187" lon="12.2907703"><ele>580.0</ele><time>2026-04-04T15:37:10.038Z</time></trkpt><trkpt lat="43.2675632" lon="12.2905591"><ele>582.0</ele><time>2026-04-04T15:37:11.044Z</time></trkpt><trkpt lat="43.2675167" lon="12.2903306"><ele>584.0</ele><time>2026-04-04T15:37:12.041Z</time></trkpt><trkpt lat="43.2674739" lon="12.2901008"><ele>586.0</ele><time>2026-04-04T15:37:13.034Z</time></trkpt><trkpt lat="43.2674313" lon="12.2898778"><ele>586.25</ele><time>2026-04-04T15:37:14.042Z</time></trkpt><trkpt lat="43.2673851" lon="12.2896647"><ele>586.5</ele><time>2026-04-04T15:37:15.044Z</time></trkpt><trkpt lat="43.2673448" lon="12.2894717"><ele>586.75</ele><time>2026-04-04T15:37:16.038Z</time></trkpt><trkpt lat="43.2673011" lon="12.2892946"><ele>587.0</ele><time>2026-04-04T15:37:17.034Z</time></trkpt><trkpt lat="43.2672405" lon="12.2891362"><ele>587.0</ele><time>2026-04-04T15:37:18.048Z</time></trkpt><trkpt lat="43.2671418" lon="12.2890032"><ele>587.0</ele><time>2026-04-04T15:37:19.04Z</time></trkpt><trkpt lat="43.267041" lon="12.2888807"><ele>587.0</ele><time>2026-04-04T15:37:20.039Z</time></trkpt><trkpt lat="43.2669352" lon="12.2887707"><ele>587.0</ele><time>2026-04-04T15:37:21.034Z</time></trkpt><trkpt lat="43.2668266" lon="12.2886594"><ele>590.0</ele><time>2026-04-04T15:37:22.031Z</time></trkpt><trkpt lat="43.2667247" lon="12.2885483"><ele>593.0</ele><time>2026-04-04T15:37:23.035Z</time></trkpt><trkpt lat="43.2666216" lon="12.2884308"><ele>596.0</ele><time>2026-04-04T15:37:24.046Z</time></trkpt><trkpt lat="43.2665246" lon="12.2883238"><ele>599.0</ele><time>2026-04-04T15:37:25.034Z</time></trkpt><trkpt lat="43.2664345" lon="12.2882238"><ele>600.0</ele><time>2026-04-04T15:37:26.034Z</time></trkpt><trkpt lat="43.2663496" lon="12.288141"><ele>601.0</ele><time>2026-04-04T15:37:27.033Z</time></trkpt><trkpt lat="43.2662517" lon="12.2881037"><ele>602.0</ele><time>2026-04-04T15:37:28.034Z</time></trkpt><trkpt lat="43.2661589" lon="12.2880937"><ele>603.0</ele><time>2026-04-04T15:37:29.034Z</time></trkpt><trkpt lat="43.2660765" lon="12.288131"><ele>604.0</ele><time>2026-04-04T15:37:30.034Z</time></trkpt><trkpt lat="43.2660096" lon="12.288205"><ele>604.0</ele><time>2026-04-04T15:37:31.027Z</time></trkpt><trkpt lat="43.2659656" lon="12.2883189"><ele>604.0</ele><time>2026-04-04T15:37:32.03Z</time></trkpt><trkpt lat="43.2659441" lon="12.2884602"><ele>604.0</ele><time>2026-04-04T15:37:33.031Z</time></trkpt><trkpt lat="43.2659593" lon="12.2886203"><ele>604.0</ele><time>2026-04-04T15:37:34.028Z</time></trkpt><trkpt lat="43.2659855" lon="12.2887647"><ele>604.0</ele><time>2026-04-04T15:37:35.029Z</time></trkpt><trkpt lat="43.2660116" lon="12.2889136"><ele>605.0</ele><time>2026-04-04T15:37:36.04Z</time></trkpt><trkpt lat="43.2660315" lon="12.2890599"><ele>606.0</ele><time>2026-04-04T15:37:37.037Z</time></trkpt><trkpt lat="43.2660437" lon="12.2892168"><ele>607.0</ele><time>2026-04-04T15:37:38.036Z</time></trkpt><trkpt lat="43.2660401" lon="12.2893694"><ele>608.0</ele><time>2026-04-04T15:37:39.04Z</time></trkpt><trkpt lat="43.266018" lon="12.2894923"><ele>609.0</ele><time>2026-04-04T15:37:40.04Z</time></trkpt><trkpt lat="43.2659689" lon="12.2895803"><ele>609.0</ele><time>2026-04-04T15:37:41.038Z</time></trkpt><trkpt lat="43.2659015" lon="12.2896376"><ele>609.0</ele><time>2026-04-04T15:37:42.03Z</time></trkpt><trkpt lat="43.2658107" lon="12.2896736"><ele>609.0</ele><time>2026-04-04T15:37:43.03Z</time></trkpt><trkpt lat="43.265707" lon="12.2896672"><ele>609.0</ele><time>2026-04-04T15:37:44.031Z</time></trkpt><trkpt lat="43.2655946" lon="12.2896401"><ele>609.0</ele><time>2026-04-04T15:37:45.033Z</time></trkpt><trkpt lat="43.2654733" lon="12.2896177"><ele>608.0</ele><time>2026-04-04T15:37:46.03Z</time></trkpt><trkpt lat="43.2653565" lon="12.2896411"><ele>607.0</ele><time>2026-04-04T15:37:47.042Z</time></trkpt><trkpt lat="43.2652537" lon="12.2897213"><ele>606.0</ele><time>2026-04-04T15:37:48.035Z</time></trkpt><trkpt lat="43.2651576" lon="12.2898242"><ele>605.0</ele><time>2026-04-04T15:37:49.037Z</time></trkpt><trkpt lat="43.2650732" lon="12.2898865"><ele>605.0</ele><time>2026-04-04T15:37:50.032Z</time></trkpt><trkpt lat="43.2649905" lon="12.289907"><ele>605.0</ele><time>2026-04-04T15:37:51.038Z</time></trkpt><trkpt lat="43.2649102" lon="12.2898703"><ele>605.0</ele><time>2026-04-04T15:37:52.026Z</time></trkpt><trkpt lat="43.2648269" lon="12.2898007"><ele>605.0</ele><time>2026-04-04T15:37:53.028Z</time></trkpt><trkpt lat="43.264741" lon="12.2897257"><ele>605.0</ele><time>2026-04-04T15:37:54.032Z</time></trkpt><trkpt lat="43.2646614" lon="12.2896312"><ele>605.4</ele><time>2026-04-04T15:37:55.031Z</time></trkpt><trkpt lat="43.264599" lon="12.2895212"><ele>605.8</ele><time>2026-04-04T15:37:56.039Z</time></trkpt><trkpt lat="43.2645631" lon="12.289383"><ele>606.2</ele><time>2026-04-04T15:37:57.029Z</time></trkpt><trkpt lat="43.2645266" lon="12.2892449"><ele>606.6</ele><time>2026-04-04T15:37:58.039Z</time></trkpt><trkpt lat="43.2644843" lon="12.2891008"><ele>607.0</ele><time>2026-04-04T15:37:59.033Z</time></trkpt><trkpt lat="43.2644476" lon="12.2889368"><ele>609.25</ele><time>2026-04-04T15:38:00.036Z</time></trkpt><trkpt lat="43.2644133" lon="12.288759"><ele>611.5</ele><time>2026-04-04T15:38:01.034Z</time></trkpt><trkpt lat="43.2643645" lon="12.2885916"><ele>613.75</ele><time>2026-04-04T15:38:02.03Z</time></trkpt><trkpt lat="43.2642906" lon="12.288434"><ele>616.0</ele><time>2026-04-04T15:38:03.037Z</time></trkpt><trkpt lat="43.2642094" lon="12.2882914"><ele>616.0</ele><time>2026-04-04T15:38:04.026Z</time></trkpt><trkpt lat="43.2641143" lon="12.2881419"><ele>616.0</ele><time>2026-04-04T15:38:05.038Z</time></trkpt><trkpt lat="43.2640035" lon="12.2880019"><ele>616.0</ele><time>2026-04-04T15:38:06.043Z</time></trkpt><trkpt lat="43.2638973" lon="12.2878468"><ele>616.6666666666667</ele><time>2026-04-04T15:38:07.037Z</time></trkpt><trkpt lat="43.2637881" lon="12.2876794"><ele>617.3333333333334</ele><time>2026-04-04T15:38:08.042Z</time></trkpt><trkpt lat="43.2636856" lon="12.2875193"><ele>618.0</ele><time>2026-04-04T15:38:09.044Z</time></trkpt><trkpt lat="43.2635753" lon="12.2873743"><ele>618.0</ele><time>2026-04-04T15:38:10.034Z</time></trkpt><trkpt lat="43.2634476" lon="12.2872699"><ele>618.0</ele><time>2026-04-04T15:38:11.051Z</time></trkpt><trkpt lat="43.2633297" lon="12.2871739"><ele>618.0</ele><time>2026-04-04T15:38:12.044Z</time></trkpt><trkpt lat="43.2632189" lon="12.2870677"><ele>618.0</ele><time>2026-04-04T15:38:13.026Z</time></trkpt><trkpt lat="43.2631331" lon="12.2869249"><ele>620.0</ele><time>2026-04-04T15:38:14.045Z</time></trkpt><trkpt lat="43.2630578" lon="12.2867693"><ele>622.0</ele><time>2026-04-04T15:38:15.028Z</time></trkpt><trkpt lat="43.262987" lon="12.2866049"><ele>624.0</ele><time>2026-04-04T15:38:16.03Z</time></trkpt><trkpt lat="43.2629214" lon="12.2864565"><ele>626.0</ele><time>2026-04-04T15:38:17.024Z</time></trkpt><trkpt lat="43.2628598" lon="12.2863074"><ele>628.25</ele><time>2026-04-04T15:38:18.033Z</time></trkpt><trkpt lat="43.2627787" lon="12.2861948"><ele>630.5</ele><time>2026-04-04T15:38:19.035Z</time></trkpt><trkpt lat="43.262685" lon="12.286094"><ele>632.75</ele><time>2026-04-04T15:38:20.042Z</time></trkpt><trkpt lat="43.2625919" lon="12.2859947"><ele>635.0</ele><time>2026-04-04T15:38:21.035Z</time></trkpt><trkpt lat="43.2624979" lon="12.2858999"><ele>635.0</ele><time>2026-04-04T15:38:22.044Z</time></trkpt><trkpt lat="43.262405" lon="12.2858369"><ele>635.0</ele><time>2026-04-04T15:38:23.032Z</time></trkpt><trkpt lat="43.2623173" lon="12.2857804"><ele>635.0</ele><time>2026-04-04T15:38:24.035Z</time></trkpt><trkpt lat="43.2622406" lon="12.2857108"><ele>635.0</ele><time>2026-04-04T15:38:25.027Z</time></trkpt><trkpt lat="43.2621714" lon="12.2856188"><ele>635.0</ele><time>2026-04-04T15:38:26.038Z</time></trkpt><trkpt lat="43.2621211" lon="12.2854924"><ele>635.6</ele><time>2026-04-04T15:38:27.03Z</time></trkpt><trkpt lat="43.2620792" lon="12.2853595"><ele>636.2</ele><time>2026-04-04T15:38:28.024Z</time></trkpt><trkpt lat="43.2620499" lon="12.2852106"><ele>636.8</ele><time>2026-04-04T15:38:29.037Z</time></trkpt><trkpt lat="43.2620275" lon="12.2850685"><ele>637.4</ele><time>2026-04-04T15:38:30.032Z</time></trkpt><trkpt lat="43.2620255" lon="12.2849473"><ele>638.0</ele><time>2026-04-04T15:38:31.036Z</time></trkpt><trkpt lat="43.2620462" lon="12.2848263"><ele>641.0</ele><time>2026-04-04T15:38:32.038Z</time></trkpt><trkpt lat="43.2620936" lon="12.2847299"><ele>644.0</ele><time>2026-04-04T15:38:33.038Z</time></trkpt><trkpt lat="43.2621632" lon="12.2846501"><ele>647.0</ele><time>2026-04-04T15:38:34.027Z</time></trkpt><trkpt lat="43.2622563" lon="12.2846024"><ele>650.0</ele><time>2026-04-04T15:38:35.034Z</time></trkpt><trkpt lat="43.2623698" lon="12.2845812"><ele>653.0</ele><time>2026-04-04T15:38:36.03Z</time></trkpt><trkpt lat="43.262494" lon="12.284597"><ele>653.0</ele><time>2026-04-04T15:38:37.031Z</time></trkpt><trkpt lat="43.2626212" lon="12.2846016"><ele>653.0</ele><time>2026-04-04T15:38:38.025Z</time></trkpt><trkpt lat="43.2627478" lon="12.2845957"><ele>653.0</ele><time>2026-04-04T15:38:39.039Z</time></trkpt><trkpt lat="43.2628704" lon="12.2845948"><ele>653.0</ele><time>2026-04-04T15:38:40.04Z</time></trkpt><trkpt lat="43.2629884" lon="12.2845907"><ele>653.0</ele><time>2026-04-04T15:38:41.036Z</time></trkpt><trkpt lat="43.2630958" lon="12.2845632"><ele>653.0</ele><time>2026-04-04T15:38:42.041Z</time></trkpt><trkpt lat="43.2631897" lon="12.2844809"><ele>653.0</ele><time>2026-04-04T15:38:43.033Z</time></trkpt><trkpt lat="43.2632621" lon="12.2843464"><ele>653.0</ele><time>2026-04-04T15:38:44.033Z</time></trkpt><trkpt lat="43.2633021" lon="12.2841989"><ele>653.0</ele><time>2026-04-04T15:38:45.025Z</time></trkpt><trkpt lat="43.2633334" lon="12.2840263"><ele>653.0</ele><time>2026-04-04T15:38:46.03Z</time></trkpt><trkpt lat="43.2633589" lon="12.2838385"><ele>653.0</ele><time>2026-04-04T15:38:47.027Z</time></trkpt><trkpt lat="43.2633821" lon="12.2836486"><ele>653.0</ele><time>2026-04-04T15:38:48.044Z</time></trkpt><trkpt lat="43.2634147" lon="12.2834573"><ele>653.0</ele><time>2026-04-04T15:38:49.044Z</time></trkpt><trkpt lat="43.263457" lon="12.2832703"><ele>653.0</ele><time>2026-04-04T15:38:50.035Z</time></trkpt><trkpt lat="43.2635124" lon="12.2830847"><ele>653.0</ele><time>2026-04-04T15:38:51.037Z</time></trkpt><trkpt lat="43.2635703" lon="12.2829145"><ele>653.0</ele><time>2026-04-04T15:38:52.044Z</time></trkpt><trkpt lat="43.2636385" lon="12.28276"><ele>653.0</ele><time>2026-04-04T15:38:53.032Z</time></trkpt><trkpt lat="43.2636979" lon="12.282611"><ele>653.0</ele><time>2026-04-04T15:38:54.037Z</time></trkpt><trkpt lat="43.2637399" lon="12.2824571"><ele>653.0</ele><time>2026-04-04T15:38:55.031Z</time></trkpt><trkpt lat="43.2637527" lon="12.2822878"><ele>653.0</ele><time>2026-04-04T15:38:56.04Z</time></trkpt><trkpt lat="43.2637265" lon="12.2821171"><ele>653.0</ele><time>2026-04-04T15:38:57.032Z</time></trkpt><trkpt lat="43.2636773" lon="12.2819272"><ele>653.0</ele><time>2026-04-04T15:38:58.031Z</time></trkpt><trkpt lat="43.2636294" lon="12.2817403"><ele>653.0</ele><time>2026-04-04T15:38:59.031Z</time></trkpt><trkpt lat="43.2635809" lon="12.2815551"><ele>653.0</ele><time>2026-04-04T15:39:00.036Z</time></trkpt><trkpt lat="43.2635284" lon="12.2813699"><ele>651.3333333333333</ele><time>2026-04-04T15:39:01.039Z</time></trkpt><trkpt lat="43.2634783" lon="12.2811777"><ele>649.6666666666666</ele><time>2026-04-04T15:39:02.037Z</time></trkpt><trkpt lat="43.2634244" lon="12.2809784"><ele>648.0</ele><time>2026-04-04T15:39:03.035Z</time></trkpt><trkpt lat="43.2633744" lon="12.2807807"><ele>646.0</ele><time>2026-04-04T15:39:04.042Z</time></trkpt><trkpt lat="43.2633212" lon="12.280593"><ele>644.0</ele><time>2026-04-04T15:39:05.038Z</time></trkpt><trkpt lat="43.2632772" lon="12.2803837"><ele>642.0</ele><time>2026-04-04T15:39:06.043Z</time></trkpt><trkpt lat="43.2632563" lon="12.2801756"><ele>642.0</ele><time>2026-04-04T15:39:07.037Z</time></trkpt><trkpt lat="43.2632492" lon="12.2799582"><ele>642.0</ele><time>2026-04-04T15:39:08.034Z</time></trkpt><trkpt lat="43.2632412" lon="12.27973"><ele>642.0</ele><time>2026-04-04T15:39:09.041Z</time></trkpt><trkpt lat="43.2632361" lon="12.2795026"><ele>642.3333333333334</ele><time>2026-04-04T15:39:10.036Z</time></trkpt><trkpt lat="43.2632289" lon="12.2792719"><ele>642.6666666666667</ele><time>2026-04-04T15:39:11.054Z</time></trkpt><trkpt lat="43.263219" lon="12.279038"><ele>643.0</ele><time>2026-04-04T15:39:12.031Z</time></trkpt><trkpt lat="43.2632083" lon="12.2788134"><ele>643.25</ele><time>2026-04-04T15:39:13.043Z</time></trkpt><trkpt lat="43.263201" lon="12.2786031"><ele>643.5</ele><time>2026-04-04T15:39:14.032Z</time></trkpt><trkpt lat="43.2631906" lon="12.2784004"><ele>643.75</ele><time>2026-04-04T15:39:15.037Z</time></trkpt><trkpt lat="43.2631811" lon="12.2782004"><ele>644.0</ele><time>2026-04-04T15:39:16.038Z</time></trkpt><trkpt lat="43.2631762" lon="12.2780088"><ele>644.0</ele><time>2026-04-04T15:39:17.038Z</time></trkpt><trkpt lat="43.2631828" lon="12.2778272"><ele>644.0</ele><time>2026-04-04T15:39:18.038Z</time></trkpt><trkpt lat="43.263206" lon="12.2776429"><ele>644.0</ele><time>2026-04-04T15:39:19.036Z</time></trkpt><trkpt lat="43.2632473" lon="12.2774537"><ele>644.0</ele><time>2026-04-04T15:39:20.038Z</time></trkpt><trkpt lat="43.2633089" lon="12.2772631"><ele>646.6666666666666</ele><time>2026-04-04T15:39:21.039Z</time></trkpt><trkpt lat="43.2633832" lon="12.277068"><ele>649.3333333333334</ele><time>2026-04-04T15:39:22.035Z</time></trkpt><trkpt lat="43.2634756" lon="12.2768827"><ele>652.0</ele><time>2026-04-04T15:39:23.032Z</time></trkpt><trkpt lat="43.2635663" lon="12.276695"><ele>652.0</ele><time>2026-04-04T15:39:24.043Z</time></trkpt><trkpt lat="43.2636545" lon="12.2765123"><ele>652.0</ele><time>2026-04-04T15:39:25.038Z</time></trkpt><trkpt lat="43.2637372" lon="12.2763379"><ele>652.0</ele><time>2026-04-04T15:39:26.041Z</time></trkpt><trkpt lat="43.2638021" lon="12.2761847"><ele>652.0</ele><time>2026-04-04T15:39:27.051Z</time></trkpt><trkpt lat="43.2638385" lon="12.2760439"><ele>651.75</ele><time>2026-04-04T15:39:28.036Z</time></trkpt><trkpt lat="43.2638458" lon="12.2758885"><ele>651.5</ele><time>2026-04-04T15:39:29.036Z</time></trkpt><trkpt lat="43.2638138" lon="12.2757181"><ele>651.25</ele><time>2026-04-04T15:39:30.033Z</time></trkpt><trkpt lat="43.2637561" lon="12.2755522"><ele>651.0</ele><time>2026-04-04T15:39:31.033Z</time></trkpt><trkpt lat="43.2636976" lon="12.2753834"><ele>647.0</ele><time>2026-04-04T15:39:32.033Z</time></trkpt><trkpt lat="43.2636383" lon="12.275228"><ele>643.0</ele><time>2026-04-04T15:39:33.04Z</time></trkpt><trkpt lat="43.2635672" lon="12.2750854"><ele>639.0</ele><time>2026-04-04T15:39:34.046Z</time></trkpt><trkpt lat="43.2634803" lon="12.2749484"><ele>635.0</ele><time>2026-04-04T15:39:35.045Z</time></trkpt><trkpt lat="43.2633891" lon="12.2748224"><ele>631.75</ele><time>2026-04-04T15:39:36.03Z</time></trkpt><trkpt lat="43.2632806" lon="12.274727"><ele>628.5</ele><time>2026-04-04T15:39:37.045Z</time></trkpt><trkpt lat="43.2631712" lon="12.274679"><ele>625.25</ele><time>2026-04-04T15:39:38.038Z</time></trkpt><trkpt lat="43.2630345" lon="12.2746717"><ele>622.0</ele><time>2026-04-04T15:39:39.035Z</time></trkpt><trkpt lat="43.2628881" lon="12.2747034"><ele>622.0</ele><time>2026-04-04T15:39:40.042Z</time></trkpt><trkpt lat="43.2627254" lon="12.2747416"><ele>622.0</ele><time>2026-04-04T15:39:41.037Z</time></trkpt><trkpt lat="43.2625763" lon="12.2747525"><ele>622.0</ele><time>2026-04-04T15:39:42.042Z</time></trkpt><trkpt lat="43.2624246" lon="12.2747802"><ele>624.6666666666667</ele><time>2026-04-04T15:39:43.054Z</time></trkpt><trkpt lat="43.2622822" lon="12.2748371"><ele>627.3333333333334</ele><time>2026-04-04T15:39:44.045Z</time></trkpt><trkpt lat="43.2621309" lon="12.2749195"><ele>630.0</ele><time>2026-04-04T15:39:45.033Z</time></trkpt><trkpt lat="43.2619962" lon="12.275002"><ele>630.0</ele><time>2026-04-04T15:39:46.03Z</time></trkpt><trkpt lat="43.2618838" lon="12.2750731"><ele>630.0</ele><time>2026-04-04T15:39:47.034Z</time></trkpt><trkpt lat="43.2617807" lon="12.2751384"><ele>630.0</ele><time>2026-04-04T15:39:48.044Z</time></trkpt><trkpt lat="43.2616798" lon="12.2751835"><ele>630.0</ele><time>2026-04-04T15:39:49.048Z</time></trkpt><trkpt lat="43.2615672" lon="12.2751763"><ele>630.0</ele><time>2026-04-04T15:39:50.04Z</time></trkpt><trkpt lat="43.2614541" lon="12.2751084"><ele>630.0</ele><time>2026-04-04T15:39:51.032Z</time></trkpt><trkpt lat="43.2613429" lon="12.2749741"><ele>630.0</ele><time>2026-04-04T15:39:52.033Z</time></trkpt><trkpt lat="43.26125" lon="12.2747876"><ele>630.0</ele><time>2026-04-04T15:39:53.034Z</time></trkpt><trkpt lat="43.2611627" lon="12.274595"><ele>629.0</ele><time>2026-04-04T15:39:54.031Z</time></trkpt><trkpt lat="43.2610983" lon="12.2743759"><ele>628.0</ele><time>2026-04-04T15:39:55.038Z</time></trkpt><trkpt lat="43.2610579" lon="12.2741613"><ele>627.0</ele><time>2026-04-04T15:39:56.036Z</time></trkpt><trkpt lat="43.2610514" lon="12.2739413"><ele>627.0</ele><time>2026-04-04T15:39:57.034Z</time></trkpt><trkpt lat="43.2610736" lon="12.2737104"><ele>627.0</ele><time>2026-04-04T15:39:58.035Z</time></trkpt><trkpt lat="43.2611273" lon="12.273469"><ele>627.0</ele><time>2026-04-04T15:39:59.039Z</time></trkpt><trkpt lat="43.2611914" lon="12.2732385"><ele>628.3333333333334</ele><time>2026-04-04T15:40:00.038Z</time></trkpt><trkpt lat="43.2612507" lon="12.2730245"><ele>629.6666666666667</ele><time>2026-04-04T15:40:01.031Z</time></trkpt><trkpt lat="43.2612991" lon="12.2728274"><ele>631.0</ele><time>2026-04-04T15:40:02.034Z</time></trkpt><trkpt lat="43.2613231" lon="12.2726276"><ele>631.0</ele><time>2026-04-04T15:40:03.043Z</time></trkpt><trkpt lat="43.2613078" lon="12.2724053"><ele>631.0</ele><time>2026-04-04T15:40:04.033Z</time></trkpt><trkpt lat="43.2612615" lon="12.2721834"><ele>631.0</ele><time>2026-04-04T15:40:05.034Z</time></trkpt><trkpt lat="43.2612151" lon="12.2719786"><ele>629.3333333333334</ele><time>2026-04-04T15:40:06.04Z</time></trkpt><trkpt lat="43.2611979" lon="12.2717825"><ele>627.6666666666666</ele><time>2026-04-04T15:40:07.031Z</time></trkpt><trkpt lat="43.2612167" lon="12.2715596"><ele>626.0</ele><time>2026-04-04T15:40:08.03Z</time></trkpt><trkpt lat="43.2612578" lon="12.2713362"><ele>623.5</ele><time>2026-04-04T15:40:09.032Z</time></trkpt><trkpt lat="43.2612936" lon="12.2711284"><ele>621.0</ele><time>2026-04-04T15:40:10.041Z</time></trkpt><trkpt lat="43.2613265" lon="12.2709406"><ele>618.5</ele><time>2026-04-04T15:40:11.033Z</time></trkpt><trkpt lat="43.2613525" lon="12.2707825"><ele>616.0</ele><time>2026-04-04T15:40:12.04Z</time></trkpt><trkpt lat="43.2613515" lon="12.2706294"><ele>614.5</ele><time>2026-04-04T15:40:13.05Z</time></trkpt><trkpt lat="43.2613181" lon="12.2704595"><ele>613.0</ele><time>2026-04-04T15:40:14.042Z</time></trkpt><trkpt lat="43.2612589" lon="12.2702776"><ele>611.5</ele><time>2026-04-04T15:40:15.041Z</time></trkpt><trkpt lat="43.2612042" lon="12.270087"><ele>610.0</ele><time>2026-04-04T15:40:16.034Z</time></trkpt><trkpt lat="43.2611765" lon="12.2699052"><ele>608.6</ele><time>2026-04-04T15:40:17.039Z</time></trkpt><trkpt lat="43.2611756" lon="12.2697297"><ele>607.2</ele><time>2026-04-04T15:40:18.037Z</time></trkpt><trkpt lat="43.2611751" lon="12.2695699"><ele>605.8</ele><time>2026-04-04T15:40:19.045Z</time></trkpt><trkpt lat="43.2611587" lon="12.2694336"><ele>604.4</ele><time>2026-04-04T15:40:20.045Z</time></trkpt><trkpt lat="43.2611125" lon="12.2693079"><ele>603.0</ele><time>2026-04-04T15:40:21.033Z</time></trkpt><trkpt lat="43.2610289" lon="12.2691848"><ele>603.0</ele><time>2026-04-04T15:40:22.044Z</time></trkpt><trkpt lat="43.2609356" lon="12.2691231"><ele>603.0</ele><time>2026-04-04T15:40:23.041Z</time></trkpt><trkpt lat="43.2608218" lon="12.2690713"><ele>603.0</ele><time>2026-04-04T15:40:24.042Z</time></trkpt><trkpt lat="43.2606942" lon="12.2690539"><ele>603.0</ele><time>2026-04-04T15:40:25.033Z</time></trkpt><trkpt lat="43.2605596" lon="12.2690533"><ele>602.3333333333334</ele><time>2026-04-04T15:40:26.036Z</time></trkpt><trkpt lat="43.2604033" lon="12.2690716"><ele>601.6666666666667</ele><time>2026-04-04T15:40:27.033Z</time></trkpt><trkpt lat="43.2602542" lon="12.269076"><ele>601.0</ele><time>2026-04-04T15:40:28.042Z</time></trkpt><trkpt lat="43.26011" lon="12.2690612"><ele>601.0</ele><time>2026-04-04T15:40:29.039Z</time></trkpt><trkpt lat="43.2599692" lon="12.2690335"><ele>601.0</ele><time>2026-04-04T15:40:30.043Z</time></trkpt><trkpt lat="43.2598302" lon="12.2689614"><ele>601.0</ele><time>2026-04-04T15:40:31.044Z</time></trkpt><trkpt lat="43.2596768" lon="12.2688715"><ele>596.6666666666667</ele><time>2026-04-04T15:40:32.041Z</time></trkpt><trkpt lat="43.2595281" lon="12.2687923"><ele>592.3333333333334</ele><time>2026-04-04T15:40:33.046Z</time></trkpt><trkpt lat="43.2593871" lon="12.2687063"><ele>588.0</ele><time>2026-04-04T15:40:34.04Z</time></trkpt><trkpt lat="43.2592401" lon="12.2686451"><ele>588.0</ele><time>2026-04-04T15:40:35.045Z</time></trkpt><trkpt lat="43.2590768" lon="12.2686046"><ele>588.0</ele><time>2026-04-04T15:40:36.042Z</time></trkpt><trkpt lat="43.2589172" lon="12.2685598"><ele>588.0</ele><time>2026-04-04T15:40:37.035Z</time></trkpt><trkpt lat="43.2587603" lon="12.268524"><ele>587.25</ele><time>2026-04-04T15:40:38.037Z</time></trkpt><trkpt lat="43.2586077" lon="12.268487"><ele>586.5</ele><time>2026-04-04T15:40:39.041Z</time></trkpt><trkpt lat="43.2584638" lon="12.2684522"><ele>585.75</ele><time>2026-04-04T15:40:40.043Z</time></trkpt><trkpt lat="43.2583275" lon="12.2684095"><ele>585.0</ele><time>2026-04-04T15:40:41.043Z</time></trkpt><trkpt lat="43.2581926" lon="12.2683639"><ele>585.0</ele><time>2026-04-04T15:40:42.039Z</time></trkpt><trkpt lat="43.2580651" lon="12.2683177"><ele>585.0</ele><time>2026-04-04T15:40:43.035Z</time></trkpt><trkpt lat="43.2579433" lon="12.2682646"><ele>585.0</ele><time>2026-04-04T15:40:44.032Z</time></trkpt><trkpt lat="43.2578221" lon="12.268193"><ele>585.0</ele><time>2026-04-04T15:40:45.042Z</time></trkpt><trkpt lat="43.2577179" lon="12.2680844"><ele>583.0</ele><time>2026-04-04T15:40:46.04Z</time></trkpt><trkpt lat="43.2576329" lon="12.2679422"><ele>581.0</ele><time>2026-04-04T15:40:47.025Z</time></trkpt><trkpt lat="43.2575492" lon="12.2677772"><ele>579.0</ele><time>2026-04-04T15:40:48.034Z</time></trkpt><trkpt lat="43.257469" lon="12.267605"><ele>577.0</ele><time>2026-04-04T15:40:49.028Z</time></trkpt><trkpt lat="43.2573948" lon="12.2674438"><ele>577.0</ele><time>2026-04-04T15:40:50.037Z</time></trkpt><trkpt lat="43.2573248" lon="12.267292"><ele>577.0</ele><time>2026-04-04T15:40:51.031Z</time></trkpt><trkpt lat="43.257242" lon="12.2671489"><ele>577.0</ele><time>2026-04-04T15:40:52.041Z</time></trkpt><trkpt lat="43.2571274" lon="12.2670549"><ele>577.0</ele><time>2026-04-04T15:40:53.039Z</time></trkpt><trkpt lat="43.2570001" lon="12.2669797"><ele>576.6</ele><time>2026-04-04T15:40:54.034Z</time></trkpt><trkpt lat="43.2568884" lon="12.2669098"><ele>576.2</ele><time>2026-04-04T15:40:55.039Z</time></trkpt><trkpt lat="43.2567918" lon="12.2668445"><ele>575.8</ele><time>2026-04-04T15:40:56.041Z</time></trkpt><trkpt lat="43.2567095" lon="12.2667683"><ele>575.4</ele><time>2026-04-04T15:40:57.039Z</time></trkpt><trkpt lat="43.2566401" lon="12.2666654"><ele>575.0</ele><time>2026-04-04T15:40:58.037Z</time></trkpt><trkpt lat="43.2566019" lon="12.2665356"><ele>574.5</ele><time>2026-04-04T15:40:59.038Z</time></trkpt><trkpt lat="43.2565982" lon="12.2663908"><ele>574.0</ele><time>2026-04-04T15:41:00.04Z</time></trkpt><trkpt lat="43.2566091" lon="12.2662394"><ele>573.5</ele><time>2026-04-04T15:41:01.027Z</time></trkpt><trkpt lat="43.2566273" lon="12.2660691"><ele>573.0</ele><time>2026-04-04T15:41:02.033Z</time></trkpt><trkpt lat="43.2566567" lon="12.2658943"><ele>573.0</ele><time>2026-04-04T15:41:03.036Z</time></trkpt><trkpt lat="43.2566918" lon="12.2657316"><ele>573.0</ele><time>2026-04-04T15:41:04.039Z</time></trkpt><trkpt lat="43.2567269" lon="12.2655794"><ele>573.0</ele><time>2026-04-04T15:41:05.038Z</time></trkpt><trkpt lat="43.2567531" lon="12.2654234"><ele>573.0</ele><time>2026-04-04T15:41:06.037Z</time></trkpt><trkpt lat="43.2567586" lon="12.2652648"><ele>573.0</ele><time>2026-04-04T15:41:07.034Z</time></trkpt><trkpt lat="43.2567541" lon="12.2651158"><ele>573.0</ele><time>2026-04-04T15:41:08.044Z</time></trkpt><trkpt lat="43.2567273" lon="12.2649556"><ele>573.0</ele><time>2026-04-04T15:41:09.034Z</time></trkpt><trkpt lat="43.2566524" lon="12.2648089"><ele>573.0</ele><time>2026-04-04T15:41:10.033Z</time></trkpt><trkpt lat="43.2565526" lon="12.2646732"><ele>572.5</ele><time>2026-04-04T15:41:11.032Z</time></trkpt><trkpt lat="43.2564537" lon="12.2645482"><ele>572.0</ele><time>2026-04-04T15:41:12.04Z</time></trkpt><trkpt lat="43.256363" lon="12.2644317"><ele>571.5</ele><time>2026-04-04T15:41:13.04Z</time></trkpt><trkpt lat="43.2562855" lon="12.2643068"><ele>571.0</ele><time>2026-04-04T15:41:14.036Z</time></trkpt><trkpt lat="43.256228" lon="12.2641566"><ele>570.75</ele><time>2026-04-04T15:41:15.048Z</time></trkpt><trkpt lat="43.2561822" lon="12.2639942"><ele>570.5</ele><time>2026-04-04T15:41:16.043Z</time></trkpt><trkpt lat="43.2561412" lon="12.263824"><ele>570.25</ele><time>2026-04-04T15:41:17.035Z</time></trkpt><trkpt lat="43.256106" lon="12.2636434"><ele>570.0</ele><time>2026-04-04T15:41:18.029Z</time></trkpt><trkpt lat="43.2560569" lon="12.2634809"><ele>571.5</ele><time>2026-04-04T15:41:19.036Z</time></trkpt><trkpt lat="43.2559748" lon="12.2633395"><ele>573.0</ele><time>2026-04-04T15:41:20.028Z</time></trkpt><trkpt lat="43.2558683" lon="12.2632345"><ele>574.5</ele><time>2026-04-04T15:41:21.034Z</time></trkpt><trkpt lat="43.2557412" lon="12.2631825"><ele>576.0</ele><time>2026-04-04T15:41:22.038Z</time></trkpt><trkpt lat="43.2556049" lon="12.2631605"><ele>576.0</ele><time>2026-04-04T15:41:23.039Z</time></trkpt><trkpt lat="43.2554615" lon="12.2631512"><ele>576.0</ele><time>2026-04-04T15:41:24.033Z</time></trkpt><trkpt lat="43.2553284" lon="12.2631312"><ele>576.0</ele><time>2026-04-04T15:41:25.033Z</time></trkpt><trkpt lat="43.2552072" lon="12.2630901"><ele>576.0</ele><time>2026-04-04T15:41:26.034Z</time></trkpt><trkpt lat="43.2550868" lon="12.2630337"><ele>575.0</ele><time>2026-04-04T15:41:27.036Z</time></trkpt><trkpt lat="43.2549681" lon="12.2629717"><ele>574.0</ele><time>2026-04-04T15:41:28.035Z</time></trkpt><trkpt lat="43.2548488" lon="12.2628968"><ele>573.0</ele><time>2026-04-04T15:41:29.028Z</time></trkpt><trkpt lat="43.254732" lon="12.2628305"><ele>572.0</ele><time>2026-04-04T15:41:30.027Z</time></trkpt><trkpt lat="43.2546333" lon="12.262749"><ele>572.0</ele><time>2026-04-04T15:41:31.024Z</time></trkpt><trkpt lat="43.2545514" lon="12.2626595"><ele>572.0</ele><time>2026-04-04T15:41:32.03Z</time></trkpt><trkpt lat="43.2544832" lon="12.2625497"><ele>572.0</ele><time>2026-04-04T15:41:33.029Z</time></trkpt><trkpt lat="43.2544459" lon="12.2624187"><ele>572.0</ele><time>2026-04-04T15:41:34.024Z</time></trkpt><trkpt lat="43.2544335" lon="12.2622814"><ele>572.0</ele><time>2026-04-04T15:41:35.031Z</time></trkpt><trkpt lat="43.2544348" lon="12.2621342"><ele>572.5</ele><time>2026-04-04T15:41:36.037Z</time></trkpt><trkpt lat="43.2544487" lon="12.2619779"><ele>573.0</ele><time>2026-04-04T15:41:37.031Z</time></trkpt><trkpt lat="43.2544708" lon="12.2618211"><ele>573.5</ele><time>2026-04-04T15:41:38.034Z</time></trkpt><trkpt lat="43.2544974" lon="12.2616535"><ele>574.0</ele><time>2026-04-04T15:41:39.029Z</time></trkpt><trkpt lat="43.2545295" lon="12.2615024"><ele>570.5</ele><time>2026-04-04T15:41:40.036Z</time></trkpt><trkpt lat="43.2545773" lon="12.261347"><ele>567.0</ele><time>2026-04-04T15:41:41.034Z</time></trkpt><trkpt lat="43.2546516" lon="12.2611848"><ele>563.5</ele><time>2026-04-04T15:41:42.036Z</time></trkpt><trkpt lat="43.2547348" lon="12.2610388"><ele>560.0</ele><time>2026-04-04T15:41:43.034Z</time></trkpt><trkpt lat="43.2548138" lon="12.2609171"><ele>566.4</ele><time>2026-04-04T15:41:44.034Z</time></trkpt><trkpt lat="43.2548953" lon="12.2608092"><ele>572.8</ele><time>2026-04-04T15:41:45.025Z</time></trkpt><trkpt lat="43.2549772" lon="12.2607088"><ele>579.2</ele><time>2026-04-04T15:41:46.028Z</time></trkpt><trkpt lat="43.2550473" lon="12.2606051"><ele>585.6</ele><time>2026-04-04T15:41:47.036Z</time></trkpt><trkpt lat="43.2551005" lon="12.2604863"><ele>592.0</ele><time>2026-04-04T15:41:48.032Z</time></trkpt><trkpt lat="43.2551261" lon="12.2603681"><ele>592.0</ele><time>2026-04-04T15:41:49.043Z</time></trkpt><trkpt lat="43.2551232" lon="12.2602298"><ele>592.0</ele><time>2026-04-04T15:41:50.027Z</time></trkpt><trkpt lat="43.2551141" lon="12.2600973"><ele>592.0</ele><time>2026-04-04T15:41:51.026Z</time></trkpt><trkpt lat="43.2551048" lon="12.2599648"><ele>592.0</ele><time>2026-04-04T15:41:52.028Z</time></trkpt><trkpt lat="43.2551019" lon="12.2598412"><ele>592.0</ele><time>2026-04-04T15:41:53.031Z</time></trkpt><trkpt lat="43.2551303" lon="12.2597217"><ele>592.0</ele><time>2026-04-04T15:41:54.036Z</time></trkpt><trkpt lat="43.2551908" lon="12.2596122"><ele>592.0</ele><time>2026-04-04T15:41:55.026Z</time></trkpt><trkpt lat="43.2552538" lon="12.2595153"><ele>592.0</ele><time>2026-04-04T15:41:56.04Z</time></trkpt><trkpt lat="43.2553224" lon="12.2594174"><ele>592.0</ele><time>2026-04-04T15:41:57.028Z</time></trkpt><trkpt lat="43.255398" lon="12.2593282"><ele>592.0</ele><time>2026-04-04T15:41:58.03Z</time></trkpt><trkpt lat="43.2554726" lon="12.2592332"><ele>592.0</ele><time>2026-04-04T15:41:59.039Z</time></trkpt><trkpt lat="43.255547" lon="12.2591472"><ele>592.0</ele><time>2026-04-04T15:42:00.037Z</time></trkpt><trkpt lat="43.2556146" lon="12.2590563"><ele>592.0</ele><time>2026-04-04T15:42:01.037Z</time></trkpt><trkpt lat="43.2556683" lon="12.2589584"><ele>592.0</ele><time>2026-04-04T15:42:02.034Z</time></trkpt><trkpt lat="43.2557044" lon="12.2588413"><ele>592.0</ele><time>2026-04-04T15:42:03.043Z</time></trkpt><trkpt lat="43.2557229" lon="12.2587203"><ele>593.2</ele><time>2026-04-04T15:42:04.028Z</time></trkpt><trkpt lat="43.2557127" lon="12.2585978"><ele>594.4000000000001</ele><time>2026-04-04T15:42:05.026Z</time></trkpt><trkpt lat="43.2556768" lon="12.2584637"><ele>595.5999999999999</ele><time>2026-04-04T15:42:06.028Z</time></trkpt><trkpt lat="43.2556242" lon="12.2583488"><ele>596.8</ele><time>2026-04-04T15:42:07.027Z</time></trkpt><trkpt lat="43.2555683" lon="12.2582493"><ele>598.0</ele><time>2026-04-04T15:42:08.036Z</time></trkpt><trkpt lat="43.2555133" lon="12.2581582"><ele>599.0</ele><time>2026-04-04T15:42:09.039Z</time></trkpt><trkpt lat="43.2554639" lon="12.258074"><ele>600.0</ele><time>2026-04-04T15:42:10.043Z</time></trkpt><trkpt lat="43.2554235" lon="12.2579747"><ele>601.0</ele><time>2026-04-04T15:42:12.053Z</time></trkpt><trkpt lat="43.2554826" lon="12.2579168"><ele>602.0</ele><time>2026-04-04T15:42:15.039Z</time></trkpt><trkpt lat="43.2553983" lon="12.2579092"><ele>603.0</ele><time>2026-04-04T15:43:21.042Z</time></trkpt><trkpt lat="43.2553116" lon="12.2578368"><ele>604.0</ele><time>2026-04-04T15:43:24.026Z</time></trkpt><trkpt lat="43.2552614" lon="12.2577527"><ele>604.0</ele><time>2026-04-04T15:43:25.035Z</time></trkpt><trkpt lat="43.2551936" lon="12.2576349"><ele>604.0</ele><time>2026-04-04T15:43:26.035Z</time></trkpt><trkpt lat="43.2551203" lon="12.257504"><ele>604.0</ele><time>2026-04-04T15:43:27.036Z</time></trkpt><trkpt lat="43.2550465" lon="12.257387"><ele>604.0</ele><time>2026-04-04T15:43:28.047Z</time></trkpt><trkpt lat="43.2549689" lon="12.2572646"><ele>604.0</ele><time>2026-04-04T15:43:29.032Z</time></trkpt><trkpt lat="43.2548794" lon="12.2571244"><ele>604.0</ele><time>2026-04-04T15:43:30.03Z</time></trkpt><trkpt lat="43.2547863" lon="12.2569807"><ele>604.0</ele><time>2026-04-04T15:43:31.03Z</time></trkpt><trkpt lat="43.2546861" lon="12.2568164"><ele>604.0</ele><time>2026-04-04T15:43:32.047Z</time></trkpt><trkpt lat="43.2545908" lon="12.2566543"><ele>604.0</ele><time>2026-04-04T15:43:33.029Z</time></trkpt><trkpt lat="43.2544897" lon="12.2564983"><ele>604.0</ele><time>2026-04-04T15:43:34.029Z</time></trkpt><trkpt lat="43.2543939" lon="12.2563471"><ele>604.0</ele><time>2026-04-04T15:43:35.033Z</time></trkpt><trkpt lat="43.2542966" lon="12.2561929"><ele>604.0</ele><time>2026-04-04T15:43:36.039Z</time></trkpt><trkpt lat="43.2541997" lon="12.2560313"><ele>608.0</ele><time>2026-04-04T15:43:37.033Z</time></trkpt><trkpt lat="43.2541061" lon="12.2558604"><ele>612.0</ele><time>2026-04-04T15:43:38.032Z</time></trkpt><trkpt lat="43.254008" lon="12.2556805"><ele>616.0</ele><time>2026-04-04T15:43:39.038Z</time></trkpt><trkpt lat="43.2539077" lon="12.2555128"><ele>618.6666666666667</ele><time>2026-04-04T15:43:40.039Z</time></trkpt><trkpt lat="43.2537984" lon="12.2553555"><ele>621.3333333333334</ele><time>2026-04-04T15:43:41.039Z</time></trkpt><trkpt lat="43.2536612" lon="12.2552245"><ele>624.0</ele><time>2026-04-04T15:43:42.031Z</time></trkpt><trkpt lat="43.2535059" lon="12.2551279"><ele>624.0</ele><time>2026-04-04T15:43:43.026Z</time></trkpt><trkpt lat="43.2533584" lon="12.25505"><ele>624.0</ele><time>2026-04-04T15:43:44.042Z</time></trkpt><trkpt lat="43.2532243" lon="12.2549894"><ele>624.0</ele><time>2026-04-04T15:43:45.039Z</time></trkpt><trkpt lat="43.2531023" lon="12.2549193"><ele>624.0</ele><time>2026-04-04T15:43:46.039Z</time></trkpt><trkpt lat="43.2529818" lon="12.2548091"><ele>626.25</ele><time>2026-04-04T15:43:47.049Z</time></trkpt><trkpt lat="43.2528762" lon="12.2546555"><ele>628.5</ele><time>2026-04-04T15:43:48.035Z</time></trkpt><trkpt lat="43.2527756" lon="12.2545068"><ele>630.75</ele><time>2026-04-04T15:43:49.032Z</time></trkpt><trkpt lat="43.2526816" lon="12.2543575"><ele>633.0</ele><time>2026-04-04T15:43:50.033Z</time></trkpt><trkpt lat="43.2525942" lon="12.2542145"><ele>633.0</ele><time>2026-04-04T15:43:51.038Z</time></trkpt><trkpt lat="43.2525105" lon="12.2540636"><ele>633.0</ele><time>2026-04-04T15:43:52.04Z</time></trkpt><trkpt lat="43.2524208" lon="12.2539051"><ele>633.0</ele><time>2026-04-04T15:43:53.034Z</time></trkpt><trkpt lat="43.2523128" lon="12.2537555"><ele>633.0</ele><time>2026-04-04T15:43:54.036Z</time></trkpt><trkpt lat="43.2521797" lon="12.2536552"><ele>633.0</ele><time>2026-04-04T15:43:55.032Z</time></trkpt><trkpt lat="43.2520424" lon="12.2536047"><ele>633.0</ele><time>2026-04-04T15:43:56.024Z</time></trkpt><trkpt lat="43.2519234" lon="12.2535721"><ele>633.0</ele><time>2026-04-04T15:43:57.036Z</time></trkpt><trkpt lat="43.2518178" lon="12.2534958"><ele>633.0</ele><time>2026-04-04T15:43:58.038Z</time></trkpt><trkpt lat="43.25174" lon="12.253362"><ele>633.0</ele><time>2026-04-04T15:43:59.032Z</time></trkpt><trkpt lat="43.2516798" lon="12.2531924"><ele>633.0</ele><time>2026-04-04T15:44:00.033Z</time></trkpt><trkpt lat="43.2516293" lon="12.2530057"><ele>633.0</ele><time>2026-04-04T15:44:01.03Z</time></trkpt><trkpt lat="43.2515715" lon="12.2528313"><ele>633.0</ele><time>2026-04-04T15:44:02.037Z</time></trkpt><trkpt lat="43.2514946" lon="12.2526693"><ele>632.25</ele><time>2026-04-04T15:44:03.031Z</time></trkpt><trkpt lat="43.2514061" lon="12.2525317"><ele>631.5</ele><time>2026-04-04T15:44:04.034Z</time></trkpt><trkpt lat="43.251332" lon="12.2523951"><ele>630.75</ele><time>2026-04-04T15:44:05.028Z</time></trkpt><trkpt lat="43.2512822" lon="12.2522399"><ele>630.0</ele><time>2026-04-04T15:44:06.038Z</time></trkpt><trkpt lat="43.2512473" lon="12.2520687"><ele>630.0</ele><time>2026-04-04T15:44:07.036Z</time></trkpt><trkpt lat="43.2512597" lon="12.2519043"><ele>630.0</ele><time>2026-04-04T15:44:08.036Z</time></trkpt><trkpt lat="43.2513017" lon="12.2517609"><ele>630.0</ele><time>2026-04-04T15:44:09.021Z</time></trkpt><trkpt lat="43.2513524" lon="12.2516284"><ele>630.0</ele><time>2026-04-04T15:44:10.03Z</time></trkpt><trkpt lat="43.2513872" lon="12.2515025"><ele>630.0</ele><time>2026-04-04T15:44:11.027Z</time></trkpt><trkpt lat="43.2513726" lon="12.2513665"><ele>632.25</ele><time>2026-04-04T15:44:12.031Z</time></trkpt><trkpt lat="43.2513329" lon="12.2512076"><ele>634.5</ele><time>2026-04-04T15:44:13.02Z</time></trkpt><trkpt lat="43.2512586" lon="12.2510644"><ele>636.75</ele><time>2026-04-04T15:44:14.029Z</time></trkpt><trkpt lat="43.2511587" lon="12.2509287"><ele>639.0</ele><time>2026-04-04T15:44:15.035Z</time></trkpt><trkpt lat="43.2510577" lon="12.25078"><ele>639.0</ele><time>2026-04-04T15:44:16.036Z</time></trkpt><trkpt lat="43.2509591" lon="12.2506295"><ele>639.0</ele><time>2026-04-04T15:44:17.04Z</time></trkpt><trkpt lat="43.2508651" lon="12.2504792"><ele>639.0</ele><time>2026-04-04T15:44:18.038Z</time></trkpt><trkpt lat="43.2507733" lon="12.2503446"><ele>639.0</ele><time>2026-04-04T15:44:19.031Z</time></trkpt><trkpt lat="43.2506518" lon="12.2502594"><ele>644.0</ele><time>2026-04-04T15:44:20.038Z</time></trkpt><trkpt lat="43.2505017" lon="12.2502045"><ele>649.0</ele><time>2026-04-04T15:44:21.023Z</time></trkpt><trkpt lat="43.2503269" lon="12.2501611"><ele>654.0</ele><time>2026-04-04T15:44:22.031Z</time></trkpt><trkpt lat="43.2501637" lon="12.2501149"><ele>654.0</ele><time>2026-04-04T15:44:23.02Z</time></trkpt><trkpt lat="43.2500159" lon="12.2500767"><ele>654.0</ele><time>2026-04-04T15:44:24.034Z</time></trkpt><trkpt lat="43.2498885" lon="12.2500511"><ele>654.0</ele><time>2026-04-04T15:44:25.03Z</time></trkpt><trkpt lat="43.2497635" lon="12.2499921"><ele>654.0</ele><time>2026-04-04T15:44:26.03Z</time></trkpt><trkpt lat="43.2496464" lon="12.2498923"><ele>656.6666666666666</ele><time>2026-04-04T15:44:27.023Z</time></trkpt><trkpt lat="43.2495425" lon="12.2497471"><ele>659.3333333333333</ele><time>2026-04-04T15:44:28.028Z</time></trkpt><trkpt lat="43.2494526" lon="12.2495658"><ele>662.0</ele><time>2026-04-04T15:44:29.03Z</time></trkpt><trkpt lat="43.2493639" lon="12.2493698"><ele>662.0</ele><time>2026-04-04T15:44:30.029Z</time></trkpt><trkpt lat="43.2492552" lon="12.249197"><ele>662.0</ele><time>2026-04-04T15:44:31.031Z</time></trkpt><trkpt lat="43.2491112" lon="12.2490458"><ele>662.0</ele><time>2026-04-04T15:44:32.03Z</time></trkpt><trkpt lat="43.2489703" lon="12.2489015"><ele>659.6666666666666</ele><time>2026-04-04T15:44:33.035Z</time></trkpt><trkpt lat="43.2488247" lon="12.2487658"><ele>657.3333333333334</ele><time>2026-04-04T15:44:34.031Z</time></trkpt><trkpt lat="43.2486864" lon="12.2486241"><ele>655.0</ele><time>2026-04-04T15:44:35.041Z</time></trkpt><trkpt lat="43.248564" lon="12.2485025"><ele>655.0</ele><time>2026-04-04T15:44:36.024Z</time></trkpt><trkpt lat="43.2484625" lon="12.2483742"><ele>655.0</ele><time>2026-04-04T15:44:37.027Z</time></trkpt><trkpt lat="43.2483764" lon="12.2482412"><ele>655.0</ele><time>2026-04-04T15:44:38.03Z</time></trkpt><trkpt lat="43.2483111" lon="12.2480921"><ele>655.0</ele><time>2026-04-04T15:44:39.026Z</time></trkpt><trkpt lat="43.2482684" lon="12.2479224"><ele>657.25</ele><time>2026-04-04T15:44:40.043Z</time></trkpt><trkpt lat="43.2482477" lon="12.2477285"><ele>659.5</ele><time>2026-04-04T15:44:41.03Z</time></trkpt><trkpt lat="43.2482295" lon="12.2475314"><ele>661.75</ele><time>2026-04-04T15:44:42.035Z</time></trkpt><trkpt lat="43.2482118" lon="12.2473477"><ele>664.0</ele><time>2026-04-04T15:44:43.028Z</time></trkpt><trkpt lat="43.2481922" lon="12.2471766"><ele>666.75</ele><time>2026-04-04T15:44:44.029Z</time></trkpt><trkpt lat="43.2481733" lon="12.2470064"><ele>669.5</ele><time>2026-04-04T15:44:45.024Z</time></trkpt><trkpt lat="43.2481537" lon="12.2468336"><ele>672.25</ele><time>2026-04-04T15:44:46.03Z</time></trkpt><trkpt lat="43.2481426" lon="12.2466634"><ele>675.0</ele><time>2026-04-04T15:44:47.033Z</time></trkpt><trkpt lat="43.2481201" lon="12.2464961"><ele>675.75</ele><time>2026-04-04T15:44:48.031Z</time></trkpt><trkpt lat="43.2480713" lon="12.246337"><ele>676.5</ele><time>2026-04-04T15:44:49.032Z</time></trkpt><trkpt lat="43.2479883" lon="12.2461969"><ele>677.25</ele><time>2026-04-04T15:44:50.041Z</time></trkpt><trkpt lat="43.2478735" lon="12.246088"><ele>678.0</ele><time>2026-04-04T15:44:51.021Z</time></trkpt><trkpt lat="43.2477369" lon="12.2459923"><ele>678.0</ele><time>2026-04-04T15:44:52.025Z</time></trkpt><trkpt lat="43.2476046" lon="12.2458962"><ele>678.0</ele><time>2026-04-04T15:44:53.026Z</time></trkpt><trkpt lat="43.2474661" lon="12.2458155"><ele>678.0</ele><time>2026-04-04T15:44:54.036Z</time></trkpt><trkpt lat="43.2473276" lon="12.245763"><ele>678.0</ele><time>2026-04-04T15:44:55.025Z</time></trkpt><trkpt lat="43.247192" lon="12.2457593"><ele>676.75</ele><time>2026-04-04T15:44:56.029Z</time></trkpt><trkpt lat="43.2470459" lon="12.245808"><ele>675.5</ele><time>2026-04-04T15:44:57.034Z</time></trkpt><trkpt lat="43.2469143" lon="12.2458761"><ele>674.25</ele><time>2026-04-04T15:44:58.037Z</time></trkpt><trkpt lat="43.2467949" lon="12.2459397"><ele>673.0</ele><time>2026-04-04T15:44:59.025Z</time></trkpt><trkpt lat="43.246687" lon="12.2459606"><ele>673.0</ele><time>2026-04-04T15:45:00.038Z</time></trkpt><trkpt lat="43.2465729" lon="12.2459415"><ele>673.0</ele><time>2026-04-04T15:45:01.026Z</time></trkpt><trkpt lat="43.2464774" lon="12.2458625"><ele>673.0</ele><time>2026-04-04T15:45:02.022Z</time></trkpt><trkpt lat="43.246388" lon="12.2457477"><ele>673.0</ele><time>2026-04-04T15:45:03.036Z</time></trkpt><trkpt lat="43.246294" lon="12.2456125"><ele>675.75</ele><time>2026-04-04T15:45:04.038Z</time></trkpt><trkpt lat="43.2461782" lon="12.2454874"><ele>678.5</ele><time>2026-04-04T15:45:05.024Z</time></trkpt><trkpt lat="43.2460382" lon="12.2453956"><ele>681.25</ele><time>2026-04-04T15:45:06.031Z</time></trkpt><trkpt lat="43.2459117" lon="12.2453353"><ele>684.0</ele><time>2026-04-04T15:45:07.032Z</time></trkpt><trkpt lat="43.2457934" lon="12.2452566"><ele>684.0</ele><time>2026-04-04T15:45:08.039Z</time></trkpt><trkpt lat="43.2456993" lon="12.2451212"><ele>684.0</ele><time>2026-04-04T15:45:09.029Z</time></trkpt><trkpt lat="43.2456235" lon="12.2449564"><ele>684.0</ele><time>2026-04-04T15:45:10.03Z</time></trkpt><trkpt lat="43.245539" lon="12.2447898"><ele>684.0</ele><time>2026-04-04T15:45:11.034Z</time></trkpt><trkpt lat="43.2454512" lon="12.2446281"><ele>686.25</ele><time>2026-04-04T15:45:12.036Z</time></trkpt><trkpt lat="43.2453753" lon="12.2444723"><ele>688.5</ele><time>2026-04-04T15:45:13.037Z</time></trkpt><trkpt lat="43.2452891" lon="12.2443391"><ele>690.75</ele><time>2026-04-04T15:45:14.042Z</time></trkpt><trkpt lat="43.2451781" lon="12.2442381"><ele>693.0</ele><time>2026-04-04T15:45:15.039Z</time></trkpt><trkpt lat="43.2450553" lon="12.2441847"><ele>693.0</ele><time>2026-04-04T15:45:16.026Z</time></trkpt><trkpt lat="43.2449318" lon="12.2441808"><ele>693.0</ele><time>2026-04-04T15:45:17.029Z</time></trkpt><trkpt lat="43.2448037" lon="12.2442467"><ele>693.0</ele><time>2026-04-04T15:45:18.047Z</time></trkpt><trkpt lat="43.2446793" lon="12.2443555"><ele>693.0</ele><time>2026-04-04T15:45:19.03Z</time></trkpt><trkpt lat="43.244562" lon="12.2444972"><ele>694.75</ele><time>2026-04-04T15:45:20.023Z</time></trkpt><trkpt lat="43.2444453" lon="12.2446265"><ele>696.5</ele><time>2026-04-04T15:45:21.03Z</time></trkpt><trkpt lat="43.2443478" lon="12.2447307"><ele>698.25</ele><time>2026-04-04T15:45:22.044Z</time></trkpt><trkpt lat="43.2442461" lon="12.2447898"><ele>700.0</ele><time>2026-04-04T15:45:23.043Z</time></trkpt><trkpt lat="43.244126" lon="12.2447957"><ele>700.0</ele><time>2026-04-04T15:45:24.03Z</time></trkpt><trkpt lat="43.2439986" lon="12.2447534"><ele>700.0</ele><time>2026-04-04T15:45:25.029Z</time></trkpt><trkpt lat="43.2438678" lon="12.2446711"><ele>700.0</ele><time>2026-04-04T15:45:26.041Z</time></trkpt><trkpt lat="43.243728" lon="12.2445521"><ele>700.0</ele><time>2026-04-04T15:45:27.031Z</time></trkpt><trkpt lat="43.2436026" lon="12.2444298"><ele>701.0</ele><time>2026-04-04T15:45:28.03Z</time></trkpt><trkpt lat="43.243493" lon="12.2442796"><ele>702.0</ele><time>2026-04-04T15:45:29.032Z</time></trkpt><trkpt lat="43.2434103" lon="12.2440793"><ele>703.0</ele><time>2026-04-04T15:45:30.043Z</time></trkpt><trkpt lat="43.2433458" lon="12.2438433"><ele>703.0</ele><time>2026-04-04T15:45:31.029Z</time></trkpt><trkpt lat="43.2432786" lon="12.2435975"><ele>703.0</ele><time>2026-04-04T15:45:32.028Z</time></trkpt><trkpt lat="43.2432012" lon="12.2433929"><ele>703.0</ele><time>2026-04-04T15:45:33.04Z</time></trkpt><trkpt lat="43.2431256" lon="12.2432249"><ele>703.75</ele><time>2026-04-04T15:45:34.04Z</time></trkpt><trkpt lat="43.2430289" lon="12.2430918"><ele>704.5</ele><time>2026-04-04T15:45:35.036Z</time></trkpt><trkpt lat="43.2429027" lon="12.2429902"><ele>705.25</ele><time>2026-04-04T15:45:36.041Z</time></trkpt><trkpt lat="43.2427418" lon="12.2429498"><ele>706.0</ele><time>2026-04-04T15:45:37.03Z</time></trkpt><trkpt lat="43.2425867" lon="12.2429171"><ele>706.0</ele><time>2026-04-04T15:45:38.035Z</time></trkpt><trkpt lat="43.2424404" lon="12.2428646"><ele>706.0</ele><time>2026-04-04T15:45:39.032Z</time></trkpt><trkpt lat="43.2422928" lon="12.2427566"><ele>706.0</ele><time>2026-04-04T15:45:40.027Z</time></trkpt><trkpt lat="43.2421453" lon="12.2426291"><ele>706.25</ele><time>2026-04-04T15:45:41.031Z</time></trkpt><trkpt lat="43.2420155" lon="12.2424878"><ele>706.5</ele><time>2026-04-04T15:45:42.037Z</time></trkpt><trkpt lat="43.2419008" lon="12.2423656"><ele>706.75</ele><time>2026-04-04T15:45:43.031Z</time></trkpt><trkpt lat="43.241776" lon="12.2422981"><ele>707.0</ele><time>2026-04-04T15:45:44.042Z</time></trkpt><trkpt lat="43.2416164" lon="12.2422796"><ele>705.0</ele><time>2026-04-04T15:45:45.035Z</time></trkpt><trkpt lat="43.2414525" lon="12.2423106"><ele>703.0</ele><time>2026-04-04T15:45:46.035Z</time></trkpt><trkpt lat="43.2413188" lon="12.2423668"><ele>701.0</ele><time>2026-04-04T15:45:47.036Z</time></trkpt><trkpt lat="43.2412087" lon="12.2424252"><ele>699.0</ele><time>2026-04-04T15:45:48.044Z</time></trkpt><trkpt lat="43.2410927" lon="12.2424509"><ele>699.0</ele><time>2026-04-04T15:45:49.028Z</time></trkpt><trkpt lat="43.2409843" lon="12.2424529"><ele>699.0</ele><time>2026-04-04T15:45:50.031Z</time></trkpt><trkpt lat="43.2408762" lon="12.2424309"><ele>699.0</ele><time>2026-04-04T15:45:51.027Z</time></trkpt><trkpt lat="43.2407624" lon="12.2423986"><ele>699.0</ele><time>2026-04-04T15:45:52.044Z</time></trkpt><trkpt lat="43.2406623" lon="12.2423592"><ele>699.0</ele><time>2026-04-04T15:45:53.039Z</time></trkpt><trkpt lat="43.2405812" lon="12.242331"><ele>698.0</ele><time>2026-04-04T15:45:54.045Z</time></trkpt><trkpt lat="43.2405247" lon="12.2422922"><ele>697.0</ele><time>2026-04-04T15:45:55.038Z</time></trkpt><trkpt lat="43.2404421" lon="12.2421645"><ele>696.0</ele><time>2026-04-04T15:45:57.035Z</time></trkpt><trkpt lat="43.2404154" lon="12.2420698"><ele>695.0</ele><time>2026-04-04T15:45:58.031Z</time></trkpt><trkpt lat="43.2404116" lon="12.2419618"><ele>694.0</ele><time>2026-04-04T15:45:59.036Z</time></trkpt><trkpt lat="43.2404161" lon="12.2418505"><ele>693.0</ele><time>2026-04-04T15:46:00.031Z</time></trkpt><trkpt lat="43.2404279" lon="12.241737"><ele>693.0</ele><time>2026-04-04T15:46:01.048Z</time></trkpt><trkpt lat="43.2404521" lon="12.2416125"><ele>693.0</ele><time>2026-04-04T15:46:02.031Z</time></trkpt><trkpt lat="43.2404868" lon="12.2414823"><ele>693.0</ele><time>2026-04-04T15:46:03.035Z</time></trkpt><trkpt lat="43.2405225" lon="12.2413514"><ele>693.0</ele><time>2026-04-04T15:46:04.033Z</time></trkpt><trkpt lat="43.2405617" lon="12.2412172"><ele>693.0</ele><time>2026-04-04T15:46:05.033Z</time></trkpt><trkpt lat="43.2406055" lon="12.2410828"><ele>693.2</ele><time>2026-04-04T15:46:06.044Z</time></trkpt><trkpt lat="43.2406446" lon="12.2409346"><ele>693.4</ele><time>2026-04-04T15:46:07.037Z</time></trkpt><trkpt lat="43.2406783" lon="12.2407876"><ele>693.6</ele><time>2026-04-04T15:46:08.036Z</time></trkpt><trkpt lat="43.240712" lon="12.2406498"><ele>693.8000000000001</ele><time>2026-04-04T15:46:09.038Z</time></trkpt><trkpt lat="43.240748" lon="12.2405184"><ele>694.0</ele><time>2026-04-04T15:46:10.033Z</time></trkpt><trkpt lat="43.2407821" lon="12.2403935"><ele>691.0</ele><time>2026-04-04T15:46:11.034Z</time></trkpt><trkpt lat="43.2408188" lon="12.2402704"><ele>688.0</ele><time>2026-04-04T15:46:12.035Z</time></trkpt><trkpt lat="43.2408689" lon="12.2401523"><ele>685.0</ele><time>2026-04-04T15:46:13.038Z</time></trkpt><trkpt lat="43.2409442" lon="12.2400442"><ele>682.0</ele><time>2026-04-04T15:46:14.037Z</time></trkpt><trkpt lat="43.2410337" lon="12.2399512"><ele>679.0</ele><time>2026-04-04T15:46:15.039Z</time></trkpt><trkpt lat="43.2411321" lon="12.2398664"><ele>678.5</ele><time>2026-04-04T15:46:16.035Z</time></trkpt><trkpt lat="43.2412343" lon="12.239787"><ele>678.0</ele><time>2026-04-04T15:46:17.032Z</time></trkpt><trkpt lat="43.2413397" lon="12.2397011"><ele>677.5</ele><time>2026-04-04T15:46:18.044Z</time></trkpt><trkpt lat="43.2414497" lon="12.2396112"><ele>677.0</ele><time>2026-04-04T15:46:19.025Z</time></trkpt><trkpt lat="43.2415614" lon="12.2395219"><ele>677.0</ele><time>2026-04-04T15:46:20.036Z</time></trkpt><trkpt lat="43.2416678" lon="12.2394339"><ele>677.0</ele><time>2026-04-04T15:46:21.039Z</time></trkpt><trkpt lat="43.2417702" lon="12.2393421"><ele>677.0</ele><time>2026-04-04T15:46:22.034Z</time></trkpt><trkpt lat="43.2418681" lon="12.23925"><ele>677.0</ele><time>2026-04-04T15:46:23.037Z</time></trkpt><trkpt lat="43.2419677" lon="12.2391665"><ele>677.0</ele><time>2026-04-04T15:46:24.039Z</time></trkpt><trkpt lat="43.2420662" lon="12.2391059"><ele>677.0</ele><time>2026-04-04T15:46:25.029Z</time></trkpt><trkpt lat="43.2421816" lon="12.239077"><ele>677.0</ele><time>2026-04-04T15:46:26.042Z</time></trkpt><trkpt lat="43.2423075" lon="12.2390859"><ele>677.0</ele><time>2026-04-04T15:46:27.034Z</time></trkpt><trkpt lat="43.242432" lon="12.2391295"><ele>677.0</ele><time>2026-04-04T15:46:28.036Z</time></trkpt><trkpt lat="43.2425564" lon="12.2391901"><ele>677.0</ele><time>2026-04-04T15:46:29.03Z</time></trkpt><trkpt lat="43.2426854" lon="12.2392568"><ele>677.0</ele><time>2026-04-04T15:46:30.033Z</time></trkpt><trkpt lat="43.242819" lon="12.2393097"><ele>677.0</ele><time>2026-04-04T15:46:31.042Z</time></trkpt><trkpt lat="43.2429585" lon="12.2393387"><ele>677.0</ele><time>2026-04-04T15:46:32.042Z</time></trkpt><trkpt lat="43.2431064" lon="12.239325"><ele>677.0</ele><time>2026-04-04T15:46:33.036Z</time></trkpt><trkpt lat="43.2432597" lon="12.2392932"><ele>677.0</ele><time>2026-04-04T15:46:34.04Z</time></trkpt><trkpt lat="43.2434137" lon="12.239261"><ele>675.0</ele><time>2026-04-04T15:46:35.031Z</time></trkpt><trkpt lat="43.2435582" lon="12.2392399"><ele>673.0</ele><time>2026-04-04T15:46:36.035Z</time></trkpt><trkpt lat="43.2436962" lon="12.2392219"><ele>671.0</ele><time>2026-04-04T15:46:37.05Z</time></trkpt><trkpt lat="43.2438366" lon="12.2392027"><ele>669.0</ele><time>2026-04-04T15:46:38.036Z</time></trkpt><trkpt lat="43.2439697" lon="12.239182"><ele>668.0</ele><time>2026-04-04T15:46:39.035Z</time></trkpt><trkpt lat="43.2440913" lon="12.2391747"><ele>667.0</ele><time>2026-04-04T15:46:40.034Z</time></trkpt><trkpt lat="43.2441976" lon="12.2391963"><ele>666.0</ele><time>2026-04-04T15:46:41.04Z</time></trkpt><trkpt lat="43.2442891" lon="12.2392581"><ele>665.0</ele><time>2026-04-04T15:46:42.036Z</time></trkpt><trkpt lat="43.2443737" lon="12.2393435"><ele>664.0</ele><time>2026-04-04T15:46:43.034Z</time></trkpt><trkpt lat="43.2444501" lon="12.2394252"><ele>664.0</ele><time>2026-04-04T15:46:44.033Z</time></trkpt><trkpt lat="43.2445407" lon="12.2394781"><ele>664.0</ele><time>2026-04-04T15:46:45.042Z</time></trkpt><trkpt lat="43.2446438" lon="12.2394809"><ele>664.0</ele><time>2026-04-04T15:46:46.027Z</time></trkpt><trkpt lat="43.2447498" lon="12.2394227"><ele>664.0</ele><time>2026-04-04T15:46:47.036Z</time></trkpt><trkpt lat="43.2448311" lon="12.2393169"><ele>664.0</ele><time>2026-04-04T15:46:48.032Z</time></trkpt><trkpt lat="43.2449029" lon="12.2391928"><ele>662.75</ele><time>2026-04-04T15:46:49.036Z</time></trkpt><trkpt lat="43.244975" lon="12.2390849"><ele>661.5</ele><time>2026-04-04T15:46:50.034Z</time></trkpt><trkpt lat="43.2450645" lon="12.2390076"><ele>660.25</ele><time>2026-04-04T15:46:51.036Z</time></trkpt><trkpt lat="43.2451775" lon="12.2389836"><ele>659.0</ele><time>2026-04-04T15:46:52.033Z</time></trkpt><trkpt lat="43.2453003" lon="12.2389728"><ele>658.0</ele><time>2026-04-04T15:46:53.036Z</time></trkpt><trkpt lat="43.2454178" lon="12.2389478"><ele>657.0</ele><time>2026-04-04T15:46:54.037Z</time></trkpt><trkpt lat="43.2455263" lon="12.2389491"><ele>656.0</ele><time>2026-04-04T15:46:55.036Z</time></trkpt><trkpt lat="43.245636" lon="12.2389877"><ele>655.0</ele><time>2026-04-04T15:46:56.045Z</time></trkpt><trkpt lat="43.2457343" lon="12.2390626"><ele>655.0</ele><time>2026-04-04T15:46:57.035Z</time></trkpt><trkpt lat="43.2458337" lon="12.2391539"><ele>655.0</ele><time>2026-04-04T15:46:58.03Z</time></trkpt><trkpt lat="43.2459222" lon="12.239218"><ele>655.0</ele><time>2026-04-04T15:46:59.041Z</time></trkpt><trkpt lat="43.2460199" lon="12.2392496"><ele>655.0</ele><time>2026-04-04T15:47:00.035Z</time></trkpt><trkpt lat="43.2461179" lon="12.2392194"><ele>655.0</ele><time>2026-04-04T15:47:01.031Z</time></trkpt><trkpt lat="43.2462092" lon="12.2391269"><ele>655.0</ele><time>2026-04-04T15:47:02.04Z</time></trkpt><trkpt lat="43.2462885" lon="12.2389836"><ele>655.0</ele><time>2026-04-04T15:47:03.034Z</time></trkpt><trkpt lat="43.2463627" lon="12.2388168"><ele>655.0</ele><time>2026-04-04T15:47:04.029Z</time></trkpt><trkpt lat="43.2464301" lon="12.2386369"><ele>655.0</ele><time>2026-04-04T15:47:05.033Z</time></trkpt><trkpt lat="43.2465093" lon="12.2384716"><ele>652.25</ele><time>2026-04-04T15:47:06.03Z</time></trkpt><trkpt lat="43.2466096" lon="12.2383239"><ele>649.5</ele><time>2026-04-04T15:47:07.041Z</time></trkpt><trkpt lat="43.2467107" lon="12.2381741"><ele>646.75</ele><time>2026-04-04T15:47:08.031Z</time></trkpt><trkpt lat="43.2468021" lon="12.2380251"><ele>644.0</ele><time>2026-04-04T15:47:09.039Z</time></trkpt><trkpt lat="43.2468939" lon="12.2378837"><ele>640.25</ele><time>2026-04-04T15:47:10.036Z</time></trkpt><trkpt lat="43.2469741" lon="12.2377322"><ele>636.5</ele><time>2026-04-04T15:47:11.044Z</time></trkpt><trkpt lat="43.2470506" lon="12.2375756"><ele>632.75</ele><time>2026-04-04T15:47:12.032Z</time></trkpt><trkpt lat="43.2471269" lon="12.2374175"><ele>629.0</ele><time>2026-04-04T15:47:13.036Z</time></trkpt><trkpt lat="43.2471944" lon="12.2372645"><ele>630.75</ele><time>2026-04-04T15:47:14.039Z</time></trkpt><trkpt lat="43.2472608" lon="12.2371128"><ele>632.5</ele><time>2026-04-04T15:47:15.035Z</time></trkpt><trkpt lat="43.2473249" lon="12.2369599"><ele>634.25</ele><time>2026-04-04T15:47:16.042Z</time></trkpt><trkpt lat="43.247386" lon="12.2368014"><ele>636.0</ele><time>2026-04-04T15:47:17.044Z</time></trkpt><trkpt lat="43.2474387" lon="12.2366395"><ele>636.0</ele><time>2026-04-04T15:47:18.036Z</time></trkpt><trkpt lat="43.2474748" lon="12.2364724"><ele>636.0</ele><time>2026-04-04T15:47:19.041Z</time></trkpt><trkpt lat="43.2475004" lon="12.2362957"><ele>636.0</ele><time>2026-04-04T15:47:20.039Z</time></trkpt><trkpt lat="43.2475199" lon="12.2361304"><ele>636.0</ele><time>2026-04-04T15:47:21.04Z</time></trkpt><trkpt lat="43.2475459" lon="12.2359892"><ele>634.2</ele><time>2026-04-04T15:47:22.036Z</time></trkpt><trkpt lat="43.2475737" lon="12.2358578"><ele>632.4000000000001</ele><time>2026-04-04T15:47:23.034Z</time></trkpt><trkpt lat="43.2476313" lon="12.2357409"><ele>630.6</ele><time>2026-04-04T15:47:24.035Z</time></trkpt><trkpt lat="43.2477132" lon="12.2356267"><ele>628.8000000000001</ele><time>2026-04-04T15:47:25.036Z</time></trkpt><trkpt lat="43.2477892" lon="12.2355013"><ele>627.0</ele><time>2026-04-04T15:47:26.044Z</time></trkpt><trkpt lat="43.2478406" lon="12.2353795"><ele>626.0</ele><time>2026-04-04T15:47:27.034Z</time></trkpt><trkpt lat="43.2478632" lon="12.2352396"><ele>625.0</ele><time>2026-04-04T15:47:28.039Z</time></trkpt><trkpt lat="43.2478449" lon="12.2351107"><ele>624.0</ele><time>2026-04-04T15:47:29.031Z</time></trkpt><trkpt lat="43.2477901" lon="12.2349892"><ele>623.0</ele><time>2026-04-04T15:47:30.033Z</time></trkpt><trkpt lat="43.247705" lon="12.2349082"><ele>622.0</ele><time>2026-04-04T15:47:31.035Z</time></trkpt><trkpt lat="43.247598" lon="12.2348595"><ele>622.0</ele><time>2026-04-04T15:47:32.026Z</time></trkpt><trkpt lat="43.2474881" lon="12.2348136"><ele>622.0</ele><time>2026-04-04T15:47:33.042Z</time></trkpt><trkpt lat="43.2473826" lon="12.2347413"><ele>622.0</ele><time>2026-04-04T15:47:34.035Z</time></trkpt><trkpt lat="43.2472912" lon="12.2346402"><ele>622.0</ele><time>2026-04-04T15:47:35.027Z</time></trkpt><trkpt lat="43.2472149" lon="12.2345087"><ele>617.75</ele><time>2026-04-04T15:47:36.021Z</time></trkpt><trkpt lat="43.2471407" lon="12.234367"><ele>613.5</ele><time>2026-04-04T15:47:37.024Z</time></trkpt><trkpt lat="43.2470745" lon="12.2342356"><ele>609.25</ele><time>2026-04-04T15:47:38.029Z</time></trkpt><trkpt lat="43.2470222" lon="12.2341011"><ele>605.0</ele><time>2026-04-04T15:47:39.031Z</time></trkpt><trkpt lat="43.2469879" lon="12.2339331"><ele>605.0</ele><time>2026-04-04T15:47:40.04Z</time></trkpt><trkpt lat="43.2469681" lon="12.2337412"><ele>605.0</ele><time>2026-04-04T15:47:41.031Z</time></trkpt><trkpt lat="43.2469501" lon="12.2335474"><ele>605.0</ele><time>2026-04-04T15:47:42.034Z</time></trkpt><trkpt lat="43.2469028" lon="12.2333324"><ele>605.0</ele><time>2026-04-04T15:47:43.031Z</time></trkpt><trkpt lat="43.2468425" lon="12.2331187"><ele>606.75</ele><time>2026-04-04T15:47:44.038Z</time></trkpt><trkpt lat="43.2467889" lon="12.2329299"><ele>608.5</ele><time>2026-04-04T15:47:45.035Z</time></trkpt><trkpt lat="43.2467334" lon="12.2327519"><ele>610.25</ele><time>2026-04-04T15:47:46.03Z</time></trkpt><trkpt lat="43.2466768" lon="12.2325767"><ele>612.0</ele><time>2026-04-04T15:47:47.038Z</time></trkpt><trkpt lat="43.2466184" lon="12.2324083"><ele>613.0</ele><time>2026-04-04T15:47:48.024Z</time></trkpt><trkpt lat="43.246559" lon="12.2322416"><ele>614.0</ele><time>2026-04-04T15:47:49.039Z</time></trkpt><trkpt lat="43.2465014" lon="12.2320804"><ele>615.0</ele><time>2026-04-04T15:47:50.028Z</time></trkpt><trkpt lat="43.2464504" lon="12.2319161"><ele>616.0</ele><time>2026-04-04T15:47:51.02Z</time></trkpt><trkpt lat="43.2463974" lon="12.2317594"><ele>611.5</ele><time>2026-04-04T15:47:52.038Z</time></trkpt><trkpt lat="43.2463419" lon="12.2316015"><ele>607.0</ele><time>2026-04-04T15:47:53.054Z</time></trkpt><trkpt lat="43.246272" lon="12.2314537"><ele>602.5</ele><time>2026-04-04T15:47:54.035Z</time></trkpt><trkpt lat="43.246188" lon="12.2313132"><ele>598.0</ele><time>2026-04-04T15:47:55.046Z</time></trkpt><trkpt lat="43.2460942" lon="12.2311824"><ele>598.0</ele><time>2026-04-04T15:47:56.031Z</time></trkpt><trkpt lat="43.245991" lon="12.2310693"><ele>598.0</ele><time>2026-04-04T15:47:57.049Z</time></trkpt><trkpt lat="43.2458835" lon="12.2309601"><ele>598.0</ele><time>2026-04-04T15:47:58.031Z</time></trkpt><trkpt lat="43.2457731" lon="12.2308496"><ele>598.0</ele><time>2026-04-04T15:47:59.036Z</time></trkpt><trkpt lat="43.2456664" lon="12.2307404"><ele>595.75</ele><time>2026-04-04T15:48:00.05Z</time></trkpt><trkpt lat="43.2455621" lon="12.2306279"><ele>593.5</ele><time>2026-04-04T15:48:01.036Z</time></trkpt><trkpt lat="43.2454533" lon="12.2305114"><ele>591.25</ele><time>2026-04-04T15:48:02.038Z</time></trkpt><trkpt lat="43.2453456" lon="12.2303992"><ele>589.0</ele><time>2026-04-04T15:48:03.037Z</time></trkpt><trkpt lat="43.2452401" lon="12.2302822"><ele>589.0</ele><time>2026-04-04T15:48:04.036Z</time></trkpt><trkpt lat="43.2451367" lon="12.2301679"><ele>589.0</ele><time>2026-04-04T15:48:05.031Z</time></trkpt><trkpt lat="43.2450311" lon="12.2300565"><ele>589.0</ele><time>2026-04-04T15:48:06.029Z</time></trkpt><trkpt lat="43.2449238" lon="12.2299498"><ele>589.0</ele><time>2026-04-04T15:48:07.031Z</time></trkpt><trkpt lat="43.2448214" lon="12.2298445"><ele>586.25</ele><time>2026-04-04T15:48:08.037Z</time></trkpt><trkpt lat="43.2447227" lon="12.2297347"><ele>583.5</ele><time>2026-04-04T15:48:09.04Z</time></trkpt><trkpt lat="43.2446205" lon="12.2296287"><ele>580.75</ele><time>2026-04-04T15:48:10.034Z</time></trkpt><trkpt lat="43.2445182" lon="12.2295261"><ele>578.0</ele><time>2026-04-04T15:48:11.044Z</time></trkpt><trkpt lat="43.2444144" lon="12.2294193"><ele>578.0</ele><time>2026-04-04T15:48:12.042Z</time></trkpt><trkpt lat="43.2443157" lon="12.2293072"><ele>578.0</ele><time>2026-04-04T15:48:13.037Z</time></trkpt><trkpt lat="43.2442348" lon="12.2291915"><ele>578.0</ele><time>2026-04-04T15:48:14.052Z</time></trkpt><trkpt lat="43.2442056" lon="12.2290624"><ele>578.0</ele><time>2026-04-04T15:48:15.038Z</time></trkpt><trkpt lat="43.2442199" lon="12.2288973"><ele>577.0</ele><time>2026-04-04T15:48:16.04Z</time></trkpt><trkpt lat="43.2442595" lon="12.2287594"><ele>576.0</ele><time>2026-04-04T15:48:17.035Z</time></trkpt><trkpt lat="43.244325" lon="12.2286272"><ele>575.0</ele><time>2026-04-04T15:48:18.035Z</time></trkpt><trkpt lat="43.2443902" lon="12.2285053"><ele>574.0</ele><time>2026-04-04T15:48:19.042Z</time></trkpt><trkpt lat="43.2444578" lon="12.2283809"><ele>573.0</ele><time>2026-04-04T15:48:20.042Z</time></trkpt><trkpt lat="43.2445235" lon="12.2282497"><ele>572.25</ele><time>2026-04-04T15:48:21.032Z</time></trkpt><trkpt lat="43.2445881" lon="12.2281179"><ele>571.5</ele><time>2026-04-04T15:48:22.044Z</time></trkpt><trkpt lat="43.2446342" lon="12.2279806"><ele>570.75</ele><time>2026-04-04T15:48:23.04Z</time></trkpt><trkpt lat="43.2446569" lon="12.2278218"><ele>570.0</ele><time>2026-04-04T15:48:24.051Z</time></trkpt><trkpt lat="43.2446522" lon="12.2276759"><ele>570.0</ele><time>2026-04-04T15:48:25.051Z</time></trkpt><trkpt lat="43.2446188" lon="12.2275364"><ele>570.0</ele><time>2026-04-04T15:48:26.036Z</time></trkpt><trkpt lat="43.2445782" lon="12.2274017"><ele>570.0</ele><time>2026-04-04T15:48:27.034Z</time></trkpt><trkpt lat="43.2445235" lon="12.2273025"><ele>570.0</ele><time>2026-04-04T15:48:28.035Z</time></trkpt><trkpt lat="43.2444664" lon="12.2272032"><ele>570.0</ele><time>2026-04-04T15:48:29.036Z</time></trkpt><trkpt lat="43.2444193" lon="12.2271067"><ele>570.5</ele><time>2026-04-04T15:48:30.03Z</time></trkpt><trkpt lat="43.2443733" lon="12.2270076"><ele>571.0</ele><time>2026-04-04T15:48:31.061Z</time></trkpt><trkpt lat="43.244324" lon="12.2269113"><ele>571.5</ele><time>2026-04-04T15:48:32.03Z</time></trkpt><trkpt lat="43.2442678" lon="12.2268189"><ele>572.0</ele><time>2026-04-04T15:48:33.034Z</time></trkpt><trkpt lat="43.2442126" lon="12.2267184"><ele>572.5</ele><time>2026-04-04T15:48:34.036Z</time></trkpt><trkpt lat="43.2441528" lon="12.2266117"><ele>573.0</ele><time>2026-04-04T15:48:35.029Z</time></trkpt><trkpt lat="43.2440893" lon="12.2265106"><ele>573.1999999999999</ele><time>2026-04-04T15:48:36.029Z</time></trkpt><trkpt lat="43.2440254" lon="12.2264008"><ele>573.4</ele><time>2026-04-04T15:48:37.04Z</time></trkpt><trkpt lat="43.2439633" lon="12.2262794"><ele>573.5999999999999</ele><time>2026-04-04T15:48:38.035Z</time></trkpt><trkpt lat="43.2439175" lon="12.2261535"><ele>573.8</ele><time>2026-04-04T15:48:39.029Z</time></trkpt><trkpt lat="43.243892" lon="12.2260052"><ele>574.0</ele><time>2026-04-04T15:48:40.044Z</time></trkpt><trkpt lat="43.2438906" lon="12.2258603"><ele>575.8</ele><time>2026-04-04T15:48:41.039Z</time></trkpt><trkpt lat="43.2438987" lon="12.2257162"><ele>577.5999999999999</ele><time>2026-04-04T15:48:42.029Z</time></trkpt><trkpt lat="43.2439306" lon="12.2255707"><ele>579.4</ele><time>2026-04-04T15:48:43.033Z</time></trkpt><trkpt lat="43.2439681" lon="12.2254233"><ele>581.1999999999999</ele><time>2026-04-04T15:48:44.038Z</time></trkpt><trkpt lat="43.2440034" lon="12.2252742"><ele>583.0</ele><time>2026-04-04T15:48:45.032Z</time></trkpt><trkpt lat="43.2440386" lon="12.2251135"><ele>583.0</ele><time>2026-04-04T15:48:46.035Z</time></trkpt><trkpt lat="43.2440736" lon="12.2249427"><ele>583.0</ele><time>2026-04-04T15:48:47.032Z</time></trkpt><trkpt lat="43.2441129" lon="12.2247781"><ele>583.0</ele><time>2026-04-04T15:48:48.033Z</time></trkpt><trkpt lat="43.2441534" lon="12.2246137"><ele>583.0</ele><time>2026-04-04T15:48:49.045Z</time></trkpt><trkpt lat="43.2441925" lon="12.2244475"><ele>584.75</ele><time>2026-04-04T15:48:50.034Z</time></trkpt><trkpt lat="43.2442323" lon="12.2242903"><ele>586.5</ele><time>2026-04-04T15:48:51.047Z</time></trkpt><trkpt lat="43.2442771" lon="12.224131"><ele>588.25</ele><time>2026-04-04T15:48:52.037Z</time></trkpt><trkpt lat="43.2443186" lon="12.223991"><ele>590.0</ele><time>2026-04-04T15:48:53.036Z</time></trkpt><trkpt lat="43.2443549" lon="12.2238539"><ele>590.0</ele><time>2026-04-04T15:48:54.036Z</time></trkpt><trkpt lat="43.2443711" lon="12.2237317"><ele>590.0</ele><time>2026-04-04T15:48:55.047Z</time></trkpt><trkpt lat="43.2443684" lon="12.2236033"><ele>590.0</ele><time>2026-04-04T15:48:56.034Z</time></trkpt><trkpt lat="43.2443414" lon="12.223474"><ele>590.0</ele><time>2026-04-04T15:48:57.039Z</time></trkpt><trkpt lat="43.2442703" lon="12.223373"><ele>590.0</ele><time>2026-04-04T15:48:58.041Z</time></trkpt><trkpt lat="43.2441843" lon="12.2232989"><ele>590.0</ele><time>2026-04-04T15:48:59.04Z</time></trkpt><trkpt lat="43.2440842" lon="12.2232845"><ele>590.0</ele><time>2026-04-04T15:49:00.036Z</time></trkpt><trkpt lat="43.2439816" lon="12.2233263"><ele>590.0</ele><time>2026-04-04T15:49:01.025Z</time></trkpt><trkpt lat="43.2439048" lon="12.2234076"><ele>590.0</ele><time>2026-04-04T15:49:02.031Z</time></trkpt><trkpt lat="43.2438436" lon="12.2235242"><ele>590.0</ele><time>2026-04-04T15:49:03.033Z</time></trkpt><trkpt lat="43.2438146" lon="12.2236712"><ele>595.0</ele><time>2026-04-04T15:49:04.033Z</time></trkpt><trkpt lat="43.2438249" lon="12.2238107"><ele>600.0</ele><time>2026-04-04T15:49:05.026Z</time></trkpt><trkpt lat="43.2438632" lon="12.223947"><ele>605.0</ele><time>2026-04-04T15:49:06.031Z</time></trkpt><trkpt lat="43.2438887" lon="12.2240839"><ele>610.0</ele><time>2026-04-04T15:49:07.037Z</time></trkpt><trkpt lat="43.2438936" lon="12.2242219"><ele>615.0</ele><time>2026-04-04T15:49:08.046Z</time></trkpt><trkpt lat="43.2438857" lon="12.224364"><ele>614.4</ele><time>2026-04-04T15:49:09.038Z</time></trkpt><trkpt lat="43.2438609" lon="12.2245082"><ele>613.8</ele><time>2026-04-04T15:49:10.038Z</time></trkpt><trkpt lat="43.2438246" lon="12.2246495"><ele>613.2</ele><time>2026-04-04T15:49:11.037Z</time></trkpt><trkpt lat="43.243785" lon="12.2247898"><ele>612.6</ele><time>2026-04-04T15:49:12.037Z</time></trkpt><trkpt lat="43.2437368" lon="12.2249153"><ele>612.0</ele><time>2026-04-04T15:49:13.029Z</time></trkpt><trkpt lat="43.2436737" lon="12.2250174"><ele>612.0</ele><time>2026-04-04T15:49:14.039Z</time></trkpt><trkpt lat="43.2435905" lon="12.2250895"><ele>612.0</ele><time>2026-04-04T15:49:15.053Z</time></trkpt><trkpt lat="43.2434955" lon="12.2251409"><ele>612.0</ele><time>2026-04-04T15:49:16.036Z</time></trkpt><trkpt lat="43.2433946" lon="12.2251636"><ele>612.0</ele><time>2026-04-04T15:49:17.041Z</time></trkpt><trkpt lat="43.2432902" lon="12.2251665"><ele>612.0</ele><time>2026-04-04T15:49:18.037Z</time></trkpt><trkpt lat="43.2431934" lon="12.2251331"><ele>611.8000000000001</ele><time>2026-04-04T15:49:19.044Z</time></trkpt><trkpt lat="43.243106" lon="12.2250837"><ele>611.6</ele><time>2026-04-04T15:49:20.038Z</time></trkpt><trkpt lat="43.2430201" lon="12.2250282"><ele>611.4000000000001</ele><time>2026-04-04T15:49:21.034Z</time></trkpt><trkpt lat="43.242929" lon="12.2249778"><ele>611.2</ele><time>2026-04-04T15:49:22.034Z</time></trkpt><trkpt lat="43.2428392" lon="12.2249358"><ele>611.0</ele><time>2026-04-04T15:49:23.028Z</time></trkpt><trkpt lat="43.2427428" lon="12.2248893"><ele>611.0</ele><time>2026-04-04T15:49:24.042Z</time></trkpt><trkpt lat="43.2426465" lon="12.2248355"><ele>611.0</ele><time>2026-04-04T15:49:25.03Z</time></trkpt><trkpt lat="43.2425553" lon="12.2247768"><ele>611.0</ele><time>2026-04-04T15:49:26.037Z</time></trkpt><trkpt lat="43.2424646" lon="12.2247214"><ele>611.0</ele><time>2026-04-04T15:49:27.035Z</time></trkpt><trkpt lat="43.2423798" lon="12.2246825"><ele>611.0</ele><time>2026-04-04T15:49:28.033Z</time></trkpt><trkpt lat="43.2423012" lon="12.2246424"><ele>611.3333333333333</ele><time>2026-04-04T15:49:29.038Z</time></trkpt><trkpt lat="43.2422292" lon="12.2245946"><ele>611.6666666666666</ele><time>2026-04-04T15:49:30.033Z</time></trkpt><trkpt lat="43.2421718" lon="12.2245367"><ele>612.0</ele><time>2026-04-04T15:49:31.039Z</time></trkpt><trkpt lat="43.2421254" lon="12.2244713"><ele>612.3333333333334</ele><time>2026-04-04T15:49:32.031Z</time></trkpt><trkpt lat="43.2420765" lon="12.224326"><ele>612.6666666666667</ele><time>2026-04-04T15:49:34.029Z</time></trkpt><trkpt lat="43.2420514" lon="12.2242439"><ele>613.0</ele><time>2026-04-04T15:49:35.035Z</time></trkpt><trkpt lat="43.2420313" lon="12.2241458"><ele>613.0</ele><time>2026-04-04T15:49:36.027Z</time></trkpt><trkpt lat="43.242012" lon="12.2240501"><ele>613.0</ele><time>2026-04-04T15:49:37.023Z</time></trkpt><trkpt lat="43.2420026" lon="12.2239435"><ele>613.0</ele><time>2026-04-04T15:49:38.021Z</time></trkpt><trkpt lat="43.2419789" lon="12.2238331"><ele>613.0</ele><time>2026-04-04T15:49:39.035Z</time></trkpt><trkpt lat="43.2419559" lon="12.2237259"><ele>613.0</ele><time>2026-04-04T15:49:40.027Z</time></trkpt><trkpt lat="43.2419313" lon="12.2236193"><ele>613.0</ele><time>2026-04-04T15:49:41.035Z</time></trkpt><trkpt lat="43.2419001" lon="12.2235108"><ele>614.0</ele><time>2026-04-04T15:49:42.042Z</time></trkpt><trkpt lat="43.2418599" lon="12.2234149"><ele>615.0</ele><time>2026-04-04T15:49:43.05Z</time></trkpt><trkpt lat="43.2418064" lon="12.2233353"><ele>616.0</ele><time>2026-04-04T15:49:44.043Z</time></trkpt><trkpt lat="43.241756" lon="12.2232684"><ele>617.0</ele><time>2026-04-04T15:49:45.046Z</time></trkpt><trkpt lat="43.2417024" lon="12.2232043"><ele>618.0</ele><time>2026-04-04T15:49:46.052Z</time></trkpt><trkpt lat="43.2416484" lon="12.2231572"><ele>619.0</ele><time>2026-04-04T15:49:47.041Z</time></trkpt><trkpt lat="43.2415725" lon="12.2231185"><ele>620.0</ele><time>2026-04-04T15:49:49.037Z</time></trkpt><trkpt lat="43.2415302" lon="12.2230401"><ele>620.0</ele><time>2026-04-04T15:49:52.048Z</time></trkpt><trkpt lat="43.241594" lon="12.2230033"><ele>620.0</ele><time>2026-04-04T15:49:58.04Z</time></trkpt><trkpt lat="43.2416451" lon="12.2230693"><ele>620.0</ele><time>2026-04-04T15:50:00.026Z</time></trkpt><trkpt lat="43.2417171" lon="12.2231152"><ele>620.0</ele><time>2026-04-04T15:50:02.039Z</time></trkpt><trkpt lat="43.2416778" lon="12.2230278"><ele>620.0</ele><time>2026-04-04T15:51:26.034Z</time></trkpt><trkpt lat="43.2415966" lon="12.2229558"><ele>620.0</ele><time>2026-04-04T15:51:28.045Z</time></trkpt><trkpt lat="43.2415406" lon="12.2228958"><ele>617.8333333333333</ele><time>2026-04-04T15:51:30.042Z</time></trkpt><trkpt lat="43.241464" lon="12.2228705"><ele>615.6666666666666</ele><time>2026-04-04T15:51:33.037Z</time></trkpt><trkpt lat="43.2413846" lon="12.2228463"><ele>613.5</ele><time>2026-04-04T15:51:35.04Z</time></trkpt><trkpt lat="43.2413087" lon="12.2228478"><ele>611.3333333333334</ele><time>2026-04-04T15:51:37.044Z</time></trkpt><trkpt lat="43.2412597" lon="12.2227491"><ele>609.1666666666667</ele><time>2026-04-04T15:51:40.043Z</time></trkpt><trkpt lat="43.2412631" lon="12.2226479"><ele>607.0</ele><time>2026-04-04T15:51:42.042Z</time></trkpt><trkpt lat="43.2412907" lon="12.2225505"><ele>607.0</ele><time>2026-04-04T15:51:44.043Z</time></trkpt><trkpt lat="43.2413132" lon="12.2224454"><ele>607.0</ele><time>2026-04-04T15:51:46.036Z</time></trkpt><trkpt lat="43.2412998" lon="12.2223578"><ele>607.0</ele><time>2026-04-04T15:51:48.038Z</time></trkpt><trkpt lat="43.2412257" lon="12.2222998"><ele>607.0</ele><time>2026-04-04T15:51:50.039Z</time></trkpt><trkpt lat="43.2411452" lon="12.2222997"><ele>607.0</ele><time>2026-04-04T15:51:52.03Z</time></trkpt><trkpt lat="43.2410809" lon="12.2223279"><ele>607.0</ele><time>2026-04-04T15:51:54.035Z</time></trkpt><trkpt lat="43.2411073" lon="12.2222347"><ele>605.0</ele><time>2026-04-04T15:51:59.034Z</time></trkpt><trkpt lat="43.2411903" lon="12.2222082"><ele>603.0</ele><time>2026-04-04T15:52:02.033Z</time></trkpt><trkpt lat="43.2412647" lon="12.2221515"><ele>601.0</ele><time>2026-04-04T15:52:04.027Z</time></trkpt><trkpt lat="43.2413571" lon="12.2220948"><ele>599.0</ele><time>2026-04-04T15:52:06.035Z</time></trkpt><trkpt lat="43.2414656" lon="12.222036"><ele>597.0</ele><time>2026-04-04T15:52:08.031Z</time></trkpt><trkpt lat="43.2415748" lon="12.2219809"><ele>597.0</ele><time>2026-04-04T15:52:10.031Z</time></trkpt><trkpt lat="43.2416775" lon="12.2219477"><ele>597.0</ele><time>2026-04-04T15:52:12.041Z</time></trkpt><trkpt lat="43.2417767" lon="12.2219151"><ele>597.0</ele><time>2026-04-04T15:52:14.035Z</time></trkpt><trkpt lat="43.2418855" lon="12.2218853"><ele>597.0</ele><time>2026-04-04T15:52:16.035Z</time></trkpt><trkpt lat="43.2419491" lon="12.2218761"><ele>597.0</ele><time>2026-04-04T15:52:17.036Z</time></trkpt><trkpt lat="43.2420807" lon="12.2218895"><ele>597.0</ele><time>2026-04-04T15:52:19.038Z</time></trkpt><trkpt lat="43.2421549" lon="12.2219159"><ele>597.0</ele><time>2026-04-04T15:52:20.041Z</time></trkpt><trkpt lat="43.2422329" lon="12.2219429"><ele>597.0</ele><time>2026-04-04T15:52:21.034Z</time></trkpt><trkpt lat="43.2423227" lon="12.2219688"><ele>597.0</ele><time>2026-04-04T15:52:22.043Z</time></trkpt><trkpt lat="43.2424103" lon="12.2219968"><ele>597.0</ele><time>2026-04-04T15:52:23.042Z</time></trkpt><trkpt lat="43.2425018" lon="12.2220285"><ele>597.0</ele><time>2026-04-04T15:52:24.034Z</time></trkpt><trkpt lat="43.2425865" lon="12.2220616"><ele>595.6666666666666</ele><time>2026-04-04T15:52:25.045Z</time></trkpt><trkpt lat="43.2426716" lon="12.2220942"><ele>594.3333333333334</ele><time>2026-04-04T15:52:26.04Z</time></trkpt><trkpt lat="43.2427545" lon="12.222119"><ele>593.0</ele><time>2026-04-04T15:52:27.039Z</time></trkpt><trkpt lat="43.2428364" lon="12.2221495"><ele>591.6666666666667</ele><time>2026-04-04T15:52:28.038Z</time></trkpt><trkpt lat="43.2429099" lon="12.2221843"><ele>590.3333333333334</ele><time>2026-04-04T15:52:29.03Z</time></trkpt><trkpt lat="43.2429833" lon="12.2222283"><ele>589.0</ele><time>2026-04-04T15:52:30.036Z</time></trkpt><trkpt lat="43.2430541" lon="12.2222623"><ele>589.0</ele><time>2026-04-04T15:52:31.038Z</time></trkpt><trkpt lat="43.2431214" lon="12.22231"><ele>589.0</ele><time>2026-04-04T15:52:32.035Z</time></trkpt><trkpt lat="43.2431928" lon="12.2223423"><ele>589.0</ele><time>2026-04-04T15:52:33.041Z</time></trkpt><trkpt lat="43.2432524" lon="12.2223904"><ele>589.0</ele><time>2026-04-04T15:52:34.035Z</time></trkpt><trkpt lat="43.2433064" lon="12.2224429"><ele>589.0</ele><time>2026-04-04T15:52:35.045Z</time></trkpt><trkpt lat="43.2433625" lon="12.2225091"><ele>589.0</ele><time>2026-04-04T15:52:36.041Z</time></trkpt><trkpt lat="43.2434047" lon="12.2226018"><ele>589.0</ele><time>2026-04-04T15:52:37.034Z</time></trkpt><trkpt lat="43.2434541" lon="12.2226962"><ele>589.8333333333334</ele><time>2026-04-04T15:52:38.033Z</time></trkpt><trkpt lat="43.243503" lon="12.2227829"><ele>590.6666666666667</ele><time>2026-04-04T15:52:39.036Z</time></trkpt><trkpt lat="43.2435572" lon="12.222863"><ele>591.5</ele><time>2026-04-04T15:52:40.041Z</time></trkpt><trkpt lat="43.2436178" lon="12.222917"><ele>592.3333333333334</ele><time>2026-04-04T15:52:41.038Z</time></trkpt><trkpt lat="43.2436912" lon="12.2229567"><ele>593.1666666666666</ele><time>2026-04-04T15:52:42.027Z</time></trkpt><trkpt lat="43.2437799" lon="12.2229855"><ele>594.0</ele><time>2026-04-04T15:52:43.026Z</time></trkpt><trkpt lat="43.2438644" lon="12.2230015"><ele>594.0</ele><time>2026-04-04T15:52:44.033Z</time></trkpt><trkpt lat="43.2439493" lon="12.2230106"><ele>594.0</ele><time>2026-04-04T15:52:45.04Z</time></trkpt><trkpt lat="43.2440321" lon="12.2230142"><ele>594.0</ele><time>2026-04-04T15:52:46.04Z</time></trkpt><trkpt lat="43.2441168" lon="12.2230064"><ele>594.0</ele><time>2026-04-04T15:52:47.027Z</time></trkpt><trkpt lat="43.2442022" lon="12.2229817"><ele>594.0</ele><time>2026-04-04T15:52:48.032Z</time></trkpt><trkpt lat="43.2442843" lon="12.2229628"><ele>594.0</ele><time>2026-04-04T15:52:49.041Z</time></trkpt><trkpt lat="43.2443678" lon="12.2229428"><ele>590.3333333333334</ele><time>2026-04-04T15:52:50.04Z</time></trkpt><trkpt lat="43.2444448" lon="12.2229157"><ele>586.6666666666666</ele><time>2026-04-04T15:52:51.038Z</time></trkpt><trkpt lat="43.2445225" lon="12.2228872"><ele>583.0</ele><time>2026-04-04T15:52:52.039Z</time></trkpt><trkpt lat="43.2445985" lon="12.2228536"><ele>579.3333333333333</ele><time>2026-04-04T15:52:53.05Z</time></trkpt><trkpt lat="43.2446685" lon="12.2228156"><ele>575.6666666666666</ele><time>2026-04-04T15:52:54.04Z</time></trkpt><trkpt lat="43.2447738" lon="12.2227597"><ele>572.0</ele><time>2026-04-04T15:52:56.04Z</time></trkpt><trkpt lat="43.2448555" lon="12.222684"><ele>571.1666666666666</ele><time>2026-04-04T15:52:58.035Z</time></trkpt><trkpt lat="43.2448756" lon="12.2225868"><ele>570.3333333333333</ele><time>2026-04-04T15:53:00.039Z</time></trkpt><trkpt lat="43.2448466" lon="12.2224613"><ele>569.5</ele><time>2026-04-04T15:53:02.034Z</time></trkpt><trkpt lat="43.2448548" lon="12.2223169"><ele>568.6666666666666</ele><time>2026-04-04T15:53:04.044Z</time></trkpt><trkpt lat="43.2448857" lon="12.2222392"><ele>567.8333333333334</ele><time>2026-04-04T15:53:05.039Z</time></trkpt><trkpt lat="43.2449289" lon="12.2221542"><ele>567.0</ele><time>2026-04-04T15:53:06.031Z</time></trkpt><trkpt lat="43.2449715" lon="12.2220807"><ele>564.6666666666666</ele><time>2026-04-04T15:53:07.039Z</time></trkpt><trkpt lat="43.245016" lon="12.2220117"><ele>562.3333333333334</ele><time>2026-04-04T15:53:08.035Z</time></trkpt><trkpt lat="43.245112" lon="12.2219101"><ele>560.0</ele><time>2026-04-04T15:53:10.036Z</time></trkpt><trkpt lat="43.2452214" lon="12.2219201"><ele>557.6666666666667</ele><time>2026-04-04T15:53:12.04Z</time></trkpt><trkpt lat="43.2452808" lon="12.2219652"><ele>555.3333333333334</ele><time>2026-04-04T15:53:13.031Z</time></trkpt><trkpt lat="43.2453415" lon="12.2219999"><ele>553.0</ele><time>2026-04-04T15:53:14.036Z</time></trkpt><trkpt lat="43.2454059" lon="12.2220271"><ele>553.0</ele><time>2026-04-04T15:53:15.038Z</time></trkpt><trkpt lat="43.2454716" lon="12.2220517"><ele>553.0</ele><time>2026-04-04T15:53:16.039Z</time></trkpt><trkpt lat="43.245596" lon="12.222063"><ele>553.0</ele><time>2026-04-04T15:53:18.046Z</time></trkpt><trkpt lat="43.245719" lon="12.2220117"><ele>553.0</ele><time>2026-04-04T15:53:20.042Z</time></trkpt><trkpt lat="43.245783" lon="12.2219753"><ele>553.0</ele><time>2026-04-04T15:53:21.044Z</time></trkpt><trkpt lat="43.2458495" lon="12.2219311"><ele>552.2857142857143</ele><time>2026-04-04T15:53:22.041Z</time></trkpt><trkpt lat="43.2459126" lon="12.2218931"><ele>551.5714285714286</ele><time>2026-04-04T15:53:23.036Z</time></trkpt><trkpt lat="43.2459786" lon="12.2218564"><ele>550.8571428571429</ele><time>2026-04-04T15:53:24.043Z</time></trkpt><trkpt lat="43.2460477" lon="12.2218127"><ele>550.1428571428571</ele><time>2026-04-04T15:53:25.033Z</time></trkpt><trkpt lat="43.2461202" lon="12.2217728"><ele>549.4285714285714</ele><time>2026-04-04T15:53:26.03Z</time></trkpt><trkpt lat="43.2461834" lon="12.2217299"><ele>548.7142857142858</ele><time>2026-04-04T15:53:27.033Z</time></trkpt><trkpt lat="43.246249" lon="12.2216832"><ele>548.0</ele><time>2026-04-04T15:53:28.034Z</time></trkpt><trkpt lat="43.2463494" lon="12.2216208"><ele>548.0</ele><time>2026-04-04T15:53:30.03Z</time></trkpt><trkpt lat="43.2464165" lon="12.2215534"><ele>548.0</ele><time>2026-04-04T15:53:32.028Z</time></trkpt><trkpt lat="43.2464839" lon="12.2215811"><ele>548.0</ele><time>2026-04-04T15:54:33.036Z</time></trkpt><trkpt lat="43.2464434" lon="12.2216505"><ele>548.0</ele><time>2026-04-04T15:54:35.025Z</time></trkpt><trkpt lat="43.2463601" lon="12.2217114"><ele>548.0</ele><time>2026-04-04T15:54:37.031Z</time></trkpt><trkpt lat="43.2462829" lon="12.2217831"><ele>548.0</ele><time>2026-04-04T15:54:39.042Z</time></trkpt><trkpt lat="43.2462012" lon="12.2218637"><ele>548.0</ele><time>2026-04-04T15:54:41.037Z</time></trkpt><trkpt lat="43.2461259" lon="12.2219559"><ele>548.0</ele><time>2026-04-04T15:54:43.034Z</time></trkpt><trkpt lat="43.2460356" lon="12.2220384"><ele>548.0</ele><time>2026-04-04T15:54:45.029Z</time></trkpt><trkpt lat="43.2459936" lon="12.2221061"><ele>548.0</ele><time>2026-04-04T15:54:46.039Z</time></trkpt><trkpt lat="43.2459513" lon="12.2221936"><ele>548.0</ele><time>2026-04-04T15:54:47.035Z</time></trkpt><trkpt lat="43.2459111" lon="12.2222961"><ele>548.0</ele><time>2026-04-04T15:54:48.031Z</time></trkpt><trkpt lat="43.2458821" lon="12.2224229"><ele>549.0</ele><time>2026-04-04T15:54:49.035Z</time></trkpt><trkpt lat="43.2458686" lon="12.2225613"><ele>550.0</ele><time>2026-04-04T15:54:50.024Z</time></trkpt><trkpt lat="43.2458493" lon="12.2227039"><ele>551.0</ele><time>2026-04-04T15:54:51.023Z</time></trkpt><trkpt lat="43.24582" lon="12.2228386"><ele>552.0</ele><time>2026-04-04T15:54:52.033Z</time></trkpt><trkpt lat="43.2457914" lon="12.2229757"><ele>553.0</ele><time>2026-04-04T15:54:53.028Z</time></trkpt><trkpt lat="43.2457613" lon="12.223115"><ele>551.0</ele><time>2026-04-04T15:54:54.042Z</time></trkpt><trkpt lat="43.2457239" lon="12.2232507"><ele>549.0</ele><time>2026-04-04T15:54:55.036Z</time></trkpt><trkpt lat="43.245674" lon="12.2233759"><ele>547.0</ele><time>2026-04-04T15:54:56.043Z</time></trkpt><trkpt lat="43.2455978" lon="12.2234962"><ele>545.0</ele><time>2026-04-04T15:54:57.04Z</time></trkpt><trkpt lat="43.245501" lon="12.2236125"><ele>552.0</ele><time>2026-04-04T15:54:58.032Z</time></trkpt><trkpt lat="43.2453921" lon="12.2237367"><ele>559.0</ele><time>2026-04-04T15:54:59.032Z</time></trkpt><trkpt lat="43.2452798" lon="12.2238621"><ele>566.0</ele><time>2026-04-04T15:55:00.028Z</time></trkpt><trkpt lat="43.2451531" lon="12.224006"><ele>566.0</ele><time>2026-04-04T15:55:01.046Z</time></trkpt><trkpt lat="43.2450119" lon="12.2241548"><ele>566.0</ele><time>2026-04-04T15:55:02.03Z</time></trkpt><trkpt lat="43.2448659" lon="12.2243093"><ele>566.0</ele><time>2026-04-04T15:55:03.031Z</time></trkpt><trkpt lat="43.2447343" lon="12.2244691"><ele>571.6666666666666</ele><time>2026-04-04T15:55:04.037Z</time></trkpt><trkpt lat="43.2446113" lon="12.2246433"><ele>577.3333333333334</ele><time>2026-04-04T15:55:05.047Z</time></trkpt><trkpt lat="43.2444882" lon="12.2247977"><ele>583.0</ele><time>2026-04-04T15:55:06.039Z</time></trkpt><trkpt lat="43.2443671" lon="12.2249553"><ele>583.0</ele><time>2026-04-04T15:55:07.026Z</time></trkpt><trkpt lat="43.2442739" lon="12.2251322"><ele>583.0</ele><time>2026-04-04T15:55:08.037Z</time></trkpt><trkpt lat="43.2442062" lon="12.2253214"><ele>583.0</ele><time>2026-04-04T15:55:09.031Z</time></trkpt><trkpt lat="43.2441545" lon="12.2255249"><ele>580.75</ele><time>2026-04-04T15:55:10.029Z</time></trkpt><trkpt lat="43.2441299" lon="12.22573"><ele>578.5</ele><time>2026-04-04T15:55:11.031Z</time></trkpt><trkpt lat="43.2441148" lon="12.2259415"><ele>576.25</ele><time>2026-04-04T15:55:12.043Z</time></trkpt><trkpt lat="43.2441053" lon="12.2261227"><ele>574.0</ele><time>2026-04-04T15:55:13.04Z</time></trkpt><trkpt lat="43.2441148" lon="12.2262864"><ele>574.0</ele><time>2026-04-04T15:55:14.041Z</time></trkpt><trkpt lat="43.2441462" lon="12.2264435"><ele>574.0</ele><time>2026-04-04T15:55:15.033Z</time></trkpt><trkpt lat="43.2442062" lon="12.2265897"><ele>574.0</ele><time>2026-04-04T15:55:16.036Z</time></trkpt><trkpt lat="43.2442782" lon="12.2267148"><ele>574.0</ele><time>2026-04-04T15:55:17.049Z</time></trkpt><trkpt lat="43.2443378" lon="12.2267915"><ele>574.0</ele><time>2026-04-04T15:55:18.034Z</time></trkpt><trkpt lat="43.2443875" lon="12.2269247"><ele>573.8</ele><time>2026-04-04T15:55:20.037Z</time></trkpt><trkpt lat="43.2444155" lon="12.2270272"><ele>573.5999999999999</ele><time>2026-04-04T15:55:22.028Z</time></trkpt><trkpt lat="43.2444633" lon="12.2271206"><ele>573.4</ele><time>2026-04-04T15:55:24.037Z</time></trkpt><trkpt lat="43.2445551" lon="12.2271729"><ele>573.1999999999999</ele><time>2026-04-04T15:55:26.037Z</time></trkpt><trkpt lat="43.2446382" lon="12.2272407"><ele>573.0</ele><time>2026-04-04T15:55:28.04Z</time></trkpt><trkpt lat="43.2447204" lon="12.2273147"><ele>573.0</ele><time>2026-04-04T15:55:30.032Z</time></trkpt><trkpt lat="43.2447891" lon="12.2272732"><ele>573.0</ele><time>2026-04-04T15:55:32.035Z</time></trkpt><trkpt lat="43.2448402" lon="12.2271536"><ele>573.0</ele><time>2026-04-04T15:55:34.033Z</time></trkpt><trkpt lat="43.2448681" lon="12.2270155"><ele>573.0</ele><time>2026-04-04T15:55:36.035Z</time></trkpt><trkpt lat="43.2448329" lon="12.2268543"><ele>573.0</ele><time>2026-04-04T15:55:38.037Z</time></trkpt><trkpt lat="43.2448092" lon="12.2267687"><ele>573.0</ele><time>2026-04-04T15:55:39.038Z</time></trkpt><trkpt lat="43.2447817" lon="12.226671"><ele>573.0</ele><time>2026-04-04T15:55:40.035Z</time></trkpt><trkpt lat="43.2447527" lon="12.2265717"><ele>573.0</ele><time>2026-04-04T15:55:41.032Z</time></trkpt><trkpt lat="43.2447188" lon="12.2264726"><ele>573.0</ele><time>2026-04-04T15:55:42.038Z</time></trkpt><trkpt lat="43.2446844" lon="12.2263822"><ele>573.0</ele><time>2026-04-04T15:55:43.036Z</time></trkpt><trkpt lat="43.2446532" lon="12.2262901"><ele>573.0</ele><time>2026-04-04T15:55:44.033Z</time></trkpt><trkpt lat="43.244618" lon="12.2261901"><ele>573.1666666666666</ele><time>2026-04-04T15:55:45.034Z</time></trkpt><trkpt lat="43.2445761" lon="12.2260997"><ele>573.3333333333334</ele><time>2026-04-04T15:55:46.037Z</time></trkpt><trkpt lat="43.2445333" lon="12.2260087"><ele>573.5</ele><time>2026-04-04T15:55:47.04Z</time></trkpt><trkpt lat="43.2444898" lon="12.2259194"><ele>573.6666666666667</ele><time>2026-04-04T15:55:48.036Z</time></trkpt><trkpt lat="43.2444537" lon="12.2258135"><ele>573.8333333333334</ele><time>2026-04-04T15:55:49.028Z</time></trkpt><trkpt lat="43.2444256" lon="12.2257121"><ele>574.0</ele><time>2026-04-04T15:55:50.036Z</time></trkpt><trkpt lat="43.2444015" lon="12.2256291"><ele>575.8</ele><time>2026-04-04T15:55:51.033Z</time></trkpt><trkpt lat="43.2443757" lon="12.2254797"><ele>577.5999999999999</ele><time>2026-04-04T15:55:53.037Z</time></trkpt><trkpt lat="43.244388" lon="12.2253898"><ele>579.4</ele><time>2026-04-04T15:55:55.042Z</time></trkpt><trkpt lat="43.244478" lon="12.2253752"><ele>581.1999999999999</ele><time>2026-04-04T15:55:57.033Z</time></trkpt><trkpt lat="43.2446045" lon="12.2254359"><ele>583.0</ele><time>2026-04-04T15:55:59.031Z</time></trkpt><trkpt lat="43.2446654" lon="12.2254886"><ele>583.0</ele><time>2026-04-04T15:56:00.04Z</time></trkpt><trkpt lat="43.2447247" lon="12.2255342"><ele>583.0</ele><time>2026-04-04T15:56:01.04Z</time></trkpt><trkpt lat="43.2447938" lon="12.2255648"><ele>583.0</ele><time>2026-04-04T15:56:02.034Z</time></trkpt><trkpt lat="43.2448787" lon="12.2255705"><ele>583.0</ele><time>2026-04-04T15:56:03.033Z</time></trkpt><trkpt lat="43.2449802" lon="12.2255527"><ele>583.0</ele><time>2026-04-04T15:56:04.033Z</time></trkpt><trkpt lat="43.2450876" lon="12.2255217"><ele>583.0</ele><time>2026-04-04T15:56:05.034Z</time></trkpt><trkpt lat="43.2451826" lon="12.2254855"><ele>577.6666666666667</ele><time>2026-04-04T15:56:06.031Z</time></trkpt><trkpt lat="43.24527" lon="12.2254659"><ele>572.3333333333334</ele><time>2026-04-04T15:56:07.033Z</time></trkpt><trkpt lat="43.2453523" lon="12.2254634"><ele>567.0</ele><time>2026-04-04T15:56:08.032Z</time></trkpt><trkpt lat="43.2454286" lon="12.2254926"><ele>561.6666666666666</ele><time>2026-04-04T15:56:09.034Z</time></trkpt><trkpt lat="43.2455107" lon="12.2255549"><ele>556.3333333333333</ele><time>2026-04-04T15:56:10.033Z</time></trkpt><trkpt lat="43.2455935" lon="12.2256254"><ele>551.0</ele><time>2026-04-04T15:56:11.038Z</time></trkpt><trkpt lat="43.24567" lon="12.2256987"><ele>548.6666666666666</ele><time>2026-04-04T15:56:12.033Z</time></trkpt><trkpt lat="43.2457474" lon="12.2257778"><ele>546.3333333333333</ele><time>2026-04-04T15:56:13.026Z</time></trkpt><trkpt lat="43.2458189" lon="12.2258573"><ele>544.0</ele><time>2026-04-04T15:56:14.04Z</time></trkpt><trkpt lat="43.2458908" lon="12.2259337"><ele>541.6666666666666</ele><time>2026-04-04T15:56:15.038Z</time></trkpt><trkpt lat="43.2459546" lon="12.2259998"><ele>539.3333333333334</ele><time>2026-04-04T15:56:16.044Z</time></trkpt><trkpt lat="43.2460065" lon="12.226065"><ele>537.0</ele><time>2026-04-04T15:56:17.038Z</time></trkpt><trkpt lat="43.2460715" lon="12.2261924"><ele>537.0</ele><time>2026-04-04T15:56:19.025Z</time></trkpt><trkpt lat="43.246101" lon="12.2263128"><ele>537.0</ele><time>2026-04-04T15:56:21.025Z</time></trkpt><trkpt lat="43.2460663" lon="12.2264907"><ele>537.0</ele><time>2026-04-04T15:56:23.042Z</time></trkpt><trkpt lat="43.2460371" lon="12.2265895"><ele>537.0</ele><time>2026-04-04T15:56:24.024Z</time></trkpt><trkpt lat="43.2459984" lon="12.2267462"><ele>537.0</ele><time>2026-04-04T15:56:26.033Z</time></trkpt><trkpt lat="43.2459872" lon="12.226834"><ele>537.3333333333334</ele><time>2026-04-04T15:56:27.027Z</time></trkpt><trkpt lat="43.2460186" lon="12.2269785"><ele>537.6666666666666</ele><time>2026-04-04T15:56:29.025Z</time></trkpt><trkpt lat="43.2461203" lon="12.2270344"><ele>538.0</ele><time>2026-04-04T15:56:31.03Z</time></trkpt><trkpt lat="43.2461933" lon="12.2270235"><ele>538.3333333333333</ele><time>2026-04-04T15:56:32.031Z</time></trkpt><trkpt lat="43.2462655" lon="12.2270366"><ele>538.6666666666666</ele><time>2026-04-04T15:56:33.019Z</time></trkpt><trkpt lat="43.2463301" lon="12.2270628"><ele>539.0</ele><time>2026-04-04T15:56:34.031Z</time></trkpt><trkpt lat="43.2463976" lon="12.2270949"><ele>535.4</ele><time>2026-04-04T15:56:35.028Z</time></trkpt><trkpt lat="43.2465258" lon="12.2270718"><ele>531.8</ele><time>2026-04-04T15:56:37.026Z</time></trkpt><trkpt lat="43.2465821" lon="12.2270132"><ele>528.2</ele><time>2026-04-04T15:56:38.031Z</time></trkpt><trkpt lat="43.2466415" lon="12.2268791"><ele>524.6</ele><time>2026-04-04T15:56:40.031Z</time></trkpt><trkpt lat="43.2467057" lon="12.2267581"><ele>521.0</ele><time>2026-04-04T15:56:42.03Z</time></trkpt><trkpt lat="43.2467693" lon="12.2267065"><ele>521.0</ele><time>2026-04-04T15:56:43.027Z</time></trkpt><trkpt lat="43.2468439" lon="12.2266863"><ele>521.0</ele><time>2026-04-04T15:56:44.029Z</time></trkpt><trkpt lat="43.2469307" lon="12.2266839"><ele>521.0</ele><time>2026-04-04T15:56:45.028Z</time></trkpt><trkpt lat="43.2470194" lon="12.2266561"><ele>521.0</ele><time>2026-04-04T15:56:46.022Z</time></trkpt><trkpt lat="43.2471042" lon="12.2266344"><ele>521.0</ele><time>2026-04-04T15:56:47.037Z</time></trkpt><trkpt lat="43.2471805" lon="12.2266275"><ele>521.0</ele><time>2026-04-04T15:56:48.042Z</time></trkpt><trkpt lat="43.2472608" lon="12.2266278"><ele>519.0</ele><time>2026-04-04T15:56:49.022Z</time></trkpt><trkpt lat="43.2473428" lon="12.226659"><ele>517.0</ele><time>2026-04-04T15:56:50.018Z</time></trkpt><trkpt lat="43.2474272" lon="12.2267091"><ele>515.0</ele><time>2026-04-04T15:56:51.019Z</time></trkpt><trkpt lat="43.247503" lon="12.2267664"><ele>513.0</ele><time>2026-04-04T15:56:52.037Z</time></trkpt><trkpt lat="43.2475709" lon="12.2268237"><ele>510.99999999999994</ele><time>2026-04-04T15:56:53.044Z</time></trkpt><trkpt lat="43.247623" lon="12.2269011"><ele>509.0</ele><time>2026-04-04T15:56:54.025Z</time></trkpt><trkpt lat="43.247673" lon="12.226989"><ele>508.99999999999994</ele><time>2026-04-04T15:56:55.037Z</time></trkpt><trkpt lat="43.247733" lon="12.2270838"><ele>509.0</ele><time>2026-04-04T15:56:56.028Z</time></trkpt><trkpt lat="43.2478028" lon="12.227166"><ele>509.0</ele><time>2026-04-04T15:56:57.027Z</time></trkpt><trkpt lat="43.2478755" lon="12.227239"><ele>509.0</ele><time>2026-04-04T15:56:58.026Z</time></trkpt><trkpt lat="43.2479317" lon="12.2273171"><ele>508.99999999999994</ele><time>2026-04-04T15:56:59.031Z</time></trkpt><trkpt lat="43.2479692" lon="12.2274095"><ele>509.0</ele><time>2026-04-04T15:57:00.035Z</time></trkpt><trkpt lat="43.2479833" lon="12.2275151"><ele>512.4</ele><time>2026-04-04T15:57:01.032Z</time></trkpt><trkpt lat="43.2479725" lon="12.2276333"><ele>515.8</ele><time>2026-04-04T15:57:02.023Z</time></trkpt><trkpt lat="43.2479502" lon="12.227771"><ele>519.2</ele><time>2026-04-04T15:57:03.026Z</time></trkpt><trkpt lat="43.2479246" lon="12.2279004"><ele>522.6</ele><time>2026-04-04T15:57:04.033Z</time></trkpt><trkpt lat="43.2479074" lon="12.2280243"><ele>526.0</ele><time>2026-04-04T15:57:05.032Z</time></trkpt><trkpt lat="43.2479082" lon="12.2281529"><ele>527.4</ele><time>2026-04-04T15:57:06.029Z</time></trkpt><trkpt lat="43.2479285" lon="12.2282751"><ele>528.8</ele><time>2026-04-04T15:57:07.03Z</time></trkpt><trkpt lat="43.2479701" lon="12.2283811"><ele>530.1999999999999</ele><time>2026-04-04T15:57:08.02Z</time></trkpt><trkpt lat="43.2480368" lon="12.2284476"><ele>531.6</ele><time>2026-04-04T15:57:09.035Z</time></trkpt><trkpt lat="43.2481231" lon="12.2284766"><ele>533.0</ele><time>2026-04-04T15:57:10.028Z</time></trkpt><trkpt lat="43.2482289" lon="12.2284754"><ele>528.25</ele><time>2026-04-04T15:57:11.029Z</time></trkpt><trkpt lat="43.24834" lon="12.2284735"><ele>523.5</ele><time>2026-04-04T15:57:12.02Z</time></trkpt><trkpt lat="43.248462" lon="12.2284698"><ele>518.75</ele><time>2026-04-04T15:57:13.023Z</time></trkpt><trkpt lat="43.2485772" lon="12.2284683"><ele>514.0</ele><time>2026-04-04T15:57:14.028Z</time></trkpt><trkpt lat="43.2486809" lon="12.2284671"><ele>514.0</ele><time>2026-04-04T15:57:15.024Z</time></trkpt><trkpt lat="43.2487733" lon="12.2284634"><ele>514.0</ele><time>2026-04-04T15:57:16.027Z</time></trkpt><trkpt lat="43.248867" lon="12.2284615"><ele>514.0</ele><time>2026-04-04T15:57:17.026Z</time></trkpt><trkpt lat="43.2489483" lon="12.2284611"><ele>514.0</ele><time>2026-04-04T15:57:18.021Z</time></trkpt><trkpt lat="43.2490309" lon="12.2284511"><ele>514.0</ele><time>2026-04-04T15:57:19.032Z</time></trkpt><trkpt lat="43.2491072" lon="12.2284313"><ele>514.0</ele><time>2026-04-04T15:57:20.018Z</time></trkpt><trkpt lat="43.2491762" lon="12.2283995"><ele>513.4</ele><time>2026-04-04T15:57:21.014Z</time></trkpt><trkpt lat="43.249266" lon="12.2283439"><ele>512.8</ele><time>2026-04-04T15:57:23.024Z</time></trkpt><trkpt lat="43.2493422" lon="12.22843"><ele>512.2</ele><time>2026-04-04T15:57:25.03Z</time></trkpt><trkpt lat="43.2494129" lon="12.2285924"><ele>511.6</ele><time>2026-04-04T15:57:27.021Z</time></trkpt><trkpt lat="43.2494669" lon="12.2286697"><ele>511.0</ele><time>2026-04-04T15:57:28.038Z</time></trkpt><trkpt lat="43.2495241" lon="12.2287345"><ele>511.0</ele><time>2026-04-04T15:57:29.018Z</time></trkpt><trkpt lat="43.2495822" lon="12.2287905"><ele>511.0</ele><time>2026-04-04T15:57:30.022Z</time></trkpt><trkpt lat="43.2496274" lon="12.2288522"><ele>511.0</ele><time>2026-04-04T15:57:31.032Z</time></trkpt><trkpt lat="43.2496552" lon="12.2289324"><ele>511.0</ele><time>2026-04-04T15:57:32.028Z</time></trkpt><trkpt lat="43.2496828" lon="12.2290108"><ele>511.0</ele><time>2026-04-04T15:57:33.018Z</time></trkpt><trkpt lat="43.2497484" lon="12.229093"><ele>511.0</ele><time>2026-04-04T15:57:35.023Z</time></trkpt><trkpt lat="43.2498152" lon="12.2290648"><ele>511.0</ele><time>2026-04-04T15:57:36.027Z</time></trkpt><trkpt lat="43.2498854" lon="12.2290072"><ele>508.6666666666667</ele><time>2026-04-04T15:57:37.013Z</time></trkpt><trkpt lat="43.249958" lon="12.2289436"><ele>506.33333333333337</ele><time>2026-04-04T15:57:38.027Z</time></trkpt><trkpt lat="43.2500256" lon="12.2288827"><ele>504.0</ele><time>2026-04-04T15:57:39.03Z</time></trkpt><trkpt lat="43.2500976" lon="12.2288444"><ele>501.66666666666663</ele><time>2026-04-04T15:57:40.026Z</time></trkpt><trkpt lat="43.2501789" lon="12.2288136"><ele>499.3333333333333</ele><time>2026-04-04T15:57:41.038Z</time></trkpt><trkpt lat="43.2502657" lon="12.2287978"><ele>497.0</ele><time>2026-04-04T15:57:42.021Z</time></trkpt><trkpt lat="43.2503559" lon="12.2288077"><ele>497.0</ele><time>2026-04-04T15:57:43.027Z</time></trkpt><trkpt lat="43.2504552" lon="12.2288449"><ele>497.00000000000006</ele><time>2026-04-04T15:57:44.025Z</time></trkpt><trkpt lat="43.2505575" lon="12.2288719"><ele>497.00000000000006</ele><time>2026-04-04T15:57:45.026Z</time></trkpt><trkpt lat="43.250647" lon="12.2289128"><ele>497.0</ele><time>2026-04-04T15:57:46.029Z</time></trkpt><trkpt lat="43.2507299" lon="12.2289303"><ele>497.0</ele><time>2026-04-04T15:57:47.027Z</time></trkpt><trkpt lat="43.2508252" lon="12.2289283"><ele>496.16666666666663</ele><time>2026-04-04T15:57:48.035Z</time></trkpt><trkpt lat="43.250928" lon="12.2289054"><ele>495.3333333333333</ele><time>2026-04-04T15:57:49.03Z</time></trkpt><trkpt lat="43.2510169" lon="12.2288902"><ele>494.5</ele><time>2026-04-04T15:57:50.03Z</time></trkpt><trkpt lat="43.2510872" lon="12.2288977"><ele>493.66666666666663</ele><time>2026-04-04T15:57:51.02Z</time></trkpt><trkpt lat="43.2511449" lon="12.2289361"><ele>492.8333333333333</ele><time>2026-04-04T15:57:52.037Z</time></trkpt><trkpt lat="43.2512014" lon="12.2289982"><ele>492.0</ele><time>2026-04-04T15:57:53.036Z</time></trkpt><trkpt lat="43.251246" lon="12.2290772"><ele>496.0</ele><time>2026-04-04T15:57:54.033Z</time></trkpt><trkpt lat="43.2512814" lon="12.2291755"><ele>500.0</ele><time>2026-04-04T15:57:55.037Z</time></trkpt><trkpt lat="43.2513158" lon="12.2292736"><ele>504.0</ele><time>2026-04-04T15:57:56.048Z</time></trkpt><trkpt lat="43.2513499" lon="12.229372"><ele>508.0</ele><time>2026-04-04T15:57:57.031Z</time></trkpt><trkpt lat="43.2513803" lon="12.2294816"><ele>512.0</ele><time>2026-04-04T15:57:58.031Z</time></trkpt><trkpt lat="43.251406" lon="12.2295813"><ele>516.0</ele><time>2026-04-04T15:57:59.035Z</time></trkpt><trkpt lat="43.2514289" lon="12.2296739"><ele>512.6</ele><time>2026-04-04T15:58:00.031Z</time></trkpt><trkpt lat="43.2515279" lon="12.2297649"><ele>509.20000000000005</ele><time>2026-04-04T15:58:02.036Z</time></trkpt><trkpt lat="43.2516684" lon="12.2297352"><ele>505.79999999999995</ele><time>2026-04-04T15:58:04.029Z</time></trkpt><trkpt lat="43.251757" lon="12.2297076"><ele>502.4</ele><time>2026-04-04T15:58:05.027Z</time></trkpt><trkpt lat="43.2518379" lon="12.2297003"><ele>499.0</ele><time>2026-04-04T15:58:06.033Z</time></trkpt><trkpt lat="43.2519108" lon="12.2297758"><ele>500.1666666666667</ele><time>2026-04-04T15:58:08.033Z</time></trkpt><trkpt lat="43.2519162" lon="12.2299479"><ele>501.33333333333337</ele><time>2026-04-04T15:58:10.029Z</time></trkpt><trkpt lat="43.2518941" lon="12.2300529"><ele>502.5</ele><time>2026-04-04T15:58:11.03Z</time></trkpt><trkpt lat="43.2518759" lon="12.2301477"><ele>503.66666666666663</ele><time>2026-04-04T15:58:12.031Z</time></trkpt><trkpt lat="43.2518593" lon="12.2302329"><ele>504.8333333333333</ele><time>2026-04-04T15:58:13.028Z</time></trkpt><trkpt lat="43.2518631" lon="12.230382"><ele>506.0</ele><time>2026-04-04T15:58:15.034Z</time></trkpt><trkpt lat="43.2518991" lon="12.2305258"><ele>505.99999999999994</ele><time>2026-04-04T15:58:17.031Z</time></trkpt><trkpt lat="43.2519364" lon="12.2306122"><ele>506.0</ele><time>2026-04-04T15:58:19.029Z</time></trkpt><trkpt lat="43.2519895" lon="12.2306634"><ele>506.0</ele><time>2026-04-04T15:58:21.022Z</time></trkpt><trkpt lat="43.2520618" lon="12.2306351"><ele>506.0</ele><time>2026-04-04T15:58:25.035Z</time></trkpt><trkpt lat="43.2521166" lon="12.2305184"><ele>505.99999999999994</ele><time>2026-04-04T15:58:45.027Z</time></trkpt><trkpt lat="43.2521802" lon="12.2304002"><ele>506.0</ele><time>2026-04-04T15:58:47.03Z</time></trkpt><trkpt lat="43.2522426" lon="12.2302913"><ele>503.8333333333333</ele><time>2026-04-04T15:58:49.026Z</time></trkpt><trkpt lat="43.2523089" lon="12.2301896"><ele>501.66666666666663</ele><time>2026-04-04T15:58:51.025Z</time></trkpt><trkpt lat="43.2523599" lon="12.2300876"><ele>499.5</ele><time>2026-04-04T15:58:53.033Z</time></trkpt><trkpt lat="43.2524108" lon="12.2300025"><ele>497.33333333333337</ele><time>2026-04-04T15:58:55.042Z</time></trkpt><trkpt lat="43.2524544" lon="12.2299029"><ele>495.1666666666667</ele><time>2026-04-04T15:58:57.03Z</time></trkpt><trkpt lat="43.2524954" lon="12.2298063"><ele>493.0</ele><time>2026-04-04T15:58:59.028Z</time></trkpt><trkpt lat="43.2525184" lon="12.229669"><ele>491.2</ele><time>2026-04-04T15:59:01.03Z</time></trkpt><trkpt lat="43.2525609" lon="12.2295408"><ele>489.4</ele><time>2026-04-04T15:59:03.04Z</time></trkpt><trkpt lat="43.2526032" lon="12.2294178"><ele>487.59999999999997</ele><time>2026-04-04T15:59:05.031Z</time></trkpt><trkpt lat="43.2526754" lon="12.2293368"><ele>485.79999999999995</ele><time>2026-04-04T15:59:07.036Z</time></trkpt><trkpt lat="43.2527487" lon="12.2292621"><ele>484.0</ele><time>2026-04-04T15:59:09.036Z</time></trkpt><trkpt lat="43.2528275" lon="12.2291548"><ele>484.0</ele><time>2026-04-04T15:59:11.035Z</time></trkpt><trkpt lat="43.2529176" lon="12.2290861"><ele>484.0</ele><time>2026-04-04T15:59:13.039Z</time></trkpt><trkpt lat="43.2530095" lon="12.2291111"><ele>484.0</ele><time>2026-04-04T15:59:15.037Z</time></trkpt><trkpt lat="43.2530895" lon="12.2292146"><ele>484.0</ele><time>2026-04-04T15:59:17.033Z</time></trkpt><trkpt lat="43.2531387" lon="12.2293463"><ele>484.0</ele><time>2026-04-04T15:59:19.038Z</time></trkpt><trkpt lat="43.2531628" lon="12.2294974"><ele>482.4</ele><time>2026-04-04T15:59:21.04Z</time></trkpt><trkpt lat="43.2532022" lon="12.2296109"><ele>480.79999999999995</ele><time>2026-04-04T15:59:23.036Z</time></trkpt><trkpt lat="43.2533206" lon="12.2296217"><ele>479.20000000000005</ele><time>2026-04-04T15:59:25.031Z</time></trkpt><trkpt lat="43.2534003" lon="12.2296126"><ele>477.6</ele><time>2026-04-04T15:59:26.025Z</time></trkpt><trkpt lat="43.25349" lon="12.2296246"><ele>476.0</ele><time>2026-04-04T15:59:27.028Z</time></trkpt><trkpt lat="43.2535884" lon="12.2296292"><ele>475.99999999999994</ele><time>2026-04-04T15:59:28.035Z</time></trkpt><trkpt lat="43.2536757" lon="12.2296403"><ele>476.0</ele><time>2026-04-04T15:59:29.03Z</time></trkpt><trkpt lat="43.2537645" lon="12.2296444"><ele>476.0</ele><time>2026-04-04T15:59:30.039Z</time></trkpt><trkpt lat="43.2538604" lon="12.2296426"><ele>476.0</ele><time>2026-04-04T15:59:31.027Z</time></trkpt><trkpt lat="43.2539351" lon="12.2296442"><ele>475.99999999999994</ele><time>2026-04-04T15:59:32.045Z</time></trkpt><trkpt lat="43.2539992" lon="12.2296307"><ele>476.0</ele><time>2026-04-04T15:59:40.028Z</time></trkpt><trkpt lat="43.2540717" lon="12.2296234"><ele>476.3333333333333</ele><time>2026-04-04T16:01:12.035Z</time></trkpt><trkpt lat="43.2541447" lon="12.2296323"><ele>476.66666666666663</ele><time>2026-04-04T16:02:22.032Z</time></trkpt><trkpt lat="43.2542246" lon="12.2296258"><ele>477.0</ele><time>2026-04-04T16:02:24.03Z</time></trkpt><trkpt lat="43.2543213" lon="12.2296245"><ele>477.33333333333337</ele><time>2026-04-04T16:02:26.025Z</time></trkpt><trkpt lat="43.2543773" lon="12.229575"><ele>477.6666666666667</ele><time>2026-04-04T16:02:28.034Z</time></trkpt><trkpt lat="43.254433" lon="12.2295012"><ele>478.0</ele><time>2026-04-04T16:02:30.029Z</time></trkpt><trkpt lat="43.2545089" lon="12.229417"><ele>478.00000000000006</ele><time>2026-04-04T16:02:32.034Z</time></trkpt><trkpt lat="43.2546023" lon="12.2293246"><ele>478.0</ele><time>2026-04-04T16:02:34.029Z</time></trkpt><trkpt lat="43.2546585" lon="12.2292726"><ele>478.0</ele><time>2026-04-04T16:02:35.024Z</time></trkpt><trkpt lat="43.2547151" lon="12.2292153"><ele>478.0</ele><time>2026-04-04T16:02:36.038Z</time></trkpt><trkpt lat="43.2547645" lon="12.2291479"><ele>478.00000000000006</ele><time>2026-04-04T16:02:37.03Z</time></trkpt><trkpt lat="43.2548116" lon="12.2290852"><ele>478.0</ele><time>2026-04-04T16:02:38.034Z</time></trkpt><trkpt lat="43.2548642" lon="12.2290192"><ele>478.83333333333337</ele><time>2026-04-04T16:02:39.037Z</time></trkpt><trkpt lat="43.2549232" lon="12.2289417"><ele>479.6666666666667</ele><time>2026-04-04T16:02:40.026Z</time></trkpt><trkpt lat="43.2549847" lon="12.2288574"><ele>480.5</ele><time>2026-04-04T16:02:41.042Z</time></trkpt><trkpt lat="43.2550265" lon="12.2287881"><ele>481.33333333333337</ele><time>2026-04-04T16:02:42.026Z</time></trkpt><trkpt lat="43.2550876" lon="12.2286803"><ele>482.1666666666667</ele><time>2026-04-04T16:02:44.031Z</time></trkpt><trkpt lat="43.2551232" lon="12.2285981"><ele>483.0</ele><time>2026-04-04T16:02:46.035Z</time></trkpt><trkpt lat="43.2551885" lon="12.22848"><ele>483.0</ele><time>2026-04-04T16:02:49.033Z</time></trkpt><trkpt lat="43.2552408" lon="12.2283693"><ele>482.99999999999994</ele><time>2026-04-04T16:02:51.034Z</time></trkpt><trkpt lat="43.2552807" lon="12.2282603"><ele>482.99999999999994</ele><time>2026-04-04T16:02:53.038Z</time></trkpt><trkpt lat="43.2552996" lon="12.2281772"><ele>483.0</ele><time>2026-04-04T16:02:55.034Z</time></trkpt><trkpt lat="43.255331" lon="12.2280766"><ele>483.0</ele><time>2026-04-04T16:02:58.03Z</time></trkpt><trkpt lat="43.2546585" lon="12.2292726"><ele>483.0</ele><time>2026-04-04T16:02:35.024Z</time></trkpt><trkpt lat="43.2547151" lon="12.2292153"><ele>483.0</ele><time>2026-04-04T16:02:36.038Z</time></trkpt><trkpt lat="43.2547645" lon="12.2291479"><ele>483.0</ele><time>2026-04-04T16:02:37.03Z</time></trkpt><trkpt lat="43.2548116" lon="12.2290852"><ele>483.0</ele><time>2026-04-04T16:02:38.034Z</time></trkpt><trkpt lat="43.2548642" lon="12.2290192"><ele>483.0</ele><time>2026-04-04T16:02:39.037Z</time></trkpt><trkpt lat="43.2549232" lon="12.2289417"><ele>483.0</ele><time>2026-04-04T16:02:40.026Z</time></trkpt><trkpt lat="43.2549847" lon="12.2288574"><ele>483.0</ele><time>2026-04-04T16:02:41.042Z</time></trkpt><trkpt lat="43.2550265" lon="12.2287881"><ele>483.0</ele><time>2026-04-04T16:02:42.026Z</time></trkpt><trkpt lat="43.2550876" lon="12.2286803"><ele>482.99999999999994</ele><time>2026-04-04T16:02:44.031Z</time></trkpt><trkpt lat="43.2551232" lon="12.2285981"><ele>482.99999999999994</ele><time>2026-04-04T16:02:46.035Z</time></trkpt><trkpt lat="43.2551885" lon="12.22848"><ele>483.0</ele><time>2026-04-04T16:02:49.033Z</time></trkpt><trkpt lat="43.2552408" lon="12.2283693"><ele>483.0</ele><time>2026-04-04T16:02:51.034Z</time></trkpt><trkpt lat="43.2552807" lon="12.2282603"><ele>483.0</ele><time>2026-04-04T16:02:53.038Z</time></trkpt><trkpt lat="43.2552996" lon="12.2281772"><ele>483.0</ele><time>2026-04-04T16:02:55.034Z</time></trkpt><trkpt lat="43.255331" lon="12.2280766"><ele>483.0</ele><time>2026-04-04T16:02:58.03Z</time></trkpt><trkpt lat="43.2553279" lon="12.2281959"><ele>483.0</ele><time>2026-04-04T16:03:28.036Z</time></trkpt><trkpt lat="43.2553056" lon="12.2282885"><ele>483.0</ele><time>2026-04-04T16:03:30.032Z</time></trkpt><trkpt lat="43.2552756" lon="12.2283652"><ele>483.0</ele><time>2026-04-04T16:03:32.036Z</time></trkpt><trkpt lat="43.2552413" lon="12.2284422"><ele>483.0</ele><time>2026-04-04T16:03:34.042Z</time></trkpt><trkpt lat="43.255191" lon="12.2285159"><ele>483.0</ele><time>2026-04-04T16:03:36.03Z</time></trkpt><trkpt lat="43.2551481" lon="12.2285833"><ele>483.0</ele><time>2026-04-04T16:03:38.04Z</time></trkpt><trkpt lat="43.2552106" lon="12.2286383"><ele>483.0</ele><time>2026-04-04T16:03:48.033Z</time></trkpt><trkpt lat="43.2552947" lon="12.228632"><ele>483.0</ele><time>2026-04-04T16:03:50.035Z</time></trkpt><trkpt lat="43.2553857" lon="12.2286366"><ele>483.0</ele><time>2026-04-04T16:03:52.033Z</time></trkpt><trkpt lat="43.255471" lon="12.2286556"><ele>483.0</ele><time>2026-04-04T16:03:54.044Z</time></trkpt><trkpt lat="43.2555502" lon="12.2286835"><ele>485.3333333333333</ele><time>2026-04-04T16:03:56.027Z</time></trkpt><trkpt lat="43.2556213" lon="12.2287291"><ele>487.66666666666663</ele><time>2026-04-04T16:03:58.035Z</time></trkpt><trkpt lat="43.2556958" lon="12.228784"><ele>490.0</ele><time>2026-04-04T16:04:00.032Z</time></trkpt><trkpt lat="43.255781" lon="12.2288516"><ele>492.3333333333333</ele><time>2026-04-04T16:04:02.032Z</time></trkpt><trkpt lat="43.2558541" lon="12.2289219"><ele>494.66666666666663</ele><time>2026-04-04T16:04:04.028Z</time></trkpt><trkpt lat="43.2559207" lon="12.2289566"><ele>497.0</ele><time>2026-04-04T16:04:07.027Z</time></trkpt><trkpt lat="43.255996" lon="12.2289442"><ele>497.0</ele><time>2026-04-04T16:04:12.036Z</time></trkpt><trkpt lat="43.2560937" lon="12.2289448"><ele>497.00000000000006</ele><time>2026-04-04T16:04:14.037Z</time></trkpt><trkpt lat="43.2562023" lon="12.2289383"><ele>497.00000000000006</ele><time>2026-04-04T16:04:16.034Z</time></trkpt><trkpt lat="43.2563017" lon="12.2289596"><ele>497.0</ele><time>2026-04-04T16:04:18.046Z</time></trkpt><trkpt lat="43.2564141" lon="12.228992"><ele>497.0</ele><time>2026-04-04T16:04:20.027Z</time></trkpt><trkpt lat="43.2565409" lon="12.2289456"><ele>496.99999999999994</ele><time>2026-04-04T16:04:22.034Z</time></trkpt><trkpt lat="43.2565978" lon="12.2288948"><ele>497.0</ele><time>2026-04-04T16:04:23.038Z</time></trkpt><trkpt lat="43.2566579" lon="12.2288352"><ele>497.0</ele><time>2026-04-04T16:04:24.036Z</time></trkpt><trkpt lat="43.2567253" lon="12.2288001"><ele>497.0</ele><time>2026-04-04T16:04:25.041Z</time></trkpt><trkpt lat="43.256804" lon="12.2287613"><ele>496.99999999999994</ele><time>2026-04-04T16:04:26.048Z</time></trkpt><trkpt lat="43.2568862" lon="12.2287255"><ele>497.0</ele><time>2026-04-04T16:04:27.037Z</time></trkpt><trkpt lat="43.2569677" lon="12.2286985"><ele>497.0</ele><time>2026-04-04T16:04:28.04Z</time></trkpt><trkpt lat="43.257041" lon="12.228664"><ele>497.00000000000006</ele><time>2026-04-04T16:04:29.032Z</time></trkpt><trkpt lat="43.2571052" lon="12.2286427"><ele>497.00000000000006</ele><time>2026-04-04T16:04:30.034Z</time></trkpt><trkpt lat="43.2572091" lon="12.2286503"><ele>497.0</ele><time>2026-04-04T16:04:32.032Z</time></trkpt><trkpt lat="43.2573171" lon="12.2287673"><ele>497.0</ele><time>2026-04-04T16:04:34.048Z</time></trkpt><trkpt lat="43.2573668" lon="12.2288599"><ele>498.0</ele><time>2026-04-04T16:04:35.031Z</time></trkpt><trkpt lat="43.2574146" lon="12.2289494"><ele>499.00000000000006</ele><time>2026-04-04T16:04:36.039Z</time></trkpt><trkpt lat="43.2574573" lon="12.2290286"><ele>500.00000000000006</ele><time>2026-04-04T16:04:37.035Z</time></trkpt><trkpt lat="43.2575314" lon="12.2291548"><ele>501.0</ele><time>2026-04-04T16:04:39.034Z</time></trkpt><trkpt lat="43.2575855" lon="12.2292613"><ele>502.0</ele><time>2026-04-04T16:04:41.039Z</time></trkpt><trkpt lat="43.2576456" lon="12.2293587"><ele>502.00000000000006</ele><time>2026-04-04T16:04:43.037Z</time></trkpt><trkpt lat="43.2577149" lon="12.2294042"><ele>502.0</ele><time>2026-04-04T16:04:45.034Z</time></trkpt><trkpt lat="43.2577909" lon="12.2293914"><ele>502.0</ele><time>2026-04-04T16:04:54.032Z</time></trkpt><trkpt lat="43.2578662" lon="12.2294019"><ele>502.0</ele><time>2026-04-04T16:04:55.029Z</time></trkpt><trkpt lat="43.2579687" lon="12.2294215"><ele>502.00000000000006</ele><time>2026-04-04T16:04:56.04Z</time></trkpt><trkpt lat="43.2580671" lon="12.2294427"><ele>502.0</ele><time>2026-04-04T16:04:57.038Z</time></trkpt><trkpt lat="43.2581618" lon="12.2294825"><ele>500.6</ele><time>2026-04-04T16:04:58.036Z</time></trkpt><trkpt lat="43.2582573" lon="12.2295252"><ele>499.20000000000005</ele><time>2026-04-04T16:04:59.041Z</time></trkpt><trkpt lat="43.2583515" lon="12.2295693"><ele>497.8</ele><time>2026-04-04T16:05:00.034Z</time></trkpt><trkpt lat="43.2584448" lon="12.229596"><ele>496.4</ele><time>2026-04-04T16:05:01.036Z</time></trkpt><trkpt lat="43.25853" lon="12.2296078"><ele>495.0</ele><time>2026-04-04T16:05:02.038Z</time></trkpt><trkpt lat="43.2586128" lon="12.2296158"><ele>495.0</ele><time>2026-04-04T16:05:03.04Z</time></trkpt><trkpt lat="43.2586823" lon="12.2296333"><ele>495.0</ele><time>2026-04-04T16:05:04.038Z</time></trkpt><trkpt lat="43.2587724" lon="12.2297352"><ele>495.0</ele><time>2026-04-04T16:05:06.042Z</time></trkpt><trkpt lat="43.2588146" lon="12.2298945"><ele>495.0</ele><time>2026-04-04T16:05:08.031Z</time></trkpt><trkpt lat="43.2588315" lon="12.2299915"><ele>495.0</ele><time>2026-04-04T16:05:09.035Z</time></trkpt><trkpt lat="43.2588671" lon="12.2300793"><ele>493.8333333333333</ele><time>2026-04-04T16:05:10.038Z</time></trkpt><trkpt lat="43.2588998" lon="12.2301556"><ele>492.66666666666663</ele><time>2026-04-04T16:05:11.034Z</time></trkpt><trkpt lat="43.2589914" lon="12.2302269"><ele>491.5</ele><time>2026-04-04T16:05:13.043Z</time></trkpt><trkpt lat="43.2590893" lon="12.2301612"><ele>490.3333333333333</ele><time>2026-04-04T16:05:15.044Z</time></trkpt><trkpt lat="43.2591096" lon="12.2300699"><ele>489.16666666666663</ele><time>2026-04-04T16:05:16.025Z</time></trkpt><trkpt lat="43.2591097" lon="12.2299757"><ele>488.0</ele><time>2026-04-04T16:05:17.028Z</time></trkpt><trkpt lat="43.2591076" lon="12.2298685"><ele>487.4</ele><time>2026-04-04T16:05:18.03Z</time></trkpt><trkpt lat="43.2590942" lon="12.2297663"><ele>486.79999999999995</ele><time>2026-04-04T16:05:19.04Z</time></trkpt><trkpt lat="43.2590923" lon="12.2296628"><ele>486.2</ele><time>2026-04-04T16:05:20.031Z</time></trkpt><trkpt lat="43.2590888" lon="12.2295038"><ele>485.6</ele><time>2026-04-04T16:05:22.036Z</time></trkpt><trkpt lat="43.2591086" lon="12.2293785"><ele>485.0</ele><time>2026-04-04T16:05:24.03Z</time></trkpt><trkpt lat="43.2591961" lon="12.2293189"><ele>485.0</ele><time>2026-04-04T16:05:26.031Z</time></trkpt><trkpt lat="43.2593088" lon="12.2293613"><ele>485.0</ele><time>2026-04-04T16:05:28.035Z</time></trkpt><trkpt lat="43.2594069" lon="12.22945"><ele>485.0</ele><time>2026-04-04T16:05:30.034Z</time></trkpt><trkpt lat="43.2594704" lon="12.229595"><ele>485.0</ele><time>2026-04-04T16:05:32.033Z</time></trkpt><trkpt lat="43.2594769" lon="12.2296937"><ele>485.0</ele><time>2026-04-04T16:05:33.026Z</time></trkpt><trkpt lat="43.2594794" lon="12.2297916"><ele>485.4285714285715</ele><time>2026-04-04T16:05:34.031Z</time></trkpt><trkpt lat="43.2594914" lon="12.2298815"><ele>485.8571428571429</ele><time>2026-04-04T16:05:35.032Z</time></trkpt><trkpt lat="43.2595131" lon="12.2299752"><ele>486.2857142857143</ele><time>2026-04-04T16:05:36.039Z</time></trkpt><trkpt lat="43.2595498" lon="12.2300503"><ele>486.7142857142857</ele><time>2026-04-04T16:05:37.029Z</time></trkpt><trkpt lat="43.2596079" lon="12.2301244"><ele>487.1428571428571</ele><time>2026-04-04T16:05:38.028Z</time></trkpt><trkpt lat="43.2596721" lon="12.2301808"><ele>487.5714285714285</ele><time>2026-04-04T16:05:39.031Z</time></trkpt><trkpt lat="43.2597354" lon="12.2302512"><ele>487.99999999999994</ele><time>2026-04-04T16:05:40.028Z</time></trkpt><trkpt lat="43.2597953" lon="12.2303323"><ele>484.8333333333333</ele><time>2026-04-04T16:05:41.024Z</time></trkpt><trkpt lat="43.2598616" lon="12.2304145"><ele>481.66666666666663</ele><time>2026-04-04T16:05:42.035Z</time></trkpt><trkpt lat="43.2598956" lon="12.2305038"><ele>478.5</ele><time>2026-04-04T16:05:43.028Z</time></trkpt><trkpt lat="43.2599309" lon="12.2306062"><ele>475.33333333333337</ele><time>2026-04-04T16:05:44.027Z</time></trkpt><trkpt lat="43.2599566" lon="12.2307248"><ele>472.1666666666667</ele><time>2026-04-04T16:05:45.029Z</time></trkpt><trkpt lat="43.2599827" lon="12.2308408"><ele>469.0</ele><time>2026-04-04T16:05:46.026Z</time></trkpt><trkpt lat="43.2600037" lon="12.2309606"><ele>469.00000000000006</ele><time>2026-04-04T16:05:47.027Z</time></trkpt><trkpt lat="43.2600265" lon="12.2310821"><ele>469.0</ele><time>2026-04-04T16:05:48.016Z</time></trkpt><trkpt lat="43.2600423" lon="12.2311991"><ele>469.0</ele><time>2026-04-04T16:05:49.017Z</time></trkpt><trkpt lat="43.2600618" lon="12.2313108"><ele>469.0</ele><time>2026-04-04T16:05:50.025Z</time></trkpt><trkpt lat="43.2600752" lon="12.231416"><ele>469.00000000000006</ele><time>2026-04-04T16:05:51.022Z</time></trkpt><trkpt lat="43.260082" lon="12.2315123"><ele>469.0</ele><time>2026-04-04T16:05:52.026Z</time></trkpt><trkpt lat="43.2600877" lon="12.2316692"><ele>470.2</ele><time>2026-04-04T16:05:54.031Z</time></trkpt><trkpt lat="43.2601572" lon="12.2317884"><ele>471.4</ele><time>2026-04-04T16:05:56.024Z</time></trkpt><trkpt lat="43.2602231" lon="12.2317918"><ele>472.6</ele><time>2026-04-04T16:05:57.03Z</time></trkpt><trkpt lat="43.2602947" lon="12.2317572"><ele>473.8</ele><time>2026-04-04T16:05:58.029Z</time></trkpt><trkpt lat="43.2603849" lon="12.2317235"><ele>475.0</ele><time>2026-04-04T16:05:59.037Z</time></trkpt><trkpt lat="43.2604946" lon="12.2316918"><ele>475.0</ele><time>2026-04-04T16:06:00.024Z</time></trkpt><trkpt lat="43.2606148" lon="12.231671"><ele>475.0</ele><time>2026-04-04T16:06:01.037Z</time></trkpt><trkpt lat="43.2607292" lon="12.23165"><ele>475.0</ele><time>2026-04-04T16:06:02.028Z</time></trkpt><trkpt lat="43.2608568" lon="12.2316406"><ele>475.0</ele><time>2026-04-04T16:06:03.026Z</time></trkpt><trkpt lat="43.2609804" lon="12.2316205"><ele>473.0</ele><time>2026-04-04T16:06:04.023Z</time></trkpt><trkpt lat="43.2611099" lon="12.2315951"><ele>471.0</ele><time>2026-04-04T16:06:05.023Z</time></trkpt><trkpt lat="43.2612292" lon="12.2315588"><ele>469.0</ele><time>2026-04-04T16:06:06.025Z</time></trkpt><trkpt lat="43.2613464" lon="12.2315179"><ele>467.0</ele><time>2026-04-04T16:06:07.028Z</time></trkpt><trkpt lat="43.2614581" lon="12.2314808"><ele>464.66666666666663</ele><time>2026-04-04T16:06:08.021Z</time></trkpt><trkpt lat="43.2615667" lon="12.2314525"><ele>462.3333333333333</ele><time>2026-04-04T16:06:09.032Z</time></trkpt><trkpt lat="43.2616624" lon="12.2314256"><ele>460.0</ele><time>2026-04-04T16:06:10.026Z</time></trkpt><trkpt lat="43.2617426" lon="12.2314024"><ele>457.66666666666663</ele><time>2026-04-04T16:06:11.04Z</time></trkpt><trkpt lat="43.2618135" lon="12.2313765"><ele>455.3333333333333</ele><time>2026-04-04T16:06:12.035Z</time></trkpt><trkpt lat="43.2618773" lon="12.2313531"><ele>453.0</ele><time>2026-04-04T16:06:13.032Z</time></trkpt><trkpt lat="43.2619821" lon="12.2312945"><ele>453.0</ele><time>2026-04-04T16:06:15.031Z</time></trkpt><trkpt lat="43.2620682" lon="12.2311786"><ele>452.99999999999994</ele><time>2026-04-04T16:06:17.025Z</time></trkpt><trkpt lat="43.2621436" lon="12.231065"><ele>452.99999999999994</ele><time>2026-04-04T16:06:19.026Z</time></trkpt><trkpt lat="43.2622121" lon="12.2309636"><ele>453.0</ele><time>2026-04-04T16:06:21.032Z</time></trkpt><trkpt lat="43.2622896" lon="12.2308921"><ele>453.0</ele><time>2026-04-04T16:06:23.034Z</time></trkpt><trkpt lat="43.2624126" lon="12.2308727"><ele>453.0</ele><time>2026-04-04T16:06:25.034Z</time></trkpt><trkpt lat="43.2624878" lon="12.2308698"><ele>453.0</ele><time>2026-04-04T16:06:26.038Z</time></trkpt><trkpt lat="43.2625676" lon="12.2308709"><ele>453.0</ele><time>2026-04-04T16:06:27.036Z</time></trkpt><trkpt lat="43.2626502" lon="12.2308735"><ele>453.0</ele><time>2026-04-04T16:06:28.037Z</time></trkpt><trkpt lat="43.2627312" lon="12.2308799"><ele>453.0</ele><time>2026-04-04T16:06:29.042Z</time></trkpt><trkpt lat="43.262815" lon="12.2308836"><ele>453.0</ele><time>2026-04-04T16:06:30.04Z</time></trkpt><trkpt lat="43.2628929" lon="12.2308907"><ele>453.0</ele><time>2026-04-04T16:06:31.048Z</time></trkpt><trkpt lat="43.262956" lon="12.2309217"><ele>453.0</ele><time>2026-04-04T16:06:32.035Z</time></trkpt><trkpt lat="43.2630191" lon="12.2309768"><ele>453.0</ele><time>2026-04-04T16:06:33.031Z</time></trkpt><trkpt lat="43.2630791" lon="12.2310538"><ele>453.0</ele><time>2026-04-04T16:06:34.039Z</time></trkpt><trkpt lat="43.2631328" lon="12.2311469"><ele>453.0</ele><time>2026-04-04T16:06:35.032Z</time></trkpt><trkpt lat="43.2631876" lon="12.2312507"><ele>453.0</ele><time>2026-04-04T16:06:36.035Z</time></trkpt><trkpt lat="43.2632353" lon="12.2313608"><ele>453.79999999999995</ele><time>2026-04-04T16:06:37.032Z</time></trkpt><trkpt lat="43.2632907" lon="12.2314761"><ele>454.59999999999997</ele><time>2026-04-04T16:06:38.046Z</time></trkpt><trkpt lat="43.2633461" lon="12.2315904"><ele>455.40000000000003</ele><time>2026-04-04T16:06:39.029Z</time></trkpt><trkpt lat="43.2634016" lon="12.2317116"><ele>456.20000000000005</ele><time>2026-04-04T16:06:40.035Z</time></trkpt><trkpt lat="43.263454" lon="12.2318261"><ele>457.0</ele><time>2026-04-04T16:06:41.033Z</time></trkpt><trkpt lat="43.2635097" lon="12.2319493"><ele>457.0</ele><time>2026-04-04T16:06:42.041Z</time></trkpt><trkpt lat="43.2635654" lon="12.2320768"><ele>457.00000000000006</ele><time>2026-04-04T16:06:43.028Z</time></trkpt><trkpt lat="43.2636255" lon="12.2322043"><ele>457.00000000000006</ele><time>2026-04-04T16:06:44.036Z</time></trkpt><trkpt lat="43.2636896" lon="12.232329"><ele>457.0</ele><time>2026-04-04T16:06:45.024Z</time></trkpt><trkpt lat="43.2637523" lon="12.2324501"><ele>457.0</ele><time>2026-04-04T16:06:46.032Z</time></trkpt><trkpt lat="43.26381" lon="12.2325649"><ele>456.8</ele><time>2026-04-04T16:06:47.036Z</time></trkpt><trkpt lat="43.2638682" lon="12.2326701"><ele>456.6</ele><time>2026-04-04T16:06:48.033Z</time></trkpt><trkpt lat="43.2639223" lon="12.2327453"><ele>456.40000000000003</ele><time>2026-04-04T16:06:49.028Z</time></trkpt><trkpt lat="43.2640376" lon="12.2327926"><ele>456.20000000000005</ele><time>2026-04-04T16:06:51.03Z</time></trkpt><trkpt lat="43.2641594" lon="12.2328191"><ele>456.0</ele><time>2026-04-04T16:06:53.042Z</time></trkpt><trkpt lat="43.2642313" lon="12.2328318"><ele>456.0</ele><time>2026-04-04T16:06:54.028Z</time></trkpt><trkpt lat="43.264307" lon="12.2328469"><ele>456.0</ele><time>2026-04-04T16:06:55.031Z</time></trkpt><trkpt lat="43.2643807" lon="12.2328497"><ele>456.0</ele><time>2026-04-04T16:06:56.029Z</time></trkpt><trkpt lat="43.2644558" lon="12.2328519"><ele>456.0</ele><time>2026-04-04T16:06:57.025Z</time></trkpt><trkpt lat="43.2645376" lon="12.2328461"><ele>456.0</ele><time>2026-04-04T16:06:58.029Z</time></trkpt><trkpt lat="43.2646235" lon="12.2328154"><ele>456.0</ele><time>2026-04-04T16:06:59.037Z</time></trkpt><trkpt lat="43.264701" lon="12.2327701"><ele>456.0</ele><time>2026-04-04T16:07:00.027Z</time></trkpt><trkpt lat="43.2647776" lon="12.2327266"><ele>456.0</ele><time>2026-04-04T16:07:01.036Z</time></trkpt><trkpt lat="43.2648436" lon="12.2326827"><ele>456.0</ele><time>2026-04-04T16:07:02.024Z</time></trkpt><trkpt lat="43.2649392" lon="12.232603"><ele>456.0</ele><time>2026-04-04T16:07:04.037Z</time></trkpt><trkpt lat="43.2650157" lon="12.2325349"><ele>456.0</ele><time>2026-04-04T16:07:06.041Z</time></trkpt><trkpt lat="43.2650543" lon="12.2324425"><ele>456.0</ele><time>2026-04-04T16:07:08.024Z</time></trkpt><trkpt lat="43.2650238" lon="12.2322609"><ele>452.8333333333333</ele><time>2026-04-04T16:07:10.034Z</time></trkpt><trkpt lat="43.2649972" lon="12.2321447"><ele>449.66666666666663</ele><time>2026-04-04T16:07:11.034Z</time></trkpt><trkpt lat="43.2649782" lon="12.2320185"><ele>446.5</ele><time>2026-04-04T16:07:12.029Z</time></trkpt><trkpt lat="43.2649861" lon="12.231899"><ele>443.3333333333333</ele><time>2026-04-04T16:07:13.028Z</time></trkpt><trkpt lat="43.2650051" lon="12.2317817"><ele>440.16666666666663</ele><time>2026-04-04T16:07:14.017Z</time></trkpt><trkpt lat="43.2650375" lon="12.2316692"><ele>437.0</ele><time>2026-04-04T16:07:15.024Z</time></trkpt><trkpt lat="43.2650791" lon="12.2315627"><ele>436.0</ele><time>2026-04-04T16:07:16.026Z</time></trkpt><trkpt lat="43.2651186" lon="12.2314635"><ele>435.00000000000006</ele><time>2026-04-04T16:07:17.043Z</time></trkpt><trkpt lat="43.2651652" lon="12.2313529"><ele>434.00000000000006</ele><time>2026-04-04T16:07:18.03Z</time></trkpt><trkpt lat="43.2652004" lon="12.2312536"><ele>433.0</ele><time>2026-04-04T16:07:19.033Z</time></trkpt><trkpt lat="43.2652331" lon="12.2311329"><ele>432.0</ele><time>2026-04-04T16:07:20.026Z</time></trkpt><trkpt lat="43.2652524" lon="12.2309957"><ele>432.0</ele><time>2026-04-04T16:07:21.037Z</time></trkpt><trkpt lat="43.2652612" lon="12.2308522"><ele>432.0</ele><time>2026-04-04T16:07:22.032Z</time></trkpt><trkpt lat="43.2652719" lon="12.2307184"><ele>432.0</ele><time>2026-04-04T16:07:23.028Z</time></trkpt><trkpt lat="43.2652837" lon="12.230604"><ele>432.0</ele><time>2026-04-04T16:07:24.033Z</time></trkpt><trkpt lat="43.2652933" lon="12.2304947"><ele>432.0</ele><time>2026-04-04T16:07:25.033Z</time></trkpt><trkpt lat="43.2653047" lon="12.2303899"><ele>432.0</ele><time>2026-04-04T16:07:26.033Z</time></trkpt><trkpt lat="43.2653288" lon="12.2302948"><ele>431.0</ele><time>2026-04-04T16:07:27.032Z</time></trkpt><trkpt lat="43.2653769" lon="12.230219"><ele>430.0</ele><time>2026-04-04T16:07:28.03Z</time></trkpt><trkpt lat="43.2654393" lon="12.2301399"><ele>429.0</ele><time>2026-04-04T16:07:29.039Z</time></trkpt><trkpt lat="43.2655152" lon="12.23008"><ele>428.0</ele><time>2026-04-04T16:07:30.033Z</time></trkpt><trkpt lat="43.2655913" lon="12.2300189"><ele>427.0</ele><time>2026-04-04T16:07:31.036Z</time></trkpt><trkpt lat="43.2656538" lon="12.2299499"><ele>426.0</ele><time>2026-04-04T16:07:32.031Z</time></trkpt><trkpt lat="43.2657088" lon="12.2298768"><ele>422.5</ele><time>2026-04-04T16:07:33.037Z</time></trkpt><trkpt lat="43.2657652" lon="12.2297882"><ele>419.0</ele><time>2026-04-04T16:07:34.035Z</time></trkpt><trkpt lat="43.2658191" lon="12.2296929"><ele>415.5</ele><time>2026-04-04T16:07:35.037Z</time></trkpt><trkpt lat="43.2658785" lon="12.2296006"><ele>412.0</ele><time>2026-04-04T16:07:36.045Z</time></trkpt><trkpt lat="43.2659333" lon="12.2295072"><ele>408.5</ele><time>2026-04-04T16:07:37.038Z</time></trkpt><trkpt lat="43.2659833" lon="12.2294142"><ele>405.0</ele><time>2026-04-04T16:07:38.03Z</time></trkpt><trkpt lat="43.266023" lon="12.2293064"><ele>405.0</ele><time>2026-04-04T16:07:39.035Z</time></trkpt><trkpt lat="43.2660486" lon="12.2291972"><ele>405.0</ele><time>2026-04-04T16:07:40.038Z</time></trkpt><trkpt lat="43.2660491" lon="12.2290857"><ele>405.0</ele><time>2026-04-04T16:07:41.04Z</time></trkpt><trkpt lat="43.2660369" lon="12.2289685"><ele>405.0</ele><time>2026-04-04T16:07:42.036Z</time></trkpt><trkpt lat="43.2660084" lon="12.2288708"><ele>405.0</ele><time>2026-04-04T16:07:43.041Z</time></trkpt><trkpt lat="43.2659824" lon="12.228791"><ele>405.0</ele><time>2026-04-04T16:07:44.032Z</time></trkpt><trkpt lat="43.2659757" lon="12.2286627"><ele>403.0</ele><time>2026-04-04T16:07:46.035Z</time></trkpt><trkpt lat="43.2660469" lon="12.2285554"><ele>401.0</ele><time>2026-04-04T16:07:48.032Z</time></trkpt><trkpt lat="43.2661308" lon="12.2284334"><ele>399.0</ele><time>2026-04-04T16:07:50.034Z</time></trkpt><trkpt lat="43.2661621" lon="12.228268"><ele>397.0</ele><time>2026-04-04T16:07:52.023Z</time></trkpt><trkpt lat="43.2661459" lon="12.2281742"><ele>395.0</ele><time>2026-04-04T16:07:53.034Z</time></trkpt><trkpt lat="43.2661132" lon="12.2280666"><ele>393.4</ele><time>2026-04-04T16:07:54.033Z</time></trkpt><trkpt lat="43.2660823" lon="12.2279433"><ele>391.8</ele><time>2026-04-04T16:07:55.029Z</time></trkpt><trkpt lat="43.266088" lon="12.2278065"><ele>390.20000000000005</ele><time>2026-04-04T16:07:56.036Z</time></trkpt><trkpt lat="43.2660994" lon="12.2276716"><ele>388.6</ele><time>2026-04-04T16:07:57.032Z</time></trkpt><trkpt lat="43.2661194" lon="12.2275284"><ele>387.0</ele><time>2026-04-04T16:07:58.034Z</time></trkpt><trkpt lat="43.2661423" lon="12.2273872"><ele>384.5</ele><time>2026-04-04T16:07:59.032Z</time></trkpt><trkpt lat="43.2661675" lon="12.2272634"><ele>382.0</ele><time>2026-04-04T16:08:00.028Z</time></trkpt><trkpt lat="43.2661927" lon="12.2271446"><ele>379.5</ele><time>2026-04-04T16:08:01.027Z</time></trkpt><trkpt lat="43.2662139" lon="12.2270356"><ele>377.0</ele><time>2026-04-04T16:08:02.032Z</time></trkpt><trkpt lat="43.2662335" lon="12.2269368"><ele>374.5</ele><time>2026-04-04T16:08:03.029Z</time></trkpt><trkpt lat="43.2662544" lon="12.2268477"><ele>372.0</ele><time>2026-04-04T16:08:04.033Z</time></trkpt><trkpt lat="43.266334" lon="12.22672"><ele>372.0</ele><time>2026-04-04T16:08:06.031Z</time></trkpt><trkpt lat="43.2663946" lon="12.2266789"><ele>372.0</ele><time>2026-04-04T16:08:07.033Z</time></trkpt><trkpt lat="43.266462" lon="12.2266532"><ele>372.0</ele><time>2026-04-04T16:08:08.032Z</time></trkpt><trkpt lat="43.266524" lon="12.2266259"><ele>372.0</ele><time>2026-04-04T16:08:09.03Z</time></trkpt><trkpt lat="43.2666336" lon="12.2265371"><ele>372.0</ele><time>2026-04-04T16:08:11.047Z</time></trkpt><trkpt lat="43.2666704" lon="12.2264421"><ele>372.0</ele><time>2026-04-04T16:08:12.037Z</time></trkpt><trkpt lat="43.2666931" lon="12.2263308"><ele>368.20000000000005</ele><time>2026-04-04T16:08:13.033Z</time></trkpt><trkpt lat="43.2667148" lon="12.2262166"><ele>364.4</ele><time>2026-04-04T16:08:14.048Z</time></trkpt><trkpt lat="43.2667409" lon="12.2261053"><ele>360.6</ele><time>2026-04-04T16:08:15.046Z</time></trkpt><trkpt lat="43.2667602" lon="12.2260039"><ele>356.79999999999995</ele><time>2026-04-04T16:08:16.036Z</time></trkpt><trkpt lat="43.2667632" lon="12.2258335"><ele>353.0</ele><time>2026-04-04T16:08:18.03Z</time></trkpt><trkpt lat="43.2666878" lon="12.2257182"><ele>350.4</ele><time>2026-04-04T16:08:20.023Z</time></trkpt><trkpt lat="43.2666105" lon="12.2255845"><ele>347.79999999999995</ele><time>2026-04-04T16:08:22.035Z</time></trkpt><trkpt lat="43.2666075" lon="12.2254952"><ele>345.2</ele><time>2026-04-04T16:08:23.026Z</time></trkpt><trkpt lat="43.266625" lon="12.2253978"><ele>342.6</ele><time>2026-04-04T16:08:24.033Z</time></trkpt><trkpt lat="43.266623" lon="12.2253064"><ele>340.0</ele><time>2026-04-04T16:08:25.037Z</time></trkpt><trkpt lat="43.2665643" lon="12.2251403"><ele>340.0</ele><time>2026-04-04T16:08:27.027Z</time></trkpt><trkpt lat="43.2665153" lon="12.2250601"><ele>340.0</ele><time>2026-04-04T16:08:28.033Z</time></trkpt><trkpt lat="43.2664495" lon="12.2249992"><ele>340.0</ele><time>2026-04-04T16:08:29.029Z</time></trkpt><trkpt lat="43.2663907" lon="12.2249629"><ele>340.0</ele><time>2026-04-04T16:08:30.036Z</time></trkpt><trkpt lat="43.2662825" lon="12.2249258"><ele>340.0</ele><time>2026-04-04T16:08:32.028Z</time></trkpt><trkpt lat="43.2662351" lon="12.2248614"><ele>340.0</ele><time>2026-04-04T16:08:34.024Z</time></trkpt><trkpt lat="43.2662835" lon="12.2247485"><ele>339.0</ele><time>2026-04-04T16:08:36.029Z</time></trkpt><trkpt lat="43.2663307" lon="12.2246847"><ele>338.0</ele><time>2026-04-04T16:08:37.026Z</time></trkpt><trkpt lat="43.2663948" lon="12.2246118"><ele>337.0</ele><time>2026-04-04T16:08:38.03Z</time></trkpt><trkpt lat="43.2664545" lon="12.2245468"><ele>336.0</ele><time>2026-04-04T16:08:39.03Z</time></trkpt><trkpt lat="43.2665163" lon="12.2244629"><ele>335.0</ele><time>2026-04-04T16:08:40.025Z</time></trkpt><trkpt lat="43.2665703" lon="12.224376"><ele>334.0</ele><time>2026-04-04T16:08:41.036Z</time></trkpt><trkpt lat="43.2666244" lon="12.2242733"><ele>334.0</ele><time>2026-04-04T16:08:42.03Z</time></trkpt><trkpt lat="43.2666836" lon="12.2241581"><ele>334.0</ele><time>2026-04-04T16:08:43.034Z</time></trkpt><trkpt lat="43.2667377" lon="12.2240393"><ele>334.0</ele><time>2026-04-04T16:08:44.03Z</time></trkpt><trkpt lat="43.2667832" lon="12.2239261"><ele>334.0</ele><time>2026-04-04T16:08:45.034Z</time></trkpt><trkpt lat="43.2668282" lon="12.2238006"><ele>334.0</ele><time>2026-04-04T16:08:46.039Z</time></trkpt><trkpt lat="43.2668709" lon="12.2236632"><ele>333.75</ele><time>2026-04-04T16:08:47.027Z</time></trkpt><trkpt lat="43.2669162" lon="12.2235177"><ele>333.5</ele><time>2026-04-04T16:08:48.029Z</time></trkpt><trkpt lat="43.2669669" lon="12.2233764"><ele>333.25</ele><time>2026-04-04T16:08:49.021Z</time></trkpt><trkpt lat="43.2670258" lon="12.2232359"><ele>333.0</ele><time>2026-04-04T16:08:50.021Z</time></trkpt><trkpt lat="43.2670878" lon="12.2230976"><ele>333.0</ele><time>2026-04-04T16:08:51.043Z</time></trkpt><trkpt lat="43.2671476" lon="12.2229691"><ele>333.0</ele><time>2026-04-04T16:08:52.025Z</time></trkpt><trkpt lat="43.2672032" lon="12.2228353"><ele>333.0</ele><time>2026-04-04T16:08:53.028Z</time></trkpt><trkpt lat="43.2672529" lon="12.2227035"><ele>333.0</ele><time>2026-04-04T16:08:54.026Z</time></trkpt><trkpt lat="43.2673044" lon="12.2225754"><ele>333.0</ele><time>2026-04-04T16:08:55.021Z</time></trkpt><trkpt lat="43.2673539" lon="12.2224457"><ele>331.4</ele><time>2026-04-04T16:08:56.031Z</time></trkpt><trkpt lat="43.267398" lon="12.2223164"><ele>329.79999999999995</ele><time>2026-04-04T16:08:57.031Z</time></trkpt><trkpt lat="43.2674325" lon="12.2221884"><ele>328.2</ele><time>2026-04-04T16:08:58.033Z</time></trkpt><trkpt lat="43.2674604" lon="12.2220581"><ele>326.6</ele><time>2026-04-04T16:08:59.04Z</time></trkpt><trkpt lat="43.2674871" lon="12.2219141"><ele>325.0</ele><time>2026-04-04T16:09:00.024Z</time></trkpt><trkpt lat="43.2675186" lon="12.2217755"><ele>324.8</ele><time>2026-04-04T16:09:01.031Z</time></trkpt><trkpt lat="43.2675511" lon="12.2216408"><ele>324.6</ele><time>2026-04-04T16:09:02.035Z</time></trkpt><trkpt lat="43.2675818" lon="12.2214925"><ele>324.4</ele><time>2026-04-04T16:09:03.023Z</time></trkpt><trkpt lat="43.267607" lon="12.2213412"><ele>324.2</ele><time>2026-04-04T16:09:04.04Z</time></trkpt><trkpt lat="43.2676271" lon="12.2211935"><ele>324.0</ele><time>2026-04-04T16:09:05.044Z</time></trkpt><trkpt lat="43.2676433" lon="12.221048"><ele>324.5</ele><time>2026-04-04T16:09:06.037Z</time></trkpt><trkpt lat="43.2676433" lon="12.2209062"><ele>325.0</ele><time>2026-04-04T16:09:07.032Z</time></trkpt><trkpt lat="43.2676255" lon="12.2207573"><ele>325.5</ele><time>2026-04-04T16:09:08.032Z</time></trkpt><trkpt lat="43.2675972" lon="12.2205969"><ele>326.0</ele><time>2026-04-04T16:09:09.04Z</time></trkpt><trkpt lat="43.2675568" lon="12.2204393"><ele>327.25</ele><time>2026-04-04T16:09:10.048Z</time></trkpt><trkpt lat="43.2675055" lon="12.2202771"><ele>328.5</ele><time>2026-04-04T16:09:11.032Z</time></trkpt><trkpt lat="43.2674339" lon="12.2201164"><ele>329.75</ele><time>2026-04-04T16:09:12.038Z</time></trkpt><trkpt lat="43.2673488" lon="12.2199455"><ele>331.0</ele><time>2026-04-04T16:09:13.041Z</time></trkpt><trkpt lat="43.2672442" lon="12.2197631"><ele>327.66666666666663</ele><time>2026-04-04T16:09:14.034Z</time></trkpt><trkpt lat="43.2671181" lon="12.2195637"><ele>324.3333333333333</ele><time>2026-04-04T16:09:15.029Z</time></trkpt><trkpt lat="43.2669833" lon="12.2193567"><ele>321.0</ele><time>2026-04-04T16:09:16.033Z</time></trkpt><trkpt lat="43.2668507" lon="12.2191517"><ele>326.3333333333333</ele><time>2026-04-04T16:09:17.032Z</time></trkpt><trkpt lat="43.2667335" lon="12.2189665"><ele>331.66666666666663</ele><time>2026-04-04T16:09:18.039Z</time></trkpt><trkpt lat="43.2666276" lon="12.218796"><ele>337.0</ele><time>2026-04-04T16:09:19.026Z</time></trkpt><trkpt lat="43.2665254" lon="12.2186334"><ele>335.0</ele><time>2026-04-04T16:09:20.023Z</time></trkpt><trkpt lat="43.266436" lon="12.2184794"><ele>333.0</ele><time>2026-04-04T16:09:21.029Z</time></trkpt><trkpt lat="43.2663484" lon="12.2183505"><ele>331.0</ele><time>2026-04-04T16:09:22.03Z</time></trkpt><trkpt lat="43.266253" lon="12.2182311"><ele>329.0</ele><time>2026-04-04T16:09:23.028Z</time></trkpt><trkpt lat="43.2661553" lon="12.2181086"><ele>329.0</ele><time>2026-04-04T16:09:24.032Z</time></trkpt><trkpt lat="43.2660315" lon="12.2179847"><ele>329.0</ele><time>2026-04-04T16:09:25.03Z</time></trkpt><trkpt lat="43.2658917" lon="12.217881"><ele>329.0</ele><time>2026-04-04T16:09:26.029Z</time></trkpt><trkpt lat="43.265761" lon="12.217785"><ele>329.0</ele><time>2026-04-04T16:09:27.025Z</time></trkpt><trkpt lat="43.2656453" lon="12.2176836"><ele>329.0</ele><time>2026-04-04T16:09:28.029Z</time></trkpt><trkpt lat="43.265545" lon="12.2175857"><ele>329.0</ele><time>2026-04-04T16:09:29.035Z</time></trkpt><trkpt lat="43.2654622" lon="12.2175134"><ele>329.0</ele><time>2026-04-04T16:09:30.029Z</time></trkpt><trkpt lat="43.2654107" lon="12.2174583"><ele>329.0</ele><time>2026-04-04T16:09:31.034Z</time></trkpt><trkpt lat="43.2653532" lon="12.2173952"><ele>325.83333333333337</ele><time>2026-04-04T16:09:32.034Z</time></trkpt><trkpt lat="43.2652823" lon="12.2172439"><ele>322.6666666666667</ele><time>2026-04-04T16:09:34.031Z</time></trkpt><trkpt lat="43.2652568" lon="12.2171593"><ele>319.5</ele><time>2026-04-04T16:09:35.033Z</time></trkpt><trkpt lat="43.265236" lon="12.2170645"><ele>316.3333333333333</ele><time>2026-04-04T16:09:36.038Z</time></trkpt><trkpt lat="43.2652281" lon="12.2169659"><ele>313.16666666666663</ele><time>2026-04-04T16:09:37.034Z</time></trkpt><trkpt lat="43.2652277" lon="12.216863"><ele>310.0</ele><time>2026-04-04T16:09:38.043Z</time></trkpt><trkpt lat="43.2652424" lon="12.2167359"><ele>310.0</ele><time>2026-04-04T16:09:39.033Z</time></trkpt><trkpt lat="43.2652739" lon="12.2165914"><ele>310.0</ele><time>2026-04-04T16:09:40.038Z</time></trkpt><trkpt lat="43.2653149" lon="12.2164433"><ele>310.0</ele><time>2026-04-04T16:09:41.038Z</time></trkpt><trkpt lat="43.2653597" lon="12.2162914"><ele>310.0</ele><time>2026-04-04T16:09:42.03Z</time></trkpt><trkpt lat="43.2654073" lon="12.216146"><ele>309.25</ele><time>2026-04-04T16:09:43.036Z</time></trkpt><trkpt lat="43.265453" lon="12.2160029"><ele>308.5</ele><time>2026-04-04T16:09:44.036Z</time></trkpt><trkpt lat="43.265521" lon="12.2158488"><ele>307.75</ele><time>2026-04-04T16:09:45.039Z</time></trkpt><trkpt lat="43.2655963" lon="12.2156895"><ele>307.0</ele><time>2026-04-04T16:09:46.046Z</time></trkpt><trkpt lat="43.2656722" lon="12.2155286"><ele>307.0</ele><time>2026-04-04T16:09:47.028Z</time></trkpt><trkpt lat="43.26575" lon="12.2153641"><ele>307.0</ele><time>2026-04-04T16:09:48.031Z</time></trkpt><trkpt lat="43.2658222" lon="12.2151847"><ele>307.0</ele><time>2026-04-04T16:09:49.039Z</time></trkpt><trkpt lat="43.2658924" lon="12.215001"><ele>307.0</ele><time>2026-04-04T16:09:50.033Z</time></trkpt><trkpt lat="43.2659634" lon="12.214815"><ele>305.75</ele><time>2026-04-04T16:09:51.028Z</time></trkpt><trkpt lat="43.2660362" lon="12.214645"><ele>304.5</ele><time>2026-04-04T16:09:52.027Z</time></trkpt><trkpt lat="43.266103" lon="12.2144832"><ele>303.25</ele><time>2026-04-04T16:09:53.026Z</time></trkpt><trkpt lat="43.2661704" lon="12.2143263"><ele>302.0</ele><time>2026-04-04T16:09:54.034Z</time></trkpt><trkpt lat="43.266236" lon="12.2141779"><ele>302.0</ele><time>2026-04-04T16:09:55.029Z</time></trkpt><trkpt lat="43.2662928" lon="12.2140378"><ele>302.0</ele><time>2026-04-04T16:09:56.03Z</time></trkpt><trkpt lat="43.2663455" lon="12.2139117"><ele>302.0</ele><time>2026-04-04T16:09:57.026Z</time></trkpt><trkpt lat="43.2664014" lon="12.2138027"><ele>302.0</ele><time>2026-04-04T16:09:58.027Z</time></trkpt><trkpt lat="43.2664667" lon="12.2137184"><ele>302.0</ele><time>2026-04-04T16:09:59.026Z</time></trkpt><trkpt lat="43.2665317" lon="12.2136742"><ele>302.00000000000006</ele><time>2026-04-04T16:10:00.031Z</time></trkpt><trkpt lat="43.2665977" lon="12.2136571"><ele>302.0</ele><time>2026-04-04T16:10:01.027Z</time></trkpt><trkpt lat="43.2666712" lon="12.2136706"><ele>302.0</ele><time>2026-04-04T16:10:02.024Z</time></trkpt><trkpt lat="43.2667438" lon="12.2137131"><ele>302.0</ele><time>2026-04-04T16:10:03.015Z</time></trkpt><trkpt lat="43.2668112" lon="12.2137715"><ele>302.0</ele><time>2026-04-04T16:10:04.026Z</time></trkpt><trkpt lat="43.2668746" lon="12.213808"><ele>302.00000000000006</ele><time>2026-04-04T16:10:05.035Z</time></trkpt><trkpt lat="43.2669477" lon="12.2137929"><ele>302.0</ele><time>2026-04-04T16:10:06.035Z</time></trkpt><trkpt lat="43.2670156" lon="12.2137436"><ele>302.0</ele><time>2026-04-04T16:10:07.033Z</time></trkpt><trkpt lat="43.2670587" lon="12.2136767"><ele>302.0</ele><time>2026-04-04T16:10:08.027Z</time></trkpt><trkpt lat="43.2670722" lon="12.2135196"><ele>302.0</ele><time>2026-04-04T16:10:09.028Z</time></trkpt><trkpt lat="43.2670791" lon="12.2133385"><ele>302.0</ele><time>2026-04-04T16:10:10.026Z</time></trkpt><trkpt lat="43.2670878" lon="12.213172"><ele>302.0</ele><time>2026-04-04T16:10:11.026Z</time></trkpt><trkpt lat="43.2671061" lon="12.2130125"><ele>302.2</ele><time>2026-04-04T16:10:12.037Z</time></trkpt><trkpt lat="43.2671272" lon="12.2128708"><ele>302.4</ele><time>2026-04-04T16:10:13.025Z</time></trkpt><trkpt lat="43.2671579" lon="12.2127519"><ele>302.6</ele><time>2026-04-04T16:10:14.031Z</time></trkpt><trkpt lat="43.2672041" lon="12.2126396"><ele>302.8</ele><time>2026-04-04T16:10:15.03Z</time></trkpt><trkpt lat="43.2672678" lon="12.212543"><ele>303.0</ele><time>2026-04-04T16:10:16.029Z</time></trkpt><trkpt lat="43.2673366" lon="12.2124522"><ele>303.6</ele><time>2026-04-04T16:10:17.024Z</time></trkpt><trkpt lat="43.2674176" lon="12.2123782"><ele>304.20000000000005</ele><time>2026-04-04T16:10:18.028Z</time></trkpt><trkpt lat="43.2674986" lon="12.2123025"><ele>304.8</ele><time>2026-04-04T16:10:19.025Z</time></trkpt><trkpt lat="43.2675736" lon="12.2122249"><ele>305.40000000000003</ele><time>2026-04-04T16:10:20.026Z</time></trkpt><trkpt lat="43.2676429" lon="12.2121416"><ele>306.0</ele><time>2026-04-04T16:10:21.027Z</time></trkpt><trkpt lat="43.2677119" lon="12.2120697"><ele>304.8333333333333</ele><time>2026-04-04T16:10:22.022Z</time></trkpt><trkpt lat="43.2677795" lon="12.2120225"><ele>303.6666666666667</ele><time>2026-04-04T16:10:23.035Z</time></trkpt><trkpt lat="43.2678393" lon="12.2119671"><ele>302.5</ele><time>2026-04-04T16:10:24.034Z</time></trkpt><trkpt lat="43.2678852" lon="12.2118959"><ele>301.33333333333337</ele><time>2026-04-04T16:10:25.029Z</time></trkpt><trkpt lat="43.267922" lon="12.2118107"><ele>300.1666666666667</ele><time>2026-04-04T16:10:26.025Z</time></trkpt><trkpt lat="43.2679375" lon="12.211692"><ele>299.0</ele><time>2026-04-04T16:10:27.028Z</time></trkpt><trkpt lat="43.2679286" lon="12.2115555"><ele>298.59999999999997</ele><time>2026-04-04T16:10:28.024Z</time></trkpt><trkpt lat="43.2679423" lon="12.2114377"><ele>298.2</ele><time>2026-04-04T16:10:29.023Z</time></trkpt><trkpt lat="43.2679844" lon="12.2113316"><ele>297.79999999999995</ele><time>2026-04-04T16:10:30.031Z</time></trkpt><trkpt lat="43.2680504" lon="12.2112223"><ele>297.4</ele><time>2026-04-04T16:10:31.026Z</time></trkpt><trkpt lat="43.2681219" lon="12.211118"><ele>297.0</ele><time>2026-04-04T16:10:32.04Z</time></trkpt><trkpt lat="43.268188" lon="12.2110135"><ele>297.75</ele><time>2026-04-04T16:10:33.031Z</time></trkpt><trkpt lat="43.2682384" lon="12.2108851"><ele>298.5</ele><time>2026-04-04T16:10:34.016Z</time></trkpt><trkpt lat="43.2682767" lon="12.2107176"><ele>299.25</ele><time>2026-04-04T16:10:35.033Z</time></trkpt><trkpt lat="43.2683034" lon="12.210519"><ele>300.0</ele><time>2026-04-04T16:10:36.025Z</time></trkpt><trkpt lat="43.2683263" lon="12.2103162"><ele>300.0</ele><time>2026-04-04T16:10:37.024Z</time></trkpt><trkpt lat="43.2683539" lon="12.2101099"><ele>300.0</ele><time>2026-04-04T16:10:38.031Z</time></trkpt><trkpt lat="43.2684017" lon="12.2099083"><ele>300.0</ele><time>2026-04-04T16:10:39.031Z</time></trkpt><trkpt lat="43.2684613" lon="12.2097274"><ele>298.8</ele><time>2026-04-04T16:10:40.024Z</time></trkpt><trkpt lat="43.2685203" lon="12.2095724"><ele>297.6</ele><time>2026-04-04T16:10:41.028Z</time></trkpt><trkpt lat="43.2685708" lon="12.2094448"><ele>296.4</ele><time>2026-04-04T16:10:42.023Z</time></trkpt><trkpt lat="43.2686304" lon="12.2093299"><ele>295.2</ele><time>2026-04-04T16:10:43.024Z</time></trkpt><trkpt lat="43.2687086" lon="12.2092198"><ele>294.0</ele><time>2026-04-04T16:10:44.022Z</time></trkpt><trkpt lat="43.2688066" lon="12.209104"><ele>294.0</ele><time>2026-04-04T16:10:45.023Z</time></trkpt><trkpt lat="43.2689022" lon="12.209007"><ele>294.0</ele><time>2026-04-04T16:10:46.023Z</time></trkpt><trkpt lat="43.2689766" lon="12.20888"><ele>294.0</ele><time>2026-04-04T16:10:47.021Z</time></trkpt><trkpt lat="43.2690411" lon="12.20873"><ele>294.0</ele><time>2026-04-04T16:10:48.038Z</time></trkpt><trkpt lat="43.2690949" lon="12.2085722"><ele>293.25</ele><time>2026-04-04T16:10:49.012Z</time></trkpt><trkpt lat="43.2691263" lon="12.2084237"><ele>292.5</ele><time>2026-04-04T16:10:50.024Z</time></trkpt><trkpt lat="43.2691592" lon="12.2082807"><ele>291.75</ele><time>2026-04-04T16:10:51.027Z</time></trkpt><trkpt lat="43.2691953" lon="12.208126"><ele>291.0</ele><time>2026-04-04T16:10:52.023Z</time></trkpt><trkpt lat="43.2692442" lon="12.2079731"><ele>291.0</ele><time>2026-04-04T16:10:53.017Z</time></trkpt><trkpt lat="43.2692984" lon="12.2078355"><ele>291.0</ele><time>2026-04-04T16:10:54.021Z</time></trkpt><trkpt lat="43.269346" lon="12.2077099"><ele>291.0</ele><time>2026-04-04T16:10:55.023Z</time></trkpt><trkpt lat="43.2694071" lon="12.2076028"><ele>291.0</ele><time>2026-04-04T16:10:56.028Z</time></trkpt><trkpt lat="43.2694831" lon="12.2075006"><ele>291.0</ele><time>2026-04-04T16:10:57.029Z</time></trkpt><trkpt lat="43.2695601" lon="12.2073968"><ele>290.5</ele><time>2026-04-04T16:10:58.034Z</time></trkpt><trkpt lat="43.2696498" lon="12.2073012"><ele>290.0</ele><time>2026-04-04T16:10:59.038Z</time></trkpt><trkpt lat="43.2697531" lon="12.2072126"><ele>289.5</ele><time>2026-04-04T16:11:00.045Z</time></trkpt><trkpt lat="43.2698574" lon="12.2071369"><ele>289.0</ele><time>2026-04-04T16:11:01.036Z</time></trkpt><trkpt lat="43.2699431" lon="12.2070739"><ele>288.8333333333333</ele><time>2026-04-04T16:11:02.038Z</time></trkpt><trkpt lat="43.2700189" lon="12.207042"><ele>288.66666666666663</ele><time>2026-04-04T16:11:03.036Z</time></trkpt><trkpt lat="43.2700854" lon="12.2070529"><ele>288.5</ele><time>2026-04-04T16:11:04.035Z</time></trkpt><trkpt lat="43.2701632" lon="12.207111"><ele>288.3333333333333</ele><time>2026-04-04T16:11:05.035Z</time></trkpt><trkpt lat="43.2702515" lon="12.2071729"><ele>288.1666666666667</ele><time>2026-04-04T16:11:06.03Z</time></trkpt><trkpt lat="43.2703561" lon="12.2072149"><ele>288.0</ele><time>2026-04-04T16:11:07.028Z</time></trkpt><trkpt lat="43.2704556" lon="12.2072278"><ele>288.0</ele><time>2026-04-04T16:11:08.027Z</time></trkpt><trkpt lat="43.2705458" lon="12.2072204"><ele>288.0</ele><time>2026-04-04T16:11:09.032Z</time></trkpt><trkpt lat="43.2706222" lon="12.2072206"><ele>288.0</ele><time>2026-04-04T16:11:10.031Z</time></trkpt><trkpt lat="43.2706899" lon="12.2072366"><ele>288.0</ele><time>2026-04-04T16:11:11.038Z</time></trkpt><trkpt lat="43.2707708" lon="12.2072754"><ele>288.0</ele><time>2026-04-04T16:11:12.032Z</time></trkpt><trkpt lat="43.2708649" lon="12.2073446"><ele>288.0</ele><time>2026-04-04T16:11:13.045Z</time></trkpt><trkpt lat="43.2709629" lon="12.2074036"><ele>289.0</ele><time>2026-04-04T16:11:14.032Z</time></trkpt><trkpt lat="43.271087" lon="12.207435"><ele>290.0</ele><time>2026-04-04T16:11:15.037Z</time></trkpt><trkpt lat="43.2712212" lon="12.2074148"><ele>291.0</ele><time>2026-04-04T16:11:16.03Z</time></trkpt><trkpt lat="43.2713456" lon="12.2073723"><ele>292.0</ele><time>2026-04-04T16:11:17.038Z</time></trkpt><trkpt lat="43.2714689" lon="12.2072852"><ele>292.0</ele><time>2026-04-04T16:11:18.036Z</time></trkpt><trkpt lat="43.2716027" lon="12.2071978"><ele>292.0</ele><time>2026-04-04T16:11:19.031Z</time></trkpt><trkpt lat="43.27173" lon="12.207109"><ele>292.0</ele><time>2026-04-04T16:11:20.039Z</time></trkpt><trkpt lat="43.2718514" lon="12.2070259"><ele>292.0</ele><time>2026-04-04T16:11:21.029Z</time></trkpt><trkpt lat="43.2719745" lon="12.2069557"><ele>292.0</ele><time>2026-04-04T16:11:22.024Z</time></trkpt><trkpt lat="43.2721111" lon="12.2069155"><ele>292.0</ele><time>2026-04-04T16:11:23.023Z</time></trkpt><trkpt lat="43.2722524" lon="12.2068851"><ele>292.0</ele><time>2026-04-04T16:11:24.024Z</time></trkpt><trkpt lat="43.2723827" lon="12.2068668"><ele>292.0</ele><time>2026-04-04T16:11:25.025Z</time></trkpt><trkpt lat="43.2725116" lon="12.2068502"><ele>292.25</ele><time>2026-04-04T16:11:26.028Z</time></trkpt><trkpt lat="43.2726356" lon="12.2068588"><ele>292.5</ele><time>2026-04-04T16:11:27.036Z</time></trkpt><trkpt lat="43.272758" lon="12.2068854"><ele>292.75</ele><time>2026-04-04T16:11:28.028Z</time></trkpt><trkpt lat="43.2728811" lon="12.2069356"><ele>293.0</ele><time>2026-04-04T16:11:29.036Z</time></trkpt><trkpt lat="43.2730095" lon="12.2069836"><ele>291.5</ele><time>2026-04-04T16:11:30.034Z</time></trkpt><trkpt lat="43.273142" lon="12.2070336"><ele>290.0</ele><time>2026-04-04T16:11:31.033Z</time></trkpt><trkpt lat="43.2732688" lon="12.2070869"><ele>288.5</ele><time>2026-04-04T16:11:32.032Z</time></trkpt><trkpt lat="43.2733928" lon="12.2071776"><ele>287.0</ele><time>2026-04-04T16:11:33.034Z</time></trkpt><trkpt lat="43.2735153" lon="12.2073019"><ele>291.6666666666667</ele><time>2026-04-04T16:11:34.034Z</time></trkpt><trkpt lat="43.2736411" lon="12.2074275"><ele>296.3333333333333</ele><time>2026-04-04T16:11:35.034Z</time></trkpt><trkpt lat="43.2737694" lon="12.2075536"><ele>301.0</ele><time>2026-04-04T16:11:36.029Z</time></trkpt><trkpt lat="43.2738964" lon="12.2076851"><ele>296.3333333333333</ele><time>2026-04-04T16:11:37.035Z</time></trkpt><trkpt lat="43.2740237" lon="12.2078174"><ele>291.6666666666667</ele><time>2026-04-04T16:11:38.036Z</time></trkpt><trkpt lat="43.2741418" lon="12.2079665"><ele>287.0</ele><time>2026-04-04T16:11:39.032Z</time></trkpt><trkpt lat="43.2742589" lon="12.2081212"><ele>291.33333333333337</ele><time>2026-04-04T16:11:40.04Z</time></trkpt><trkpt lat="43.2743655" lon="12.208291"><ele>295.6666666666667</ele><time>2026-04-04T16:11:41.044Z</time></trkpt><trkpt lat="43.2744499" lon="12.2084633"><ele>300.0</ele><time>2026-04-04T16:11:42.032Z</time></trkpt><trkpt lat="43.2745156" lon="12.208633"><ele>300.0</ele><time>2026-04-04T16:11:43.032Z</time></trkpt><trkpt lat="43.274556" lon="12.2087894"><ele>300.0</ele><time>2026-04-04T16:11:44.028Z</time></trkpt><trkpt lat="43.2745721" lon="12.2089628"><ele>300.0</ele><time>2026-04-04T16:11:45.028Z</time></trkpt><trkpt lat="43.274563" lon="12.2091491"><ele>300.0</ele><time>2026-04-04T16:11:46.031Z</time></trkpt><trkpt lat="43.2745359" lon="12.2093483"><ele>303.0</ele><time>2026-04-04T16:11:47.031Z</time></trkpt><trkpt lat="43.2745105" lon="12.2095516"><ele>306.0</ele><time>2026-04-04T16:11:48.038Z</time></trkpt><trkpt lat="43.2744924" lon="12.2097548"><ele>309.0</ele><time>2026-04-04T16:11:49.035Z</time></trkpt><trkpt lat="43.2744732" lon="12.2099363"><ele>312.0</ele><time>2026-04-04T16:11:50.026Z</time></trkpt><trkpt lat="43.2744736" lon="12.2101054"><ele>312.25</ele><time>2026-04-04T16:11:51.035Z</time></trkpt><trkpt lat="43.2745072" lon="12.2102698"><ele>312.5</ele><time>2026-04-04T16:11:52.038Z</time></trkpt><trkpt lat="43.2745853" lon="12.2104368"><ele>312.75</ele><time>2026-04-04T16:11:53.036Z</time></trkpt><trkpt lat="43.274697" lon="12.2105779"><ele>313.0</ele><time>2026-04-04T16:11:54.029Z</time></trkpt><trkpt lat="43.2748289" lon="12.2106926"><ele>308.0</ele><time>2026-04-04T16:11:55.017Z</time></trkpt><trkpt lat="43.2749725" lon="12.2107648"><ele>303.0</ele><time>2026-04-04T16:11:56.03Z</time></trkpt><trkpt lat="43.2751066" lon="12.2108075"><ele>298.0</ele><time>2026-04-04T16:11:57.026Z</time></trkpt><trkpt lat="43.2752443" lon="12.2108031"><ele>293.0</ele><time>2026-04-04T16:11:58.029Z</time></trkpt><trkpt lat="43.2753881" lon="12.2107608"><ele>293.0</ele><time>2026-04-04T16:11:59.017Z</time></trkpt><trkpt lat="43.2755216" lon="12.2107297"><ele>293.0</ele><time>2026-04-04T16:12:00.028Z</time></trkpt><trkpt lat="43.2756429" lon="12.2107262"><ele>293.0</ele><time>2026-04-04T16:12:01.029Z</time></trkpt><trkpt lat="43.2757472" lon="12.2107406"><ele>293.0</ele><time>2026-04-04T16:12:02.031Z</time></trkpt><trkpt lat="43.275847" lon="12.2107569"><ele>293.1666666666667</ele><time>2026-04-04T16:12:03.034Z</time></trkpt><trkpt lat="43.2759291" lon="12.2107731"><ele>293.33333333333337</ele><time>2026-04-04T16:12:04.03Z</time></trkpt><trkpt lat="43.2760077" lon="12.2108001"><ele>293.5</ele><time>2026-04-04T16:12:05.027Z</time></trkpt><trkpt lat="43.2760906" lon="12.2108602"><ele>293.6666666666667</ele><time>2026-04-04T16:12:06.038Z</time></trkpt><trkpt lat="43.2761565" lon="12.2109438"><ele>293.8333333333333</ele><time>2026-04-04T16:12:07.043Z</time></trkpt><trkpt lat="43.2762227" lon="12.2110091"><ele>294.0</ele><time>2026-04-04T16:12:08.029Z</time></trkpt><trkpt lat="43.2762904" lon="12.2110736"><ele>294.0</ele><time>2026-04-04T16:12:09.031Z</time></trkpt><trkpt lat="43.2763602" lon="12.2111411"><ele>294.0</ele><time>2026-04-04T16:12:10.035Z</time></trkpt><trkpt lat="43.2764309" lon="12.211197"><ele>294.0</ele><time>2026-04-04T16:12:11.033Z</time></trkpt><trkpt lat="43.2765049" lon="12.2112463"><ele>294.0</ele><time>2026-04-04T16:12:12.031Z</time></trkpt><trkpt lat="43.2765838" lon="12.2112919"><ele>294.0</ele><time>2026-04-04T16:12:13.042Z</time></trkpt><trkpt lat="43.2766665" lon="12.2113366"><ele>294.0</ele><time>2026-04-04T16:12:14.032Z</time></trkpt><trkpt lat="43.2767522" lon="12.2113841"><ele>293.0</ele><time>2026-04-04T16:12:15.028Z</time></trkpt><trkpt lat="43.2768323" lon="12.2114201"><ele>292.0</ele><time>2026-04-04T16:12:16.037Z</time></trkpt><trkpt lat="43.276906" lon="12.2114508"><ele>291.0</ele><time>2026-04-04T16:12:17.027Z</time></trkpt><trkpt lat="43.2769794" lon="12.2114807"><ele>290.0</ele><time>2026-04-04T16:12:18.034Z</time></trkpt><trkpt lat="43.2770723" lon="12.2115081"><ele>289.0</ele><time>2026-04-04T16:12:20.037Z</time></trkpt><trkpt lat="43.2770162" lon="12.2114385"><ele>288.0</ele><time>2026-04-04T16:12:27.029Z</time></trkpt><trkpt lat="43.2769273" lon="12.2114292"><ele>288.0</ele><time>2026-04-04T16:12:28.035Z</time></trkpt><trkpt lat="43.2768219" lon="12.2113772"><ele>288.0</ele><time>2026-04-04T16:12:29.033Z</time></trkpt><trkpt lat="43.2766849" lon="12.2113069"><ele>288.0</ele><time>2026-04-04T16:12:30.031Z</time></trkpt><trkpt lat="43.2765359" lon="12.2112274"><ele>288.0</ele><time>2026-04-04T16:12:31.026Z</time></trkpt><trkpt lat="43.2764052" lon="12.2111533"><ele>289.5</ele><time>2026-04-04T16:12:32.024Z</time></trkpt><trkpt lat="43.276296" lon="12.2110665"><ele>291.0</ele><time>2026-04-04T16:12:33.025Z</time></trkpt><trkpt lat="43.2761957" lon="12.2109567"><ele>292.5</ele><time>2026-04-04T16:12:34.031Z</time></trkpt><trkpt lat="43.2760967" lon="12.2108649"><ele>294.0</ele><time>2026-04-04T16:12:35.027Z</time></trkpt><trkpt lat="43.2759967" lon="12.2108004"><ele>294.0</ele><time>2026-04-04T16:12:36.025Z</time></trkpt><trkpt lat="43.2758985" lon="12.2107441"><ele>294.0</ele><time>2026-04-04T16:12:37.034Z</time></trkpt><trkpt lat="43.2758037" lon="12.2107083"><ele>294.0</ele><time>2026-04-04T16:12:38.028Z</time></trkpt><trkpt lat="43.2757125" lon="12.2106887"><ele>294.0</ele><time>2026-04-04T16:12:39.027Z</time></trkpt><trkpt lat="43.2756351" lon="12.2106862"><ele>294.0</ele><time>2026-04-04T16:12:40.029Z</time></trkpt><trkpt lat="43.2755479" lon="12.2106925"><ele>293.3333333333333</ele><time>2026-04-04T16:12:42.037Z</time></trkpt><trkpt lat="43.2755072" lon="12.2105809"><ele>292.6666666666667</ele><time>2026-04-04T16:12:45.031Z</time></trkpt><trkpt lat="43.2755266" lon="12.2104259"><ele>292.0</ele><time>2026-04-04T16:12:47.036Z</time></trkpt><trkpt lat="43.2755477" lon="12.2103409"><ele>291.33333333333337</ele><time>2026-04-04T16:12:48.03Z</time></trkpt><trkpt lat="43.2755784" lon="12.2102557"><ele>290.6666666666667</ele><time>2026-04-04T16:12:49.034Z</time></trkpt><trkpt lat="43.2756089" lon="12.2101509"><ele>290.0</ele><time>2026-04-04T16:12:50.036Z</time></trkpt><trkpt lat="43.2756433" lon="12.2100265"><ele>289.2</ele><time>2026-04-04T16:12:51.036Z</time></trkpt><trkpt lat="43.2756764" lon="12.2098856"><ele>288.4</ele><time>2026-04-04T16:12:52.031Z</time></trkpt><trkpt lat="43.2757231" lon="12.2097513"><ele>287.6</ele><time>2026-04-04T16:12:53.027Z</time></trkpt><trkpt lat="43.2757701" lon="12.2096297"><ele>286.8</ele><time>2026-04-04T16:12:54.036Z</time></trkpt><trkpt lat="43.2758175" lon="12.2095241"><ele>286.0</ele><time>2026-04-04T16:12:55.037Z</time></trkpt><trkpt lat="43.2758641" lon="12.2094129"><ele>285.6</ele><time>2026-04-04T16:12:56.034Z</time></trkpt><trkpt lat="43.2759171" lon="12.2092973"><ele>285.20000000000005</ele><time>2026-04-04T16:12:57.038Z</time></trkpt><trkpt lat="43.2759706" lon="12.209177"><ele>284.79999999999995</ele><time>2026-04-04T16:12:58.031Z</time></trkpt><trkpt lat="43.2760232" lon="12.2090635"><ele>284.4</ele><time>2026-04-04T16:12:59.022Z</time></trkpt><trkpt lat="43.2760729" lon="12.2089557"><ele>284.0</ele><time>2026-04-04T16:13:00.04Z</time></trkpt><trkpt lat="43.2761169" lon="12.2088523"><ele>284.0</ele><time>2026-04-04T16:13:01.032Z</time></trkpt><trkpt lat="43.2761666" lon="12.2087381"><ele>284.0</ele><time>2026-04-04T16:13:02.038Z</time></trkpt><trkpt lat="43.2762214" lon="12.2086285"><ele>284.0</ele><time>2026-04-04T16:13:03.03Z</time></trkpt><trkpt lat="43.2762823" lon="12.2085209"><ele>284.0</ele><time>2026-04-04T16:13:04.032Z</time></trkpt><trkpt lat="43.2763431" lon="12.2084235"><ele>284.0</ele><time>2026-04-04T16:13:05.032Z</time></trkpt><trkpt lat="43.2764029" lon="12.2083313"><ele>283.59999999999997</ele><time>2026-04-04T16:13:06.035Z</time></trkpt><trkpt lat="43.2764709" lon="12.208231"><ele>283.2</ele><time>2026-04-04T16:13:07.036Z</time></trkpt><trkpt lat="43.2765414" lon="12.2081356"><ele>282.79999999999995</ele><time>2026-04-04T16:13:08.034Z</time></trkpt><trkpt lat="43.2766159" lon="12.2080363"><ele>282.4</ele><time>2026-04-04T16:13:09.041Z</time></trkpt><trkpt lat="43.2767046" lon="12.2079506"><ele>282.0</ele><time>2026-04-04T16:13:10.039Z</time></trkpt><trkpt lat="43.2767825" lon="12.20788"><ele>282.0</ele><time>2026-04-04T16:13:11.034Z</time></trkpt><trkpt lat="43.2768521" lon="12.2078194"><ele>282.0</ele><time>2026-04-04T16:13:12.036Z</time></trkpt><trkpt lat="43.2769127" lon="12.2077784"><ele>282.0</ele><time>2026-04-04T16:13:13.038Z</time></trkpt><trkpt lat="43.2769627" lon="12.2076935"><ele>282.0</ele><time>2026-04-04T16:13:15.035Z</time></trkpt><trkpt lat="43.2769007" lon="12.2075811"><ele>282.0</ele><time>2026-04-04T16:13:17.034Z</time></trkpt><trkpt lat="43.2768246" lon="12.2075673"><ele>282.0</ele><time>2026-04-04T16:13:18.044Z</time></trkpt><trkpt lat="43.2767354" lon="12.2075611"><ele>282.0</ele><time>2026-04-04T16:13:19.039Z</time></trkpt><trkpt lat="43.2766248" lon="12.207553"><ele>282.0</ele><time>2026-04-04T16:13:20.04Z</time></trkpt><trkpt lat="43.2765309" lon="12.2075333"><ele>282.0</ele><time>2026-04-04T16:13:21.043Z</time></trkpt><trkpt lat="43.2764655" lon="12.2074896"><ele>282.0</ele><time>2026-04-04T16:13:22.036Z</time></trkpt><trkpt lat="43.2764166" lon="12.2074258"><ele>282.0</ele><time>2026-04-04T16:13:23.047Z</time></trkpt><trkpt lat="43.2764131" lon="12.207236"><ele>282.6</ele><time>2026-04-04T16:13:25.04Z</time></trkpt><trkpt lat="43.2764244" lon="12.2071186"><ele>283.2</ele><time>2026-04-04T16:13:26.038Z</time></trkpt><trkpt lat="43.2764421" lon="12.2069999"><ele>283.8</ele><time>2026-04-04T16:13:27.04Z</time></trkpt><trkpt lat="43.2764596" lon="12.2068945"><ele>284.4</ele><time>2026-04-04T16:13:28.03Z</time></trkpt><trkpt lat="43.2764745" lon="12.2067963"><ele>285.0</ele><time>2026-04-04T16:13:29.033Z</time></trkpt><trkpt lat="43.2765323" lon="12.2066397"><ele>285.0</ele><time>2026-04-04T16:13:31.038Z</time></trkpt><trkpt lat="43.2765875" lon="12.2065285"><ele>285.0</ele><time>2026-04-04T16:13:33.033Z</time></trkpt><trkpt lat="43.2766589" lon="12.2064876"><ele>285.0</ele><time>2026-04-04T16:13:47.035Z</time></trkpt><trkpt lat="43.2767887" lon="12.2064995"><ele>285.0</ele><time>2026-04-04T16:13:49.042Z</time></trkpt><trkpt lat="43.2768646" lon="12.2065052"><ele>285.0</ele><time>2026-04-04T16:13:50.039Z</time></trkpt><trkpt lat="43.2769389" lon="12.2064959"><ele>285.0</ele><time>2026-04-04T16:13:51.04Z</time></trkpt><trkpt lat="43.277012" lon="12.2064799"><ele>285.0</ele><time>2026-04-04T16:13:52.05Z</time></trkpt><trkpt lat="43.27708" lon="12.2064486"><ele>285.0</ele><time>2026-04-04T16:13:53.043Z</time></trkpt><trkpt lat="43.2771436" lon="12.2064123"><ele>285.0</ele><time>2026-04-04T16:13:54.039Z</time></trkpt><trkpt lat="43.2772036" lon="12.2063418"><ele>285.0</ele><time>2026-04-04T16:13:55.047Z</time></trkpt><trkpt lat="43.2772456" lon="12.206256"><ele>285.0</ele><time>2026-04-04T16:13:56.037Z</time></trkpt><trkpt lat="43.2772875" lon="12.2061536"><ele>285.0</ele><time>2026-04-04T16:13:57.033Z</time></trkpt><trkpt lat="43.2773159" lon="12.2060367"><ele>285.0</ele><time>2026-04-04T16:13:58.042Z</time></trkpt><trkpt lat="43.2773303" lon="12.2059242"><ele>285.0</ele><time>2026-04-04T16:13:59.033Z</time></trkpt><trkpt lat="43.277331" lon="12.2058028"><ele>285.0</ele><time>2026-04-04T16:14:00.045Z</time></trkpt><trkpt lat="43.2773216" lon="12.2056765"><ele>285.0</ele><time>2026-04-04T16:14:01.042Z</time></trkpt><trkpt lat="43.277306" lon="12.205541"><ele>284.8</ele><time>2026-04-04T16:14:02.051Z</time></trkpt><trkpt lat="43.2773013" lon="12.2054054"><ele>284.6</ele><time>2026-04-04T16:14:03.043Z</time></trkpt><trkpt lat="43.2772917" lon="12.2052785"><ele>284.4</ele><time>2026-04-04T16:14:04.04Z</time></trkpt><trkpt lat="43.2772778" lon="12.2051456"><ele>284.2</ele><time>2026-04-04T16:14:05.036Z</time></trkpt><trkpt lat="43.2772641" lon="12.2050135"><ele>284.0</ele><time>2026-04-04T16:14:06.052Z</time></trkpt><trkpt lat="43.277256" lon="12.2048783"><ele>284.5</ele><time>2026-04-04T16:14:07.035Z</time></trkpt><trkpt lat="43.2772645" lon="12.2047289"><ele>285.0</ele><time>2026-04-04T16:14:08.033Z</time></trkpt><trkpt lat="43.2772863" lon="12.2045769"><ele>285.5</ele><time>2026-04-04T16:14:09.037Z</time></trkpt><trkpt lat="43.277321" lon="12.2044108"><ele>286.0</ele><time>2026-04-04T16:14:10.038Z</time></trkpt><trkpt lat="43.2773518" lon="12.2042327"><ele>286.0</ele><time>2026-04-04T16:14:11.034Z</time></trkpt><trkpt lat="43.2773733" lon="12.2040557"><ele>286.0</ele><time>2026-04-04T16:14:12.033Z</time></trkpt><trkpt lat="43.2773932" lon="12.2038778"><ele>286.0</ele><time>2026-04-04T16:14:13.034Z</time></trkpt><trkpt lat="43.2774141" lon="12.2037086"><ele>286.0</ele><time>2026-04-04T16:14:14.034Z</time></trkpt><trkpt lat="43.2774355" lon="12.2035371"><ele>287.5</ele><time>2026-04-04T16:14:15.035Z</time></trkpt><trkpt lat="43.2774648" lon="12.2033735"><ele>289.0</ele><time>2026-04-04T16:14:16.038Z</time></trkpt><trkpt lat="43.2775028" lon="12.2032263"><ele>290.5</ele><time>2026-04-04T16:14:17.029Z</time></trkpt><trkpt lat="43.2775329" lon="12.2030841"><ele>292.0</ele><time>2026-04-04T16:14:18.039Z</time></trkpt><trkpt lat="43.2775477" lon="12.2029307"><ele>292.0</ele><time>2026-04-04T16:14:19.032Z</time></trkpt><trkpt lat="43.2775517" lon="12.2027695"><ele>292.0</ele><time>2026-04-04T16:14:20.04Z</time></trkpt><trkpt lat="43.2775532" lon="12.2026053"><ele>292.0</ele><time>2026-04-04T16:14:21.034Z</time></trkpt><trkpt lat="43.2775668" lon="12.2024361"><ele>292.0</ele><time>2026-04-04T16:14:22.037Z</time></trkpt><trkpt lat="43.2775882" lon="12.2022714"><ele>292.0</ele><time>2026-04-04T16:14:23.031Z</time></trkpt><trkpt lat="43.2776114" lon="12.202104"><ele>292.0</ele><time>2026-04-04T16:14:24.036Z</time></trkpt><trkpt lat="43.2776316" lon="12.2019387"><ele>292.0</ele><time>2026-04-04T16:14:25.035Z</time></trkpt><trkpt lat="43.2776507" lon="12.2017836"><ele>292.0</ele><time>2026-04-04T16:14:26.04Z</time></trkpt><trkpt lat="43.2776741" lon="12.2016298"><ele>291.0</ele><time>2026-04-04T16:14:27.028Z</time></trkpt><trkpt lat="43.2777063" lon="12.2014784"><ele>290.0</ele><time>2026-04-04T16:14:28.029Z</time></trkpt><trkpt lat="43.2777394" lon="12.2013345"><ele>289.0</ele><time>2026-04-04T16:14:29.029Z</time></trkpt><trkpt lat="43.2777727" lon="12.2011898"><ele>288.0</ele><time>2026-04-04T16:14:30.032Z</time></trkpt><trkpt lat="43.2778067" lon="12.2010476"><ele>287.0</ele><time>2026-04-04T16:14:31.038Z</time></trkpt><trkpt lat="43.2778312" lon="12.2009118"><ele>287.0</ele><time>2026-04-04T16:14:32.027Z</time></trkpt><trkpt lat="43.2778582" lon="12.2007703"><ele>287.0</ele><time>2026-04-04T16:14:33.037Z</time></trkpt><trkpt lat="43.2778809" lon="12.2006315"><ele>287.0</ele><time>2026-04-04T16:14:34.039Z</time></trkpt><trkpt lat="43.2779114" lon="12.2004914"><ele>287.0</ele><time>2026-04-04T16:14:35.034Z</time></trkpt><trkpt lat="43.2779438" lon="12.200344"><ele>287.0</ele><time>2026-04-04T16:14:36.037Z</time></trkpt><trkpt lat="43.2779867" lon="12.2002007"><ele>287.75</ele><time>2026-04-04T16:14:37.035Z</time></trkpt><trkpt lat="43.2780416" lon="12.2000591"><ele>288.5</ele><time>2026-04-04T16:14:38.041Z</time></trkpt><trkpt lat="43.2781128" lon="12.1999295"><ele>289.25</ele><time>2026-04-04T16:14:39.047Z</time></trkpt><trkpt lat="43.2781858" lon="12.1998035"><ele>290.0</ele><time>2026-04-04T16:14:40.041Z</time></trkpt><trkpt lat="43.2782532" lon="12.1996706"><ele>290.0</ele><time>2026-04-04T16:14:41.053Z</time></trkpt><trkpt lat="43.2783123" lon="12.1995543"><ele>290.0</ele><time>2026-04-04T16:14:42.041Z</time></trkpt><trkpt lat="43.2783625" lon="12.1994513"><ele>290.0</ele><time>2026-04-04T16:14:43.035Z</time></trkpt><trkpt lat="43.2784024" lon="12.1993661"><ele>290.0</ele><time>2026-04-04T16:14:44.039Z</time></trkpt><trkpt lat="43.2784703" lon="12.1992438"><ele>290.0</ele><time>2026-04-04T16:14:46.039Z</time></trkpt><trkpt lat="43.278557" lon="12.1991277"><ele>290.0</ele><time>2026-04-04T16:14:48.033Z</time></trkpt><trkpt lat="43.2786253" lon="12.1990614"><ele>290.0</ele><time>2026-04-04T16:14:50.041Z</time></trkpt><trkpt lat="43.2786922" lon="12.1990796"><ele>290.0</ele><time>2026-04-04T16:14:53.042Z</time></trkpt><trkpt lat="43.2788013" lon="12.1991265"><ele>290.0</ele><time>2026-04-04T16:17:45.04Z</time></trkpt><trkpt lat="43.278866" lon="12.1991744"><ele>290.0</ele><time>2026-04-04T16:17:46.05Z</time></trkpt><trkpt lat="43.2789487" lon="12.1992239"><ele>290.0</ele><time>2026-04-04T16:17:47.053Z</time></trkpt><trkpt lat="43.2790382" lon="12.1992743"><ele>288.5</ele><time>2026-04-04T16:17:48.055Z</time></trkpt><trkpt lat="43.2791409" lon="12.1993345"><ele>287.0</ele><time>2026-04-04T16:17:49.043Z</time></trkpt><trkpt lat="43.2792396" lon="12.1994017"><ele>285.5</ele><time>2026-04-04T16:17:50.048Z</time></trkpt><trkpt lat="43.2793562" lon="12.1994639"><ele>284.0</ele><time>2026-04-04T16:17:51.048Z</time></trkpt><trkpt lat="43.2794838" lon="12.1995253"><ele>284.0</ele><time>2026-04-04T16:17:52.037Z</time></trkpt><trkpt lat="43.279612" lon="12.1995774"><ele>284.0</ele><time>2026-04-04T16:17:53.047Z</time></trkpt><trkpt lat="43.2797435" lon="12.1996411"><ele>284.0</ele><time>2026-04-04T16:17:54.046Z</time></trkpt><trkpt lat="43.2798712" lon="12.1997084"><ele>284.0</ele><time>2026-04-04T16:17:55.035Z</time></trkpt><trkpt lat="43.2799939" lon="12.199774"><ele>284.0</ele><time>2026-04-04T16:17:56.043Z</time></trkpt><trkpt lat="43.280104" lon="12.1998306"><ele>284.0</ele><time>2026-04-04T16:17:57.032Z</time></trkpt><trkpt lat="43.2802025" lon="12.1998779"><ele>284.0</ele><time>2026-04-04T16:17:58.038Z</time></trkpt><trkpt lat="43.2802938" lon="12.1999256"><ele>284.0</ele><time>2026-04-04T16:17:59.047Z</time></trkpt><trkpt lat="43.28038" lon="12.1999661"><ele>284.0</ele><time>2026-04-04T16:18:00.038Z</time></trkpt><trkpt lat="43.2804519" lon="12.2000061"><ele>284.0</ele><time>2026-04-04T16:18:01.035Z</time></trkpt><trkpt lat="43.2805312" lon="12.2000608"><ele>284.0</ele><time>2026-04-04T16:18:03.043Z</time></trkpt><trkpt lat="43.2806008" lon="12.2000502"><ele>284.0</ele><time>2026-04-04T16:18:07.036Z</time></trkpt><trkpt lat="43.2806611" lon="12.1998757"><ele>284.0</ele><time>2026-04-04T16:18:09.037Z</time></trkpt><trkpt lat="43.2806987" lon="12.1997492"><ele>284.0</ele><time>2026-04-04T16:18:10.049Z</time></trkpt><trkpt lat="43.2807442" lon="12.1996191"><ele>284.0</ele><time>2026-04-04T16:18:11.034Z</time></trkpt><trkpt lat="43.2807942" lon="12.1994641"><ele>284.0</ele><time>2026-04-04T16:18:12.036Z</time></trkpt><trkpt lat="43.2808531" lon="12.1992933"><ele>284.0</ele><time>2026-04-04T16:18:13.039Z</time></trkpt><trkpt lat="43.2809113" lon="12.1991155"><ele>284.0</ele><time>2026-04-04T16:18:14.039Z</time></trkpt><trkpt lat="43.2809675" lon="12.1989365"><ele>284.0</ele><time>2026-04-04T16:18:15.028Z</time></trkpt><trkpt lat="43.2810273" lon="12.1987578"><ele>284.0</ele><time>2026-04-04T16:18:16.041Z</time></trkpt><trkpt lat="43.2810877" lon="12.1985729"><ele>284.0</ele><time>2026-04-04T16:18:17.044Z</time></trkpt><trkpt lat="43.2811401" lon="12.1983734"><ele>284.0</ele><time>2026-04-04T16:18:18.028Z</time></trkpt><trkpt lat="43.2811683" lon="12.1981618"><ele>284.0</ele><time>2026-04-04T16:18:19.042Z</time></trkpt><trkpt lat="43.2811755" lon="12.1979461"><ele>284.0</ele><time>2026-04-04T16:18:20.033Z</time></trkpt><trkpt lat="43.281162" lon="12.1977231"><ele>284.0</ele><time>2026-04-04T16:18:21.036Z</time></trkpt><trkpt lat="43.2811178" lon="12.1974969"><ele>285.33333333333337</ele><time>2026-04-04T16:18:22.039Z</time></trkpt><trkpt lat="43.2810594" lon="12.1972732"><ele>286.6666666666667</ele><time>2026-04-04T16:18:23.039Z</time></trkpt><trkpt lat="43.2809902" lon="12.1970472"><ele>288.0</ele><time>2026-04-04T16:18:24.037Z</time></trkpt><trkpt lat="43.2809253" lon="12.1968157"><ele>288.0</ele><time>2026-04-04T16:18:25.056Z</time></trkpt><trkpt lat="43.2808579" lon="12.1965818"><ele>288.0</ele><time>2026-04-04T16:18:26.044Z</time></trkpt><trkpt lat="43.2807869" lon="12.1963434"><ele>288.0</ele><time>2026-04-04T16:18:27.043Z</time></trkpt><trkpt lat="43.2807149" lon="12.1961111"><ele>288.3333333333333</ele><time>2026-04-04T16:18:28.038Z</time></trkpt><trkpt lat="43.2806423" lon="12.1958899"><ele>288.66666666666663</ele><time>2026-04-04T16:18:29.038Z</time></trkpt><trkpt lat="43.2805638" lon="12.1956745"><ele>289.0</ele><time>2026-04-04T16:18:30.038Z</time></trkpt><trkpt lat="43.280475" lon="12.1954587"><ele>287.66666666666663</ele><time>2026-04-04T16:18:31.036Z</time></trkpt><trkpt lat="43.2803801" lon="12.195241"><ele>286.3333333333333</ele><time>2026-04-04T16:18:32.039Z</time></trkpt><trkpt lat="43.2802853" lon="12.1950214"><ele>285.0</ele><time>2026-04-04T16:18:33.045Z</time></trkpt><trkpt lat="43.2801861" lon="12.1948061"><ele>285.0</ele><time>2026-04-04T16:18:34.046Z</time></trkpt><trkpt lat="43.2800864" lon="12.1945963"><ele>285.0</ele><time>2026-04-04T16:18:35.04Z</time></trkpt><trkpt lat="43.2799903" lon="12.1943876"><ele>285.0</ele><time>2026-04-04T16:18:36.044Z</time></trkpt><trkpt lat="43.2798966" lon="12.194176"><ele>285.6666666666667</ele><time>2026-04-04T16:18:37.037Z</time></trkpt><trkpt lat="43.279802" lon="12.1939719"><ele>286.33333333333337</ele><time>2026-04-04T16:18:38.039Z</time></trkpt><trkpt lat="43.279698" lon="12.1937781"><ele>287.0</ele><time>2026-04-04T16:18:39.045Z</time></trkpt><trkpt lat="43.279582" lon="12.1935974"><ele>287.0</ele><time>2026-04-04T16:18:40.052Z</time></trkpt><trkpt lat="43.2794567" lon="12.1934208"><ele>287.0</ele><time>2026-04-04T16:18:41.044Z</time></trkpt><trkpt lat="43.2793196" lon="12.1932664"><ele>287.0</ele><time>2026-04-04T16:18:42.037Z</time></trkpt><trkpt lat="43.27919" lon="12.1931245"><ele>286.0</ele><time>2026-04-04T16:18:43.043Z</time></trkpt><trkpt lat="43.279067" lon="12.19298"><ele>285.0</ele><time>2026-04-04T16:18:44.049Z</time></trkpt><trkpt lat="43.2789564" lon="12.1928199"><ele>284.0</ele><time>2026-04-04T16:18:45.039Z</time></trkpt><trkpt lat="43.2788554" lon="12.1926246"><ele>284.0</ele><time>2026-04-04T16:18:46.025Z</time></trkpt><trkpt lat="43.2787681" lon="12.1924136"><ele>284.0</ele><time>2026-04-04T16:18:47.042Z</time></trkpt><trkpt lat="43.2787032" lon="12.1921719"><ele>284.0</ele><time>2026-04-04T16:18:48.051Z</time></trkpt><trkpt lat="43.2786467" lon="12.1919284"><ele>284.0</ele><time>2026-04-04T16:18:49.047Z</time></trkpt><trkpt lat="43.2786037" lon="12.1916743"><ele>284.0</ele><time>2026-04-04T16:18:50.048Z</time></trkpt><trkpt lat="43.278564" lon="12.191421"><ele>284.0</ele><time>2026-04-04T16:18:51.04Z</time></trkpt><trkpt lat="43.2785208" lon="12.1911662"><ele>284.0</ele><time>2026-04-04T16:18:52.049Z</time></trkpt><trkpt lat="43.2784821" lon="12.1909164"><ele>284.0</ele><time>2026-04-04T16:18:53.038Z</time></trkpt><trkpt lat="43.2784489" lon="12.1906696"><ele>284.0</ele><time>2026-04-04T16:18:54.042Z</time></trkpt><trkpt lat="43.2784197" lon="12.1904224"><ele>285.0</ele><time>2026-04-04T16:18:55.046Z</time></trkpt><trkpt lat="43.2783959" lon="12.1901767"><ele>286.0</ele><time>2026-04-04T16:18:56.043Z</time></trkpt><trkpt lat="43.2783723" lon="12.1899217"><ele>287.0</ele><time>2026-04-04T16:18:57.038Z</time></trkpt><trkpt lat="43.2783429" lon="12.1896606"><ele>287.0</ele><time>2026-04-04T16:18:58.049Z</time></trkpt><trkpt lat="43.2783168" lon="12.1893946"><ele>287.0</ele><time>2026-04-04T16:18:59.045Z</time></trkpt><trkpt lat="43.2782868" lon="12.1891291"><ele>287.0</ele><time>2026-04-04T16:19:00.036Z</time></trkpt><trkpt lat="43.2782599" lon="12.1888619"><ele>286.6666666666667</ele><time>2026-04-04T16:19:01.039Z</time></trkpt><trkpt lat="43.2782304" lon="12.188589"><ele>286.3333333333333</ele><time>2026-04-04T16:19:02.049Z</time></trkpt><trkpt lat="43.2782031" lon="12.1883112"><ele>286.0</ele><time>2026-04-04T16:19:03.037Z</time></trkpt><trkpt lat="43.2781747" lon="12.1880429"><ele>285.3333333333333</ele><time>2026-04-04T16:19:04.047Z</time></trkpt><trkpt lat="43.2781486" lon="12.1877757"><ele>284.6666666666667</ele><time>2026-04-04T16:19:05.04Z</time></trkpt><trkpt lat="43.27812" lon="12.1875149"><ele>284.0</ele><time>2026-04-04T16:19:06.037Z</time></trkpt><trkpt lat="43.2780954" lon="12.1872531"><ele>284.0</ele><time>2026-04-04T16:19:07.04Z</time></trkpt><trkpt lat="43.2780717" lon="12.1869956"><ele>284.0</ele><time>2026-04-04T16:19:08.046Z</time></trkpt><trkpt lat="43.2780429" lon="12.1867371"><ele>284.0</ele><time>2026-04-04T16:19:09.047Z</time></trkpt><trkpt lat="43.278018" lon="12.1864736"><ele>284.33333333333337</ele><time>2026-04-04T16:19:10.044Z</time></trkpt><trkpt lat="43.2779921" lon="12.1862145"><ele>284.6666666666667</ele><time>2026-04-04T16:19:11.038Z</time></trkpt><trkpt lat="43.2779657" lon="12.1859581"><ele>285.0</ele><time>2026-04-04T16:19:12.042Z</time></trkpt><trkpt lat="43.2779378" lon="12.1857049"><ele>284.6666666666667</ele><time>2026-04-04T16:19:13.065Z</time></trkpt><trkpt lat="43.2779121" lon="12.1854565"><ele>284.33333333333337</ele><time>2026-04-04T16:19:14.034Z</time></trkpt><trkpt lat="43.2778868" lon="12.185215"><ele>284.0</ele><time>2026-04-04T16:19:15.04Z</time></trkpt><trkpt lat="43.2778606" lon="12.1849795"><ele>284.33333333333337</ele><time>2026-04-04T16:19:16.048Z</time></trkpt><trkpt lat="43.2778338" lon="12.1847527"><ele>284.6666666666667</ele><time>2026-04-04T16:19:17.042Z</time></trkpt><trkpt lat="43.27781" lon="12.1845346"><ele>285.0</ele><time>2026-04-04T16:19:18.05Z</time></trkpt><trkpt lat="43.2777928" lon="12.184316"><ele>285.0</ele><time>2026-04-04T16:19:19.042Z</time></trkpt><trkpt lat="43.2777711" lon="12.1840996"><ele>285.0</ele><time>2026-04-04T16:19:20.041Z</time></trkpt><trkpt lat="43.2777519" lon="12.1838886"><ele>285.0</ele><time>2026-04-04T16:19:21.038Z</time></trkpt><trkpt lat="43.2777327" lon="12.1836816"><ele>285.25</ele><time>2026-04-04T16:19:22.041Z</time></trkpt><trkpt lat="43.2777111" lon="12.1834862"><ele>285.5</ele><time>2026-04-04T16:19:23.038Z</time></trkpt><trkpt lat="43.2776894" lon="12.1832942"><ele>285.75</ele><time>2026-04-04T16:19:24.048Z</time></trkpt><trkpt lat="43.2776615" lon="12.183101"><ele>286.0</ele><time>2026-04-04T16:19:25.034Z</time></trkpt><trkpt lat="43.2776435" lon="12.1829121"><ele>286.0</ele><time>2026-04-04T16:19:26.053Z</time></trkpt><trkpt lat="43.2776244" lon="12.1827268"><ele>286.0</ele><time>2026-04-04T16:19:27.042Z</time></trkpt><trkpt lat="43.2776063" lon="12.1825462"><ele>286.0</ele><time>2026-04-04T16:19:28.039Z</time></trkpt><trkpt lat="43.2775919" lon="12.1823699"><ele>286.0</ele><time>2026-04-04T16:19:29.037Z</time></trkpt><trkpt lat="43.2775739" lon="12.1822041"><ele>286.0</ele><time>2026-04-04T16:19:30.044Z</time></trkpt><trkpt lat="43.2775545" lon="12.1820455"><ele>286.0</ele><time>2026-04-04T16:19:31.052Z</time></trkpt><trkpt lat="43.2775356" lon="12.181885"><ele>286.0</ele><time>2026-04-04T16:19:32.048Z</time></trkpt><trkpt lat="43.2775145" lon="12.181723"><ele>286.0</ele><time>2026-04-04T16:19:33.038Z</time></trkpt><trkpt lat="43.2774966" lon="12.1815529"><ele>286.0</ele><time>2026-04-04T16:19:34.044Z</time></trkpt><trkpt lat="43.2774812" lon="12.1813772"><ele>286.0</ele><time>2026-04-04T16:19:35.041Z</time></trkpt><trkpt lat="43.2774613" lon="12.181189"><ele>286.0</ele><time>2026-04-04T16:19:36.046Z</time></trkpt><trkpt lat="43.2774427" lon="12.180995"><ele>286.0</ele><time>2026-04-04T16:19:37.044Z</time></trkpt><trkpt lat="43.2774125" lon="12.1807974"><ele>287.0</ele><time>2026-04-04T16:19:38.04Z</time></trkpt><trkpt lat="43.2773885" lon="12.1805968"><ele>288.0</ele><time>2026-04-04T16:19:39.04Z</time></trkpt><trkpt lat="43.2773691" lon="12.1803826"><ele>289.0</ele><time>2026-04-04T16:19:40.04Z</time></trkpt><trkpt lat="43.2773487" lon="12.1801683"><ele>289.0</ele><time>2026-04-04T16:19:41.039Z</time></trkpt><trkpt lat="43.2773256" lon="12.1799462"><ele>289.0</ele><time>2026-04-04T16:19:42.05Z</time></trkpt><trkpt lat="43.2773016" lon="12.1797174"><ele>289.0</ele><time>2026-04-04T16:19:43.04Z</time></trkpt><trkpt lat="43.2772786" lon="12.1794879"><ele>288.66666666666663</ele><time>2026-04-04T16:19:44.035Z</time></trkpt><trkpt lat="43.2772601" lon="12.1792601"><ele>288.3333333333333</ele><time>2026-04-04T16:19:45.044Z</time></trkpt><trkpt lat="43.2772377" lon="12.1790295"><ele>288.0</ele><time>2026-04-04T16:19:46.033Z</time></trkpt><trkpt lat="43.2772125" lon="12.1787892"><ele>288.0</ele><time>2026-04-04T16:19:47.039Z</time></trkpt><trkpt lat="43.2771864" lon="12.1785474"><ele>288.0</ele><time>2026-04-04T16:19:48.046Z</time></trkpt><trkpt lat="43.2771599" lon="12.1783026"><ele>288.0</ele><time>2026-04-04T16:19:49.039Z</time></trkpt><trkpt lat="43.2771334" lon="12.1780575"><ele>287.6666666666667</ele><time>2026-04-04T16:19:50.043Z</time></trkpt><trkpt lat="43.2771089" lon="12.1778087"><ele>287.33333333333337</ele><time>2026-04-04T16:19:51.029Z</time></trkpt><trkpt lat="43.2770767" lon="12.1775634"><ele>287.0</ele><time>2026-04-04T16:19:52.036Z</time></trkpt><trkpt lat="43.2770274" lon="12.1773254"><ele>288.33333333333337</ele><time>2026-04-04T16:19:53.035Z</time></trkpt><trkpt lat="43.2769493" lon="12.1770839"><ele>289.6666666666667</ele><time>2026-04-04T16:19:54.041Z</time></trkpt><trkpt lat="43.2768552" lon="12.176839"><ele>291.0</ele><time>2026-04-04T16:19:55.04Z</time></trkpt><trkpt lat="43.2767559" lon="12.1765964"><ele>291.0</ele><time>2026-04-04T16:19:56.037Z</time></trkpt><trkpt lat="43.2766554" lon="12.1763523"><ele>291.0</ele><time>2026-04-04T16:19:57.044Z</time></trkpt><trkpt lat="43.2765488" lon="12.1761017"><ele>291.0</ele><time>2026-04-04T16:19:58.039Z</time></trkpt><trkpt lat="43.2764408" lon="12.1758463"><ele>290.3333333333333</ele><time>2026-04-04T16:19:59.045Z</time></trkpt><trkpt lat="43.2763362" lon="12.1755893"><ele>289.66666666666663</ele><time>2026-04-04T16:20:00.038Z</time></trkpt><trkpt lat="43.2762317" lon="12.1753246"><ele>289.0</ele><time>2026-04-04T16:20:01.036Z</time></trkpt><trkpt lat="43.2761183" lon="12.1750617"><ele>290.3333333333333</ele><time>2026-04-04T16:20:02.054Z</time></trkpt><trkpt lat="43.275997" lon="12.174805"><ele>291.6666666666667</ele><time>2026-04-04T16:20:03.036Z</time></trkpt><trkpt lat="43.2758719" lon="12.1745605"><ele>293.0</ele><time>2026-04-04T16:20:04.03Z</time></trkpt><trkpt lat="43.2757438" lon="12.1743101"><ele>293.0</ele><time>2026-04-04T16:20:05.038Z</time></trkpt><trkpt lat="43.2756189" lon="12.1740528"><ele>293.0</ele><time>2026-04-04T16:20:06.036Z</time></trkpt><trkpt lat="43.2754945" lon="12.1737957"><ele>291.6666666666667</ele><time>2026-04-04T16:20:07.038Z</time></trkpt><trkpt lat="43.275371" lon="12.1735375"><ele>290.3333333333333</ele><time>2026-04-04T16:20:08.037Z</time></trkpt><trkpt lat="43.2752457" lon="12.1732857"><ele>289.0</ele><time>2026-04-04T16:20:09.038Z</time></trkpt><trkpt lat="43.2751207" lon="12.173032"><ele>289.0</ele><time>2026-04-04T16:20:10.043Z</time></trkpt><trkpt lat="43.2749922" lon="12.172777"><ele>289.0</ele><time>2026-04-04T16:20:11.042Z</time></trkpt><trkpt lat="43.2748657" lon="12.1725188"><ele>289.5</ele><time>2026-04-04T16:20:12.033Z</time></trkpt><trkpt lat="43.2747414" lon="12.17226"><ele>290.0</ele><time>2026-04-04T16:20:13.048Z</time></trkpt><trkpt lat="43.274616" lon="12.1720042"><ele>290.0</ele><time>2026-04-04T16:20:14.041Z</time></trkpt><trkpt lat="43.2744892" lon="12.1717479"><ele>290.0</ele><time>2026-04-04T16:20:15.044Z</time></trkpt><trkpt lat="43.2743622" lon="12.1714948"><ele>290.0</ele><time>2026-04-04T16:20:16.044Z</time></trkpt><trkpt lat="43.274237" lon="12.1712458"><ele>290.0</ele><time>2026-04-04T16:20:17.043Z</time></trkpt><trkpt lat="43.2741166" lon="12.1710015"><ele>290.0</ele><time>2026-04-04T16:20:18.055Z</time></trkpt><trkpt lat="43.2739998" lon="12.1707569"><ele>290.0</ele><time>2026-04-04T16:20:19.041Z</time></trkpt><trkpt lat="43.2738794" lon="12.170515"><ele>289.6666666666667</ele><time>2026-04-04T16:20:20.04Z</time></trkpt><trkpt lat="43.2737597" lon="12.1702816"><ele>289.3333333333333</ele><time>2026-04-04T16:20:21.048Z</time></trkpt><trkpt lat="43.2736442" lon="12.1700508"><ele>289.0</ele><time>2026-04-04T16:20:22.045Z</time></trkpt><trkpt lat="43.2735316" lon="12.169817"><ele>288.66666666666663</ele><time>2026-04-04T16:20:23.049Z</time></trkpt><trkpt lat="43.2734189" lon="12.1695786"><ele>288.3333333333333</ele><time>2026-04-04T16:20:24.045Z</time></trkpt><trkpt lat="43.2733069" lon="12.1693411"><ele>288.0</ele><time>2026-04-04T16:20:25.039Z</time></trkpt><trkpt lat="43.2731979" lon="12.1691025"><ele>288.6666666666667</ele><time>2026-04-04T16:20:26.049Z</time></trkpt><trkpt lat="43.2730892" lon="12.168866"><ele>289.33333333333337</ele><time>2026-04-04T16:20:27.04Z</time></trkpt><trkpt lat="43.2729796" lon="12.1686309"><ele>290.0</ele><time>2026-04-04T16:20:28.053Z</time></trkpt><trkpt lat="43.2728724" lon="12.1684027"><ele>290.33333333333337</ele><time>2026-04-04T16:20:29.046Z</time></trkpt><trkpt lat="43.2727692" lon="12.1681855"><ele>290.6666666666667</ele><time>2026-04-04T16:20:30.047Z</time></trkpt><trkpt lat="43.2726709" lon="12.1679837"><ele>291.0</ele><time>2026-04-04T16:20:31.051Z</time></trkpt><trkpt lat="43.2725745" lon="12.1677824"><ele>291.0</ele><time>2026-04-04T16:20:32.035Z</time></trkpt><trkpt lat="43.2724776" lon="12.1675885"><ele>291.0</ele><time>2026-04-04T16:20:33.048Z</time></trkpt><trkpt lat="43.2723769" lon="12.1674001"><ele>291.0</ele><time>2026-04-04T16:20:34.044Z</time></trkpt><trkpt lat="43.272267" lon="12.1672121"><ele>290.3333333333333</ele><time>2026-04-04T16:20:35.043Z</time></trkpt><trkpt lat="43.2721432" lon="12.1670222"><ele>289.66666666666663</ele><time>2026-04-04T16:20:36.039Z</time></trkpt><trkpt lat="43.2720175" lon="12.1668302"><ele>289.0</ele><time>2026-04-04T16:20:37.037Z</time></trkpt><trkpt lat="43.271893" lon="12.1666345"><ele>289.3333333333333</ele><time>2026-04-04T16:20:38.049Z</time></trkpt><trkpt lat="43.2717628" lon="12.1664324"><ele>289.6666666666667</ele><time>2026-04-04T16:20:39.038Z</time></trkpt><trkpt lat="43.2716392" lon="12.1662361"><ele>290.0</ele><time>2026-04-04T16:20:40.04Z</time></trkpt><trkpt lat="43.2715204" lon="12.1660537"><ele>289.6666666666667</ele><time>2026-04-04T16:20:41.036Z</time></trkpt><trkpt lat="43.2714126" lon="12.1658891"><ele>289.3333333333333</ele><time>2026-04-04T16:20:42.035Z</time></trkpt><trkpt lat="43.2713113" lon="12.1657426"><ele>289.0</ele><time>2026-04-04T16:20:43.037Z</time></trkpt><trkpt lat="43.2712072" lon="12.1656052"><ele>290.25</ele><time>2026-04-04T16:20:44.045Z</time></trkpt><trkpt lat="43.2711016" lon="12.1654754"><ele>291.5</ele><time>2026-04-04T16:20:45.035Z</time></trkpt><trkpt lat="43.2709853" lon="12.165355"><ele>292.75</ele><time>2026-04-04T16:20:46.042Z</time></trkpt><trkpt lat="43.2708726" lon="12.1652501"><ele>294.0</ele><time>2026-04-04T16:20:47.046Z</time></trkpt><trkpt lat="43.2707608" lon="12.1651402"><ele>294.0</ele><time>2026-04-04T16:20:48.033Z</time></trkpt><trkpt lat="43.270651" lon="12.1650297"><ele>294.0</ele><time>2026-04-04T16:20:49.051Z</time></trkpt><trkpt lat="43.270561" lon="12.1649028"><ele>294.0</ele><time>2026-04-04T16:20:50.04Z</time></trkpt><trkpt lat="43.2704734" lon="12.1647566"><ele>294.0</ele><time>2026-04-04T16:20:51.042Z</time></trkpt><trkpt lat="43.2703919" lon="12.1646031"><ele>293.75</ele><time>2026-04-04T16:20:52.036Z</time></trkpt><trkpt lat="43.2703145" lon="12.1644438"><ele>293.5</ele><time>2026-04-04T16:20:53.038Z</time></trkpt><trkpt lat="43.2702398" lon="12.1642733"><ele>293.25</ele><time>2026-04-04T16:20:54.042Z</time></trkpt><trkpt lat="43.27017" lon="12.164094"><ele>293.0</ele><time>2026-04-04T16:20:55.047Z</time></trkpt><trkpt lat="43.270104" lon="12.1639196"><ele>293.0</ele><time>2026-04-04T16:20:56.036Z</time></trkpt><trkpt lat="43.270036" lon="12.1637395"><ele>293.0</ele><time>2026-04-04T16:20:57.055Z</time></trkpt><trkpt lat="43.2699715" lon="12.1635617"><ele>293.0</ele><time>2026-04-04T16:20:58.041Z</time></trkpt><trkpt lat="43.2699083" lon="12.1633807"><ele>293.0</ele><time>2026-04-04T16:20:59.039Z</time></trkpt><trkpt lat="43.269848" lon="12.1632042"><ele>293.5</ele><time>2026-04-04T16:21:00.056Z</time></trkpt><trkpt lat="43.2697855" lon="12.1630242"><ele>294.0</ele><time>2026-04-04T16:21:01.04Z</time></trkpt><trkpt lat="43.2697177" lon="12.1628368"><ele>294.5</ele><time>2026-04-04T16:21:02.039Z</time></trkpt><trkpt lat="43.2696508" lon="12.1626513"><ele>295.0</ele><time>2026-04-04T16:21:03.036Z</time></trkpt><trkpt lat="43.2695834" lon="12.1624548"><ele>293.0</ele><time>2026-04-04T16:21:04.042Z</time></trkpt><trkpt lat="43.2695162" lon="12.1622516"><ele>291.0</ele><time>2026-04-04T16:21:05.036Z</time></trkpt><trkpt lat="43.2694512" lon="12.1620433"><ele>289.0</ele><time>2026-04-04T16:21:06.039Z</time></trkpt><trkpt lat="43.2693771" lon="12.1618346"><ele>289.0</ele><time>2026-04-04T16:21:07.044Z</time></trkpt><trkpt lat="43.2693064" lon="12.1616207"><ele>289.0</ele><time>2026-04-04T16:21:08.041Z</time></trkpt><trkpt lat="43.2692379" lon="12.1614092"><ele>289.0</ele><time>2026-04-04T16:21:09.033Z</time></trkpt><trkpt lat="43.269172" lon="12.1611912"><ele>290.0</ele><time>2026-04-04T16:21:10.04Z</time></trkpt><trkpt lat="43.2691002" lon="12.1609699"><ele>291.0</ele><time>2026-04-04T16:21:11.045Z</time></trkpt><trkpt lat="43.2690217" lon="12.1607565"><ele>292.0</ele><time>2026-04-04T16:21:12.035Z</time></trkpt><trkpt lat="43.2689539" lon="12.1605649"><ele>291.0</ele><time>2026-04-04T16:21:13.053Z</time></trkpt><trkpt lat="43.2688881" lon="12.1604033"><ele>290.0</ele><time>2026-04-04T16:21:14.039Z</time></trkpt><trkpt lat="43.2688287" lon="12.1602639"><ele>289.0</ele><time>2026-04-04T16:21:15.05Z</time></trkpt><trkpt lat="43.2687883" lon="12.1601432"><ele>288.0</ele><time>2026-04-04T16:21:16.042Z</time></trkpt><trkpt lat="43.2687525" lon="12.1600403"><ele>287.0</ele><time>2026-04-04T16:21:17.04Z</time></trkpt><trkpt lat="43.2687021" lon="12.1599407"><ele>287.4</ele><time>2026-04-04T16:21:18.037Z</time></trkpt><trkpt lat="43.2686487" lon="12.1598375"><ele>287.79999999999995</ele><time>2026-04-04T16:21:19.05Z</time></trkpt><trkpt lat="43.2685977" lon="12.1597328"><ele>288.2</ele><time>2026-04-04T16:21:20.042Z</time></trkpt><trkpt lat="43.2685398" lon="12.159625"><ele>288.59999999999997</ele><time>2026-04-04T16:21:21.053Z</time></trkpt><trkpt lat="43.2684909" lon="12.159501"><ele>289.0</ele><time>2026-04-04T16:21:22.038Z</time></trkpt><trkpt lat="43.2684325" lon="12.1593696"><ele>289.0</ele><time>2026-04-04T16:21:23.052Z</time></trkpt><trkpt lat="43.2683715" lon="12.1592432"><ele>289.0</ele><time>2026-04-04T16:21:24.053Z</time></trkpt><trkpt lat="43.268308" lon="12.1591073"><ele>289.0</ele><time>2026-04-04T16:21:25.038Z</time></trkpt><trkpt lat="43.2682458" lon="12.1589684"><ele>289.0</ele><time>2026-04-04T16:21:26.043Z</time></trkpt><trkpt lat="43.2681887" lon="12.1588332"><ele>288.8</ele><time>2026-04-04T16:21:27.038Z</time></trkpt><trkpt lat="43.2681367" lon="12.1587086"><ele>288.59999999999997</ele><time>2026-04-04T16:21:28.044Z</time></trkpt><trkpt lat="43.268085" lon="12.1585972"><ele>288.4</ele><time>2026-04-04T16:21:29.047Z</time></trkpt><trkpt lat="43.2680393" lon="12.1584941"><ele>288.2</ele><time>2026-04-04T16:21:30.039Z</time></trkpt><trkpt lat="43.2680017" lon="12.1584147"><ele>288.0</ele><time>2026-04-04T16:21:31.05Z</time></trkpt><trkpt lat="43.2679809" lon="12.1582817"><ele>288.0</ele><time>2026-04-04T16:21:33.037Z</time></trkpt><trkpt lat="43.2679756" lon="12.1581354"><ele>288.0</ele><time>2026-04-04T16:21:35.052Z</time></trkpt><trkpt lat="43.267948" lon="12.1580529"><ele>288.0</ele><time>2026-04-04T16:21:37.038Z</time></trkpt><trkpt lat="43.2678968" lon="12.158123"><ele>288.0</ele><time>2026-04-04T16:21:41.04Z</time></trkpt><trkpt lat="43.2679021" lon="12.1582339"><ele>288.0</ele><time>2026-04-04T16:21:44.049Z</time></trkpt><trkpt lat="43.2679281" lon="12.1583132"><ele>288.0</ele><time>2026-04-04T16:21:45.057Z</time></trkpt><trkpt lat="43.2679821" lon="12.1584092"><ele>288.0</ele><time>2026-04-04T16:21:46.043Z</time></trkpt><trkpt lat="43.268046" lon="12.1585276"><ele>288.0</ele><time>2026-04-04T16:21:47.042Z</time></trkpt><trkpt lat="43.2681065" lon="12.1586586"><ele>288.0</ele><time>2026-04-04T16:21:48.048Z</time></trkpt><trkpt lat="43.2681589" lon="12.1587922"><ele>288.0</ele><time>2026-04-04T16:21:49.048Z</time></trkpt><trkpt lat="43.2682161" lon="12.1589327"><ele>288.0</ele><time>2026-04-04T16:21:50.04Z</time></trkpt><trkpt lat="43.2682859" lon="12.1590868"><ele>288.25</ele><time>2026-04-04T16:21:51.042Z</time></trkpt><trkpt lat="43.268355" lon="12.1592389"><ele>288.5</ele><time>2026-04-04T16:21:52.051Z</time></trkpt><trkpt lat="43.2684263" lon="12.159397"><ele>288.75</ele><time>2026-04-04T16:21:53.044Z</time></trkpt><trkpt lat="43.2684947" lon="12.1595543"><ele>289.0</ele><time>2026-04-04T16:21:54.05Z</time></trkpt><trkpt lat="43.2685657" lon="12.1596999"><ele>289.0</ele><time>2026-04-04T16:21:55.045Z</time></trkpt><trkpt lat="43.2686341" lon="12.1598415"><ele>289.0</ele><time>2026-04-04T16:21:56.046Z</time></trkpt><trkpt lat="43.268687" lon="12.1599757"><ele>289.0</ele><time>2026-04-04T16:21:57.043Z</time></trkpt><trkpt lat="43.268742" lon="12.1600955"><ele>289.0</ele><time>2026-04-04T16:21:58.042Z</time></trkpt><trkpt lat="43.268783" lon="12.160187"><ele>289.0</ele><time>2026-04-04T16:21:59.046Z</time></trkpt><trkpt lat="43.2687922" lon="12.1603181"><ele>288.59999999999997</ele><time>2026-04-04T16:22:01.053Z</time></trkpt><trkpt lat="43.2686984" lon="12.1604202"><ele>288.2</ele><time>2026-04-04T16:22:03.04Z</time></trkpt><trkpt lat="43.2686185" lon="12.1604535"><ele>287.79999999999995</ele><time>2026-04-04T16:22:04.046Z</time></trkpt><trkpt lat="43.2685233" lon="12.1604879"><ele>287.4</ele><time>2026-04-04T16:22:05.04Z</time></trkpt><trkpt lat="43.2684203" lon="12.1605193"><ele>287.0</ele><time>2026-04-04T16:22:06.05Z</time></trkpt><trkpt lat="43.2683161" lon="12.1605643"><ele>287.0</ele><time>2026-04-04T16:22:07.038Z</time></trkpt><trkpt lat="43.2682059" lon="12.1606105"><ele>287.0</ele><time>2026-04-04T16:22:08.049Z</time></trkpt><trkpt lat="43.2680851" lon="12.1606654"><ele>287.0</ele><time>2026-04-04T16:22:09.049Z</time></trkpt><trkpt lat="43.2679637" lon="12.1607224"><ele>287.0</ele><time>2026-04-04T16:22:10.04Z</time></trkpt><trkpt lat="43.2678388" lon="12.1607866"><ele>287.25</ele><time>2026-04-04T16:22:11.051Z</time></trkpt><trkpt lat="43.2677137" lon="12.1608564"><ele>287.5</ele><time>2026-04-04T16:22:12.046Z</time></trkpt><trkpt lat="43.2675796" lon="12.1609364"><ele>287.75</ele><time>2026-04-04T16:22:13.066Z</time></trkpt><trkpt lat="43.2674428" lon="12.1610206"><ele>288.0</ele><time>2026-04-04T16:22:14.04Z</time></trkpt><trkpt lat="43.2673067" lon="12.1610992"><ele>288.0</ele><time>2026-04-04T16:22:15.046Z</time></trkpt><trkpt lat="43.2671745" lon="12.1611866"><ele>288.0</ele><time>2026-04-04T16:22:16.043Z</time></trkpt><trkpt lat="43.267045" lon="12.1612773"><ele>288.0</ele><time>2026-04-04T16:22:17.045Z</time></trkpt><trkpt lat="43.2669248" lon="12.1613466"><ele>288.0</ele><time>2026-04-04T16:22:18.045Z</time></trkpt><trkpt lat="43.266809" lon="12.1614059"><ele>288.0</ele><time>2026-04-04T16:22:19.044Z</time></trkpt><trkpt lat="43.2666869" lon="12.1614239"><ele>288.0</ele><time>2026-04-04T16:22:20.038Z</time></trkpt><trkpt lat="43.2665688" lon="12.1614021"><ele>288.0</ele><time>2026-04-04T16:22:21.044Z</time></trkpt><trkpt lat="43.2664482" lon="12.1613317"><ele>288.0</ele><time>2026-04-04T16:22:22.052Z</time></trkpt><trkpt lat="43.2663318" lon="12.1612469"><ele>288.2</ele><time>2026-04-04T16:22:23.043Z</time></trkpt><trkpt lat="43.2662257" lon="12.1611663"><ele>288.4</ele><time>2026-04-04T16:22:24.045Z</time></trkpt><trkpt lat="43.2661219" lon="12.1611101"><ele>288.59999999999997</ele><time>2026-04-04T16:22:25.044Z</time></trkpt><trkpt lat="43.2660154" lon="12.161099"><ele>288.8</ele><time>2026-04-04T16:22:26.046Z</time></trkpt><trkpt lat="43.2659151" lon="12.1611395"><ele>289.0</ele><time>2026-04-04T16:22:27.047Z</time></trkpt><trkpt lat="43.2658134" lon="12.1612118"><ele>289.0</ele><time>2026-04-04T16:22:28.038Z</time></trkpt><trkpt lat="43.2657321" lon="12.1613272"><ele>289.0</ele><time>2026-04-04T16:22:29.047Z</time></trkpt><trkpt lat="43.2656582" lon="12.161444"><ele>289.0</ele><time>2026-04-04T16:22:30.044Z</time></trkpt><trkpt lat="43.2655799" lon="12.1615563"><ele>289.0</ele><time>2026-04-04T16:22:31.039Z</time></trkpt><trkpt lat="43.2655018" lon="12.1616691"><ele>288.75</ele><time>2026-04-04T16:22:32.037Z</time></trkpt><trkpt lat="43.2654219" lon="12.1617824"><ele>288.5</ele><time>2026-04-04T16:22:33.049Z</time></trkpt><trkpt lat="43.265348" lon="12.1618947"><ele>288.25</ele><time>2026-04-04T16:22:34.034Z</time></trkpt><trkpt lat="43.2652723" lon="12.1620137"><ele>288.0</ele><time>2026-04-04T16:22:35.044Z</time></trkpt><trkpt lat="43.2651941" lon="12.1621526"><ele>288.0</ele><time>2026-04-04T16:22:36.04Z</time></trkpt><trkpt lat="43.2651043" lon="12.162299"><ele>288.0</ele><time>2026-04-04T16:22:37.046Z</time></trkpt><trkpt lat="43.2650056" lon="12.1624552"><ele>288.0</ele><time>2026-04-04T16:22:38.037Z</time></trkpt><trkpt lat="43.2648976" lon="12.1626071"><ele>288.0</ele><time>2026-04-04T16:22:39.038Z</time></trkpt><trkpt lat="43.2647919" lon="12.1627507"><ele>288.0</ele><time>2026-04-04T16:22:40.035Z</time></trkpt><trkpt lat="43.2646866" lon="12.1629011"><ele>288.0</ele><time>2026-04-04T16:22:41.042Z</time></trkpt><trkpt lat="43.2645845" lon="12.1630557"><ele>288.0</ele><time>2026-04-04T16:22:42.037Z</time></trkpt><trkpt lat="43.264488" lon="12.1631985"><ele>288.0</ele><time>2026-04-04T16:22:43.045Z</time></trkpt><trkpt lat="43.2643897" lon="12.1633393"><ele>287.75</ele><time>2026-04-04T16:22:44.049Z</time></trkpt><trkpt lat="43.2642892" lon="12.163486"><ele>287.5</ele><time>2026-04-04T16:22:45.035Z</time></trkpt><trkpt lat="43.2641825" lon="12.1636303"><ele>287.25</ele><time>2026-04-04T16:22:46.039Z</time></trkpt><trkpt lat="43.2640748" lon="12.1637688"><ele>287.0</ele><time>2026-04-04T16:22:47.04Z</time></trkpt><trkpt lat="43.2639718" lon="12.1638904"><ele>287.0</ele><time>2026-04-04T16:22:48.038Z</time></trkpt><trkpt lat="43.2638798" lon="12.164"><ele>287.0</ele><time>2026-04-04T16:22:49.042Z</time></trkpt><trkpt lat="43.2638046" lon="12.1640838"><ele>287.0</ele><time>2026-04-04T16:22:50.034Z</time></trkpt><trkpt lat="43.2637442" lon="12.1641527"><ele>287.0</ele><time>2026-04-04T16:22:51.037Z</time></trkpt><trkpt lat="43.2636802" lon="12.1642181"><ele>287.0</ele><time>2026-04-04T16:22:53.033Z</time></trkpt><trkpt lat="43.2635986" lon="12.1642129"><ele>287.4</ele><time>2026-04-04T16:23:04.034Z</time></trkpt><trkpt lat="43.2634789" lon="12.1642332"><ele>287.79999999999995</ele><time>2026-04-04T16:23:06.031Z</time></trkpt><trkpt lat="43.2634038" lon="12.1642589"><ele>288.2</ele><time>2026-04-04T16:23:07.036Z</time></trkpt><trkpt lat="43.2633208" lon="12.1643"><ele>288.59999999999997</ele><time>2026-04-04T16:23:08.039Z</time></trkpt><trkpt lat="43.2632264" lon="12.1643507"><ele>289.0</ele><time>2026-04-04T16:23:09.039Z</time></trkpt><trkpt lat="43.2631302" lon="12.1644039"><ele>289.0</ele><time>2026-04-04T16:23:10.036Z</time></trkpt><trkpt lat="43.2630216" lon="12.1644572"><ele>289.0</ele><time>2026-04-04T16:23:11.038Z</time></trkpt><trkpt lat="43.2629159" lon="12.1645231"><ele>289.0</ele><time>2026-04-04T16:23:12.038Z</time></trkpt><trkpt lat="43.262815" lon="12.1646075"><ele>289.0</ele><time>2026-04-04T16:23:13.044Z</time></trkpt><trkpt lat="43.262723" lon="12.1647035"><ele>289.0</ele><time>2026-04-04T16:23:14.036Z</time></trkpt><trkpt lat="43.2626385" lon="12.1648111"><ele>289.0</ele><time>2026-04-04T16:23:15.038Z</time></trkpt><trkpt lat="43.2625606" lon="12.1649245"><ele>289.0</ele><time>2026-04-04T16:23:16.041Z</time></trkpt><trkpt lat="43.2624841" lon="12.1650447"><ele>289.0</ele><time>2026-04-04T16:23:17.037Z</time></trkpt><trkpt lat="43.2624073" lon="12.1651616"><ele>289.25</ele><time>2026-04-04T16:23:18.031Z</time></trkpt><trkpt lat="43.2623257" lon="12.1652819"><ele>289.5</ele><time>2026-04-04T16:23:19.038Z</time></trkpt><trkpt lat="43.2622392" lon="12.1653902"><ele>289.75</ele><time>2026-04-04T16:23:20.031Z</time></trkpt><trkpt lat="43.2621491" lon="12.1654952"><ele>290.0</ele><time>2026-04-04T16:23:21.039Z</time></trkpt><trkpt lat="43.2620633" lon="12.16562"><ele>291.5</ele><time>2026-04-04T16:23:22.041Z</time></trkpt><trkpt lat="43.2619879" lon="12.1657717"><ele>293.0</ele><time>2026-04-04T16:23:23.037Z</time></trkpt><trkpt lat="43.2619098" lon="12.1659284"><ele>294.5</ele><time>2026-04-04T16:23:24.033Z</time></trkpt><trkpt lat="43.2618177" lon="12.1660681"><ele>296.0</ele><time>2026-04-04T16:23:25.034Z</time></trkpt><trkpt lat="43.2617134" lon="12.1661721"><ele>296.0</ele><time>2026-04-04T16:23:26.03Z</time></trkpt><trkpt lat="43.2616043" lon="12.1662646"><ele>296.0</ele><time>2026-04-04T16:23:27.033Z</time></trkpt><trkpt lat="43.261486" lon="12.1663593"><ele>296.0</ele><time>2026-04-04T16:23:28.034Z</time></trkpt><trkpt lat="43.2613729" lon="12.166445"><ele>296.0</ele><time>2026-04-04T16:23:29.038Z</time></trkpt><trkpt lat="43.2612582" lon="12.1665235"><ele>299.6666666666667</ele><time>2026-04-04T16:23:30.04Z</time></trkpt><trkpt lat="43.2611162" lon="12.1665859"><ele>303.3333333333333</ele><time>2026-04-04T16:23:31.042Z</time></trkpt><trkpt lat="43.2609681" lon="12.1666397"><ele>307.0</ele><time>2026-04-04T16:23:32.037Z</time></trkpt><trkpt lat="43.2608149" lon="12.1666965"><ele>307.0</ele><time>2026-04-04T16:23:33.032Z</time></trkpt><trkpt lat="43.2606684" lon="12.1667656"><ele>307.0</ele><time>2026-04-04T16:23:34.034Z</time></trkpt><trkpt lat="43.2605274" lon="12.1668559"><ele>307.0</ele><time>2026-04-04T16:23:35.037Z</time></trkpt><trkpt lat="43.2603825" lon="12.1669457"><ele>309.0</ele><time>2026-04-04T16:23:36.033Z</time></trkpt><trkpt lat="43.2602427" lon="12.1670336"><ele>311.0</ele><time>2026-04-04T16:23:37.051Z</time></trkpt><trkpt lat="43.2601013" lon="12.1671152"><ele>313.0</ele><time>2026-04-04T16:23:38.033Z</time></trkpt><trkpt lat="43.2599629" lon="12.1671846"><ele>313.0</ele><time>2026-04-04T16:23:39.038Z</time></trkpt><trkpt lat="43.2598268" lon="12.1672545"><ele>313.0</ele><time>2026-04-04T16:23:40.032Z</time></trkpt><trkpt lat="43.2596973" lon="12.1673348"><ele>313.0</ele><time>2026-04-04T16:23:41.032Z</time></trkpt><trkpt lat="43.2595677" lon="12.1674213"><ele>313.0</ele><time>2026-04-04T16:23:42.04Z</time></trkpt><trkpt lat="43.2594401" lon="12.1675036"><ele>318.0</ele><time>2026-04-04T16:23:43.029Z</time></trkpt><trkpt lat="43.2593141" lon="12.1675847"><ele>323.0</ele><time>2026-04-04T16:23:44.034Z</time></trkpt><trkpt lat="43.2591951" lon="12.1676742"><ele>328.0</ele><time>2026-04-04T16:23:45.027Z</time></trkpt><trkpt lat="43.2590977" lon="12.167747"><ele>333.0</ele><time>2026-04-04T16:23:46.044Z</time></trkpt><trkpt lat="43.2590153" lon="12.1677948"><ele>334.4</ele><time>2026-04-04T16:23:47.039Z</time></trkpt><trkpt lat="43.2589365" lon="12.1677986"><ele>335.79999999999995</ele><time>2026-04-04T16:23:48.043Z</time></trkpt><trkpt lat="43.2588646" lon="12.1677613"><ele>337.2</ele><time>2026-04-04T16:23:49.03Z</time></trkpt><trkpt lat="43.2587812" lon="12.1677039"><ele>338.6</ele><time>2026-04-04T16:23:50.024Z</time></trkpt><trkpt lat="43.2586852" lon="12.1676423"><ele>340.0</ele><time>2026-04-04T16:23:51.034Z</time></trkpt><trkpt lat="43.2585757" lon="12.1675891"><ele>340.0</ele><time>2026-04-04T16:23:52.031Z</time></trkpt><trkpt lat="43.2584562" lon="12.1675389"><ele>340.0</ele><time>2026-04-04T16:23:53.03Z</time></trkpt><trkpt lat="43.2583275" lon="12.1674938"><ele>340.0</ele><time>2026-04-04T16:23:54.027Z</time></trkpt><trkpt lat="43.2581961" lon="12.1674474"><ele>340.0</ele><time>2026-04-04T16:23:55.037Z</time></trkpt><trkpt lat="43.2580686" lon="12.1674001"><ele>336.25</ele><time>2026-04-04T16:23:56.03Z</time></trkpt><trkpt lat="43.2579499" lon="12.1673481"><ele>332.5</ele><time>2026-04-04T16:23:57.036Z</time></trkpt><trkpt lat="43.2578394" lon="12.1673117"><ele>328.75</ele><time>2026-04-04T16:23:58.023Z</time></trkpt><trkpt lat="43.2577306" lon="12.1673076"><ele>325.0</ele><time>2026-04-04T16:23:59.029Z</time></trkpt><trkpt lat="43.2576299" lon="12.1673348"><ele>329.75</ele><time>2026-04-04T16:24:00.037Z</time></trkpt><trkpt lat="43.2575323" lon="12.1674009"><ele>334.5</ele><time>2026-04-04T16:24:01.033Z</time></trkpt><trkpt lat="43.2574378" lon="12.1674702"><ele>339.25</ele><time>2026-04-04T16:24:02.038Z</time></trkpt><trkpt lat="43.25734" lon="12.167559"><ele>344.0</ele><time>2026-04-04T16:24:03.034Z</time></trkpt><trkpt lat="43.2572404" lon="12.167649"><ele>344.0</ele><time>2026-04-04T16:24:04.033Z</time></trkpt><trkpt lat="43.2571285" lon="12.1677375"><ele>344.0</ele><time>2026-04-04T16:24:05.027Z</time></trkpt><trkpt lat="43.2570181" lon="12.1678399"><ele>344.0</ele><time>2026-04-04T16:24:06.036Z</time></trkpt><trkpt lat="43.256902" lon="12.167945"><ele>344.0</ele><time>2026-04-04T16:24:07.033Z</time></trkpt><trkpt lat="43.2567879" lon="12.168047"><ele>344.0</ele><time>2026-04-04T16:24:08.041Z</time></trkpt><trkpt lat="43.256675" lon="12.1681576"><ele>344.0</ele><time>2026-04-04T16:24:09.028Z</time></trkpt><trkpt lat="43.2565574" lon="12.1682657"><ele>344.0</ele><time>2026-04-04T16:24:10.042Z</time></trkpt><trkpt lat="43.2564392" lon="12.1683679"><ele>344.0</ele><time>2026-04-04T16:24:11.035Z</time></trkpt><trkpt lat="43.2563438" lon="12.1684664"><ele>347.0</ele><time>2026-04-04T16:24:12.031Z</time></trkpt><trkpt lat="43.2562716" lon="12.1685774"><ele>350.0</ele><time>2026-04-04T16:24:13.038Z</time></trkpt><trkpt lat="43.2562219" lon="12.1687064"><ele>353.0</ele><time>2026-04-04T16:24:14.037Z</time></trkpt><trkpt lat="43.2561989" lon="12.1688719"><ele>356.0</ele><time>2026-04-04T16:24:15.032Z</time></trkpt><trkpt lat="43.2562022" lon="12.1690294"><ele>358.25</ele><time>2026-04-04T16:24:16.024Z</time></trkpt><trkpt lat="43.2561904" lon="12.1692031"><ele>360.5</ele><time>2026-04-04T16:24:17.032Z</time></trkpt><trkpt lat="43.2561851" lon="12.1693683"><ele>362.75</ele><time>2026-04-04T16:24:18.036Z</time></trkpt><trkpt lat="43.2561751" lon="12.169531"><ele>365.0</ele><time>2026-04-04T16:24:19.031Z</time></trkpt><trkpt lat="43.2561568" lon="12.1696702"><ele>365.0</ele><time>2026-04-04T16:24:20.03Z</time></trkpt><trkpt lat="43.2561199" lon="12.1698088"><ele>365.0</ele><time>2026-04-04T16:24:21.029Z</time></trkpt><trkpt lat="43.2560775" lon="12.1699485"><ele>365.0</ele><time>2026-04-04T16:24:22.027Z</time></trkpt><trkpt lat="43.2560404" lon="12.1700648"><ele>365.0</ele><time>2026-04-04T16:24:23.022Z</time></trkpt><trkpt lat="43.25599" lon="12.1701462"><ele>365.0</ele><time>2026-04-04T16:24:24.037Z</time></trkpt><trkpt lat="43.2559244" lon="12.1701875"><ele>366.5</ele><time>2026-04-04T16:24:25.038Z</time></trkpt><trkpt lat="43.2558482" lon="12.170189"><ele>368.0</ele><time>2026-04-04T16:24:26.029Z</time></trkpt><trkpt lat="43.2557825" lon="12.1701781"><ele>369.5</ele><time>2026-04-04T16:24:27.033Z</time></trkpt><trkpt lat="43.2556655" lon="12.1701627"><ele>371.0</ele><time>2026-04-04T16:24:29.021Z</time></trkpt><trkpt lat="43.2555782" lon="12.1701578"><ele>372.5</ele><time>2026-04-04T16:24:32.021Z</time></trkpt><trkpt lat="43.2556472" lon="12.1702192"><ele>374.0</ele><time>2026-04-04T16:24:37.036Z</time></trkpt><trkpt lat="43.2557641" lon="12.170205"><ele>374.83333333333337</ele><time>2026-04-04T16:24:39.028Z</time></trkpt><trkpt lat="43.2558481" lon="12.1702021"><ele>375.6666666666667</ele><time>2026-04-04T16:24:40.028Z</time></trkpt><trkpt lat="43.2559408" lon="12.1701928"><ele>376.5</ele><time>2026-04-04T16:24:41.029Z</time></trkpt><trkpt lat="43.2560303" lon="12.1701839"><ele>377.3333333333333</ele><time>2026-04-04T16:24:42.042Z</time></trkpt><trkpt lat="43.2561174" lon="12.1701532"><ele>378.16666666666663</ele><time>2026-04-04T16:24:43.036Z</time></trkpt><trkpt lat="43.2561994" lon="12.1701103"><ele>379.0</ele><time>2026-04-04T16:24:44.026Z</time></trkpt><trkpt lat="43.2562858" lon="12.1700725"><ele>379.0</ele><time>2026-04-04T16:24:45.029Z</time></trkpt><trkpt lat="43.2563649" lon="12.1700784"><ele>379.0</ele><time>2026-04-04T16:24:46.032Z</time></trkpt><trkpt lat="43.2564367" lon="12.1700694"><ele>379.0</ele><time>2026-04-04T16:24:47.026Z</time></trkpt><trkpt lat="43.2565187" lon="12.1700533"><ele>379.0</ele><time>2026-04-04T16:24:48.028Z</time></trkpt><trkpt lat="43.2566035" lon="12.1700126"><ele>379.0</ele><time>2026-04-04T16:24:49.019Z</time></trkpt><trkpt lat="43.2566761" lon="12.1699964"><ele>379.0</ele><time>2026-04-04T16:24:50.031Z</time></trkpt><trkpt lat="43.2567532" lon="12.1700396"><ele>380.5714285714286</ele><time>2026-04-04T16:24:52.029Z</time></trkpt><trkpt lat="43.2567465" lon="12.1701316"><ele>382.14285714285717</ele><time>2026-04-04T16:24:59.026Z</time></trkpt><trkpt lat="43.2566998" lon="12.1701937"><ele>383.7142857142857</ele><time>2026-04-04T16:25:00.027Z</time></trkpt><trkpt lat="43.2566433" lon="12.1702463"><ele>385.28571428571433</ele><time>2026-04-04T16:25:01.029Z</time></trkpt><trkpt lat="43.2565924" lon="12.1703165"><ele>386.85714285714283</ele><time>2026-04-04T16:25:02.028Z</time></trkpt><trkpt lat="43.2565532" lon="12.170398"><ele>388.42857142857144</ele><time>2026-04-04T16:25:03.037Z</time></trkpt><trkpt lat="43.2565572" lon="12.170542"><ele>390.0</ele><time>2026-04-04T16:25:05.03Z</time></trkpt><trkpt lat="43.25664" lon="12.1706002"><ele>390.0</ele><time>2026-04-04T16:25:07.03Z</time></trkpt><trkpt lat="43.2567488" lon="12.1705697"><ele>390.0</ele><time>2026-04-04T16:25:09.022Z</time></trkpt><trkpt lat="43.2568301" lon="12.1706276"><ele>390.0</ele><time>2026-04-04T16:25:12.027Z</time></trkpt><trkpt lat="43.2567575" lon="12.1706029"><ele>390.0</ele><time>2026-04-04T16:25:36.026Z</time></trkpt><trkpt lat="43.2566797" lon="12.1706131"><ele>390.0</ele><time>2026-04-04T16:25:38.033Z</time></trkpt><trkpt lat="43.2565992" lon="12.1705899"><ele>390.0</ele><time>2026-04-04T16:25:40.024Z</time></trkpt><trkpt lat="43.2565428" lon="12.1704861"><ele>390.0</ele><time>2026-04-04T16:25:42.025Z</time></trkpt><trkpt lat="43.2565649" lon="12.170357"><ele>390.0</ele><time>2026-04-04T16:25:44.029Z</time></trkpt><trkpt lat="43.2566361" lon="12.1702584"><ele>390.0</ele><time>2026-04-04T16:25:46.03Z</time></trkpt><trkpt lat="43.2567039" lon="12.1701678"><ele>390.0</ele><time>2026-04-04T16:25:48.023Z</time></trkpt><trkpt lat="43.2567712" lon="12.1700953"><ele>390.0</ele><time>2026-04-04T16:25:50.028Z</time></trkpt><trkpt lat="43.2567638" lon="12.1700078"><ele>390.0</ele><time>2026-04-04T16:26:02.021Z</time></trkpt><trkpt lat="43.2566788" lon="12.1699868"><ele>390.0</ele><time>2026-04-04T16:26:04.022Z</time></trkpt><trkpt lat="43.2565667" lon="12.1700109"><ele>390.0</ele><time>2026-04-04T16:26:06.024Z</time></trkpt><trkpt lat="43.2564473" lon="12.1700639"><ele>390.0</ele><time>2026-04-04T16:26:08.025Z</time></trkpt><trkpt lat="43.2563339" lon="12.1700766"><ele>390.0</ele><time>2026-04-04T16:26:10.028Z</time></trkpt><trkpt lat="43.2562359" lon="12.1700829"><ele>387.8</ele><time>2026-04-04T16:26:12.03Z</time></trkpt><trkpt lat="43.2561406" lon="12.1701594"><ele>385.6</ele><time>2026-04-04T16:26:14.039Z</time></trkpt><trkpt lat="43.2560632" lon="12.1702113"><ele>383.4</ele><time>2026-04-04T16:26:16.034Z</time></trkpt><trkpt lat="43.2559679" lon="12.1702095"><ele>381.2</ele><time>2026-04-04T16:27:16.031Z</time></trkpt><trkpt lat="43.2559026" lon="12.1702044"><ele>379.0</ele><time>2026-04-04T16:27:17.026Z</time></trkpt><trkpt lat="43.2557692" lon="12.1701888"><ele>379.0</ele><time>2026-04-04T16:27:19.027Z</time></trkpt><trkpt lat="43.2556998" lon="12.1701792"><ele>379.0</ele><time>2026-04-04T16:27:20.025Z</time></trkpt><trkpt lat="43.2555985" lon="12.1702157"><ele>379.0</ele><time>2026-04-04T16:27:22.039Z</time></trkpt><trkpt lat="43.2555066" lon="12.1702871"><ele>379.0</ele><time>2026-04-04T16:27:24.031Z</time></trkpt><trkpt lat="43.2554523" lon="12.1703345"><ele>379.0</ele><time>2026-04-04T16:27:26.027Z</time></trkpt><trkpt lat="43.2553839" lon="12.1704216"><ele>379.0</ele><time>2026-04-04T16:27:51.037Z</time></trkpt><trkpt lat="43.2552906" lon="12.1705206"><ele>378.16666666666663</ele><time>2026-04-04T16:27:53.021Z</time></trkpt><trkpt lat="43.2552297" lon="12.1705691"><ele>377.3333333333333</ele><time>2026-04-04T16:27:54.023Z</time></trkpt><trkpt lat="43.2551588" lon="12.170638"><ele>376.5</ele><time>2026-04-04T16:27:55.027Z</time></trkpt><trkpt lat="43.2550856" lon="12.1707096"><ele>375.6666666666667</ele><time>2026-04-04T16:27:56.027Z</time></trkpt><trkpt lat="43.2550083" lon="12.1707893"><ele>374.83333333333337</ele><time>2026-04-04T16:27:57.021Z</time></trkpt><trkpt lat="43.2549306" lon="12.1708709"><ele>374.0</ele><time>2026-04-04T16:27:58.038Z</time></trkpt><trkpt lat="43.2548531" lon="12.1709635"><ele>375.6</ele><time>2026-04-04T16:27:59.032Z</time></trkpt><trkpt lat="43.2547878" lon="12.1710743"><ele>377.2</ele><time>2026-04-04T16:28:00.037Z</time></trkpt><trkpt lat="43.2547303" lon="12.1711979"><ele>378.8</ele><time>2026-04-04T16:28:01.026Z</time></trkpt><trkpt lat="43.2546869" lon="12.1713245"><ele>380.40000000000003</ele><time>2026-04-04T16:28:02.034Z</time></trkpt><trkpt lat="43.2546754" lon="12.1714654"><ele>382.0</ele><time>2026-04-04T16:28:03.026Z</time></trkpt><trkpt lat="43.2546725" lon="12.1716079"><ele>384.16666666666663</ele><time>2026-04-04T16:28:04.022Z</time></trkpt><trkpt lat="43.2546581" lon="12.1717257"><ele>386.3333333333333</ele><time>2026-04-04T16:28:05.042Z</time></trkpt><trkpt lat="43.254602" lon="12.1718011"><ele>388.5</ele><time>2026-04-04T16:28:06.03Z</time></trkpt><trkpt lat="43.2545273" lon="12.1718422"><ele>390.66666666666663</ele><time>2026-04-04T16:28:07.023Z</time></trkpt><trkpt lat="43.2544401" lon="12.1718623"><ele>392.8333333333333</ele><time>2026-04-04T16:28:08.04Z</time></trkpt><trkpt lat="43.25435" lon="12.1718712"><ele>395.0</ele><time>2026-04-04T16:28:09.03Z</time></trkpt><trkpt lat="43.2542479" lon="12.1718877"><ele>395.0</ele><time>2026-04-04T16:28:10.025Z</time></trkpt><trkpt lat="43.2541512" lon="12.1719038"><ele>395.0</ele><time>2026-04-04T16:28:11.028Z</time></trkpt><trkpt lat="43.2540607" lon="12.171945"><ele>395.0</ele><time>2026-04-04T16:28:12.04Z</time></trkpt><trkpt lat="43.2539702" lon="12.1720146"><ele>395.0</ele><time>2026-04-04T16:28:13.037Z</time></trkpt><trkpt lat="43.2538755" lon="12.1720991"><ele>395.0</ele><time>2026-04-04T16:28:14.03Z</time></trkpt><trkpt lat="43.253765" lon="12.1721691"><ele>393.75</ele><time>2026-04-04T16:28:15.028Z</time></trkpt><trkpt lat="43.2536413" lon="12.1722089"><ele>392.5</ele><time>2026-04-04T16:28:16.027Z</time></trkpt><trkpt lat="43.2535172" lon="12.1722128"><ele>391.25</ele><time>2026-04-04T16:28:17.032Z</time></trkpt><trkpt lat="43.2534022" lon="12.1722086"><ele>390.0</ele><time>2026-04-04T16:28:18.023Z</time></trkpt><trkpt lat="43.2532964" lon="12.1722558"><ele>390.0</ele><time>2026-04-04T16:28:19.028Z</time></trkpt><trkpt lat="43.2532048" lon="12.1723285"><ele>390.0</ele><time>2026-04-04T16:28:20.024Z</time></trkpt><trkpt lat="43.2531283" lon="12.1724505"><ele>390.0</ele><time>2026-04-04T16:28:21.034Z</time></trkpt><trkpt lat="43.2530609" lon="12.1725812"><ele>390.0</ele><time>2026-04-04T16:28:22.032Z</time></trkpt><trkpt lat="43.2529863" lon="12.1727"><ele>392.25</ele><time>2026-04-04T16:28:23.029Z</time></trkpt><trkpt lat="43.2528898" lon="12.1727832"><ele>394.5</ele><time>2026-04-04T16:28:24.025Z</time></trkpt><trkpt lat="43.2527643" lon="12.1728192"><ele>396.75</ele><time>2026-04-04T16:28:25.035Z</time></trkpt><trkpt lat="43.2526355" lon="12.1728645"><ele>399.0</ele><time>2026-04-04T16:28:26.025Z</time></trkpt><trkpt lat="43.2525154" lon="12.1728959"><ele>399.0</ele><time>2026-04-04T16:28:27.033Z</time></trkpt><trkpt lat="43.2524012" lon="12.1729418"><ele>399.0</ele><time>2026-04-04T16:28:28.024Z</time></trkpt><trkpt lat="43.2523068" lon="12.1730271"><ele>399.0</ele><time>2026-04-04T16:28:29.035Z</time></trkpt><trkpt lat="43.2522261" lon="12.1731449"><ele>399.0</ele><time>2026-04-04T16:28:30.034Z</time></trkpt><trkpt lat="43.2521596" lon="12.1732563"><ele>402.5</ele><time>2026-04-04T16:28:31.04Z</time></trkpt><trkpt lat="43.2520749" lon="12.1733463"><ele>406.0</ele><time>2026-04-04T16:28:32.034Z</time></trkpt><trkpt lat="43.2519761" lon="12.1734051"><ele>409.5</ele><time>2026-04-04T16:28:33.036Z</time></trkpt><trkpt lat="43.2518731" lon="12.173465"><ele>413.0</ele><time>2026-04-04T16:28:34.028Z</time></trkpt><trkpt lat="43.2517552" lon="12.1735261"><ele>413.0</ele><time>2026-04-04T16:28:35.033Z</time></trkpt><trkpt lat="43.2516388" lon="12.1735814"><ele>413.0</ele><time>2026-04-04T16:28:36.034Z</time></trkpt><trkpt lat="43.2515048" lon="12.1736309"><ele>413.0</ele><time>2026-04-04T16:28:37.031Z</time></trkpt><trkpt lat="43.25137" lon="12.1736949"><ele>413.0</ele><time>2026-04-04T16:28:38.024Z</time></trkpt><trkpt lat="43.2512296" lon="12.1737685"><ele>411.66666666666663</ele><time>2026-04-04T16:28:39.033Z</time></trkpt><trkpt lat="43.2510903" lon="12.1738417"><ele>410.33333333333337</ele><time>2026-04-04T16:28:40.029Z</time></trkpt><trkpt lat="43.2509486" lon="12.1739409"><ele>409.0</ele><time>2026-04-04T16:28:41.03Z</time></trkpt><trkpt lat="43.2508143" lon="12.1740573"><ele>414.0</ele><time>2026-04-04T16:28:42.038Z</time></trkpt><trkpt lat="43.2506732" lon="12.1741584"><ele>419.0</ele><time>2026-04-04T16:28:43.025Z</time></trkpt><trkpt lat="43.2505184" lon="12.1742322"><ele>424.0</ele><time>2026-04-04T16:28:44.033Z</time></trkpt><trkpt lat="43.2503766" lon="12.1742919"><ele>424.33333333333337</ele><time>2026-04-04T16:28:45.028Z</time></trkpt><trkpt lat="43.2502327" lon="12.1743712"><ele>424.66666666666663</ele><time>2026-04-04T16:28:46.031Z</time></trkpt><trkpt lat="43.2500889" lon="12.1744904"><ele>425.0</ele><time>2026-04-04T16:28:47.033Z</time></trkpt><trkpt lat="43.2499583" lon="12.1746353"><ele>425.0</ele><time>2026-04-04T16:28:48.028Z</time></trkpt><trkpt lat="43.2498175" lon="12.1747854"><ele>425.0</ele><time>2026-04-04T16:28:49.026Z</time></trkpt><trkpt lat="43.2496779" lon="12.1749286"><ele>425.0</ele><time>2026-04-04T16:28:50.024Z</time></trkpt><trkpt lat="43.2495538" lon="12.1750361"><ele>427.75</ele><time>2026-04-04T16:28:51.028Z</time></trkpt><trkpt lat="43.2494267" lon="12.175113"><ele>430.5</ele><time>2026-04-04T16:28:52.029Z</time></trkpt><trkpt lat="43.2493073" lon="12.175168"><ele>433.25</ele><time>2026-04-04T16:28:53.033Z</time></trkpt><trkpt lat="43.2491979" lon="12.1752347"><ele>436.0</ele><time>2026-04-04T16:28:54.04Z</time></trkpt><trkpt lat="43.2490918" lon="12.175318"><ele>436.0</ele><time>2026-04-04T16:28:55.03Z</time></trkpt><trkpt lat="43.2489886" lon="12.1754078"><ele>436.0</ele><time>2026-04-04T16:28:56.03Z</time></trkpt><trkpt lat="43.2488799" lon="12.1754873"><ele>436.0</ele><time>2026-04-04T16:28:57.035Z</time></trkpt><trkpt lat="43.2487652" lon="12.175548"><ele>436.0</ele><time>2026-04-04T16:28:58.038Z</time></trkpt><trkpt lat="43.2486396" lon="12.1755416"><ele>436.75</ele><time>2026-04-04T16:28:59.04Z</time></trkpt><trkpt lat="43.2485096" lon="12.1755106"><ele>437.5</ele><time>2026-04-04T16:29:00.027Z</time></trkpt><trkpt lat="43.2483769" lon="12.1755047"><ele>438.25</ele><time>2026-04-04T16:29:01.03Z</time></trkpt><trkpt lat="43.2482497" lon="12.1755265"><ele>439.0</ele><time>2026-04-04T16:29:02.023Z</time></trkpt><trkpt lat="43.2481304" lon="12.1755717"><ele>442.5</ele><time>2026-04-04T16:29:03.03Z</time></trkpt><trkpt lat="43.248006" lon="12.1756266"><ele>446.0</ele><time>2026-04-04T16:29:04.036Z</time></trkpt><trkpt lat="43.2478867" lon="12.1756924"><ele>449.5</ele><time>2026-04-04T16:29:05.023Z</time></trkpt><trkpt lat="43.2477704" lon="12.1757597"><ele>453.0</ele><time>2026-04-04T16:29:06.039Z</time></trkpt><trkpt lat="43.2476558" lon="12.1758426"><ele>454.25</ele><time>2026-04-04T16:29:07.039Z</time></trkpt><trkpt lat="43.2475429" lon="12.1759507"><ele>455.5</ele><time>2026-04-04T16:29:08.031Z</time></trkpt><trkpt lat="43.2474297" lon="12.1760694"><ele>456.75</ele><time>2026-04-04T16:29:09.036Z</time></trkpt><trkpt lat="43.2473137" lon="12.1762064"><ele>458.0</ele><time>2026-04-04T16:29:10.024Z</time></trkpt><trkpt lat="43.2472199" lon="12.1763679"><ele>461.75</ele><time>2026-04-04T16:29:11.031Z</time></trkpt><trkpt lat="43.2471331" lon="12.1765311"><ele>465.5</ele><time>2026-04-04T16:29:12.026Z</time></trkpt><trkpt lat="43.247046" lon="12.1766904"><ele>469.25</ele><time>2026-04-04T16:29:13.027Z</time></trkpt><trkpt lat="43.2469632" lon="12.1768546"><ele>473.0</ele><time>2026-04-04T16:29:14.02Z</time></trkpt><trkpt lat="43.2468799" lon="12.1770142"><ele>473.0</ele><time>2026-04-04T16:29:15.042Z</time></trkpt><trkpt lat="43.2467846" lon="12.1771553"><ele>473.0</ele><time>2026-04-04T16:29:16.032Z</time></trkpt><trkpt lat="43.2466643" lon="12.177262"><ele>473.0</ele><time>2026-04-04T16:29:17.027Z</time></trkpt><trkpt lat="43.2465405" lon="12.1773486"><ele>473.0</ele><time>2026-04-04T16:29:18.035Z</time></trkpt><trkpt lat="43.2464158" lon="12.17742"><ele>477.0</ele><time>2026-04-04T16:29:19.03Z</time></trkpt><trkpt lat="43.2462968" lon="12.1774972"><ele>481.0</ele><time>2026-04-04T16:29:20.02Z</time></trkpt><trkpt lat="43.2461822" lon="12.1775961"><ele>485.0</ele><time>2026-04-04T16:29:21.029Z</time></trkpt><trkpt lat="43.2460845" lon="12.1776864"><ele>489.0</ele><time>2026-04-04T16:29:22.04Z</time></trkpt><trkpt lat="43.2460034" lon="12.1777513"><ele>489.0</ele><time>2026-04-04T16:29:23.035Z</time></trkpt><trkpt lat="43.245929" lon="12.177796"><ele>489.0</ele><time>2026-04-04T16:29:24.031Z</time></trkpt><trkpt lat="43.2458669" lon="12.1778275"><ele>489.0</ele><time>2026-04-04T16:29:25.032Z</time></trkpt><trkpt lat="43.2457688" lon="12.1778587"><ele>489.0</ele><time>2026-04-04T16:29:27.052Z</time></trkpt><trkpt lat="43.2456667" lon="12.1778512"><ele>489.0</ele><time>2026-04-04T16:29:29.038Z</time></trkpt><trkpt lat="43.2455937" lon="12.1778235"><ele>489.0</ele><time>2026-04-04T16:29:30.04Z</time></trkpt><trkpt lat="43.2455154" lon="12.1778131"><ele>488.2</ele><time>2026-04-04T16:29:31.035Z</time></trkpt><trkpt lat="43.2454295" lon="12.1778177"><ele>487.4</ele><time>2026-04-04T16:29:32.042Z</time></trkpt><trkpt lat="43.2453443" lon="12.1778494"><ele>486.6</ele><time>2026-04-04T16:29:33.043Z</time></trkpt><trkpt lat="43.2452572" lon="12.1778942"><ele>485.8</ele><time>2026-04-04T16:29:34.038Z</time></trkpt><trkpt lat="43.2451723" lon="12.1779289"><ele>485.0</ele><time>2026-04-04T16:29:35.048Z</time></trkpt><trkpt lat="43.2450775" lon="12.1779465"><ele>485.0</ele><time>2026-04-04T16:29:36.039Z</time></trkpt><trkpt lat="43.2449708" lon="12.1779271"><ele>485.0</ele><time>2026-04-04T16:29:37.037Z</time></trkpt><trkpt lat="43.2448563" lon="12.1778752"><ele>485.0</ele><time>2026-04-04T16:29:38.047Z</time></trkpt><trkpt lat="43.2447428" lon="12.1778004"><ele>485.0</ele><time>2026-04-04T16:29:39.041Z</time></trkpt><trkpt lat="43.2446269" lon="12.1777166"><ele>483.25</ele><time>2026-04-04T16:29:40.042Z</time></trkpt><trkpt lat="43.2445062" lon="12.1776241"><ele>481.5</ele><time>2026-04-04T16:29:41.037Z</time></trkpt><trkpt lat="43.244391" lon="12.1775298"><ele>479.75</ele><time>2026-04-04T16:29:42.043Z</time></trkpt><trkpt lat="43.2442793" lon="12.1774455"><ele>478.0</ele><time>2026-04-04T16:29:43.039Z</time></trkpt><trkpt lat="43.2441489" lon="12.1774022"><ele>478.0</ele><time>2026-04-04T16:29:44.044Z</time></trkpt><trkpt lat="43.2440117" lon="12.1773736"><ele>478.0</ele><time>2026-04-04T16:29:45.039Z</time></trkpt><trkpt lat="43.2438661" lon="12.1773673"><ele>478.0</ele><time>2026-04-04T16:29:46.036Z</time></trkpt><trkpt lat="43.2437195" lon="12.1773584"><ele>478.0</ele><time>2026-04-04T16:29:47.036Z</time></trkpt><trkpt lat="43.2435683" lon="12.1773545"><ele>479.5</ele><time>2026-04-04T16:29:48.038Z</time></trkpt><trkpt lat="43.2434231" lon="12.1773432"><ele>481.0</ele><time>2026-04-04T16:29:49.037Z</time></trkpt><trkpt lat="43.243292" lon="12.1773212"><ele>482.5</ele><time>2026-04-04T16:29:50.031Z</time></trkpt><trkpt lat="43.2431698" lon="12.17726"><ele>484.0</ele><time>2026-04-04T16:29:51.045Z</time></trkpt><trkpt lat="43.2430472" lon="12.1771709"><ele>484.0</ele><time>2026-04-04T16:29:52.042Z</time></trkpt><trkpt lat="43.2429218" lon="12.1770901"><ele>484.0</ele><time>2026-04-04T16:29:53.027Z</time></trkpt><trkpt lat="43.2427929" lon="12.1770185"><ele>484.0</ele><time>2026-04-04T16:29:54.032Z</time></trkpt><trkpt lat="43.2426674" lon="12.1769695"><ele>484.0</ele><time>2026-04-04T16:29:55.028Z</time></trkpt><trkpt lat="43.2425288" lon="12.1769522"><ele>484.0</ele><time>2026-04-04T16:29:56.036Z</time></trkpt><trkpt lat="43.2423869" lon="12.1769504"><ele>484.0</ele><time>2026-04-04T16:29:57.029Z</time></trkpt><trkpt lat="43.2422456" lon="12.1769742"><ele>484.0</ele><time>2026-04-04T16:29:58.023Z</time></trkpt><trkpt lat="43.2421016" lon="12.1770222"><ele>484.0</ele><time>2026-04-04T16:29:59.034Z</time></trkpt><trkpt lat="43.2419636" lon="12.1770851"><ele>483.75</ele><time>2026-04-04T16:30:00.046Z</time></trkpt><trkpt lat="43.2418334" lon="12.177144"><ele>483.5</ele><time>2026-04-04T16:30:01.048Z</time></trkpt><trkpt lat="43.2417212" lon="12.1772073"><ele>483.25</ele><time>2026-04-04T16:30:02.032Z</time></trkpt><trkpt lat="43.2416072" lon="12.1772868"><ele>483.0</ele><time>2026-04-04T16:30:03.032Z</time></trkpt><trkpt lat="43.241493" lon="12.1773606"><ele>475.75</ele><time>2026-04-04T16:30:04.029Z</time></trkpt><trkpt lat="43.2413817" lon="12.1774102"><ele>468.5</ele><time>2026-04-04T16:30:05.037Z</time></trkpt><trkpt lat="43.2412684" lon="12.1774315"><ele>461.25</ele><time>2026-04-04T16:30:06.035Z</time></trkpt><trkpt lat="43.2411562" lon="12.1774195"><ele>454.0</ele><time>2026-04-04T16:30:07.034Z</time></trkpt><trkpt lat="43.2410435" lon="12.1773754"><ele>456.25</ele><time>2026-04-04T16:30:08.03Z</time></trkpt><trkpt lat="43.2409287" lon="12.1773245"><ele>458.5</ele><time>2026-04-04T16:30:09.033Z</time></trkpt><trkpt lat="43.2408154" lon="12.1772745"><ele>460.75</ele><time>2026-04-04T16:30:10.029Z</time></trkpt><trkpt lat="43.2406973" lon="12.1772219"><ele>463.0</ele><time>2026-04-04T16:30:11.03Z</time></trkpt><trkpt lat="43.2405729" lon="12.1771806"><ele>463.0</ele><time>2026-04-04T16:30:12.029Z</time></trkpt><trkpt lat="43.2404454" lon="12.1771589"><ele>463.0</ele><time>2026-04-04T16:30:13.032Z</time></trkpt><trkpt lat="43.2403158" lon="12.1771687"><ele>463.0</ele><time>2026-04-04T16:30:14.033Z</time></trkpt><trkpt lat="43.2401828" lon="12.1771779"><ele>463.0</ele><time>2026-04-04T16:30:15.026Z</time></trkpt><trkpt lat="43.2400531" lon="12.1771651"><ele>463.0</ele><time>2026-04-04T16:30:16.034Z</time></trkpt><trkpt lat="43.2399317" lon="12.1771462"><ele>462.99999999999994</ele><time>2026-04-04T16:30:17.035Z</time></trkpt><trkpt lat="43.2398232" lon="12.1771231"><ele>462.99999999999994</ele><time>2026-04-04T16:30:18.025Z</time></trkpt><trkpt lat="43.2397396" lon="12.1771369"><ele>463.0</ele><time>2026-04-04T16:30:19.024Z</time></trkpt><trkpt lat="43.2396698" lon="12.1771803"><ele>463.0</ele><time>2026-04-04T16:30:20.03Z</time></trkpt><trkpt lat="43.2396029" lon="12.1772734"><ele>462.2</ele><time>2026-04-04T16:30:21.028Z</time></trkpt><trkpt lat="43.2395457" lon="12.1773904"><ele>461.4</ele><time>2026-04-04T16:30:22.031Z</time></trkpt><trkpt lat="43.2394898" lon="12.1775191"><ele>460.59999999999997</ele><time>2026-04-04T16:30:23.029Z</time></trkpt><trkpt lat="43.239428" lon="12.1776436"><ele>459.79999999999995</ele><time>2026-04-04T16:30:24.026Z</time></trkpt><trkpt lat="43.239366" lon="12.1777593"><ele>459.0</ele><time>2026-04-04T16:30:25.034Z</time></trkpt><trkpt lat="43.2392985" lon="12.1778397"><ele>459.0</ele><time>2026-04-04T16:30:26.034Z</time></trkpt><trkpt lat="43.2392188" lon="12.1779006"><ele>459.0</ele><time>2026-04-04T16:30:27.034Z</time></trkpt><trkpt lat="43.2391211" lon="12.1779416"><ele>459.0</ele><time>2026-04-04T16:30:28.025Z</time></trkpt><trkpt lat="43.2390182" lon="12.1779845"><ele>459.0</ele><time>2026-04-04T16:30:29.025Z</time></trkpt><trkpt lat="43.2388961" lon="12.1780248"><ele>459.0</ele><time>2026-04-04T16:30:30.022Z</time></trkpt><trkpt lat="43.2387761" lon="12.1780728"><ele>460.4</ele><time>2026-04-04T16:30:31.03Z</time></trkpt><trkpt lat="43.2386699" lon="12.1781045"><ele>461.79999999999995</ele><time>2026-04-04T16:30:32.037Z</time></trkpt><trkpt lat="43.2385715" lon="12.1781301"><ele>463.20000000000005</ele><time>2026-04-04T16:30:33.032Z</time></trkpt><trkpt lat="43.2384727" lon="12.1781412"><ele>464.6</ele><time>2026-04-04T16:30:34.025Z</time></trkpt><trkpt lat="43.2383853" lon="12.1781487"><ele>466.0</ele><time>2026-04-04T16:30:35.027Z</time></trkpt><trkpt lat="43.2382954" lon="12.1781504"><ele>466.0</ele><time>2026-04-04T16:30:36.047Z</time></trkpt><trkpt lat="43.2382073" lon="12.1781408"><ele>466.0</ele><time>2026-04-04T16:30:37.037Z</time></trkpt><trkpt lat="43.238118" lon="12.1781374"><ele>466.0</ele><time>2026-04-04T16:30:38.03Z</time></trkpt><trkpt lat="43.2380241" lon="12.1781235"><ele>466.0</ele><time>2026-04-04T16:30:39.035Z</time></trkpt><trkpt lat="43.2379331" lon="12.1781079"><ele>466.0</ele><time>2026-04-04T16:30:40.031Z</time></trkpt><trkpt lat="43.2378434" lon="12.1780995"><ele>463.00000000000006</ele><time>2026-04-04T16:30:41.038Z</time></trkpt><trkpt lat="43.2377731" lon="12.1780971"><ele>460.0</ele><time>2026-04-04T16:30:42.033Z</time></trkpt><trkpt lat="43.2376813" lon="12.178099"><ele>457.0</ele><time>2026-04-04T16:30:44.038Z</time></trkpt><trkpt lat="43.2375995" lon="12.1780736"><ele>454.0</ele><time>2026-04-04T16:30:46.036Z</time></trkpt><trkpt lat="43.2375133" lon="12.1780302"><ele>451.00000000000006</ele><time>2026-04-04T16:30:48.03Z</time></trkpt><trkpt lat="43.2374364" lon="12.1780327"><ele>448.0</ele><time>2026-04-04T16:30:51.029Z</time></trkpt><trkpt lat="43.2373928" lon="12.1781571"><ele>446.00000000000006</ele><time>2026-04-04T16:30:54.031Z</time></trkpt><trkpt lat="43.2373734" lon="12.1783143"><ele>444.0</ele><time>2026-04-04T16:30:56.03Z</time></trkpt><trkpt lat="43.2372905" lon="12.178447"><ele>442.0</ele><time>2026-04-04T16:30:58.034Z</time></trkpt><trkpt lat="43.2372378" lon="12.1785058"><ele>440.0</ele><time>2026-04-04T16:30:59.033Z</time></trkpt><trkpt lat="43.237175" lon="12.1785533"><ele>438.00000000000006</ele><time>2026-04-04T16:31:00.032Z</time></trkpt><trkpt lat="43.2371182" lon="12.1785937"><ele>436.0</ele><time>2026-04-04T16:31:01.029Z</time></trkpt><trkpt lat="43.2370077" lon="12.1786592"><ele>433.83333333333337</ele><time>2026-04-04T16:31:03.033Z</time></trkpt><trkpt lat="43.2368967" lon="12.1786895"><ele>431.6666666666667</ele><time>2026-04-04T16:31:05.038Z</time></trkpt><trkpt lat="43.236834" lon="12.1787114"><ele>429.5</ele><time>2026-04-04T16:31:07.042Z</time></trkpt><trkpt lat="43.2367643" lon="12.1788067"><ele>427.33333333333337</ele><time>2026-04-04T16:31:10.044Z</time></trkpt><trkpt lat="43.2367335" lon="12.1788989"><ele>425.1666666666667</ele><time>2026-04-04T16:31:11.034Z</time></trkpt><trkpt lat="43.2367036" lon="12.1790009"><ele>423.0</ele><time>2026-04-04T16:31:12.04Z</time></trkpt><trkpt lat="43.2366735" lon="12.1791111"><ele>423.0</ele><time>2026-04-04T16:31:13.039Z</time></trkpt><trkpt lat="43.2366386" lon="12.1792356"><ele>423.0</ele><time>2026-04-04T16:31:14.029Z</time></trkpt><trkpt lat="43.2366021" lon="12.1793699"><ele>423.0</ele><time>2026-04-04T16:31:15.044Z</time></trkpt><trkpt lat="43.236562" lon="12.1795081"><ele>423.0</ele><time>2026-04-04T16:31:16.038Z</time></trkpt><trkpt lat="43.2365135" lon="12.1796424"><ele>423.0</ele><time>2026-04-04T16:31:17.038Z</time></trkpt><trkpt lat="43.2364658" lon="12.17978"><ele>420.0</ele><time>2026-04-04T16:31:18.043Z</time></trkpt><trkpt lat="43.2364101" lon="12.1799185"><ele>417.0</ele><time>2026-04-04T16:31:19.047Z</time></trkpt><trkpt lat="43.2363485" lon="12.1800567"><ele>414.0</ele><time>2026-04-04T16:31:20.036Z</time></trkpt><trkpt lat="43.2362838" lon="12.1801884"><ele>411.0</ele><time>2026-04-04T16:31:21.044Z</time></trkpt><trkpt lat="43.2362104" lon="12.1803206"><ele>411.0</ele><time>2026-04-04T16:31:22.035Z</time></trkpt><trkpt lat="43.2361429" lon="12.180456"><ele>411.0</ele><time>2026-04-04T16:31:23.039Z</time></trkpt><trkpt lat="43.2360755" lon="12.1805881"><ele>411.0</ele><time>2026-04-04T16:31:24.044Z</time></trkpt><trkpt lat="43.236003" lon="12.1807228"><ele>411.0</ele><time>2026-04-04T16:31:25.043Z</time></trkpt><trkpt lat="43.2359338" lon="12.1808518"><ele>411.75</ele><time>2026-04-04T16:31:26.051Z</time></trkpt><trkpt lat="43.2358653" lon="12.1809786"><ele>412.5</ele><time>2026-04-04T16:31:27.042Z</time></trkpt><trkpt lat="43.2357951" lon="12.1811088"><ele>413.25</ele><time>2026-04-04T16:31:28.045Z</time></trkpt><trkpt lat="43.2357229" lon="12.1812261"><ele>414.0</ele><time>2026-04-04T16:31:29.042Z</time></trkpt><trkpt lat="43.2356401" lon="12.1813314"><ele>411.5</ele><time>2026-04-04T16:31:30.034Z</time></trkpt><trkpt lat="43.2355471" lon="12.181429"><ele>409.0</ele><time>2026-04-04T16:31:31.035Z</time></trkpt><trkpt lat="43.2354515" lon="12.1815184"><ele>406.5</ele><time>2026-04-04T16:31:32.046Z</time></trkpt><trkpt lat="43.2353598" lon="12.1816241"><ele>404.0</ele><time>2026-04-04T16:31:33.034Z</time></trkpt><trkpt lat="43.235266" lon="12.1817226"><ele>404.0</ele><time>2026-04-04T16:31:34.031Z</time></trkpt><trkpt lat="43.2351644" lon="12.1818273"><ele>404.0</ele><time>2026-04-04T16:31:35.038Z</time></trkpt><trkpt lat="43.2350603" lon="12.1819271"><ele>404.0</ele><time>2026-04-04T16:31:36.043Z</time></trkpt><trkpt lat="43.2349563" lon="12.1820341"><ele>404.0</ele><time>2026-04-04T16:31:37.038Z</time></trkpt><trkpt lat="43.2348574" lon="12.1821454"><ele>401.75</ele><time>2026-04-04T16:31:38.036Z</time></trkpt><trkpt lat="43.2347563" lon="12.1822615"><ele>399.5</ele><time>2026-04-04T16:31:39.044Z</time></trkpt><trkpt lat="43.2346616" lon="12.182383"><ele>397.25</ele><time>2026-04-04T16:31:40.042Z</time></trkpt><trkpt lat="43.2345666" lon="12.1825066"><ele>395.0</ele><time>2026-04-04T16:31:41.033Z</time></trkpt><trkpt lat="43.2344648" lon="12.1826306"><ele>395.0</ele><time>2026-04-04T16:31:42.037Z</time></trkpt><trkpt lat="43.2343582" lon="12.1827525"><ele>395.0</ele><time>2026-04-04T16:31:43.038Z</time></trkpt><trkpt lat="43.2342495" lon="12.1828739"><ele>395.0</ele><time>2026-04-04T16:31:44.042Z</time></trkpt><trkpt lat="43.2341304" lon="12.1829951"><ele>395.0</ele><time>2026-04-04T16:31:45.044Z</time></trkpt><trkpt lat="43.2340149" lon="12.1831048"><ele>393.0</ele><time>2026-04-04T16:31:46.035Z</time></trkpt><trkpt lat="43.2339022" lon="12.1831971"><ele>391.0</ele><time>2026-04-04T16:31:47.028Z</time></trkpt><trkpt lat="43.2337993" lon="12.1832989"><ele>389.0</ele><time>2026-04-04T16:31:48.037Z</time></trkpt><trkpt lat="43.233707" lon="12.1834261"><ele>387.0</ele><time>2026-04-04T16:31:49.039Z</time></trkpt><trkpt lat="43.2336157" lon="12.1835698"><ele>387.0</ele><time>2026-04-04T16:31:50.035Z</time></trkpt><trkpt lat="43.2335286" lon="12.1837282"><ele>387.0</ele><time>2026-04-04T16:31:51.029Z</time></trkpt><trkpt lat="43.2334361" lon="12.1838805"><ele>387.0</ele><time>2026-04-04T16:31:52.039Z</time></trkpt><trkpt lat="43.2333471" lon="12.1840286"><ele>387.0</ele><time>2026-04-04T16:31:53.032Z</time></trkpt><trkpt lat="43.2332578" lon="12.1841722"><ele>388.25</ele><time>2026-04-04T16:31:54.037Z</time></trkpt><trkpt lat="43.2331721" lon="12.1843092"><ele>389.5</ele><time>2026-04-04T16:31:55.04Z</time></trkpt><trkpt lat="43.2330682" lon="12.1844327"><ele>390.75</ele><time>2026-04-04T16:31:56.032Z</time></trkpt><trkpt lat="43.2329407" lon="12.1845207"><ele>392.0</ele><time>2026-04-04T16:31:57.039Z</time></trkpt><trkpt lat="43.232808" lon="12.1845641"><ele>388.75</ele><time>2026-04-04T16:31:58.034Z</time></trkpt><trkpt lat="43.232669" lon="12.1845862"><ele>385.5</ele><time>2026-04-04T16:31:59.033Z</time></trkpt><trkpt lat="43.2325319" lon="12.1846059"><ele>382.25</ele><time>2026-04-04T16:32:00.035Z</time></trkpt><trkpt lat="43.2323889" lon="12.1846504"><ele>379.0</ele><time>2026-04-04T16:32:01.033Z</time></trkpt><trkpt lat="43.2322493" lon="12.1847052"><ele>378.0</ele><time>2026-04-04T16:32:02.033Z</time></trkpt><trkpt lat="43.232106" lon="12.1847591"><ele>377.0</ele><time>2026-04-04T16:32:03.04Z</time></trkpt><trkpt lat="43.2319617" lon="12.1848098"><ele>376.0</ele><time>2026-04-04T16:32:04.033Z</time></trkpt><trkpt lat="43.2318164" lon="12.184851"><ele>375.0</ele><time>2026-04-04T16:32:05.03Z</time></trkpt><trkpt lat="43.2316751" lon="12.1849056"><ele>375.0</ele><time>2026-04-04T16:32:06.03Z</time></trkpt><trkpt lat="43.2315359" lon="12.1849701"><ele>375.0</ele><time>2026-04-04T16:32:07.038Z</time></trkpt><trkpt lat="43.2314038" lon="12.1850375"><ele>375.0</ele><time>2026-04-04T16:32:08.043Z</time></trkpt><trkpt lat="43.2312692" lon="12.1851326"><ele>375.0</ele><time>2026-04-04T16:32:09.033Z</time></trkpt><trkpt lat="43.2311425" lon="12.1852527"><ele>372.25</ele><time>2026-04-04T16:32:10.039Z</time></trkpt><trkpt lat="43.231041" lon="12.1853877"><ele>369.5</ele><time>2026-04-04T16:32:11.038Z</time></trkpt><trkpt lat="43.2309432" lon="12.1855293"><ele>366.75</ele><time>2026-04-04T16:32:12.033Z</time></trkpt><trkpt lat="43.2308798" lon="12.1856748"><ele>364.0</ele><time>2026-04-04T16:32:13.032Z</time></trkpt><trkpt lat="43.23085" lon="12.1858381"><ele>364.0</ele><time>2026-04-04T16:32:14.035Z</time></trkpt><trkpt lat="43.2308389" lon="12.1860147"><ele>364.0</ele><time>2026-04-04T16:32:15.04Z</time></trkpt><trkpt lat="43.2308298" lon="12.1861817"><ele>364.0</ele><time>2026-04-04T16:32:16.047Z</time></trkpt><trkpt lat="43.2308105" lon="12.1863321"><ele>364.0</ele><time>2026-04-04T16:32:17.039Z</time></trkpt><trkpt lat="43.2307579" lon="12.1864742"><ele>364.0</ele><time>2026-04-04T16:32:18.053Z</time></trkpt><trkpt lat="43.2306891" lon="12.1866065"><ele>364.0</ele><time>2026-04-04T16:32:19.042Z</time></trkpt><trkpt lat="43.230595" lon="12.1867191"><ele>364.0</ele><time>2026-04-04T16:32:20.043Z</time></trkpt><trkpt lat="43.2304929" lon="12.1868313"><ele>364.0</ele><time>2026-04-04T16:32:21.029Z</time></trkpt><trkpt lat="43.2303927" lon="12.1869368"><ele>361.5</ele><time>2026-04-04T16:32:22.041Z</time></trkpt><trkpt lat="43.2302933" lon="12.1870494"><ele>359.0</ele><time>2026-04-04T16:32:23.048Z</time></trkpt><trkpt lat="43.2302065" lon="12.1871781"><ele>356.5</ele><time>2026-04-04T16:32:24.045Z</time></trkpt><trkpt lat="43.2301323" lon="12.187339"><ele>354.0</ele><time>2026-04-04T16:32:25.035Z</time></trkpt><trkpt lat="43.2300635" lon="12.1875223"><ele>354.0</ele><time>2026-04-04T16:32:26.043Z</time></trkpt><trkpt lat="43.2300029" lon="12.187702"><ele>354.0</ele><time>2026-04-04T16:32:27.044Z</time></trkpt><trkpt lat="43.2299297" lon="12.187869"><ele>354.0</ele><time>2026-04-04T16:32:28.04Z</time></trkpt><trkpt lat="43.2298411" lon="12.1880257"><ele>354.0</ele><time>2026-04-04T16:32:29.045Z</time></trkpt><trkpt lat="43.2297408" lon="12.1881564"><ele>350.0</ele><time>2026-04-04T16:32:30.041Z</time></trkpt><trkpt lat="43.2296198" lon="12.188283"><ele>346.0</ele><time>2026-04-04T16:32:31.039Z</time></trkpt><trkpt lat="43.2294903" lon="12.1884026"><ele>342.0</ele><time>2026-04-04T16:32:32.038Z</time></trkpt><trkpt lat="43.2293601" lon="12.1885257"><ele>342.0</ele><time>2026-04-04T16:32:33.042Z</time></trkpt><trkpt lat="43.2292339" lon="12.1886365"><ele>342.0</ele><time>2026-04-04T16:32:34.035Z</time></trkpt><trkpt lat="43.2291032" lon="12.1887429"><ele>342.0</ele><time>2026-04-04T16:32:35.036Z</time></trkpt><trkpt lat="43.2289695" lon="12.1888432"><ele>341.75</ele><time>2026-04-04T16:32:36.037Z</time></trkpt><trkpt lat="43.2288329" lon="12.1889177"><ele>341.5</ele><time>2026-04-04T16:32:37.038Z</time></trkpt><trkpt lat="43.2286914" lon="12.1889752"><ele>341.25</ele><time>2026-04-04T16:32:38.046Z</time></trkpt><trkpt lat="43.228544" lon="12.1890222"><ele>341.0</ele><time>2026-04-04T16:32:39.045Z</time></trkpt><trkpt lat="43.228399" lon="12.1890721"><ele>341.0</ele><time>2026-04-04T16:32:40.036Z</time></trkpt><trkpt lat="43.2282599" lon="12.1891189"><ele>341.0</ele><time>2026-04-04T16:32:41.043Z</time></trkpt><trkpt lat="43.2281142" lon="12.189162"><ele>341.0</ele><time>2026-04-04T16:32:42.044Z</time></trkpt><trkpt lat="43.2279709" lon="12.189181"><ele>341.0</ele><time>2026-04-04T16:32:43.04Z</time></trkpt><trkpt lat="43.2278226" lon="12.1891908"><ele>340.0</ele><time>2026-04-04T16:32:44.036Z</time></trkpt><trkpt lat="43.2276774" lon="12.1891897"><ele>339.0</ele><time>2026-04-04T16:32:45.037Z</time></trkpt><trkpt lat="43.22753" lon="12.189193"><ele>338.0</ele><time>2026-04-04T16:32:46.045Z</time></trkpt><trkpt lat="43.2273864" lon="12.1891993"><ele>337.0</ele><time>2026-04-04T16:32:47.037Z</time></trkpt><trkpt lat="43.2272445" lon="12.1892275"><ele>336.66666666666663</ele><time>2026-04-04T16:32:48.042Z</time></trkpt><trkpt lat="43.2270985" lon="12.1892627"><ele>336.3333333333333</ele><time>2026-04-04T16:32:49.043Z</time></trkpt><trkpt lat="43.226947" lon="12.189299"><ele>336.0</ele><time>2026-04-04T16:32:50.034Z</time></trkpt><trkpt lat="43.2267967" lon="12.1893371"><ele>336.0</ele><time>2026-04-04T16:32:51.037Z</time></trkpt><trkpt lat="43.2266482" lon="12.1893941"><ele>336.0</ele><time>2026-04-04T16:32:52.038Z</time></trkpt><trkpt lat="43.226518" lon="12.1894653"><ele>336.0</ele><time>2026-04-04T16:32:53.038Z</time></trkpt><trkpt lat="43.2263953" lon="12.189545"><ele>336.0</ele><time>2026-04-04T16:32:54.026Z</time></trkpt><trkpt lat="43.2262911" lon="12.1896241"><ele>336.0</ele><time>2026-04-04T16:32:55.035Z</time></trkpt><trkpt lat="43.2262105" lon="12.189687"><ele>336.0</ele><time>2026-04-04T16:32:56.04Z</time></trkpt><trkpt lat="43.2261523" lon="12.1897374"><ele>336.0</ele><time>2026-04-04T16:32:57.034Z</time></trkpt><trkpt lat="43.2261021" lon="12.1898228"><ele>336.0</ele><time>2026-04-04T16:32:59.034Z</time></trkpt><trkpt lat="43.2261257" lon="12.1899042"><ele>336.0</ele><time>2026-04-04T16:33:05.035Z</time></trkpt><trkpt lat="43.2262167" lon="12.1899161"><ele>336.0</ele><time>2026-04-04T16:33:07.032Z</time></trkpt><trkpt lat="43.2262937" lon="12.1898993"><ele>336.0</ele><time>2026-04-04T16:33:08.037Z</time></trkpt><trkpt lat="43.2263799" lon="12.1898816"><ele>336.0</ele><time>2026-04-04T16:33:09.031Z</time></trkpt><trkpt lat="43.2264633" lon="12.1898733"><ele>336.0</ele><time>2026-04-04T16:33:10.044Z</time></trkpt><trkpt lat="43.226544" lon="12.189898"><ele>336.0</ele><time>2026-04-04T16:33:11.033Z</time></trkpt><trkpt lat="43.2266248" lon="12.1899802"><ele>336.0</ele><time>2026-04-04T16:33:12.028Z</time></trkpt><trkpt lat="43.2267052" lon="12.1900894"><ele>335.20000000000005</ele><time>2026-04-04T16:33:13.036Z</time></trkpt><trkpt lat="43.2267795" lon="12.1902019"><ele>334.40000000000003</ele><time>2026-04-04T16:33:14.034Z</time></trkpt><trkpt lat="43.2268622" lon="12.190304"><ele>333.6</ele><time>2026-04-04T16:33:15.031Z</time></trkpt><trkpt lat="43.2269398" lon="12.1904111"><ele>332.8</ele><time>2026-04-04T16:33:16.033Z</time></trkpt><trkpt lat="43.2270018" lon="12.190522"><ele>332.0</ele><time>2026-04-04T16:33:17.039Z</time></trkpt><trkpt lat="43.22706" lon="12.1906556"><ele>330.40000000000003</ele><time>2026-04-04T16:33:18.04Z</time></trkpt><trkpt lat="43.2271025" lon="12.1907979"><ele>328.8</ele><time>2026-04-04T16:33:19.05Z</time></trkpt><trkpt lat="43.2271424" lon="12.1909354"><ele>327.2</ele><time>2026-04-04T16:33:20.038Z</time></trkpt><trkpt lat="43.2271873" lon="12.1910797"><ele>325.6</ele><time>2026-04-04T16:33:21.036Z</time></trkpt><trkpt lat="43.2272297" lon="12.191211"><ele>324.0</ele><time>2026-04-04T16:33:22.035Z</time></trkpt><trkpt lat="43.2272926" lon="12.1913285"><ele>323.79999999999995</ele><time>2026-04-04T16:33:23.04Z</time></trkpt><trkpt lat="43.2273746" lon="12.1914209"><ele>323.59999999999997</ele><time>2026-04-04T16:33:24.046Z</time></trkpt><trkpt lat="43.2274705" lon="12.1914894"><ele>323.4</ele><time>2026-04-04T16:33:25.036Z</time></trkpt><trkpt lat="43.2275685" lon="12.1915497"><ele>323.2</ele><time>2026-04-04T16:33:26.042Z</time></trkpt><trkpt lat="43.227672" lon="12.1916005"><ele>323.0</ele><time>2026-04-04T16:33:27.037Z</time></trkpt><trkpt lat="43.2277895" lon="12.1916561"><ele>319.75</ele><time>2026-04-04T16:33:28.043Z</time></trkpt><trkpt lat="43.2279112" lon="12.1917051"><ele>316.5</ele><time>2026-04-04T16:33:29.042Z</time></trkpt><trkpt lat="43.2280328" lon="12.191742"><ele>313.25</ele><time>2026-04-04T16:33:30.041Z</time></trkpt><trkpt lat="43.2281606" lon="12.191777"><ele>310.0</ele><time>2026-04-04T16:33:31.034Z</time></trkpt><trkpt lat="43.2282871" lon="12.1917987"><ele>309.25</ele><time>2026-04-04T16:33:32.029Z</time></trkpt><trkpt lat="43.2284054" lon="12.1918277"><ele>308.5</ele><time>2026-04-04T16:33:33.027Z</time></trkpt><trkpt lat="43.2285213" lon="12.1918744"><ele>307.75</ele><time>2026-04-04T16:33:34.034Z</time></trkpt><trkpt lat="43.2286214" lon="12.1919251"><ele>307.0</ele><time>2026-04-04T16:33:35.04Z</time></trkpt><trkpt lat="43.2287068" lon="12.1920112"><ele>307.0</ele><time>2026-04-04T16:33:36.043Z</time></trkpt><trkpt lat="43.2287757" lon="12.1921112"><ele>307.0</ele><time>2026-04-04T16:33:37.029Z</time></trkpt><trkpt lat="43.2288523" lon="12.1922016"><ele>307.0</ele><time>2026-04-04T16:33:38.04Z</time></trkpt><trkpt lat="43.2289275" lon="12.192278"><ele>307.0</ele><time>2026-04-04T16:33:39.039Z</time></trkpt><trkpt lat="43.2290174" lon="12.192316"><ele>307.0</ele><time>2026-04-04T16:33:40.042Z</time></trkpt><trkpt lat="43.2291025" lon="12.1923283"><ele>306.6</ele><time>2026-04-04T16:33:41.042Z</time></trkpt><trkpt lat="43.2291886" lon="12.1923496"><ele>306.2</ele><time>2026-04-04T16:33:42.034Z</time></trkpt><trkpt lat="43.2292573" lon="12.1923789"><ele>305.8</ele><time>2026-04-04T16:33:43.03Z</time></trkpt><trkpt lat="43.2293294" lon="12.1925293"><ele>305.4</ele><time>2026-04-04T16:33:45.035Z</time></trkpt><trkpt lat="43.2293446" lon="12.1926379"><ele>305.0</ele><time>2026-04-04T16:33:46.033Z</time></trkpt><trkpt lat="43.2293421" lon="12.1927521"><ele>305.0</ele><time>2026-04-04T16:33:47.026Z</time></trkpt><trkpt lat="43.22932" lon="12.19286"><ele>305.0</ele><time>2026-04-04T16:33:48.036Z</time></trkpt><trkpt lat="43.229269" lon="12.1929566"><ele>305.0</ele><time>2026-04-04T16:33:49.035Z</time></trkpt><trkpt lat="43.2291979" lon="12.1930536"><ele>305.0</ele><time>2026-04-04T16:33:50.036Z</time></trkpt><trkpt lat="43.2291202" lon="12.1931523"><ele>305.0</ele><time>2026-04-04T16:33:51.042Z</time></trkpt><trkpt lat="43.2290425" lon="12.1932734"><ele>304.5</ele><time>2026-04-04T16:33:52.042Z</time></trkpt><trkpt lat="43.2289713" lon="12.1933927"><ele>304.0</ele><time>2026-04-04T16:33:53.034Z</time></trkpt><trkpt lat="43.228901" lon="12.1935251"><ele>303.5</ele><time>2026-04-04T16:33:54.03Z</time></trkpt><trkpt lat="43.2288246" lon="12.1936734"><ele>303.0</ele><time>2026-04-04T16:33:55.038Z</time></trkpt><trkpt lat="43.2287424" lon="12.1938231"><ele>303.0</ele><time>2026-04-04T16:33:56.035Z</time></trkpt><trkpt lat="43.2286494" lon="12.1939563"><ele>303.0</ele><time>2026-04-04T16:33:57.029Z</time></trkpt><trkpt lat="43.2285475" lon="12.1940875"><ele>303.0</ele><time>2026-04-04T16:33:58.049Z</time></trkpt><trkpt lat="43.2284391" lon="12.1942014"><ele>303.0</ele><time>2026-04-04T16:33:59.033Z</time></trkpt><trkpt lat="43.2283235" lon="12.1942986"><ele>303.0</ele><time>2026-04-04T16:34:00.032Z</time></trkpt><trkpt lat="43.2282094" lon="12.1943979"><ele>303.0</ele><time>2026-04-04T16:34:01.031Z</time></trkpt><trkpt lat="43.2281063" lon="12.1945233"><ele>303.0</ele><time>2026-04-04T16:34:02.035Z</time></trkpt><trkpt lat="43.2280067" lon="12.1946652"><ele>303.0</ele><time>2026-04-04T16:34:03.039Z</time></trkpt><trkpt lat="43.2279116" lon="12.1948069"><ele>303.75</ele><time>2026-04-04T16:34:04.04Z</time></trkpt><trkpt lat="43.2278197" lon="12.19495"><ele>304.5</ele><time>2026-04-04T16:34:05.03Z</time></trkpt><trkpt lat="43.2277425" lon="12.1950754"><ele>305.25</ele><time>2026-04-04T16:34:06.023Z</time></trkpt><trkpt lat="43.2276714" lon="12.1951855"><ele>306.0</ele><time>2026-04-04T16:34:07.032Z</time></trkpt><trkpt lat="43.2275966" lon="12.1952826"><ele>306.0</ele><time>2026-04-04T16:34:08.036Z</time></trkpt><trkpt lat="43.2275287" lon="12.195362"><ele>306.0</ele><time>2026-04-04T16:34:09.025Z</time></trkpt><trkpt lat="43.227479" lon="12.1954389"><ele>306.0</ele><time>2026-04-04T16:34:10.036Z</time></trkpt><trkpt lat="43.2274486" lon="12.1955148"><ele>306.0</ele><time>2026-04-04T16:34:11.033Z</time></trkpt><trkpt lat="43.2274488" lon="12.1956588"><ele>306.0</ele><time>2026-04-04T16:34:13.025Z</time></trkpt><trkpt lat="43.2274719" lon="12.1957537"><ele>306.0</ele><time>2026-04-04T16:34:15.035Z</time></trkpt><trkpt lat="43.2275099" lon="12.1958503"><ele>306.5</ele><time>2026-04-04T16:34:17.034Z</time></trkpt><trkpt lat="43.2276079" lon="12.19594"><ele>307.0</ele><time>2026-04-04T16:34:19.029Z</time></trkpt><trkpt lat="43.2276791" lon="12.195977"><ele>307.5</ele><time>2026-04-04T16:34:20.031Z</time></trkpt><trkpt lat="43.2277438" lon="12.1959771"><ele>308.0</ele><time>2026-04-04T16:34:21.026Z</time></trkpt><trkpt lat="43.2278237" lon="12.1959846"><ele>308.5</ele><time>2026-04-04T16:34:23.027Z</time></trkpt><trkpt lat="43.2277606" lon="12.1960734"><ele>309.0</ele><time>2026-04-04T16:34:27.036Z</time></trkpt><trkpt lat="43.2276358" lon="12.1960719"><ele>309.0</ele><time>2026-04-04T16:34:29.038Z</time></trkpt><trkpt lat="43.2275656" lon="12.196049"><ele>309.0</ele><time>2026-04-04T16:34:30.034Z</time></trkpt><trkpt lat="43.2274879" lon="12.1960321"><ele>309.0</ele><time>2026-04-04T16:34:31.029Z</time></trkpt><trkpt lat="43.2274185" lon="12.1960312"><ele>309.0</ele><time>2026-04-04T16:34:32.04Z</time></trkpt><trkpt lat="43.2273432" lon="12.1960455"><ele>309.0</ele><time>2026-04-04T16:34:33.037Z</time></trkpt><trkpt lat="43.2272579" lon="12.1960897"><ele>309.0</ele><time>2026-04-04T16:34:34.04Z</time></trkpt><trkpt lat="43.2271769" lon="12.1961486"><ele>308.5</ele><time>2026-04-04T16:34:35.038Z</time></trkpt><trkpt lat="43.2270867" lon="12.1962083"><ele>308.0</ele><time>2026-04-04T16:34:36.041Z</time></trkpt><trkpt lat="43.2270057" lon="12.1962652"><ele>307.5</ele><time>2026-04-04T16:34:37.035Z</time></trkpt><trkpt lat="43.2269267" lon="12.1963333"><ele>307.0</ele><time>2026-04-04T16:34:38.045Z</time></trkpt><trkpt lat="43.2268628" lon="12.1963833"><ele>306.5</ele><time>2026-04-04T16:34:39.029Z</time></trkpt><trkpt lat="43.2268066" lon="12.1964328"><ele>306.0</ele><time>2026-04-04T16:34:40.042Z</time></trkpt><trkpt lat="43.2267523" lon="12.1964781"><ele>306.0</ele><time>2026-04-04T16:34:41.033Z</time></trkpt><trkpt lat="43.2266837" lon="12.19658"><ele>306.0</ele><time>2026-04-04T16:34:43.03Z</time></trkpt><trkpt lat="43.2266508" lon="12.196662"><ele>306.0</ele><time>2026-04-04T16:34:46.034Z</time></trkpt><trkpt lat="43.2267029" lon="12.1965993"><ele>306.0</ele><time>2026-04-04T16:36:52.031Z</time></trkpt><trkpt lat="43.2267736" lon="12.1964929"><ele>306.0</ele><time>2026-04-04T16:36:54.03Z</time></trkpt><trkpt lat="43.2268308" lon="12.1964423"><ele>306.0</ele><time>2026-04-04T16:36:55.032Z</time></trkpt><trkpt lat="43.2268858" lon="12.1963947"><ele>306.0</ele><time>2026-04-04T16:36:56.037Z</time></trkpt><trkpt lat="43.2269412" lon="12.1963445"><ele>306.0</ele><time>2026-04-04T16:36:57.029Z</time></trkpt><trkpt lat="43.2269959" lon="12.1962873"><ele>306.0</ele><time>2026-04-04T16:36:58.048Z</time></trkpt><trkpt lat="43.2270592" lon="12.196246"><ele>306.0</ele><time>2026-04-04T16:36:59.039Z</time></trkpt><trkpt lat="43.227121" lon="12.1962036"><ele>306.0</ele><time>2026-04-04T16:37:00.031Z</time></trkpt><trkpt lat="43.2271804" lon="12.1961666"><ele>306.0</ele><time>2026-04-04T16:37:01.031Z</time></trkpt><trkpt lat="43.2272416" lon="12.1961255"><ele>306.0</ele><time>2026-04-04T16:37:02.04Z</time></trkpt><trkpt lat="43.2273081" lon="12.1960853"><ele>306.42857142857144</ele><time>2026-04-04T16:37:03.027Z</time></trkpt><trkpt lat="43.2273744" lon="12.1960497"><ele>306.8571428571429</ele><time>2026-04-04T16:37:04.035Z</time></trkpt><trkpt lat="43.2274396" lon="12.1960368"><ele>307.28571428571433</ele><time>2026-04-04T16:37:05.037Z</time></trkpt><trkpt lat="43.2275143" lon="12.1960424"><ele>307.7142857142857</ele><time>2026-04-04T16:37:06.037Z</time></trkpt><trkpt lat="43.2275819" lon="12.1960653"><ele>308.14285714285717</ele><time>2026-04-04T16:37:07.031Z</time></trkpt><trkpt lat="43.2276521" lon="12.1960839"><ele>308.5714285714286</ele><time>2026-04-04T16:37:08.039Z</time></trkpt><trkpt lat="43.2277174" lon="12.1960904"><ele>309.0</ele><time>2026-04-04T16:37:09.032Z</time></trkpt><trkpt lat="43.2278164" lon="12.1960589"><ele>309.0</ele><time>2026-04-04T16:37:11.033Z</time></trkpt><trkpt lat="43.2277343" lon="12.1959787"><ele>309.0</ele><time>2026-04-04T16:37:16.03Z</time></trkpt><trkpt lat="43.2276351" lon="12.1959233"><ele>309.0</ele><time>2026-04-04T16:37:18.038Z</time></trkpt><trkpt lat="43.227581" lon="12.1958642"><ele>309.0</ele><time>2026-04-04T16:37:19.033Z</time></trkpt><trkpt lat="43.2275333" lon="12.1958068"><ele>309.0</ele><time>2026-04-04T16:37:20.028Z</time></trkpt><trkpt lat="43.2274923" lon="12.1957244"><ele>309.0</ele><time>2026-04-04T16:37:21.038Z</time></trkpt><trkpt lat="43.2274551" lon="12.195629"><ele>308.5</ele><time>2026-04-04T16:37:22.026Z</time></trkpt><trkpt lat="43.2274469" lon="12.1955387"><ele>308.0</ele><time>2026-04-04T16:37:23.032Z</time></trkpt><trkpt lat="43.2274591" lon="12.1954433"><ele>307.5</ele><time>2026-04-04T16:37:24.038Z</time></trkpt><trkpt lat="43.227502" lon="12.1953633"><ele>307.0</ele><time>2026-04-04T16:37:25.033Z</time></trkpt><trkpt lat="43.2275732" lon="12.1952777"><ele>306.5</ele><time>2026-04-04T16:37:26.037Z</time></trkpt><trkpt lat="43.2276459" lon="12.1951978"><ele>306.0</ele><time>2026-04-04T16:37:27.025Z</time></trkpt><trkpt lat="43.2277158" lon="12.1951067"><ele>306.0</ele><time>2026-04-04T16:37:28.036Z</time></trkpt><trkpt lat="43.2277822" lon="12.1950131"><ele>306.0</ele><time>2026-04-04T16:37:29.03Z</time></trkpt><trkpt lat="43.2278439" lon="12.1949111"><ele>306.0</ele><time>2026-04-04T16:37:30.027Z</time></trkpt><trkpt lat="43.2279157" lon="12.1948088"><ele>306.0</ele><time>2026-04-04T16:37:31.022Z</time></trkpt><trkpt lat="43.2279878" lon="12.1947035"><ele>306.0</ele><time>2026-04-04T16:37:32.022Z</time></trkpt><trkpt lat="43.2280563" lon="12.1945996"><ele>305.40000000000003</ele><time>2026-04-04T16:37:33.025Z</time></trkpt><trkpt lat="43.2281345" lon="12.1944986"><ele>304.8</ele><time>2026-04-04T16:37:34.033Z</time></trkpt><trkpt lat="43.2282179" lon="12.1944053"><ele>304.20000000000005</ele><time>2026-04-04T16:37:35.029Z</time></trkpt><trkpt lat="43.2283044" lon="12.1943146"><ele>303.6</ele><time>2026-04-04T16:37:36.033Z</time></trkpt><trkpt lat="43.228392" lon="12.1942276"><ele>303.0</ele><time>2026-04-04T16:37:37.029Z</time></trkpt><trkpt lat="43.2284905" lon="12.1941517"><ele>303.0</ele><time>2026-04-04T16:37:38.036Z</time></trkpt><trkpt lat="43.228585" lon="12.1940661"><ele>303.0</ele><time>2026-04-04T16:37:39.031Z</time></trkpt><trkpt lat="43.2286716" lon="12.1939547"><ele>303.0</ele><time>2026-04-04T16:37:40.024Z</time></trkpt><trkpt lat="43.2287559" lon="12.1938285"><ele>303.0</ele><time>2026-04-04T16:37:41.042Z</time></trkpt><trkpt lat="43.2288327" lon="12.1936933"><ele>303.0</ele><time>2026-04-04T16:37:42.03Z</time></trkpt><trkpt lat="43.2289065" lon="12.1935617"><ele>303.0</ele><time>2026-04-04T16:37:43.025Z</time></trkpt><trkpt lat="43.2289718" lon="12.1934327"><ele>303.0</ele><time>2026-04-04T16:37:44.041Z</time></trkpt><trkpt lat="43.2290298" lon="12.1933177"><ele>303.0</ele><time>2026-04-04T16:37:45.05Z</time></trkpt><trkpt lat="43.2290822" lon="12.1932139"><ele>303.0</ele><time>2026-04-04T16:37:46.028Z</time></trkpt><trkpt lat="43.2291384" lon="12.1931332"><ele>303.3333333333333</ele><time>2026-04-04T16:37:47.033Z</time></trkpt><trkpt lat="43.2291956" lon="12.1930622"><ele>303.6666666666667</ele><time>2026-04-04T16:37:48.033Z</time></trkpt><trkpt lat="43.2292584" lon="12.1929859"><ele>304.0</ele><time>2026-04-04T16:37:49.039Z</time></trkpt><trkpt lat="43.2293217" lon="12.1929085"><ele>304.33333333333337</ele><time>2026-04-04T16:37:50.038Z</time></trkpt><trkpt lat="43.2293725" lon="12.1928061"><ele>304.6666666666667</ele><time>2026-04-04T16:37:51.027Z</time></trkpt><trkpt lat="43.2293785" lon="12.1926774"><ele>305.0</ele><time>2026-04-04T16:37:52.032Z</time></trkpt><trkpt lat="43.2293479" lon="12.1925546"><ele>305.0</ele><time>2026-04-04T16:37:53.028Z</time></trkpt><trkpt lat="43.2293077" lon="12.1924561"><ele>305.0</ele><time>2026-04-04T16:37:54.02Z</time></trkpt><trkpt lat="43.2292559" lon="12.1923749"><ele>305.0</ele><time>2026-04-04T16:37:55.039Z</time></trkpt><trkpt lat="43.2291906" lon="12.1923398"><ele>305.0</ele><time>2026-04-04T16:37:56.035Z</time></trkpt><trkpt lat="43.2291086" lon="12.1923316"><ele>305.0</ele><time>2026-04-04T16:37:57.035Z</time></trkpt><trkpt lat="43.2290056" lon="12.1923079"><ele>305.0</ele><time>2026-04-04T16:37:58.027Z</time></trkpt><trkpt lat="43.2289072" lon="12.1922377"><ele>305.5</ele><time>2026-04-04T16:37:59.025Z</time></trkpt><trkpt lat="43.2288104" lon="12.1921346"><ele>306.0</ele><time>2026-04-04T16:38:00.022Z</time></trkpt><trkpt lat="43.2287053" lon="12.1920185"><ele>306.5</ele><time>2026-04-04T16:38:01.026Z</time></trkpt><trkpt lat="43.2285854" lon="12.1919177"><ele>307.0</ele><time>2026-04-04T16:38:02.032Z</time></trkpt><trkpt lat="43.2284421" lon="12.1918341"><ele>307.0</ele><time>2026-04-04T16:38:03.036Z</time></trkpt><trkpt lat="43.2282955" lon="12.1917853"><ele>307.0</ele><time>2026-04-04T16:38:04.035Z</time></trkpt><trkpt lat="43.228142" lon="12.1917553"><ele>307.0</ele><time>2026-04-04T16:38:05.037Z</time></trkpt><trkpt lat="43.227979" lon="12.1917143"><ele>307.75</ele><time>2026-04-04T16:38:06.032Z</time></trkpt><trkpt lat="43.2278233" lon="12.1916561"><ele>308.5</ele><time>2026-04-04T16:38:07.029Z</time></trkpt><trkpt lat="43.2276863" lon="12.1915944"><ele>309.25</ele><time>2026-04-04T16:38:08.02Z</time></trkpt><trkpt lat="43.2275659" lon="12.1915331"><ele>310.0</ele><time>2026-04-04T16:38:09.03Z</time></trkpt><trkpt lat="43.2274551" lon="12.1914663"><ele>313.25</ele><time>2026-04-04T16:38:10.032Z</time></trkpt><trkpt lat="43.2273611" lon="12.191385"><ele>316.5</ele><time>2026-04-04T16:38:11.035Z</time></trkpt><trkpt lat="43.227278" lon="12.1912727"><ele>319.75</ele><time>2026-04-04T16:38:12.031Z</time></trkpt><trkpt lat="43.2272149" lon="12.1911281"><ele>323.0</ele><time>2026-04-04T16:38:13.043Z</time></trkpt><trkpt lat="43.227166" lon="12.1909717"><ele>323.25</ele><time>2026-04-04T16:38:14.034Z</time></trkpt><trkpt lat="43.2271258" lon="12.1908073"><ele>323.5</ele><time>2026-04-04T16:38:15.035Z</time></trkpt><trkpt lat="43.2270751" lon="12.1906536"><ele>323.75</ele><time>2026-04-04T16:38:16.031Z</time></trkpt><trkpt lat="43.2270004" lon="12.1905085"><ele>324.0</ele><time>2026-04-04T16:38:17.048Z</time></trkpt><trkpt lat="43.2269225" lon="12.1903708"><ele>326.0</ele><time>2026-04-04T16:38:18.038Z</time></trkpt><trkpt lat="43.2268347" lon="12.1902375"><ele>328.0</ele><time>2026-04-04T16:38:19.034Z</time></trkpt><trkpt lat="43.2267481" lon="12.1901165"><ele>330.0</ele><time>2026-04-04T16:38:20.035Z</time></trkpt><trkpt lat="43.2266603" lon="12.1900057"><ele>332.0</ele><time>2026-04-04T16:38:21.033Z</time></trkpt><trkpt lat="43.2265724" lon="12.1899192"><ele>332.0</ele><time>2026-04-04T16:38:22.04Z</time></trkpt><trkpt lat="43.226489" lon="12.1898732"><ele>332.0</ele><time>2026-04-04T16:38:23.039Z</time></trkpt><trkpt lat="43.2264141" lon="12.1898668"><ele>332.0</ele><time>2026-04-04T16:38:24.033Z</time></trkpt><trkpt lat="43.2263435" lon="12.1898817"><ele>332.0</ele><time>2026-04-04T16:38:25.038Z</time></trkpt><trkpt lat="43.2262463" lon="12.1898561"><ele>332.0</ele><time>2026-04-04T16:38:27.042Z</time></trkpt><trkpt lat="43.2261836" lon="12.1898122"><ele>332.0</ele><time>2026-04-04T16:38:29.047Z</time></trkpt><trkpt lat="43.2261238" lon="12.1897795"><ele>331.8</ele><time>2026-04-04T16:38:36.04Z</time></trkpt><trkpt lat="43.2260062" lon="12.1898133"><ele>331.6</ele><time>2026-04-04T16:38:38.04Z</time></trkpt><trkpt lat="43.2259375" lon="12.189869"><ele>331.40000000000003</ele><time>2026-04-04T16:38:39.041Z</time></trkpt><trkpt lat="43.2258556" lon="12.1899253"><ele>331.20000000000005</ele><time>2026-04-04T16:38:40.04Z</time></trkpt><trkpt lat="43.2257679" lon="12.1899575"><ele>331.0</ele><time>2026-04-04T16:38:41.024Z</time></trkpt><trkpt lat="43.2256769" lon="12.189969"><ele>332.20000000000005</ele><time>2026-04-04T16:38:42.044Z</time></trkpt><trkpt lat="43.2255759" lon="12.1899652"><ele>333.40000000000003</ele><time>2026-04-04T16:38:43.05Z</time></trkpt><trkpt lat="43.2254651" lon="12.18995"><ele>334.6</ele><time>2026-04-04T16:38:44.051Z</time></trkpt><trkpt lat="43.2253584" lon="12.1899279"><ele>335.8</ele><time>2026-04-04T16:38:45.03Z</time></trkpt><trkpt lat="43.2252538" lon="12.189922"><ele>337.0</ele><time>2026-04-04T16:38:46.04Z</time></trkpt><trkpt lat="43.2251391" lon="12.1899337"><ele>337.0</ele><time>2026-04-04T16:38:47.034Z</time></trkpt><trkpt lat="43.2248846" lon="12.1900431"><ele>337.0</ele><time>2026-04-04T16:38:49.024Z</time></trkpt><trkpt lat="43.2247851" lon="12.1901104"><ele>337.0</ele><time>2026-04-04T16:38:50.03Z</time></trkpt><trkpt lat="43.2246881" lon="12.1901794"><ele>335.25</ele><time>2026-04-04T16:38:51.037Z</time></trkpt><trkpt lat="43.2245657" lon="12.1902509"><ele>333.5</ele><time>2026-04-04T16:38:52.047Z</time></trkpt><trkpt lat="43.2244546" lon="12.1903213"><ele>331.75</ele><time>2026-04-04T16:38:53.04Z</time></trkpt><trkpt lat="43.2243329" lon="12.1903785"><ele>330.0</ele><time>2026-04-04T16:38:54.046Z</time></trkpt><trkpt lat="43.2242105" lon="12.1904121"><ele>330.0</ele><time>2026-04-04T16:38:55.047Z</time></trkpt><trkpt lat="43.2240899" lon="12.1904243"><ele>330.0</ele><time>2026-04-04T16:38:56.035Z</time></trkpt><trkpt lat="43.2239665" lon="12.190436"><ele>330.0</ele><time>2026-04-04T16:38:57.038Z</time></trkpt><trkpt lat="43.2238512" lon="12.1904589"><ele>330.0</ele><time>2026-04-04T16:38:58.027Z</time></trkpt><trkpt lat="43.2237343" lon="12.1904814"><ele>329.0</ele><time>2026-04-04T16:38:59.03Z</time></trkpt><trkpt lat="43.2236078" lon="12.1904985"><ele>328.0</ele><time>2026-04-04T16:39:00.04Z</time></trkpt><trkpt lat="43.2234819" lon="12.1905201"><ele>327.0</ele><time>2026-04-04T16:39:01.036Z</time></trkpt><trkpt lat="43.2233522" lon="12.1905404"><ele>326.0</ele><time>2026-04-04T16:39:02.04Z</time></trkpt><trkpt lat="43.223218" lon="12.1905558"><ele>326.5</ele><time>2026-04-04T16:39:03.037Z</time></trkpt><trkpt lat="43.2230822" lon="12.1905732"><ele>327.0</ele><time>2026-04-04T16:39:04.03Z</time></trkpt><trkpt lat="43.2229445" lon="12.19059"><ele>327.5</ele><time>2026-04-04T16:39:05.04Z</time></trkpt><trkpt lat="43.2228124" lon="12.1906063"><ele>328.0</ele><time>2026-04-04T16:39:06.035Z</time></trkpt><trkpt lat="43.2226778" lon="12.1906139"><ele>328.0</ele><time>2026-04-04T16:39:07.042Z</time></trkpt><trkpt lat="43.2225404" lon="12.1906099"><ele>328.0</ele><time>2026-04-04T16:39:08.039Z</time></trkpt><trkpt lat="43.2224004" lon="12.1905839"><ele>328.0</ele><time>2026-04-04T16:39:09.051Z</time></trkpt><trkpt lat="43.2222598" lon="12.190536"><ele>328.0</ele><time>2026-04-04T16:39:10.043Z</time></trkpt><trkpt lat="43.2221216" lon="12.1904863"><ele>328.5</ele><time>2026-04-04T16:39:11.036Z</time></trkpt><trkpt lat="43.2219761" lon="12.1904415"><ele>329.0</ele><time>2026-04-04T16:39:12.04Z</time></trkpt><trkpt lat="43.2218305" lon="12.1903981"><ele>329.5</ele><time>2026-04-04T16:39:13.049Z</time></trkpt><trkpt lat="43.2216877" lon="12.190352"><ele>330.0</ele><time>2026-04-04T16:39:14.044Z</time></trkpt><trkpt lat="43.2215465" lon="12.1903118"><ele>329.25</ele><time>2026-04-04T16:39:15.045Z</time></trkpt><trkpt lat="43.2214104" lon="12.1902694"><ele>328.5</ele><time>2026-04-04T16:39:16.042Z</time></trkpt><trkpt lat="43.2212825" lon="12.190233"><ele>327.75</ele><time>2026-04-04T16:39:17.035Z</time></trkpt><trkpt lat="43.2211506" lon="12.1902273"><ele>327.0</ele><time>2026-04-04T16:39:18.039Z</time></trkpt><trkpt lat="43.221011" lon="12.1902516"><ele>327.0</ele><time>2026-04-04T16:39:19.041Z</time></trkpt><trkpt lat="43.2208845" lon="12.1903011"><ele>327.0</ele><time>2026-04-04T16:39:20.036Z</time></trkpt><trkpt lat="43.2207605" lon="12.1903738"><ele>327.0</ele><time>2026-04-04T16:39:21.034Z</time></trkpt><trkpt lat="43.2206342" lon="12.1904578"><ele>327.0</ele><time>2026-04-04T16:39:22.047Z</time></trkpt><trkpt lat="43.2205051" lon="12.190542"><ele>325.75</ele><time>2026-04-04T16:39:23.04Z</time></trkpt><trkpt lat="43.2203773" lon="12.1906185"><ele>324.5</ele><time>2026-04-04T16:39:24.042Z</time></trkpt><trkpt lat="43.2202558" lon="12.1907007"><ele>323.25</ele><time>2026-04-04T16:39:25.038Z</time></trkpt><trkpt lat="43.220131" lon="12.1907737"><ele>322.0</ele><time>2026-04-04T16:39:26.041Z</time></trkpt><trkpt lat="43.2200043" lon="12.1908448"><ele>322.0</ele><time>2026-04-04T16:39:27.034Z</time></trkpt><trkpt lat="43.2198783" lon="12.1909144"><ele>322.0</ele><time>2026-04-04T16:39:28.036Z</time></trkpt><trkpt lat="43.2197536" lon="12.190983"><ele>322.0</ele><time>2026-04-04T16:39:29.04Z</time></trkpt><trkpt lat="43.219632" lon="12.1910525"><ele>322.0</ele><time>2026-04-04T16:39:30.041Z</time></trkpt><trkpt lat="43.219523" lon="12.1911117"><ele>321.0</ele><time>2026-04-04T16:39:31.05Z</time></trkpt><trkpt lat="43.219419" lon="12.1911687"><ele>320.0</ele><time>2026-04-04T16:39:32.037Z</time></trkpt><trkpt lat="43.2193347" lon="12.1912125"><ele>319.0</ele><time>2026-04-04T16:39:33.032Z</time></trkpt><trkpt lat="43.2192676" lon="12.1912503"><ele>318.0</ele><time>2026-04-04T16:39:34.031Z</time></trkpt><trkpt lat="43.2192012" lon="12.1912855"><ele>317.0</ele><time>2026-04-04T16:39:36.045Z</time></trkpt><trkpt lat="43.2191271" lon="12.1913011"><ele>316.0</ele><time>2026-04-04T16:39:55.032Z</time></trkpt><trkpt lat="43.2190194" lon="12.191397"><ele>315.2</ele><time>2026-04-04T16:39:57.035Z</time></trkpt><trkpt lat="43.2189437" lon="12.1914492"><ele>314.40000000000003</ele><time>2026-04-04T16:39:58.033Z</time></trkpt><trkpt lat="43.2188564" lon="12.1915015"><ele>313.6</ele><time>2026-04-04T16:39:59.041Z</time></trkpt><trkpt lat="43.2187499" lon="12.1915395"><ele>312.8</ele><time>2026-04-04T16:40:00.038Z</time></trkpt><trkpt lat="43.2186277" lon="12.1915815"><ele>312.0</ele><time>2026-04-04T16:40:01.042Z</time></trkpt><trkpt lat="43.2184958" lon="12.1916108"><ele>312.0</ele><time>2026-04-04T16:40:02.042Z</time></trkpt><trkpt lat="43.2183607" lon="12.191639"><ele>312.0</ele><time>2026-04-04T16:40:03.029Z</time></trkpt><trkpt lat="43.2182177" lon="12.1916649"><ele>312.0</ele><time>2026-04-04T16:40:04.038Z</time></trkpt><trkpt lat="43.2180677" lon="12.1916717"><ele>312.0</ele><time>2026-04-04T16:40:05.04Z</time></trkpt><trkpt lat="43.2179115" lon="12.1916917"><ele>312.0</ele><time>2026-04-04T16:40:06.037Z</time></trkpt><trkpt lat="43.2177534" lon="12.1917148"><ele>312.0</ele><time>2026-04-04T16:40:07.036Z</time></trkpt><trkpt lat="43.2175899" lon="12.1917276"><ele>312.0</ele><time>2026-04-04T16:40:08.03Z</time></trkpt><trkpt lat="43.217421" lon="12.1917387"><ele>312.3333333333333</ele><time>2026-04-04T16:40:09.04Z</time></trkpt><trkpt lat="43.2172543" lon="12.1917449"><ele>312.66666666666663</ele><time>2026-04-04T16:40:10.028Z</time></trkpt><trkpt lat="43.2170852" lon="12.1917592"><ele>313.0</ele><time>2026-04-04T16:40:11.033Z</time></trkpt><trkpt lat="43.2169102" lon="12.1917755"><ele>313.0</ele><time>2026-04-04T16:40:12.036Z</time></trkpt><trkpt lat="43.2167326" lon="12.1917865"><ele>313.0</ele><time>2026-04-04T16:40:13.045Z</time></trkpt><trkpt lat="43.2165618" lon="12.1918055"><ele>313.0</ele><time>2026-04-04T16:40:14.037Z</time></trkpt><trkpt lat="43.2163947" lon="12.1918193"><ele>313.66666666666663</ele><time>2026-04-04T16:40:15.034Z</time></trkpt><trkpt lat="43.2162255" lon="12.1918382"><ele>314.3333333333333</ele><time>2026-04-04T16:40:16.035Z</time></trkpt><trkpt lat="43.2160517" lon="12.1918575"><ele>315.0</ele><time>2026-04-04T16:40:17.027Z</time></trkpt><trkpt lat="43.2158731" lon="12.1918695"><ele>315.0</ele><time>2026-04-04T16:40:18.032Z</time></trkpt><trkpt lat="43.2156897" lon="12.1918823"><ele>315.0</ele><time>2026-04-04T16:40:19.036Z</time></trkpt><trkpt lat="43.2155068" lon="12.1918941"><ele>315.0</ele><time>2026-04-04T16:40:20.037Z</time></trkpt><trkpt lat="43.2153221" lon="12.1919105"><ele>314.0</ele><time>2026-04-04T16:40:21.036Z</time></trkpt><trkpt lat="43.2151338" lon="12.1919278"><ele>313.0</ele><time>2026-04-04T16:40:22.046Z</time></trkpt><trkpt lat="43.2149454" lon="12.1919479"><ele>312.0</ele><time>2026-04-04T16:40:23.035Z</time></trkpt><trkpt lat="43.214757" lon="12.191959"><ele>312.0</ele><time>2026-04-04T16:40:24.045Z</time></trkpt><trkpt lat="43.2145741" lon="12.191974"><ele>312.0</ele><time>2026-04-04T16:40:25.037Z</time></trkpt><trkpt lat="43.2143916" lon="12.1919921"><ele>312.0</ele><time>2026-04-04T16:40:26.042Z</time></trkpt><trkpt lat="43.2142166" lon="12.1920092"><ele>312.0</ele><time>2026-04-04T16:40:27.044Z</time></trkpt><trkpt lat="43.214052" lon="12.192017"><ele>312.0</ele><time>2026-04-04T16:40:28.033Z</time></trkpt><trkpt lat="43.2139013" lon="12.1920451"><ele>312.0</ele><time>2026-04-04T16:40:29.04Z</time></trkpt><trkpt lat="43.2137912" lon="12.1920915"><ele>312.0</ele><time>2026-04-04T16:40:30.049Z</time></trkpt><trkpt lat="43.2137118" lon="12.192192"><ele>312.2</ele><time>2026-04-04T16:40:31.04Z</time></trkpt><trkpt lat="43.2136686" lon="12.1923053"><ele>312.4</ele><time>2026-04-04T16:40:32.038Z</time></trkpt><trkpt lat="43.213646" lon="12.1924447"><ele>312.6</ele><time>2026-04-04T16:40:33.04Z</time></trkpt><trkpt lat="43.2136325" lon="12.1925946"><ele>312.8</ele><time>2026-04-04T16:40:34.033Z</time></trkpt><trkpt lat="43.2136052" lon="12.192748"><ele>313.0</ele><time>2026-04-04T16:40:35.036Z</time></trkpt><trkpt lat="43.2135681" lon="12.1928834"><ele>313.4</ele><time>2026-04-04T16:40:36.038Z</time></trkpt><trkpt lat="43.2135092" lon="12.1929975"><ele>313.8</ele><time>2026-04-04T16:40:37.043Z</time></trkpt><trkpt lat="43.2134286" lon="12.1930748"><ele>314.2</ele><time>2026-04-04T16:40:38.037Z</time></trkpt><trkpt lat="43.2133382" lon="12.1931328"><ele>314.6</ele><time>2026-04-04T16:40:39.036Z</time></trkpt><trkpt lat="43.2132338" lon="12.1931628"><ele>315.0</ele><time>2026-04-04T16:40:40.042Z</time></trkpt><trkpt lat="43.2131295" lon="12.1931922"><ele>315.0</ele><time>2026-04-04T16:40:41.032Z</time></trkpt><trkpt lat="43.2130177" lon="12.1932294"><ele>315.0</ele><time>2026-04-04T16:40:42.038Z</time></trkpt><trkpt lat="43.212889" lon="12.1932656"><ele>315.0</ele><time>2026-04-04T16:40:43.046Z</time></trkpt><trkpt lat="43.2127636" lon="12.193296"><ele>315.0</ele><time>2026-04-04T16:40:44.046Z</time></trkpt><trkpt lat="43.212633" lon="12.1933262"><ele>315.0</ele><time>2026-04-04T16:40:45.033Z</time></trkpt><trkpt lat="43.2125004" lon="12.1933603"><ele>315.0</ele><time>2026-04-04T16:40:46.037Z</time></trkpt><trkpt lat="43.2123655" lon="12.1934026"><ele>315.0</ele><time>2026-04-04T16:40:47.041Z</time></trkpt><trkpt lat="43.2122261" lon="12.1934347"><ele>315.0</ele><time>2026-04-04T16:40:48.032Z</time></trkpt><trkpt lat="43.2120844" lon="12.1934707"><ele>315.6666666666667</ele><time>2026-04-04T16:40:49.037Z</time></trkpt><trkpt lat="43.2119348" lon="12.1934993"><ele>316.33333333333337</ele><time>2026-04-04T16:40:50.03Z</time></trkpt><trkpt lat="43.2117832" lon="12.1935618"><ele>317.0</ele><time>2026-04-04T16:40:51.044Z</time></trkpt><trkpt lat="43.2116282" lon="12.1936317"><ele>317.6666666666667</ele><time>2026-04-04T16:40:52.043Z</time></trkpt><trkpt lat="43.2114784" lon="12.1937166"><ele>318.3333333333333</ele><time>2026-04-04T16:40:53.027Z</time></trkpt><trkpt lat="43.2113283" lon="12.1938168"><ele>319.0</ele><time>2026-04-04T16:40:54.037Z</time></trkpt><trkpt lat="43.2111943" lon="12.1939366"><ele>320.25</ele><time>2026-04-04T16:40:55.044Z</time></trkpt><trkpt lat="43.2110864" lon="12.1940631"><ele>321.5</ele><time>2026-04-04T16:40:56.036Z</time></trkpt><trkpt lat="43.2109983" lon="12.1942133"><ele>322.75</ele><time>2026-04-04T16:40:57.037Z</time></trkpt><trkpt lat="43.2109472" lon="12.1943765"><ele>324.0</ele><time>2026-04-04T16:40:58.04Z</time></trkpt><trkpt lat="43.2109174" lon="12.1945464"><ele>324.0</ele><time>2026-04-04T16:40:59.059Z</time></trkpt><trkpt lat="43.2109249" lon="12.1947323"><ele>324.0</ele><time>2026-04-04T16:41:00.041Z</time></trkpt><trkpt lat="43.2109423" lon="12.1949277"><ele>324.0</ele><time>2026-04-04T16:41:01.038Z</time></trkpt><trkpt lat="43.2109416" lon="12.1951209"><ele>324.0</ele><time>2026-04-04T16:41:02.033Z</time></trkpt><trkpt lat="43.2109238" lon="12.1953048"><ele>324.75</ele><time>2026-04-04T16:41:03.04Z</time></trkpt><trkpt lat="43.210881" lon="12.1954846"><ele>325.5</ele><time>2026-04-04T16:41:04.043Z</time></trkpt><trkpt lat="43.2108001" lon="12.1956425"><ele>326.25</ele><time>2026-04-04T16:41:05.037Z</time></trkpt><trkpt lat="43.2107105" lon="12.1957749"><ele>327.0</ele><time>2026-04-04T16:41:06.039Z</time></trkpt><trkpt lat="43.2105981" lon="12.195886"><ele>329.25</ele><time>2026-04-04T16:41:07.035Z</time></trkpt><trkpt lat="43.21047" lon="12.1959746"><ele>331.5</ele><time>2026-04-04T16:41:08.035Z</time></trkpt><trkpt lat="43.2103302" lon="12.196032"><ele>333.75</ele><time>2026-04-04T16:41:09.038Z</time></trkpt><trkpt lat="43.2101756" lon="12.1960631"><ele>336.0</ele><time>2026-04-04T16:41:10.035Z</time></trkpt><trkpt lat="43.2100217" lon="12.196056"><ele>336.0</ele><time>2026-04-04T16:41:11.041Z</time></trkpt><trkpt lat="43.2098595" lon="12.1960258"><ele>336.0</ele><time>2026-04-04T16:41:12.033Z</time></trkpt><trkpt lat="43.2096871" lon="12.1959848"><ele>336.0</ele><time>2026-04-04T16:41:13.033Z</time></trkpt><trkpt lat="43.2094989" lon="12.1959423"><ele>337.0</ele><time>2026-04-04T16:41:14.044Z</time></trkpt><trkpt lat="43.2092992" lon="12.195901"><ele>338.0</ele><time>2026-04-04T16:41:15.035Z</time></trkpt><trkpt lat="43.2090841" lon="12.1958503"><ele>339.0</ele><time>2026-04-04T16:41:16.027Z</time></trkpt><trkpt lat="43.2088584" lon="12.1958054"><ele>344.0</ele><time>2026-04-04T16:41:17.037Z</time></trkpt><trkpt lat="43.208625" lon="12.1957603"><ele>349.0</ele><time>2026-04-04T16:41:18.032Z</time></trkpt><trkpt lat="43.2083876" lon="12.1957154"><ele>346.0</ele><time>2026-04-04T16:41:19.039Z</time></trkpt><trkpt lat="43.2081478" lon="12.1956684"><ele>343.0</ele><time>2026-04-04T16:41:20.025Z</time></trkpt><trkpt lat="43.2079302" lon="12.1956264"><ele>343.0</ele><time>2026-04-04T16:41:21.041Z</time></trkpt><trkpt lat="43.2077377" lon="12.1955829"><ele>343.0</ele><time>2026-04-04T16:41:22.036Z</time></trkpt><trkpt lat="43.2075582" lon="12.1955488"><ele>343.0</ele><time>2026-04-04T16:41:23.037Z</time></trkpt><trkpt lat="43.2073824" lon="12.1955161"><ele>343.66666666666663</ele><time>2026-04-04T16:41:24.033Z</time></trkpt><trkpt lat="43.2072156" lon="12.1954831"><ele>344.3333333333333</ele><time>2026-04-04T16:41:25.035Z</time></trkpt><trkpt lat="43.2070619" lon="12.1954708"><ele>345.0</ele><time>2026-04-04T16:41:26.03Z</time></trkpt><trkpt lat="43.2068943" lon="12.1954799"><ele>345.0</ele><time>2026-04-04T16:41:27.033Z</time></trkpt><trkpt lat="43.2067397" lon="12.1955408"><ele>345.0</ele><time>2026-04-04T16:41:28.038Z</time></trkpt><trkpt lat="43.2066108" lon="12.1956328"><ele>345.0</ele><time>2026-04-04T16:41:29.032Z</time></trkpt><trkpt lat="43.2065088" lon="12.1957497"><ele>345.0</ele><time>2026-04-04T16:41:30.044Z</time></trkpt><trkpt lat="43.2064479" lon="12.19589"><ele>347.2</ele><time>2026-04-04T16:41:31.039Z</time></trkpt><trkpt lat="43.2064352" lon="12.1960239"><ele>349.4</ele><time>2026-04-04T16:41:32.032Z</time></trkpt><trkpt lat="43.2064566" lon="12.1961436"><ele>351.6</ele><time>2026-04-04T16:41:33.025Z</time></trkpt><trkpt lat="43.2065106" lon="12.1962648"><ele>353.8</ele><time>2026-04-04T16:41:34.037Z</time></trkpt><trkpt lat="43.2066026" lon="12.1963552"><ele>356.0</ele><time>2026-04-04T16:41:35.032Z</time></trkpt><trkpt lat="43.2067128" lon="12.1964042"><ele>356.0</ele><time>2026-04-04T16:41:36.03Z</time></trkpt><trkpt lat="43.2068493" lon="12.1964104"><ele>356.0</ele><time>2026-04-04T16:41:37.04Z</time></trkpt><trkpt lat="43.2069755" lon="12.1964335"><ele>356.0</ele><time>2026-04-04T16:41:38.034Z</time></trkpt><trkpt lat="43.2070825" lon="12.1964838"><ele>356.0</ele><time>2026-04-04T16:41:39.029Z</time></trkpt><trkpt lat="43.2071737" lon="12.1965664"><ele>358.25</ele><time>2026-04-04T16:41:40.04Z</time></trkpt><trkpt lat="43.2072703" lon="12.196679"><ele>360.5</ele><time>2026-04-04T16:41:41.029Z</time></trkpt><trkpt lat="43.207356" lon="12.1968301"><ele>362.75</ele><time>2026-04-04T16:41:42.039Z</time></trkpt><trkpt lat="43.2074559" lon="12.197009"><ele>365.0</ele><time>2026-04-04T16:41:43.042Z</time></trkpt><trkpt lat="43.2075711" lon="12.1972067"><ele>368.33333333333337</ele><time>2026-04-04T16:41:44.039Z</time></trkpt><trkpt lat="43.2076947" lon="12.1974153"><ele>371.6666666666667</ele><time>2026-04-04T16:41:45.032Z</time></trkpt><trkpt lat="43.2078242" lon="12.1976181"><ele>375.0</ele><time>2026-04-04T16:41:46.039Z</time></trkpt><trkpt lat="43.2079353" lon="12.1977993"><ele>375.0</ele><time>2026-04-04T16:41:47.033Z</time></trkpt><trkpt lat="43.2080273" lon="12.1979427"><ele>375.0</ele><time>2026-04-04T16:41:48.035Z</time></trkpt><trkpt lat="43.2081139" lon="12.1980959"><ele>375.0</ele><time>2026-04-04T16:41:49.036Z</time></trkpt><trkpt lat="43.2081851" lon="12.19827"><ele>375.0</ele><time>2026-04-04T16:41:50.051Z</time></trkpt><trkpt lat="43.2082183" lon="12.1984566"><ele>373.75</ele><time>2026-04-04T16:41:51.035Z</time></trkpt><trkpt lat="43.208228" lon="12.1986355"><ele>372.5</ele><time>2026-04-04T16:41:52.036Z</time></trkpt><trkpt lat="43.2082111" lon="12.1988272"><ele>371.25</ele><time>2026-04-04T16:41:53.04Z</time></trkpt><trkpt lat="43.2081696" lon="12.1990308"><ele>370.0</ele><time>2026-04-04T16:41:54.034Z</time></trkpt><trkpt lat="43.2081147" lon="12.1992334"><ele>374.0</ele><time>2026-04-04T16:41:55.034Z</time></trkpt><trkpt lat="43.2080774" lon="12.1994343"><ele>378.0</ele><time>2026-04-04T16:41:56.03Z</time></trkpt><trkpt lat="43.2080859" lon="12.1996663"><ele>382.0</ele><time>2026-04-04T16:41:57.042Z</time></trkpt><trkpt lat="43.2081219" lon="12.1998964"><ele>380.25</ele><time>2026-04-04T16:41:58.034Z</time></trkpt><trkpt lat="43.2081695" lon="12.2001036"><ele>378.5</ele><time>2026-04-04T16:41:59.034Z</time></trkpt><trkpt lat="43.2082103" lon="12.2002965"><ele>376.75</ele><time>2026-04-04T16:42:00.032Z</time></trkpt><trkpt lat="43.2082154" lon="12.2004787"><ele>375.0</ele><time>2026-04-04T16:42:01.036Z</time></trkpt><trkpt lat="43.2081848" lon="12.2006608"><ele>377.5</ele><time>2026-04-04T16:42:02.033Z</time></trkpt><trkpt lat="43.2081179" lon="12.2008248"><ele>380.0</ele><time>2026-04-04T16:42:03.034Z</time></trkpt><trkpt lat="43.2080236" lon="12.2009505"><ele>382.5</ele><time>2026-04-04T16:42:04.037Z</time></trkpt><trkpt lat="43.2079137" lon="12.2010655"><ele>385.0</ele><time>2026-04-04T16:42:05.036Z</time></trkpt><trkpt lat="43.2077922" lon="12.2011385"><ele>385.0</ele><time>2026-04-04T16:42:06.036Z</time></trkpt><trkpt lat="43.2076754" lon="12.2011686"><ele>385.0</ele><time>2026-04-04T16:42:07.037Z</time></trkpt><trkpt lat="43.2075653" lon="12.2011363"><ele>385.0</ele><time>2026-04-04T16:42:08.033Z</time></trkpt><trkpt lat="43.2074713" lon="12.2010535"><ele>385.0</ele><time>2026-04-04T16:42:09.038Z</time></trkpt><trkpt lat="43.2073768" lon="12.2009404"><ele>384.0</ele><time>2026-04-04T16:42:10.028Z</time></trkpt><trkpt lat="43.2072893" lon="12.2007794"><ele>383.0</ele><time>2026-04-04T16:42:11.035Z</time></trkpt><trkpt lat="43.2071931" lon="12.2006074"><ele>382.0</ele><time>2026-04-04T16:42:12.033Z</time></trkpt><trkpt lat="43.2070843" lon="12.2004363"><ele>384.66666666666663</ele><time>2026-04-04T16:42:13.043Z</time></trkpt><trkpt lat="43.2069691" lon="12.2002609"><ele>387.3333333333333</ele><time>2026-04-04T16:42:14.046Z</time></trkpt><trkpt lat="43.2068392" lon="12.2000865"><ele>390.0</ele><time>2026-04-04T16:42:15.05Z</time></trkpt><trkpt lat="43.2066924" lon="12.1999129"><ele>390.0</ele><time>2026-04-04T16:42:16.038Z</time></trkpt><trkpt lat="43.2065649" lon="12.1997442"><ele>390.0</ele><time>2026-04-04T16:42:17.036Z</time></trkpt><trkpt lat="43.206447" lon="12.1995882"><ele>390.0</ele><time>2026-04-04T16:42:18.037Z</time></trkpt><trkpt lat="43.2063363" lon="12.199457"><ele>391.66666666666663</ele><time>2026-04-04T16:42:19.047Z</time></trkpt><trkpt lat="43.2062216" lon="12.1993545"><ele>393.3333333333333</ele><time>2026-04-04T16:42:20.038Z</time></trkpt><trkpt lat="43.2060565" lon="12.1992962"><ele>395.0</ele><time>2026-04-04T16:42:21.037Z</time></trkpt><trkpt lat="43.2058744" lon="12.1992652"><ele>395.0</ele><time>2026-04-04T16:42:22.04Z</time></trkpt><trkpt lat="43.2056863" lon="12.1992342"><ele>395.0</ele><time>2026-04-04T16:42:23.035Z</time></trkpt><trkpt lat="43.2054857" lon="12.1992006"><ele>395.0</ele><time>2026-04-04T16:42:24.038Z</time></trkpt><trkpt lat="43.2052725" lon="12.1991538"><ele>398.3333333333333</ele><time>2026-04-04T16:42:25.051Z</time></trkpt><trkpt lat="43.2050591" lon="12.199114"><ele>401.66666666666663</ele><time>2026-04-04T16:42:26.045Z</time></trkpt><trkpt lat="43.2048636" lon="12.199077"><ele>405.0</ele><time>2026-04-04T16:42:27.042Z</time></trkpt><trkpt lat="43.204693" lon="12.1990507"><ele>403.33333333333337</ele><time>2026-04-04T16:42:28.04Z</time></trkpt><trkpt lat="43.2045318" lon="12.198998"><ele>401.6666666666667</ele><time>2026-04-04T16:42:29.037Z</time></trkpt><trkpt lat="43.2043696" lon="12.1989109"><ele>400.0</ele><time>2026-04-04T16:42:30.037Z</time></trkpt><trkpt lat="43.2042178" lon="12.1987947"><ele>400.0</ele><time>2026-04-04T16:42:31.042Z</time></trkpt><trkpt lat="43.2040779" lon="12.1986713"><ele>400.0</ele><time>2026-04-04T16:42:32.047Z</time></trkpt><trkpt lat="43.2039532" lon="12.1985618"><ele>400.0</ele><time>2026-04-04T16:42:33.039Z</time></trkpt><trkpt lat="43.2038295" lon="12.1984786"><ele>402.5</ele><time>2026-04-04T16:42:34.037Z</time></trkpt><trkpt lat="43.203703" lon="12.1984274"><ele>405.0</ele><time>2026-04-04T16:42:35.031Z</time></trkpt><trkpt lat="43.2035574" lon="12.198422"><ele>407.5</ele><time>2026-04-04T16:42:36.038Z</time></trkpt><trkpt lat="43.2033901" lon="12.1984668"><ele>410.0</ele><time>2026-04-04T16:42:37.047Z</time></trkpt><trkpt lat="43.2032174" lon="12.1985335"><ele>411.0</ele><time>2026-04-04T16:42:38.028Z</time></trkpt><trkpt lat="43.2030376" lon="12.1985869"><ele>412.0</ele><time>2026-04-04T16:42:39.038Z</time></trkpt><trkpt lat="43.2028509" lon="12.198645"><ele>413.0</ele><time>2026-04-04T16:42:40.033Z</time></trkpt><trkpt lat="43.2026543" lon="12.1987167"><ele>413.0</ele><time>2026-04-04T16:42:41.04Z</time></trkpt><trkpt lat="43.202449" lon="12.1987963"><ele>413.0</ele><time>2026-04-04T16:42:42.036Z</time></trkpt><trkpt lat="43.2022515" lon="12.1988671"><ele>413.0</ele><time>2026-04-04T16:42:43.031Z</time></trkpt><trkpt lat="43.2020531" lon="12.198941"><ele>416.66666666666663</ele><time>2026-04-04T16:42:44.039Z</time></trkpt><trkpt lat="43.2018659" lon="12.1990249"><ele>420.33333333333337</ele><time>2026-04-04T16:42:45.038Z</time></trkpt><trkpt lat="43.2016853" lon="12.1991248"><ele>424.0</ele><time>2026-04-04T16:42:46.035Z</time></trkpt><trkpt lat="43.2015135" lon="12.1992132"><ele>424.6666666666667</ele><time>2026-04-04T16:42:47.032Z</time></trkpt><trkpt lat="43.2013496" lon="12.1992837"><ele>425.33333333333337</ele><time>2026-04-04T16:42:48.029Z</time></trkpt><trkpt lat="43.2011831" lon="12.1993643"><ele>426.0</ele><time>2026-04-04T16:42:49.04Z</time></trkpt><trkpt lat="43.2010099" lon="12.1994192"><ele>426.0</ele><time>2026-04-04T16:42:50.041Z</time></trkpt><trkpt lat="43.2008253" lon="12.1994512"><ele>426.0</ele><time>2026-04-04T16:42:51.037Z</time></trkpt><trkpt lat="43.2006361" lon="12.1994827"><ele>426.0</ele><time>2026-04-04T16:42:52.046Z</time></trkpt><trkpt lat="43.2004472" lon="12.1995141"><ele>426.66666666666663</ele><time>2026-04-04T16:42:53.027Z</time></trkpt><trkpt lat="43.2002608" lon="12.1995512"><ele>427.3333333333333</ele><time>2026-04-04T16:42:54.041Z</time></trkpt><trkpt lat="43.2000832" lon="12.1995749"><ele>428.0</ele><time>2026-04-04T16:42:55.037Z</time></trkpt><trkpt lat="43.1999164" lon="12.1996086"><ele>427.75</ele><time>2026-04-04T16:42:56.036Z</time></trkpt><trkpt lat="43.1997606" lon="12.1996395"><ele>427.5</ele><time>2026-04-04T16:42:57.043Z</time></trkpt><trkpt lat="43.1996131" lon="12.1996607"><ele>427.25</ele><time>2026-04-04T16:42:58.04Z</time></trkpt><trkpt lat="43.1994724" lon="12.1997006"><ele>427.0</ele><time>2026-04-04T16:42:59.039Z</time></trkpt><trkpt lat="43.199346" lon="12.1997659"><ele>428.6</ele><time>2026-04-04T16:43:00.045Z</time></trkpt><trkpt lat="43.1992382" lon="12.1998516"><ele>430.20000000000005</ele><time>2026-04-04T16:43:01.033Z</time></trkpt><trkpt lat="43.1991572" lon="12.1999637"><ele>431.8</ele><time>2026-04-04T16:43:02.043Z</time></trkpt><trkpt lat="43.1991126" lon="12.200081"><ele>433.4</ele><time>2026-04-04T16:43:03.039Z</time></trkpt><trkpt lat="43.199096" lon="12.2002145"><ele>435.0</ele><time>2026-04-04T16:43:04.041Z</time></trkpt><trkpt lat="43.1991129" lon="12.2003596"><ele>435.0</ele><time>2026-04-04T16:43:05.034Z</time></trkpt><trkpt lat="43.1991624" lon="12.2005183"><ele>435.0</ele><time>2026-04-04T16:43:06.03Z</time></trkpt><trkpt lat="43.1992295" lon="12.2006529"><ele>435.0</ele><time>2026-04-04T16:43:07.033Z</time></trkpt><trkpt lat="43.1993209" lon="12.2007452"><ele>435.0</ele><time>2026-04-04T16:43:08.035Z</time></trkpt><trkpt lat="43.1994353" lon="12.2007856"><ele>436.75</ele><time>2026-04-04T16:43:09.031Z</time></trkpt><trkpt lat="43.199566" lon="12.200782"><ele>438.5</ele><time>2026-04-04T16:43:10.036Z</time></trkpt><trkpt lat="43.1997241" lon="12.2007575"><ele>440.25</ele><time>2026-04-04T16:43:11.035Z</time></trkpt><trkpt lat="43.1998785" lon="12.2007337"><ele>442.0</ele><time>2026-04-04T16:43:12.039Z</time></trkpt><trkpt lat="43.2000414" lon="12.2007159"><ele>442.75</ele><time>2026-04-04T16:43:13.043Z</time></trkpt><trkpt lat="43.2002059" lon="12.2006932"><ele>443.5</ele><time>2026-04-04T16:43:14.035Z</time></trkpt><trkpt lat="43.2003523" lon="12.2006558"><ele>444.25</ele><time>2026-04-04T16:43:15.03Z</time></trkpt><trkpt lat="43.2004823" lon="12.2006335"><ele>445.0</ele><time>2026-04-04T16:43:16.043Z</time></trkpt><trkpt lat="43.2005975" lon="12.2006227"><ele>445.1666666666667</ele><time>2026-04-04T16:43:17.036Z</time></trkpt><trkpt lat="43.2007002" lon="12.2006313"><ele>445.33333333333337</ele><time>2026-04-04T16:43:18.035Z</time></trkpt><trkpt lat="43.200766" lon="12.2006885"><ele>445.5</ele><time>2026-04-04T16:43:19.029Z</time></trkpt><trkpt lat="43.2008164" lon="12.2007787"><ele>445.66666666666663</ele><time>2026-04-04T16:43:20.03Z</time></trkpt><trkpt lat="43.200827" lon="12.2009068"><ele>445.8333333333333</ele><time>2026-04-04T16:43:21.031Z</time></trkpt><trkpt lat="43.2007933" lon="12.20102"><ele>446.0</ele><time>2026-04-04T16:43:22.036Z</time></trkpt><trkpt lat="43.2007282" lon="12.2010891"><ele>445.75</ele><time>2026-04-04T16:43:23.026Z</time></trkpt><trkpt lat="43.2006403" lon="12.2011475"><ele>445.5</ele><time>2026-04-04T16:43:24.046Z</time></trkpt><trkpt lat="43.2005256" lon="12.2011586"><ele>445.25</ele><time>2026-04-04T16:43:25.04Z</time></trkpt><trkpt lat="43.2004096" lon="12.2011536"><ele>445.0</ele><time>2026-04-04T16:43:26.028Z</time></trkpt><trkpt lat="43.2002929" lon="12.2012187"><ele>445.0</ele><time>2026-04-04T16:43:27.036Z</time></trkpt><trkpt lat="43.2002157" lon="12.2013272"><ele>445.0</ele><time>2026-04-04T16:43:28.037Z</time></trkpt><trkpt lat="43.2001655" lon="12.2014344"><ele>445.0</ele><time>2026-04-04T16:43:29.045Z</time></trkpt><trkpt lat="43.2001778" lon="12.2015747"><ele>445.0</ele><time>2026-04-04T16:43:30.037Z</time></trkpt><trkpt lat="43.2002206" lon="12.2017009"><ele>445.0</ele><time>2026-04-04T16:43:31.035Z</time></trkpt><trkpt lat="43.2003033" lon="12.2018098"><ele>446.75</ele><time>2026-04-04T16:43:32.037Z</time></trkpt><trkpt lat="43.2003924" lon="12.2019063"><ele>448.5</ele><time>2026-04-04T16:43:33.035Z</time></trkpt><trkpt lat="43.2005009" lon="12.2020032"><ele>450.25</ele><time>2026-04-04T16:43:34.038Z</time></trkpt><trkpt lat="43.2006102" lon="12.2020997"><ele>452.0</ele><time>2026-04-04T16:43:35.032Z</time></trkpt><trkpt lat="43.2007139" lon="12.2021876"><ele>452.0</ele><time>2026-04-04T16:43:36.031Z</time></trkpt><trkpt lat="43.2008056" lon="12.2022694"><ele>452.00000000000006</ele><time>2026-04-04T16:43:37.044Z</time></trkpt><trkpt lat="43.2008604" lon="12.2023906"><ele>452.00000000000006</ele><time>2026-04-04T16:43:38.048Z</time></trkpt><trkpt lat="43.2008747" lon="12.2025302"><ele>452.0</ele><time>2026-04-04T16:43:39.035Z</time></trkpt><trkpt lat="43.2008464" lon="12.2026749"><ele>452.0</ele><time>2026-04-04T16:43:40.036Z</time></trkpt><trkpt lat="43.2007905" lon="12.2027868"><ele>453.6</ele><time>2026-04-04T16:43:41.027Z</time></trkpt><trkpt lat="43.2007065" lon="12.2028685"><ele>455.20000000000005</ele><time>2026-04-04T16:43:42.03Z</time></trkpt><trkpt lat="43.2006093" lon="12.2029032"><ele>456.8</ele><time>2026-04-04T16:43:43.045Z</time></trkpt><trkpt lat="43.2005015" lon="12.2028747"><ele>458.4</ele><time>2026-04-04T16:43:44.037Z</time></trkpt><trkpt lat="43.2003881" lon="12.2027828"><ele>460.0</ele><time>2026-04-04T16:43:45.031Z</time></trkpt><trkpt lat="43.2002762" lon="12.2026521"><ele>462.6666666666667</ele><time>2026-04-04T16:43:46.041Z</time></trkpt><trkpt lat="43.2001459" lon="12.2025185"><ele>465.33333333333337</ele><time>2026-04-04T16:43:47.035Z</time></trkpt><trkpt lat="43.2000092" lon="12.2024204"><ele>468.0</ele><time>2026-04-04T16:43:48.04Z</time></trkpt><trkpt lat="43.1998778" lon="12.2023653"><ele>468.0</ele><time>2026-04-04T16:43:49.032Z</time></trkpt><trkpt lat="43.1997609" lon="12.2023513"><ele>468.0</ele><time>2026-04-04T16:43:50.033Z</time></trkpt><trkpt lat="43.1996475" lon="12.2023831"><ele>468.0</ele><time>2026-04-04T16:43:51.03Z</time></trkpt><trkpt lat="43.1995353" lon="12.2024716"><ele>468.0</ele><time>2026-04-04T16:43:52.042Z</time></trkpt><trkpt lat="43.1994152" lon="12.2025868"><ele>468.0</ele><time>2026-04-04T16:43:53.032Z</time></trkpt><trkpt lat="43.1992813" lon="12.2027009"><ele>468.0</ele><time>2026-04-04T16:43:54.046Z</time></trkpt><trkpt lat="43.1991321" lon="12.2027956"><ele>468.0</ele><time>2026-04-04T16:43:55.037Z</time></trkpt><trkpt lat="43.198947" lon="12.2028276"><ele>468.33333333333337</ele><time>2026-04-04T16:43:56.035Z</time></trkpt><trkpt lat="43.1987537" lon="12.2028317"><ele>468.6666666666667</ele><time>2026-04-04T16:43:57.04Z</time></trkpt><trkpt lat="43.1985532" lon="12.2028315"><ele>469.0</ele><time>2026-04-04T16:43:58.039Z</time></trkpt><trkpt lat="43.1983438" lon="12.2028591"><ele>467.6666666666667</ele><time>2026-04-04T16:43:59.035Z</time></trkpt><trkpt lat="43.1981444" lon="12.2029251"><ele>466.33333333333337</ele><time>2026-04-04T16:44:00.042Z</time></trkpt><trkpt lat="43.1979362" lon="12.2030094"><ele>465.0</ele><time>2026-04-04T16:44:01.035Z</time></trkpt><trkpt lat="43.1977432" lon="12.2030902"><ele>465.0</ele><time>2026-04-04T16:44:02.032Z</time></trkpt><trkpt lat="43.1975788" lon="12.203163"><ele>465.0</ele><time>2026-04-04T16:44:03.034Z</time></trkpt><trkpt lat="43.1974436" lon="12.2032502"><ele>465.0</ele><time>2026-04-04T16:44:04.042Z</time></trkpt><trkpt lat="43.1973417" lon="12.2033424"><ele>465.0</ele><time>2026-04-04T16:44:05.04Z</time></trkpt><trkpt lat="43.1972699" lon="12.2034645"><ele>467.0</ele><time>2026-04-04T16:44:06.025Z</time></trkpt><trkpt lat="43.1972134" lon="12.2036143"><ele>469.0</ele><time>2026-04-04T16:44:07.024Z</time></trkpt><trkpt lat="43.1971774" lon="12.203788"><ele>471.0</ele><time>2026-04-04T16:44:08.035Z</time></trkpt><trkpt lat="43.1971404" lon="12.2039734"><ele>473.0</ele><time>2026-04-04T16:44:09.038Z</time></trkpt><trkpt lat="43.1971038" lon="12.2041545"><ele>475.5</ele><time>2026-04-04T16:44:10.038Z</time></trkpt><trkpt lat="43.1970726" lon="12.2043263"><ele>478.0</ele><time>2026-04-04T16:44:11.049Z</time></trkpt><trkpt lat="43.1970265" lon="12.2044556"><ele>480.5</ele><time>2026-04-04T16:44:12.033Z</time></trkpt><trkpt lat="43.1969468" lon="12.2045692"><ele>483.0</ele><time>2026-04-04T16:44:13.028Z</time></trkpt><trkpt lat="43.1968399" lon="12.2046369"><ele>483.0</ele><time>2026-04-04T16:44:14.032Z</time></trkpt><trkpt lat="43.1967244" lon="12.2046691"><ele>483.0</ele><time>2026-04-04T16:44:15.039Z</time></trkpt><trkpt lat="43.1965865" lon="12.2046847"><ele>483.0</ele><time>2026-04-04T16:44:16.03Z</time></trkpt><trkpt lat="43.1964481" lon="12.2046757"><ele>483.0</ele><time>2026-04-04T16:44:17.045Z</time></trkpt><trkpt lat="43.196314" lon="12.204617"><ele>486.0</ele><time>2026-04-04T16:44:18.035Z</time></trkpt><trkpt lat="43.1962044" lon="12.2044962"><ele>489.0</ele><time>2026-04-04T16:44:19.042Z</time></trkpt><trkpt lat="43.1961002" lon="12.2043344"><ele>492.0</ele><time>2026-04-04T16:44:20.034Z</time></trkpt><trkpt lat="43.1960093" lon="12.2041721"><ele>495.0</ele><time>2026-04-04T16:44:21.028Z</time></trkpt><trkpt lat="43.1959127" lon="12.2040353"><ele>494.33333333333337</ele><time>2026-04-04T16:44:22.036Z</time></trkpt><trkpt lat="43.1957805" lon="12.2039412"><ele>493.6666666666667</ele><time>2026-04-04T16:44:23.041Z</time></trkpt><trkpt lat="43.1956135" lon="12.2038847"><ele>493.0</ele><time>2026-04-04T16:44:24.047Z</time></trkpt><trkpt lat="43.1954396" lon="12.203824"><ele>493.0</ele><time>2026-04-04T16:44:25.033Z</time></trkpt><trkpt lat="43.1952507" lon="12.203764"><ele>493.0</ele><time>2026-04-04T16:44:26.037Z</time></trkpt><trkpt lat="43.1950529" lon="12.2037065"><ele>493.0</ele><time>2026-04-04T16:44:27.033Z</time></trkpt><trkpt lat="43.1948486" lon="12.2036392"><ele>496.6666666666667</ele><time>2026-04-04T16:44:28.04Z</time></trkpt><trkpt lat="43.1946413" lon="12.2035757"><ele>500.33333333333337</ele><time>2026-04-04T16:44:29.034Z</time></trkpt><trkpt lat="43.1944354" lon="12.2035159"><ele>504.0</ele><time>2026-04-04T16:44:30.028Z</time></trkpt><trkpt lat="43.1942487" lon="12.2034555"><ele>504.0</ele><time>2026-04-04T16:44:31.035Z</time></trkpt><trkpt lat="43.1940824" lon="12.2034003"><ele>504.0</ele><time>2026-04-04T16:44:32.028Z</time></trkpt><trkpt lat="43.1939201" lon="12.2033569"><ele>504.0</ele><time>2026-04-04T16:44:33.036Z</time></trkpt><trkpt lat="43.1937842" lon="12.2033176"><ele>504.5</ele><time>2026-04-04T16:44:34.035Z</time></trkpt><trkpt lat="43.1936817" lon="12.2032781"><ele>505.0</ele><time>2026-04-04T16:44:35.036Z</time></trkpt><trkpt lat="43.1936003" lon="12.2032463"><ele>505.5</ele><time>2026-04-04T16:44:36.031Z</time></trkpt><trkpt lat="43.1935308" lon="12.2032209"><ele>506.0</ele><time>2026-04-04T16:44:37.037Z</time></trkpt><trkpt lat="43.1934505" lon="12.2031846"><ele>506.5</ele><time>2026-04-04T16:44:39.037Z</time></trkpt><trkpt lat="43.1933617" lon="12.2031858"><ele>507.0</ele><time>2026-04-04T16:45:08.048Z</time></trkpt><trkpt lat="43.1932402" lon="12.2031636"><ele>507.0</ele><time>2026-04-04T16:45:10.045Z</time></trkpt><trkpt lat="43.1931744" lon="12.2031484"><ele>507.00000000000006</ele><time>2026-04-04T16:45:11.042Z</time></trkpt><trkpt lat="43.1930557" lon="12.2030851"><ele>507.00000000000006</ele><time>2026-04-04T16:45:13.044Z</time></trkpt><trkpt lat="43.1929728" lon="12.2029595"><ele>507.0</ele><time>2026-04-04T16:45:15.038Z</time></trkpt><trkpt lat="43.192934" lon="12.2028636"><ele>507.0</ele><time>2026-04-04T16:45:16.033Z</time></trkpt><trkpt lat="43.1929016" lon="12.2027634"><ele>504.3333333333333</ele><time>2026-04-04T16:45:17.034Z</time></trkpt><trkpt lat="43.1928709" lon="12.2026582"><ele>501.66666666666663</ele><time>2026-04-04T16:45:18.034Z</time></trkpt><trkpt lat="43.1928458" lon="12.2025554"><ele>499.0</ele><time>2026-04-04T16:45:19.039Z</time></trkpt><trkpt lat="43.1928232" lon="12.2024426"><ele>496.3333333333333</ele><time>2026-04-04T16:45:20.057Z</time></trkpt><trkpt lat="43.1928025" lon="12.2023327"><ele>493.66666666666663</ele><time>2026-04-04T16:45:21.041Z</time></trkpt><trkpt lat="43.1927818" lon="12.2022186"><ele>491.0</ele><time>2026-04-04T16:45:22.041Z</time></trkpt><trkpt lat="43.1927587" lon="12.202101"><ele>490.8333333333333</ele><time>2026-04-04T16:45:23.035Z</time></trkpt><trkpt lat="43.1927373" lon="12.2019882"><ele>490.66666666666663</ele><time>2026-04-04T16:45:24.044Z</time></trkpt><trkpt lat="43.1927137" lon="12.2018735"><ele>490.5</ele><time>2026-04-04T16:45:25.04Z</time></trkpt><trkpt lat="43.1926886" lon="12.2017555"><ele>490.33333333333337</ele><time>2026-04-04T16:45:26.047Z</time></trkpt><trkpt lat="43.192663" lon="12.2016375"><ele>490.1666666666667</ele><time>2026-04-04T16:45:27.044Z</time></trkpt><trkpt lat="43.1926331" lon="12.2015261"><ele>490.0</ele><time>2026-04-04T16:45:28.045Z</time></trkpt><trkpt lat="43.1926017" lon="12.2014046"><ele>490.0</ele><time>2026-04-04T16:45:29.042Z</time></trkpt><trkpt lat="43.1925632" lon="12.2012815"><ele>490.0</ele><time>2026-04-04T16:45:30.047Z</time></trkpt><trkpt lat="43.1925305" lon="12.201164"><ele>490.0</ele><time>2026-04-04T16:45:31.038Z</time></trkpt><trkpt lat="43.1924889" lon="12.2010511"><ele>490.0</ele><time>2026-04-04T16:45:32.048Z</time></trkpt><trkpt lat="43.1924479" lon="12.2009404"><ele>490.0</ele><time>2026-04-04T16:45:33.038Z</time></trkpt><trkpt lat="43.1923973" lon="12.2008268"><ele>489.0</ele><time>2026-04-04T16:45:34.043Z</time></trkpt><trkpt lat="43.1923378" lon="12.2007227"><ele>488.0</ele><time>2026-04-04T16:45:35.047Z</time></trkpt><trkpt lat="43.1922811" lon="12.2006203"><ele>487.0</ele><time>2026-04-04T16:45:36.044Z</time></trkpt><trkpt lat="43.1922144" lon="12.2005194"><ele>486.0</ele><time>2026-04-04T16:45:37.043Z</time></trkpt><trkpt lat="43.1921552" lon="12.200416"><ele>485.0</ele><time>2026-04-04T16:45:38.045Z</time></trkpt><trkpt lat="43.1920866" lon="12.2003184"><ele>484.99999999999994</ele><time>2026-04-04T16:45:39.044Z</time></trkpt><trkpt lat="43.1920209" lon="12.2002284"><ele>485.0</ele><time>2026-04-04T16:45:40.038Z</time></trkpt><trkpt lat="43.1919612" lon="12.2001487"><ele>485.0</ele><time>2026-04-04T16:45:41.039Z</time></trkpt><trkpt lat="43.191902" lon="12.2000655"><ele>485.0</ele><time>2026-04-04T16:45:42.042Z</time></trkpt><trkpt lat="43.1918422" lon="12.1999899"><ele>484.99999999999994</ele><time>2026-04-04T16:45:43.04Z</time></trkpt><trkpt lat="43.1917801" lon="12.1999216"><ele>485.0</ele><time>2026-04-04T16:45:44.043Z</time></trkpt><trkpt lat="43.1917224" lon="12.1998608"><ele>485.6</ele><time>2026-04-04T16:45:45.036Z</time></trkpt><trkpt lat="43.191654" lon="12.1997999"><ele>486.2</ele><time>2026-04-04T16:45:46.041Z</time></trkpt><trkpt lat="43.1915789" lon="12.1997405"><ele>486.79999999999995</ele><time>2026-04-04T16:45:47.041Z</time></trkpt><trkpt lat="43.1914906" lon="12.1996705"><ele>487.4</ele><time>2026-04-04T16:45:48.038Z</time></trkpt><trkpt lat="43.1913975" lon="12.1996025"><ele>488.0</ele><time>2026-04-04T16:45:49.06Z</time></trkpt><trkpt lat="43.1913026" lon="12.1995412"><ele>488.0</ele><time>2026-04-04T16:45:50.046Z</time></trkpt><trkpt lat="43.1911972" lon="12.1994939"><ele>488.0</ele><time>2026-04-04T16:45:51.036Z</time></trkpt><trkpt lat="43.1910817" lon="12.1994441"><ele>488.0</ele><time>2026-04-04T16:45:52.039Z</time></trkpt><trkpt lat="43.1909636" lon="12.1994079"><ele>488.0</ele><time>2026-04-04T16:45:53.044Z</time></trkpt><trkpt lat="43.1908434" lon="12.1993706"><ele>488.0</ele><time>2026-04-04T16:45:54.034Z</time></trkpt><trkpt lat="43.19072" lon="12.1993338"><ele>488.0</ele><time>2026-04-04T16:45:55.034Z</time></trkpt><trkpt lat="43.1906003" lon="12.1992882"><ele>488.0</ele><time>2026-04-04T16:45:56.033Z</time></trkpt><trkpt lat="43.1904738" lon="12.199236"><ele>488.0</ele><time>2026-04-04T16:45:57.039Z</time></trkpt><trkpt lat="43.1903453" lon="12.1991793"><ele>489.5</ele><time>2026-04-04T16:45:58.039Z</time></trkpt><trkpt lat="43.1902162" lon="12.1991168"><ele>491.0</ele><time>2026-04-04T16:45:59.047Z</time></trkpt><trkpt lat="43.1900829" lon="12.1990572"><ele>492.5</ele><time>2026-04-04T16:46:00.052Z</time></trkpt><trkpt lat="43.1899475" lon="12.1989771"><ele>494.0</ele><time>2026-04-04T16:46:01.041Z</time></trkpt><trkpt lat="43.189817" lon="12.1988764"><ele>490.5</ele><time>2026-04-04T16:46:02.045Z</time></trkpt><trkpt lat="43.1896976" lon="12.1987538"><ele>487.0</ele><time>2026-04-04T16:46:03.043Z</time></trkpt><trkpt lat="43.1895744" lon="12.1986381"><ele>483.5</ele><time>2026-04-04T16:46:04.037Z</time></trkpt><trkpt lat="43.1894527" lon="12.198522"><ele>480.0</ele><time>2026-04-04T16:46:05.04Z</time></trkpt><trkpt lat="43.189326" lon="12.198412"><ele>480.0</ele><time>2026-04-04T16:46:06.042Z</time></trkpt><trkpt lat="43.1891824" lon="12.1983183"><ele>480.0</ele><time>2026-04-04T16:46:07.033Z</time></trkpt><trkpt lat="43.1890288" lon="12.1982338"><ele>480.0</ele><time>2026-04-04T16:46:08.033Z</time></trkpt><trkpt lat="43.1888845" lon="12.1981421"><ele>479.66666666666663</ele><time>2026-04-04T16:46:09.035Z</time></trkpt><trkpt lat="43.1887432" lon="12.1980515"><ele>479.3333333333333</ele><time>2026-04-04T16:46:10.038Z</time></trkpt><trkpt lat="43.1886035" lon="12.1979702"><ele>479.0</ele><time>2026-04-04T16:46:11.041Z</time></trkpt><trkpt lat="43.1884619" lon="12.1978824"><ele>479.0</ele><time>2026-04-04T16:46:12.042Z</time></trkpt><trkpt lat="43.1883186" lon="12.197815"><ele>479.0</ele><time>2026-04-04T16:46:13.038Z</time></trkpt><trkpt lat="43.188187" lon="12.1977424"><ele>479.0</ele><time>2026-04-04T16:46:14.038Z</time></trkpt><trkpt lat="43.1880645" lon="12.1976609"><ele>479.0</ele><time>2026-04-04T16:46:15.039Z</time></trkpt><trkpt lat="43.187943" lon="12.1975788"><ele>476.0</ele><time>2026-04-04T16:46:16.036Z</time></trkpt><trkpt lat="43.1878274" lon="12.1975052"><ele>473.0</ele><time>2026-04-04T16:46:17.037Z</time></trkpt><trkpt lat="43.1877175" lon="12.1974362"><ele>470.0</ele><time>2026-04-04T16:46:18.054Z</time></trkpt><trkpt lat="43.1876149" lon="12.1973659"><ele>467.0</ele><time>2026-04-04T16:46:19.056Z</time></trkpt><trkpt lat="43.1875204" lon="12.1973015"><ele>467.0</ele><time>2026-04-04T16:46:20.049Z</time></trkpt><trkpt lat="43.1874408" lon="12.1972214"><ele>467.00000000000006</ele><time>2026-04-04T16:46:21.036Z</time></trkpt><trkpt lat="43.1873769" lon="12.1971232"><ele>467.00000000000006</ele><time>2026-04-04T16:46:22.028Z</time></trkpt><trkpt lat="43.1873249" lon="12.1969987"><ele>467.0</ele><time>2026-04-04T16:46:23.033Z</time></trkpt><trkpt lat="43.1872988" lon="12.1968535"><ele>467.0</ele><time>2026-04-04T16:46:24.038Z</time></trkpt><trkpt lat="43.1873178" lon="12.1966866"><ele>467.0</ele><time>2026-04-04T16:46:25.038Z</time></trkpt><trkpt lat="43.1873588" lon="12.1965052"><ele>467.0</ele><time>2026-04-04T16:46:26.04Z</time></trkpt><trkpt lat="43.1874237" lon="12.1963305"><ele>467.0</ele><time>2026-04-04T16:46:27.035Z</time></trkpt><trkpt lat="43.1874924" lon="12.1961536"><ele>467.0</ele><time>2026-04-04T16:46:28.037Z</time></trkpt><trkpt lat="43.1875635" lon="12.1959785"><ele>464.75</ele><time>2026-04-04T16:46:29.037Z</time></trkpt><trkpt lat="43.1876224" lon="12.1958094"><ele>462.5</ele><time>2026-04-04T16:46:30.041Z</time></trkpt><trkpt lat="43.1876783" lon="12.1956509"><ele>460.25</ele><time>2026-04-04T16:46:31.034Z</time></trkpt><trkpt lat="43.1877242" lon="12.1954992"><ele>458.0</ele><time>2026-04-04T16:46:32.032Z</time></trkpt><trkpt lat="43.1877338" lon="12.1953282"><ele>457.25</ele><time>2026-04-04T16:46:33.036Z</time></trkpt><trkpt lat="43.1877269" lon="12.1951484"><ele>456.5</ele><time>2026-04-04T16:46:34.029Z</time></trkpt><trkpt lat="43.1877006" lon="12.1949561"><ele>455.75</ele><time>2026-04-04T16:46:35.032Z</time></trkpt><trkpt lat="43.1876703" lon="12.1947653"><ele>455.0</ele><time>2026-04-04T16:46:36.035Z</time></trkpt><trkpt lat="43.1876327" lon="12.1945678"><ele>455.0</ele><time>2026-04-04T16:46:37.036Z</time></trkpt><trkpt lat="43.1875681" lon="12.1943826"><ele>455.0</ele><time>2026-04-04T16:46:38.028Z</time></trkpt><trkpt lat="43.1874993" lon="12.1942182"><ele>455.0</ele><time>2026-04-04T16:46:39.03Z</time></trkpt><trkpt lat="43.1874244" lon="12.1940768"><ele>455.0</ele><time>2026-04-04T16:46:40.032Z</time></trkpt><trkpt lat="43.1873322" lon="12.1939725"><ele>455.0</ele><time>2026-04-04T16:46:41.041Z</time></trkpt><trkpt lat="43.1872108" lon="12.1939424"><ele>455.0</ele><time>2026-04-04T16:46:42.025Z</time></trkpt><trkpt lat="43.1870837" lon="12.1939388"><ele>455.0</ele><time>2026-04-04T16:46:43.036Z</time></trkpt><trkpt lat="43.1869489" lon="12.1939683"><ele>455.0</ele><time>2026-04-04T16:46:44.033Z</time></trkpt><trkpt lat="43.18682" lon="12.1940084"><ele>451.75</ele><time>2026-04-04T16:46:45.032Z</time></trkpt><trkpt lat="43.1866896" lon="12.1940295"><ele>448.5</ele><time>2026-04-04T16:46:46.041Z</time></trkpt><trkpt lat="43.1865514" lon="12.1940139"><ele>445.25</ele><time>2026-04-04T16:46:47.035Z</time></trkpt><trkpt lat="43.1864013" lon="12.1939668"><ele>442.0</ele><time>2026-04-04T16:46:48.037Z</time></trkpt><trkpt lat="43.186245" lon="12.1939007"><ele>442.0</ele><time>2026-04-04T16:46:49.035Z</time></trkpt><trkpt lat="43.1860785" lon="12.1938307"><ele>442.0</ele><time>2026-04-04T16:46:50.035Z</time></trkpt><trkpt lat="43.1859156" lon="12.1937575"><ele>442.0</ele><time>2026-04-04T16:46:51.041Z</time></trkpt><trkpt lat="43.1857511" lon="12.1936909"><ele>436.0</ele><time>2026-04-04T16:46:52.042Z</time></trkpt><trkpt lat="43.1855933" lon="12.1936276"><ele>430.0</ele><time>2026-04-04T16:46:53.035Z</time></trkpt><trkpt lat="43.1854454" lon="12.1935735"><ele>424.0</ele><time>2026-04-04T16:46:54.033Z</time></trkpt><trkpt lat="43.1853052" lon="12.1935263"><ele>424.0</ele><time>2026-04-04T16:46:55.046Z</time></trkpt><trkpt lat="43.1851767" lon="12.1934788"><ele>424.0</ele><time>2026-04-04T16:46:56.054Z</time></trkpt><trkpt lat="43.1850679" lon="12.1934249"><ele>424.0</ele><time>2026-04-04T16:46:57.026Z</time></trkpt><trkpt lat="43.1849681" lon="12.1933329"><ele>424.0</ele><time>2026-04-04T16:46:58.042Z</time></trkpt><trkpt lat="43.1848758" lon="12.1932127"><ele>420.25</ele><time>2026-04-04T16:46:59.039Z</time></trkpt><trkpt lat="43.1848129" lon="12.1930482"><ele>416.5</ele><time>2026-04-04T16:47:00.046Z</time></trkpt><trkpt lat="43.1847442" lon="12.1928582"><ele>412.75</ele><time>2026-04-04T16:47:01.032Z</time></trkpt><trkpt lat="43.1846765" lon="12.1926757"><ele>409.0</ele><time>2026-04-04T16:47:02.039Z</time></trkpt><trkpt lat="43.1846137" lon="12.1925095"><ele>409.0</ele><time>2026-04-04T16:47:03.039Z</time></trkpt><trkpt lat="43.1845713" lon="12.1923473"><ele>409.0</ele><time>2026-04-04T16:47:04.041Z</time></trkpt><trkpt lat="43.1845528" lon="12.1921579"><ele>409.0</ele><time>2026-04-04T16:47:05.042Z</time></trkpt><trkpt lat="43.1845752" lon="12.1919656"><ele>409.0</ele><time>2026-04-04T16:47:06.039Z</time></trkpt><trkpt lat="43.1846225" lon="12.1917719"><ele>409.25</ele><time>2026-04-04T16:47:07.043Z</time></trkpt><trkpt lat="43.1846729" lon="12.1915995"><ele>409.5</ele><time>2026-04-04T16:47:08.023Z</time></trkpt><trkpt lat="43.1847114" lon="12.1914359"><ele>409.75</ele><time>2026-04-04T16:47:09.031Z</time></trkpt><trkpt lat="43.1847305" lon="12.1912849"><ele>410.0</ele><time>2026-04-04T16:47:10.042Z</time></trkpt><trkpt lat="43.1847158" lon="12.1911488"><ele>410.66666666666663</ele><time>2026-04-04T16:47:11.042Z</time></trkpt><trkpt lat="43.1846733" lon="12.1910439"><ele>411.3333333333333</ele><time>2026-04-04T16:47:12.035Z</time></trkpt><trkpt lat="43.1845999" lon="12.1909909"><ele>412.0</ele><time>2026-04-04T16:47:13.045Z</time></trkpt><trkpt lat="43.1845191" lon="12.1909856"><ele>412.66666666666663</ele><time>2026-04-04T16:47:14.037Z</time></trkpt><trkpt lat="43.1844316" lon="12.1910203"><ele>413.3333333333333</ele><time>2026-04-04T16:47:15.045Z</time></trkpt><trkpt lat="43.1843344" lon="12.1910697"><ele>414.0</ele><time>2026-04-04T16:47:16.036Z</time></trkpt><trkpt lat="43.1842314" lon="12.1911666"><ele>414.0</ele><time>2026-04-04T16:47:17.034Z</time></trkpt><trkpt lat="43.1841274" lon="12.1912858"><ele>414.0</ele><time>2026-04-04T16:47:18.04Z</time></trkpt><trkpt lat="43.1840203" lon="12.1914079"><ele>414.0</ele><time>2026-04-04T16:47:19.038Z</time></trkpt><trkpt lat="43.1839256" lon="12.1915376"><ele>414.0</ele><time>2026-04-04T16:47:20.047Z</time></trkpt><trkpt lat="43.1838339" lon="12.1917071"><ele>410.0</ele><time>2026-04-04T16:47:21.047Z</time></trkpt><trkpt lat="43.1837549" lon="12.1919053"><ele>406.0</ele><time>2026-04-04T16:47:22.051Z</time></trkpt><trkpt lat="43.183697" lon="12.192107"><ele>402.0</ele><time>2026-04-04T16:47:23.044Z</time></trkpt><trkpt lat="43.1836542" lon="12.1922985"><ele>401.5</ele><time>2026-04-04T16:47:24.037Z</time></trkpt><trkpt lat="43.1836006" lon="12.1924611"><ele>401.0</ele><time>2026-04-04T16:47:25.04Z</time></trkpt><trkpt lat="43.1835348" lon="12.1925938"><ele>400.5</ele><time>2026-04-04T16:47:26.039Z</time></trkpt><trkpt lat="43.1834471" lon="12.1927094"><ele>400.0</ele><time>2026-04-04T16:47:27.045Z</time></trkpt><trkpt lat="43.183347" lon="12.1927986"><ele>400.0</ele><time>2026-04-04T16:47:28.048Z</time></trkpt><trkpt lat="43.1832413" lon="12.1928585"><ele>400.0</ele><time>2026-04-04T16:47:29.046Z</time></trkpt><trkpt lat="43.1831472" lon="12.1928576"><ele>400.0</ele><time>2026-04-04T16:47:30.041Z</time></trkpt><trkpt lat="43.1830529" lon="12.1927986"><ele>400.0</ele><time>2026-04-04T16:47:31.036Z</time></trkpt><trkpt lat="43.1829715" lon="12.1926938"><ele>400.0</ele><time>2026-04-04T16:47:32.033Z</time></trkpt><trkpt lat="43.1829052" lon="12.1925346"><ele>397.5</ele><time>2026-04-04T16:47:33.041Z</time></trkpt><trkpt lat="43.1828511" lon="12.1923493"><ele>395.0</ele><time>2026-04-04T16:47:34.036Z</time></trkpt><trkpt lat="43.1827992" lon="12.1921739"><ele>392.5</ele><time>2026-04-04T16:47:35.04Z</time></trkpt><trkpt lat="43.1827448" lon="12.1920054"><ele>390.0</ele><time>2026-04-04T16:47:36.038Z</time></trkpt><trkpt lat="43.1826983" lon="12.1918426"><ele>389.0</ele><time>2026-04-04T16:47:37.043Z</time></trkpt><trkpt lat="43.1826755" lon="12.1916763"><ele>388.0</ele><time>2026-04-04T16:47:38.035Z</time></trkpt><trkpt lat="43.1826846" lon="12.1915073"><ele>387.0</ele><time>2026-04-04T16:47:39.036Z</time></trkpt><trkpt lat="43.1827176" lon="12.191358"><ele>386.0</ele><time>2026-04-04T16:47:40.031Z</time></trkpt><trkpt lat="43.1827785" lon="12.1912436"><ele>384.0</ele><time>2026-04-04T16:47:41.046Z</time></trkpt><trkpt lat="43.1828666" lon="12.1911659"><ele>382.0</ele><time>2026-04-04T16:47:42.03Z</time></trkpt><trkpt lat="43.182966" lon="12.1911184"><ele>380.0</ele><time>2026-04-04T16:47:43.037Z</time></trkpt><trkpt lat="43.1830591" lon="12.191066"><ele>378.0</ele><time>2026-04-04T16:47:44.04Z</time></trkpt><trkpt lat="43.1831176" lon="12.1910084"><ele>376.0</ele><time>2026-04-04T16:47:45.038Z</time></trkpt><trkpt lat="43.1831574" lon="12.1909189"><ele>376.0</ele><time>2026-04-04T16:47:46.04Z</time></trkpt><trkpt lat="43.1831452" lon="12.190824"><ele>376.0</ele><time>2026-04-04T16:47:47.036Z</time></trkpt><trkpt lat="43.1830699" lon="12.1907638"><ele>376.0</ele><time>2026-04-04T16:47:48.034Z</time></trkpt><trkpt lat="43.1829922" lon="12.1907538"><ele>376.0</ele><time>2026-04-04T16:47:49.041Z</time></trkpt><trkpt lat="43.1828958" lon="12.1908151"><ele>376.0</ele><time>2026-04-04T16:47:50.04Z</time></trkpt><trkpt lat="43.182785" lon="12.1909101"><ele>376.0</ele><time>2026-04-04T16:47:51.037Z</time></trkpt><trkpt lat="43.1826802" lon="12.1910244"><ele>376.0</ele><time>2026-04-04T16:47:52.053Z</time></trkpt><trkpt lat="43.1826058" lon="12.1911514"><ele>376.0</ele><time>2026-04-04T16:47:53.042Z</time></trkpt><trkpt lat="43.1825689" lon="12.1912809"><ele>376.0</ele><time>2026-04-04T16:47:54.037Z</time></trkpt><trkpt lat="43.1825325" lon="12.1913722"><ele>376.0</ele><time>2026-04-04T16:47:55.044Z</time></trkpt><trkpt lat="43.1824716" lon="12.191414"><ele>376.0</ele><time>2026-04-04T16:47:56.045Z</time></trkpt><trkpt lat="43.1823697" lon="12.1912971"><ele>376.0</ele><time>2026-04-04T16:47:58.043Z</time></trkpt><trkpt lat="43.1823781" lon="12.1911867"><ele>376.0</ele><time>2026-04-04T16:47:59.036Z</time></trkpt><trkpt lat="43.1824365" lon="12.191051"><ele>376.0</ele><time>2026-04-04T16:48:00.041Z</time></trkpt><trkpt lat="43.1825244" lon="12.1909289"><ele>376.0</ele><time>2026-04-04T16:48:01.048Z</time></trkpt><trkpt lat="43.182622" lon="12.1908051"><ele>376.0</ele><time>2026-04-04T16:48:02.039Z</time></trkpt><trkpt lat="43.1827097" lon="12.1906641"><ele>376.0</ele><time>2026-04-04T16:48:03.037Z</time></trkpt><trkpt lat="43.1827759" lon="12.1905171"><ele>376.0</ele><time>2026-04-04T16:48:04.039Z</time></trkpt><trkpt lat="43.1828122" lon="12.1903573"><ele>373.25</ele><time>2026-04-04T16:48:05.036Z</time></trkpt><trkpt lat="43.1827957" lon="12.1901838"><ele>370.5</ele><time>2026-04-04T16:48:06.032Z</time></trkpt><trkpt lat="43.1827463" lon="12.1900029"><ele>367.75</ele><time>2026-04-04T16:48:07.026Z</time></trkpt><trkpt lat="43.1826893" lon="12.1898377"><ele>365.0</ele><time>2026-04-04T16:48:08.034Z</time></trkpt><trkpt lat="43.1826538" lon="12.1896874"><ele>363.0</ele><time>2026-04-04T16:48:09.027Z</time></trkpt><trkpt lat="43.1826392" lon="12.1895342"><ele>361.0</ele><time>2026-04-04T16:48:10.036Z</time></trkpt><trkpt lat="43.1826569" lon="12.1893691"><ele>359.0</ele><time>2026-04-04T16:48:11.043Z</time></trkpt><trkpt lat="43.1827149" lon="12.1891947"><ele>357.0</ele><time>2026-04-04T16:48:12.044Z</time></trkpt><trkpt lat="43.182799" lon="12.18904"><ele>354.5</ele><time>2026-04-04T16:48:13.041Z</time></trkpt><trkpt lat="43.1828898" lon="12.188904"><ele>352.0</ele><time>2026-04-04T16:48:14.029Z</time></trkpt><trkpt lat="43.1829836" lon="12.1887955"><ele>349.5</ele><time>2026-04-04T16:48:15.033Z</time></trkpt><trkpt lat="43.183059" lon="12.1886979"><ele>347.0</ele><time>2026-04-04T16:48:16.032Z</time></trkpt><trkpt lat="43.1831052" lon="12.1885739"><ele>347.0</ele><time>2026-04-04T16:48:17.03Z</time></trkpt><trkpt lat="43.183103" lon="12.188426"><ele>347.0</ele><time>2026-04-04T16:48:18.034Z</time></trkpt><trkpt lat="43.1830401" lon="12.1882764"><ele>347.0</ele><time>2026-04-04T16:48:19.027Z</time></trkpt><trkpt lat="43.1829417" lon="12.188135"><ele>347.0</ele><time>2026-04-04T16:48:20.033Z</time></trkpt><trkpt lat="43.1828434" lon="12.1880055"><ele>347.0</ele><time>2026-04-04T16:48:21.029Z</time></trkpt><trkpt lat="43.1827606" lon="12.1878756"><ele>347.0</ele><time>2026-04-04T16:48:22.036Z</time></trkpt><trkpt lat="43.1827101" lon="12.1877485"><ele>347.0</ele><time>2026-04-04T16:48:23.03Z</time></trkpt><trkpt lat="43.1826936" lon="12.1876188"><ele>347.0</ele><time>2026-04-04T16:48:24.032Z</time></trkpt><trkpt lat="43.182726" lon="12.1874916"><ele>347.0</ele><time>2026-04-04T16:48:25.039Z</time></trkpt><trkpt lat="43.1827852" lon="12.187362"><ele>347.25</ele><time>2026-04-04T16:48:26.023Z</time></trkpt><trkpt lat="43.1828873" lon="12.1872621"><ele>347.5</ele><time>2026-04-04T16:48:27.036Z</time></trkpt><trkpt lat="43.1830177" lon="12.1871939"><ele>347.75</ele><time>2026-04-04T16:48:28.031Z</time></trkpt><trkpt lat="43.1831573" lon="12.1871249"><ele>348.0</ele><time>2026-04-04T16:48:29.036Z</time></trkpt><trkpt lat="43.1833047" lon="12.1870663"><ele>348.0</ele><time>2026-04-04T16:48:30.031Z</time></trkpt><trkpt lat="43.1834361" lon="12.1870314"><ele>348.0</ele><time>2026-04-04T16:48:31.029Z</time></trkpt><trkpt lat="43.1835366" lon="12.1870202"><ele>348.0</ele><time>2026-04-04T16:48:32.03Z</time></trkpt><trkpt lat="43.1836218" lon="12.1869844"><ele>348.0</ele><time>2026-04-04T16:48:33.03Z</time></trkpt><trkpt lat="43.1836819" lon="12.1868947"><ele>348.0</ele><time>2026-04-04T16:48:34.033Z</time></trkpt><trkpt lat="43.183722" lon="12.1867713"><ele>348.0</ele><time>2026-04-04T16:48:35.027Z</time></trkpt><trkpt lat="43.1837143" lon="12.1866364"><ele>348.0</ele><time>2026-04-04T16:48:36.025Z</time></trkpt><trkpt lat="43.183688" lon="12.1864999"><ele>348.0</ele><time>2026-04-04T16:48:37.041Z</time></trkpt><trkpt lat="43.1835952" lon="12.186393"><ele>348.0</ele><time>2026-04-04T16:48:38.03Z</time></trkpt><trkpt lat="43.1835003" lon="12.1862721"><ele>346.4</ele><time>2026-04-04T16:48:39.027Z</time></trkpt><trkpt lat="43.1834254" lon="12.1861499"><ele>344.79999999999995</ele><time>2026-04-04T16:48:40.036Z</time></trkpt><trkpt lat="43.1833773" lon="12.1860052"><ele>343.2</ele><time>2026-04-04T16:48:41.027Z</time></trkpt><trkpt lat="43.1833591" lon="12.1858587"><ele>341.6</ele><time>2026-04-04T16:48:42.033Z</time></trkpt><trkpt lat="43.183377" lon="12.185731"><ele>340.0</ele><time>2026-04-04T16:48:43.03Z</time></trkpt><trkpt lat="43.1834161" lon="12.1856047"><ele>337.5</ele><time>2026-04-04T16:48:44.028Z</time></trkpt><trkpt lat="43.1834691" lon="12.185506"><ele>335.0</ele><time>2026-04-04T16:48:45.035Z</time></trkpt><trkpt lat="43.1835729" lon="12.18542"><ele>332.5</ele><time>2026-04-04T16:48:46.032Z</time></trkpt><trkpt lat="43.1836935" lon="12.1853473"><ele>330.0</ele><time>2026-04-04T16:48:47.029Z</time></trkpt><trkpt lat="43.1837988" lon="12.1852728"><ele>330.0</ele><time>2026-04-04T16:48:48.028Z</time></trkpt><trkpt lat="43.1838583" lon="12.1851765"><ele>330.0</ele><time>2026-04-04T16:48:49.032Z</time></trkpt><trkpt lat="43.1838701" lon="12.1850487"><ele>330.0</ele><time>2026-04-04T16:48:50.03Z</time></trkpt><trkpt lat="43.1838244" lon="12.1849114"><ele>330.0</ele><time>2026-04-04T16:48:51.029Z</time></trkpt><trkpt lat="43.1837335" lon="12.1847924"><ele>330.0</ele><time>2026-04-04T16:48:52.036Z</time></trkpt><trkpt lat="43.1835973" lon="12.1846692"><ele>332.3333333333333</ele><time>2026-04-04T16:48:53.024Z</time></trkpt><trkpt lat="43.1834602" lon="12.1845239"><ele>334.66666666666663</ele><time>2026-04-04T16:48:54.029Z</time></trkpt><trkpt lat="43.1833055" lon="12.1843777"><ele>337.0</ele><time>2026-04-04T16:48:55.023Z</time></trkpt><trkpt lat="43.1831498" lon="12.184237"><ele>331.66666666666663</ele><time>2026-04-04T16:48:56.029Z</time></trkpt><trkpt lat="43.1830077" lon="12.1841126"><ele>326.3333333333333</ele><time>2026-04-04T16:48:57.035Z</time></trkpt><trkpt lat="43.1828848" lon="12.1839855"><ele>321.0</ele><time>2026-04-04T16:48:58.034Z</time></trkpt><trkpt lat="43.1827873" lon="12.1838589"><ele>321.0</ele><time>2026-04-04T16:48:59.023Z</time></trkpt><trkpt lat="43.1827049" lon="12.1837259"><ele>321.0</ele><time>2026-04-04T16:49:00.039Z</time></trkpt><trkpt lat="43.1826511" lon="12.1835716"><ele>321.0</ele><time>2026-04-04T16:49:01.034Z</time></trkpt><trkpt lat="43.182636" lon="12.1834024"><ele>321.0</ele><time>2026-04-04T16:49:02.023Z</time></trkpt><trkpt lat="43.1826639" lon="12.183252"><ele>319.3333333333333</ele><time>2026-04-04T16:49:03.031Z</time></trkpt><trkpt lat="43.1826987" lon="12.1831264"><ele>317.6666666666667</ele><time>2026-04-04T16:49:04.038Z</time></trkpt><trkpt lat="43.1827021" lon="12.1830202"><ele>316.0</ele><time>2026-04-04T16:49:05.033Z</time></trkpt><trkpt lat="43.1826576" lon="12.1829198"><ele>314.33333333333337</ele><time>2026-04-04T16:49:06.046Z</time></trkpt><trkpt lat="43.1825876" lon="12.1828771"><ele>312.6666666666667</ele><time>2026-04-04T16:49:07.042Z</time></trkpt><trkpt lat="43.1825107" lon="12.1829202"><ele>311.0</ele><time>2026-04-04T16:49:08.042Z</time></trkpt><trkpt lat="43.182446" lon="12.1830158"><ele>311.0</ele><time>2026-04-04T16:49:09.045Z</time></trkpt><trkpt lat="43.1824051" lon="12.18316"><ele>311.0</ele><time>2026-04-04T16:49:10.031Z</time></trkpt><trkpt lat="43.1823888" lon="12.1833071"><ele>311.0</ele><time>2026-04-04T16:49:11.046Z</time></trkpt><trkpt lat="43.1823884" lon="12.1834754"><ele>311.0</ele><time>2026-04-04T16:49:12.035Z</time></trkpt><trkpt lat="43.1824237" lon="12.1836572"><ele>311.6666666666667</ele><time>2026-04-04T16:49:13.033Z</time></trkpt><trkpt lat="43.1824857" lon="12.1838399"><ele>312.3333333333333</ele><time>2026-04-04T16:49:14.045Z</time></trkpt><trkpt lat="43.1825679" lon="12.1840247"><ele>313.0</ele><time>2026-04-04T16:49:15.049Z</time></trkpt><trkpt lat="43.1826596" lon="12.1842132"><ele>313.0</ele><time>2026-04-04T16:49:16.039Z</time></trkpt><trkpt lat="43.1827554" lon="12.1843876"><ele>313.0</ele><time>2026-04-04T16:49:17.049Z</time></trkpt><trkpt lat="43.1828433" lon="12.1845101"><ele>313.0</ele><time>2026-04-04T16:49:18.036Z</time></trkpt><trkpt lat="43.1829145" lon="12.1845959"><ele>313.0</ele><time>2026-04-04T16:49:19.028Z</time></trkpt><trkpt lat="43.1829561" lon="12.184684"><ele>313.0</ele><time>2026-04-04T16:49:20.03Z</time></trkpt><trkpt lat="43.1829534" lon="12.1847912"><ele>313.0</ele><time>2026-04-04T16:49:21.035Z</time></trkpt><trkpt lat="43.1829114" lon="12.1848895"><ele>313.0</ele><time>2026-04-04T16:49:22.032Z</time></trkpt><trkpt lat="43.1828291" lon="12.1849439"><ele>313.0</ele><time>2026-04-04T16:49:23.027Z</time></trkpt><trkpt lat="43.1827448" lon="12.1849197"><ele>313.0</ele><time>2026-04-04T16:49:24.029Z</time></trkpt><trkpt lat="43.1826714" lon="12.1848458"><ele>313.0</ele><time>2026-04-04T16:49:25.037Z</time></trkpt><trkpt lat="43.1825923" lon="12.1847251"><ele>313.0</ele><time>2026-04-04T16:49:26.03Z</time></trkpt><trkpt lat="43.1824784" lon="12.1845809"><ele>313.0</ele><time>2026-04-04T16:49:27.033Z</time></trkpt><trkpt lat="43.1823581" lon="12.1843949"><ele>313.0</ele><time>2026-04-04T16:49:28.035Z</time></trkpt><trkpt lat="43.1822201" lon="12.1841986"><ele>308.3333333333333</ele><time>2026-04-04T16:49:29.038Z</time></trkpt><trkpt lat="43.1820856" lon="12.1840077"><ele>303.6666666666667</ele><time>2026-04-04T16:49:30.037Z</time></trkpt><trkpt lat="43.1819656" lon="12.1838027"><ele>299.0</ele><time>2026-04-04T16:49:31.033Z</time></trkpt><trkpt lat="43.1818715" lon="12.1835838"><ele>299.0</ele><time>2026-04-04T16:49:32.034Z</time></trkpt><trkpt lat="43.1817972" lon="12.1833617"><ele>299.0</ele><time>2026-04-04T16:49:33.033Z</time></trkpt><trkpt lat="43.1817266" lon="12.1831649"><ele>299.0</ele><time>2026-04-04T16:49:34.039Z</time></trkpt><trkpt lat="43.1816638" lon="12.1829993"><ele>298.0</ele><time>2026-04-04T16:49:35.032Z</time></trkpt><trkpt lat="43.181631" lon="12.1828274"><ele>297.0</ele><time>2026-04-04T16:49:36.047Z</time></trkpt><trkpt lat="43.1816259" lon="12.1826571"><ele>296.0</ele><time>2026-04-04T16:49:37.032Z</time></trkpt><trkpt lat="43.181642" lon="12.1824834"><ele>295.0</ele><time>2026-04-04T16:49:38.036Z</time></trkpt><trkpt lat="43.1816852" lon="12.1823253"><ele>292.75</ele><time>2026-04-04T16:49:39.043Z</time></trkpt><trkpt lat="43.1817561" lon="12.182191"><ele>290.5</ele><time>2026-04-04T16:49:40.045Z</time></trkpt><trkpt lat="43.1818599" lon="12.1820734"><ele>288.25</ele><time>2026-04-04T16:49:41.04Z</time></trkpt><trkpt lat="43.1819751" lon="12.1819805"><ele>286.0</ele><time>2026-04-04T16:49:42.033Z</time></trkpt><trkpt lat="43.1820673" lon="12.1818554"><ele>286.0</ele><time>2026-04-04T16:49:43.03Z</time></trkpt><trkpt lat="43.1821265" lon="12.1817017"><ele>286.0</ele><time>2026-04-04T16:49:44.038Z</time></trkpt><trkpt lat="43.1821597" lon="12.1815284"><ele>286.0</ele><time>2026-04-04T16:49:45.039Z</time></trkpt><trkpt lat="43.1821779" lon="12.1813554"><ele>286.0</ele><time>2026-04-04T16:49:46.038Z</time></trkpt><trkpt lat="43.1821802" lon="12.1811805"><ele>284.8</ele><time>2026-04-04T16:49:47.026Z</time></trkpt><trkpt lat="43.182168" lon="12.1810218"><ele>283.6</ele><time>2026-04-04T16:49:48.032Z</time></trkpt><trkpt lat="43.1821424" lon="12.1808965"><ele>282.4</ele><time>2026-04-04T16:49:49.036Z</time></trkpt><trkpt lat="43.1820895" lon="12.1808004"><ele>281.2</ele><time>2026-04-04T16:49:50.045Z</time></trkpt><trkpt lat="43.1820072" lon="12.1807852"><ele>280.0</ele><time>2026-04-04T16:49:51.04Z</time></trkpt><trkpt lat="43.181917" lon="12.1808119"><ele>280.0</ele><time>2026-04-04T16:49:52.03Z</time></trkpt><trkpt lat="43.1818323" lon="12.1808891"><ele>280.0</ele><time>2026-04-04T16:49:53.037Z</time></trkpt><trkpt lat="43.1817566" lon="12.1809981"><ele>280.0</ele><time>2026-04-04T16:49:54.044Z</time></trkpt><trkpt lat="43.1816733" lon="12.1810947"><ele>280.0</ele><time>2026-04-04T16:49:55.037Z</time></trkpt><trkpt lat="43.1815759" lon="12.1811548"><ele>280.0</ele><time>2026-04-04T16:49:56.039Z</time></trkpt><trkpt lat="43.1814687" lon="12.1811743"><ele>278.2</ele><time>2026-04-04T16:49:57.038Z</time></trkpt><trkpt lat="43.181365" lon="12.181147"><ele>276.4</ele><time>2026-04-04T16:49:58.041Z</time></trkpt><trkpt lat="43.1812847" lon="12.1810699"><ele>274.6</ele><time>2026-04-04T16:49:59.036Z</time></trkpt><trkpt lat="43.1812384" lon="12.1809539"><ele>272.8</ele><time>2026-04-04T16:50:00.041Z</time></trkpt><trkpt lat="43.1812239" lon="12.1808058"><ele>271.0</ele><time>2026-04-04T16:50:01.039Z</time></trkpt><trkpt lat="43.1812316" lon="12.1806338"><ele>270.75</ele><time>2026-04-04T16:50:02.044Z</time></trkpt><trkpt lat="43.1812469" lon="12.1804573"><ele>270.5</ele><time>2026-04-04T16:50:03.038Z</time></trkpt><trkpt lat="43.181237" lon="12.1802841"><ele>270.25</ele><time>2026-04-04T16:50:04.034Z</time></trkpt><trkpt lat="43.1812125" lon="12.1801205"><ele>270.0</ele><time>2026-04-04T16:50:05.043Z</time></trkpt><trkpt lat="43.1811614" lon="12.1799727"><ele>269.5</ele><time>2026-04-04T16:50:06.033Z</time></trkpt><trkpt lat="43.1810881" lon="12.1798482"><ele>269.0</ele><time>2026-04-04T16:50:07.045Z</time></trkpt><trkpt lat="43.1809986" lon="12.1797386"><ele>268.5</ele><time>2026-04-04T16:50:08.042Z</time></trkpt><trkpt lat="43.1808976" lon="12.1796453"><ele>268.0</ele><time>2026-04-04T16:50:09.037Z</time></trkpt><trkpt lat="43.1807849" lon="12.1795874"><ele>267.0</ele><time>2026-04-04T16:50:10.032Z</time></trkpt><trkpt lat="43.1806692" lon="12.1795483"><ele>266.0</ele><time>2026-04-04T16:50:11.049Z</time></trkpt><trkpt lat="43.1805593" lon="12.179529"><ele>265.0</ele><time>2026-04-04T16:50:12.041Z</time></trkpt><trkpt lat="43.18046" lon="12.1795129"><ele>264.0</ele><time>2026-04-04T16:50:13.042Z</time></trkpt><trkpt lat="43.1803729" lon="12.179489"><ele>263.0</ele><time>2026-04-04T16:50:14.047Z</time></trkpt><trkpt lat="43.1803081" lon="12.1794637"><ele>263.0</ele><time>2026-04-04T16:50:15.035Z</time></trkpt><trkpt lat="43.180242" lon="12.1794444"><ele>263.0</ele><time>2026-04-04T16:50:17.038Z</time></trkpt><trkpt lat="43.1802156" lon="12.1793373"><ele>263.0</ele><time>2026-04-04T16:50:20.038Z</time></trkpt><trkpt lat="43.1802369" lon="12.179244"><ele>263.0</ele><time>2026-04-04T16:50:21.042Z</time></trkpt><trkpt lat="43.1802761" lon="12.1791348"><ele>263.0</ele><time>2026-04-04T16:50:22.034Z</time></trkpt><trkpt lat="43.1803224" lon="12.1790054"><ele>263.0</ele><time>2026-04-04T16:50:23.046Z</time></trkpt><trkpt lat="43.1803782" lon="12.1788631"><ele>262.25</ele><time>2026-04-04T16:50:24.048Z</time></trkpt><trkpt lat="43.1804382" lon="12.1787091"><ele>261.5</ele><time>2026-04-04T16:50:25.039Z</time></trkpt><trkpt lat="43.1805007" lon="12.178537"><ele>260.75</ele><time>2026-04-04T16:50:26.035Z</time></trkpt><trkpt lat="43.1805657" lon="12.1783614"><ele>260.0</ele><time>2026-04-04T16:50:27.044Z</time></trkpt><trkpt lat="43.1806312" lon="12.1781832"><ele>261.0</ele><time>2026-04-04T16:50:28.047Z</time></trkpt><trkpt lat="43.1807046" lon="12.177989"><ele>262.0</ele><time>2026-04-04T16:50:29.032Z</time></trkpt><trkpt lat="43.1807798" lon="12.1777866"><ele>263.0</ele><time>2026-04-04T16:50:30.031Z</time></trkpt><trkpt lat="43.180857" lon="12.1775809"><ele>263.0</ele><time>2026-04-04T16:50:31.037Z</time></trkpt><trkpt lat="43.1809371" lon="12.1773768"><ele>263.0</ele><time>2026-04-04T16:50:32.033Z</time></trkpt><trkpt lat="43.1810124" lon="12.1771683"><ele>263.0</ele><time>2026-04-04T16:50:33.032Z</time></trkpt><trkpt lat="43.1810729" lon="12.1769498"><ele>263.0</ele><time>2026-04-04T16:50:34.04Z</time></trkpt><trkpt lat="43.1811142" lon="12.1767136"><ele>263.0</ele><time>2026-04-04T16:50:35.032Z</time></trkpt><trkpt lat="43.1811258" lon="12.1764492"><ele>263.0</ele><time>2026-04-04T16:50:36.025Z</time></trkpt><trkpt lat="43.1811186" lon="12.1761887"><ele>263.0</ele><time>2026-04-04T16:50:37.04Z</time></trkpt><trkpt lat="43.1811074" lon="12.1759359"><ele>263.0</ele><time>2026-04-04T16:50:38.035Z</time></trkpt><trkpt lat="43.1811147" lon="12.1756825"><ele>263.0</ele><time>2026-04-04T16:50:39.042Z</time></trkpt><trkpt lat="43.181151" lon="12.1754347"><ele>263.0</ele><time>2026-04-04T16:50:40.044Z</time></trkpt><trkpt lat="43.1811981" lon="12.175191"><ele>263.0</ele><time>2026-04-04T16:50:41.043Z</time></trkpt><trkpt lat="43.1812523" lon="12.174948"><ele>263.0</ele><time>2026-04-04T16:50:42.051Z</time></trkpt><trkpt lat="43.1812982" lon="12.1747036"><ele>262.0</ele><time>2026-04-04T16:50:43.033Z</time></trkpt><trkpt lat="43.1813438" lon="12.1744652"><ele>261.0</ele><time>2026-04-04T16:50:44.036Z</time></trkpt><trkpt lat="43.1813892" lon="12.17423"><ele>260.0</ele><time>2026-04-04T16:50:45.039Z</time></trkpt><trkpt lat="43.1814324" lon="12.1739914"><ele>259.6666666666667</ele><time>2026-04-04T16:50:46.037Z</time></trkpt><trkpt lat="43.1814726" lon="12.1737519"><ele>259.3333333333333</ele><time>2026-04-04T16:50:47.037Z</time></trkpt><trkpt lat="43.1815257" lon="12.1735267"><ele>259.0</ele><time>2026-04-04T16:50:48.04Z</time></trkpt><trkpt lat="43.181579" lon="12.1733107"><ele>260.66666666666663</ele><time>2026-04-04T16:50:49.037Z</time></trkpt><trkpt lat="43.1816342" lon="12.1730949"><ele>262.3333333333333</ele><time>2026-04-04T16:50:50.033Z</time></trkpt><trkpt lat="43.1816882" lon="12.1728854"><ele>264.0</ele><time>2026-04-04T16:50:51.037Z</time></trkpt><trkpt lat="43.1817438" lon="12.1726824"><ele>264.0</ele><time>2026-04-04T16:50:52.042Z</time></trkpt><trkpt lat="43.1817981" lon="12.1724949"><ele>264.0</ele><time>2026-04-04T16:50:53.034Z</time></trkpt><trkpt lat="43.1818525" lon="12.1723175"><ele>264.0</ele><time>2026-04-04T16:50:54.049Z</time></trkpt><trkpt lat="43.1818862" lon="12.1721447"><ele>264.0</ele><time>2026-04-04T16:50:55.042Z</time></trkpt><trkpt lat="43.1818921" lon="12.1719722"><ele>263.75</ele><time>2026-04-04T16:50:56.031Z</time></trkpt><trkpt lat="43.1818741" lon="12.1717838"><ele>263.5</ele><time>2026-04-04T16:50:57.03Z</time></trkpt><trkpt lat="43.181844" lon="12.1715902"><ele>263.25</ele><time>2026-04-04T16:50:58.029Z</time></trkpt><trkpt lat="43.1818076" lon="12.1713749"><ele>263.0</ele><time>2026-04-04T16:50:59.032Z</time></trkpt><trkpt lat="43.1817618" lon="12.1711682"><ele>263.0</ele><time>2026-04-04T16:51:00.037Z</time></trkpt><trkpt lat="43.1817045" lon="12.1709512"><ele>263.0</ele><time>2026-04-04T16:51:01.037Z</time></trkpt><trkpt lat="43.1816625" lon="12.1707246"><ele>263.0</ele><time>2026-04-04T16:51:02.036Z</time></trkpt><trkpt lat="43.1816378" lon="12.1705034"><ele>263.33333333333337</ele><time>2026-04-04T16:51:03.041Z</time></trkpt><trkpt lat="43.1816181" lon="12.1702743"><ele>263.6666666666667</ele><time>2026-04-04T16:51:04.044Z</time></trkpt><trkpt lat="43.1816236" lon="12.1700438"><ele>264.0</ele><time>2026-04-04T16:51:05.042Z</time></trkpt><trkpt lat="43.1816512" lon="12.1698105"><ele>264.0</ele><time>2026-04-04T16:51:06.037Z</time></trkpt><trkpt lat="43.181687" lon="12.1695551"><ele>264.0</ele><time>2026-04-04T16:51:07.04Z</time></trkpt><trkpt lat="43.1817273" lon="12.1693004"><ele>264.0</ele><time>2026-04-04T16:51:08.042Z</time></trkpt><trkpt lat="43.1817607" lon="12.1690457"><ele>263.3333333333333</ele><time>2026-04-04T16:51:09.047Z</time></trkpt><trkpt lat="43.1817947" lon="12.1687894"><ele>262.66666666666663</ele><time>2026-04-04T16:51:10.037Z</time></trkpt><trkpt lat="43.181829" lon="12.168537"><ele>262.0</ele><time>2026-04-04T16:51:11.039Z</time></trkpt><trkpt lat="43.1818629" lon="12.1682929"><ele>262.0</ele><time>2026-04-04T16:51:12.032Z</time></trkpt><trkpt lat="43.1818938" lon="12.1680451"><ele>262.0</ele><time>2026-04-04T16:51:13.04Z</time></trkpt><trkpt lat="43.1819217" lon="12.1678"><ele>262.0</ele><time>2026-04-04T16:51:14.033Z</time></trkpt><trkpt lat="43.1819463" lon="12.1675616"><ele>261.66666666666663</ele><time>2026-04-04T16:51:15.03Z</time></trkpt><trkpt lat="43.1819715" lon="12.1673321"><ele>261.3333333333333</ele><time>2026-04-04T16:51:16.033Z</time></trkpt><trkpt lat="43.1820022" lon="12.1671106"><ele>261.0</ele><time>2026-04-04T16:51:17.041Z</time></trkpt><trkpt lat="43.1820379" lon="12.1668962"><ele>261.0</ele><time>2026-04-04T16:51:18.034Z</time></trkpt><trkpt lat="43.1820722" lon="12.1666889"><ele>261.0</ele><time>2026-04-04T16:51:19.035Z</time></trkpt><trkpt lat="43.1821028" lon="12.1664816"><ele>261.0</ele><time>2026-04-04T16:51:20.04Z</time></trkpt><trkpt lat="43.1821358" lon="12.1662755"><ele>261.0</ele><time>2026-04-04T16:51:21.036Z</time></trkpt><trkpt lat="43.1821668" lon="12.1660691"><ele>261.0</ele><time>2026-04-04T16:51:22.039Z</time></trkpt><trkpt lat="43.1821988" lon="12.1658507"><ele>261.0</ele><time>2026-04-04T16:51:23.039Z</time></trkpt><trkpt lat="43.182233" lon="12.1656283"><ele>262.0</ele><time>2026-04-04T16:51:24.038Z</time></trkpt><trkpt lat="43.1822668" lon="12.1654022"><ele>263.0</ele><time>2026-04-04T16:51:25.041Z</time></trkpt><trkpt lat="43.1823091" lon="12.1651728"><ele>264.0</ele><time>2026-04-04T16:51:26.044Z</time></trkpt><trkpt lat="43.1823614" lon="12.1649369"><ele>263.6666666666667</ele><time>2026-04-04T16:51:27.044Z</time></trkpt><trkpt lat="43.1824239" lon="12.1647016"><ele>263.33333333333337</ele><time>2026-04-04T16:51:28.043Z</time></trkpt><trkpt lat="43.1824899" lon="12.1644588"><ele>263.0</ele><time>2026-04-04T16:51:29.036Z</time></trkpt><trkpt lat="43.1825535" lon="12.1642169"><ele>263.0</ele><time>2026-04-04T16:51:30.06Z</time></trkpt><trkpt lat="43.1826159" lon="12.1639728"><ele>263.0</ele><time>2026-04-04T16:51:31.054Z</time></trkpt><trkpt lat="43.1826755" lon="12.163721"><ele>263.0</ele><time>2026-04-04T16:51:32.05Z</time></trkpt><trkpt lat="43.1827359" lon="12.1634682"><ele>263.0</ele><time>2026-04-04T16:51:33.042Z</time></trkpt><trkpt lat="43.1828018" lon="12.1632233"><ele>263.0</ele><time>2026-04-04T16:51:34.044Z</time></trkpt><trkpt lat="43.1828619" lon="12.1629785"><ele>263.0</ele><time>2026-04-04T16:51:35.038Z</time></trkpt><trkpt lat="43.1829124" lon="12.162741"><ele>262.6666666666667</ele><time>2026-04-04T16:51:36.036Z</time></trkpt><trkpt lat="43.1829605" lon="12.1625169"><ele>262.3333333333333</ele><time>2026-04-04T16:51:37.033Z</time></trkpt><trkpt lat="43.1830097" lon="12.162286"><ele>262.0</ele><time>2026-04-04T16:51:38.037Z</time></trkpt><trkpt lat="43.1830544" lon="12.1620686"><ele>262.0</ele><time>2026-04-04T16:51:39.038Z</time></trkpt><trkpt lat="43.1831002" lon="12.1618635"><ele>262.0</ele><time>2026-04-04T16:51:40.036Z</time></trkpt><trkpt lat="43.1831464" lon="12.1616727"><ele>262.0</ele><time>2026-04-04T16:51:41.041Z</time></trkpt><trkpt lat="43.1832066" lon="12.1614835"><ele>263.0</ele><time>2026-04-04T16:51:42.043Z</time></trkpt><trkpt lat="43.183273" lon="12.1612974"><ele>264.0</ele><time>2026-04-04T16:51:43.04Z</time></trkpt><trkpt lat="43.183346" lon="12.1611148"><ele>265.0</ele><time>2026-04-04T16:51:44.054Z</time></trkpt><trkpt lat="43.1834178" lon="12.1609301"><ele>265.0</ele><time>2026-04-04T16:51:45.037Z</time></trkpt><trkpt lat="43.1834866" lon="12.1607555"><ele>265.0</ele><time>2026-04-04T16:51:46.039Z</time></trkpt><trkpt lat="43.1835488" lon="12.1605836"><ele>265.0</ele><time>2026-04-04T16:51:47.039Z</time></trkpt><trkpt lat="43.1836047" lon="12.160424"><ele>265.0</ele><time>2026-04-04T16:51:48.046Z</time></trkpt><trkpt lat="43.1836539" lon="12.1602661"><ele>264.5</ele><time>2026-04-04T16:51:49.042Z</time></trkpt><trkpt lat="43.1837007" lon="12.1601067"><ele>264.0</ele><time>2026-04-04T16:51:50.043Z</time></trkpt><trkpt lat="43.1837485" lon="12.1599527"><ele>263.5</ele><time>2026-04-04T16:51:51.045Z</time></trkpt><trkpt lat="43.1838018" lon="12.159807"><ele>263.0</ele><time>2026-04-04T16:51:52.04Z</time></trkpt><trkpt lat="43.183851" lon="12.1596518"><ele>262.5</ele><time>2026-04-04T16:51:53.039Z</time></trkpt><trkpt lat="43.1838941" lon="12.1594978"><ele>262.0</ele><time>2026-04-04T16:51:54.048Z</time></trkpt><trkpt lat="43.1839321" lon="12.1593414"><ele>261.5</ele><time>2026-04-04T16:51:55.045Z</time></trkpt><trkpt lat="43.1839676" lon="12.1591793"><ele>261.0</ele><time>2026-04-04T16:51:56.04Z</time></trkpt><trkpt lat="43.1840063" lon="12.1590193"><ele>261.25</ele><time>2026-04-04T16:51:57.045Z</time></trkpt><trkpt lat="43.184049" lon="12.1588501"><ele>261.5</ele><time>2026-04-04T16:51:58.033Z</time></trkpt><trkpt lat="43.1840875" lon="12.1586762"><ele>261.75</ele><time>2026-04-04T16:51:59.043Z</time></trkpt><trkpt lat="43.1841291" lon="12.1585039"><ele>262.0</ele><time>2026-04-04T16:52:00.056Z</time></trkpt><trkpt lat="43.1841594" lon="12.1583278"><ele>261.75</ele><time>2026-04-04T16:52:01.042Z</time></trkpt><trkpt lat="43.1841958" lon="12.1581458"><ele>261.5</ele><time>2026-04-04T16:52:02.041Z</time></trkpt><trkpt lat="43.1842394" lon="12.1579609"><ele>261.25</ele><time>2026-04-04T16:52:03.04Z</time></trkpt><trkpt lat="43.1842868" lon="12.1577817"><ele>261.0</ele><time>2026-04-04T16:52:04.042Z</time></trkpt><trkpt lat="43.1843279" lon="12.1575979"><ele>261.0</ele><time>2026-04-04T16:52:05.035Z</time></trkpt><trkpt lat="43.1843701" lon="12.1574198"><ele>261.0</ele><time>2026-04-04T16:52:06.041Z</time></trkpt><trkpt lat="43.1844122" lon="12.1572422"><ele>261.0</ele><time>2026-04-04T16:52:07.039Z</time></trkpt><trkpt lat="43.1844541" lon="12.1570711"><ele>261.0</ele><time>2026-04-04T16:52:08.035Z</time></trkpt><trkpt lat="43.1844877" lon="12.156912"><ele>260.75</ele><time>2026-04-04T16:52:09.039Z</time></trkpt><trkpt lat="43.1845206" lon="12.1567659"><ele>260.5</ele><time>2026-04-04T16:52:10.049Z</time></trkpt><trkpt lat="43.1845527" lon="12.1566142"><ele>260.25</ele><time>2026-04-04T16:52:11.049Z</time></trkpt><trkpt lat="43.1845756" lon="12.156447"><ele>260.0</ele><time>2026-04-04T16:52:12.043Z</time></trkpt><trkpt lat="43.1845951" lon="12.1562753"><ele>260.0</ele><time>2026-04-04T16:52:13.037Z</time></trkpt><trkpt lat="43.1846126" lon="12.1561018"><ele>260.0</ele><time>2026-04-04T16:52:14.042Z</time></trkpt><trkpt lat="43.1846303" lon="12.1559203"><ele>260.0</ele><time>2026-04-04T16:52:15.039Z</time></trkpt><trkpt lat="43.1846413" lon="12.1557278"><ele>260.0</ele><time>2026-04-04T16:52:16.043Z</time></trkpt><trkpt lat="43.1846466" lon="12.1555387"><ele>260.25</ele><time>2026-04-04T16:52:17.037Z</time></trkpt><trkpt lat="43.1846469" lon="12.1553637"><ele>260.5</ele><time>2026-04-04T16:52:18.051Z</time></trkpt><trkpt lat="43.1846447" lon="12.1552"><ele>260.75</ele><time>2026-04-04T16:52:19.04Z</time></trkpt><trkpt lat="43.1846444" lon="12.1550501"><ele>261.0</ele><time>2026-04-04T16:52:20.053Z</time></trkpt><trkpt lat="43.1846426" lon="12.1549105"><ele>260.8</ele><time>2026-04-04T16:52:21.04Z</time></trkpt><trkpt lat="43.1846391" lon="12.15479"><ele>260.6</ele><time>2026-04-04T16:52:22.037Z</time></trkpt><trkpt lat="43.1846332" lon="12.1546814"><ele>260.4</ele><time>2026-04-04T16:52:23.036Z</time></trkpt><trkpt lat="43.184628" lon="12.1545867"><ele>260.2</ele><time>2026-04-04T16:52:24.044Z</time></trkpt><trkpt lat="43.1846262" lon="12.1543941"><ele>260.0</ele><time>2026-04-04T16:52:26.036Z</time></trkpt><trkpt lat="43.1846221" lon="12.1542877"><ele>260.0</ele><time>2026-04-04T16:52:27.041Z</time></trkpt><trkpt lat="43.1846154" lon="12.1541733"><ele>260.0</ele><time>2026-04-04T16:52:28.029Z</time></trkpt><trkpt lat="43.1846077" lon="12.154057"><ele>260.0</ele><time>2026-04-04T16:52:29.038Z</time></trkpt><trkpt lat="43.1845926" lon="12.1539441"><ele>260.0</ele><time>2026-04-04T16:52:30.041Z</time></trkpt><trkpt lat="43.1845698" lon="12.1538347"><ele>260.0</ele><time>2026-04-04T16:52:31.053Z</time></trkpt><trkpt lat="43.1845538" lon="12.1537259"><ele>260.0</ele><time>2026-04-04T16:52:32.046Z</time></trkpt><trkpt lat="43.1845405" lon="12.1536147"><ele>260.0</ele><time>2026-04-04T16:52:33.04Z</time></trkpt><trkpt lat="43.1845225" lon="12.1535154"><ele>260.0</ele><time>2026-04-04T16:52:34.033Z</time></trkpt><trkpt lat="43.1844711" lon="12.1533966"><ele>260.0</ele><time>2026-04-04T16:52:36.036Z</time></trkpt><trkpt lat="43.1844518" lon="12.1534834"><ele>260.0</ele><time>2026-04-04T16:52:47.038Z</time></trkpt><trkpt lat="43.184496" lon="12.1536419"><ele>260.0</ele><time>2026-04-04T16:52:49.034Z</time></trkpt><trkpt lat="43.1845248" lon="12.1537572"><ele>260.0</ele><time>2026-04-04T16:52:50.037Z</time></trkpt><trkpt lat="43.1845509" lon="12.1539039"><ele>260.0</ele><time>2026-04-04T16:52:51.035Z</time></trkpt><trkpt lat="43.1845724" lon="12.1540473"><ele>260.0</ele><time>2026-04-04T16:52:52.038Z</time></trkpt><trkpt lat="43.1845861" lon="12.1541836"><ele>260.0</ele><time>2026-04-04T16:52:53.044Z</time></trkpt><trkpt lat="43.1845941" lon="12.1543127"><ele>260.0</ele><time>2026-04-04T16:52:54.061Z</time></trkpt><trkpt lat="43.1845995" lon="12.154443"><ele>260.0</ele><time>2026-04-04T16:52:55.035Z</time></trkpt><trkpt lat="43.1846028" lon="12.1545415"><ele>260.0</ele><time>2026-04-04T16:52:56.038Z</time></trkpt><trkpt lat="43.184611" lon="12.1546765"><ele>260.0</ele><time>2026-04-04T16:52:58.038Z</time></trkpt><trkpt lat="43.1846302" lon="12.1547787"><ele>260.0</ele><time>2026-04-04T16:53:15.041Z</time></trkpt><trkpt lat="43.1847458" lon="12.15483"><ele>260.0</ele><time>2026-04-04T16:53:17.044Z</time></trkpt><trkpt lat="43.1848185" lon="12.1548541"><ele>260.0</ele><time>2026-04-04T16:53:18.032Z</time></trkpt><trkpt lat="43.1848819" lon="12.1548716"><ele>260.2</ele><time>2026-04-04T16:53:19.038Z</time></trkpt><trkpt lat="43.1849532" lon="12.1548969"><ele>260.4</ele><time>2026-04-04T16:53:20.04Z</time></trkpt><trkpt lat="43.185014" lon="12.1549318"><ele>260.6</ele><time>2026-04-04T16:53:21.039Z</time></trkpt><trkpt lat="43.1850956" lon="12.1550104"><ele>260.8</ele><time>2026-04-04T16:53:23.036Z</time></trkpt><trkpt lat="43.1851904" lon="12.1549765"><ele>261.0</ele><time>2026-04-04T16:53:25.054Z</time></trkpt><trkpt lat="43.1852566" lon="12.154822"><ele>261.0</ele><time>2026-04-04T16:53:27.033Z</time></trkpt><trkpt lat="43.1852768" lon="12.1547136"><ele>261.0</ele><time>2026-04-04T16:53:28.041Z</time></trkpt><trkpt lat="43.1852998" lon="12.1546154"><ele>261.0</ele><time>2026-04-04T16:53:29.041Z</time></trkpt><trkpt lat="43.1853432" lon="12.1544925"><ele>261.0</ele><time>2026-04-04T16:53:31.037Z</time></trkpt><trkpt lat="43.1854023" lon="12.1544591"><ele>261.0</ele><time>2026-04-04T16:53:33.037Z</time></trkpt><trkpt lat="43.1854735" lon="12.1544677"><ele>261.0</ele><time>2026-04-04T16:53:35.041Z</time></trkpt><trkpt lat="43.1855576" lon="12.1544633"><ele>261.0</ele><time>2026-04-04T16:53:38.048Z</time></trkpt><trkpt lat="43.1855982" lon="12.1543425"><ele>261.0</ele><time>2026-04-04T16:53:41.033Z</time></trkpt><trkpt lat="43.185625" lon="12.1542589"><ele>261.0</ele><time>2026-04-04T16:53:50.035Z</time></trkpt><trkpt lat="43.1856033" lon="12.1541737"><ele>261.0</ele><time>2026-04-04T16:59:46.04Z</time></trkpt><trkpt lat="43.1855156" lon="12.1542162"><ele>261.0</ele><time>2026-04-04T16:59:48.042Z</time></trkpt><trkpt lat="43.1855032" lon="12.1543213"><ele>261.0</ele><time>2026-04-04T16:59:50.04Z</time></trkpt><trkpt lat="43.1854843" lon="12.1544259"><ele>261.0</ele><time>2026-04-04T16:59:52.046Z</time></trkpt><trkpt lat="43.1854075" lon="12.1544916"><ele>261.0</ele><time>2026-04-04T16:59:54.039Z</time></trkpt><trkpt lat="43.1853116" lon="12.1545254"><ele>261.0</ele><time>2026-04-04T16:59:56.037Z</time></trkpt><trkpt lat="43.1852513" lon="12.1546442"><ele>261.0</ele><time>2026-04-04T16:59:58.035Z</time></trkpt><trkpt lat="43.1852166" lon="12.1547654"><ele>261.0</ele><time>2026-04-04T17:00:00.042Z</time></trkpt><trkpt lat="43.1851655" lon="12.1548669"><ele>261.0</ele><time>2026-04-04T17:00:02.043Z</time></trkpt><trkpt lat="43.1851132" lon="12.1549642"><ele>261.0</ele><time>2026-04-04T17:00:05.038Z</time></trkpt><trkpt lat="43.1850459" lon="12.1549528"><ele>261.0</ele><time>2026-04-04T17:00:07.044Z</time></trkpt><trkpt lat="43.1849739" lon="12.1548461"><ele>261.0</ele><time>2026-04-04T17:00:09.03Z</time></trkpt><trkpt lat="43.1848823" lon="12.1547456"><ele>261.0</ele><time>2026-04-04T17:00:11.034Z</time></trkpt><trkpt lat="43.184783" lon="12.1546884"><ele>261.0</ele><time>2026-04-04T17:00:13.042Z</time></trkpt><trkpt lat="43.1847002" lon="12.1547116"><ele>261.0</ele><time>2026-04-04T17:00:15.045Z</time></trkpt><trkpt lat="43.1846443" lon="12.154783"><ele>261.0</ele><time>2026-04-04T17:00:25.05Z</time></trkpt><trkpt lat="43.1846113" lon="12.1549129"><ele>261.0</ele><time>2026-04-04T17:00:27.036Z</time></trkpt><trkpt lat="43.1846045" lon="12.1550223"><ele>261.0</ele><time>2026-04-04T17:00:28.043Z</time></trkpt><trkpt lat="43.1846059" lon="12.1551562"><ele>261.0</ele><time>2026-04-04T17:00:29.032Z</time></trkpt><trkpt lat="43.184597" lon="12.1553013"><ele>261.0</ele><time>2026-04-04T17:00:30.033Z</time></trkpt><trkpt lat="43.1845933" lon="12.1554465"><ele>261.0</ele><time>2026-04-04T17:00:31.04Z</time></trkpt><trkpt lat="43.1845964" lon="12.1556054"><ele>261.0</ele><time>2026-04-04T17:00:32.036Z</time></trkpt><trkpt lat="43.1845944" lon="12.1557749"><ele>261.0</ele><time>2026-04-04T17:00:33.03Z</time></trkpt><trkpt lat="43.1845853" lon="12.1559504"><ele>260.75</ele><time>2026-04-04T17:00:34.031Z</time></trkpt><trkpt lat="43.1845718" lon="12.1561256"><ele>260.5</ele><time>2026-04-04T17:00:35.037Z</time></trkpt><trkpt lat="43.1845563" lon="12.1563047"><ele>260.25</ele><time>2026-04-04T17:00:36.049Z</time></trkpt><trkpt lat="43.1845395" lon="12.1564965"><ele>260.0</ele><time>2026-04-04T17:00:37.031Z</time></trkpt><trkpt lat="43.1845168" lon="12.1566864"><ele>260.0</ele><time>2026-04-04T17:00:38.045Z</time></trkpt><trkpt lat="43.1844804" lon="12.1568805"><ele>260.0</ele><time>2026-04-04T17:00:39.039Z</time></trkpt><trkpt lat="43.1844302" lon="12.1570689"><ele>260.0</ele><time>2026-04-04T17:00:40.036Z</time></trkpt><trkpt lat="43.184381" lon="12.1572756"><ele>260.33333333333337</ele><time>2026-04-04T17:00:41.039Z</time></trkpt><trkpt lat="43.1843356" lon="12.1574847"><ele>260.6666666666667</ele><time>2026-04-04T17:00:42.041Z</time></trkpt><trkpt lat="43.1842936" lon="12.1576883"><ele>261.0</ele><time>2026-04-04T17:00:43.04Z</time></trkpt><trkpt lat="43.184252" lon="12.1578884"><ele>261.0</ele><time>2026-04-04T17:00:44.044Z</time></trkpt><trkpt lat="43.184211" lon="12.1580868"><ele>261.0</ele><time>2026-04-04T17:00:45.034Z</time></trkpt><trkpt lat="43.1841689" lon="12.158284"><ele>261.0</ele><time>2026-04-04T17:00:46.037Z</time></trkpt><trkpt lat="43.1841255" lon="12.1584708"><ele>261.0</ele><time>2026-04-04T17:00:47.034Z</time></trkpt><trkpt lat="43.1840802" lon="12.1586597"><ele>261.0</ele><time>2026-04-04T17:00:48.037Z</time></trkpt><trkpt lat="43.1840365" lon="12.1588519"><ele>261.0</ele><time>2026-04-04T17:00:49.034Z</time></trkpt><trkpt lat="43.1839982" lon="12.1590452"><ele>261.0</ele><time>2026-04-04T17:00:50.041Z</time></trkpt><trkpt lat="43.183956" lon="12.1592363"><ele>261.0</ele><time>2026-04-04T17:00:51.04Z</time></trkpt><trkpt lat="43.1839101" lon="12.1594257"><ele>261.0</ele><time>2026-04-04T17:00:52.036Z</time></trkpt><trkpt lat="43.1838591" lon="12.1596092"><ele>261.0</ele><time>2026-04-04T17:00:53.041Z</time></trkpt><trkpt lat="43.1838047" lon="12.1597996"><ele>261.0</ele><time>2026-04-04T17:00:54.029Z</time></trkpt><trkpt lat="43.1837426" lon="12.1599884"><ele>261.0</ele><time>2026-04-04T17:00:55.041Z</time></trkpt><trkpt lat="43.183678" lon="12.1601741"><ele>261.5</ele><time>2026-04-04T17:00:56.032Z</time></trkpt><trkpt lat="43.1836095" lon="12.1603497"><ele>262.0</ele><time>2026-04-04T17:00:57.042Z</time></trkpt><trkpt lat="43.1835453" lon="12.1605286"><ele>262.5</ele><time>2026-04-04T17:00:58.035Z</time></trkpt><trkpt lat="43.183478" lon="12.1607099"><ele>263.0</ele><time>2026-04-04T17:00:59.027Z</time></trkpt><trkpt lat="43.1834057" lon="12.1608826"><ele>262.75</ele><time>2026-04-04T17:01:00.029Z</time></trkpt><trkpt lat="43.1833343" lon="12.161053"><ele>262.5</ele><time>2026-04-04T17:01:01.032Z</time></trkpt><trkpt lat="43.1832598" lon="12.1612203"><ele>262.25</ele><time>2026-04-04T17:01:02.037Z</time></trkpt><trkpt lat="43.1831931" lon="12.1614038"><ele>262.0</ele><time>2026-04-04T17:01:03.034Z</time></trkpt><trkpt lat="43.1831349" lon="12.1615976"><ele>262.0</ele><time>2026-04-04T17:01:04.045Z</time></trkpt><trkpt lat="43.1830769" lon="12.1618008"><ele>262.0</ele><time>2026-04-04T17:01:05.033Z</time></trkpt><trkpt lat="43.1830346" lon="12.1620134"><ele>262.0</ele><time>2026-04-04T17:01:06.045Z</time></trkpt><trkpt lat="43.1829932" lon="12.1622395"><ele>262.0</ele><time>2026-04-04T17:01:07.039Z</time></trkpt><trkpt lat="43.1829574" lon="12.1624632"><ele>262.0</ele><time>2026-04-04T17:01:08.034Z</time></trkpt><trkpt lat="43.1829124" lon="12.1626831"><ele>262.0</ele><time>2026-04-04T17:01:09.032Z</time></trkpt><trkpt lat="43.1828601" lon="12.162898"><ele>262.0</ele><time>2026-04-04T17:01:10.038Z</time></trkpt><trkpt lat="43.1828031" lon="12.1631318"><ele>262.0</ele><time>2026-04-04T17:01:11.039Z</time></trkpt><trkpt lat="43.1827474" lon="12.1633684"><ele>262.0</ele><time>2026-04-04T17:01:12.035Z</time></trkpt><trkpt lat="43.1826889" lon="12.1636083"><ele>262.3333333333333</ele><time>2026-04-04T17:01:13.035Z</time></trkpt><trkpt lat="43.1826295" lon="12.1638398"><ele>262.6666666666667</ele><time>2026-04-04T17:01:14.041Z</time></trkpt><trkpt lat="43.1825683" lon="12.1640727"><ele>263.0</ele><time>2026-04-04T17:01:15.038Z</time></trkpt><trkpt lat="43.1825036" lon="12.1643006"><ele>263.0</ele><time>2026-04-04T17:01:16.046Z</time></trkpt><trkpt lat="43.1824427" lon="12.1645213"><ele>263.0</ele><time>2026-04-04T17:01:17.034Z</time></trkpt><trkpt lat="43.1823895" lon="12.1647394"><ele>263.0</ele><time>2026-04-04T17:01:18.032Z</time></trkpt><trkpt lat="43.1823356" lon="12.1649593"><ele>263.33333333333337</ele><time>2026-04-04T17:01:19.036Z</time></trkpt><trkpt lat="43.1822881" lon="12.1651854"><ele>263.6666666666667</ele><time>2026-04-04T17:01:20.044Z</time></trkpt><trkpt lat="43.1822488" lon="12.1654186"><ele>264.0</ele><time>2026-04-04T17:01:21.046Z</time></trkpt><trkpt lat="43.1822099" lon="12.1656538"><ele>263.0</ele><time>2026-04-04T17:01:22.035Z</time></trkpt><trkpt lat="43.1821674" lon="12.1658988"><ele>262.0</ele><time>2026-04-04T17:01:23.036Z</time></trkpt><trkpt lat="43.1821294" lon="12.1661488"><ele>261.0</ele><time>2026-04-04T17:01:24.032Z</time></trkpt><trkpt lat="43.1820985" lon="12.1663983"><ele>261.0</ele><time>2026-04-04T17:01:25.028Z</time></trkpt><trkpt lat="43.1820645" lon="12.1666461"><ele>261.0</ele><time>2026-04-04T17:01:26.033Z</time></trkpt><trkpt lat="43.1820271" lon="12.166894"><ele>261.0</ele><time>2026-04-04T17:01:27.044Z</time></trkpt><trkpt lat="43.1819973" lon="12.1671416"><ele>261.3333333333333</ele><time>2026-04-04T17:01:28.033Z</time></trkpt><trkpt lat="43.1819641" lon="12.1673846"><ele>261.66666666666663</ele><time>2026-04-04T17:01:29.032Z</time></trkpt><trkpt lat="43.1819299" lon="12.1676272"><ele>262.0</ele><time>2026-04-04T17:01:30.042Z</time></trkpt><trkpt lat="43.1818977" lon="12.1678746"><ele>262.0</ele><time>2026-04-04T17:01:31.037Z</time></trkpt><trkpt lat="43.1818636" lon="12.1681226"><ele>262.0</ele><time>2026-04-04T17:01:32.034Z</time></trkpt><trkpt lat="43.1818323" lon="12.1683594"><ele>262.0</ele><time>2026-04-04T17:01:33.037Z</time></trkpt><trkpt lat="43.1818004" lon="12.1686065"><ele>262.0</ele><time>2026-04-04T17:01:34.042Z</time></trkpt><trkpt lat="43.18176" lon="12.1688559"><ele>262.0</ele><time>2026-04-04T17:01:35.032Z</time></trkpt><trkpt lat="43.1817235" lon="12.1690999"><ele>262.0</ele><time>2026-04-04T17:01:36.034Z</time></trkpt><trkpt lat="43.1816958" lon="12.1693314"><ele>262.66666666666663</ele><time>2026-04-04T17:01:37.029Z</time></trkpt><trkpt lat="43.1816658" lon="12.1695563"><ele>263.3333333333333</ele><time>2026-04-04T17:01:38.032Z</time></trkpt><trkpt lat="43.1816399" lon="12.1697757"><ele>264.0</ele><time>2026-04-04T17:01:39.045Z</time></trkpt><trkpt lat="43.1816138" lon="12.1699932"><ele>264.0</ele><time>2026-04-04T17:01:40.033Z</time></trkpt><trkpt lat="43.1815905" lon="12.1702121"><ele>264.0</ele><time>2026-04-04T17:01:41.038Z</time></trkpt><trkpt lat="43.1815956" lon="12.1704396"><ele>264.0</ele><time>2026-04-04T17:01:42.036Z</time></trkpt><trkpt lat="43.1816163" lon="12.1706661"><ele>263.6666666666667</ele><time>2026-04-04T17:01:43.042Z</time></trkpt><trkpt lat="43.1816497" lon="12.1708969"><ele>263.33333333333337</ele><time>2026-04-04T17:01:44.052Z</time></trkpt><trkpt lat="43.1816911" lon="12.1711264"><ele>263.0</ele><time>2026-04-04T17:01:45.036Z</time></trkpt><trkpt lat="43.1817349" lon="12.171344"><ele>263.0</ele><time>2026-04-04T17:01:46.036Z</time></trkpt><trkpt lat="43.1817757" lon="12.1715369"><ele>263.0</ele><time>2026-04-04T17:01:47.031Z</time></trkpt><trkpt lat="43.1818125" lon="12.171737"><ele>263.0</ele><time>2026-04-04T17:01:48.041Z</time></trkpt><trkpt lat="43.1818583" lon="12.1719444"><ele>263.0</ele><time>2026-04-04T17:01:49.047Z</time></trkpt><trkpt lat="43.181865" lon="12.1721427"><ele>263.0</ele><time>2026-04-04T17:01:50.044Z</time></trkpt><trkpt lat="43.181842" lon="12.1723363"><ele>263.0</ele><time>2026-04-04T17:01:51.047Z</time></trkpt><trkpt lat="43.181778" lon="12.1725472"><ele>263.33333333333337</ele><time>2026-04-04T17:01:52.038Z</time></trkpt><trkpt lat="43.1817113" lon="12.1727582"><ele>263.6666666666667</ele><time>2026-04-04T17:01:53.036Z</time></trkpt><trkpt lat="43.1816506" lon="12.1729783"><ele>264.0</ele><time>2026-04-04T17:01:54.043Z</time></trkpt><trkpt lat="43.1815883" lon="12.1731836"><ele>262.3333333333333</ele><time>2026-04-04T17:01:55.043Z</time></trkpt><trkpt lat="43.1815251" lon="12.1733994"><ele>260.66666666666663</ele><time>2026-04-04T17:01:56.033Z</time></trkpt><trkpt lat="43.1814729" lon="12.1736239"><ele>259.0</ele><time>2026-04-04T17:01:57.031Z</time></trkpt><trkpt lat="43.1814262" lon="12.1738654"><ele>259.3333333333333</ele><time>2026-04-04T17:01:58.035Z</time></trkpt><trkpt lat="43.1813769" lon="12.1741056"><ele>259.6666666666667</ele><time>2026-04-04T17:01:59.039Z</time></trkpt><trkpt lat="43.1813286" lon="12.17435"><ele>260.0</ele><time>2026-04-04T17:02:00.042Z</time></trkpt><trkpt lat="43.1812824" lon="12.1746017"><ele>260.0</ele><time>2026-04-04T17:02:01.027Z</time></trkpt><trkpt lat="43.181236" lon="12.1748506"><ele>260.0</ele><time>2026-04-04T17:02:02.025Z</time></trkpt><trkpt lat="43.1811915" lon="12.1750994"><ele>260.0</ele><time>2026-04-04T17:02:03.035Z</time></trkpt><trkpt lat="43.1811441" lon="12.1753468"><ele>261.0</ele><time>2026-04-04T17:02:04.035Z</time></trkpt><trkpt lat="43.1811056" lon="12.1755995"><ele>262.0</ele><time>2026-04-04T17:02:05.037Z</time></trkpt><trkpt lat="43.1810889" lon="12.1758556"><ele>263.0</ele><time>2026-04-04T17:02:06.033Z</time></trkpt><trkpt lat="43.1810992" lon="12.1761097"><ele>263.0</ele><time>2026-04-04T17:02:07.041Z</time></trkpt><trkpt lat="43.1811121" lon="12.1763632"><ele>263.0</ele><time>2026-04-04T17:02:08.04Z</time></trkpt><trkpt lat="43.1810987" lon="12.1766152"><ele>263.0</ele><time>2026-04-04T17:02:09.033Z</time></trkpt><trkpt lat="43.1810641" lon="12.176874"><ele>263.0</ele><time>2026-04-04T17:02:10.04Z</time></trkpt><trkpt lat="43.1809998" lon="12.1771247"><ele>263.0</ele><time>2026-04-04T17:02:11.03Z</time></trkpt><trkpt lat="43.1809087" lon="12.1773704"><ele>263.0</ele><time>2026-04-04T17:02:12.046Z</time></trkpt><trkpt lat="43.1808109" lon="12.1776119"><ele>263.0</ele><time>2026-04-04T17:02:13.04Z</time></trkpt><trkpt lat="43.1807154" lon="12.1778602"><ele>263.0</ele><time>2026-04-04T17:02:14.044Z</time></trkpt><trkpt lat="43.1806291" lon="12.1781041"><ele>263.0</ele><time>2026-04-04T17:02:15.039Z</time></trkpt><trkpt lat="43.1805397" lon="12.1783485"><ele>263.0</ele><time>2026-04-04T17:02:16.043Z</time></trkpt><trkpt lat="43.1804522" lon="12.1785872"><ele>263.0</ele><time>2026-04-04T17:02:17.036Z</time></trkpt><trkpt lat="43.1803592" lon="12.1788274"><ele>263.0</ele><time>2026-04-04T17:02:18.029Z</time></trkpt><trkpt lat="43.1802622" lon="12.179065"><ele>263.0</ele><time>2026-04-04T17:02:19.04Z</time></trkpt><trkpt lat="43.1801613" lon="12.1792958"><ele>263.0</ele><time>2026-04-04T17:02:20.048Z</time></trkpt><trkpt lat="43.180068" lon="12.1795334"><ele>263.0</ele><time>2026-04-04T17:02:21.037Z</time></trkpt><trkpt lat="43.1799714" lon="12.1797757"><ele>263.33333333333337</ele><time>2026-04-04T17:02:22.038Z</time></trkpt><trkpt lat="43.1798703" lon="12.1800132"><ele>263.6666666666667</ele><time>2026-04-04T17:02:23.041Z</time></trkpt><trkpt lat="43.1797646" lon="12.1802411"><ele>264.0</ele><time>2026-04-04T17:02:24.04Z</time></trkpt><trkpt lat="43.1796486" lon="12.1804724"><ele>262.6666666666667</ele><time>2026-04-04T17:02:25.034Z</time></trkpt><trkpt lat="43.1795303" lon="12.1806979"><ele>261.33333333333337</ele><time>2026-04-04T17:02:26.042Z</time></trkpt><trkpt lat="43.1794087" lon="12.1809193"><ele>260.0</ele><time>2026-04-04T17:02:27.034Z</time></trkpt><trkpt lat="43.1792804" lon="12.1811252"><ele>260.0</ele><time>2026-04-04T17:02:28.044Z</time></trkpt><trkpt lat="43.1791456" lon="12.1813328"><ele>260.0</ele><time>2026-04-04T17:02:29.025Z</time></trkpt><trkpt lat="43.1789986" lon="12.1815343"><ele>260.0</ele><time>2026-04-04T17:02:30.032Z</time></trkpt><trkpt lat="43.1788456" lon="12.1817233"><ele>261.0</ele><time>2026-04-04T17:02:31.04Z</time></trkpt><trkpt lat="43.1786948" lon="12.1819007"><ele>262.0</ele><time>2026-04-04T17:02:32.033Z</time></trkpt><trkpt lat="43.1785467" lon="12.1820844"><ele>263.0</ele><time>2026-04-04T17:02:33.044Z</time></trkpt><trkpt lat="43.1784017" lon="12.1822679"><ele>263.33333333333337</ele><time>2026-04-04T17:02:34.043Z</time></trkpt><trkpt lat="43.1782531" lon="12.182455"><ele>263.6666666666667</ele><time>2026-04-04T17:02:35.035Z</time></trkpt><trkpt lat="43.1781026" lon="12.1826338"><ele>264.0</ele><time>2026-04-04T17:02:36.042Z</time></trkpt><trkpt lat="43.1779625" lon="12.1828124"><ele>264.0</ele><time>2026-04-04T17:02:37.037Z</time></trkpt><trkpt lat="43.1778183" lon="12.1829849"><ele>264.0</ele><time>2026-04-04T17:02:38.039Z</time></trkpt><trkpt lat="43.1776693" lon="12.1831485"><ele>264.0</ele><time>2026-04-04T17:02:39.038Z</time></trkpt><trkpt lat="43.1775172" lon="12.1833087"><ele>264.0</ele><time>2026-04-04T17:02:40.032Z</time></trkpt><trkpt lat="43.1773546" lon="12.1834577"><ele>264.0</ele><time>2026-04-04T17:02:41.034Z</time></trkpt><trkpt lat="43.1771827" lon="12.1835958"><ele>264.0</ele><time>2026-04-04T17:02:42.04Z</time></trkpt><trkpt lat="43.1770113" lon="12.1837418"><ele>264.0</ele><time>2026-04-04T17:02:43.024Z</time></trkpt><trkpt lat="43.1768394" lon="12.1838956"><ele>264.0</ele><time>2026-04-04T17:02:44.04Z</time></trkpt><trkpt lat="43.1766668" lon="12.1840484"><ele>264.0</ele><time>2026-04-04T17:02:45.028Z</time></trkpt><trkpt lat="43.1764953" lon="12.1841981"><ele>262.6666666666667</ele><time>2026-04-04T17:02:46.027Z</time></trkpt><trkpt lat="43.1763213" lon="12.1843479"><ele>261.33333333333337</ele><time>2026-04-04T17:02:47.031Z</time></trkpt><trkpt lat="43.1761524" lon="12.1844955"><ele>260.0</ele><time>2026-04-04T17:02:48.032Z</time></trkpt><trkpt lat="43.1759892" lon="12.1846441"><ele>260.0</ele><time>2026-04-04T17:02:49.031Z</time></trkpt><trkpt lat="43.1758267" lon="12.1847834"><ele>260.0</ele><time>2026-04-04T17:02:50.022Z</time></trkpt><trkpt lat="43.1756634" lon="12.1849241"><ele>260.0</ele><time>2026-04-04T17:02:51.038Z</time></trkpt><trkpt lat="43.1754945" lon="12.1850632"><ele>260.6666666666667</ele><time>2026-04-04T17:02:52.039Z</time></trkpt><trkpt lat="43.1753291" lon="12.1852029"><ele>261.3333333333333</ele><time>2026-04-04T17:02:53.038Z</time></trkpt><trkpt lat="43.1751718" lon="12.1853454"><ele>262.0</ele><time>2026-04-04T17:02:54.039Z</time></trkpt><trkpt lat="43.1750148" lon="12.1854869"><ele>262.0</ele><time>2026-04-04T17:02:55.031Z</time></trkpt><trkpt lat="43.1748573" lon="12.1856283"><ele>262.0</ele><time>2026-04-04T17:02:56.037Z</time></trkpt><trkpt lat="43.1746999" lon="12.1857735"><ele>262.0</ele><time>2026-04-04T17:02:57.036Z</time></trkpt><trkpt lat="43.1745415" lon="12.1859176"><ele>262.3333333333333</ele><time>2026-04-04T17:02:58.03Z</time></trkpt><trkpt lat="43.1744027" lon="12.1860845"><ele>262.6666666666667</ele><time>2026-04-04T17:02:59.031Z</time></trkpt><trkpt lat="43.1742605" lon="12.186255"><ele>263.0</ele><time>2026-04-04T17:03:00.035Z</time></trkpt><trkpt lat="43.1741262" lon="12.1864184"><ele>262.0</ele><time>2026-04-04T17:03:01.028Z</time></trkpt><trkpt lat="43.1739861" lon="12.1865875"><ele>261.0</ele><time>2026-04-04T17:03:02.032Z</time></trkpt><trkpt lat="43.1738388" lon="12.1867371"><ele>260.0</ele><time>2026-04-04T17:03:03.045Z</time></trkpt><trkpt lat="43.1736778" lon="12.1868733"><ele>260.0</ele><time>2026-04-04T17:03:04.037Z</time></trkpt><trkpt lat="43.1735118" lon="12.1869852"><ele>260.0</ele><time>2026-04-04T17:03:05.036Z</time></trkpt><trkpt lat="43.1733404" lon="12.1871044"><ele>260.0</ele><time>2026-04-04T17:03:06.035Z</time></trkpt><trkpt lat="43.173172" lon="12.1872225"><ele>260.6666666666667</ele><time>2026-04-04T17:03:07.032Z</time></trkpt><trkpt lat="43.1730008" lon="12.1873451"><ele>261.3333333333333</ele><time>2026-04-04T17:03:08.038Z</time></trkpt><trkpt lat="43.1728414" lon="12.1874715"><ele>262.0</ele><time>2026-04-04T17:03:09.032Z</time></trkpt><trkpt lat="43.1726773" lon="12.1875941"><ele>262.0</ele><time>2026-04-04T17:03:10.044Z</time></trkpt><trkpt lat="43.1725235" lon="12.1876988"><ele>262.0</ele><time>2026-04-04T17:03:11.047Z</time></trkpt><trkpt lat="43.1723707" lon="12.1878041"><ele>262.0</ele><time>2026-04-04T17:03:12.04Z</time></trkpt><trkpt lat="43.172216" lon="12.187886"><ele>261.3333333333333</ele><time>2026-04-04T17:03:13.036Z</time></trkpt><trkpt lat="43.1720595" lon="12.1879535"><ele>260.6666666666667</ele><time>2026-04-04T17:03:14.038Z</time></trkpt><trkpt lat="43.1718998" lon="12.188026"><ele>260.0</ele><time>2026-04-04T17:03:15.037Z</time></trkpt><trkpt lat="43.1717391" lon="12.188098"><ele>260.0</ele><time>2026-04-04T17:03:16.036Z</time></trkpt><trkpt lat="43.1715778" lon="12.1881713"><ele>260.0</ele><time>2026-04-04T17:03:17.039Z</time></trkpt><trkpt lat="43.1714144" lon="12.1882505"><ele>260.0</ele><time>2026-04-04T17:03:18.029Z</time></trkpt><trkpt lat="43.1712465" lon="12.1883301"><ele>261.0</ele><time>2026-04-04T17:03:19.041Z</time></trkpt><trkpt lat="43.1710796" lon="12.1884178"><ele>262.0</ele><time>2026-04-04T17:03:20.044Z</time></trkpt><trkpt lat="43.1709165" lon="12.1885086"><ele>263.0</ele><time>2026-04-04T17:03:21.03Z</time></trkpt><trkpt lat="43.1707528" lon="12.1886039"><ele>262.33333333333337</ele><time>2026-04-04T17:03:22.042Z</time></trkpt><trkpt lat="43.170582" lon="12.1887218"><ele>261.6666666666667</ele><time>2026-04-04T17:03:23.033Z</time></trkpt><trkpt lat="43.1704182" lon="12.1888292"><ele>261.0</ele><time>2026-04-04T17:03:24.043Z</time></trkpt><trkpt lat="43.1702559" lon="12.1889346"><ele>261.0</ele><time>2026-04-04T17:03:25.036Z</time></trkpt><trkpt lat="43.1700908" lon="12.1890625"><ele>261.0</ele><time>2026-04-04T17:03:26.034Z</time></trkpt><trkpt lat="43.1699268" lon="12.1891834"><ele>261.0</ele><time>2026-04-04T17:03:27.018Z</time></trkpt><trkpt lat="43.1697665" lon="12.1892933"><ele>261.3333333333333</ele><time>2026-04-04T17:03:28.047Z</time></trkpt><trkpt lat="43.1696035" lon="12.1893967"><ele>261.66666666666663</ele><time>2026-04-04T17:03:29.043Z</time></trkpt><trkpt lat="43.1694478" lon="12.1894937"><ele>262.0</ele><time>2026-04-04T17:03:30.037Z</time></trkpt><trkpt lat="43.1692893" lon="12.1895837"><ele>262.0</ele><time>2026-04-04T17:03:31.032Z</time></trkpt><trkpt lat="43.1691298" lon="12.1896542"><ele>262.0</ele><time>2026-04-04T17:03:32.05Z</time></trkpt><trkpt lat="43.1689794" lon="12.1897185"><ele>262.0</ele><time>2026-04-04T17:03:33.039Z</time></trkpt><trkpt lat="43.1688194" lon="12.1897683"><ele>262.66666666666663</ele><time>2026-04-04T17:03:34.033Z</time></trkpt><trkpt lat="43.168663" lon="12.1898144"><ele>263.3333333333333</ele><time>2026-04-04T17:03:35.037Z</time></trkpt><trkpt lat="43.1685058" lon="12.1898463"><ele>264.0</ele><time>2026-04-04T17:03:36.032Z</time></trkpt><trkpt lat="43.1683584" lon="12.1898633"><ele>264.5</ele><time>2026-04-04T17:03:37.04Z</time></trkpt><trkpt lat="43.1682036" lon="12.1898751"><ele>265.0</ele><time>2026-04-04T17:03:38.039Z</time></trkpt><trkpt lat="43.168061" lon="12.1898745"><ele>265.5</ele><time>2026-04-04T17:03:39.041Z</time></trkpt><trkpt lat="43.1679139" lon="12.1898666"><ele>266.0</ele><time>2026-04-04T17:03:40.035Z</time></trkpt><trkpt lat="43.1677698" lon="12.1898567"><ele>266.25</ele><time>2026-04-04T17:03:41.034Z</time></trkpt><trkpt lat="43.1676262" lon="12.1898359"><ele>266.5</ele><time>2026-04-04T17:03:42.043Z</time></trkpt><trkpt lat="43.1674846" lon="12.1898094"><ele>266.75</ele><time>2026-04-04T17:03:43.044Z</time></trkpt><trkpt lat="43.1673382" lon="12.1897843"><ele>267.0</ele><time>2026-04-04T17:03:44.04Z</time></trkpt><trkpt lat="43.1671915" lon="12.1897543"><ele>267.0</ele><time>2026-04-04T17:03:45.032Z</time></trkpt><trkpt lat="43.1670518" lon="12.1897371"><ele>267.0</ele><time>2026-04-04T17:03:46.047Z</time></trkpt><trkpt lat="43.1669121" lon="12.1897193"><ele>267.0</ele><time>2026-04-04T17:03:47.032Z</time></trkpt><trkpt lat="43.1667756" lon="12.1897082"><ele>267.0</ele><time>2026-04-04T17:03:48.034Z</time></trkpt><trkpt lat="43.1666339" lon="12.1896932"><ele>266.25</ele><time>2026-04-04T17:03:49.036Z</time></trkpt><trkpt lat="43.1664913" lon="12.1896729"><ele>265.5</ele><time>2026-04-04T17:03:50.043Z</time></trkpt><trkpt lat="43.166349" lon="12.1896504"><ele>264.75</ele><time>2026-04-04T17:03:51.041Z</time></trkpt><trkpt lat="43.166207" lon="12.1896266"><ele>264.0</ele><time>2026-04-04T17:03:52.031Z</time></trkpt><trkpt lat="43.1660651" lon="12.1896041"><ele>264.0</ele><time>2026-04-04T17:03:53.038Z</time></trkpt><trkpt lat="43.1659211" lon="12.1895962"><ele>264.0</ele><time>2026-04-04T17:03:54.038Z</time></trkpt><trkpt lat="43.1657766" lon="12.1896054"><ele>264.0</ele><time>2026-04-04T17:03:55.036Z</time></trkpt><trkpt lat="43.1656472" lon="12.1896285"><ele>264.0</ele><time>2026-04-04T17:03:56.034Z</time></trkpt><trkpt lat="43.1655286" lon="12.1896724"><ele>264.0</ele><time>2026-04-04T17:03:57.035Z</time></trkpt><trkpt lat="43.1654282" lon="12.1897115"><ele>264.0</ele><time>2026-04-04T17:03:58.037Z</time></trkpt><trkpt lat="43.1653337" lon="12.1897441"><ele>264.0</ele><time>2026-04-04T17:03:59.039Z</time></trkpt><trkpt lat="43.1652479" lon="12.1897537"><ele>264.0</ele><time>2026-04-04T17:04:00.027Z</time></trkpt><trkpt lat="43.165168" lon="12.1897431"><ele>264.0</ele><time>2026-04-04T17:04:01.039Z</time></trkpt><trkpt lat="43.1650933" lon="12.1897034"><ele>264.0</ele><time>2026-04-04T17:04:02.043Z</time></trkpt><trkpt lat="43.1650225" lon="12.189651"><ele>264.0</ele><time>2026-04-04T17:04:03.035Z</time></trkpt><trkpt lat="43.1649439" lon="12.1895898"><ele>264.0</ele><time>2026-04-04T17:04:04.029Z</time></trkpt><trkpt lat="43.1648567" lon="12.189533"><ele>264.0</ele><time>2026-04-04T17:04:05.052Z</time></trkpt><trkpt lat="43.1647656" lon="12.189517"><ele>264.0</ele><time>2026-04-04T17:04:06.031Z</time></trkpt><trkpt lat="43.1646625" lon="12.189524"><ele>264.0</ele><time>2026-04-04T17:04:07.037Z</time></trkpt><trkpt lat="43.1645599" lon="12.1895619"><ele>264.0</ele><time>2026-04-04T17:04:08.034Z</time></trkpt><trkpt lat="43.1644515" lon="12.1896093"><ele>264.0</ele><time>2026-04-04T17:04:09.051Z</time></trkpt><trkpt lat="43.1643508" lon="12.1896315"><ele>264.0</ele><time>2026-04-04T17:04:10.031Z</time></trkpt><trkpt lat="43.1642474" lon="12.1896406"><ele>264.0</ele><time>2026-04-04T17:04:11.042Z</time></trkpt><trkpt lat="43.1641598" lon="12.1896586"><ele>264.0</ele><time>2026-04-04T17:04:12.037Z</time></trkpt><trkpt lat="43.1640709" lon="12.189675"><ele>264.4</ele><time>2026-04-04T17:04:13.043Z</time></trkpt><trkpt lat="43.1639872" lon="12.189677"><ele>264.79999999999995</ele><time>2026-04-04T17:04:14.035Z</time></trkpt><trkpt lat="43.1639021" lon="12.1896554"><ele>265.20000000000005</ele><time>2026-04-04T17:04:15.045Z</time></trkpt><trkpt lat="43.1638116" lon="12.1895999"><ele>265.6</ele><time>2026-04-04T17:04:16.033Z</time></trkpt><trkpt lat="43.1637343" lon="12.1895236"><ele>266.0</ele><time>2026-04-04T17:04:17.044Z</time></trkpt><trkpt lat="43.1636498" lon="12.1894663"><ele>266.0</ele><time>2026-04-04T17:04:18.033Z</time></trkpt><trkpt lat="43.1635715" lon="12.189387"><ele>266.0</ele><time>2026-04-04T17:04:19.022Z</time></trkpt><trkpt lat="43.1634906" lon="12.1892695"><ele>266.0</ele><time>2026-04-04T17:04:20.036Z</time></trkpt><trkpt lat="43.1634225" lon="12.1891575"><ele>266.0</ele><time>2026-04-04T17:04:21.027Z</time></trkpt><trkpt lat="43.1633491" lon="12.1890722"><ele>266.0</ele><time>2026-04-04T17:04:22.033Z</time></trkpt><trkpt lat="43.1632565" lon="12.1890376"><ele>265.75</ele><time>2026-04-04T17:04:23.029Z</time></trkpt><trkpt lat="43.1631466" lon="12.1890403"><ele>265.5</ele><time>2026-04-04T17:04:24.032Z</time></trkpt><trkpt lat="43.1630309" lon="12.1890598"><ele>265.25</ele><time>2026-04-04T17:04:25.038Z</time></trkpt><trkpt lat="43.1629106" lon="12.1890734"><ele>265.0</ele><time>2026-04-04T17:04:26.031Z</time></trkpt><trkpt lat="43.1627896" lon="12.1890703"><ele>265.0</ele><time>2026-04-04T17:04:27.036Z</time></trkpt><trkpt lat="43.1626721" lon="12.1890664"><ele>265.0</ele><time>2026-04-04T17:04:28.031Z</time></trkpt><trkpt lat="43.1625513" lon="12.1890744"><ele>265.0</ele><time>2026-04-04T17:04:29.026Z</time></trkpt><trkpt lat="43.1624298" lon="12.1890844"><ele>265.0</ele><time>2026-04-04T17:04:30.03Z</time></trkpt><trkpt lat="43.162305" lon="12.1890863"><ele>265.0</ele><time>2026-04-04T17:04:31.023Z</time></trkpt><trkpt lat="43.1621791" lon="12.1890889"><ele>265.0</ele><time>2026-04-04T17:04:32.043Z</time></trkpt><trkpt lat="43.1620609" lon="12.1890994"><ele>265.0</ele><time>2026-04-04T17:04:33.032Z</time></trkpt><trkpt lat="43.1619521" lon="12.1891048"><ele>265.0</ele><time>2026-04-04T17:04:34.026Z</time></trkpt><trkpt lat="43.1618508" lon="12.1891094"><ele>264.99999999999994</ele><time>2026-04-04T17:04:35.023Z</time></trkpt><trkpt lat="43.1617612" lon="12.1891125"><ele>265.0</ele><time>2026-04-04T17:04:36.026Z</time></trkpt><trkpt lat="43.1616814" lon="12.1891072"><ele>265.0</ele><time>2026-04-04T17:04:37.025Z</time></trkpt><trkpt lat="43.1616167" lon="12.1890974"><ele>265.0</ele><time>2026-04-04T17:04:38.03Z</time></trkpt><trkpt lat="43.1615536" lon="12.1890965"><ele>265.0</ele><time>2026-04-04T17:04:39.026Z</time></trkpt><trkpt lat="43.1614856" lon="12.1890872"><ele>264.99999999999994</ele><time>2026-04-04T17:04:40.033Z</time></trkpt><trkpt lat="43.1614139" lon="12.189072"><ele>265.0</ele><time>2026-04-04T17:04:41.028Z</time></trkpt><trkpt lat="43.1613507" lon="12.1890537"><ele>265.0</ele><time>2026-04-04T17:04:42.04Z</time></trkpt><trkpt lat="43.1612538" lon="12.1890208"><ele>265.0</ele><time>2026-04-04T17:04:44.025Z</time></trkpt><trkpt lat="43.1611484" lon="12.188958"><ele>265.0</ele><time>2026-04-04T17:04:46.035Z</time></trkpt><trkpt lat="43.1610545" lon="12.1888622"><ele>265.0</ele><time>2026-04-04T17:04:48.035Z</time></trkpt><trkpt lat="43.1609726" lon="12.1887437"><ele>265.2</ele><time>2026-04-04T17:04:50.05Z</time></trkpt><trkpt lat="43.160882" lon="12.1886248"><ele>265.4</ele><time>2026-04-04T17:04:52.032Z</time></trkpt><trkpt lat="43.1608284" lon="12.1885393"><ele>265.6</ele><time>2026-04-04T17:04:53.028Z</time></trkpt><trkpt lat="43.1607646" lon="12.1884368"><ele>265.8</ele><time>2026-04-04T17:04:54.034Z</time></trkpt><trkpt lat="43.1606955" lon="12.1883318"><ele>266.0</ele><time>2026-04-04T17:04:55.033Z</time></trkpt><trkpt lat="43.160638" lon="12.1882471"><ele>265.6666666666667</ele><time>2026-04-04T17:04:56.027Z</time></trkpt><trkpt lat="43.1605825" lon="12.1881617"><ele>265.33333333333337</ele><time>2026-04-04T17:04:57.03Z</time></trkpt><trkpt lat="43.1605333" lon="12.1880904"><ele>265.0</ele><time>2026-04-04T17:04:58.034Z</time></trkpt><trkpt lat="43.1604763" lon="12.1880282"><ele>264.6666666666667</ele><time>2026-04-04T17:04:59.032Z</time></trkpt><trkpt lat="43.1603875" lon="12.1878978"><ele>264.3333333333333</ele><time>2026-04-04T17:05:01.037Z</time></trkpt><trkpt lat="43.1603324" lon="12.1878256"><ele>264.0</ele><time>2026-04-04T17:05:02.032Z</time></trkpt><trkpt lat="43.1602678" lon="12.1877431"><ele>264.0</ele><time>2026-04-04T17:05:03.036Z</time></trkpt><trkpt lat="43.1602098" lon="12.1876762"><ele>264.0</ele><time>2026-04-04T17:05:04.041Z</time></trkpt><trkpt lat="43.1601715" lon="12.1875998"><ele>264.0</ele><time>2026-04-04T17:05:05.025Z</time></trkpt><trkpt lat="43.1600669" lon="12.1875006"><ele>264.0</ele><time>2026-04-04T17:05:07.032Z</time></trkpt><trkpt lat="43.1599963" lon="12.1874735"><ele>264.0</ele><time>2026-04-04T17:05:08.024Z</time></trkpt><trkpt lat="43.1599277" lon="12.1874283"><ele>264.0</ele><time>2026-04-04T17:05:09.036Z</time></trkpt><trkpt lat="43.159861" lon="12.1873853"><ele>263.59999999999997</ele><time>2026-04-04T17:05:10.029Z</time></trkpt><trkpt lat="43.159804" lon="12.1873394"><ele>263.2</ele><time>2026-04-04T17:05:11.033Z</time></trkpt><trkpt lat="43.1597475" lon="12.1872961"><ele>262.79999999999995</ele><time>2026-04-04T17:05:12.036Z</time></trkpt><trkpt lat="43.159649" lon="12.1872261"><ele>262.4</ele><time>2026-04-04T17:05:14.031Z</time></trkpt><trkpt lat="43.1595554" lon="12.1871689"><ele>262.0</ele><time>2026-04-04T17:05:16.031Z</time></trkpt><trkpt lat="43.1594354" lon="12.1871147"><ele>262.0</ele><time>2026-04-04T17:05:18.023Z</time></trkpt><trkpt lat="43.1593595" lon="12.1870755"><ele>262.0</ele><time>2026-04-04T17:05:19.032Z</time></trkpt><trkpt lat="43.1592857" lon="12.187014"><ele>262.0</ele><time>2026-04-04T17:05:20.029Z</time></trkpt><trkpt lat="43.1592087" lon="12.1869653"><ele>262.0</ele><time>2026-04-04T17:05:21.027Z</time></trkpt><trkpt lat="43.1591234" lon="12.1869141"><ele>262.0</ele><time>2026-04-04T17:05:22.04Z</time></trkpt><trkpt lat="43.1590214" lon="12.1868661"><ele>262.0</ele><time>2026-04-04T17:05:23.036Z</time></trkpt><trkpt lat="43.1589192" lon="12.1868177"><ele>262.0</ele><time>2026-04-04T17:05:24.042Z</time></trkpt><trkpt lat="43.1588182" lon="12.1867637"><ele>262.0</ele><time>2026-04-04T17:05:25.041Z</time></trkpt><trkpt lat="43.1587206" lon="12.1867058"><ele>262.0</ele><time>2026-04-04T17:05:26.048Z</time></trkpt><trkpt lat="43.1586477" lon="12.1866607"><ele>262.0</ele><time>2026-04-04T17:05:27.034Z</time></trkpt><trkpt lat="43.1585485" lon="12.186667"><ele>262.0</ele><time>2026-04-04T17:05:29.034Z</time></trkpt><trkpt lat="43.1585174" lon="12.1868011"><ele>262.0</ele><time>2026-04-04T17:05:31.038Z</time></trkpt><trkpt lat="43.1585069" lon="12.1869213"><ele>262.0</ele><time>2026-04-04T17:05:32.036Z</time></trkpt><trkpt lat="43.1584855" lon="12.1870765"><ele>262.0</ele><time>2026-04-04T17:05:33.037Z</time></trkpt><trkpt lat="43.1584477" lon="12.18722"><ele>262.0</ele><time>2026-04-04T17:05:34.039Z</time></trkpt><trkpt lat="43.1584186" lon="12.1873435"><ele>262.2</ele><time>2026-04-04T17:05:35.033Z</time></trkpt><trkpt lat="43.1584297" lon="12.1874601"><ele>262.4</ele><time>2026-04-04T17:05:36.038Z</time></trkpt><trkpt lat="43.1584721" lon="12.1875647"><ele>262.6</ele><time>2026-04-04T17:05:37.027Z</time></trkpt><trkpt lat="43.1585489" lon="12.1876501"><ele>262.8</ele><time>2026-04-04T17:05:38.037Z</time></trkpt><trkpt lat="43.1586406" lon="12.1877067"><ele>263.0</ele><time>2026-04-04T17:05:39.034Z</time></trkpt><trkpt lat="43.1587559" lon="12.1877608"><ele>263.0</ele><time>2026-04-04T17:05:40.032Z</time></trkpt><trkpt lat="43.1588806" lon="12.1878219"><ele>263.0</ele><time>2026-04-04T17:05:41.032Z</time></trkpt><trkpt lat="43.1589916" lon="12.1878677"><ele>263.0</ele><time>2026-04-04T17:05:42.04Z</time></trkpt><trkpt lat="43.1590803" lon="12.1879096"><ele>263.0</ele><time>2026-04-04T17:05:43.028Z</time></trkpt><trkpt lat="43.1591443" lon="12.1879597"><ele>263.0</ele><time>2026-04-04T17:05:44.036Z</time></trkpt><trkpt lat="43.1591686" lon="12.1880863"><ele>263.0</ele><time>2026-04-04T17:05:46.032Z</time></trkpt><trkpt lat="43.1590736" lon="12.1882239"><ele>263.0</ele><time>2026-04-04T17:05:48.037Z</time></trkpt><trkpt lat="43.1589699" lon="12.1883172"><ele>263.0</ele><time>2026-04-04T17:05:49.026Z</time></trkpt><trkpt lat="43.1588422" lon="12.1884245"><ele>263.0</ele><time>2026-04-04T17:05:50.038Z</time></trkpt><trkpt lat="43.1587" lon="12.1885445"><ele>263.6666666666667</ele><time>2026-04-04T17:05:51.036Z</time></trkpt><trkpt lat="43.1585592" lon="12.1886707"><ele>264.3333333333333</ele><time>2026-04-04T17:05:52.041Z</time></trkpt><trkpt lat="43.158414" lon="12.188794"><ele>265.0</ele><time>2026-04-04T17:05:53.042Z</time></trkpt><trkpt lat="43.1582756" lon="12.1889134"><ele>265.25</ele><time>2026-04-04T17:05:54.042Z</time></trkpt><trkpt lat="43.158138" lon="12.1890298"><ele>265.5</ele><time>2026-04-04T17:05:55.045Z</time></trkpt><trkpt lat="43.1580129" lon="12.1891431"><ele>265.75</ele><time>2026-04-04T17:05:56.038Z</time></trkpt><trkpt lat="43.1579082" lon="12.1892434"><ele>266.0</ele><time>2026-04-04T17:05:57.041Z</time></trkpt><trkpt lat="43.1578126" lon="12.1893284"><ele>266.0</ele><time>2026-04-04T17:05:58.037Z</time></trkpt><trkpt lat="43.1577321" lon="12.1894004"><ele>266.0</ele><time>2026-04-04T17:05:59.038Z</time></trkpt><trkpt lat="43.1576703" lon="12.1894647"><ele>266.0</ele><time>2026-04-04T17:06:00.037Z</time></trkpt><trkpt lat="43.1575978" lon="12.1895202"><ele>266.0</ele><time>2026-04-04T17:06:01.028Z</time></trkpt><trkpt lat="43.1575109" lon="12.1895899"><ele>266.0</ele><time>2026-04-04T17:06:02.035Z</time></trkpt><trkpt lat="43.1573934" lon="12.1896983"><ele>265.6666666666667</ele><time>2026-04-04T17:06:03.037Z</time></trkpt><trkpt lat="43.1572443" lon="12.1898323"><ele>265.3333333333333</ele><time>2026-04-04T17:06:04.033Z</time></trkpt><trkpt lat="43.1570818" lon="12.1899762"><ele>265.0</ele><time>2026-04-04T17:06:05.036Z</time></trkpt><trkpt lat="43.1569041" lon="12.1901355"><ele>265.0</ele><time>2026-04-04T17:06:06.03Z</time></trkpt><trkpt lat="43.1567225" lon="12.1903033"><ele>265.0</ele><time>2026-04-04T17:06:07.038Z</time></trkpt><trkpt lat="43.1565418" lon="12.1904786"><ele>265.0</ele><time>2026-04-04T17:06:08.042Z</time></trkpt><trkpt lat="43.1563727" lon="12.190638"><ele>267.0</ele><time>2026-04-04T17:06:09.04Z</time></trkpt><trkpt lat="43.1562206" lon="12.1907688"><ele>269.0</ele><time>2026-04-04T17:06:10.032Z</time></trkpt><trkpt lat="43.1560805" lon="12.1909009"><ele>271.0</ele><time>2026-04-04T17:06:11.035Z</time></trkpt><trkpt lat="43.1559396" lon="12.1910291"><ele>271.0</ele><time>2026-04-04T17:06:12.036Z</time></trkpt><trkpt lat="43.1557926" lon="12.1911538"><ele>271.0</ele><time>2026-04-04T17:06:13.025Z</time></trkpt><trkpt lat="43.1556519" lon="12.191287"><ele>271.0</ele><time>2026-04-04T17:06:14.032Z</time></trkpt><trkpt lat="43.1555037" lon="12.1914298"><ele>274.66666666666663</ele><time>2026-04-04T17:06:15.027Z</time></trkpt><trkpt lat="43.1553426" lon="12.1915807"><ele>278.3333333333333</ele><time>2026-04-04T17:06:16.038Z</time></trkpt><trkpt lat="43.1551755" lon="12.1917361"><ele>282.0</ele><time>2026-04-04T17:06:17.038Z</time></trkpt><trkpt lat="43.1550061" lon="12.1918977"><ele>287.6666666666667</ele><time>2026-04-04T17:06:18.034Z</time></trkpt><trkpt lat="43.1548363" lon="12.1920516"><ele>293.33333333333337</ele><time>2026-04-04T17:06:19.034Z</time></trkpt><trkpt lat="43.1546703" lon="12.1922062"><ele>299.0</ele><time>2026-04-04T17:06:20.024Z</time></trkpt><trkpt lat="43.1545029" lon="12.1923666"><ele>299.0</ele><time>2026-04-04T17:06:21.035Z</time></trkpt><trkpt lat="43.1543332" lon="12.1925179"><ele>299.0</ele><time>2026-04-04T17:06:22.039Z</time></trkpt><trkpt lat="43.1541688" lon="12.1926807"><ele>299.0</ele><time>2026-04-04T17:06:23.028Z</time></trkpt><trkpt lat="43.154009" lon="12.1928604"><ele>304.33333333333337</ele><time>2026-04-04T17:06:24.053Z</time></trkpt><trkpt lat="43.1538661" lon="12.1930652"><ele>309.6666666666667</ele><time>2026-04-04T17:06:25.037Z</time></trkpt><trkpt lat="43.1537325" lon="12.1932514"><ele>315.0</ele><time>2026-04-04T17:06:26.041Z</time></trkpt><trkpt lat="43.1535968" lon="12.1934281"><ele>315.0</ele><time>2026-04-04T17:06:27.037Z</time></trkpt><trkpt lat="43.1534462" lon="12.1935782"><ele>315.0</ele><time>2026-04-04T17:06:28.038Z</time></trkpt><trkpt lat="43.1533111" lon="12.1936973"><ele>315.0</ele><time>2026-04-04T17:06:29.033Z</time></trkpt><trkpt lat="43.1532006" lon="12.1937895"><ele>318.8</ele><time>2026-04-04T17:06:30.028Z</time></trkpt><trkpt lat="43.1531144" lon="12.1938707"><ele>322.6</ele><time>2026-04-04T17:06:31.029Z</time></trkpt><trkpt lat="43.1530601" lon="12.1939621"><ele>326.4</ele><time>2026-04-04T17:06:32.027Z</time></trkpt><trkpt lat="43.1530553" lon="12.1940995"><ele>330.2</ele><time>2026-04-04T17:06:33.028Z</time></trkpt><trkpt lat="43.1530865" lon="12.1942434"><ele>334.0</ele><time>2026-04-04T17:06:34.031Z</time></trkpt><trkpt lat="43.1531382" lon="12.1943703"><ele>334.0</ele><time>2026-04-04T17:06:35.033Z</time></trkpt><trkpt lat="43.1531736" lon="12.1944648"><ele>334.0</ele><time>2026-04-04T17:06:36.023Z</time></trkpt><trkpt lat="43.1531716" lon="12.1945597"><ele>334.0</ele><time>2026-04-04T17:06:37.024Z</time></trkpt><trkpt lat="43.1531237" lon="12.1946427"><ele>334.0</ele><time>2026-04-04T17:06:38.023Z</time></trkpt><trkpt lat="43.1530527" lon="12.194699"><ele>334.0</ele><time>2026-04-04T17:06:39.031Z</time></trkpt><trkpt lat="43.1529625" lon="12.1947051"><ele>334.0</ele><time>2026-04-04T17:06:40.037Z</time></trkpt><trkpt lat="43.1528524" lon="12.194673"><ele>334.0</ele><time>2026-04-04T17:06:41.021Z</time></trkpt><trkpt lat="43.1527052" lon="12.1946124"><ele>334.0</ele><time>2026-04-04T17:06:42.036Z</time></trkpt><trkpt lat="43.1525524" lon="12.1945583"><ele>334.0</ele><time>2026-04-04T17:06:43.028Z</time></trkpt><trkpt lat="43.1523916" lon="12.194534"><ele>341.0</ele><time>2026-04-04T17:06:44.032Z</time></trkpt><trkpt lat="43.1522047" lon="12.1945322"><ele>348.0</ele><time>2026-04-04T17:06:45.028Z</time></trkpt><trkpt lat="43.1520195" lon="12.1945474"><ele>355.0</ele><time>2026-04-04T17:06:46.024Z</time></trkpt><trkpt lat="43.1518235" lon="12.1945639"><ele>355.0</ele><time>2026-04-04T17:06:47.024Z</time></trkpt><trkpt lat="43.1516326" lon="12.1945728"><ele>355.0</ele><time>2026-04-04T17:06:48.023Z</time></trkpt><trkpt lat="43.1514407" lon="12.1945588"><ele>355.0</ele><time>2026-04-04T17:06:49.03Z</time></trkpt><trkpt lat="43.1512712" lon="12.1945298"><ele>356.5</ele><time>2026-04-04T17:06:50.037Z</time></trkpt><trkpt lat="43.1511221" lon="12.1945134"><ele>358.0</ele><time>2026-04-04T17:06:51.027Z</time></trkpt><trkpt lat="43.150989" lon="12.1945226"><ele>359.5</ele><time>2026-04-04T17:06:52.024Z</time></trkpt><trkpt lat="43.1508738" lon="12.1945512"><ele>361.0</ele><time>2026-04-04T17:06:53.023Z</time></trkpt><trkpt lat="43.1507818" lon="12.194591"><ele>361.0</ele><time>2026-04-04T17:06:54.026Z</time></trkpt><trkpt lat="43.1507188" lon="12.1946382"><ele>361.0</ele><time>2026-04-04T17:06:55.033Z</time></trkpt><trkpt lat="43.1506564" lon="12.194702"><ele>361.0</ele><time>2026-04-04T17:06:57.035Z</time></trkpt><trkpt lat="43.150563" lon="12.1947586"><ele>361.0</ele><time>2026-04-04T17:06:59.022Z</time></trkpt><trkpt lat="43.1504406" lon="12.1948"><ele>361.0</ele><time>2026-04-04T17:07:01.031Z</time></trkpt><trkpt lat="43.1503725" lon="12.1948152"><ele>361.0</ele><time>2026-04-04T17:07:02.037Z</time></trkpt><trkpt lat="43.1502825" lon="12.1948367"><ele>360.4</ele><time>2026-04-04T17:07:04.037Z</time></trkpt><trkpt lat="43.1502041" lon="12.1948454"><ele>359.8</ele><time>2026-04-04T17:07:07.023Z</time></trkpt><trkpt lat="43.1501516" lon="12.1947761"><ele>359.2</ele><time>2026-04-04T17:07:09.031Z</time></trkpt><trkpt lat="43.1501158" lon="12.1946247"><ele>358.59999999999997</ele><time>2026-04-04T17:07:11.024Z</time></trkpt><trkpt lat="43.1500922" lon="12.1945012"><ele>358.0</ele><time>2026-04-04T17:07:12.034Z</time></trkpt><trkpt lat="43.1500598" lon="12.1943637"><ele>358.0</ele><time>2026-04-04T17:07:13.029Z</time></trkpt><trkpt lat="43.1500151" lon="12.1942407"><ele>358.0</ele><time>2026-04-04T17:07:14.033Z</time></trkpt><trkpt lat="43.1499476" lon="12.1941275"><ele>358.0</ele><time>2026-04-04T17:07:15.048Z</time></trkpt><trkpt lat="43.1498659" lon="12.194026"><ele>358.0</ele><time>2026-04-04T17:07:16.033Z</time></trkpt><trkpt lat="43.1497758" lon="12.1939436"><ele>358.0</ele><time>2026-04-04T17:07:17.034Z</time></trkpt><trkpt lat="43.1496852" lon="12.1938621"><ele>358.0</ele><time>2026-04-04T17:07:18.028Z</time></trkpt><trkpt lat="43.1496075" lon="12.1937683"><ele>358.0</ele><time>2026-04-04T17:07:19.03Z</time></trkpt><trkpt lat="43.1495241" lon="12.1936556"><ele>358.0</ele><time>2026-04-04T17:07:20.037Z</time></trkpt><trkpt lat="43.1494528" lon="12.1935367"><ele>358.0</ele><time>2026-04-04T17:07:21.046Z</time></trkpt><trkpt lat="43.1493931" lon="12.1934167"><ele>358.0</ele><time>2026-04-04T17:07:22.026Z</time></trkpt><trkpt lat="43.1493411" lon="12.1932928"><ele>358.0</ele><time>2026-04-04T17:07:23.032Z</time></trkpt><trkpt lat="43.1492933" lon="12.1931745"><ele>358.0</ele><time>2026-04-04T17:07:24.036Z</time></trkpt><trkpt lat="43.1492562" lon="12.1930544"><ele>358.0</ele><time>2026-04-04T17:07:25.038Z</time></trkpt><trkpt lat="43.1492089" lon="12.1929369"><ele>358.0</ele><time>2026-04-04T17:07:26.028Z</time></trkpt><trkpt lat="43.1491617" lon="12.192812"><ele>358.0</ele><time>2026-04-04T17:07:27.03Z</time></trkpt><trkpt lat="43.1491125" lon="12.1926978"><ele>359.59999999999997</ele><time>2026-04-04T17:07:28.023Z</time></trkpt><trkpt lat="43.1490672" lon="12.192579"><ele>361.2</ele><time>2026-04-04T17:07:29.036Z</time></trkpt><trkpt lat="43.1490185" lon="12.1924499"><ele>362.8</ele><time>2026-04-04T17:07:30.033Z</time></trkpt><trkpt lat="43.1489857" lon="12.192305"><ele>364.4</ele><time>2026-04-04T17:07:31.032Z</time></trkpt><trkpt lat="43.1489745" lon="12.1921465"><ele>366.0</ele><time>2026-04-04T17:07:32.035Z</time></trkpt><trkpt lat="43.1489818" lon="12.1919601"><ele>366.25</ele><time>2026-04-04T17:07:33.044Z</time></trkpt><trkpt lat="43.1490123" lon="12.1917704"><ele>366.5</ele><time>2026-04-04T17:07:34.041Z</time></trkpt><trkpt lat="43.1490658" lon="12.1915819"><ele>366.75</ele><time>2026-04-04T17:07:35.034Z</time></trkpt><trkpt lat="43.1491215" lon="12.1913916"><ele>367.0</ele><time>2026-04-04T17:07:36.038Z</time></trkpt><trkpt lat="43.1491735" lon="12.1912144"><ele>367.0</ele><time>2026-04-04T17:07:37.034Z</time></trkpt><trkpt lat="43.1492252" lon="12.1910452"><ele>367.0</ele><time>2026-04-04T17:07:38.045Z</time></trkpt><trkpt lat="43.149278" lon="12.1908862"><ele>367.0</ele><time>2026-04-04T17:07:39.037Z</time></trkpt><trkpt lat="43.1493333" lon="12.190733"><ele>367.0</ele><time>2026-04-04T17:07:40.043Z</time></trkpt><trkpt lat="43.1493791" lon="12.1905979"><ele>367.66666666666663</ele><time>2026-04-04T17:07:41.034Z</time></trkpt><trkpt lat="43.1494172" lon="12.1904843"><ele>368.3333333333333</ele><time>2026-04-04T17:07:42.05Z</time></trkpt><trkpt lat="43.149434" lon="12.1903702"><ele>369.0</ele><time>2026-04-04T17:07:43.046Z</time></trkpt><trkpt lat="43.1494338" lon="12.1902588"><ele>369.6666666666667</ele><time>2026-04-04T17:07:44.033Z</time></trkpt><trkpt lat="43.1494218" lon="12.1901612"><ele>370.33333333333337</ele><time>2026-04-04T17:07:45.037Z</time></trkpt><trkpt lat="43.1494144" lon="12.1900718"><ele>371.0</ele><time>2026-04-04T17:07:46.037Z</time></trkpt><trkpt lat="43.1493798" lon="12.1899571"><ele>371.0</ele><time>2026-04-04T17:07:48.035Z</time></trkpt><trkpt lat="43.1492987" lon="12.1899216"><ele>371.0</ele><time>2026-04-04T17:07:49.034Z</time></trkpt><trkpt lat="43.1492091" lon="12.1898873"><ele>371.0</ele><time>2026-04-04T17:07:50.031Z</time></trkpt><trkpt lat="43.1491205" lon="12.1898743"><ele>371.0</ele><time>2026-04-04T17:07:51.038Z</time></trkpt><trkpt lat="43.1490249" lon="12.1898567"><ele>371.0</ele><time>2026-04-04T17:07:52.034Z</time></trkpt><trkpt lat="43.1489286" lon="12.1898326"><ele>373.0</ele><time>2026-04-04T17:07:53.031Z</time></trkpt><trkpt lat="43.1488369" lon="12.1897861"><ele>375.0</ele><time>2026-04-04T17:07:54.039Z</time></trkpt><trkpt lat="43.1487371" lon="12.1897284"><ele>377.0</ele><time>2026-04-04T17:07:55.036Z</time></trkpt><trkpt lat="43.1486316" lon="12.1896712"><ele>379.0</ele><time>2026-04-04T17:07:56.04Z</time></trkpt><trkpt lat="43.1485315" lon="12.1896175"><ele>381.0</ele><time>2026-04-04T17:07:57.025Z</time></trkpt><trkpt lat="43.1484379" lon="12.1895783"><ele>381.0</ele><time>2026-04-04T17:07:58.036Z</time></trkpt><trkpt lat="43.1483567" lon="12.1895411"><ele>381.0</ele><time>2026-04-04T17:07:59.036Z</time></trkpt><trkpt lat="43.1482752" lon="12.1895051"><ele>381.0</ele><time>2026-04-04T17:08:00.029Z</time></trkpt><trkpt lat="43.1481938" lon="12.1894775"><ele>381.0</ele><time>2026-04-04T17:08:01.025Z</time></trkpt><trkpt lat="43.1481031" lon="12.1894563"><ele>381.0</ele><time>2026-04-04T17:08:02.038Z</time></trkpt><trkpt lat="43.1480153" lon="12.1894481"><ele>381.0</ele><time>2026-04-04T17:08:03.032Z</time></trkpt><trkpt lat="43.1479228" lon="12.1894471"><ele>378.8</ele><time>2026-04-04T17:08:04.033Z</time></trkpt><trkpt lat="43.1478302" lon="12.1894478"><ele>376.6</ele><time>2026-04-04T17:08:05.029Z</time></trkpt><trkpt lat="43.1477366" lon="12.1894306"><ele>374.4</ele><time>2026-04-04T17:08:06.029Z</time></trkpt><trkpt lat="43.1476464" lon="12.1894107"><ele>372.2</ele><time>2026-04-04T17:08:07.03Z</time></trkpt><trkpt lat="43.147559" lon="12.1893955"><ele>370.0</ele><time>2026-04-04T17:08:08.03Z</time></trkpt><trkpt lat="43.1474751" lon="12.1893704"><ele>370.0</ele><time>2026-04-04T17:08:09.035Z</time></trkpt><trkpt lat="43.1473843" lon="12.1893437"><ele>370.0</ele><time>2026-04-04T17:08:10.022Z</time></trkpt><trkpt lat="43.1472881" lon="12.1893275"><ele>370.0</ele><time>2026-04-04T17:08:11.028Z</time></trkpt><trkpt lat="43.1471957" lon="12.1893084"><ele>370.0</ele><time>2026-04-04T17:08:12.031Z</time></trkpt><trkpt lat="43.1471193" lon="12.1893035"><ele>370.0</ele><time>2026-04-04T17:08:13.028Z</time></trkpt><trkpt lat="43.1470037" lon="12.1892995"><ele>367.6</ele><time>2026-04-04T17:08:15.033Z</time></trkpt><trkpt lat="43.1469392" lon="12.1892979"><ele>365.2</ele><time>2026-04-04T17:08:17.027Z</time></trkpt><trkpt lat="43.1468553" lon="12.1893191"><ele>362.79999999999995</ele><time>2026-04-04T17:08:19.033Z</time></trkpt><trkpt lat="43.1467401" lon="12.1893692"><ele>360.4</ele><time>2026-04-04T17:08:21.027Z</time></trkpt><trkpt lat="43.1466399" lon="12.1893815"><ele>358.0</ele><time>2026-04-04T17:08:23.031Z</time></trkpt><trkpt lat="43.1465566" lon="12.1893749"><ele>357.0</ele><time>2026-04-04T17:08:25.032Z</time></trkpt><trkpt lat="43.1464878" lon="12.1893265"><ele>356.0</ele><time>2026-04-04T17:08:27.041Z</time></trkpt><trkpt lat="43.1464306" lon="12.1892118"><ele>355.0</ele><time>2026-04-04T17:08:29.032Z</time></trkpt><trkpt lat="43.1463665" lon="12.1890571"><ele>354.0</ele><time>2026-04-04T17:08:31.04Z</time></trkpt><trkpt lat="43.1463111" lon="12.188956"><ele>353.0</ele><time>2026-04-04T17:08:32.037Z</time></trkpt><trkpt lat="43.1462603" lon="12.1888664"><ele>353.0</ele><time>2026-04-04T17:08:33.03Z</time></trkpt><trkpt lat="43.1462193" lon="12.188783"><ele>353.0</ele><time>2026-04-04T17:08:34.024Z</time></trkpt><trkpt lat="43.1461805" lon="12.1886951"><ele>353.0</ele><time>2026-04-04T17:08:35.04Z</time></trkpt><trkpt lat="43.1461447" lon="12.1886145"><ele>353.0</ele><time>2026-04-04T17:08:36.027Z</time></trkpt><trkpt lat="43.1460754" lon="12.1884986"><ele>353.0</ele><time>2026-04-04T17:08:38.033Z</time></trkpt><trkpt lat="43.1460208" lon="12.188407"><ele>353.0</ele><time>2026-04-04T17:08:40.034Z</time></trkpt><trkpt lat="43.1459397" lon="12.1883363"><ele>353.0</ele><time>2026-04-04T17:08:42.034Z</time></trkpt><trkpt lat="43.1458586" lon="12.188264"><ele>353.0</ele><time>2026-04-04T17:08:44.029Z</time></trkpt><trkpt lat="43.1457677" lon="12.1881661"><ele>353.0</ele><time>2026-04-04T17:08:46.043Z</time></trkpt><trkpt lat="43.1456843" lon="12.1880563"><ele>353.0</ele><time>2026-04-04T17:08:48.031Z</time></trkpt><trkpt lat="43.1456072" lon="12.187976"><ele>353.0</ele><time>2026-04-04T17:08:50.035Z</time></trkpt><trkpt lat="43.1455595" lon="12.1879117"><ele>354.0</ele><time>2026-04-04T17:08:51.03Z</time></trkpt><trkpt lat="43.1455019" lon="12.1878589"><ele>355.0</ele><time>2026-04-04T17:08:52.031Z</time></trkpt><trkpt lat="43.1454475" lon="12.1877926"><ele>356.0</ele><time>2026-04-04T17:08:53.033Z</time></trkpt><trkpt lat="43.1453962" lon="12.1877257"><ele>357.0</ele><time>2026-04-04T17:08:54.033Z</time></trkpt><trkpt lat="43.1452984" lon="12.1876348"><ele>358.0</ele><time>2026-04-04T17:08:56.033Z</time></trkpt><trkpt lat="43.145199" lon="12.1875657"><ele>359.0</ele><time>2026-04-04T17:08:58.033Z</time></trkpt><trkpt lat="43.1450882" lon="12.1875283"><ele>359.0</ele><time>2026-04-04T17:09:00.031Z</time></trkpt><trkpt lat="43.1449799" lon="12.1875471"><ele>359.0</ele><time>2026-04-04T17:09:02.028Z</time></trkpt><trkpt lat="43.1448593" lon="12.1875925"><ele>359.0</ele><time>2026-04-04T17:09:04.029Z</time></trkpt><trkpt lat="43.1447936" lon="12.187621"><ele>359.0</ele><time>2026-04-04T17:09:05.037Z</time></trkpt><trkpt lat="43.1447305" lon="12.1876603"><ele>359.0</ele><time>2026-04-04T17:09:06.028Z</time></trkpt><trkpt lat="43.1446242" lon="12.1877284"><ele>357.5</ele><time>2026-04-04T17:09:08.023Z</time></trkpt><trkpt lat="43.1445169" lon="12.1877422"><ele>356.0</ele><time>2026-04-04T17:09:10.033Z</time></trkpt><trkpt lat="43.1444006" lon="12.1877431"><ele>354.5</ele><time>2026-04-04T17:09:12.033Z</time></trkpt><trkpt lat="43.1443434" lon="12.1876425"><ele>353.0</ele><time>2026-04-04T17:09:14.029Z</time></trkpt><trkpt lat="43.1443489" lon="12.1874476"><ele>354.4</ele><time>2026-04-04T17:09:16.045Z</time></trkpt><trkpt lat="43.1443453" lon="12.1873094"><ele>355.79999999999995</ele><time>2026-04-04T17:09:17.028Z</time></trkpt><trkpt lat="43.1443435" lon="12.1871643"><ele>357.2</ele><time>2026-04-04T17:09:18.047Z</time></trkpt><trkpt lat="43.1443445" lon="12.1870314"><ele>358.6</ele><time>2026-04-04T17:09:19.032Z</time></trkpt><trkpt lat="43.1443425" lon="12.1869084"><ele>360.0</ele><time>2026-04-04T17:09:20.03Z</time></trkpt><trkpt lat="43.1443415" lon="12.186806"><ele>360.0</ele><time>2026-04-04T17:09:21.03Z</time></trkpt><trkpt lat="43.1443305" lon="12.1867162"><ele>360.0</ele><time>2026-04-04T17:09:22.031Z</time></trkpt><trkpt lat="43.1443206" lon="12.1865633"><ele>360.0</ele><time>2026-04-04T17:09:24.034Z</time></trkpt><trkpt lat="43.1443197" lon="12.1864593"><ele>360.0</ele><time>2026-04-04T17:09:26.028Z</time></trkpt><trkpt lat="43.1442429" lon="12.1864196"><ele>360.0</ele><time>2026-04-04T17:09:29.034Z</time></trkpt><trkpt lat="43.1442595" lon="12.1863209"><ele>360.0</ele><time>2026-04-04T17:09:32.027Z</time></trkpt><trkpt lat="43.1443333" lon="12.1862071"><ele>361.6666666666667</ele><time>2026-04-04T17:09:34.031Z</time></trkpt><trkpt lat="43.144366" lon="12.1860863"><ele>363.3333333333333</ele><time>2026-04-04T17:09:36.033Z</time></trkpt><trkpt lat="43.1443707" lon="12.1859412"><ele>365.0</ele><time>2026-04-04T17:09:38.024Z</time></trkpt><trkpt lat="43.144371" lon="12.1858503"><ele>366.66666666666663</ele><time>2026-04-04T17:09:39.028Z</time></trkpt><trkpt lat="43.1443634" lon="12.1857583"><ele>368.3333333333333</ele><time>2026-04-04T17:09:40.024Z</time></trkpt><trkpt lat="43.1443418" lon="12.1856695"><ele>370.0</ele><time>2026-04-04T17:09:41.034Z</time></trkpt><trkpt lat="43.1443206" lon="12.1855838"><ele>372.16666666666663</ele><time>2026-04-04T17:09:42.035Z</time></trkpt><trkpt lat="43.144301" lon="12.1854937"><ele>374.3333333333333</ele><time>2026-04-04T17:09:43.021Z</time></trkpt><trkpt lat="43.1442675" lon="12.1853947"><ele>376.5</ele><time>2026-04-04T17:09:44.038Z</time></trkpt><trkpt lat="43.1442374" lon="12.1852939"><ele>378.6666666666667</ele><time>2026-04-04T17:09:45.029Z</time></trkpt><trkpt lat="43.1442089" lon="12.1851976"><ele>380.83333333333337</ele><time>2026-04-04T17:09:46.039Z</time></trkpt><trkpt lat="43.1441695" lon="12.1850922"><ele>383.0</ele><time>2026-04-04T17:09:47.028Z</time></trkpt><trkpt lat="43.1441401" lon="12.185"><ele>383.0</ele><time>2026-04-04T17:09:48.027Z</time></trkpt><trkpt lat="43.1441237" lon="12.1849061"><ele>383.0</ele><time>2026-04-04T17:09:49.033Z</time></trkpt><trkpt lat="43.1441048" lon="12.1847471"><ele>383.0</ele><time>2026-04-04T17:09:51.027Z</time></trkpt><trkpt lat="43.1440863" lon="12.184606"><ele>383.0</ele><time>2026-04-04T17:09:53.022Z</time></trkpt><trkpt lat="43.1440272" lon="12.1844677"><ele>383.0</ele><time>2026-04-04T17:09:55.03Z</time></trkpt><trkpt lat="43.143986" lon="12.1843992"><ele>383.79999999999995</ele><time>2026-04-04T17:09:56.027Z</time></trkpt><trkpt lat="43.1439096" lon="12.1842695"><ele>384.6</ele><time>2026-04-04T17:09:58.026Z</time></trkpt><trkpt lat="43.1438711" lon="12.184199"><ele>385.4</ele><time>2026-04-04T17:09:59.039Z</time></trkpt><trkpt lat="43.1438278" lon="12.1841333"><ele>386.20000000000005</ele><time>2026-04-04T17:10:00.033Z</time></trkpt><trkpt lat="43.1437385" lon="12.1840432"><ele>387.0</ele><time>2026-04-04T17:10:02.037Z</time></trkpt><trkpt lat="43.1436701" lon="12.1839475"><ele>390.40000000000003</ele><time>2026-04-04T17:10:04.026Z</time></trkpt><trkpt lat="43.1436024" lon="12.1838593"><ele>393.8</ele><time>2026-04-04T17:10:06.027Z</time></trkpt><trkpt lat="43.1435153" lon="12.1837588"><ele>397.2</ele><time>2026-04-04T17:10:08.031Z</time></trkpt><trkpt lat="43.143432" lon="12.1836578"><ele>400.6</ele><time>2026-04-04T17:10:10.031Z</time></trkpt><trkpt lat="43.1433835" lon="12.1835978"><ele>404.0</ele><time>2026-04-04T17:10:11.033Z</time></trkpt><trkpt lat="43.1433334" lon="12.183535"><ele>404.0</ele><time>2026-04-04T17:10:12.027Z</time></trkpt><trkpt lat="43.14324" lon="12.1834195"><ele>404.0</ele><time>2026-04-04T17:10:14.026Z</time></trkpt><trkpt lat="43.1431615" lon="12.1833229"><ele>404.0</ele><time>2026-04-04T17:10:16.032Z</time></trkpt><trkpt lat="43.1430743" lon="12.1832627"><ele>404.0</ele><time>2026-04-04T17:10:18.026Z</time></trkpt><trkpt lat="43.1429712" lon="12.1831994"><ele>404.0</ele><time>2026-04-04T17:10:20.036Z</time></trkpt><trkpt lat="43.1429036" lon="12.1831707"><ele>405.57142857142856</ele><time>2026-04-04T17:10:21.033Z</time></trkpt><trkpt lat="43.14284" lon="12.18315"><ele>407.1428571428571</ele><time>2026-04-04T17:10:22.027Z</time></trkpt><trkpt lat="43.1427695" lon="12.1831305"><ele>408.7142857142857</ele><time>2026-04-04T17:10:23.03Z</time></trkpt><trkpt lat="43.1426996" lon="12.1831049"><ele>410.2857142857143</ele><time>2026-04-04T17:10:24.031Z</time></trkpt><trkpt lat="43.1426265" lon="12.1830825"><ele>411.8571428571429</ele><time>2026-04-04T17:10:25.035Z</time></trkpt><trkpt lat="43.142548" lon="12.1830595"><ele>413.42857142857144</ele><time>2026-04-04T17:10:26.034Z</time></trkpt><trkpt lat="43.1424675" lon="12.1830237"><ele>415.0</ele><time>2026-04-04T17:10:27.031Z</time></trkpt><trkpt lat="43.1423996" lon="12.182988"><ele>414.0</ele><time>2026-04-04T17:10:28.032Z</time></trkpt><trkpt lat="43.1423378" lon="12.1829662"><ele>413.0</ele><time>2026-04-04T17:10:29.028Z</time></trkpt><trkpt lat="43.1422451" lon="12.1829204"><ele>412.0</ele><time>2026-04-04T17:10:31.041Z</time></trkpt><trkpt lat="43.1421528" lon="12.1828776"><ele>411.0</ele><time>2026-04-04T17:10:33.035Z</time></trkpt><trkpt lat="43.1420636" lon="12.1828237"><ele>410.0</ele><time>2026-04-04T17:10:35.036Z</time></trkpt><trkpt lat="43.1419576" lon="12.1827516"><ele>409.99999999999994</ele><time>2026-04-04T17:10:37.029Z</time></trkpt><trkpt lat="43.1418494" lon="12.1826958"><ele>410.0</ele><time>2026-04-04T17:10:39.028Z</time></trkpt><trkpt lat="43.1417802" lon="12.1826814"><ele>410.0</ele><time>2026-04-04T17:10:41.034Z</time></trkpt><trkpt lat="43.1417047" lon="12.1827037"><ele>410.0</ele><time>2026-04-04T17:10:52.043Z</time></trkpt><trkpt lat="43.1416358" lon="12.1826963"><ele>409.99999999999994</ele><time>2026-04-04T17:10:55.027Z</time></trkpt><trkpt lat="43.1415528" lon="12.1826845"><ele>410.0</ele><time>2026-04-04T17:11:02.033Z</time></trkpt><trkpt lat="43.1414612" lon="12.1826565"><ele>410.3333333333333</ele><time>2026-04-04T17:11:04.042Z</time></trkpt><trkpt lat="43.1413788" lon="12.1826503"><ele>410.66666666666663</ele><time>2026-04-04T17:11:06.034Z</time></trkpt><trkpt lat="43.141307" lon="12.1826627"><ele>411.0</ele><time>2026-04-04T17:11:08.033Z</time></trkpt><trkpt lat="43.1411924" lon="12.1827077"><ele>411.33333333333337</ele><time>2026-04-04T17:11:10.039Z</time></trkpt><trkpt lat="43.1411247" lon="12.1827371"><ele>411.6666666666667</ele><time>2026-04-04T17:11:11.034Z</time></trkpt><trkpt lat="43.14105" lon="12.1827658"><ele>412.0</ele><time>2026-04-04T17:11:12.04Z</time></trkpt><trkpt lat="43.1409719" lon="12.182789"><ele>412.00000000000006</ele><time>2026-04-04T17:11:13.045Z</time></trkpt><trkpt lat="43.1409059" lon="12.1827948"><ele>412.0</ele><time>2026-04-04T17:11:14.032Z</time></trkpt><trkpt lat="43.1408181" lon="12.1827924"><ele>412.0</ele><time>2026-04-04T17:11:16.033Z</time></trkpt><trkpt lat="43.140733" lon="12.1828385"><ele>412.0</ele><time>2026-04-04T17:11:18.036Z</time></trkpt><trkpt lat="43.140622" lon="12.1828777"><ele>412.00000000000006</ele><time>2026-04-04T17:11:20.035Z</time></trkpt><trkpt lat="43.1405581" lon="12.1828988"><ele>412.0</ele><time>2026-04-04T17:11:21.028Z</time></trkpt><trkpt lat="43.1404692" lon="12.1829272"><ele>412.5</ele><time>2026-04-04T17:11:22.044Z</time></trkpt><trkpt lat="43.1403676" lon="12.1829587"><ele>413.0</ele><time>2026-04-04T17:11:23.036Z</time></trkpt><trkpt lat="43.140251" lon="12.1829965"><ele>413.5</ele><time>2026-04-04T17:11:24.035Z</time></trkpt><trkpt lat="43.1401232" lon="12.1830165"><ele>414.0</ele><time>2026-04-04T17:11:25.053Z</time></trkpt><trkpt lat="43.1399891" lon="12.183023"><ele>414.5</ele><time>2026-04-04T17:11:26.04Z</time></trkpt><trkpt lat="43.1398614" lon="12.183024"><ele>415.0</ele><time>2026-04-04T17:11:27.027Z</time></trkpt><trkpt lat="43.1397387" lon="12.1830333"><ele>415.5</ele><time>2026-04-04T17:11:28.033Z</time></trkpt><trkpt lat="43.1396275" lon="12.1830582"><ele>416.0</ele><time>2026-04-04T17:11:29.036Z</time></trkpt><trkpt lat="43.1395209" lon="12.1830759"><ele>415.99999999999994</ele><time>2026-04-04T17:11:30.037Z</time></trkpt><trkpt lat="43.1394231" lon="12.1830764"><ele>416.0</ele><time>2026-04-04T17:11:31.035Z</time></trkpt><trkpt lat="43.1393426" lon="12.1830761"><ele>416.0</ele><time>2026-04-04T17:11:32.033Z</time></trkpt><trkpt lat="43.1392672" lon="12.1830803"><ele>416.0</ele><time>2026-04-04T17:11:33.04Z</time></trkpt><trkpt lat="43.1391792" lon="12.1830948"><ele>415.99999999999994</ele><time>2026-04-04T17:11:34.028Z</time></trkpt><trkpt lat="43.1390878" lon="12.1831238"><ele>416.0</ele><time>2026-04-04T17:11:35.035Z</time></trkpt><trkpt lat="43.1389947" lon="12.1831396"><ele>415.7142857142857</ele><time>2026-04-04T17:11:36.043Z</time></trkpt><trkpt lat="43.1389092" lon="12.1831461"><ele>415.42857142857144</ele><time>2026-04-04T17:11:37.038Z</time></trkpt><trkpt lat="43.1388367" lon="12.1831473"><ele>415.14285714285717</ele><time>2026-04-04T17:11:38.036Z</time></trkpt><trkpt lat="43.1387688" lon="12.1831387"><ele>414.8571428571429</ele><time>2026-04-04T17:11:39.038Z</time></trkpt><trkpt lat="43.1387038" lon="12.1831295"><ele>414.57142857142856</ele><time>2026-04-04T17:11:40.033Z</time></trkpt><trkpt lat="43.13864" lon="12.183117"><ele>414.28571428571433</ele><time>2026-04-04T17:11:41.033Z</time></trkpt><trkpt lat="43.1385666" lon="12.1831027"><ele>414.0</ele><time>2026-04-04T17:11:42.042Z</time></trkpt><trkpt lat="43.1384893" lon="12.1830916"><ele>414.00000000000006</ele><time>2026-04-04T17:11:43.039Z</time></trkpt><trkpt lat="43.1384169" lon="12.1830782"><ele>414.0</ele><time>2026-04-04T17:11:44.031Z</time></trkpt><trkpt lat="43.1383423" lon="12.1830648"><ele>414.0</ele><time>2026-04-04T17:11:45.033Z</time></trkpt><trkpt lat="43.1382693" lon="12.1830478"><ele>414.0</ele><time>2026-04-04T17:11:46.04Z</time></trkpt><trkpt lat="43.1381949" lon="12.1830362"><ele>414.0</ele><time>2026-04-04T17:11:47.039Z</time></trkpt><trkpt lat="43.1381271" lon="12.1830331"><ele>414.00000000000006</ele><time>2026-04-04T17:11:48.04Z</time></trkpt><trkpt lat="43.1380545" lon="12.1830289"><ele>414.0</ele><time>2026-04-04T17:11:49.038Z</time></trkpt><trkpt lat="43.1379904" lon="12.1830273"><ele>412.6</ele><time>2026-04-04T17:11:50.039Z</time></trkpt><trkpt lat="43.1379248" lon="12.1830258"><ele>411.2</ele><time>2026-04-04T17:11:51.029Z</time></trkpt><trkpt lat="43.1378032" lon="12.1829992"><ele>409.8</ele><time>2026-04-04T17:11:53.027Z</time></trkpt><trkpt lat="43.1377409" lon="12.1829839"><ele>408.40000000000003</ele><time>2026-04-04T17:11:54.036Z</time></trkpt><trkpt lat="43.137635" lon="12.1829365"><ele>407.0</ele><time>2026-04-04T17:11:56.04Z</time></trkpt><trkpt lat="43.1375562" lon="12.1828835"><ele>406.99999999999994</ele><time>2026-04-04T17:11:58.051Z</time></trkpt><trkpt lat="43.1374829" lon="12.1828291"><ele>407.0</ele><time>2026-04-04T17:12:00.031Z</time></trkpt><trkpt lat="43.1374196" lon="12.1827937"><ele>407.0</ele><time>2026-04-04T17:12:01.032Z</time></trkpt><trkpt lat="43.1373467" lon="12.1827613"><ele>407.0</ele><time>2026-04-04T17:12:02.044Z</time></trkpt><trkpt lat="43.1372752" lon="12.182743"><ele>406.99999999999994</ele><time>2026-04-04T17:12:03.029Z</time></trkpt><trkpt lat="43.1372036" lon="12.1827311"><ele>407.0</ele><time>2026-04-04T17:12:04.039Z</time></trkpt><trkpt lat="43.1371273" lon="12.1827259"><ele>405.49999999999994</ele><time>2026-04-04T17:12:05.045Z</time></trkpt><trkpt lat="43.1370572" lon="12.1827203"><ele>404.0</ele><time>2026-04-04T17:12:06.046Z</time></trkpt><trkpt lat="43.136983" lon="12.1827226"><ele>402.5</ele><time>2026-04-04T17:12:07.036Z</time></trkpt><trkpt lat="43.1369007" lon="12.1827232"><ele>401.0</ele><time>2026-04-04T17:12:08.035Z</time></trkpt><trkpt lat="43.1368232" lon="12.1827272"><ele>399.49999999999994</ele><time>2026-04-04T17:12:09.026Z</time></trkpt><trkpt lat="43.1367431" lon="12.1827246"><ele>398.0</ele><time>2026-04-04T17:12:10.034Z</time></trkpt><trkpt lat="43.1366616" lon="12.1827218"><ele>397.99999999999994</ele><time>2026-04-04T17:12:11.036Z</time></trkpt><trkpt lat="43.1365849" lon="12.1827153"><ele>398.0</ele><time>2026-04-04T17:12:12.032Z</time></trkpt><trkpt lat="43.1365123" lon="12.182688"><ele>398.0</ele><time>2026-04-04T17:12:13.042Z</time></trkpt><trkpt lat="43.1364342" lon="12.1826483"><ele>398.0</ele><time>2026-04-04T17:12:14.034Z</time></trkpt><trkpt lat="43.1363635" lon="12.1826089"><ele>397.99999999999994</ele><time>2026-04-04T17:12:15.034Z</time></trkpt><trkpt lat="43.1362922" lon="12.1825741"><ele>398.0</ele><time>2026-04-04T17:12:16.034Z</time></trkpt><trkpt lat="43.1362135" lon="12.1825455"><ele>397.16666666666663</ele><time>2026-04-04T17:12:17.036Z</time></trkpt><trkpt lat="43.1361311" lon="12.1825038"><ele>396.3333333333333</ele><time>2026-04-04T17:12:18.036Z</time></trkpt><trkpt lat="43.1360576" lon="12.1824588"><ele>395.5</ele><time>2026-04-04T17:12:19.037Z</time></trkpt><trkpt lat="43.1359842" lon="12.1824286"><ele>394.66666666666663</ele><time>2026-04-04T17:12:20.04Z</time></trkpt><trkpt lat="43.1359056" lon="12.1823953"><ele>393.8333333333333</ele><time>2026-04-04T17:12:21.035Z</time></trkpt><trkpt lat="43.1358361" lon="12.1823598"><ele>393.0</ele><time>2026-04-04T17:12:22.037Z</time></trkpt><trkpt lat="43.1357816" lon="12.1823112"><ele>392.5</ele><time>2026-04-04T17:12:23.037Z</time></trkpt><trkpt lat="43.1356754" lon="12.1822373"><ele>392.0</ele><time>2026-04-04T17:12:25.037Z</time></trkpt><trkpt lat="43.1356119" lon="12.1822125"><ele>391.5</ele><time>2026-04-04T17:12:26.034Z</time></trkpt><trkpt lat="43.1355515" lon="12.1821657"><ele>391.0</ele><time>2026-04-04T17:12:27.032Z</time></trkpt><trkpt lat="43.1354887" lon="12.1821216"><ele>390.5</ele><time>2026-04-04T17:12:28.028Z</time></trkpt><trkpt lat="43.1353822" lon="12.1820382"><ele>390.0</ele><time>2026-04-04T17:12:30.043Z</time></trkpt><trkpt lat="43.1353268" lon="12.1819743"><ele>390.0</ele><time>2026-04-04T17:12:31.037Z</time></trkpt><trkpt lat="43.1352659" lon="12.1819094"><ele>390.0</ele><time>2026-04-04T17:12:32.035Z</time></trkpt><trkpt lat="43.135208" lon="12.1818499"><ele>390.0</ele><time>2026-04-04T17:12:33.031Z</time></trkpt><trkpt lat="43.1351521" lon="12.1817946"><ele>390.0</ele><time>2026-04-04T17:12:34.04Z</time></trkpt><trkpt lat="43.1350923" lon="12.1817355"><ele>390.0</ele><time>2026-04-04T17:12:35.026Z</time></trkpt><trkpt lat="43.1350209" lon="12.1816667"><ele>390.0</ele><time>2026-04-04T17:12:36.045Z</time></trkpt><trkpt lat="43.1349361" lon="12.1815823"><ele>390.75</ele><time>2026-04-04T17:12:37.043Z</time></trkpt><trkpt lat="43.1348399" lon="12.1814938"><ele>391.5</ele><time>2026-04-04T17:12:38.033Z</time></trkpt><trkpt lat="43.1347432" lon="12.181408"><ele>392.25</ele><time>2026-04-04T17:12:39.038Z</time></trkpt><trkpt lat="43.1346305" lon="12.1813376"><ele>393.0</ele><time>2026-04-04T17:12:40.047Z</time></trkpt><trkpt lat="43.1345082" lon="12.181279"><ele>393.0</ele><time>2026-04-04T17:12:41.042Z</time></trkpt><trkpt lat="43.1344015" lon="12.1812074"><ele>393.0</ele><time>2026-04-04T17:12:42.036Z</time></trkpt><trkpt lat="43.1342927" lon="12.1811424"><ele>393.0</ele><time>2026-04-04T17:12:43.042Z</time></trkpt><trkpt lat="43.1341735" lon="12.1810758"><ele>393.0</ele><time>2026-04-04T17:12:44.028Z</time></trkpt><trkpt lat="43.1340372" lon="12.1810155"><ele>390.66666666666663</ele><time>2026-04-04T17:12:45.04Z</time></trkpt><trkpt lat="43.1338768" lon="12.1809474"><ele>388.3333333333333</ele><time>2026-04-04T17:12:46.04Z</time></trkpt><trkpt lat="43.1337002" lon="12.1808656"><ele>386.0</ele><time>2026-04-04T17:12:47.04Z</time></trkpt><trkpt lat="43.1335354" lon="12.1807855"><ele>386.0</ele><time>2026-04-04T17:12:48.041Z</time></trkpt><trkpt lat="43.1333659" lon="12.1807052"><ele>386.0</ele><time>2026-04-04T17:12:49.039Z</time></trkpt><trkpt lat="43.1332062" lon="12.1806404"><ele>386.0</ele><time>2026-04-04T17:12:50.032Z</time></trkpt><trkpt lat="43.1330487" lon="12.1805695"><ele>386.0</ele><time>2026-04-04T17:12:51.036Z</time></trkpt><trkpt lat="43.1328925" lon="12.1805023"><ele>386.0</ele><time>2026-04-04T17:12:52.03Z</time></trkpt><trkpt lat="43.1327405" lon="12.1804442"><ele>386.0</ele><time>2026-04-04T17:12:53.031Z</time></trkpt><trkpt lat="43.1326004" lon="12.1803949"><ele>386.0</ele><time>2026-04-04T17:12:54.042Z</time></trkpt><trkpt lat="43.1324745" lon="12.1803428"><ele>386.0</ele><time>2026-04-04T17:12:55.029Z</time></trkpt><trkpt lat="43.1323525" lon="12.1802897"><ele>386.0</ele><time>2026-04-04T17:12:56.041Z</time></trkpt><trkpt lat="43.1322323" lon="12.1802294"><ele>386.0</ele><time>2026-04-04T17:12:57.037Z</time></trkpt><trkpt lat="43.13212" lon="12.1801831"><ele>385.4</ele><time>2026-04-04T17:12:58.034Z</time></trkpt><trkpt lat="43.1320137" lon="12.1801326"><ele>384.8</ele><time>2026-04-04T17:12:59.036Z</time></trkpt><trkpt lat="43.1319123" lon="12.1800823"><ele>384.2</ele><time>2026-04-04T17:13:00.038Z</time></trkpt><trkpt lat="43.1318127" lon="12.1800352"><ele>383.59999999999997</ele><time>2026-04-04T17:13:01.038Z</time></trkpt><trkpt lat="43.1317188" lon="12.1800036"><ele>383.0</ele><time>2026-04-04T17:13:02.039Z</time></trkpt><trkpt lat="43.1316395" lon="12.179982"><ele>383.0</ele><time>2026-04-04T17:13:03.032Z</time></trkpt><trkpt lat="43.1315668" lon="12.179952"><ele>383.0</ele><time>2026-04-04T17:13:04.038Z</time></trkpt><trkpt lat="43.1314884" lon="12.1798943"><ele>383.0</ele><time>2026-04-04T17:13:05.032Z</time></trkpt><trkpt lat="43.131401" lon="12.1798199"><ele>383.0</ele><time>2026-04-04T17:13:06.041Z</time></trkpt><trkpt lat="43.1312952" lon="12.1797418"><ele>383.0</ele><time>2026-04-04T17:13:07.039Z</time></trkpt><trkpt lat="43.1311739" lon="12.1796673"><ele>381.0</ele><time>2026-04-04T17:13:08.031Z</time></trkpt><trkpt lat="43.1310359" lon="12.1796017"><ele>379.0</ele><time>2026-04-04T17:13:09.027Z</time></trkpt><trkpt lat="43.130883" lon="12.1795455"><ele>377.0</ele><time>2026-04-04T17:13:10.035Z</time></trkpt><trkpt lat="43.1307299" lon="12.1794903"><ele>377.5</ele><time>2026-04-04T17:13:11.044Z</time></trkpt><trkpt lat="43.1305877" lon="12.1794366"><ele>378.0</ele><time>2026-04-04T17:13:12.034Z</time></trkpt><trkpt lat="43.1304463" lon="12.1793843"><ele>378.5</ele><time>2026-04-04T17:13:13.03Z</time></trkpt><trkpt lat="43.1303127" lon="12.1793321"><ele>379.0</ele><time>2026-04-04T17:13:14.031Z</time></trkpt><trkpt lat="43.1301903" lon="12.1792728"><ele>379.0</ele><time>2026-04-04T17:13:15.036Z</time></trkpt><trkpt lat="43.1300671" lon="12.1792212"><ele>379.0</ele><time>2026-04-04T17:13:16.035Z</time></trkpt><trkpt lat="43.1299399" lon="12.179179"><ele>379.0</ele><time>2026-04-04T17:13:17.038Z</time></trkpt><trkpt lat="43.1298109" lon="12.1791095"><ele>379.0</ele><time>2026-04-04T17:13:18.038Z</time></trkpt><trkpt lat="43.1296816" lon="12.1790398"><ele>377.5</ele><time>2026-04-04T17:13:19.032Z</time></trkpt><trkpt lat="43.1295506" lon="12.1789796"><ele>376.0</ele><time>2026-04-04T17:13:20.036Z</time></trkpt><trkpt lat="43.1294227" lon="12.1789096"><ele>374.5</ele><time>2026-04-04T17:13:21.057Z</time></trkpt><trkpt lat="43.129298" lon="12.1788426"><ele>373.0</ele><time>2026-04-04T17:13:22.033Z</time></trkpt><trkpt lat="43.1291791" lon="12.1787829"><ele>373.75</ele><time>2026-04-04T17:13:23.037Z</time></trkpt><trkpt lat="43.1290537" lon="12.1787161"><ele>374.5</ele><time>2026-04-04T17:13:24.038Z</time></trkpt><trkpt lat="43.1289219" lon="12.1786581"><ele>375.25</ele><time>2026-04-04T17:13:25.033Z</time></trkpt><trkpt lat="43.1287989" lon="12.1785953"><ele>376.0</ele><time>2026-04-04T17:13:26.03Z</time></trkpt><trkpt lat="43.1286814" lon="12.1785358"><ele>376.0</ele><time>2026-04-04T17:13:27.033Z</time></trkpt><trkpt lat="43.1285518" lon="12.178476"><ele>376.0</ele><time>2026-04-04T17:13:28.037Z</time></trkpt><trkpt lat="43.1284297" lon="12.1784121"><ele>376.0</ele><time>2026-04-04T17:13:29.037Z</time></trkpt><trkpt lat="43.128297" lon="12.1783426"><ele>376.0</ele><time>2026-04-04T17:13:30.039Z</time></trkpt><trkpt lat="43.1281808" lon="12.1782491"><ele>375.25</ele><time>2026-04-04T17:13:31.024Z</time></trkpt><trkpt lat="43.1280721" lon="12.1781534"><ele>374.5</ele><time>2026-04-04T17:13:32.042Z</time></trkpt><trkpt lat="43.1279756" lon="12.1780535"><ele>373.75</ele><time>2026-04-04T17:13:33.03Z</time></trkpt><trkpt lat="43.1278902" lon="12.1779495"><ele>373.0</ele><time>2026-04-04T17:13:34.033Z</time></trkpt><trkpt lat="43.1278009" lon="12.1778355"><ele>373.0</ele><time>2026-04-04T17:13:35.039Z</time></trkpt><trkpt lat="43.127707" lon="12.17772"><ele>373.0</ele><time>2026-04-04T17:13:36.034Z</time></trkpt><trkpt lat="43.1276096" lon="12.1776059"><ele>373.0</ele><time>2026-04-04T17:13:37.043Z</time></trkpt><trkpt lat="43.1275335" lon="12.1775086"><ele>373.0</ele><time>2026-04-04T17:13:38.04Z</time></trkpt><trkpt lat="43.1274742" lon="12.1774296"><ele>373.0</ele><time>2026-04-04T17:13:39.032Z</time></trkpt><trkpt lat="43.1274301" lon="12.1773642"><ele>373.3333333333333</ele><time>2026-04-04T17:13:40.039Z</time></trkpt><trkpt lat="43.1273637" lon="12.177291"><ele>373.66666666666663</ele><time>2026-04-04T17:13:42.041Z</time></trkpt><trkpt lat="43.1272705" lon="12.1772655"><ele>374.0</ele><time>2026-04-04T17:13:44.033Z</time></trkpt><trkpt lat="43.1271658" lon="12.1772982"><ele>374.3333333333333</ele><time>2026-04-04T17:13:46.024Z</time></trkpt><trkpt lat="43.1271121" lon="12.1773531"><ele>374.6666666666667</ele><time>2026-04-04T17:13:47.033Z</time></trkpt><trkpt lat="43.1270518" lon="12.1774501"><ele>375.0</ele><time>2026-04-04T17:13:48.032Z</time></trkpt><trkpt lat="43.1269834" lon="12.1775554"><ele>375.0</ele><time>2026-04-04T17:13:49.022Z</time></trkpt><trkpt lat="43.1268993" lon="12.1776718"><ele>375.0</ele><time>2026-04-04T17:13:50.037Z</time></trkpt><trkpt lat="43.1268124" lon="12.1777665"><ele>375.0</ele><time>2026-04-04T17:13:51.046Z</time></trkpt><trkpt lat="43.1267311" lon="12.1778483"><ele>375.0</ele><time>2026-04-04T17:13:52.038Z</time></trkpt><trkpt lat="43.1266431" lon="12.1778955"><ele>375.0</ele><time>2026-04-04T17:13:53.042Z</time></trkpt><trkpt lat="43.126519" lon="12.1779107"><ele>377.5</ele><time>2026-04-04T17:13:54.033Z</time></trkpt><trkpt lat="43.1263778" lon="12.1779264"><ele>380.0</ele><time>2026-04-04T17:13:55.035Z</time></trkpt><trkpt lat="43.1262241" lon="12.1779228"><ele>382.5</ele><time>2026-04-04T17:13:56.03Z</time></trkpt><trkpt lat="43.1260793" lon="12.1779303"><ele>385.0</ele><time>2026-04-04T17:13:57.032Z</time></trkpt><trkpt lat="43.1259516" lon="12.1779382"><ele>385.0</ele><time>2026-04-04T17:13:58.032Z</time></trkpt><trkpt lat="43.1258347" lon="12.1779467"><ele>385.0</ele><time>2026-04-04T17:13:59.027Z</time></trkpt><trkpt lat="43.1257282" lon="12.1779639"><ele>385.0</ele><time>2026-04-04T17:14:00.037Z</time></trkpt><trkpt lat="43.1256204" lon="12.1779788"><ele>385.0</ele><time>2026-04-04T17:14:01.032Z</time></trkpt><trkpt lat="43.1255257" lon="12.1780222"><ele>385.0</ele><time>2026-04-04T17:14:02.048Z</time></trkpt><trkpt lat="43.1254268" lon="12.178078"><ele>384.4</ele><time>2026-04-04T17:14:03.036Z</time></trkpt><trkpt lat="43.125339" lon="12.1781533"><ele>383.8</ele><time>2026-04-04T17:14:04.031Z</time></trkpt><trkpt lat="43.1252636" lon="12.1782451"><ele>383.20000000000005</ele><time>2026-04-04T17:14:05.033Z</time></trkpt><trkpt lat="43.1251975" lon="12.1783617"><ele>382.6</ele><time>2026-04-04T17:14:06.028Z</time></trkpt><trkpt lat="43.1251351" lon="12.178473"><ele>382.0</ele><time>2026-04-04T17:14:07.043Z</time></trkpt><trkpt lat="43.1250717" lon="12.1785718"><ele>382.0</ele><time>2026-04-04T17:14:08.037Z</time></trkpt><trkpt lat="43.1250079" lon="12.1786433"><ele>382.0</ele><time>2026-04-04T17:14:09.03Z</time></trkpt><trkpt lat="43.1249464" lon="12.1787122"><ele>382.0</ele><time>2026-04-04T17:14:10.039Z</time></trkpt><trkpt lat="43.1248849" lon="12.1787909"><ele>382.0</ele><time>2026-04-04T17:14:12.032Z</time></trkpt><trkpt lat="43.1248339" lon="12.1789041"><ele>382.0</ele><time>2026-04-04T17:14:14.028Z</time></trkpt><trkpt lat="43.1248014" lon="12.1790817"><ele>380.5</ele><time>2026-04-04T17:14:16.028Z</time></trkpt><trkpt lat="43.1247874" lon="12.179189"><ele>379.0</ele><time>2026-04-04T17:14:17.025Z</time></trkpt><trkpt lat="43.1247708" lon="12.1793105"><ele>377.5</ele><time>2026-04-04T17:14:18.031Z</time></trkpt><trkpt lat="43.1247489" lon="12.179486"><ele>376.0</ele><time>2026-04-04T17:14:19.034Z</time></trkpt><trkpt lat="43.1247264" lon="12.1796992"><ele>378.0</ele><time>2026-04-04T17:14:20.031Z</time></trkpt><trkpt lat="43.124705" lon="12.1799286"><ele>380.0</ele><time>2026-04-04T17:14:21.036Z</time></trkpt><trkpt lat="43.1246879" lon="12.1801121"><ele>382.0</ele><time>2026-04-04T17:14:22.04Z</time></trkpt><trkpt lat="43.1246746" lon="12.1802768"><ele>384.0</ele><time>2026-04-04T17:14:23.032Z</time></trkpt><trkpt lat="43.1246694" lon="12.1804175"><ele>384.0</ele><time>2026-04-04T17:14:24.028Z</time></trkpt><trkpt lat="43.1246427" lon="12.180548"><ele>384.0</ele><time>2026-04-04T17:14:25.03Z</time></trkpt><trkpt lat="43.1246301" lon="12.1806836"><ele>384.0</ele><time>2026-04-04T17:14:26.032Z</time></trkpt><trkpt lat="43.1246228" lon="12.1808134"><ele>384.0</ele><time>2026-04-04T17:14:27.034Z</time></trkpt><trkpt lat="43.124632" lon="12.1809438"><ele>384.0</ele><time>2026-04-04T17:14:28.036Z</time></trkpt><trkpt lat="43.1246516" lon="12.1810788"><ele>384.0</ele><time>2026-04-04T17:14:29.034Z</time></trkpt><trkpt lat="43.1246751" lon="12.1812195"><ele>384.0</ele><time>2026-04-04T17:14:30.042Z</time></trkpt><trkpt lat="43.1246974" lon="12.1813589"><ele>384.0</ele><time>2026-04-04T17:14:31.034Z</time></trkpt><trkpt lat="43.1247088" lon="12.1814841"><ele>384.0</ele><time>2026-04-04T17:14:32.034Z</time></trkpt><trkpt lat="43.1247176" lon="12.1815967"><ele>384.0</ele><time>2026-04-04T17:14:33.026Z</time></trkpt><trkpt lat="43.1247218" lon="12.1816925"><ele>384.6666666666667</ele><time>2026-04-04T17:14:34.035Z</time></trkpt><trkpt lat="43.1247274" lon="12.1817941"><ele>385.33333333333337</ele><time>2026-04-04T17:14:35.04Z</time></trkpt><trkpt lat="43.1247366" lon="12.1819093"><ele>386.0</ele><time>2026-04-04T17:14:36.041Z</time></trkpt><trkpt lat="43.1247474" lon="12.1820358"><ele>386.6666666666667</ele><time>2026-04-04T17:14:37.032Z</time></trkpt><trkpt lat="43.1247615" lon="12.1821631"><ele>387.33333333333337</ele><time>2026-04-04T17:14:38.043Z</time></trkpt><trkpt lat="43.1247716" lon="12.1822702"><ele>388.0</ele><time>2026-04-04T17:14:39.027Z</time></trkpt><trkpt lat="43.1247712" lon="12.1823603"><ele>388.00000000000006</ele><time>2026-04-04T17:14:40.03Z</time></trkpt><trkpt lat="43.1247446" lon="12.1824546"><ele>388.0</ele><time>2026-04-04T17:14:41.03Z</time></trkpt><trkpt lat="43.1246852" lon="12.1825555"><ele>388.0</ele><time>2026-04-04T17:14:42.032Z</time></trkpt><trkpt lat="43.1246194" lon="12.1826561"><ele>388.0</ele><time>2026-04-04T17:14:43.022Z</time></trkpt><trkpt lat="43.1245474" lon="12.1827371"><ele>388.00000000000006</ele><time>2026-04-04T17:14:44.035Z</time></trkpt><trkpt lat="43.1244714" lon="12.1827897"><ele>388.0</ele><time>2026-04-04T17:14:45.039Z</time></trkpt><trkpt lat="43.1243858" lon="12.1828248"><ele>388.0</ele><time>2026-04-04T17:14:46.033Z</time></trkpt><trkpt lat="43.1243059" lon="12.1828579"><ele>388.0</ele><time>2026-04-04T17:14:47.034Z</time></trkpt><trkpt lat="43.1242387" lon="12.1828803"><ele>388.0</ele><time>2026-04-04T17:14:48.036Z</time></trkpt><trkpt lat="43.1241153" lon="12.1829332"><ele>388.0</ele><time>2026-04-04T17:14:50.037Z</time></trkpt><trkpt lat="43.1240566" lon="12.1829875"><ele>388.0</ele><time>2026-04-04T17:14:51.025Z</time></trkpt><trkpt lat="43.1239548" lon="12.1830524"><ele>388.00000000000006</ele><time>2026-04-04T17:14:53.041Z</time></trkpt><trkpt lat="43.1238934" lon="12.1830164"><ele>388.0</ele><time>2026-04-04T17:14:54.038Z</time></trkpt><trkpt lat="43.1238227" lon="12.1829921"><ele>388.0</ele><time>2026-04-04T17:14:55.041Z</time></trkpt><trkpt lat="43.1237472" lon="12.1830071"><ele>388.0</ele><time>2026-04-04T17:14:56.033Z</time></trkpt><trkpt lat="43.1236776" lon="12.1830318"><ele>388.00000000000006</ele><time>2026-04-04T17:14:57.031Z</time></trkpt><trkpt lat="43.1236145" lon="12.1830525"><ele>388.0</ele><time>2026-04-04T17:14:58.041Z</time></trkpt><trkpt lat="43.1235398" lon="12.1831908"><ele>388.6666666666667</ele><time>2026-04-04T17:15:00.036Z</time></trkpt><trkpt lat="43.1235079" lon="12.1832867"><ele>389.33333333333337</ele><time>2026-04-04T17:15:01.031Z</time></trkpt><trkpt lat="43.1234636" lon="12.1833515"><ele>390.0</ele><time>2026-04-04T17:15:02.041Z</time></trkpt><trkpt lat="43.1233865" lon="12.1834308"><ele>390.66666666666663</ele><time>2026-04-04T17:15:04.034Z</time></trkpt><trkpt lat="43.1233542" lon="12.1835935"><ele>391.3333333333333</ele><time>2026-04-04T17:15:06.037Z</time></trkpt><trkpt lat="43.1233006" lon="12.1836782"><ele>392.0</ele><time>2026-04-04T17:15:08.039Z</time></trkpt><trkpt lat="43.1231765" lon="12.1836781"><ele>391.99999999999994</ele><time>2026-04-04T17:15:10.036Z</time></trkpt><trkpt lat="43.1231169" lon="12.183719"><ele>392.0</ele><time>2026-04-04T17:15:11.045Z</time></trkpt><trkpt lat="43.1230565" lon="12.1837645"><ele>392.0</ele><time>2026-04-04T17:15:12.035Z</time></trkpt><trkpt lat="43.1229842" lon="12.1838057"><ele>392.0</ele><time>2026-04-04T17:15:13.028Z</time></trkpt><trkpt lat="43.1229089" lon="12.1838246"><ele>391.99999999999994</ele><time>2026-04-04T17:15:14.029Z</time></trkpt><trkpt lat="43.122818" lon="12.1838476"><ele>392.0</ele><time>2026-04-04T17:15:15.027Z</time></trkpt><trkpt lat="43.1227258" lon="12.1838709"><ele>391.99999999999994</ele><time>2026-04-04T17:15:16.021Z</time></trkpt><trkpt lat="43.1226342" lon="12.1838984"><ele>392.0</ele><time>2026-04-04T17:15:17.033Z</time></trkpt><trkpt lat="43.122552" lon="12.1839132"><ele>392.0</ele><time>2026-04-04T17:15:18.029Z</time></trkpt><trkpt lat="43.1224878" lon="12.1839326"><ele>392.0</ele><time>2026-04-04T17:15:19.032Z</time></trkpt><trkpt lat="43.1224279" lon="12.1839655"><ele>391.99999999999994</ele><time>2026-04-04T17:15:20.034Z</time></trkpt><trkpt lat="43.1223665" lon="12.1840217"><ele>392.0</ele><time>2026-04-04T17:15:21.038Z</time></trkpt><trkpt lat="43.1223015" lon="12.1840862"><ele>393.85714285714283</ele><time>2026-04-04T17:15:22.04Z</time></trkpt><trkpt lat="43.122248" lon="12.1841433"><ele>395.7142857142857</ele><time>2026-04-04T17:15:23.026Z</time></trkpt><trkpt lat="43.1222033" lon="12.1842061"><ele>397.57142857142856</ele><time>2026-04-04T17:15:24.037Z</time></trkpt><trkpt lat="43.1221638" lon="12.1842739"><ele>399.42857142857144</ele><time>2026-04-04T17:15:25.03Z</time></trkpt><trkpt lat="43.1221308" lon="12.1843531"><ele>401.2857142857143</ele><time>2026-04-04T17:15:26.036Z</time></trkpt><trkpt lat="43.1220991" lon="12.1844338"><ele>403.1428571428571</ele><time>2026-04-04T17:15:27.033Z</time></trkpt><trkpt lat="43.1220675" lon="12.1845099"><ele>405.0</ele><time>2026-04-04T17:15:28.036Z</time></trkpt><trkpt lat="43.1220409" lon="12.1846087"><ele>405.0</ele><time>2026-04-04T17:15:29.038Z</time></trkpt><trkpt lat="43.1220097" lon="12.1847195"><ele>405.0</ele><time>2026-04-04T17:15:30.028Z</time></trkpt><trkpt lat="43.1219833" lon="12.1848231"><ele>405.0</ele><time>2026-04-04T17:15:31.027Z</time></trkpt><trkpt lat="43.1219589" lon="12.1849134"><ele>405.0</ele><time>2026-04-04T17:15:32.021Z</time></trkpt><trkpt lat="43.1218904" lon="12.1850482"><ele>405.0</ele><time>2026-04-04T17:15:34.035Z</time></trkpt><trkpt lat="43.1218481" lon="12.1851145"><ele>405.0</ele><time>2026-04-04T17:15:35.024Z</time></trkpt><trkpt lat="43.121757" lon="12.1852049"><ele>405.0</ele><time>2026-04-04T17:15:37.034Z</time></trkpt><trkpt lat="43.1216587" lon="12.1852928"><ele>405.0</ele><time>2026-04-04T17:15:39.039Z</time></trkpt><trkpt lat="43.1215974" lon="12.1853535"><ele>405.0</ele><time>2026-04-04T17:15:40.031Z</time></trkpt><trkpt lat="43.1215401" lon="12.185406"><ele>405.0</ele><time>2026-04-04T17:15:41.038Z</time></trkpt><trkpt lat="43.1214909" lon="12.1854647"><ele>405.0</ele><time>2026-04-04T17:15:42.03Z</time></trkpt><trkpt lat="43.1214354" lon="12.1855299"><ele>405.0</ele><time>2026-04-04T17:15:43.034Z</time></trkpt><trkpt lat="43.1213799" lon="12.1855841"><ele>404.4285714285714</ele><time>2026-04-04T17:15:44.029Z</time></trkpt><trkpt lat="43.1213174" lon="12.1856325"><ele>403.85714285714283</ele><time>2026-04-04T17:15:45.026Z</time></trkpt><trkpt lat="43.1212595" lon="12.1856715"><ele>403.2857142857143</ele><time>2026-04-04T17:15:46.027Z</time></trkpt><trkpt lat="43.1212037" lon="12.1857345"><ele>402.71428571428567</ele><time>2026-04-04T17:15:47.027Z</time></trkpt><trkpt lat="43.1211483" lon="12.1858018"><ele>402.14285714285717</ele><time>2026-04-04T17:15:48.04Z</time></trkpt><trkpt lat="43.1210931" lon="12.185877"><ele>401.57142857142856</ele><time>2026-04-04T17:15:50.032Z</time></trkpt><trkpt lat="43.1210894" lon="12.1859841"><ele>401.0</ele><time>2026-04-04T17:15:58.032Z</time></trkpt><trkpt lat="43.1211019" lon="12.1860823"><ele>400.99999999999994</ele><time>2026-04-04T17:15:59.976Z</time></trkpt><trkpt lat="43.1210612" lon="12.1861647"><ele>401.0</ele><time>2026-04-04T17:16:02.032Z</time></trkpt><trkpt lat="43.1210272" lon="12.1862632"><ele>401.0</ele><time>2026-04-04T17:16:05.032Z</time></trkpt><trkpt lat="43.1210004" lon="12.1863678"><ele>401.0</ele><time>2026-04-04T17:16:07.978Z</time></trkpt><trkpt lat="43.1209402" lon="12.1864276"><ele>400.99999999999994</ele><time>2026-04-04T17:16:11.029Z</time></trkpt><trkpt lat="43.1208731" lon="12.1865072"><ele>401.0</ele><time>2026-04-04T17:16:14.04Z</time></trkpt><trkpt lat="43.120828" lon="12.1865976"><ele>400.16666666666663</ele><time>2026-04-04T17:16:16.03Z</time></trkpt><trkpt lat="43.120774" lon="12.18669"><ele>399.3333333333333</ele><time>2026-04-04T17:16:18.049Z</time></trkpt><trkpt lat="43.1207326" lon="12.1867673"><ele>398.5</ele><time>2026-04-04T17:16:20.038Z</time></trkpt><trkpt lat="43.1206926" lon="12.1868387"><ele>397.66666666666663</ele><time>2026-04-04T17:16:22.028Z</time></trkpt><trkpt lat="43.1206466" lon="12.1869034"><ele>396.8333333333333</ele><time>2026-04-04T17:16:24.053Z</time></trkpt><trkpt lat="43.1205643" lon="12.1869682"><ele>396.0</ele><time>2026-04-04T17:16:27.031Z</time></trkpt><trkpt lat="43.1204437" lon="12.1870577"><ele>395.6</ele><time>2026-04-04T17:16:29.04Z</time></trkpt><trkpt lat="43.1203772" lon="12.1871069"><ele>395.20000000000005</ele><time>2026-04-04T17:16:30.039Z</time></trkpt><trkpt lat="43.1202695" lon="12.1871609"><ele>394.79999999999995</ele><time>2026-04-04T17:16:32.054Z</time></trkpt><trkpt lat="43.1201591" lon="12.1872056"><ele>394.4</ele><time>2026-04-04T17:16:34.041Z</time></trkpt><trkpt lat="43.1200698" lon="12.1872787"><ele>394.0</ele><time>2026-04-04T17:16:36.028Z</time></trkpt><trkpt lat="43.1199895" lon="12.1873999"><ele>393.50000000000006</ele><time>2026-04-04T17:16:38.026Z</time></trkpt><trkpt lat="43.1199154" lon="12.1874797"><ele>393.0</ele><time>2026-04-04T17:16:40.029Z</time></trkpt><trkpt lat="43.1198569" lon="12.187523"><ele>392.5</ele><time>2026-04-04T17:16:50.059Z</time></trkpt><trkpt lat="43.1197861" lon="12.1875746"><ele>392.0</ele><time>2026-04-04T17:16:56.026Z</time></trkpt><trkpt lat="43.11972" lon="12.1876402"><ele>391.50000000000006</ele><time>2026-04-04T17:17:01.037Z</time></trkpt><trkpt lat="43.1196661" lon="12.1876896"><ele>391.0</ele><time>2026-04-04T17:17:04.033Z</time></trkpt><trkpt lat="43.1195878" lon="12.187708"><ele>388.83333333333337</ele><time>2026-04-04T17:17:07.029Z</time></trkpt><trkpt lat="43.1195134" lon="12.1877478"><ele>386.6666666666667</ele><time>2026-04-04T17:17:14.046Z</time></trkpt><trkpt lat="43.1194416" lon="12.1877729"><ele>384.5</ele><time>2026-04-04T17:17:17.032Z</time></trkpt><trkpt lat="43.1193847" lon="12.1878352"><ele>382.33333333333337</ele><time>2026-04-04T17:17:27.024Z</time></trkpt><trkpt lat="43.119315" lon="12.1879283"><ele>380.1666666666667</ele><time>2026-04-04T17:17:29.027Z</time></trkpt><trkpt lat="43.1192389" lon="12.1879852"><ele>378.0</ele><time>2026-04-04T17:17:31.032Z</time></trkpt><trkpt lat="43.1191654" lon="12.1880253"><ele>378.0</ele><time>2026-04-04T17:17:33.03Z</time></trkpt><trkpt lat="43.1191004" lon="12.188063"><ele>378.0</ele><time>2026-04-04T17:17:35.031Z</time></trkpt><trkpt lat="43.1190408" lon="12.1881568"><ele>378.0</ele><time>2026-04-04T17:17:38.033Z</time></trkpt><trkpt lat="43.1190014" lon="12.1882662"><ele>378.0</ele><time>2026-04-04T17:17:41.037Z</time></trkpt><trkpt lat="43.1189656" lon="12.1883595"><ele>378.0</ele><time>2026-04-04T17:17:43.04Z</time></trkpt><trkpt lat="43.118873" lon="12.1884463"><ele>378.0</ele><time>2026-04-04T17:17:45.021Z</time></trkpt><trkpt lat="43.1188231" lon="12.1885093"><ele>376.79999999999995</ele><time>2026-04-04T17:17:46.03Z</time></trkpt><trkpt lat="43.1187483" lon="12.1886096"><ele>375.6</ele><time>2026-04-04T17:17:48.021Z</time></trkpt><trkpt lat="43.1186797" lon="12.1886836"><ele>374.4</ele><time>2026-04-04T17:17:50.027Z</time></trkpt><trkpt lat="43.1186059" lon="12.1887571"><ele>373.20000000000005</ele><time>2026-04-04T17:17:52.026Z</time></trkpt><trkpt lat="43.1185162" lon="12.1888509"><ele>372.0</ele><time>2026-04-04T17:17:54.033Z</time></trkpt><trkpt lat="43.1184279" lon="12.1889122"><ele>372.0</ele><time>2026-04-04T17:17:56.031Z</time></trkpt><trkpt lat="43.1183297" lon="12.1889312"><ele>372.0</ele><time>2026-04-04T17:17:58.028Z</time></trkpt><trkpt lat="43.1182282" lon="12.188987"><ele>372.0</ele><time>2026-04-04T17:18:00.032Z</time></trkpt><trkpt lat="43.1181226" lon="12.1890051"><ele>372.0</ele><time>2026-04-04T17:18:02.03Z</time></trkpt><trkpt lat="43.1180348" lon="12.189015"><ele>372.0</ele><time>2026-04-04T17:18:04.038Z</time></trkpt><trkpt lat="43.1179659" lon="12.1890493"><ele>373.20000000000005</ele><time>2026-04-04T17:18:06.035Z</time></trkpt><trkpt lat="43.1178449" lon="12.189063"><ele>374.4</ele><time>2026-04-04T17:18:08.035Z</time></trkpt><trkpt lat="43.1177797" lon="12.1890545"><ele>375.6</ele><time>2026-04-04T17:18:09.035Z</time></trkpt><trkpt lat="43.1176802" lon="12.1890559"><ele>376.79999999999995</ele><time>2026-04-04T17:18:11.029Z</time></trkpt><trkpt lat="43.1175882" lon="12.1890379"><ele>378.0</ele><time>2026-04-04T17:18:13.037Z</time></trkpt><trkpt lat="43.1175072" lon="12.1890512"><ele>378.0</ele><time>2026-04-04T17:18:15.03Z</time></trkpt><trkpt lat="43.1174396" lon="12.1890912"><ele>378.0</ele><time>2026-04-04T17:18:17.024Z</time></trkpt><trkpt lat="43.1173814" lon="12.1891429"><ele>378.0</ele><time>2026-04-04T17:18:19.033Z</time></trkpt><trkpt lat="43.117317" lon="12.1891825"><ele>378.0</ele><time>2026-04-04T17:18:21.032Z</time></trkpt><trkpt lat="43.1172552" lon="12.1892043"><ele>378.0</ele><time>2026-04-04T17:18:23.031Z</time></trkpt><trkpt lat="43.117179" lon="12.1892772"><ele>378.0</ele><time>2026-04-04T17:18:26.029Z</time></trkpt><trkpt lat="43.1171052" lon="12.1893497"><ele>375.6666666666667</ele><time>2026-04-04T17:18:29.02Z</time></trkpt><trkpt lat="43.1170285" lon="12.1893932"><ele>373.3333333333333</ele><time>2026-04-04T17:18:32.025Z</time></trkpt><trkpt lat="43.1169978" lon="12.1894773"><ele>371.0</ele><time>2026-04-04T17:18:35.035Z</time></trkpt><trkpt lat="43.1169734" lon="12.1895946"><ele>368.66666666666663</ele><time>2026-04-04T17:18:38.028Z</time></trkpt><trkpt lat="43.1169192" lon="12.1896926"><ele>366.3333333333333</ele><time>2026-04-04T17:18:40.029Z</time></trkpt><trkpt lat="43.1168913" lon="12.1897976"><ele>364.0</ele><time>2026-04-04T17:18:42.028Z</time></trkpt><trkpt lat="43.1168914" lon="12.1899094"><ele>364.0</ele><time>2026-04-04T17:18:44.038Z</time></trkpt><trkpt lat="43.116869" lon="12.190032"><ele>364.0</ele><time>2026-04-04T17:18:47.033Z</time></trkpt><trkpt lat="43.1168318" lon="12.190115"><ele>364.0</ele><time>2026-04-04T17:18:49.029Z</time></trkpt><trkpt lat="43.1167757" lon="12.1902003"><ele>364.0</ele><time>2026-04-04T17:18:51.024Z</time></trkpt><trkpt lat="43.1167209" lon="12.1902815"><ele>364.0</ele><time>2026-04-04T17:18:53.021Z</time></trkpt><trkpt lat="43.1166527" lon="12.1903732"><ele>364.0</ele><time>2026-04-04T17:18:55.025Z</time></trkpt><trkpt lat="43.1165841" lon="12.1904456"><ele>364.16666666666663</ele><time>2026-04-04T17:18:57.031Z</time></trkpt><trkpt lat="43.1165302" lon="12.1905266"><ele>364.3333333333333</ele><time>2026-04-04T17:18:59.038Z</time></trkpt><trkpt lat="43.1164713" lon="12.1906085"><ele>364.5</ele><time>2026-04-04T17:19:01.025Z</time></trkpt><trkpt lat="43.1164074" lon="12.1906929"><ele>364.6666666666667</ele><time>2026-04-04T17:19:03.034Z</time></trkpt><trkpt lat="43.1163552" lon="12.1907954"><ele>364.83333333333337</ele><time>2026-04-04T17:19:05.034Z</time></trkpt><trkpt lat="43.1163289" lon="12.1908898"><ele>365.0</ele><time>2026-04-04T17:19:07.03Z</time></trkpt><trkpt lat="43.1163097" lon="12.1909815"><ele>365.0</ele><time>2026-04-04T17:19:09.033Z</time></trkpt><trkpt lat="43.1162707" lon="12.1910915"><ele>365.0</ele><time>2026-04-04T17:19:12.024Z</time></trkpt><trkpt lat="43.1162118" lon="12.191178"><ele>365.0</ele><time>2026-04-04T17:19:14.031Z</time></trkpt><trkpt lat="43.1161296" lon="12.1912586"><ele>365.0</ele><time>2026-04-04T17:19:16.03Z</time></trkpt><trkpt lat="43.1160531" lon="12.1913534"><ele>365.0</ele><time>2026-04-04T17:19:18.034Z</time></trkpt><trkpt lat="43.116002" lon="12.1914552"><ele>363.6</ele><time>2026-04-04T17:19:20.029Z</time></trkpt><trkpt lat="43.1159654" lon="12.1915454"><ele>362.2</ele><time>2026-04-04T17:19:22.025Z</time></trkpt><trkpt lat="43.1159297" lon="12.1916334"><ele>360.79999999999995</ele><time>2026-04-04T17:19:24.033Z</time></trkpt><trkpt lat="43.1158972" lon="12.1917535"><ele>359.4</ele><time>2026-04-04T17:19:26.033Z</time></trkpt><trkpt lat="43.1158743" lon="12.1919031"><ele>358.0</ele><time>2026-04-04T17:19:28.031Z</time></trkpt><trkpt lat="43.1158575" lon="12.1920548"><ele>358.0</ele><time>2026-04-04T17:19:30.036Z</time></trkpt><trkpt lat="43.1158443" lon="12.1922038"><ele>358.0</ele><time>2026-04-04T17:19:32.035Z</time></trkpt><trkpt lat="43.1157843" lon="12.1923119"><ele>358.0</ele><time>2026-04-04T17:19:34.026Z</time></trkpt><trkpt lat="43.1157255" lon="12.1923553"><ele>358.0</ele><time>2026-04-04T17:19:36.035Z</time></trkpt><trkpt lat="43.1156486" lon="12.1924064"><ele>358.0</ele><time>2026-04-04T17:19:41.018Z</time></trkpt><trkpt lat="43.1155672" lon="12.1924573"><ele>357.0</ele><time>2026-04-04T17:19:43.026Z</time></trkpt><trkpt lat="43.1154784" lon="12.1925136"><ele>356.0</ele><time>2026-04-04T17:19:45.027Z</time></trkpt><trkpt lat="43.1154001" lon="12.1925756"><ele>355.0</ele><time>2026-04-04T17:19:47.029Z</time></trkpt><trkpt lat="43.1153105" lon="12.1926063"><ele>354.0</ele><time>2026-04-04T17:19:49.025Z</time></trkpt><trkpt lat="43.1152193" lon="12.1926291"><ele>353.0</ele><time>2026-04-04T17:19:51.027Z</time></trkpt><trkpt lat="43.1151495" lon="12.1926878"><ele>353.0</ele><time>2026-04-04T17:19:53.025Z</time></trkpt><trkpt lat="43.1150809" lon="12.192826"><ele>353.0</ele><time>2026-04-04T17:19:55.027Z</time></trkpt><trkpt lat="43.1150469" lon="12.1929081"><ele>353.0</ele><time>2026-04-04T17:19:56.039Z</time></trkpt><trkpt lat="43.1149957" lon="12.1930602"><ele>353.0</ele><time>2026-04-04T17:19:58.038Z</time></trkpt><trkpt lat="43.1149638" lon="12.1931473"><ele>353.0</ele><time>2026-04-04T17:19:59.023Z</time></trkpt><trkpt lat="43.1149306" lon="12.1932337"><ele>352.57142857142856</ele><time>2026-04-04T17:20:00.025Z</time></trkpt><trkpt lat="43.1148968" lon="12.1933235"><ele>352.14285714285717</ele><time>2026-04-04T17:20:01.026Z</time></trkpt><trkpt lat="43.1148696" lon="12.1934068"><ele>351.7142857142857</ele><time>2026-04-04T17:20:02.019Z</time></trkpt><trkpt lat="43.1148473" lon="12.1934894"><ele>351.2857142857143</ele><time>2026-04-04T17:20:03.031Z</time></trkpt><trkpt lat="43.1148182" lon="12.1935685"><ele>350.8571428571429</ele><time>2026-04-04T17:20:04.023Z</time></trkpt><trkpt lat="43.1147838" lon="12.1936482"><ele>350.42857142857144</ele><time>2026-04-04T17:20:05.017Z</time></trkpt><trkpt lat="43.1147524" lon="12.1937235"><ele>350.0</ele><time>2026-04-04T17:20:06.031Z</time></trkpt><trkpt lat="43.1146985" lon="12.1938623"><ele>350.0</ele><time>2026-04-04T17:20:08.026Z</time></trkpt><trkpt lat="43.1146512" lon="12.1939945"><ele>350.0</ele><time>2026-04-04T17:20:10.033Z</time></trkpt><trkpt lat="43.1145789" lon="12.1941274"><ele>350.0</ele><time>2026-04-04T17:20:12.037Z</time></trkpt><trkpt lat="43.1145335" lon="12.1941939"><ele>350.0</ele><time>2026-04-04T17:20:13.027Z</time></trkpt><trkpt lat="43.1144807" lon="12.1942509"><ele>350.0</ele><time>2026-04-04T17:20:14.022Z</time></trkpt><trkpt lat="43.1144221" lon="12.194306"><ele>350.0</ele><time>2026-04-04T17:20:15.031Z</time></trkpt><trkpt lat="43.1143588" lon="12.194354"><ele>346.83333333333337</ele><time>2026-04-04T17:20:16.038Z</time></trkpt><trkpt lat="43.1142875" lon="12.1944008"><ele>343.6666666666667</ele><time>2026-04-04T17:20:17.027Z</time></trkpt><trkpt lat="43.1142134" lon="12.1944494"><ele>340.5</ele><time>2026-04-04T17:20:18.025Z</time></trkpt><trkpt lat="43.1141391" lon="12.1944704"><ele>337.3333333333333</ele><time>2026-04-04T17:20:19.029Z</time></trkpt><trkpt lat="43.1140605" lon="12.1944801"><ele>334.16666666666663</ele><time>2026-04-04T17:20:20.031Z</time></trkpt><trkpt lat="43.1139838" lon="12.1944899"><ele>331.0</ele><time>2026-04-04T17:20:21.027Z</time></trkpt><trkpt lat="43.1138948" lon="12.1944918"><ele>330.6</ele><time>2026-04-04T17:20:22.03Z</time></trkpt><trkpt lat="43.1138029" lon="12.1944866"><ele>330.20000000000005</ele><time>2026-04-04T17:20:23.026Z</time></trkpt><trkpt lat="43.1137023" lon="12.1944848"><ele>329.79999999999995</ele><time>2026-04-04T17:20:24.038Z</time></trkpt><trkpt lat="43.1136027" lon="12.1944789"><ele>329.4</ele><time>2026-04-04T17:20:25.032Z</time></trkpt><trkpt lat="43.1135024" lon="12.1944716"><ele>329.0</ele><time>2026-04-04T17:20:26.033Z</time></trkpt><trkpt lat="43.1134119" lon="12.1944741"><ele>329.0</ele><time>2026-04-04T17:20:27.022Z</time></trkpt><trkpt lat="43.1133178" lon="12.1944826"><ele>329.0</ele><time>2026-04-04T17:20:28.031Z</time></trkpt><trkpt lat="43.1132317" lon="12.1944833"><ele>329.0</ele><time>2026-04-04T17:20:29.028Z</time></trkpt><trkpt lat="43.1131467" lon="12.1944819"><ele>329.0</ele><time>2026-04-04T17:20:30.039Z</time></trkpt><trkpt lat="43.1130685" lon="12.1944805"><ele>329.0</ele><time>2026-04-04T17:20:31.025Z</time></trkpt><trkpt lat="43.1129758" lon="12.1944852"><ele>329.0</ele><time>2026-04-04T17:20:32.029Z</time></trkpt><trkpt lat="43.1128799" lon="12.1944842"><ele>327.1666666666667</ele><time>2026-04-04T17:20:33.026Z</time></trkpt><trkpt lat="43.1127894" lon="12.19448"><ele>325.33333333333337</ele><time>2026-04-04T17:20:34.032Z</time></trkpt><trkpt lat="43.1127052" lon="12.1944793"><ele>323.5</ele><time>2026-04-04T17:20:35.019Z</time></trkpt><trkpt lat="43.1126161" lon="12.1944847"><ele>321.6666666666667</ele><time>2026-04-04T17:20:36.024Z</time></trkpt><trkpt lat="43.1125262" lon="12.1944848"><ele>319.8333333333333</ele><time>2026-04-04T17:20:37.028Z</time></trkpt><trkpt lat="43.1124438" lon="12.1944846"><ele>318.0</ele><time>2026-04-04T17:20:38.025Z</time></trkpt><trkpt lat="43.1123693" lon="12.1944895"><ele>316.2857142857143</ele><time>2026-04-04T17:20:39.025Z</time></trkpt><trkpt lat="43.1122992" lon="12.1944898"><ele>314.5714285714286</ele><time>2026-04-04T17:20:40.034Z</time></trkpt><trkpt lat="43.1122296" lon="12.194487"><ele>312.8571428571429</ele><time>2026-04-04T17:20:41.036Z</time></trkpt><trkpt lat="43.1121571" lon="12.1944874"><ele>311.1428571428571</ele><time>2026-04-04T17:20:42.029Z</time></trkpt><trkpt lat="43.1120819" lon="12.1944814"><ele>309.42857142857144</ele><time>2026-04-04T17:20:43.046Z</time></trkpt><trkpt lat="43.1120088" lon="12.1944751"><ele>307.7142857142857</ele><time>2026-04-04T17:20:44.028Z</time></trkpt><trkpt lat="43.1119345" lon="12.1944739"><ele>306.0</ele><time>2026-04-04T17:20:45.03Z</time></trkpt><trkpt lat="43.1118556" lon="12.194477"><ele>306.0</ele><time>2026-04-04T17:20:46.033Z</time></trkpt><trkpt lat="43.1117763" lon="12.1944775"><ele>306.0</ele><time>2026-04-04T17:20:47.027Z</time></trkpt><trkpt lat="43.1117087" lon="12.1944861"><ele>306.0</ele><time>2026-04-04T17:20:48.029Z</time></trkpt><trkpt lat="43.1115987" lon="12.1945018"><ele>306.0</ele><time>2026-04-04T17:20:50.039Z</time></trkpt><trkpt lat="43.1115043" lon="12.1945789"><ele>306.0</ele><time>2026-04-04T17:20:52.022Z</time></trkpt><trkpt lat="43.1114509" lon="12.1946481"><ele>306.0</ele><time>2026-04-04T17:20:53.034Z</time></trkpt><trkpt lat="43.1113927" lon="12.194719"><ele>304.6666666666667</ele><time>2026-04-04T17:20:54.027Z</time></trkpt><trkpt lat="43.1113381" lon="12.1947845"><ele>303.3333333333333</ele><time>2026-04-04T17:20:55.031Z</time></trkpt><trkpt lat="43.1112775" lon="12.1948633"><ele>302.0</ele><time>2026-04-04T17:20:56.034Z</time></trkpt><trkpt lat="43.1112162" lon="12.1949429"><ele>300.66666666666663</ele><time>2026-04-04T17:20:57.027Z</time></trkpt><trkpt lat="43.1111539" lon="12.1950172"><ele>299.3333333333333</ele><time>2026-04-04T17:20:58.032Z</time></trkpt><trkpt lat="43.1110847" lon="12.1950975"><ele>298.0</ele><time>2026-04-04T17:20:59.032Z</time></trkpt><trkpt lat="43.1110247" lon="12.1951644"><ele>295.66666666666663</ele><time>2026-04-04T17:21:00.031Z</time></trkpt><trkpt lat="43.1109695" lon="12.1952355"><ele>293.3333333333333</ele><time>2026-04-04T17:21:01.027Z</time></trkpt><trkpt lat="43.1109183" lon="12.1952999"><ele>291.0</ele><time>2026-04-04T17:21:02.025Z</time></trkpt><trkpt lat="43.1108299" lon="12.1954101"><ele>288.6666666666667</ele><time>2026-04-04T17:21:04.036Z</time></trkpt><trkpt lat="43.1107605" lon="12.1954801"><ele>286.33333333333337</ele><time>2026-04-04T17:21:06.039Z</time></trkpt><trkpt lat="43.1107306" lon="12.1955596"><ele>284.0</ele><time>2026-04-04T17:21:16.039Z</time></trkpt><trkpt lat="43.1107342" lon="12.1956643"><ele>282.6666666666667</ele><time>2026-04-04T17:21:18.022Z</time></trkpt><trkpt lat="43.1108152" lon="12.1957687"><ele>281.33333333333337</ele><time>2026-04-04T17:21:20.023Z</time></trkpt><trkpt lat="43.1108735" lon="12.195836"><ele>280.0</ele><time>2026-04-04T17:21:21.024Z</time></trkpt><trkpt lat="43.1109264" lon="12.1959108"><ele>278.6666666666667</ele><time>2026-04-04T17:21:22.029Z</time></trkpt><trkpt lat="43.1109805" lon="12.1959837"><ele>277.3333333333333</ele><time>2026-04-04T17:21:23.029Z</time></trkpt><trkpt lat="43.1110452" lon="12.196052"><ele>276.0</ele><time>2026-04-04T17:21:24.021Z</time></trkpt><trkpt lat="43.1111134" lon="12.1961188"><ele>276.0</ele><time>2026-04-04T17:21:25.028Z</time></trkpt><trkpt lat="43.1111753" lon="12.1961943"><ele>276.0</ele><time>2026-04-04T17:21:26.029Z</time></trkpt><trkpt lat="43.111253" lon="12.196271"><ele>276.0</ele><time>2026-04-04T17:21:27.022Z</time></trkpt><trkpt lat="43.111328" lon="12.1963525"><ele>276.0</ele><time>2026-04-04T17:21:28.031Z</time></trkpt><trkpt lat="43.1114006" lon="12.1964345"><ele>276.0</ele><time>2026-04-04T17:21:29.021Z</time></trkpt><trkpt lat="43.1114647" lon="12.1965125"><ele>275.3333333333333</ele><time>2026-04-04T17:21:30.024Z</time></trkpt><trkpt lat="43.1115258" lon="12.1965954"><ele>274.6666666666667</ele><time>2026-04-04T17:21:31.023Z</time></trkpt><trkpt lat="43.1115969" lon="12.1966813"><ele>274.0</ele><time>2026-04-04T17:21:32.021Z</time></trkpt><trkpt lat="43.1116698" lon="12.1967679"><ele>273.33333333333337</ele><time>2026-04-04T17:21:33.03Z</time></trkpt><trkpt lat="43.1117346" lon="12.1968409"><ele>272.6666666666667</ele><time>2026-04-04T17:21:34.031Z</time></trkpt><trkpt lat="43.1117838" lon="12.1968992"><ele>272.0</ele><time>2026-04-04T17:21:35.029Z</time></trkpt><trkpt lat="43.1118177" lon="12.1969767"><ele>272.0</ele><time>2026-04-04T17:21:37.028Z</time></trkpt><trkpt lat="43.1117521" lon="12.1969992"><ele>272.0</ele><time>2026-04-04T17:21:39.036Z</time></trkpt><trkpt lat="43.1116066" lon="12.1969158"><ele>272.0</ele><time>2026-04-04T17:21:41.025Z</time></trkpt><trkpt lat="43.1114984" lon="12.1968489"><ele>272.0</ele><time>2026-04-04T17:21:42.032Z</time></trkpt><trkpt lat="43.1113735" lon="12.1968076"><ele>272.0</ele><time>2026-04-04T17:21:43.036Z</time></trkpt><trkpt lat="43.111241" lon="12.1967917"><ele>272.0</ele><time>2026-04-04T17:21:44.036Z</time></trkpt><trkpt lat="43.1111136" lon="12.1968008"><ele>272.0</ele><time>2026-04-04T17:21:45.025Z</time></trkpt><trkpt lat="43.1109737" lon="12.1968576"><ele>272.0</ele><time>2026-04-04T17:21:46.023Z</time></trkpt><trkpt lat="43.1108505" lon="12.1969173"><ele>273.25</ele><time>2026-04-04T17:21:47.019Z</time></trkpt><trkpt lat="43.1107398" lon="12.1969971"><ele>274.5</ele><time>2026-04-04T17:21:48.03Z</time></trkpt><trkpt lat="43.1106341" lon="12.1971082"><ele>275.75</ele><time>2026-04-04T17:21:49.023Z</time></trkpt><trkpt lat="43.1105459" lon="12.1972141"><ele>277.0</ele><time>2026-04-04T17:21:50.025Z</time></trkpt><trkpt lat="43.1104673" lon="12.1973245"><ele>276.6</ele><time>2026-04-04T17:21:51.034Z</time></trkpt><trkpt lat="43.1103966" lon="12.1974502"><ele>276.2</ele><time>2026-04-04T17:21:52.021Z</time></trkpt><trkpt lat="43.110339" lon="12.1975782"><ele>275.8</ele><time>2026-04-04T17:21:53.026Z</time></trkpt><trkpt lat="43.1102886" lon="12.19769"><ele>275.4</ele><time>2026-04-04T17:21:54.028Z</time></trkpt><trkpt lat="43.1102339" lon="12.1977875"><ele>275.0</ele><time>2026-04-04T17:21:55.034Z</time></trkpt><trkpt lat="43.1101844" lon="12.1978643"><ele>275.0</ele><time>2026-04-04T17:21:56.032Z</time></trkpt><trkpt lat="43.1101553" lon="12.198001"><ele>275.0</ele><time>2026-04-04T17:21:58.032Z</time></trkpt><trkpt lat="43.1102141" lon="12.1981536"><ele>275.0</ele><time>2026-04-04T17:22:00.04Z</time></trkpt><trkpt lat="43.1102719" lon="12.1982838"><ele>275.0</ele><time>2026-04-04T17:22:02.026Z</time></trkpt><trkpt lat="43.1103291" lon="12.1984125"><ele>274.5</ele><time>2026-04-04T17:22:04.036Z</time></trkpt><trkpt lat="43.110395" lon="12.19853"><ele>274.0</ele><time>2026-04-04T17:22:06.028Z</time></trkpt><trkpt lat="43.1104871" lon="12.1986316"><ele>273.5</ele><time>2026-04-04T17:22:08.032Z</time></trkpt><trkpt lat="43.1105468" lon="12.1986736"><ele>273.0</ele><time>2026-04-04T17:22:09.033Z</time></trkpt><trkpt lat="43.1105992" lon="12.1987281"><ele>272.5</ele><time>2026-04-04T17:22:10.035Z</time></trkpt><trkpt lat="43.1106409" lon="12.1988082"><ele>272.0</ele><time>2026-04-04T17:22:11.033Z</time></trkpt><trkpt lat="43.1106769" lon="12.1989349"><ele>271.1666666666667</ele><time>2026-04-04T17:22:12.025Z</time></trkpt><trkpt lat="43.1107111" lon="12.1990733"><ele>270.33333333333337</ele><time>2026-04-04T17:22:13.023Z</time></trkpt><trkpt lat="43.1107502" lon="12.1991999"><ele>269.5</ele><time>2026-04-04T17:22:14.036Z</time></trkpt><trkpt lat="43.1107905" lon="12.1992985"><ele>268.6666666666667</ele><time>2026-04-04T17:22:15.031Z</time></trkpt><trkpt lat="43.1108475" lon="12.1993638"><ele>267.8333333333333</ele><time>2026-04-04T17:22:16.032Z</time></trkpt><trkpt lat="43.1109243" lon="12.1994046"><ele>267.0</ele><time>2026-04-04T17:22:17.024Z</time></trkpt><trkpt lat="43.1110329" lon="12.1994244"><ele>266.0</ele><time>2026-04-04T17:22:18.029Z</time></trkpt><trkpt lat="43.1111449" lon="12.1994304"><ele>265.0</ele><time>2026-04-04T17:22:19.031Z</time></trkpt><trkpt lat="43.111263" lon="12.1994275"><ele>264.0</ele><time>2026-04-04T17:22:20.021Z</time></trkpt><trkpt lat="43.111367" lon="12.1994307"><ele>263.0</ele><time>2026-04-04T17:22:21.032Z</time></trkpt><trkpt lat="43.1114541" lon="12.1994463"><ele>262.0</ele><time>2026-04-04T17:22:22.033Z</time></trkpt><trkpt lat="43.1115276" lon="12.1994898"><ele>261.16666666666663</ele><time>2026-04-04T17:22:23.033Z</time></trkpt><trkpt lat="43.1115821" lon="12.1995481"><ele>260.3333333333333</ele><time>2026-04-04T17:22:24.027Z</time></trkpt><trkpt lat="43.1116415" lon="12.1996353"><ele>259.5</ele><time>2026-04-04T17:22:25.018Z</time></trkpt><trkpt lat="43.1117008" lon="12.1997146"><ele>258.6666666666667</ele><time>2026-04-04T17:22:26.034Z</time></trkpt><trkpt lat="43.1117642" lon="12.1997985"><ele>257.83333333333337</ele><time>2026-04-04T17:22:27.026Z</time></trkpt><trkpt lat="43.1118419" lon="12.199878"><ele>257.0</ele><time>2026-04-04T17:22:28.033Z</time></trkpt><trkpt lat="43.1119205" lon="12.199968"><ele>256.8</ele><time>2026-04-04T17:22:29.031Z</time></trkpt><trkpt lat="43.1119986" lon="12.2000497"><ele>256.6</ele><time>2026-04-04T17:22:30.029Z</time></trkpt><trkpt lat="43.1120802" lon="12.2001266"><ele>256.40000000000003</ele><time>2026-04-04T17:22:31.033Z</time></trkpt><trkpt lat="43.1121557" lon="12.2001953"><ele>256.2</ele><time>2026-04-04T17:22:32.024Z</time></trkpt><trkpt lat="43.1122244" lon="12.2002518"><ele>256.0</ele><time>2026-04-04T17:22:33.03Z</time></trkpt><trkpt lat="43.1122953" lon="12.2003077"><ele>255.99999999999997</ele><time>2026-04-04T17:22:34.03Z</time></trkpt><trkpt lat="43.1123769" lon="12.2003548"><ele>256.0</ele><time>2026-04-04T17:22:35.035Z</time></trkpt><trkpt lat="43.1124534" lon="12.2003856"><ele>256.0</ele><time>2026-04-04T17:22:36.031Z</time></trkpt><trkpt lat="43.1125367" lon="12.200417"><ele>256.0</ele><time>2026-04-04T17:22:37.034Z</time></trkpt><trkpt lat="43.1126134" lon="12.200461"><ele>255.99999999999997</ele><time>2026-04-04T17:22:38.024Z</time></trkpt><trkpt lat="43.112701" lon="12.2005171"><ele>256.0</ele><time>2026-04-04T17:22:39.025Z</time></trkpt><trkpt lat="43.1127879" lon="12.2005781"><ele>255.8</ele><time>2026-04-04T17:22:40.043Z</time></trkpt><trkpt lat="43.1128666" lon="12.2006398"><ele>255.60000000000002</ele><time>2026-04-04T17:22:41.027Z</time></trkpt><trkpt lat="43.1129489" lon="12.2007056"><ele>255.4</ele><time>2026-04-04T17:22:42.035Z</time></trkpt><trkpt lat="43.113029" lon="12.2007724"><ele>255.2</ele><time>2026-04-04T17:22:43.029Z</time></trkpt><trkpt lat="43.1131023" lon="12.2008445"><ele>255.0</ele><time>2026-04-04T17:22:44.032Z</time></trkpt><trkpt lat="43.113175" lon="12.2009143"><ele>255.0</ele><time>2026-04-04T17:22:45.032Z</time></trkpt><trkpt lat="43.1132308" lon="12.2009756"><ele>255.0</ele><time>2026-04-04T17:22:46.031Z</time></trkpt><trkpt lat="43.1132728" lon="12.201051"><ele>255.0</ele><time>2026-04-04T17:22:47.036Z</time></trkpt><trkpt lat="43.113313" lon="12.201146"><ele>255.0</ele><time>2026-04-04T17:22:48.036Z</time></trkpt><trkpt lat="43.1133507" lon="12.2012904"><ele>255.0</ele><time>2026-04-04T17:22:49.026Z</time></trkpt><trkpt lat="43.113362" lon="12.2014671"><ele>254.25</ele><time>2026-04-04T17:22:50.037Z</time></trkpt><trkpt lat="43.1133679" lon="12.2016782"><ele>253.5</ele><time>2026-04-04T17:22:51.028Z</time></trkpt><trkpt lat="43.1133683" lon="12.201863"><ele>252.75</ele><time>2026-04-04T17:22:52.024Z</time></trkpt><trkpt lat="43.1133702" lon="12.202026"><ele>252.0</ele><time>2026-04-04T17:22:53.039Z</time></trkpt><trkpt lat="43.1133747" lon="12.2021734"><ele>252.0</ele><time>2026-04-04T17:22:54.029Z</time></trkpt><trkpt lat="43.1133968" lon="12.2023129"><ele>252.0</ele><time>2026-04-04T17:22:55.028Z</time></trkpt><trkpt lat="43.1134324" lon="12.2024498"><ele>252.0</ele><time>2026-04-04T17:22:56.025Z</time></trkpt><trkpt lat="43.1134646" lon="12.2025838"><ele>252.0</ele><time>2026-04-04T17:22:57.023Z</time></trkpt><trkpt lat="43.1134993" lon="12.2027076"><ele>252.0</ele><time>2026-04-04T17:22:58.035Z</time></trkpt><trkpt lat="43.1135403" lon="12.2028367"><ele>251.8</ele><time>2026-04-04T17:22:59.024Z</time></trkpt><trkpt lat="43.1135864" lon="12.2029713"><ele>251.6</ele><time>2026-04-04T17:23:00.035Z</time></trkpt><trkpt lat="43.113635" lon="12.2030829"><ele>251.40000000000003</ele><time>2026-04-04T17:23:01.031Z</time></trkpt><trkpt lat="43.1136794" lon="12.2031698"><ele>251.20000000000002</ele><time>2026-04-04T17:23:02.029Z</time></trkpt><trkpt lat="43.11369" lon="12.2033507"><ele>251.0</ele><time>2026-04-04T17:23:04.025Z</time></trkpt><trkpt lat="43.113671" lon="12.2034665"><ele>251.4</ele><time>2026-04-04T17:23:05.033Z</time></trkpt><trkpt lat="43.1136695" lon="12.2035838"><ele>251.8</ele><time>2026-04-04T17:23:06.044Z</time></trkpt><trkpt lat="43.1136933" lon="12.2037161"><ele>252.20000000000002</ele><time>2026-04-04T17:23:07.03Z</time></trkpt><trkpt lat="43.1137446" lon="12.2038643"><ele>252.60000000000002</ele><time>2026-04-04T17:23:08.028Z</time></trkpt><trkpt lat="43.1138116" lon="12.2040198"><ele>253.0</ele><time>2026-04-04T17:23:09.043Z</time></trkpt><trkpt lat="43.1138673" lon="12.2041606"><ele>253.4</ele><time>2026-04-04T17:23:10.026Z</time></trkpt><trkpt lat="43.1139221" lon="12.2042743"><ele>253.8</ele><time>2026-04-04T17:23:11.04Z</time></trkpt><trkpt lat="43.1139829" lon="12.2043575"><ele>254.2</ele><time>2026-04-04T17:23:12.028Z</time></trkpt><trkpt lat="43.1140719" lon="12.204445"><ele>254.6</ele><time>2026-04-04T17:23:13.033Z</time></trkpt><trkpt lat="43.1141915" lon="12.2045502"><ele>255.0</ele><time>2026-04-04T17:23:14.028Z</time></trkpt><trkpt lat="43.1143235" lon="12.2046776"><ele>255.0</ele><time>2026-04-04T17:23:15.021Z</time></trkpt><trkpt lat="43.1144546" lon="12.2048117"><ele>255.0</ele><time>2026-04-04T17:23:16.028Z</time></trkpt><trkpt lat="43.1145833" lon="12.2049224"><ele>255.0</ele><time>2026-04-04T17:23:17.037Z</time></trkpt><trkpt lat="43.1146865" lon="12.2050112"><ele>255.0</ele><time>2026-04-04T17:23:18.033Z</time></trkpt><trkpt lat="43.1147782" lon="12.2050708"><ele>255.0</ele><time>2026-04-04T17:23:19.024Z</time></trkpt><trkpt lat="43.1148492" lon="12.2051296"><ele>255.0</ele><time>2026-04-04T17:23:20.035Z</time></trkpt><trkpt lat="43.1149138" lon="12.2051999"><ele>255.0</ele><time>2026-04-04T17:23:21.027Z</time></trkpt><trkpt lat="43.1149847" lon="12.2052733"><ele>255.0</ele><time>2026-04-04T17:23:22.034Z</time></trkpt><trkpt lat="43.1150565" lon="12.2053444"><ele>255.0</ele><time>2026-04-04T17:23:23.035Z</time></trkpt><trkpt lat="43.11512" lon="12.2054049"><ele>255.0</ele><time>2026-04-04T17:23:24.03Z</time></trkpt><trkpt lat="43.1151826" lon="12.2054624"><ele>254.66666666666666</ele><time>2026-04-04T17:23:25.033Z</time></trkpt><trkpt lat="43.1152475" lon="12.2055251"><ele>254.33333333333331</ele><time>2026-04-04T17:23:26.028Z</time></trkpt><trkpt lat="43.1153214" lon="12.2055901"><ele>254.0</ele><time>2026-04-04T17:23:27.029Z</time></trkpt><trkpt lat="43.1153851" lon="12.2056572"><ele>253.66666666666666</ele><time>2026-04-04T17:23:28.034Z</time></trkpt><trkpt lat="43.1154564" lon="12.2057349"><ele>253.33333333333331</ele><time>2026-04-04T17:23:29.037Z</time></trkpt><trkpt lat="43.1155256" lon="12.2058022"><ele>253.0</ele><time>2026-04-04T17:23:30.032Z</time></trkpt><trkpt lat="43.1155977" lon="12.2058689"><ele>252.99999999999997</ele><time>2026-04-04T17:23:31.036Z</time></trkpt><trkpt lat="43.1156654" lon="12.205933"><ele>253.0</ele><time>2026-04-04T17:23:32.032Z</time></trkpt><trkpt lat="43.1157318" lon="12.2059904"><ele>253.0</ele><time>2026-04-04T17:23:33.026Z</time></trkpt><trkpt lat="43.1158147" lon="12.2060737"><ele>253.0</ele><time>2026-04-04T17:23:35.034Z</time></trkpt><trkpt lat="43.1158623" lon="12.2061348"><ele>252.99999999999997</ele><time>2026-04-04T17:25:36.037Z</time></trkpt><trkpt lat="43.1159269" lon="12.20617"><ele>253.0</ele><time>2026-04-04T17:25:44.042Z</time></trkpt><trkpt lat="43.1160149" lon="12.2062343"><ele>252.8</ele><time>2026-04-04T17:25:46.032Z</time></trkpt><trkpt lat="43.1160896" lon="12.206284"><ele>252.60000000000002</ele><time>2026-04-04T17:25:47.032Z</time></trkpt><trkpt lat="43.116187" lon="12.2063397"><ele>252.39999999999998</ele><time>2026-04-04T17:25:48.047Z</time></trkpt><trkpt lat="43.1162831" lon="12.2063902"><ele>252.2</ele><time>2026-04-04T17:25:49.032Z</time></trkpt><trkpt lat="43.1164051" lon="12.2064635"><ele>252.0</ele><time>2026-04-04T17:25:50.043Z</time></trkpt><trkpt lat="43.1165494" lon="12.2065317"><ele>251.0</ele><time>2026-04-04T17:25:51.041Z</time></trkpt><trkpt lat="43.1167025" lon="12.2065932"><ele>250.0</ele><time>2026-04-04T17:25:52.041Z</time></trkpt><trkpt lat="43.1168438" lon="12.2066414"><ele>249.0</ele><time>2026-04-04T17:25:53.029Z</time></trkpt><trkpt lat="43.1169699" lon="12.2066856"><ele>248.0</ele><time>2026-04-04T17:25:54.039Z</time></trkpt><trkpt lat="43.1170909" lon="12.2067163"><ele>248.0</ele><time>2026-04-04T17:25:55.035Z</time></trkpt><trkpt lat="43.1172148" lon="12.206754"><ele>248.0</ele><time>2026-04-04T17:25:56.045Z</time></trkpt><trkpt lat="43.1173376" lon="12.2067997"><ele>248.0</ele><time>2026-04-04T17:25:57.044Z</time></trkpt><trkpt lat="43.1174592" lon="12.2068513"><ele>248.0</ele><time>2026-04-04T17:25:58.056Z</time></trkpt><trkpt lat="43.1175773" lon="12.2069262"><ele>248.0</ele><time>2026-04-04T17:25:59.03Z</time></trkpt><trkpt lat="43.117699" lon="12.2070273"><ele>248.0</ele><time>2026-04-04T17:26:00.037Z</time></trkpt><trkpt lat="43.1178019" lon="12.2071363"><ele>248.0</ele><time>2026-04-04T17:26:01.049Z</time></trkpt><trkpt lat="43.1179037" lon="12.2072584"><ele>248.0</ele><time>2026-04-04T17:26:02.025Z</time></trkpt><trkpt lat="43.1180194" lon="12.2073982"><ele>248.0</ele><time>2026-04-04T17:26:03.04Z</time></trkpt><trkpt lat="43.1181321" lon="12.2075442"><ele>248.0</ele><time>2026-04-04T17:26:04.032Z</time></trkpt><trkpt lat="43.1182359" lon="12.2077021"><ele>248.0</ele><time>2026-04-04T17:26:05.038Z</time></trkpt><trkpt lat="43.1183404" lon="12.2078675"><ele>247.0</ele><time>2026-04-04T17:26:06.047Z</time></trkpt><trkpt lat="43.1184445" lon="12.2080724"><ele>246.0</ele><time>2026-04-04T17:26:07.028Z</time></trkpt><trkpt lat="43.1185422" lon="12.2082822"><ele>245.0</ele><time>2026-04-04T17:26:08.042Z</time></trkpt><trkpt lat="43.1186358" lon="12.2084658"><ele>245.0</ele><time>2026-04-04T17:26:09.036Z</time></trkpt><trkpt lat="43.1187228" lon="12.2086448"><ele>245.0</ele><time>2026-04-04T17:26:10.036Z</time></trkpt><trkpt lat="43.1187976" lon="12.2088025"><ele>245.0</ele><time>2026-04-04T17:26:11.04Z</time></trkpt><trkpt lat="43.1188733" lon="12.208962"><ele>245.0</ele><time>2026-04-04T17:26:12.046Z</time></trkpt><trkpt lat="43.1189414" lon="12.2091121"><ele>245.0</ele><time>2026-04-04T17:26:13.037Z</time></trkpt><trkpt lat="43.1190018" lon="12.2092698"><ele>245.0</ele><time>2026-04-04T17:26:14.033Z</time></trkpt><trkpt lat="43.1190538" lon="12.2094383"><ele>245.0</ele><time>2026-04-04T17:26:15.05Z</time></trkpt><trkpt lat="43.1191054" lon="12.2096164"><ele>245.0</ele><time>2026-04-04T17:26:16.045Z</time></trkpt><trkpt lat="43.1191556" lon="12.2097915"><ele>245.25</ele><time>2026-04-04T17:26:17.036Z</time></trkpt><trkpt lat="43.1192014" lon="12.2099515"><ele>245.5</ele><time>2026-04-04T17:26:18.038Z</time></trkpt><trkpt lat="43.1192411" lon="12.2100999"><ele>245.75</ele><time>2026-04-04T17:26:19.039Z</time></trkpt><trkpt lat="43.1192768" lon="12.2102555"><ele>246.0</ele><time>2026-04-04T17:26:20.034Z</time></trkpt><trkpt lat="43.1193081" lon="12.210419"><ele>246.0</ele><time>2026-04-04T17:26:21.033Z</time></trkpt><trkpt lat="43.1193304" lon="12.2106042"><ele>246.0</ele><time>2026-04-04T17:26:22.046Z</time></trkpt><trkpt lat="43.1193409" lon="12.2107976"><ele>246.0</ele><time>2026-04-04T17:26:23.04Z</time></trkpt><trkpt lat="43.1193492" lon="12.2110304"><ele>246.0</ele><time>2026-04-04T17:26:24.038Z</time></trkpt><trkpt lat="43.1193565" lon="12.2112563"><ele>246.5</ele><time>2026-04-04T17:26:25.031Z</time></trkpt><trkpt lat="43.1193599" lon="12.2114508"><ele>247.0</ele><time>2026-04-04T17:26:26.065Z</time></trkpt><trkpt lat="43.1193667" lon="12.2116234"><ele>247.5</ele><time>2026-04-04T17:26:27.042Z</time></trkpt><trkpt lat="43.1193696" lon="12.211778"><ele>248.0</ele><time>2026-04-04T17:26:28.031Z</time></trkpt><trkpt lat="43.1193864" lon="12.2119208"><ele>248.00000000000003</ele><time>2026-04-04T17:26:29.039Z</time></trkpt><trkpt lat="43.1194147" lon="12.2120355"><ele>248.0</ele><time>2026-04-04T17:26:30.041Z</time></trkpt><trkpt lat="43.1194488" lon="12.2121331"><ele>248.0</ele><time>2026-04-04T17:26:31.041Z</time></trkpt><trkpt lat="43.1194848" lon="12.2122071"><ele>248.0</ele><time>2026-04-04T17:26:32.047Z</time></trkpt><trkpt lat="43.1196046" lon="12.2122498"><ele>248.00000000000003</ele><time>2026-04-04T17:26:34.043Z</time></trkpt><trkpt lat="43.1196968" lon="12.2122418"><ele>248.0</ele><time>2026-04-04T17:26:35.038Z</time></trkpt><trkpt lat="43.1198044" lon="12.2122217"><ele>247.5</ele><time>2026-04-04T17:26:36.052Z</time></trkpt><trkpt lat="43.1199273" lon="12.2122014"><ele>247.0</ele><time>2026-04-04T17:26:37.039Z</time></trkpt><trkpt lat="43.120058" lon="12.2121886"><ele>246.5</ele><time>2026-04-04T17:26:38.039Z</time></trkpt><trkpt lat="43.1201776" lon="12.2121814"><ele>246.0</ele><time>2026-04-04T17:26:39.049Z</time></trkpt><trkpt lat="43.1202948" lon="12.2121723"><ele>246.0</ele><time>2026-04-04T17:26:40.036Z</time></trkpt><trkpt lat="43.120403" lon="12.2121576"><ele>246.00000000000003</ele><time>2026-04-04T17:26:41.048Z</time></trkpt><trkpt lat="43.1205072" lon="12.2121507"><ele>246.00000000000003</ele><time>2026-04-04T17:26:42.033Z</time></trkpt><trkpt lat="43.1206025" lon="12.212165"><ele>246.0</ele><time>2026-04-04T17:26:43.048Z</time></trkpt><trkpt lat="43.1207086" lon="12.2121823"><ele>246.0</ele><time>2026-04-04T17:26:44.03Z</time></trkpt><trkpt lat="43.1208173" lon="12.2121838"><ele>245.0</ele><time>2026-04-04T17:26:45.035Z</time></trkpt><trkpt lat="43.1209356" lon="12.2121582"><ele>244.0</ele><time>2026-04-04T17:26:46.032Z</time></trkpt><trkpt lat="43.121056" lon="12.2121227"><ele>243.0</ele><time>2026-04-04T17:26:47.05Z</time></trkpt><trkpt lat="43.1211672" lon="12.2120892"><ele>242.0</ele><time>2026-04-04T17:26:48.036Z</time></trkpt><trkpt lat="43.1212655" lon="12.2120688"><ele>242.00000000000003</ele><time>2026-04-04T17:26:49.05Z</time></trkpt><trkpt lat="43.1213588" lon="12.2120812"><ele>242.0</ele><time>2026-04-04T17:26:50.025Z</time></trkpt><trkpt lat="43.1214454" lon="12.2121258"><ele>242.0</ele><time>2026-04-04T17:26:51.037Z</time></trkpt><trkpt lat="43.1215101" lon="12.2121778"><ele>242.0</ele><time>2026-04-04T17:26:52.036Z</time></trkpt><trkpt lat="43.1215777" lon="12.2122204"><ele>242.00000000000003</ele><time>2026-04-04T17:26:53.028Z</time></trkpt><trkpt lat="43.1216602" lon="12.2122307"><ele>242.0</ele><time>2026-04-04T17:26:54.042Z</time></trkpt><trkpt lat="43.1217625" lon="12.2122109"><ele>241.33333333333334</ele><time>2026-04-04T17:26:55.038Z</time></trkpt><trkpt lat="43.1218895" lon="12.212155"><ele>240.66666666666669</ele><time>2026-04-04T17:26:56.031Z</time></trkpt><trkpt lat="43.1220628" lon="12.2120529"><ele>240.0</ele><time>2026-04-04T17:26:57.032Z</time></trkpt><trkpt lat="43.122243" lon="12.2119435"><ele>240.0</ele><time>2026-04-04T17:26:58.047Z</time></trkpt><trkpt lat="43.1224255" lon="12.2118614"><ele>240.0</ele><time>2026-04-04T17:26:59.027Z</time></trkpt><trkpt lat="43.1225925" lon="12.2117853"><ele>240.0</ele><time>2026-04-04T17:27:00.043Z</time></trkpt><trkpt lat="43.1227581" lon="12.2116998"><ele>240.0</ele><time>2026-04-04T17:27:01.039Z</time></trkpt><trkpt lat="43.1228974" lon="12.2116145"><ele>240.0</ele><time>2026-04-04T17:27:02.048Z</time></trkpt><trkpt lat="43.1230366" lon="12.2115476"><ele>240.0</ele><time>2026-04-04T17:27:03.043Z</time></trkpt><trkpt lat="43.123195" lon="12.2115035"><ele>239.33333333333331</ele><time>2026-04-04T17:27:04.037Z</time></trkpt><trkpt lat="43.1233837" lon="12.2114708"><ele>238.66666666666666</ele><time>2026-04-04T17:27:05.052Z</time></trkpt><trkpt lat="43.1235866" lon="12.2114457"><ele>238.0</ele><time>2026-04-04T17:27:06.039Z</time></trkpt><trkpt lat="43.1238131" lon="12.2114248"><ele>238.0</ele><time>2026-04-04T17:27:07.037Z</time></trkpt><trkpt lat="43.1240351" lon="12.2114151"><ele>238.0</ele><time>2026-04-04T17:27:08.036Z</time></trkpt><trkpt lat="43.1242306" lon="12.2114214"><ele>238.0</ele><time>2026-04-04T17:27:09.041Z</time></trkpt><trkpt lat="43.124407" lon="12.2114197"><ele>237.33333333333331</ele><time>2026-04-04T17:27:10.032Z</time></trkpt><trkpt lat="43.1245681" lon="12.2114135"><ele>236.66666666666669</ele><time>2026-04-04T17:27:11.033Z</time></trkpt><trkpt lat="43.1247196" lon="12.211412"><ele>236.0</ele><time>2026-04-04T17:27:12.04Z</time></trkpt><trkpt lat="43.1248635" lon="12.2114084"><ele>236.20000000000002</ele><time>2026-04-04T17:27:13.041Z</time></trkpt><trkpt lat="43.1249802" lon="12.2114068"><ele>236.40000000000003</ele><time>2026-04-04T17:27:14.027Z</time></trkpt><trkpt lat="43.1250698" lon="12.2113993"><ele>236.6</ele><time>2026-04-04T17:27:15.036Z</time></trkpt><trkpt lat="43.12515" lon="12.2113974"><ele>236.8</ele><time>2026-04-04T17:27:16.04Z</time></trkpt><trkpt lat="43.1252313" lon="12.2114175"><ele>237.0</ele><time>2026-04-04T17:27:17.044Z</time></trkpt><trkpt lat="43.1253063" lon="12.2114786"><ele>236.75</ele><time>2026-04-04T17:27:18.049Z</time></trkpt><trkpt lat="43.1253946" lon="12.2115991"><ele>236.5</ele><time>2026-04-04T17:27:19.049Z</time></trkpt><trkpt lat="43.1254832" lon="12.2117461"><ele>236.25</ele><time>2026-04-04T17:27:20.048Z</time></trkpt><trkpt lat="43.1255542" lon="12.2118761"><ele>236.0</ele><time>2026-04-04T17:27:21.033Z</time></trkpt><trkpt lat="43.1256075" lon="12.2119614"><ele>236.0</ele><time>2026-04-04T17:27:22.032Z</time></trkpt><trkpt lat="43.1256598" lon="12.2120198"><ele>236.00000000000003</ele><time>2026-04-04T17:27:23.043Z</time></trkpt><trkpt lat="43.1257554" lon="12.2120695"><ele>236.00000000000003</ele><time>2026-04-04T17:27:25.043Z</time></trkpt><trkpt lat="43.1258399" lon="12.212014"><ele>236.0</ele><time>2026-04-04T17:27:27.041Z</time></trkpt><trkpt lat="43.1259398" lon="12.2119029"><ele>236.0</ele><time>2026-04-04T17:27:29.041Z</time></trkpt><trkpt lat="43.1260562" lon="12.2118112"><ele>236.16666666666669</ele><time>2026-04-04T17:27:31.041Z</time></trkpt><trkpt lat="43.1261334" lon="12.2117676"><ele>236.33333333333334</ele><time>2026-04-04T17:27:32.037Z</time></trkpt><trkpt lat="43.1262055" lon="12.2117219"><ele>236.5</ele><time>2026-04-04T17:27:33.045Z</time></trkpt><trkpt lat="43.1262686" lon="12.2116741"><ele>236.66666666666669</ele><time>2026-04-04T17:27:34.058Z</time></trkpt><trkpt lat="43.1263234" lon="12.2116148"><ele>236.83333333333334</ele><time>2026-04-04T17:27:35.038Z</time></trkpt><trkpt lat="43.1263795" lon="12.2115409"><ele>237.0</ele><time>2026-04-04T17:27:36.034Z</time></trkpt><trkpt lat="43.1264321" lon="12.2114253"><ele>237.25</ele><time>2026-04-04T17:27:37.043Z</time></trkpt><trkpt lat="43.126506" lon="12.2112902"><ele>237.5</ele><time>2026-04-04T17:27:38.031Z</time></trkpt><trkpt lat="43.1266038" lon="12.211133"><ele>237.75</ele><time>2026-04-04T17:27:39.034Z</time></trkpt><trkpt lat="43.1267005" lon="12.2109777"><ele>238.0</ele><time>2026-04-04T17:27:40.034Z</time></trkpt><trkpt lat="43.1268035" lon="12.2108359"><ele>238.0</ele><time>2026-04-04T17:27:41.037Z</time></trkpt><trkpt lat="43.1269077" lon="12.2106944"><ele>238.0</ele><time>2026-04-04T17:27:42.04Z</time></trkpt><trkpt lat="43.1270087" lon="12.2105774"><ele>238.0</ele><time>2026-04-04T17:27:43.037Z</time></trkpt><trkpt lat="43.1271047" lon="12.2104688"><ele>238.0</ele><time>2026-04-04T17:27:44.034Z</time></trkpt><trkpt lat="43.1272057" lon="12.2103338"><ele>238.0</ele><time>2026-04-04T17:27:45.05Z</time></trkpt><trkpt lat="43.1273079" lon="12.2101985"><ele>238.0</ele><time>2026-04-04T17:27:46.03Z</time></trkpt><trkpt lat="43.1273987" lon="12.2100743"><ele>238.0</ele><time>2026-04-04T17:27:47.05Z</time></trkpt><trkpt lat="43.1274843" lon="12.2099582"><ele>238.0</ele><time>2026-04-04T17:27:48.036Z</time></trkpt><trkpt lat="43.1275757" lon="12.2098497"><ele>237.25</ele><time>2026-04-04T17:27:49.036Z</time></trkpt><trkpt lat="43.127677" lon="12.209736"><ele>236.5</ele><time>2026-04-04T17:27:50.031Z</time></trkpt><trkpt lat="43.1277957" lon="12.2096146"><ele>235.75</ele><time>2026-04-04T17:27:51.037Z</time></trkpt><trkpt lat="43.127913" lon="12.2095047"><ele>235.0</ele><time>2026-04-04T17:27:52.035Z</time></trkpt><trkpt lat="43.1280347" lon="12.2093902"><ele>235.0</ele><time>2026-04-04T17:27:53.023Z</time></trkpt><trkpt lat="43.1281722" lon="12.2092695"><ele>235.0</ele><time>2026-04-04T17:27:54.04Z</time></trkpt><trkpt lat="43.128304" lon="12.2091621"><ele>235.0</ele><time>2026-04-04T17:27:55.051Z</time></trkpt><trkpt lat="43.1284397" lon="12.2090558"><ele>235.25</ele><time>2026-04-04T17:27:56.032Z</time></trkpt><trkpt lat="43.1285794" lon="12.2089378"><ele>235.5</ele><time>2026-04-04T17:27:57.032Z</time></trkpt><trkpt lat="43.128703" lon="12.2088517"><ele>235.75</ele><time>2026-04-04T17:27:58.032Z</time></trkpt><trkpt lat="43.1288222" lon="12.2087764"><ele>236.0</ele><time>2026-04-04T17:27:59.027Z</time></trkpt><trkpt lat="43.1289265" lon="12.2087034"><ele>236.00000000000003</ele><time>2026-04-04T17:28:00.037Z</time></trkpt><trkpt lat="43.1290104" lon="12.2086384"><ele>236.0</ele><time>2026-04-04T17:28:01.037Z</time></trkpt><trkpt lat="43.1290763" lon="12.2085916"><ele>236.0</ele><time>2026-04-04T17:28:02.034Z</time></trkpt><trkpt lat="43.1291466" lon="12.2085387"><ele>236.0</ele><time>2026-04-04T17:28:04.055Z</time></trkpt><trkpt lat="43.1291693" lon="12.2086658"><ele>236.00000000000003</ele><time>2026-04-04T17:28:07.037Z</time></trkpt><trkpt lat="43.1291557" lon="12.208774"><ele>236.0</ele><time>2026-04-04T17:28:08.033Z</time></trkpt><trkpt lat="43.129144" lon="12.2089374"><ele>235.0</ele><time>2026-04-04T17:28:09.03Z</time></trkpt><trkpt lat="43.1291264" lon="12.2091467"><ele>234.0</ele><time>2026-04-04T17:28:10.037Z</time></trkpt><trkpt lat="43.1291034" lon="12.2093874"><ele>233.0</ele><time>2026-04-04T17:28:11.035Z</time></trkpt><trkpt lat="43.129081" lon="12.2096046"><ele>233.0</ele><time>2026-04-04T17:28:12.032Z</time></trkpt><trkpt lat="43.1290599" lon="12.2098085"><ele>233.0</ele><time>2026-04-04T17:28:13.04Z</time></trkpt><trkpt lat="43.1290438" lon="12.2099848"><ele>233.0</ele><time>2026-04-04T17:28:14.042Z</time></trkpt><trkpt lat="43.1290332" lon="12.2101474"><ele>233.0</ele><time>2026-04-04T17:28:15.053Z</time></trkpt><trkpt lat="43.1290166" lon="12.2103025"><ele>233.25</ele><time>2026-04-04T17:28:16.025Z</time></trkpt><trkpt lat="43.1289782" lon="12.210442"><ele>233.5</ele><time>2026-04-04T17:28:17.037Z</time></trkpt><trkpt lat="43.1289264" lon="12.2105809"><ele>233.75</ele><time>2026-04-04T17:28:18.06Z</time></trkpt><trkpt lat="43.1288622" lon="12.2107403"><ele>234.0</ele><time>2026-04-04T17:28:19.035Z</time></trkpt><trkpt lat="43.1287922" lon="12.210914"><ele>234.0</ele><time>2026-04-04T17:28:20.025Z</time></trkpt><trkpt lat="43.1287215" lon="12.2110949"><ele>234.0</ele><time>2026-04-04T17:28:21.035Z</time></trkpt><trkpt lat="43.1286473" lon="12.2112811"><ele>234.0</ele><time>2026-04-04T17:28:22.036Z</time></trkpt><trkpt lat="43.1285764" lon="12.2114659"><ele>234.0</ele><time>2026-04-04T17:28:23.039Z</time></trkpt><trkpt lat="43.1285067" lon="12.2116489"><ele>234.0</ele><time>2026-04-04T17:28:24.035Z</time></trkpt><trkpt lat="43.1284505" lon="12.2118171"><ele>234.0</ele><time>2026-04-04T17:28:25.024Z</time></trkpt><trkpt lat="43.1284012" lon="12.2119738"><ele>234.0</ele><time>2026-04-04T17:28:26.04Z</time></trkpt><trkpt lat="43.1283609" lon="12.2121482"><ele>234.0</ele><time>2026-04-04T17:28:27.035Z</time></trkpt><trkpt lat="43.128324" lon="12.2123244"><ele>234.0</ele><time>2026-04-04T17:28:28.03Z</time></trkpt><trkpt lat="43.1282908" lon="12.2125082"><ele>234.0</ele><time>2026-04-04T17:28:29.028Z</time></trkpt><trkpt lat="43.1282602" lon="12.2126863"><ele>234.0</ele><time>2026-04-04T17:28:30.036Z</time></trkpt><trkpt lat="43.1282288" lon="12.2128638"><ele>234.0</ele><time>2026-04-04T17:28:31.049Z</time></trkpt><trkpt lat="43.1282007" lon="12.2130387"><ele>234.0</ele><time>2026-04-04T17:28:32.024Z</time></trkpt><trkpt lat="43.1281682" lon="12.2132309"><ele>234.0</ele><time>2026-04-04T17:28:33.036Z</time></trkpt><trkpt lat="43.1281339" lon="12.21342"><ele>234.0</ele><time>2026-04-04T17:28:34.043Z</time></trkpt><trkpt lat="43.1281016" lon="12.2136026"><ele>233.79999999999998</ele><time>2026-04-04T17:28:35.034Z</time></trkpt><trkpt lat="43.1280629" lon="12.2137756"><ele>233.59999999999997</ele><time>2026-04-04T17:28:36.032Z</time></trkpt><trkpt lat="43.1280338" lon="12.2139307"><ele>233.4</ele><time>2026-04-04T17:28:37.041Z</time></trkpt><trkpt lat="43.1280164" lon="12.2140694"><ele>233.2</ele><time>2026-04-04T17:28:38.032Z</time></trkpt><trkpt lat="43.128" lon="12.2141933"><ele>233.0</ele><time>2026-04-04T17:28:39.038Z</time></trkpt><trkpt lat="43.1279936" lon="12.2143033"><ele>233.0</ele><time>2026-04-04T17:28:40.03Z</time></trkpt><trkpt lat="43.1279803" lon="12.2144037"><ele>233.0</ele><time>2026-04-04T17:28:41.031Z</time></trkpt><trkpt lat="43.1279449" lon="12.2145204"><ele>233.0</ele><time>2026-04-04T17:28:42.042Z</time></trkpt><trkpt lat="43.1278972" lon="12.2146643"><ele>233.0</ele><time>2026-04-04T17:28:43.041Z</time></trkpt><trkpt lat="43.1278505" lon="12.2148277"><ele>233.0</ele><time>2026-04-04T17:28:44.025Z</time></trkpt><trkpt lat="43.1278049" lon="12.2150293"><ele>233.0</ele><time>2026-04-04T17:28:45.035Z</time></trkpt><trkpt lat="43.1277555" lon="12.215242"><ele>233.0</ele><time>2026-04-04T17:28:46.033Z</time></trkpt><trkpt lat="43.1277137" lon="12.2154284"><ele>233.0</ele><time>2026-04-04T17:28:47.036Z</time></trkpt><trkpt lat="43.127677" lon="12.2155983"><ele>233.0</ele><time>2026-04-04T17:28:48.031Z</time></trkpt><trkpt lat="43.1276369" lon="12.2157879"><ele>233.0</ele><time>2026-04-04T17:28:49.047Z</time></trkpt><trkpt lat="43.1275935" lon="12.2159696"><ele>233.0</ele><time>2026-04-04T17:28:50.04Z</time></trkpt><trkpt lat="43.12755" lon="12.2161417"><ele>233.0</ele><time>2026-04-04T17:28:51.024Z</time></trkpt><trkpt lat="43.1275132" lon="12.216308"><ele>233.0</ele><time>2026-04-04T17:28:52.052Z</time></trkpt><trkpt lat="43.1274776" lon="12.2164853"><ele>233.5</ele><time>2026-04-04T17:28:53.037Z</time></trkpt><trkpt lat="43.1274411" lon="12.2166603"><ele>234.0</ele><time>2026-04-04T17:28:54.037Z</time></trkpt><trkpt lat="43.1274143" lon="12.2168261"><ele>234.5</ele><time>2026-04-04T17:28:55.049Z</time></trkpt><trkpt lat="43.1274144" lon="12.2169893"><ele>235.0</ele><time>2026-04-04T17:28:56.033Z</time></trkpt><trkpt lat="43.1274245" lon="12.2171511"><ele>235.0</ele><time>2026-04-04T17:28:57.03Z</time></trkpt><trkpt lat="43.1274296" lon="12.2173039"><ele>235.0</ele><time>2026-04-04T17:28:58.042Z</time></trkpt><trkpt lat="43.1274363" lon="12.217449"><ele>235.0</ele><time>2026-04-04T17:28:59.035Z</time></trkpt><trkpt lat="43.1274484" lon="12.2175937"><ele>235.0</ele><time>2026-04-04T17:29:00.027Z</time></trkpt><trkpt lat="43.1274543" lon="12.2177398"><ele>235.0</ele><time>2026-04-04T17:29:01.024Z</time></trkpt><trkpt lat="43.1274655" lon="12.2178958"><ele>234.8</ele><time>2026-04-04T17:29:02.028Z</time></trkpt><trkpt lat="43.127471" lon="12.2180521"><ele>234.6</ele><time>2026-04-04T17:29:03.028Z</time></trkpt><trkpt lat="43.1274786" lon="12.2182127"><ele>234.39999999999998</ele><time>2026-04-04T17:29:04.039Z</time></trkpt><trkpt lat="43.1274851" lon="12.2183404"><ele>234.2</ele><time>2026-04-04T17:29:05.027Z</time></trkpt><trkpt lat="43.127484" lon="12.218439"><ele>234.0</ele><time>2026-04-04T17:29:06.048Z</time></trkpt><trkpt lat="43.1274926" lon="12.2185443"><ele>234.0</ele><time>2026-04-04T17:29:07.041Z</time></trkpt><trkpt lat="43.1275" lon="12.2186469"><ele>234.0</ele><time>2026-04-04T17:29:08.037Z</time></trkpt><trkpt lat="43.1275134" lon="12.218763"><ele>234.0</ele><time>2026-04-04T17:29:09.031Z</time></trkpt><trkpt lat="43.127513" lon="12.218882"><ele>234.0</ele><time>2026-04-04T17:29:10.029Z</time></trkpt><trkpt lat="43.1275104" lon="12.2189911"><ele>234.0</ele><time>2026-04-04T17:29:11.035Z</time></trkpt><trkpt lat="43.1275114" lon="12.2190963"><ele>234.0</ele><time>2026-04-04T17:29:12.035Z</time></trkpt><trkpt lat="43.1275232" lon="12.2192073"><ele>234.0</ele><time>2026-04-04T17:29:13.033Z</time></trkpt><trkpt lat="43.12753" lon="12.2193165"><ele>234.0</ele><time>2026-04-04T17:29:14.058Z</time></trkpt><trkpt lat="43.1275351" lon="12.2194321"><ele>234.0</ele><time>2026-04-04T17:29:15.04Z</time></trkpt><trkpt lat="43.1275418" lon="12.2195504"><ele>234.0</ele><time>2026-04-04T17:29:16.041Z</time></trkpt><trkpt lat="43.1275464" lon="12.2196697"><ele>234.0</ele><time>2026-04-04T17:29:17.043Z</time></trkpt><trkpt lat="43.1275534" lon="12.219773"><ele>234.0</ele><time>2026-04-04T17:29:18.05Z</time></trkpt><trkpt lat="43.1275567" lon="12.2199143"><ele>234.0</ele><time>2026-04-04T17:29:20.049Z</time></trkpt><trkpt lat="43.1276259" lon="12.2199618"><ele>234.0</ele><time>2026-04-04T17:29:22.044Z</time></trkpt><trkpt lat="43.1276713" lon="12.2198903"><ele>234.0</ele><time>2026-04-04T17:29:25.036Z</time></trkpt><trkpt lat="43.127707" lon="12.2197932"><ele>234.0</ele><time>2026-04-04T17:29:32.029Z</time></trkpt><trkpt lat="43.1277824" lon="12.2196306"><ele>234.0</ele><time>2026-04-04T17:29:34.031Z</time></trkpt><trkpt lat="43.1278327" lon="12.2195588"><ele>234.0</ele><time>2026-04-04T17:29:35.036Z</time></trkpt><trkpt lat="43.1279244" lon="12.219477"><ele>234.0</ele><time>2026-04-04T17:29:37.027Z</time></trkpt><trkpt lat="43.1279851" lon="12.2194309"><ele>233.99999999999997</ele><time>2026-04-04T17:29:39.031Z</time></trkpt><trkpt lat="43.128023" lon="12.2195049"><ele>233.99999999999997</ele><time>2026-04-04T17:29:49.041Z</time></trkpt><trkpt lat="43.1279803" lon="12.2196621"><ele>234.0</ele><time>2026-04-04T17:29:51.034Z</time></trkpt><trkpt lat="43.1279413" lon="12.2198025"><ele>234.0</ele><time>2026-04-04T17:29:52.037Z</time></trkpt><trkpt lat="43.1279037" lon="12.2199838"><ele>234.5</ele><time>2026-04-04T17:29:53.028Z</time></trkpt><trkpt lat="43.1278582" lon="12.2201939"><ele>235.0</ele><time>2026-04-04T17:29:54.048Z</time></trkpt><trkpt lat="43.1278146" lon="12.2203941"><ele>235.5</ele><time>2026-04-04T17:29:55.039Z</time></trkpt><trkpt lat="43.1277405" lon="12.2205348"><ele>236.0</ele><time>2026-04-04T17:29:56.036Z</time></trkpt><trkpt lat="43.1276577" lon="12.2206081"><ele>236.0</ele><time>2026-04-04T17:29:57.037Z</time></trkpt><trkpt lat="43.1275607" lon="12.2206387"><ele>236.0</ele><time>2026-04-04T17:29:58.032Z</time></trkpt><trkpt lat="43.1274401" lon="12.2206513"><ele>236.0</ele><time>2026-04-04T17:29:59.04Z</time></trkpt><trkpt lat="43.1273139" lon="12.2206686"><ele>236.0</ele><time>2026-04-04T17:30:00.045Z</time></trkpt><trkpt lat="43.1271897" lon="12.2207432"><ele>235.5</ele><time>2026-04-04T17:30:01.039Z</time></trkpt><trkpt lat="43.1270735" lon="12.2208721"><ele>235.0</ele><time>2026-04-04T17:30:02.034Z</time></trkpt><trkpt lat="43.1269529" lon="12.2209678"><ele>234.5</ele><time>2026-04-04T17:30:03.043Z</time></trkpt><trkpt lat="43.1268464" lon="12.221053"><ele>234.0</ele><time>2026-04-04T17:30:04.039Z</time></trkpt><trkpt lat="43.1267677" lon="12.2211575"><ele>234.0</ele><time>2026-04-04T17:30:05.051Z</time></trkpt><trkpt lat="43.126706" lon="12.2212713"><ele>234.0</ele><time>2026-04-04T17:30:06.043Z</time></trkpt><trkpt lat="43.1266717" lon="12.2214251"><ele>234.0</ele><time>2026-04-04T17:30:07.047Z</time></trkpt><trkpt lat="43.1266722" lon="12.2215836"><ele>234.0</ele><time>2026-04-04T17:30:08.035Z</time></trkpt><trkpt lat="43.1266988" lon="12.2217409"><ele>234.0</ele><time>2026-04-04T17:30:09.035Z</time></trkpt><trkpt lat="43.1267324" lon="12.2219253"><ele>234.0</ele><time>2026-04-04T17:30:10.032Z</time></trkpt><trkpt lat="43.126765" lon="12.2221171"><ele>234.0</ele><time>2026-04-04T17:30:11.045Z</time></trkpt><trkpt lat="43.1267921" lon="12.2223059"><ele>234.0</ele><time>2026-04-04T17:30:12.024Z</time></trkpt><trkpt lat="43.1268207" lon="12.2224843"><ele>233.79999999999998</ele><time>2026-04-04T17:30:13.041Z</time></trkpt><trkpt lat="43.1268513" lon="12.2226509"><ele>233.59999999999997</ele><time>2026-04-04T17:30:14.044Z</time></trkpt><trkpt lat="43.1268698" lon="12.222809"><ele>233.4</ele><time>2026-04-04T17:30:15.039Z</time></trkpt><trkpt lat="43.1268539" lon="12.2229466"><ele>233.2</ele><time>2026-04-04T17:30:16.034Z</time></trkpt><trkpt lat="43.1267999" lon="12.2230531"><ele>233.0</ele><time>2026-04-04T17:30:17.039Z</time></trkpt><trkpt lat="43.1267223" lon="12.2231519"><ele>233.0</ele><time>2026-04-04T17:30:18.046Z</time></trkpt><trkpt lat="43.12662" lon="12.223254"><ele>233.0</ele><time>2026-04-04T17:30:19.034Z</time></trkpt><trkpt lat="43.1264892" lon="12.2233442"><ele>233.0</ele><time>2026-04-04T17:30:20.042Z</time></trkpt><trkpt lat="43.1263451" lon="12.2234449"><ele>233.0</ele><time>2026-04-04T17:30:21.024Z</time></trkpt><trkpt lat="43.1262013" lon="12.2235611"><ele>233.5</ele><time>2026-04-04T17:30:22.039Z</time></trkpt><trkpt lat="43.1260662" lon="12.2236678"><ele>234.0</ele><time>2026-04-04T17:30:23.04Z</time></trkpt><trkpt lat="43.125937" lon="12.2237502"><ele>234.5</ele><time>2026-04-04T17:30:24.036Z</time></trkpt><trkpt lat="43.1258391" lon="12.2238341"><ele>235.0</ele><time>2026-04-04T17:30:25.037Z</time></trkpt><trkpt lat="43.1257618" lon="12.2239129"><ele>235.8</ele><time>2026-04-04T17:30:26.045Z</time></trkpt><trkpt lat="43.1257282" lon="12.2240185"><ele>236.6</ele><time>2026-04-04T17:30:27.042Z</time></trkpt><trkpt lat="43.1257208" lon="12.2241231"><ele>237.39999999999998</ele><time>2026-04-04T17:30:28.032Z</time></trkpt><trkpt lat="43.1257453" lon="12.2242359"><ele>238.2</ele><time>2026-04-04T17:30:29.025Z</time></trkpt><trkpt lat="43.1258037" lon="12.2243417"><ele>239.0</ele><time>2026-04-04T17:30:30.033Z</time></trkpt><trkpt lat="43.1258948" lon="12.2244476"><ele>239.0</ele><time>2026-04-04T17:30:31.039Z</time></trkpt><trkpt lat="43.1259941" lon="12.2245771"><ele>239.0</ele><time>2026-04-04T17:30:32.031Z</time></trkpt><trkpt lat="43.1260961" lon="12.2247169"><ele>239.0</ele><time>2026-04-04T17:30:33.034Z</time></trkpt><trkpt lat="43.1261992" lon="12.2248732"><ele>239.0</ele><time>2026-04-04T17:30:34.039Z</time></trkpt><trkpt lat="43.126306" lon="12.2250585"><ele>240.0</ele><time>2026-04-04T17:30:35.029Z</time></trkpt><trkpt lat="43.1264132" lon="12.2252738"><ele>241.0</ele><time>2026-04-04T17:30:36.029Z</time></trkpt><trkpt lat="43.126505" lon="12.2255022"><ele>242.0</ele><time>2026-04-04T17:30:37.034Z</time></trkpt><trkpt lat="43.1266006" lon="12.2257126"><ele>242.0</ele><time>2026-04-04T17:30:38.042Z</time></trkpt><trkpt lat="43.1266932" lon="12.2259219"><ele>242.0</ele><time>2026-04-04T17:30:39.03Z</time></trkpt><trkpt lat="43.126775" lon="12.2261378"><ele>242.0</ele><time>2026-04-04T17:30:40.026Z</time></trkpt><trkpt lat="43.1268546" lon="12.2263586"><ele>244.66666666666669</ele><time>2026-04-04T17:30:41.038Z</time></trkpt><trkpt lat="43.1269265" lon="12.2265963"><ele>247.33333333333331</ele><time>2026-04-04T17:30:42.028Z</time></trkpt><trkpt lat="43.1269902" lon="12.2268461"><ele>250.0</ele><time>2026-04-04T17:30:43.033Z</time></trkpt><trkpt lat="43.1270463" lon="12.2270963"><ele>250.33333333333331</ele><time>2026-04-04T17:30:44.034Z</time></trkpt><trkpt lat="43.1270989" lon="12.2273601"><ele>250.66666666666669</ele><time>2026-04-04T17:30:45.029Z</time></trkpt><trkpt lat="43.1271407" lon="12.2276256"><ele>251.0</ele><time>2026-04-04T17:30:46.023Z</time></trkpt><trkpt lat="43.1271763" lon="12.2278831"><ele>250.66666666666669</ele><time>2026-04-04T17:30:47.022Z</time></trkpt><trkpt lat="43.1272074" lon="12.2281463"><ele>250.33333333333331</ele><time>2026-04-04T17:30:48.023Z</time></trkpt><trkpt lat="43.1272282" lon="12.2284022"><ele>250.0</ele><time>2026-04-04T17:30:49.06Z</time></trkpt><trkpt lat="43.1272407" lon="12.2286642"><ele>250.0</ele><time>2026-04-04T17:30:50.037Z</time></trkpt><trkpt lat="43.1272546" lon="12.2289179"><ele>250.0</ele><time>2026-04-04T17:30:51.033Z</time></trkpt><trkpt lat="43.1272654" lon="12.2291559"><ele>250.0</ele><time>2026-04-04T17:30:52.025Z</time></trkpt><trkpt lat="43.1272691" lon="12.2293774"><ele>250.33333333333331</ele><time>2026-04-04T17:30:53.053Z</time></trkpt><trkpt lat="43.1272507" lon="12.2296051"><ele>250.66666666666669</ele><time>2026-04-04T17:30:54.035Z</time></trkpt><trkpt lat="43.1272003" lon="12.2298351"><ele>251.0</ele><time>2026-04-04T17:30:55.034Z</time></trkpt><trkpt lat="43.1271398" lon="12.2300672"><ele>251.0</ele><time>2026-04-04T17:30:56.039Z</time></trkpt><trkpt lat="43.127074" lon="12.2303103"><ele>251.0</ele><time>2026-04-04T17:30:57.053Z</time></trkpt><trkpt lat="43.1270056" lon="12.230557"><ele>251.0</ele><time>2026-04-04T17:30:58.035Z</time></trkpt><trkpt lat="43.1269377" lon="12.2308083"><ele>249.33333333333334</ele><time>2026-04-04T17:30:59.037Z</time></trkpt><trkpt lat="43.1268778" lon="12.2310649"><ele>247.66666666666669</ele><time>2026-04-04T17:31:00.049Z</time></trkpt><trkpt lat="43.1268204" lon="12.2313217"><ele>246.0</ele><time>2026-04-04T17:31:01.056Z</time></trkpt><trkpt lat="43.1267645" lon="12.2315826"><ele>244.33333333333331</ele><time>2026-04-04T17:31:02.035Z</time></trkpt><trkpt lat="43.1267157" lon="12.2318457"><ele>242.66666666666666</ele><time>2026-04-04T17:31:03.034Z</time></trkpt><trkpt lat="43.1266641" lon="12.2321129"><ele>241.0</ele><time>2026-04-04T17:31:04.03Z</time></trkpt><trkpt lat="43.1266204" lon="12.2323755"><ele>240.66666666666666</ele><time>2026-04-04T17:31:05.049Z</time></trkpt><trkpt lat="43.1265662" lon="12.2326265"><ele>240.33333333333331</ele><time>2026-04-04T17:31:06.037Z</time></trkpt><trkpt lat="43.1265228" lon="12.2328657"><ele>240.0</ele><time>2026-04-04T17:31:07.029Z</time></trkpt><trkpt lat="43.1264853" lon="12.2330794"><ele>241.5</ele><time>2026-04-04T17:31:08.041Z</time></trkpt><trkpt lat="43.1264465" lon="12.2332649"><ele>243.0</ele><time>2026-04-04T17:31:09.031Z</time></trkpt><trkpt lat="43.1263917" lon="12.2334322"><ele>244.5</ele><time>2026-04-04T17:31:10.049Z</time></trkpt><trkpt lat="43.12632" lon="12.2335949"><ele>246.0</ele><time>2026-04-04T17:31:11.028Z</time></trkpt><trkpt lat="43.1262302" lon="12.233738"><ele>246.0</ele><time>2026-04-04T17:31:12.039Z</time></trkpt><trkpt lat="43.1261219" lon="12.2338516"><ele>246.0</ele><time>2026-04-04T17:31:13.038Z</time></trkpt><trkpt lat="43.1260055" lon="12.2339394"><ele>246.0</ele><time>2026-04-04T17:31:14.044Z</time></trkpt><trkpt lat="43.1258717" lon="12.2339784"><ele>246.0</ele><time>2026-04-04T17:31:15.037Z</time></trkpt><trkpt lat="43.1257337" lon="12.2339837"><ele>244.0</ele><time>2026-04-04T17:31:16.036Z</time></trkpt><trkpt lat="43.1255749" lon="12.2339442"><ele>242.0</ele><time>2026-04-04T17:31:17.021Z</time></trkpt><trkpt lat="43.1254113" lon="12.2338763"><ele>240.0</ele><time>2026-04-04T17:31:18.04Z</time></trkpt><trkpt lat="43.1252504" lon="12.2338116"><ele>240.0</ele><time>2026-04-04T17:31:19.042Z</time></trkpt><trkpt lat="43.1250856" lon="12.2337533"><ele>240.0</ele><time>2026-04-04T17:31:20.026Z</time></trkpt><trkpt lat="43.124916" lon="12.2336897"><ele>240.0</ele><time>2026-04-04T17:31:21.026Z</time></trkpt><trkpt lat="43.1247454" lon="12.233625"><ele>239.33333333333331</ele><time>2026-04-04T17:31:22.034Z</time></trkpt><trkpt lat="43.1245735" lon="12.2335612"><ele>238.66666666666666</ele><time>2026-04-04T17:31:23.029Z</time></trkpt><trkpt lat="43.1244026" lon="12.2335005"><ele>238.0</ele><time>2026-04-04T17:31:24.032Z</time></trkpt><trkpt lat="43.1242351" lon="12.2334431"><ele>238.0</ele><time>2026-04-04T17:31:25.034Z</time></trkpt><trkpt lat="43.1240751" lon="12.2333783"><ele>238.0</ele><time>2026-04-04T17:31:26.036Z</time></trkpt><trkpt lat="43.1239165" lon="12.2333079"><ele>238.0</ele><time>2026-04-04T17:31:27.037Z</time></trkpt><trkpt lat="43.1237566" lon="12.2332447"><ele>238.33333333333331</ele><time>2026-04-04T17:31:28.035Z</time></trkpt><trkpt lat="43.1236022" lon="12.2331727"><ele>238.66666666666669</ele><time>2026-04-04T17:31:29.037Z</time></trkpt><trkpt lat="43.1234439" lon="12.2330765"><ele>239.0</ele><time>2026-04-04T17:31:30.049Z</time></trkpt><trkpt lat="43.1232864" lon="12.2329364"><ele>238.66666666666669</ele><time>2026-04-04T17:31:31.033Z</time></trkpt><trkpt lat="43.1231242" lon="12.232796"><ele>238.33333333333331</ele><time>2026-04-04T17:31:32.031Z</time></trkpt><trkpt lat="43.1229602" lon="12.2326491"><ele>238.0</ele><time>2026-04-04T17:31:33.034Z</time></trkpt><trkpt lat="43.1227984" lon="12.2325166"><ele>238.0</ele><time>2026-04-04T17:31:34.036Z</time></trkpt><trkpt lat="43.1226421" lon="12.2323902"><ele>238.0</ele><time>2026-04-04T17:31:35.036Z</time></trkpt><trkpt lat="43.1224951" lon="12.2322644"><ele>238.0</ele><time>2026-04-04T17:31:36.04Z</time></trkpt><trkpt lat="43.1223485" lon="12.2321458"><ele>240.0</ele><time>2026-04-04T17:31:37.03Z</time></trkpt><trkpt lat="43.1222088" lon="12.2320286"><ele>242.0</ele><time>2026-04-04T17:31:38.04Z</time></trkpt><trkpt lat="43.1220763" lon="12.2319151"><ele>244.0</ele><time>2026-04-04T17:31:39.04Z</time></trkpt><trkpt lat="43.1219234" lon="12.2318201"><ele>244.0</ele><time>2026-04-04T17:31:40.037Z</time></trkpt><trkpt lat="43.1217577" lon="12.2317413"><ele>244.0</ele><time>2026-04-04T17:31:41.034Z</time></trkpt><trkpt lat="43.121588" lon="12.2316804"><ele>244.0</ele><time>2026-04-04T17:31:42.031Z</time></trkpt><trkpt lat="43.1214114" lon="12.2316341"><ele>243.0</ele><time>2026-04-04T17:31:43.045Z</time></trkpt><trkpt lat="43.1212344" lon="12.2315906"><ele>242.0</ele><time>2026-04-04T17:31:44.024Z</time></trkpt><trkpt lat="43.1210478" lon="12.2315547"><ele>241.0</ele><time>2026-04-04T17:31:45.032Z</time></trkpt><trkpt lat="43.1208661" lon="12.2315305"><ele>241.0</ele><time>2026-04-04T17:31:46.043Z</time></trkpt><trkpt lat="43.1206804" lon="12.2315111"><ele>241.0</ele><time>2026-04-04T17:31:47.031Z</time></trkpt><trkpt lat="43.1205024" lon="12.231502"><ele>241.0</ele><time>2026-04-04T17:31:48.043Z</time></trkpt><trkpt lat="43.1203238" lon="12.2315067"><ele>241.0</ele><time>2026-04-04T17:31:49.028Z</time></trkpt><trkpt lat="43.1201356" lon="12.2315356"><ele>241.0</ele><time>2026-04-04T17:31:50.034Z</time></trkpt><trkpt lat="43.119952" lon="12.2315919"><ele>241.0</ele><time>2026-04-04T17:31:51.031Z</time></trkpt><trkpt lat="43.1197675" lon="12.2316675"><ele>242.66666666666666</ele><time>2026-04-04T17:31:52.023Z</time></trkpt><trkpt lat="43.1195852" lon="12.231767"><ele>244.33333333333331</ele><time>2026-04-04T17:31:53.033Z</time></trkpt><trkpt lat="43.1194091" lon="12.2318737"><ele>246.0</ele><time>2026-04-04T17:31:54.036Z</time></trkpt><trkpt lat="43.1192567" lon="12.2319836"><ele>246.0</ele><time>2026-04-04T17:31:55.032Z</time></trkpt><trkpt lat="43.1191274" lon="12.2320773"><ele>246.0</ele><time>2026-04-04T17:31:56.04Z</time></trkpt><trkpt lat="43.119018" lon="12.2321456"><ele>246.0</ele><time>2026-04-04T17:31:57.032Z</time></trkpt><trkpt lat="43.1189307" lon="12.2322174"><ele>246.0</ele><time>2026-04-04T17:31:58.022Z</time></trkpt><trkpt lat="43.118859" lon="12.2323004"><ele>245.8</ele><time>2026-04-04T17:31:59.044Z</time></trkpt><trkpt lat="43.1188158" lon="12.2323979"><ele>245.60000000000002</ele><time>2026-04-04T17:32:00.034Z</time></trkpt><trkpt lat="43.1187931" lon="12.2324958"><ele>245.4</ele><time>2026-04-04T17:32:01.029Z</time></trkpt><trkpt lat="43.1187976" lon="12.2326201"><ele>245.2</ele><time>2026-04-04T17:32:02.032Z</time></trkpt><trkpt lat="43.1188187" lon="12.2327705"><ele>245.0</ele><time>2026-04-04T17:32:03.024Z</time></trkpt><trkpt lat="43.1188343" lon="12.2329242"><ele>245.0</ele><time>2026-04-04T17:32:04.029Z</time></trkpt><trkpt lat="43.1188559" lon="12.2330813"><ele>245.0</ele><time>2026-04-04T17:32:05.037Z</time></trkpt><trkpt lat="43.1188744" lon="12.2332387"><ele>245.0</ele><time>2026-04-04T17:32:06.03Z</time></trkpt><trkpt lat="43.1188932" lon="12.2334014"><ele>245.0</ele><time>2026-04-04T17:32:07.044Z</time></trkpt><trkpt lat="43.1189099" lon="12.2335707"><ele>243.5</ele><time>2026-04-04T17:32:08.031Z</time></trkpt><trkpt lat="43.1189235" lon="12.2337507"><ele>242.0</ele><time>2026-04-04T17:32:09.046Z</time></trkpt><trkpt lat="43.1189376" lon="12.2339445"><ele>240.5</ele><time>2026-04-04T17:32:10.025Z</time></trkpt><trkpt lat="43.1189472" lon="12.2341469"><ele>239.0</ele><time>2026-04-04T17:32:11.033Z</time></trkpt><trkpt lat="43.1189348" lon="12.2343565"><ele>238.33333333333334</ele><time>2026-04-04T17:32:12.029Z</time></trkpt><trkpt lat="43.1189003" lon="12.2345658"><ele>237.66666666666669</ele><time>2026-04-04T17:32:13.031Z</time></trkpt><trkpt lat="43.1188488" lon="12.2347794"><ele>237.0</ele><time>2026-04-04T17:32:14.042Z</time></trkpt><trkpt lat="43.1187862" lon="12.2349741"><ele>237.0</ele><time>2026-04-04T17:32:15.032Z</time></trkpt><trkpt lat="43.1187153" lon="12.2351534"><ele>237.0</ele><time>2026-04-04T17:32:16.037Z</time></trkpt><trkpt lat="43.1186343" lon="12.235334"><ele>237.0</ele><time>2026-04-04T17:32:17.029Z</time></trkpt><trkpt lat="43.1185488" lon="12.235507"><ele>235.66666666666669</ele><time>2026-04-04T17:32:18.037Z</time></trkpt><trkpt lat="43.1184644" lon="12.2356758"><ele>234.33333333333334</ele><time>2026-04-04T17:32:19.034Z</time></trkpt><trkpt lat="43.1183744" lon="12.235852"><ele>233.0</ele><time>2026-04-04T17:32:20.028Z</time></trkpt><trkpt lat="43.1182782" lon="12.2360294"><ele>235.0</ele><time>2026-04-04T17:32:21.026Z</time></trkpt><trkpt lat="43.1181878" lon="12.2362099"><ele>237.0</ele><time>2026-04-04T17:32:22.032Z</time></trkpt><trkpt lat="43.1180932" lon="12.2363874"><ele>239.0</ele><time>2026-04-04T17:32:23.025Z</time></trkpt><trkpt lat="43.1179962" lon="12.2365605"><ele>239.0</ele><time>2026-04-04T17:32:24.056Z</time></trkpt><trkpt lat="43.1179083" lon="12.236729"><ele>239.0</ele><time>2026-04-04T17:32:25.045Z</time></trkpt><trkpt lat="43.1178259" lon="12.2369038"><ele>239.0</ele><time>2026-04-04T17:32:26.039Z</time></trkpt><trkpt lat="43.117771" lon="12.2370888"><ele>239.0</ele><time>2026-04-04T17:32:27.034Z</time></trkpt><trkpt lat="43.1177364" lon="12.2372822"><ele>238.0</ele><time>2026-04-04T17:32:28.043Z</time></trkpt><trkpt lat="43.1177146" lon="12.2374781"><ele>237.0</ele><time>2026-04-04T17:32:29.037Z</time></trkpt><trkpt lat="43.1176943" lon="12.2376689"><ele>236.0</ele><time>2026-04-04T17:32:30.034Z</time></trkpt><trkpt lat="43.1176677" lon="12.2378553"><ele>235.0</ele><time>2026-04-04T17:32:31.034Z</time></trkpt><trkpt lat="43.1176322" lon="12.2380364"><ele>235.25</ele><time>2026-04-04T17:32:32.028Z</time></trkpt><trkpt lat="43.1175844" lon="12.2382105"><ele>235.5</ele><time>2026-04-04T17:32:33.039Z</time></trkpt><trkpt lat="43.1175334" lon="12.2383854"><ele>235.75</ele><time>2026-04-04T17:32:34.028Z</time></trkpt><trkpt lat="43.117481" lon="12.2385468"><ele>236.0</ele><time>2026-04-04T17:32:35.036Z</time></trkpt><trkpt lat="43.1174311" lon="12.2387006"><ele>238.0</ele><time>2026-04-04T17:32:36.042Z</time></trkpt><trkpt lat="43.1173788" lon="12.2388413"><ele>240.0</ele><time>2026-04-04T17:32:37.04Z</time></trkpt><trkpt lat="43.1173085" lon="12.2389549"><ele>242.0</ele><time>2026-04-04T17:32:38.038Z</time></trkpt><trkpt lat="43.1172311" lon="12.2390639"><ele>244.0</ele><time>2026-04-04T17:32:39.036Z</time></trkpt><trkpt lat="43.1171437" lon="12.2391671"><ele>244.0</ele><time>2026-04-04T17:32:40.042Z</time></trkpt><trkpt lat="43.1170364" lon="12.2392581"><ele>244.0</ele><time>2026-04-04T17:32:41.032Z</time></trkpt><trkpt lat="43.1169079" lon="12.2393368"><ele>244.0</ele><time>2026-04-04T17:32:42.036Z</time></trkpt><trkpt lat="43.1167624" lon="12.2394256"><ele>244.0</ele><time>2026-04-04T17:32:43.032Z</time></trkpt><trkpt lat="43.1166019" lon="12.2395033"><ele>245.33333333333331</ele><time>2026-04-04T17:32:44.044Z</time></trkpt><trkpt lat="43.1164316" lon="12.2395801"><ele>246.66666666666669</ele><time>2026-04-04T17:32:45.028Z</time></trkpt><trkpt lat="43.1162669" lon="12.2396501"><ele>248.0</ele><time>2026-04-04T17:32:46.025Z</time></trkpt><trkpt lat="43.1160976" lon="12.2396949"><ele>248.0</ele><time>2026-04-04T17:32:47.034Z</time></trkpt><trkpt lat="43.1159104" lon="12.239696"><ele>248.0</ele><time>2026-04-04T17:32:48.03Z</time></trkpt><trkpt lat="43.1157202" lon="12.2396713"><ele>248.0</ele><time>2026-04-04T17:32:49.039Z</time></trkpt><trkpt lat="43.1155443" lon="12.2396349"><ele>246.66666666666669</ele><time>2026-04-04T17:32:50.024Z</time></trkpt><trkpt lat="43.1153802" lon="12.2396071"><ele>245.33333333333331</ele><time>2026-04-04T17:32:51.035Z</time></trkpt><trkpt lat="43.1152165" lon="12.2395762"><ele>244.0</ele><time>2026-04-04T17:32:52.029Z</time></trkpt><trkpt lat="43.1150629" lon="12.2395594"><ele>244.0</ele><time>2026-04-04T17:32:53.042Z</time></trkpt><trkpt lat="43.1149167" lon="12.2395849"><ele>244.0</ele><time>2026-04-04T17:32:54.049Z</time></trkpt><trkpt lat="43.1147655" lon="12.23964"><ele>244.0</ele><time>2026-04-04T17:32:55.044Z</time></trkpt><trkpt lat="43.1145962" lon="12.239751"><ele>239.33333333333331</ele><time>2026-04-04T17:32:56.037Z</time></trkpt><trkpt lat="43.1144188" lon="12.2398914"><ele>234.66666666666669</ele><time>2026-04-04T17:32:57.049Z</time></trkpt><trkpt lat="43.1142354" lon="12.2400364"><ele>230.0</ele><time>2026-04-04T17:32:58.023Z</time></trkpt><trkpt lat="43.1140424" lon="12.2401762"><ele>229.0</ele><time>2026-04-04T17:32:59.054Z</time></trkpt><trkpt lat="43.1138396" lon="12.2403331"><ele>228.0</ele><time>2026-04-04T17:33:00.041Z</time></trkpt><trkpt lat="43.1136289" lon="12.2405037"><ele>228.5</ele><time>2026-04-04T17:33:01.029Z</time></trkpt><trkpt lat="43.1134103" lon="12.2406714"><ele>229.0</ele><time>2026-04-04T17:33:02.037Z</time></trkpt><trkpt lat="43.1131921" lon="12.2408311"><ele>230.0</ele><time>2026-04-04T17:33:03.024Z</time></trkpt><trkpt lat="43.1129722" lon="12.2409888"><ele>231.0</ele><time>2026-04-04T17:33:04.035Z</time></trkpt><trkpt lat="43.1127555" lon="12.2411393"><ele>231.0</ele><time>2026-04-04T17:33:05.035Z</time></trkpt><trkpt lat="43.1125491" lon="12.2412881"><ele>231.0</ele><time>2026-04-04T17:33:06.034Z</time></trkpt><trkpt lat="43.1123495" lon="12.2414312"><ele>229.0</ele><time>2026-04-04T17:33:07.036Z</time></trkpt><trkpt lat="43.1121473" lon="12.2415771"><ele>227.0</ele><time>2026-04-04T17:33:08.035Z</time></trkpt><trkpt lat="43.1119396" lon="12.2417256"><ele>227.0</ele><time>2026-04-04T17:33:09.022Z</time></trkpt><trkpt lat="43.1117278" lon="12.2418718"><ele>227.0</ele><time>2026-04-04T17:33:10.036Z</time></trkpt><trkpt lat="43.1115209" lon="12.2420096"><ele>228.0</ele><time>2026-04-04T17:33:11.026Z</time></trkpt><trkpt lat="43.1113271" lon="12.2421363"><ele>229.0</ele><time>2026-04-04T17:33:12.026Z</time></trkpt><trkpt lat="43.1111473" lon="12.2422727"><ele>230.0</ele><time>2026-04-04T17:33:13.023Z</time></trkpt><trkpt lat="43.1109679" lon="12.242402"><ele>230.0</ele><time>2026-04-04T17:33:14.023Z</time></trkpt><trkpt lat="43.1107925" lon="12.2425275"><ele>230.0</ele><time>2026-04-04T17:33:15.018Z</time></trkpt><trkpt lat="43.1106267" lon="12.2426454"><ele>230.0</ele><time>2026-04-04T17:33:16.03Z</time></trkpt><trkpt lat="43.1104734" lon="12.2427542"><ele>233.33333333333334</ele><time>2026-04-04T17:33:17.062Z</time></trkpt><trkpt lat="43.1103179" lon="12.242862"><ele>236.66666666666669</ele><time>2026-04-04T17:33:18.031Z</time></trkpt><trkpt lat="43.1101512" lon="12.2429573"><ele>240.0</ele><time>2026-04-04T17:33:19.03Z</time></trkpt><trkpt lat="43.1099708" lon="12.2430195"><ele>241.33333333333331</ele><time>2026-04-04T17:33:20.033Z</time></trkpt><trkpt lat="43.1097847" lon="12.2430499"><ele>242.66666666666666</ele><time>2026-04-04T17:33:21.037Z</time></trkpt><trkpt lat="43.1096009" lon="12.2430416"><ele>244.0</ele><time>2026-04-04T17:33:22.048Z</time></trkpt><trkpt lat="43.1094145" lon="12.2429964"><ele>244.0</ele><time>2026-04-04T17:33:23.031Z</time></trkpt><trkpt lat="43.1092386" lon="12.2429408"><ele>244.0</ele><time>2026-04-04T17:33:24.034Z</time></trkpt><trkpt lat="43.1090799" lon="12.2428863"><ele>244.0</ele><time>2026-04-04T17:33:25.036Z</time></trkpt><trkpt lat="43.1089332" lon="12.2428633"><ele>246.0</ele><time>2026-04-04T17:33:26.028Z</time></trkpt><trkpt lat="43.108783" lon="12.2428952"><ele>248.0</ele><time>2026-04-04T17:33:27.032Z</time></trkpt><trkpt lat="43.1086273" lon="12.2429591"><ele>250.0</ele><time>2026-04-04T17:33:28.027Z</time></trkpt><trkpt lat="43.1084538" lon="12.2430516"><ele>246.33333333333331</ele><time>2026-04-04T17:33:29.039Z</time></trkpt><trkpt lat="43.1082803" lon="12.2431754"><ele>242.66666666666669</ele><time>2026-04-04T17:33:30.029Z</time></trkpt><trkpt lat="43.1081037" lon="12.2433241"><ele>239.0</ele><time>2026-04-04T17:33:31.033Z</time></trkpt><trkpt lat="43.1079218" lon="12.2434669"><ele>239.0</ele><time>2026-04-04T17:33:32.031Z</time></trkpt><trkpt lat="43.1077273" lon="12.2436135"><ele>239.0</ele><time>2026-04-04T17:33:33.036Z</time></trkpt><trkpt lat="43.107536" lon="12.2437475"><ele>239.0</ele><time>2026-04-04T17:33:34.049Z</time></trkpt><trkpt lat="43.1073555" lon="12.2438672"><ele>235.66666666666669</ele><time>2026-04-04T17:33:35.033Z</time></trkpt><trkpt lat="43.1071874" lon="12.2439701"><ele>232.33333333333331</ele><time>2026-04-04T17:33:36.024Z</time></trkpt><trkpt lat="43.1070282" lon="12.2440666"><ele>229.0</ele><time>2026-04-04T17:33:37.044Z</time></trkpt><trkpt lat="43.1068855" lon="12.2441497"><ele>229.0</ele><time>2026-04-04T17:33:38.038Z</time></trkpt><trkpt lat="43.1067592" lon="12.244221"><ele>228.99999999999997</ele><time>2026-04-04T17:33:39.061Z</time></trkpt><trkpt lat="43.1066516" lon="12.2442852"><ele>228.99999999999997</ele><time>2026-04-04T17:33:40.026Z</time></trkpt><trkpt lat="43.1065597" lon="12.2443415"><ele>229.0</ele><time>2026-04-04T17:33:41.035Z</time></trkpt><trkpt lat="43.1064845" lon="12.2444202"><ele>229.0</ele><time>2026-04-04T17:33:42.028Z</time></trkpt><trkpt lat="43.1064463" lon="12.2445355"><ele>228.75</ele><time>2026-04-04T17:33:43.053Z</time></trkpt><trkpt lat="43.106434" lon="12.244676"><ele>228.5</ele><time>2026-04-04T17:33:44.028Z</time></trkpt><trkpt lat="43.1064432" lon="12.2448412"><ele>228.25</ele><time>2026-04-04T17:33:45.045Z</time></trkpt><trkpt lat="43.1064626" lon="12.2450244"><ele>228.0</ele><time>2026-04-04T17:33:46.023Z</time></trkpt><trkpt lat="43.1064811" lon="12.2452152"><ele>227.0</ele><time>2026-04-04T17:33:47.041Z</time></trkpt><trkpt lat="43.106496" lon="12.2454"><ele>226.0</ele><time>2026-04-04T17:33:48.032Z</time></trkpt><trkpt lat="43.1065142" lon="12.2455776"><ele>225.0</ele><time>2026-04-04T17:33:49.034Z</time></trkpt><trkpt lat="43.1065361" lon="12.2457451"><ele>224.0</ele><time>2026-04-04T17:33:50.025Z</time></trkpt><trkpt lat="43.1065613" lon="12.2459129"><ele>223.75</ele><time>2026-04-04T17:33:51.031Z</time></trkpt><trkpt lat="43.1065813" lon="12.2460862"><ele>223.5</ele><time>2026-04-04T17:33:52.04Z</time></trkpt><trkpt lat="43.1066067" lon="12.2462555"><ele>223.25</ele><time>2026-04-04T17:33:53.041Z</time></trkpt><trkpt lat="43.1066375" lon="12.246422"><ele>223.0</ele><time>2026-04-04T17:33:54.042Z</time></trkpt><trkpt lat="43.1066755" lon="12.2465918"><ele>223.5</ele><time>2026-04-04T17:33:55.036Z</time></trkpt><trkpt lat="43.1067177" lon="12.246753"><ele>224.0</ele><time>2026-04-04T17:33:56.03Z</time></trkpt><trkpt lat="43.1067588" lon="12.2469104"><ele>224.5</ele><time>2026-04-04T17:33:57.041Z</time></trkpt><trkpt lat="43.1067994" lon="12.2470632"><ele>225.0</ele><time>2026-04-04T17:33:58.044Z</time></trkpt><trkpt lat="43.1068418" lon="12.2472177"><ele>225.25</ele><time>2026-04-04T17:33:59.028Z</time></trkpt><trkpt lat="43.1068845" lon="12.2473759"><ele>225.5</ele><time>2026-04-04T17:34:00.035Z</time></trkpt><trkpt lat="43.1069192" lon="12.2475385"><ele>225.75</ele><time>2026-04-04T17:34:01.026Z</time></trkpt><trkpt lat="43.106931" lon="12.2477064"><ele>226.0</ele><time>2026-04-04T17:34:02.041Z</time></trkpt><trkpt lat="43.1069089" lon="12.2478669"><ele>226.0</ele><time>2026-04-04T17:34:03.037Z</time></trkpt><trkpt lat="43.1068602" lon="12.2480108"><ele>226.0</ele><time>2026-04-04T17:34:04.032Z</time></trkpt><trkpt lat="43.1067924" lon="12.2481427"><ele>226.0</ele><time>2026-04-04T17:34:05.025Z</time></trkpt><trkpt lat="43.1067123" lon="12.2482677"><ele>226.0</ele><time>2026-04-04T17:34:06.04Z</time></trkpt><trkpt lat="43.1066177" lon="12.2483881"><ele>225.75</ele><time>2026-04-04T17:34:07.025Z</time></trkpt><trkpt lat="43.1065075" lon="12.2484873"><ele>225.5</ele><time>2026-04-04T17:34:08.039Z</time></trkpt><trkpt lat="43.1063913" lon="12.2485848"><ele>225.25</ele><time>2026-04-04T17:34:09.033Z</time></trkpt><trkpt lat="43.1062759" lon="12.2486812"><ele>225.0</ele><time>2026-04-04T17:34:10.04Z</time></trkpt><trkpt lat="43.1061638" lon="12.2487865"><ele>225.0</ele><time>2026-04-04T17:34:11.037Z</time></trkpt><trkpt lat="43.1060526" lon="12.248896"><ele>225.0</ele><time>2026-04-04T17:34:12.032Z</time></trkpt><trkpt lat="43.105955" lon="12.249017"><ele>225.0</ele><time>2026-04-04T17:34:13.052Z</time></trkpt><trkpt lat="43.1058954" lon="12.2491681"><ele>225.0</ele><time>2026-04-04T17:34:14.03Z</time></trkpt><trkpt lat="43.105866" lon="12.2493508"><ele>225.0</ele><time>2026-04-04T17:34:15.031Z</time></trkpt><trkpt lat="43.1058483" lon="12.2495382"><ele>225.0</ele><time>2026-04-04T17:34:16.029Z</time></trkpt><trkpt lat="43.1058317" lon="12.2497248"><ele>225.0</ele><time>2026-04-04T17:34:17.027Z</time></trkpt><trkpt lat="43.1058131" lon="12.2499217"><ele>225.0</ele><time>2026-04-04T17:34:18.032Z</time></trkpt><trkpt lat="43.1057922" lon="12.2501273"><ele>225.33333333333331</ele><time>2026-04-04T17:34:19.044Z</time></trkpt><trkpt lat="43.1057758" lon="12.2503557"><ele>225.66666666666666</ele><time>2026-04-04T17:34:20.049Z</time></trkpt><trkpt lat="43.1057602" lon="12.2505986"><ele>226.0</ele><time>2026-04-04T17:34:21.025Z</time></trkpt><trkpt lat="43.1057426" lon="12.2508691"><ele>226.0</ele><time>2026-04-04T17:34:22.033Z</time></trkpt><trkpt lat="43.1057274" lon="12.2511685"><ele>226.0</ele><time>2026-04-04T17:34:23.043Z</time></trkpt><trkpt lat="43.1056983" lon="12.2514739"><ele>226.0</ele><time>2026-04-04T17:34:24.051Z</time></trkpt><trkpt lat="43.1056854" lon="12.2517777"><ele>226.0</ele><time>2026-04-04T17:34:25.03Z</time></trkpt><trkpt lat="43.1056712" lon="12.2520544"><ele>226.0</ele><time>2026-04-04T17:34:26.033Z</time></trkpt><trkpt lat="43.1056566" lon="12.2522918"><ele>226.0</ele><time>2026-04-04T17:34:27.029Z</time></trkpt><trkpt lat="43.1056291" lon="12.2525297"><ele>226.0</ele><time>2026-04-04T17:34:28.018Z</time></trkpt><trkpt lat="43.1056038" lon="12.2527648"><ele>226.0</ele><time>2026-04-04T17:34:29.033Z</time></trkpt><trkpt lat="43.1055818" lon="12.2529938"><ele>226.0</ele><time>2026-04-04T17:34:30.049Z</time></trkpt><trkpt lat="43.1055701" lon="12.2532307"><ele>226.0</ele><time>2026-04-04T17:34:31.033Z</time></trkpt><trkpt lat="43.1055695" lon="12.2534687"><ele>226.0</ele><time>2026-04-04T17:34:32.028Z</time></trkpt><trkpt lat="43.105574" lon="12.2537099"><ele>226.0</ele><time>2026-04-04T17:34:33.03Z</time></trkpt><trkpt lat="43.1055929" lon="12.2539564"><ele>226.0</ele><time>2026-04-04T17:34:34.096Z</time></trkpt><trkpt lat="43.1056139" lon="12.2542041"><ele>226.0</ele><time>2026-04-04T17:34:35.031Z</time></trkpt><trkpt lat="43.105631" lon="12.2544517"><ele>226.0</ele><time>2026-04-04T17:34:36.055Z</time></trkpt><trkpt lat="43.1056431" lon="12.2546989"><ele>226.0</ele><time>2026-04-04T17:34:37.04Z</time></trkpt><trkpt lat="43.1056506" lon="12.2549529"><ele>226.0</ele><time>2026-04-04T17:34:38.032Z</time></trkpt><trkpt lat="43.1056616" lon="12.2552049"><ele>226.0</ele><time>2026-04-04T17:34:39.031Z</time></trkpt><trkpt lat="43.1056714" lon="12.2554557"><ele>226.0</ele><time>2026-04-04T17:34:40.038Z</time></trkpt><trkpt lat="43.1056786" lon="12.2557103"><ele>226.0</ele><time>2026-04-04T17:34:41.05Z</time></trkpt><trkpt lat="43.105682" lon="12.255961"><ele>226.0</ele><time>2026-04-04T17:34:42.033Z</time></trkpt><trkpt lat="43.1056893" lon="12.2562025"><ele>226.0</ele><time>2026-04-04T17:34:43.045Z</time></trkpt><trkpt lat="43.1056903" lon="12.2564408"><ele>226.0</ele><time>2026-04-04T17:34:44.034Z</time></trkpt><trkpt lat="43.1056939" lon="12.2566709"><ele>226.0</ele><time>2026-04-04T17:34:45.041Z</time></trkpt><trkpt lat="43.105702" lon="12.2568958"><ele>225.66666666666666</ele><time>2026-04-04T17:34:46.028Z</time></trkpt><trkpt lat="43.1057046" lon="12.2571189"><ele>225.33333333333331</ele><time>2026-04-04T17:34:47.039Z</time></trkpt><trkpt lat="43.1057084" lon="12.2573399"><ele>225.0</ele><time>2026-04-04T17:34:48.026Z</time></trkpt><trkpt lat="43.1057131" lon="12.2575609"><ele>225.0</ele><time>2026-04-04T17:34:49.023Z</time></trkpt><trkpt lat="43.1057121" lon="12.2577725"><ele>225.0</ele><time>2026-04-04T17:34:50.032Z</time></trkpt><trkpt lat="43.1057113" lon="12.2579654"><ele>225.0</ele><time>2026-04-04T17:34:51.027Z</time></trkpt><trkpt lat="43.1057152" lon="12.258158"><ele>225.0</ele><time>2026-04-04T17:34:52.029Z</time></trkpt><trkpt lat="43.1057247" lon="12.2583373"><ele>225.0</ele><time>2026-04-04T17:34:53.029Z</time></trkpt><trkpt lat="43.1057311" lon="12.2585045"><ele>225.0</ele><time>2026-04-04T17:34:54.044Z</time></trkpt><trkpt lat="43.105732" lon="12.2586628"><ele>225.0</ele><time>2026-04-04T17:34:55.028Z</time></trkpt><trkpt lat="43.1057363" lon="12.2588251"><ele>225.0</ele><time>2026-04-04T17:34:56.035Z</time></trkpt><trkpt lat="43.1057401" lon="12.2589769"><ele>225.5</ele><time>2026-04-04T17:34:57.042Z</time></trkpt><trkpt lat="43.1057426" lon="12.2591323"><ele>226.0</ele><time>2026-04-04T17:34:58.043Z</time></trkpt><trkpt lat="43.1057444" lon="12.2592957"><ele>226.5</ele><time>2026-04-04T17:34:59.03Z</time></trkpt><trkpt lat="43.1057398" lon="12.259452"><ele>227.0</ele><time>2026-04-04T17:35:00.045Z</time></trkpt><trkpt lat="43.1057342" lon="12.2596014"><ele>227.0</ele><time>2026-04-04T17:35:01.037Z</time></trkpt><trkpt lat="43.105737" lon="12.2597654"><ele>227.0</ele><time>2026-04-04T17:35:02.024Z</time></trkpt><trkpt lat="43.1057497" lon="12.2599387"><ele>227.0</ele><time>2026-04-04T17:35:03.033Z</time></trkpt><trkpt lat="43.1057643" lon="12.2601177"><ele>227.0</ele><time>2026-04-04T17:35:04.032Z</time></trkpt><trkpt lat="43.1057685" lon="12.2602957"><ele>227.5</ele><time>2026-04-04T17:35:05.037Z</time></trkpt><trkpt lat="43.1057645" lon="12.2604691"><ele>228.0</ele><time>2026-04-04T17:35:06.034Z</time></trkpt><trkpt lat="43.105775" lon="12.2606379"><ele>228.5</ele><time>2026-04-04T17:35:07.036Z</time></trkpt><trkpt lat="43.1057844" lon="12.2608096"><ele>229.0</ele><time>2026-04-04T17:35:08.033Z</time></trkpt><trkpt lat="43.1057934" lon="12.2609888"><ele>229.0</ele><time>2026-04-04T17:35:09.033Z</time></trkpt><trkpt lat="43.1058043" lon="12.2611787"><ele>229.0</ele><time>2026-04-04T17:35:10.034Z</time></trkpt><trkpt lat="43.1058127" lon="12.2613632"><ele>229.0</ele><time>2026-04-04T17:35:11.045Z</time></trkpt><trkpt lat="43.1058186" lon="12.261538"><ele>229.0</ele><time>2026-04-04T17:35:12.038Z</time></trkpt><trkpt lat="43.1058233" lon="12.2617031"><ele>229.0</ele><time>2026-04-04T17:35:13.046Z</time></trkpt><trkpt lat="43.1058338" lon="12.261853"><ele>228.99999999999997</ele><time>2026-04-04T17:35:14.038Z</time></trkpt><trkpt lat="43.1058401" lon="12.2619934"><ele>228.99999999999997</ele><time>2026-04-04T17:35:15.038Z</time></trkpt><trkpt lat="43.105847" lon="12.2621141"><ele>229.0</ele><time>2026-04-04T17:35:16.044Z</time></trkpt><trkpt lat="43.105856" lon="12.2622113"><ele>229.0</ele><time>2026-04-04T17:35:17.046Z</time></trkpt><trkpt lat="43.1058398" lon="12.2623247"><ele>228.66666666666666</ele><time>2026-04-04T17:35:19.065Z</time></trkpt><trkpt lat="43.1057529" lon="12.2623884"><ele>228.33333333333331</ele><time>2026-04-04T17:35:21.025Z</time></trkpt><trkpt lat="43.1056561" lon="12.2624117"><ele>228.0</ele><time>2026-04-04T17:35:23.016Z</time></trkpt><trkpt lat="43.1055905" lon="12.2624311"><ele>227.66666666666669</ele><time>2026-04-04T17:35:27.041Z</time></trkpt><trkpt lat="43.1055241" lon="12.2624586"><ele>227.33333333333334</ele><time>2026-04-04T17:35:31.035Z</time></trkpt><trkpt lat="43.1054558" lon="12.2624547"><ele>227.0</ele><time>2026-04-04T17:35:32.054Z</time></trkpt><trkpt lat="43.1053875" lon="12.2624359"><ele>227.00000000000003</ele><time>2026-04-04T17:35:34.049Z</time></trkpt><trkpt lat="43.1054299" lon="12.2625061"><ele>227.0</ele><time>2026-04-04T17:35:37.033Z</time></trkpt><trkpt lat="43.1055481" lon="12.2624552"><ele>227.0</ele><time>2026-04-04T17:35:39.04Z</time></trkpt><trkpt lat="43.1056203" lon="12.2624061"><ele>227.0</ele><time>2026-04-04T17:35:41.036Z</time></trkpt><trkpt lat="43.1056762" lon="12.2623556"><ele>227.00000000000003</ele><time>2026-04-04T17:47:05.033Z</time></trkpt><trkpt lat="43.1057656" lon="12.2623731"><ele>227.0</ele><time>2026-04-04T17:47:07.054Z</time></trkpt><trkpt lat="43.1058395" lon="12.2624041"><ele>227.00000000000003</ele><time>2026-04-04T17:47:10.016Z</time></trkpt><trkpt lat="43.1058762" lon="12.2625058"><ele>227.0</ele><time>2026-04-04T17:47:12.033Z</time></trkpt><trkpt lat="43.1058905" lon="12.2626476"><ele>227.0</ele><time>2026-04-04T17:47:14.025Z</time></trkpt><trkpt lat="43.1058874" lon="12.2627548"><ele>227.0</ele><time>2026-04-04T17:47:15.06Z</time></trkpt><trkpt lat="43.1058858" lon="12.2628744"><ele>227.00000000000003</ele><time>2026-04-04T17:47:16.031Z</time></trkpt><trkpt lat="43.1058825" lon="12.2629933"><ele>227.0</ele><time>2026-04-04T17:47:17.044Z</time></trkpt><trkpt lat="43.1058823" lon="12.2631133"><ele>227.0</ele><time>2026-04-04T17:47:18.033Z</time></trkpt><trkpt lat="43.1058877" lon="12.2632341"><ele>227.0</ele><time>2026-04-04T17:47:19.042Z</time></trkpt><trkpt lat="43.105886" lon="12.263362"><ele>227.0</ele><time>2026-04-04T17:47:20.024Z</time></trkpt><trkpt lat="43.1058815" lon="12.2634974"><ele>227.0</ele><time>2026-04-04T17:47:21.041Z</time></trkpt><trkpt lat="43.1058809" lon="12.2636396"><ele>227.0</ele><time>2026-04-04T17:47:22.028Z</time></trkpt><trkpt lat="43.1058811" lon="12.2637917"><ele>226.75</ele><time>2026-04-04T17:47:23.047Z</time></trkpt><trkpt lat="43.1058831" lon="12.2639551"><ele>226.5</ele><time>2026-04-04T17:47:24.03Z</time></trkpt><trkpt lat="43.1058888" lon="12.264121"><ele>226.25</ele><time>2026-04-04T17:47:25.049Z</time></trkpt><trkpt lat="43.105894" lon="12.2642852"><ele>226.0</ele><time>2026-04-04T17:47:26.05Z</time></trkpt><trkpt lat="43.1058994" lon="12.2644502"><ele>226.0</ele><time>2026-04-04T17:47:27.041Z</time></trkpt><trkpt lat="43.1058987" lon="12.2646177"><ele>226.0</ele><time>2026-04-04T17:47:28.055Z</time></trkpt><trkpt lat="43.1058983" lon="12.2647812"><ele>226.0</ele><time>2026-04-04T17:47:29.034Z</time></trkpt><trkpt lat="43.1058988" lon="12.2649422"><ele>226.0</ele><time>2026-04-04T17:47:30.042Z</time></trkpt><trkpt lat="43.1059022" lon="12.2650973"><ele>225.5</ele><time>2026-04-04T17:47:31.049Z</time></trkpt><trkpt lat="43.1059101" lon="12.2652525"><ele>225.0</ele><time>2026-04-04T17:47:32.022Z</time></trkpt><trkpt lat="43.1059163" lon="12.2654067"><ele>224.5</ele><time>2026-04-04T17:47:33.051Z</time></trkpt><trkpt lat="43.1059235" lon="12.2655709"><ele>224.0</ele><time>2026-04-04T17:47:34.057Z</time></trkpt><trkpt lat="43.105927" lon="12.2657453"><ele>224.0</ele><time>2026-04-04T17:47:35.033Z</time></trkpt><trkpt lat="43.1059359" lon="12.2659332"><ele>224.0</ele><time>2026-04-04T17:47:36.04Z</time></trkpt><trkpt lat="43.1059444" lon="12.2661308"><ele>224.0</ele><time>2026-04-04T17:47:37.032Z</time></trkpt><trkpt lat="43.1059497" lon="12.2663346"><ele>224.0</ele><time>2026-04-04T17:47:38.071Z</time></trkpt><trkpt lat="43.1059511" lon="12.2665361"><ele>223.66666666666669</ele><time>2026-04-04T17:47:39.039Z</time></trkpt><trkpt lat="43.105955" lon="12.2667562"><ele>223.33333333333331</ele><time>2026-04-04T17:47:40.037Z</time></trkpt><trkpt lat="43.1059606" lon="12.2669723"><ele>223.0</ele><time>2026-04-04T17:47:41.038Z</time></trkpt><trkpt lat="43.1059687" lon="12.2671898"><ele>223.0</ele><time>2026-04-04T17:47:42.036Z</time></trkpt><trkpt lat="43.1059763" lon="12.2674128"><ele>223.0</ele><time>2026-04-04T17:47:43.037Z</time></trkpt><trkpt lat="43.105982" lon="12.2676461"><ele>223.0</ele><time>2026-04-04T17:47:44.032Z</time></trkpt><trkpt lat="43.1059832" lon="12.2678832"><ele>224.0</ele><time>2026-04-04T17:47:45.039Z</time></trkpt><trkpt lat="43.1059847" lon="12.2681151"><ele>225.0</ele><time>2026-04-04T17:47:46.037Z</time></trkpt><trkpt lat="43.1059854" lon="12.2683492"><ele>226.0</ele><time>2026-04-04T17:47:47.044Z</time></trkpt><trkpt lat="43.1059793" lon="12.2685814"><ele>226.0</ele><time>2026-04-04T17:47:48.047Z</time></trkpt><trkpt lat="43.1059642" lon="12.2688157"><ele>226.0</ele><time>2026-04-04T17:47:49.028Z</time></trkpt><trkpt lat="43.1059415" lon="12.2690535"><ele>226.0</ele><time>2026-04-04T17:47:50.046Z</time></trkpt><trkpt lat="43.1059059" lon="12.2692823"><ele>226.66666666666666</ele><time>2026-04-04T17:47:51.033Z</time></trkpt><trkpt lat="43.1058656" lon="12.2694992"><ele>227.33333333333331</ele><time>2026-04-04T17:47:52.03Z</time></trkpt><trkpt lat="43.1058398" lon="12.2697206"><ele>228.0</ele><time>2026-04-04T17:47:53.04Z</time></trkpt><trkpt lat="43.1058238" lon="12.2699422"><ele>228.0</ele><time>2026-04-04T17:47:54.028Z</time></trkpt><trkpt lat="43.1058276" lon="12.2701725"><ele>228.0</ele><time>2026-04-04T17:47:55.03Z</time></trkpt><trkpt lat="43.1058506" lon="12.2704021"><ele>228.0</ele><time>2026-04-04T17:47:56.036Z</time></trkpt><trkpt lat="43.1058752" lon="12.2706404"><ele>228.0</ele><time>2026-04-04T17:47:57.038Z</time></trkpt><trkpt lat="43.105912" lon="12.2708789"><ele>228.0</ele><time>2026-04-04T17:47:58.037Z</time></trkpt><trkpt lat="43.1059519" lon="12.2711107"><ele>228.0</ele><time>2026-04-04T17:47:59.026Z</time></trkpt><trkpt lat="43.1059898" lon="12.2713382"><ele>226.66666666666669</ele><time>2026-04-04T17:48:00.033Z</time></trkpt><trkpt lat="43.1060143" lon="12.2715677"><ele>225.33333333333334</ele><time>2026-04-04T17:48:01.035Z</time></trkpt><trkpt lat="43.1060387" lon="12.2717858"><ele>224.0</ele><time>2026-04-04T17:48:02.035Z</time></trkpt><trkpt lat="43.106059" lon="12.2720016"><ele>224.0</ele><time>2026-04-04T17:48:03.041Z</time></trkpt><trkpt lat="43.1060735" lon="12.2722157"><ele>224.0</ele><time>2026-04-04T17:48:04.043Z</time></trkpt><trkpt lat="43.1060953" lon="12.2724187"><ele>224.0</ele><time>2026-04-04T17:48:05.038Z</time></trkpt><trkpt lat="43.1061238" lon="12.272624"><ele>224.0</ele><time>2026-04-04T17:48:06.038Z</time></trkpt><trkpt lat="43.1061426" lon="12.2728271"><ele>224.0</ele><time>2026-04-04T17:48:07.031Z</time></trkpt><trkpt lat="43.1061549" lon="12.2730363"><ele>224.0</ele><time>2026-04-04T17:48:08.029Z</time></trkpt><trkpt lat="43.1061664" lon="12.27323"><ele>224.0</ele><time>2026-04-04T17:48:09.034Z</time></trkpt><trkpt lat="43.1061785" lon="12.2734241"><ele>224.0</ele><time>2026-04-04T17:48:10.037Z</time></trkpt><trkpt lat="43.1061925" lon="12.2736256"><ele>224.0</ele><time>2026-04-04T17:48:11.038Z</time></trkpt><trkpt lat="43.1062054" lon="12.2738226"><ele>224.0</ele><time>2026-04-04T17:48:12.037Z</time></trkpt><trkpt lat="43.106218" lon="12.2740172"><ele>224.0</ele><time>2026-04-04T17:48:13.045Z</time></trkpt><trkpt lat="43.1062295" lon="12.2742098"><ele>224.0</ele><time>2026-04-04T17:48:14.026Z</time></trkpt><trkpt lat="43.1062456" lon="12.2744057"><ele>224.0</ele><time>2026-04-04T17:48:15.031Z</time></trkpt><trkpt lat="43.1062575" lon="12.2746008"><ele>224.0</ele><time>2026-04-04T17:48:16.041Z</time></trkpt><trkpt lat="43.1062721" lon="12.2747912"><ele>224.0</ele><time>2026-04-04T17:48:17.036Z</time></trkpt><trkpt lat="43.1062814" lon="12.2749815"><ele>223.75</ele><time>2026-04-04T17:48:18.038Z</time></trkpt><trkpt lat="43.1062918" lon="12.2751697"><ele>223.5</ele><time>2026-04-04T17:48:19.043Z</time></trkpt><trkpt lat="43.1063091" lon="12.2753627"><ele>223.25</ele><time>2026-04-04T17:48:20.045Z</time></trkpt><trkpt lat="43.1063256" lon="12.2755596"><ele>223.0</ele><time>2026-04-04T17:48:21.031Z</time></trkpt><trkpt lat="43.1063411" lon="12.2757728"><ele>223.0</ele><time>2026-04-04T17:48:22.049Z</time></trkpt><trkpt lat="43.1063554" lon="12.2759874"><ele>223.0</ele><time>2026-04-04T17:48:23.03Z</time></trkpt><trkpt lat="43.106369" lon="12.276205"><ele>223.0</ele><time>2026-04-04T17:48:24.027Z</time></trkpt><trkpt lat="43.106385" lon="12.2764207"><ele>223.0</ele><time>2026-04-04T17:48:25.046Z</time></trkpt><trkpt lat="43.1064074" lon="12.2766372"><ele>223.0</ele><time>2026-04-04T17:48:26.04Z</time></trkpt><trkpt lat="43.1064214" lon="12.2768504"><ele>223.0</ele><time>2026-04-04T17:48:27.024Z</time></trkpt><trkpt lat="43.1064401" lon="12.2770596"><ele>223.0</ele><time>2026-04-04T17:48:28.06Z</time></trkpt><trkpt lat="43.1064549" lon="12.2772702"><ele>223.0</ele><time>2026-04-04T17:48:29.025Z</time></trkpt><trkpt lat="43.1064717" lon="12.2774808"><ele>223.0</ele><time>2026-04-04T17:48:30.036Z</time></trkpt><trkpt lat="43.1064824" lon="12.2776942"><ele>223.0</ele><time>2026-04-04T17:48:31.048Z</time></trkpt><trkpt lat="43.1064961" lon="12.2779091"><ele>223.0</ele><time>2026-04-04T17:48:32.038Z</time></trkpt><trkpt lat="43.1065121" lon="12.2781335"><ele>223.0</ele><time>2026-04-04T17:48:33.04Z</time></trkpt><trkpt lat="43.1065246" lon="12.2783625"><ele>223.0</ele><time>2026-04-04T17:48:34.021Z</time></trkpt><trkpt lat="43.1065339" lon="12.2785945"><ele>223.0</ele><time>2026-04-04T17:48:35.031Z</time></trkpt><trkpt lat="43.1065541" lon="12.2788115"><ele>223.0</ele><time>2026-04-04T17:48:36.026Z</time></trkpt><trkpt lat="43.106579" lon="12.2790418"><ele>224.33333333333331</ele><time>2026-04-04T17:48:37.041Z</time></trkpt><trkpt lat="43.1065993" lon="12.2792667"><ele>225.66666666666669</ele><time>2026-04-04T17:48:38.047Z</time></trkpt><trkpt lat="43.1066203" lon="12.279492"><ele>227.0</ele><time>2026-04-04T17:48:39.036Z</time></trkpt><trkpt lat="43.1066352" lon="12.2797217"><ele>226.33333333333334</ele><time>2026-04-04T17:48:40.043Z</time></trkpt><trkpt lat="43.1066526" lon="12.2799457"><ele>225.66666666666669</ele><time>2026-04-04T17:48:41.04Z</time></trkpt><trkpt lat="43.1066735" lon="12.2801678"><ele>225.0</ele><time>2026-04-04T17:48:42.062Z</time></trkpt><trkpt lat="43.1066884" lon="12.2803891"><ele>225.0</ele><time>2026-04-04T17:48:43.033Z</time></trkpt><trkpt lat="43.1067087" lon="12.2806122"><ele>225.0</ele><time>2026-04-04T17:48:44.035Z</time></trkpt><trkpt lat="43.1067234" lon="12.2808354"><ele>225.0</ele><time>2026-04-04T17:48:45.028Z</time></trkpt><trkpt lat="43.106737" lon="12.2810636"><ele>225.0</ele><time>2026-04-04T17:48:46.042Z</time></trkpt><trkpt lat="43.1067532" lon="12.2813014"><ele>225.0</ele><time>2026-04-04T17:48:47.04Z</time></trkpt><trkpt lat="43.1067695" lon="12.2815374"><ele>225.0</ele><time>2026-04-04T17:48:48.035Z</time></trkpt><trkpt lat="43.1067726" lon="12.2817735"><ele>225.33333333333331</ele><time>2026-04-04T17:48:49.046Z</time></trkpt><trkpt lat="43.1067952" lon="12.2820127"><ele>225.66666666666666</ele><time>2026-04-04T17:48:50.044Z</time></trkpt><trkpt lat="43.1068175" lon="12.282247"><ele>226.0</ele><time>2026-04-04T17:48:51.045Z</time></trkpt><trkpt lat="43.1068391" lon="12.2824777"><ele>226.0</ele><time>2026-04-04T17:48:52.031Z</time></trkpt><trkpt lat="43.1068572" lon="12.2827096"><ele>226.0</ele><time>2026-04-04T17:48:53.035Z</time></trkpt><trkpt lat="43.106878" lon="12.2829412"><ele>226.0</ele><time>2026-04-04T17:48:54.021Z</time></trkpt><trkpt lat="43.1068953" lon="12.2831583"><ele>226.75</ele><time>2026-04-04T17:48:55.034Z</time></trkpt><trkpt lat="43.1069168" lon="12.2833694"><ele>227.5</ele><time>2026-04-04T17:48:56.038Z</time></trkpt><trkpt lat="43.1069361" lon="12.283565"><ele>228.25</ele><time>2026-04-04T17:48:57.042Z</time></trkpt><trkpt lat="43.1069466" lon="12.2837536"><ele>229.0</ele><time>2026-04-04T17:48:58.043Z</time></trkpt><trkpt lat="43.1069579" lon="12.2839409"><ele>229.75</ele><time>2026-04-04T17:48:59.054Z</time></trkpt><trkpt lat="43.1069663" lon="12.2841268"><ele>230.5</ele><time>2026-04-04T17:49:00.037Z</time></trkpt><trkpt lat="43.1069773" lon="12.2843085"><ele>231.25</ele><time>2026-04-04T17:49:01.038Z</time></trkpt><trkpt lat="43.1069961" lon="12.2844766"><ele>232.0</ele><time>2026-04-04T17:49:02.042Z</time></trkpt><trkpt lat="43.1070145" lon="12.2846191"><ele>231.99999999999997</ele><time>2026-04-04T17:49:03.037Z</time></trkpt><trkpt lat="43.1070343" lon="12.2847444"><ele>232.0</ele><time>2026-04-04T17:49:04.032Z</time></trkpt><trkpt lat="43.1070383" lon="12.2848379"><ele>232.0</ele><time>2026-04-04T17:49:05.038Z</time></trkpt><trkpt lat="43.1070244" lon="12.2849262"><ele>232.0</ele><time>2026-04-04T17:49:06.028Z</time></trkpt><trkpt lat="43.1069981" lon="12.2850429"><ele>231.99999999999997</ele><time>2026-04-04T17:49:07.04Z</time></trkpt><trkpt lat="43.1069619" lon="12.2851665"><ele>232.0</ele><time>2026-04-04T17:49:08.017Z</time></trkpt><trkpt lat="43.1069134" lon="12.2852931"><ele>232.6</ele><time>2026-04-04T17:49:09.011Z</time></trkpt><trkpt lat="43.1068556" lon="12.2854165"><ele>233.2</ele><time>2026-04-04T17:49:10.029Z</time></trkpt><trkpt lat="43.1067986" lon="12.2855365"><ele>233.8</ele><time>2026-04-04T17:49:11.038Z</time></trkpt><trkpt lat="43.1067369" lon="12.2856683"><ele>234.4</ele><time>2026-04-04T17:49:12.034Z</time></trkpt><trkpt lat="43.1066915" lon="12.2857832"><ele>235.0</ele><time>2026-04-04T17:49:13.032Z</time></trkpt><trkpt lat="43.1066643" lon="12.2858746"><ele>236.0</ele><time>2026-04-04T17:49:14.032Z</time></trkpt><trkpt lat="43.1066578" lon="12.2859966"><ele>237.0</ele><time>2026-04-04T17:49:15.045Z</time></trkpt><trkpt lat="43.1066525" lon="12.2861371"><ele>238.0</ele><time>2026-04-04T17:49:16.037Z</time></trkpt><trkpt lat="43.1066382" lon="12.286294"><ele>239.0</ele><time>2026-04-04T17:49:17.026Z</time></trkpt><trkpt lat="43.1066118" lon="12.2864837"><ele>240.0</ele><time>2026-04-04T17:49:18.05Z</time></trkpt><trkpt lat="43.10658" lon="12.2866883"><ele>240.0</ele><time>2026-04-04T17:49:19.028Z</time></trkpt><trkpt lat="43.1065371" lon="12.286901"><ele>240.0</ele><time>2026-04-04T17:49:20.032Z</time></trkpt><trkpt lat="43.1064873" lon="12.2870923"><ele>240.0</ele><time>2026-04-04T17:49:21.038Z</time></trkpt><trkpt lat="43.1064381" lon="12.2872274"><ele>240.0</ele><time>2026-04-04T17:49:22.045Z</time></trkpt><trkpt lat="43.1063969" lon="12.2873303"><ele>241.4</ele><time>2026-04-04T17:49:23.047Z</time></trkpt><trkpt lat="43.1063415" lon="12.2874682"><ele>242.8</ele><time>2026-04-04T17:49:25.036Z</time></trkpt><trkpt lat="43.1063093" lon="12.2875456"><ele>244.2</ele><time>2026-04-04T17:49:29.033Z</time></trkpt><trkpt lat="43.1062301" lon="12.2876873"><ele>245.6</ele><time>2026-04-04T17:49:36.035Z</time></trkpt><trkpt lat="43.1061683" lon="12.2877533"><ele>247.0</ele><time>2026-04-04T17:49:37.049Z</time></trkpt><trkpt lat="43.1060876" lon="12.2878328"><ele>247.0</ele><time>2026-04-04T17:49:38.039Z</time></trkpt><trkpt lat="43.1059944" lon="12.2879301"><ele>247.0</ele><time>2026-04-04T17:49:39.031Z</time></trkpt><trkpt lat="43.1058827" lon="12.28804"><ele>247.0</ele><time>2026-04-04T17:49:40.026Z</time></trkpt><trkpt lat="43.1057588" lon="12.2881577"><ele>247.0</ele><time>2026-04-04T17:49:41.051Z</time></trkpt><trkpt lat="43.1056355" lon="12.2882751"><ele>248.33333333333331</ele><time>2026-04-04T17:49:42.026Z</time></trkpt><trkpt lat="43.1055128" lon="12.2884062"><ele>249.66666666666669</ele><time>2026-04-04T17:49:43.045Z</time></trkpt><trkpt lat="43.1053904" lon="12.2885661"><ele>251.0</ele><time>2026-04-04T17:49:44.028Z</time></trkpt><trkpt lat="43.1052833" lon="12.2887577"><ele>251.0</ele><time>2026-04-04T17:49:45.044Z</time></trkpt><trkpt lat="43.105199" lon="12.2889623"><ele>251.0</ele><time>2026-04-04T17:49:46.038Z</time></trkpt><trkpt lat="43.1051353" lon="12.2891778"><ele>251.0</ele><time>2026-04-04T17:49:47.032Z</time></trkpt><trkpt lat="43.1050955" lon="12.2893947"><ele>251.0</ele><time>2026-04-04T17:49:48.03Z</time></trkpt><trkpt lat="43.1050756" lon="12.2896099"><ele>251.0</ele><time>2026-04-04T17:49:49.027Z</time></trkpt><trkpt lat="43.1050605" lon="12.2898128"><ele>251.0</ele><time>2026-04-04T17:49:50.032Z</time></trkpt><trkpt lat="43.1050484" lon="12.2900086"><ele>251.0</ele><time>2026-04-04T17:49:51.031Z</time></trkpt><trkpt lat="43.105033" lon="12.2902048"><ele>251.0</ele><time>2026-04-04T17:49:52.034Z</time></trkpt><trkpt lat="43.105013" lon="12.2904132"><ele>251.0</ele><time>2026-04-04T17:49:53.037Z</time></trkpt><trkpt lat="43.1049901" lon="12.290624"><ele>250.33333333333334</ele><time>2026-04-04T17:49:54.043Z</time></trkpt><trkpt lat="43.1049695" lon="12.2908372"><ele>249.66666666666669</ele><time>2026-04-04T17:49:55.047Z</time></trkpt><trkpt lat="43.1049445" lon="12.2910386"><ele>249.0</ele><time>2026-04-04T17:49:56.036Z</time></trkpt><trkpt lat="43.1049151" lon="12.2912356"><ele>249.75</ele><time>2026-04-04T17:49:57.046Z</time></trkpt><trkpt lat="43.104876" lon="12.2914257"><ele>250.5</ele><time>2026-04-04T17:49:58.034Z</time></trkpt><trkpt lat="43.1048359" lon="12.2916044"><ele>251.25</ele><time>2026-04-04T17:49:59.043Z</time></trkpt><trkpt lat="43.1047971" lon="12.2917706"><ele>252.0</ele><time>2026-04-04T17:50:00.021Z</time></trkpt><trkpt lat="43.1047515" lon="12.2919287"><ele>252.0</ele><time>2026-04-04T17:50:01.027Z</time></trkpt><trkpt lat="43.1047069" lon="12.2920789"><ele>252.0</ele><time>2026-04-04T17:50:02.033Z</time></trkpt><trkpt lat="43.1046565" lon="12.2922235"><ele>252.0</ele><time>2026-04-04T17:50:03.041Z</time></trkpt><trkpt lat="43.1046048" lon="12.2923669"><ele>252.0</ele><time>2026-04-04T17:50:04.031Z</time></trkpt><trkpt lat="43.1045612" lon="12.292522"><ele>253.0</ele><time>2026-04-04T17:50:05.029Z</time></trkpt><trkpt lat="43.1045149" lon="12.2927008"><ele>254.0</ele><time>2026-04-04T17:50:06.038Z</time></trkpt><trkpt lat="43.1044637" lon="12.2929297"><ele>255.0</ele><time>2026-04-04T17:50:07.04Z</time></trkpt><trkpt lat="43.1043919" lon="12.2931874"><ele>255.66666666666669</ele><time>2026-04-04T17:50:08.03Z</time></trkpt><trkpt lat="43.1043255" lon="12.2934247"><ele>256.33333333333337</ele><time>2026-04-04T17:50:09.043Z</time></trkpt><trkpt lat="43.1042666" lon="12.2936564"><ele>257.0</ele><time>2026-04-04T17:50:10.028Z</time></trkpt><trkpt lat="43.1041862" lon="12.2939126"><ele>255.5</ele><time>2026-04-04T17:50:11.024Z</time></trkpt><trkpt lat="43.1040853" lon="12.2941975"><ele>254.0</ele><time>2026-04-04T17:50:12.022Z</time></trkpt><trkpt lat="43.1039868" lon="12.2944939"><ele>252.33333333333334</ele><time>2026-04-04T17:50:13.03Z</time></trkpt><trkpt lat="43.1038988" lon="12.2947719"><ele>250.66666666666669</ele><time>2026-04-04T17:50:14.025Z</time></trkpt><trkpt lat="43.1038141" lon="12.2950068"><ele>249.0</ele><time>2026-04-04T17:50:15.043Z</time></trkpt><trkpt lat="43.1037421" lon="12.2952041"><ele>249.0</ele><time>2026-04-04T17:50:16.035Z</time></trkpt><trkpt lat="43.1036821" lon="12.2953636"><ele>248.99999999999997</ele><time>2026-04-04T17:50:17.044Z</time></trkpt><trkpt lat="43.1036285" lon="12.2955009"><ele>248.99999999999997</ele><time>2026-04-04T17:50:18.024Z</time></trkpt><trkpt lat="43.1035717" lon="12.2956013"><ele>249.0</ele><time>2026-04-04T17:50:19.024Z</time></trkpt><trkpt lat="43.1034871" lon="12.2956743"><ele>249.0</ele><time>2026-04-04T17:50:20.031Z</time></trkpt><trkpt lat="43.1034014" lon="12.2957153"><ele>249.16666666666666</ele><time>2026-04-04T17:50:21.036Z</time></trkpt><trkpt lat="43.1033158" lon="12.2957256"><ele>249.33333333333331</ele><time>2026-04-04T17:50:22.037Z</time></trkpt><trkpt lat="43.1032516" lon="12.295714"><ele>249.5</ele><time>2026-04-04T17:50:23.025Z</time></trkpt><trkpt lat="43.1031286" lon="12.2957455"><ele>249.66666666666666</ele><time>2026-04-04T17:50:25.036Z</time></trkpt><trkpt lat="43.1030632" lon="12.2958049"><ele>249.83333333333331</ele><time>2026-04-04T17:50:26.04Z</time></trkpt><trkpt lat="43.1030143" lon="12.2958945"><ele>250.0</ele><time>2026-04-04T17:50:27.033Z</time></trkpt><trkpt lat="43.1029953" lon="12.296003"><ele>249.83333333333331</ele><time>2026-04-04T17:50:28.036Z</time></trkpt><trkpt lat="43.1030112" lon="12.2961267"><ele>249.66666666666666</ele><time>2026-04-04T17:50:29.026Z</time></trkpt><trkpt lat="43.1030478" lon="12.2962333"><ele>249.5</ele><time>2026-04-04T17:50:30.033Z</time></trkpt><trkpt lat="43.1031018" lon="12.2963318"><ele>249.33333333333331</ele><time>2026-04-04T17:50:31.035Z</time></trkpt><trkpt lat="43.1031645" lon="12.2964178"><ele>249.16666666666666</ele><time>2026-04-04T17:50:32.026Z</time></trkpt><trkpt lat="43.10321" lon="12.2965166"><ele>249.0</ele><time>2026-04-04T17:50:33.023Z</time></trkpt><trkpt lat="43.1032169" lon="12.2966257"><ele>249.0</ele><time>2026-04-04T17:50:34.039Z</time></trkpt><trkpt lat="43.1031984" lon="12.2967384"><ele>248.99999999999997</ele><time>2026-04-04T17:50:35.026Z</time></trkpt><trkpt lat="43.1031575" lon="12.2968513"><ele>248.99999999999997</ele><time>2026-04-04T17:50:36.032Z</time></trkpt><trkpt lat="43.1031088" lon="12.2969915"><ele>249.0</ele><time>2026-04-04T17:50:37.033Z</time></trkpt><trkpt lat="43.1030596" lon="12.2971891"><ele>249.0</ele><time>2026-04-04T17:50:38.028Z</time></trkpt><trkpt lat="43.1030054" lon="12.2973971"><ele>248.66666666666669</ele><time>2026-04-04T17:50:39.035Z</time></trkpt><trkpt lat="43.1029467" lon="12.2976313"><ele>248.33333333333334</ele><time>2026-04-04T17:50:40.055Z</time></trkpt><trkpt lat="43.1028977" lon="12.2978669"><ele>248.0</ele><time>2026-04-04T17:50:41.027Z</time></trkpt><trkpt lat="43.1028497" lon="12.2981096"><ele>248.66666666666669</ele><time>2026-04-04T17:50:42.039Z</time></trkpt><trkpt lat="43.1028012" lon="12.2983478"><ele>249.33333333333331</ele><time>2026-04-04T17:50:43.034Z</time></trkpt><trkpt lat="43.1027565" lon="12.2985693"><ele>250.0</ele><time>2026-04-04T17:50:44.032Z</time></trkpt><trkpt lat="43.1027098" lon="12.2987996"><ele>251.0</ele><time>2026-04-04T17:50:45.028Z</time></trkpt><trkpt lat="43.1026679" lon="12.2990342"><ele>252.0</ele><time>2026-04-04T17:50:46.02Z</time></trkpt><trkpt lat="43.1026276" lon="12.2992755"><ele>253.0</ele><time>2026-04-04T17:50:47.037Z</time></trkpt><trkpt lat="43.1025791" lon="12.2995346"><ele>254.0</ele><time>2026-04-04T17:50:48.019Z</time></trkpt><trkpt lat="43.1025278" lon="12.2997953"><ele>255.0</ele><time>2026-04-04T17:50:49.042Z</time></trkpt><trkpt lat="43.1024809" lon="12.3000405"><ele>256.0</ele><time>2026-04-04T17:50:50.028Z</time></trkpt><trkpt lat="43.1024338" lon="12.3002764"><ele>255.0</ele><time>2026-04-04T17:50:51.042Z</time></trkpt><trkpt lat="43.1023853" lon="12.3005144"><ele>254.0</ele><time>2026-04-04T17:50:52.035Z</time></trkpt><trkpt lat="43.1023372" lon="12.3007647"><ele>253.0</ele><time>2026-04-04T17:50:53.027Z</time></trkpt><trkpt lat="43.1022838" lon="12.3010094"><ele>253.0</ele><time>2026-04-04T17:50:54.033Z</time></trkpt><trkpt lat="43.1022365" lon="12.3012399"><ele>253.0</ele><time>2026-04-04T17:50:55.04Z</time></trkpt><trkpt lat="43.1021858" lon="12.301462"><ele>253.0</ele><time>2026-04-04T17:50:56.044Z</time></trkpt><trkpt lat="43.1021405" lon="12.3016636"><ele>253.0</ele><time>2026-04-04T17:50:57.029Z</time></trkpt><trkpt lat="43.1020974" lon="12.3018501"><ele>253.0</ele><time>2026-04-04T17:50:58.028Z</time></trkpt><trkpt lat="43.1020523" lon="12.3020254"><ele>253.0</ele><time>2026-04-04T17:50:59.024Z</time></trkpt><trkpt lat="43.1020176" lon="12.3021982"><ele>253.0</ele><time>2026-04-04T17:51:00.028Z</time></trkpt><trkpt lat="43.1019795" lon="12.3023743"><ele>251.75</ele><time>2026-04-04T17:51:01.023Z</time></trkpt><trkpt lat="43.1019418" lon="12.3025568"><ele>250.5</ele><time>2026-04-04T17:51:02.028Z</time></trkpt><trkpt lat="43.1018987" lon="12.3027229"><ele>249.25</ele><time>2026-04-04T17:51:03.033Z</time></trkpt><trkpt lat="43.1018558" lon="12.3028769"><ele>248.0</ele><time>2026-04-04T17:51:04.033Z</time></trkpt><trkpt lat="43.1018155" lon="12.3030027"><ele>248.0</ele><time>2026-04-04T17:51:05.028Z</time></trkpt><trkpt lat="43.1017436" lon="12.303086"><ele>248.0</ele><time>2026-04-04T17:51:06.034Z</time></trkpt><trkpt lat="43.1016561" lon="12.3031504"><ele>248.0</ele><time>2026-04-04T17:51:07.032Z</time></trkpt><trkpt lat="43.1015322" lon="12.3031671"><ele>248.0</ele><time>2026-04-04T17:51:08.034Z</time></trkpt><trkpt lat="43.1013902" lon="12.3031642"><ele>247.25</ele><time>2026-04-04T17:51:09.028Z</time></trkpt><trkpt lat="43.1012409" lon="12.3031802"><ele>246.5</ele><time>2026-04-04T17:51:10.048Z</time></trkpt><trkpt lat="43.1011136" lon="12.3032099"><ele>245.75</ele><time>2026-04-04T17:51:11.026Z</time></trkpt><trkpt lat="43.1009958" lon="12.3032274"><ele>245.0</ele><time>2026-04-04T17:51:12.033Z</time></trkpt><trkpt lat="43.1008885" lon="12.3032457"><ele>245.0</ele><time>2026-04-04T17:51:13.024Z</time></trkpt><trkpt lat="43.100793" lon="12.303282"><ele>245.0</ele><time>2026-04-04T17:51:14.03Z</time></trkpt><trkpt lat="43.1007409" lon="12.3033738"><ele>245.0</ele><time>2026-04-04T17:51:15.03Z</time></trkpt><trkpt lat="43.1007266" lon="12.3034939"><ele>245.0</ele><time>2026-04-04T17:51:16.032Z</time></trkpt><trkpt lat="43.1007302" lon="12.3036348"><ele>245.0</ele><time>2026-04-04T17:51:17.024Z</time></trkpt><trkpt lat="43.1007501" lon="12.3037812"><ele>245.00000000000003</ele><time>2026-04-04T17:51:18.033Z</time></trkpt><trkpt lat="43.1007767" lon="12.3039174"><ele>245.0</ele><time>2026-04-04T17:51:19.021Z</time></trkpt><trkpt lat="43.1007997" lon="12.304026"><ele>245.0</ele><time>2026-04-04T17:51:20.021Z</time></trkpt><trkpt lat="43.1008061" lon="12.3041205"><ele>245.0</ele><time>2026-04-04T17:51:21.029Z</time></trkpt><trkpt lat="43.1008089" lon="12.3042207"><ele>245.00000000000003</ele><time>2026-04-04T17:51:22.033Z</time></trkpt><trkpt lat="43.1008123" lon="12.3043344"><ele>245.0</ele><time>2026-04-04T17:51:23.02Z</time></trkpt><trkpt lat="43.1008166" lon="12.30445"><ele>245.0</ele><time>2026-04-04T17:51:24.039Z</time></trkpt><trkpt lat="43.1008061" lon="12.3045836"><ele>245.0</ele><time>2026-04-04T17:51:25.025Z</time></trkpt><trkpt lat="43.1007924" lon="12.3047495"><ele>245.0</ele><time>2026-04-04T17:51:26.032Z</time></trkpt><trkpt lat="43.1007868" lon="12.3049355"><ele>245.0</ele><time>2026-04-04T17:51:27.025Z</time></trkpt><trkpt lat="43.1007729" lon="12.3051599"><ele>245.33333333333334</ele><time>2026-04-04T17:51:28.034Z</time></trkpt><trkpt lat="43.1007591" lon="12.3053999"><ele>245.66666666666669</ele><time>2026-04-04T17:51:29.024Z</time></trkpt><trkpt lat="43.1007424" lon="12.305639"><ele>246.0</ele><time>2026-04-04T17:51:30.034Z</time></trkpt><trkpt lat="43.1007254" lon="12.3059118"><ele>246.0</ele><time>2026-04-04T17:51:31.034Z</time></trkpt><trkpt lat="43.100712" lon="12.3061917"><ele>246.0</ele><time>2026-04-04T17:51:32.03Z</time></trkpt><trkpt lat="43.1007034" lon="12.3064701"><ele>246.0</ele><time>2026-04-04T17:51:33.029Z</time></trkpt><trkpt lat="43.1006916" lon="12.3067481"><ele>246.0</ele><time>2026-04-04T17:51:34.044Z</time></trkpt><trkpt lat="43.1006879" lon="12.3070077"><ele>246.0</ele><time>2026-04-04T17:51:35.024Z</time></trkpt><trkpt lat="43.1006842" lon="12.3072501"><ele>246.0</ele><time>2026-04-04T17:51:36.036Z</time></trkpt><trkpt lat="43.1006817" lon="12.307485"><ele>246.0</ele><time>2026-04-04T17:51:37.042Z</time></trkpt><trkpt lat="43.1006839" lon="12.3077217"><ele>246.0</ele><time>2026-04-04T17:51:38.029Z</time></trkpt><trkpt lat="43.1006882" lon="12.3079678"><ele>246.0</ele><time>2026-04-04T17:51:39.033Z</time></trkpt><trkpt lat="43.1006941" lon="12.3082224"><ele>246.33333333333331</ele><time>2026-04-04T17:51:40.028Z</time></trkpt><trkpt lat="43.100692" lon="12.3084861"><ele>246.66666666666666</ele><time>2026-04-04T17:51:41.034Z</time></trkpt><trkpt lat="43.100681" lon="12.3087457"><ele>247.0</ele><time>2026-04-04T17:51:42.028Z</time></trkpt><trkpt lat="43.1006499" lon="12.3089866"><ele>247.0</ele><time>2026-04-04T17:51:43.028Z</time></trkpt><trkpt lat="43.1006115" lon="12.3092117"><ele>247.0</ele><time>2026-04-04T17:51:44.034Z</time></trkpt><trkpt lat="43.1005657" lon="12.3094264"><ele>247.0</ele><time>2026-04-04T17:51:45.039Z</time></trkpt><trkpt lat="43.1005253" lon="12.3096266"><ele>247.75</ele><time>2026-04-04T17:51:46.037Z</time></trkpt><trkpt lat="43.1004859" lon="12.3098086"><ele>248.5</ele><time>2026-04-04T17:51:47.028Z</time></trkpt><trkpt lat="43.1004469" lon="12.3099812"><ele>249.25</ele><time>2026-04-04T17:51:48.043Z</time></trkpt><trkpt lat="43.1004131" lon="12.3101449"><ele>250.0</ele><time>2026-04-04T17:51:49.037Z</time></trkpt><trkpt lat="43.10038" lon="12.3102998"><ele>250.0</ele><time>2026-04-04T17:51:50.023Z</time></trkpt><trkpt lat="43.1003416" lon="12.3104707"><ele>250.0</ele><time>2026-04-04T17:51:51.038Z</time></trkpt><trkpt lat="43.1002989" lon="12.3106542"><ele>250.0</ele><time>2026-04-04T17:51:52.035Z</time></trkpt><trkpt lat="43.1002619" lon="12.3108423"><ele>250.0</ele><time>2026-04-04T17:51:53.033Z</time></trkpt><trkpt lat="43.1002226" lon="12.3110198"><ele>250.75</ele><time>2026-04-04T17:51:54.037Z</time></trkpt><trkpt lat="43.100188" lon="12.3111991"><ele>251.5</ele><time>2026-04-04T17:51:55.037Z</time></trkpt><trkpt lat="43.1001587" lon="12.3113814"><ele>252.25</ele><time>2026-04-04T17:51:56.038Z</time></trkpt><trkpt lat="43.1001336" lon="12.3115684"><ele>253.0</ele><time>2026-04-04T17:51:57.026Z</time></trkpt><trkpt lat="43.1001105" lon="12.3117616"><ele>253.5</ele><time>2026-04-04T17:51:58.047Z</time></trkpt><trkpt lat="43.1000888" lon="12.3119533"><ele>254.0</ele><time>2026-04-04T17:51:59.041Z</time></trkpt><trkpt lat="43.1000685" lon="12.3121379"><ele>254.5</ele><time>2026-04-04T17:52:00.038Z</time></trkpt><trkpt lat="43.100049" lon="12.312303"><ele>255.0</ele><time>2026-04-04T17:52:01.023Z</time></trkpt><trkpt lat="43.1000261" lon="12.3124749"><ele>255.25</ele><time>2026-04-04T17:52:02.032Z</time></trkpt><trkpt lat="43.100011" lon="12.3126362"><ele>255.5</ele><time>2026-04-04T17:52:03.024Z</time></trkpt><trkpt lat="43.1000001" lon="12.3127996"><ele>255.75</ele><time>2026-04-04T17:52:04.025Z</time></trkpt><trkpt lat="43.0999825" lon="12.3129536"><ele>256.0</ele><time>2026-04-04T17:52:05.023Z</time></trkpt><trkpt lat="43.099964" lon="12.3130986"><ele>255.99999999999997</ele><time>2026-04-04T17:52:06.032Z</time></trkpt><trkpt lat="43.099956" lon="12.3132344"><ele>256.0</ele><time>2026-04-04T17:52:07.034Z</time></trkpt><trkpt lat="43.0999568" lon="12.3133567"><ele>256.0</ele><time>2026-04-04T17:52:08.035Z</time></trkpt><trkpt lat="43.0999844" lon="12.313446"><ele>256.0</ele><time>2026-04-04T17:52:09.026Z</time></trkpt><trkpt lat="43.1000248" lon="12.3135325"><ele>255.99999999999997</ele><time>2026-04-04T17:52:10.029Z</time></trkpt><trkpt lat="43.1000888" lon="12.3135673"><ele>256.0</ele><time>2026-04-04T17:52:11.034Z</time></trkpt><trkpt lat="43.1001665" lon="12.3135563"><ele>256.0</ele><time>2026-04-04T17:52:12.043Z</time></trkpt><trkpt lat="43.1002393" lon="12.3135105"><ele>256.0</ele><time>2026-04-04T17:52:13.031Z</time></trkpt><trkpt lat="43.10031" lon="12.3134423"><ele>256.0</ele><time>2026-04-04T17:52:14.025Z</time></trkpt><trkpt lat="43.1003851" lon="12.3133311"><ele>256.0</ele><time>2026-04-04T17:52:15.037Z</time></trkpt><trkpt lat="43.1004759" lon="12.3132103"><ele>256.0</ele><time>2026-04-04T17:52:16.025Z</time></trkpt><trkpt lat="43.1005738" lon="12.3130754"><ele>256.0</ele><time>2026-04-04T17:52:17.04Z</time></trkpt><trkpt lat="43.1006913" lon="12.3129355"><ele>256.0</ele><time>2026-04-04T17:52:18.036Z</time></trkpt><trkpt lat="43.1008115" lon="12.3127644"><ele>256.0</ele><time>2026-04-04T17:52:19.03Z</time></trkpt><trkpt lat="43.1009342" lon="12.3125846"><ele>257.0</ele><time>2026-04-04T17:52:20.024Z</time></trkpt><trkpt lat="43.1010557" lon="12.3123905"><ele>258.0</ele><time>2026-04-04T17:52:21.024Z</time></trkpt><trkpt lat="43.1011692" lon="12.3122014"><ele>259.0</ele><time>2026-04-04T17:52:22.035Z</time></trkpt><trkpt lat="43.1012845" lon="12.3120223"><ele>259.0</ele><time>2026-04-04T17:52:23.036Z</time></trkpt><trkpt lat="43.1013948" lon="12.3118544"><ele>259.0</ele><time>2026-04-04T17:52:24.04Z</time></trkpt><trkpt lat="43.1014933" lon="12.3117"><ele>259.0</ele><time>2026-04-04T17:52:25.028Z</time></trkpt><trkpt lat="43.1016022" lon="12.3115526"><ele>259.5</ele><time>2026-04-04T17:52:26.038Z</time></trkpt><trkpt lat="43.1017177" lon="12.3114327"><ele>260.0</ele><time>2026-04-04T17:52:27.033Z</time></trkpt><trkpt lat="43.1018244" lon="12.3113473"><ele>260.5</ele><time>2026-04-04T17:52:28.026Z</time></trkpt><trkpt lat="43.101929" lon="12.3112817"><ele>261.0</ele><time>2026-04-04T17:52:29.033Z</time></trkpt><trkpt lat="43.1020145" lon="12.311282"><ele>261.0</ele><time>2026-04-04T17:52:30.029Z</time></trkpt><trkpt lat="43.1020985" lon="12.3113189"><ele>261.0</ele><time>2026-04-04T17:52:31.029Z</time></trkpt><trkpt lat="43.1021847" lon="12.3113993"><ele>261.0</ele><time>2026-04-04T17:52:32.033Z</time></trkpt><trkpt lat="43.1022517" lon="12.3115361"><ele>261.0</ele><time>2026-04-04T17:52:33.027Z</time></trkpt><trkpt lat="43.1022997" lon="12.311702"><ele>261.0</ele><time>2026-04-04T17:52:34.046Z</time></trkpt><trkpt lat="43.1023568" lon="12.3119184"><ele>261.3333333333333</ele><time>2026-04-04T17:52:35.029Z</time></trkpt><trkpt lat="43.1024092" lon="12.3121479"><ele>261.66666666666663</ele><time>2026-04-04T17:52:36.032Z</time></trkpt><trkpt lat="43.1024481" lon="12.3123492"><ele>262.0</ele><time>2026-04-04T17:52:37.025Z</time></trkpt><trkpt lat="43.1024823" lon="12.3125315"><ele>263.8</ele><time>2026-04-04T17:52:38.039Z</time></trkpt><trkpt lat="43.1025204" lon="12.312704"><ele>265.6</ele><time>2026-04-04T17:52:39.032Z</time></trkpt><trkpt lat="43.1025549" lon="12.3128615"><ele>267.40000000000003</ele><time>2026-04-04T17:52:40.03Z</time></trkpt><trkpt lat="43.1025824" lon="12.3130009"><ele>269.2</ele><time>2026-04-04T17:52:41.022Z</time></trkpt><trkpt lat="43.1026046" lon="12.3131237"><ele>271.0</ele><time>2026-04-04T17:52:42.043Z</time></trkpt><trkpt lat="43.1026292" lon="12.3132244"><ele>271.6</ele><time>2026-04-04T17:52:43.02Z</time></trkpt><trkpt lat="43.1026514" lon="12.3133116"><ele>272.20000000000005</ele><time>2026-04-04T17:52:44.028Z</time></trkpt><trkpt lat="43.1026778" lon="12.3134114"><ele>272.79999999999995</ele><time>2026-04-04T17:52:46.028Z</time></trkpt><trkpt lat="43.1027049" lon="12.3135245"><ele>273.4</ele><time>2026-04-04T17:52:49.032Z</time></trkpt><trkpt lat="43.1027223" lon="12.3136664"><ele>274.0</ele><time>2026-04-04T17:52:51.039Z</time></trkpt><trkpt lat="43.1027527" lon="12.3138406"><ele>274.14285714285717</ele><time>2026-04-04T17:52:53.055Z</time></trkpt><trkpt lat="43.1027678" lon="12.3139355"><ele>274.2857142857143</ele><time>2026-04-04T17:52:54.035Z</time></trkpt><trkpt lat="43.1027902" lon="12.3140394"><ele>274.42857142857144</ele><time>2026-04-04T17:52:55.022Z</time></trkpt><trkpt lat="43.1028087" lon="12.3141396"><ele>274.57142857142856</ele><time>2026-04-04T17:52:56.028Z</time></trkpt><trkpt lat="43.1028343" lon="12.3142423"><ele>274.7142857142857</ele><time>2026-04-04T17:52:57.027Z</time></trkpt><trkpt lat="43.1028499" lon="12.3143405"><ele>274.8571428571429</ele><time>2026-04-04T17:52:58.024Z</time></trkpt><trkpt lat="43.1028701" lon="12.3144313"><ele>275.0</ele><time>2026-04-04T17:52:59.031Z</time></trkpt><trkpt lat="43.102891" lon="12.3145243"><ele>275.0</ele><time>2026-04-04T17:53:00.035Z</time></trkpt><trkpt lat="43.102915" lon="12.3146135"><ele>275.0</ele><time>2026-04-04T17:53:01.04Z</time></trkpt><trkpt lat="43.1029406" lon="12.3147045"><ele>275.0</ele><time>2026-04-04T17:53:02.035Z</time></trkpt><trkpt lat="43.1029566" lon="12.3148032"><ele>275.0</ele><time>2026-04-04T17:53:03.022Z</time></trkpt><trkpt lat="43.1029798" lon="12.3149011"><ele>275.0</ele><time>2026-04-04T17:53:04.034Z</time></trkpt><trkpt lat="43.1030006" lon="12.3150071"><ele>275.0</ele><time>2026-04-04T17:53:05.024Z</time></trkpt><trkpt lat="43.1030179" lon="12.3151095"><ele>275.0</ele><time>2026-04-04T17:53:06.034Z</time></trkpt><trkpt lat="43.1030397" lon="12.3152066"><ele>275.0</ele><time>2026-04-04T17:53:07.03Z</time></trkpt><trkpt lat="43.1030558" lon="12.3152901"><ele>275.0</ele><time>2026-04-04T17:53:08.029Z</time></trkpt><trkpt lat="43.1030842" lon="12.3154366"><ele>275.0</ele><time>2026-04-04T17:53:10.05Z</time></trkpt><trkpt lat="43.1030921" lon="12.3155361"><ele>275.0</ele><time>2026-04-04T17:53:12.026Z</time></trkpt><trkpt lat="43.1031103" lon="12.3156615"><ele>275.0</ele><time>2026-04-04T17:53:15.034Z</time></trkpt><trkpt lat="43.1031228" lon="12.3157578"><ele>275.0</ele><time>2026-04-04T17:53:18.048Z</time></trkpt><trkpt lat="43.1031324" lon="12.315889"><ele>275.0</ele><time>2026-04-04T17:53:21.042Z</time></trkpt><trkpt lat="43.103125" lon="12.3160104"><ele>275.0</ele><time>2026-04-04T17:53:23.028Z</time></trkpt><trkpt lat="43.1031442" lon="12.3161311"><ele>275.0</ele><time>2026-04-04T17:53:25.03Z</time></trkpt><trkpt lat="43.103217" lon="12.3162502"><ele>275.0</ele><time>2026-04-04T17:53:27.017Z</time></trkpt><trkpt lat="43.10327" lon="12.3163737"><ele>275.0</ele><time>2026-04-04T17:53:29.024Z</time></trkpt><trkpt lat="43.1032939" lon="12.3164697"><ele>275.33333333333337</ele><time>2026-04-04T17:53:31.027Z</time></trkpt><trkpt lat="43.1033222" lon="12.3165527"><ele>275.6666666666667</ele><time>2026-04-04T17:53:36.025Z</time></trkpt><trkpt lat="43.1033519" lon="12.3166673"><ele>276.0</ele><time>2026-04-04T17:53:39.037Z</time></trkpt><trkpt lat="43.1033781" lon="12.3167685"><ele>276.3333333333333</ele><time>2026-04-04T17:53:40.034Z</time></trkpt><trkpt lat="43.103397" lon="12.3168943"><ele>276.66666666666663</ele><time>2026-04-04T17:53:41.02Z</time></trkpt><trkpt lat="43.103418" lon="12.3170191"><ele>277.0</ele><time>2026-04-04T17:53:42.037Z</time></trkpt><trkpt lat="43.1034368" lon="12.3171309"><ele>277.0</ele><time>2026-04-04T17:53:43.025Z</time></trkpt><trkpt lat="43.1034523" lon="12.3172265"><ele>277.0</ele><time>2026-04-04T17:53:44.03Z</time></trkpt><trkpt lat="43.1034885" lon="12.3173851"><ele>277.0</ele><time>2026-04-04T17:53:46.03Z</time></trkpt><trkpt lat="43.1035067" lon="12.3175134"><ele>277.0</ele><time>2026-04-04T17:53:48.024Z</time></trkpt><trkpt lat="43.1035319" lon="12.3176304"><ele>277.0</ele><time>2026-04-04T17:53:50.029Z</time></trkpt><trkpt lat="43.1035673" lon="12.3177566"><ele>277.4</ele><time>2026-04-04T17:53:52.021Z</time></trkpt><trkpt lat="43.1035898" lon="12.3178902"><ele>277.79999999999995</ele><time>2026-04-04T17:53:54.025Z</time></trkpt><trkpt lat="43.1036304" lon="12.3180316"><ele>278.2</ele><time>2026-04-04T17:53:56.023Z</time></trkpt><trkpt lat="43.1036701" lon="12.3181723"><ele>278.59999999999997</ele><time>2026-04-04T17:53:58.027Z</time></trkpt><trkpt lat="43.1036935" lon="12.3183099"><ele>279.0</ele><time>2026-04-04T17:54:00.038Z</time></trkpt><trkpt lat="43.1037145" lon="12.3184423"><ele>279.1666666666667</ele><time>2026-04-04T17:54:02.023Z</time></trkpt><trkpt lat="43.1037393" lon="12.3185568"><ele>279.3333333333333</ele><time>2026-04-04T17:54:04.025Z</time></trkpt><trkpt lat="43.1038171" lon="12.3186072"><ele>279.5</ele><time>2026-04-04T17:54:07.033Z</time></trkpt><trkpt lat="43.1038822" lon="12.3185786"><ele>279.66666666666663</ele><time>2026-04-04T17:54:08.03Z</time></trkpt><trkpt lat="43.1039617" lon="12.3185634"><ele>279.8333333333333</ele><time>2026-04-04T17:54:09.028Z</time></trkpt><trkpt lat="43.1040759" lon="12.3185435"><ele>280.0</ele><time>2026-04-04T17:54:10.026Z</time></trkpt><trkpt lat="43.1041979" lon="12.3185215"><ele>281.5</ele><time>2026-04-04T17:54:11.026Z</time></trkpt><trkpt lat="43.1043472" lon="12.3185035"><ele>283.0</ele><time>2026-04-04T17:54:12.031Z</time></trkpt><trkpt lat="43.1044901" lon="12.3184834"><ele>284.5</ele><time>2026-04-04T17:54:13.027Z</time></trkpt><trkpt lat="43.1046083" lon="12.3184601"><ele>286.0</ele><time>2026-04-04T17:54:14.042Z</time></trkpt><trkpt lat="43.104741" lon="12.3184627"><ele>286.0</ele><time>2026-04-04T17:54:15.03Z</time></trkpt><trkpt lat="43.1048719" lon="12.318447"><ele>286.0</ele><time>2026-04-04T17:54:16.029Z</time></trkpt><trkpt lat="43.1050025" lon="12.3184023"><ele>286.0</ele><time>2026-04-04T17:54:17.037Z</time></trkpt><trkpt lat="43.1051186" lon="12.3184087"><ele>286.0</ele><time>2026-04-04T17:54:18.031Z</time></trkpt><trkpt lat="43.1052344" lon="12.3184186"><ele>287.0</ele><time>2026-04-04T17:54:19.031Z</time></trkpt><trkpt lat="43.1053546" lon="12.3184052"><ele>288.0</ele><time>2026-04-04T17:54:20.038Z</time></trkpt><trkpt lat="43.1054661" lon="12.3183564"><ele>289.0</ele><time>2026-04-04T17:54:21.05Z</time></trkpt><trkpt lat="43.1055717" lon="12.3182926"><ele>290.0</ele><time>2026-04-04T17:54:22.047Z</time></trkpt><trkpt lat="43.1056814" lon="12.3182135"><ele>291.4</ele><time>2026-04-04T17:54:23.026Z</time></trkpt><trkpt lat="43.1057987" lon="12.3181325"><ele>292.8</ele><time>2026-04-04T17:54:24.026Z</time></trkpt><trkpt lat="43.1059071" lon="12.3180655"><ele>294.2</ele><time>2026-04-04T17:54:25.026Z</time></trkpt><trkpt lat="43.1059859" lon="12.3180147"><ele>295.6</ele><time>2026-04-04T17:54:26.033Z</time></trkpt><trkpt lat="43.1060541" lon="12.3179824"><ele>297.0</ele><time>2026-04-04T17:54:27.029Z</time></trkpt><trkpt lat="43.1061534" lon="12.3180305"><ele>297.0</ele><time>2026-04-04T17:54:29.018Z</time></trkpt><trkpt lat="43.1061886" lon="12.3181073"><ele>297.0</ele><time>2026-04-04T17:54:30.029Z</time></trkpt><trkpt lat="43.1062038" lon="12.3182029"><ele>297.0</ele><time>2026-04-04T17:54:31.032Z</time></trkpt><trkpt lat="43.1062124" lon="12.318315"><ele>297.0</ele><time>2026-04-04T17:54:32.019Z</time></trkpt><trkpt lat="43.1062212" lon="12.3184255"><ele>297.0</ele><time>2026-04-04T17:54:33.023Z</time></trkpt><trkpt lat="43.1062463" lon="12.3185386"><ele>297.0</ele><time>2026-04-04T17:54:34.023Z</time></trkpt><trkpt lat="43.1062776" lon="12.3186523"><ele>297.0</ele><time>2026-04-04T17:54:35.032Z</time></trkpt><trkpt lat="43.1063056" lon="12.3187655"><ele>297.0</ele><time>2026-04-04T17:54:36.021Z</time></trkpt><trkpt lat="43.1063279" lon="12.3188807"><ele>297.0</ele><time>2026-04-04T17:54:37.028Z</time></trkpt><trkpt lat="43.1063478" lon="12.3189935"><ele>297.0</ele><time>2026-04-04T17:54:38.02Z</time></trkpt><trkpt lat="43.1063702" lon="12.3191123"><ele>297.0</ele><time>2026-04-04T17:54:39.044Z</time></trkpt><trkpt lat="43.1063918" lon="12.3192226"><ele>297.0</ele><time>2026-04-04T17:54:40.027Z</time></trkpt><trkpt lat="43.1064082" lon="12.319339"><ele>296.6666666666667</ele><time>2026-04-04T17:54:41.044Z</time></trkpt><trkpt lat="43.1064028" lon="12.3194389"><ele>296.3333333333333</ele><time>2026-04-04T17:54:42.048Z</time></trkpt><trkpt lat="43.1063472" lon="12.3195712"><ele>296.0</ele><time>2026-04-04T17:54:44.039Z</time></trkpt><trkpt lat="43.1062687" lon="12.3196418"><ele>295.66666666666663</ele><time>2026-04-04T17:54:46.03Z</time></trkpt><trkpt lat="43.106264" lon="12.3197319"><ele>295.3333333333333</ele><time>2026-04-04T17:54:48.031Z</time></trkpt><trkpt lat="43.1063308" lon="12.3197313"><ele>295.0</ele><time>2026-04-04T17:54:50.027Z</time></trkpt><trkpt lat="43.1064248" lon="12.319666"><ele>295.0</ele><time>2026-04-04T17:54:52.039Z</time></trkpt><trkpt lat="43.1064974" lon="12.3196409"><ele>295.0</ele><time>2026-04-04T17:54:55.033Z</time></trkpt><trkpt lat="43.1065733" lon="12.3196289"><ele>295.0</ele><time>2026-04-04T17:54:59.036Z</time></trkpt><trkpt lat="43.1066406" lon="12.3196551"><ele>295.0</ele><time>2026-04-04T17:55:02.036Z</time></trkpt><trkpt lat="43.106715" lon="12.3196717"><ele>295.0</ele><time>2026-04-04T17:55:04.025Z</time></trkpt><trkpt lat="43.1063662" lon="12.3197636"><ele>295.2</ele><time>2026-04-04T17:56:46.017Z</time></trkpt><trkpt lat="43.1065288" lon="12.3197608"><ele>295.4</ele><time>2026-04-04T17:56:56.015Z</time></trkpt><trkpt lat="43.1066108" lon="12.3197334"><ele>295.6</ele><time>2026-04-04T17:56:58.008Z</time></trkpt><trkpt lat="43.1066646" lon="12.3196803"><ele>295.8</ele><time>2026-04-04T17:57:04.004Z</time></trkpt><trkpt lat="43.1067519" lon="12.3196447"><ele>296.0</ele><time>2026-04-04T17:57:17.014Z</time></trkpt><trkpt lat="43.106817" lon="12.3195927"><ele>301.0</ele><time>2026-04-04T17:57:31.007Z</time></trkpt><trkpt lat="43.1068714" lon="12.3195462"><ele>301.0</ele><time>2026-04-04T17:57:33.015Z</time></trkpt></trkseg></trk></gpx>